Date time  Uvelocity_cm/s Vvelocity_cm/s W_velocity_cm/s horizontalSpeedCareful_cm/s TotalSpeedCareful_cm/s HorizontalWindDirection_deg WindElevation_deg SpeedOfSound_cm/sec Temperature_Kelvin pressure_mb2009/04/23 13:59:59.9      -9     61     85     62    105 351.1  60.5  34304  292.01 0854.45
2009/04/23 14:00:00.0      97    -15    115     99    151  98.8  54.8  34358  292.95 0854.45
2009/04/23 14:00:00.1     182    -67    142    195    241 110.2  39.7  34346  292.73 0854.45
2009/04/23 14:00:00.2     211   -116    172    241    296 118.9  39.3  34338  292.59 0854.45
2009/04/23 14:00:00.3     184    -32     79    187    203 100.1  24.1  34336  292.58 0854.45
2009/04/23 14:00:00.4     158    -53    115    167    202 108.6  37.6  34346  292.75 0854.45
2009/04/23 14:00:00.5     147    -20     73    149    165  97.9  28.0  34348  292.76 0854.45
2009/04/23 14:00:00.6     106    -27     21    110    113 104.6  11.1  34348  292.78 0854.45
2009/04/23 14:00:00.7      48    -68      3     84     85 144.4   2.3  34344  292.69 0854.46
2009/04/23 14:00:00.8     -47    -81     76     94    120 210.3  43.7  34356  292.92 0854.46
2009/04/23 14:00:00.9     -89   -151     79    176    192 210.5  25.9  34364  293.04 0854.46
2009/04/23 14:00:01.0     -64   -193     60    204    213 198.5  16.6  34338  292.61 0854.46
2009/04/23 14:00:01.1    -154   -180     31    237    239 220.5   7.5  34352  292.84 0854.46
2009/04/23 14:00:01.2    -159   -164     63    229    238 224.1  15.6  34362  292.99 0854.46
2009/04/23 14:00:01.3    -158   -133     75    207    220 230.0  20.7  34370  293.15 0854.46
2009/04/23 14:00:01.4    -175   -108     72    206    218 238.2  20.0  34376  293.24 0854.46
2009/04/23 14:00:01.5    -215    -65    101    225    246 253.1  25.9  34376  293.25 0854.46
2009/04/23 14:00:01.6    -201   -112     80    231    245 240.9  19.2  34352  292.82 0854.46
2009/04/23 14:00:01.7    -213    -58     60    221    230 254.7  15.3  34358  292.95 0854.46
2009/04/23 14:00:01.8    -213    -95     34    234    237 245.8   8.5  34352  292.84 0854.46
2009/04/23 14:00:01.9    -223   -118     83    253    267 242.0  18.1  34336  292.57 0854.46
2009/04/23 14:00:02.0    -165   -157     63    229    238 226.4  15.6  34322  292.33 0854.46
2009/04/23 14:00:02.1    -119   -160     48    200    206 216.7  13.5  34294  291.86 0854.46
2009/04/23 14:00:02.2     -41   -203    -49    208    214 191.6 -13.4  34294  291.86 0854.46
2009/04/23 14:00:02.3     -21   -213    -42    215    220 185.8 -11.1  34306  292.05 0854.46
2009/04/23 14:00:02.4      16   -248     12    249    250 176.2   2.8  34314  292.18 0854.46
2009/04/23 14:00:02.5     -18   -224     -8    225    226 184.7  -2.2  34296  291.88 0854.46
2009/04/23 14:00:02.6     -43   -231    -24    236    238 190.7  -6.0  34288  291.73 0854.46
2009/04/23 14:00:02.7      17   -230     71    231    242 175.6  17.3  34334  292.53 0854.47
2009/04/23 14:00:02.8      32   -234    105    237    259 172.0  25.3  34308  292.09 0854.47
2009/04/23 14:00:02.9      42   -209     79    214    228 168.4  21.0  34298  291.93 0854.47
2009/04/23 14:00:03.0     -16   -213     92    214    232 184.5  24.9  34316  292.22 0854.47
2009/04/23 14:00:03.1       0   -221     76    222    235 180.2  18.9  34294  291.86 0854.47
2009/04/23 14:00:03.2     -38   -222     75    226    239 189.7  18.5  34316  292.23 0854.47
2009/04/23 14:00:03.3    -107   -193     19    221    222 209.0   5.0  34332  292.49 0854.47
2009/04/23 14:00:03.4     -81   -189     13    206    207 203.2   3.8  34308  292.08 0854.47
2009/04/23 14:00:03.5       7   -184     26    185    187 177.8   8.2  34314  292.18 0854.47
2009/04/23 14:00:03.6      24   -157    113    159    195 171.1  39.1  34324  292.37 0854.47
2009/04/23 14:00:03.7     -42   -248    119    252    278 189.6  27.1  34306  292.04 0854.47
2009/04/23 14:00:03.8     -64   -203    162    213    267 197.6  40.9  34292  291.80 0854.47
2009/04/23 14:00:03.9     -47   -169    144    176    227 195.8  43.7  34282  291.64 0854.47
2009/04/23 14:00:04.0      -2   -136    189    137    233 181.0  60.6  34298  291.91 0854.47
2009/04/23 14:00:04.1     -30   -146    181    150    235 191.6  56.3  34300  291.95 0854.47
2009/04/23 14:00:04.2       7   -163    161    164    229 177.3  49.9  34302  291.98 0854.47
2009/04/23 14:00:04.3       6   -162    138    163    213 177.8  44.3  34302  291.98 0854.47
2009/04/23 14:00:04.4      15   -182    166    183    247 175.1  46.9  34308  292.08 0854.47
2009/04/23 14:00:04.5     -42   -148    193    154    246 196.0  57.3  34310  292.13 0854.47
2009/04/23 14:00:04.6      -5   -105    204    106    229 183.1  70.6  34308  292.10 0854.47
2009/04/23 14:00:04.7     -92   -167    230    191    298 209.0  56.3  34310  292.11 0854.48
2009/04/23 14:00:04.8     -37   -106    223    113    249 199.6  71.1  34332  292.49 0854.48
2009/04/23 14:00:04.9    -123   -151    225    195    297 219.2  54.6  34304  292.02 0854.48
2009/04/23 14:00:05.0     -83   -123    241    149    283 214.3  65.4  34302  291.97 0854.48
2009/04/23 14:00:05.1     -94    -83    128    126    179 228.7  50.1  34300  291.95 0854.48
2009/04/23 14:00:05.2    -111    -97     50    148    157 228.7  18.9  34302  292.00 0854.48
2009/04/23 14:00:05.3     -70   -120    142    140    199 210.3  50.1  34320  292.30 0854.48
2009/04/23 14:00:05.4    -134    -54     81    145    166 247.8  31.9  34314  292.18 0854.48
2009/04/23 14:00:05.5     -78    -68     73    104    127 229.1  38.0  34318  292.25 0854.48
2009/04/23 14:00:05.6     -42    155      0    161    162 344.9   0.2  34314  292.18 0854.48
2009/04/23 14:00:05.7      56    185     54    194    202  16.9  15.6  34318  292.27 0854.48
2009/04/23 14:00:05.8      86    199     74    217    230  23.4  18.9  34308  292.10 0854.48
2009/04/23 14:00:05.9     102    160     57    190    199  32.6  16.8  34312  292.15 0854.48
2009/04/23 14:00:06.0     154    260    101    303    320  30.7  18.4  34328  292.43 0854.48
2009/04/23 14:00:06.1     118    259    136    285    315  24.5  27.3  34330  292.47 0854.48
2009/04/23 14:00:06.2       4    317    197    318    374   0.9  34.9  34334  292.54 0854.48
2009/04/23 14:00:06.3     127    303     99    329    344  22.7  16.8  34330  292.46 0854.48
2009/04/23 14:00:06.4     196    194    126    276    303  45.3  26.4  34322  292.33 0854.48
2009/04/23 14:00:06.5     149    226     73    271    281  33.4  15.2  34318  292.26 0854.48
2009/04/23 14:00:06.6      65    179     19    191    192  20.0   5.9  34314  292.18 0854.48
2009/04/23 14:00:06.7      90    205     62    225    234  23.8  15.6  34314  292.20 0854.51
2009/04/23 14:00:06.8      39    217     66    221    231  10.2  16.6  34322  292.32 0854.51
2009/04/23 14:00:06.9      56    179     81    188    204  17.6  24.9  34322  292.34 0854.51
2009/04/23 14:00:07.0      27    267    117    269    293   6.0  25.1  34332  292.50 0854.51
2009/04/23 14:00:07.1      69    274    113    283    304  14.2  23.0  34348  292.76 0854.51
2009/04/23 14:00:07.2      18    234    147    235    277   4.5  35.2  34360  292.98 0854.51
2009/04/23 14:00:07.3     -80    165     53    184    192 333.9  16.0  34366  293.09 0854.51
2009/04/23 14:00:07.4    -225    310     54    384    388 324.0   8.0  34352  292.85 0854.51
2009/04/23 14:00:07.5    -202    451    148    495    517 335.8  16.7  34362  293.02 0854.51
2009/04/23 14:00:07.6    -260    460     22    529    530 330.5   2.4  34368  293.12 0854.51
2009/04/23 14:00:07.7    -187    481   -102    517    528 338.7 -11.2  34336  292.57 0854.51
2009/04/23 14:00:07.8    -301    396     15    498    499 322.7   1.8  34386  293.43 0854.51
2009/04/23 14:00:07.9    -209    435      1    483    484 334.3   0.2  34338  292.60 0854.51
2009/04/23 14:00:08.0    -137    376      5    401    402 339.9   0.8  34374  293.21 0854.51
2009/04/23 14:00:08.1     -11    395    100    396    409 358.3  14.3  34374  293.22 0854.51
2009/04/23 14:00:08.2    -103    546     28    556    557 349.3   2.9  34274  291.50 0854.51
2009/04/23 14:00:08.3     -32    510     10    512    513 356.4   1.2  34308  292.09 0854.51
2009/04/23 14:00:08.4      -3    596     18    597    598 359.6   1.8  34324  292.36 0854.51
2009/04/23 14:00:08.5      50    462      9    465    466   6.2   1.1  34330  292.46 0854.51
2009/04/23 14:00:08.6    -236    284    -71    370    377 320.4 -11.0  34290  291.78 0854.51
2009/04/23 14:00:08.7    -254    237    -79    348    358 313.0 -12.9  34288  291.74 0854.52
2009/04/23 14:00:08.8    -215    142    -74    258    269 303.5 -16.0  34288  291.73 0854.52
2009/04/23 14:00:08.9    -251     73    -88    262    277 286.4 -18.7  34280  291.60 0854.52
2009/04/23 14:00:09.0    -230    212    -75    314    323 312.7 -13.6  34274  291.51 0854.52
2009/04/23 14:00:09.1    -207    189    -78    281    291 312.4 -20.2  34286  291.70 0854.52
2009/04/23 14:00:09.2    -166    221    -99    277    295 323.1 -19.7  34288  291.73 0854.52
2009/04/23 14:00:09.3    -239    122   -123    269    295 297.1 -30.6  34332  292.48 0854.52
2009/04/23 14:00:09.4    -282     31   -125    284    310 276.4 -29.6  34328  292.43 0854.52
2009/04/23 14:00:09.5    -254      7   -147    255    294 271.7 -36.8  34270  291.44 0854.52
2009/04/23 14:00:09.6    -199    110   -106    228    251 299.1 -31.4  34344  292.70 0854.52
2009/04/23 14:00:09.7    -241     87   -116    257    281 289.9 -30.3  34328  292.43 0854.52
2009/04/23 14:00:09.8    -187     37   -145    191    239 281.4 -45.6  34328  292.42 0854.52
2009/04/23 14:00:09.9    -129    -22   -147    131    196 260.3 -58.1  34320  292.29 0854.52
2009/04/23 14:00:10.0    -102   -225    -78    248    259 204.5 -22.8  34302  291.97 0854.52
2009/04/23 14:00:10.1     -29   -241    -57    243    250 186.9 -13.4  34308  292.07 0854.52
2009/04/23 14:00:10.2    -110   -251     74    275    285 203.6  15.2  34326  292.38 0854.52
2009/04/23 14:00:10.3     -97   -204    141    227    267 205.5  35.2  34328  292.41 0854.52
2009/04/23 14:00:10.4    -101   -153     93    184    206 213.4  28.7  34338  292.61 0854.52
2009/04/23 14:00:10.5     -65    -83    150    106    183 218.3  61.3  34340  292.63 0854.52
2009/04/23 14:00:10.6    -215   -202    131    296    323 226.8  25.6  34388  293.45 0854.52
2009/04/23 14:00:10.7    -106   -166    101    198    222 212.5  29.3  34380  293.33 0854.52
2009/04/23 14:00:10.8       2   -161     98    162    189 179.3  34.2  34366  293.07 0854.52
2009/04/23 14:00:10.9     -54   -214      1    221    222 194.3   0.5  34316  292.23 0854.52
2009/04/23 14:00:11.0     -45   -151     48    158    166 196.9  17.1  34330  292.47 0854.52
2009/04/23 14:00:11.1     -90    -71     47    115    124 231.8  23.0  34346  292.75 0854.52
2009/04/23 14:00:11.2    -136    -36     65    141    155 254.9  27.1  34376  293.24 0854.52
2009/04/23 14:00:11.3    -176    -98     86    202    219 240.9  24.6  34360  292.97 0854.52
2009/04/23 14:00:11.4    -102   -132     74    167    182 217.8  25.3  34368  293.12 0854.52
2009/04/23 14:00:11.5    -143    -79     85    164    184 241.2  29.5  34386  293.43 0854.52
2009/04/23 14:00:11.6    -164    -84     63    185    196 242.9  18.9  34408  293.80 0854.52
2009/04/23 14:00:11.7    -147     11    -24    148    151 274.3  -9.3  34400  293.67 0854.53
2009/04/23 14:00:11.8    -164     -5     -3    165    166 268.1  -1.3  34366  293.09 0854.53
2009/04/23 14:00:11.9    -154      2     18    155    157 270.9   6.9  34374  293.22 0854.53
2009/04/23 14:00:12.0    -145    -49    -16    154    155 251.4  -6.2  34330  292.46 0854.53
2009/04/23 14:00:12.1    -139    -76    -26    159    162 241.2  -9.3  34342  292.68 0854.53
2009/04/23 14:00:12.2     -78   -166      6    184    185 205.4   2.1  34366  293.07 0854.53
2009/04/23 14:00:12.3     -80   -125     72    149    165 212.6  27.8  34352  292.83 0854.53
2009/04/23 14:00:12.4     -57    -90     47    107    116 212.6  25.1  34340  292.63 0854.53
2009/04/23 14:00:12.5       0   -111     -1    112    113 180.0  -0.7  34364  293.04 0854.53
2009/04/23 14:00:12.6      48    -76     -5     91     92 147.5  -3.1  34364  293.05 0854.53
2009/04/23 14:00:12.7      37    -65      0     75     76 150.1  -0.3  34326  292.40 0854.53
2009/04/23 14:00:12.8      24    -15    -17     29     33 122.5 -37.9  34328  292.44 0854.53
2009/04/23 14:00:12.9       2     49    -16     50     52   2.7 -23.8  34336  292.58 0854.53
2009/04/23 14:00:13.0      32     46    -11     57     59  35.2 -11.3  34344  292.69 0854.53
2009/04/23 14:00:13.1      78    -42      0     89     90 118.4  -0.3  34336  292.56 0854.53
2009/04/23 14:00:13.2      28    -28     48     40     62 135.0  56.3  34334  292.54 0854.53
2009/04/23 14:00:13.3      16    -39     29     43     51 157.3  37.6  34336  292.56 0854.53
2009/04/23 14:00:13.4      41     -9     57     43     71 103.3  58.5  34332  292.51 0854.53
2009/04/23 14:00:13.5      33    -23     65     41     76 124.2  64.7  34334  292.52 0854.53
2009/04/23 14:00:13.6      14    -59     41     61     73 166.6  36.5  34316  292.22 0854.53
2009/04/23 14:00:13.7      -9   -101     22    102    105 185.3  12.6  34298  291.91 0854.54
2009/04/23 14:00:13.8      24   -100     72    103    125 166.2  38.0  34304  292.03 0854.54
2009/04/23 14:00:13.9     -10   -141     71    142    158 184.4  28.5  34300  291.96 0854.54
2009/04/23 14:00:14.0      38   -257     65    260    269 171.5  14.2  34308  292.07 0854.54
2009/04/23 14:00:14.1      82   -222    -13    237    238 159.7  -3.1  34324  292.35 0854.54
2009/04/23 14:00:14.2      76   -230     12    243    244 161.7   2.9  34330  292.47 0854.54
2009/04/23 14:00:14.3      97   -180     -4    205    206 151.7  -1.3  34308  292.10 0854.54
2009/04/23 14:00:14.4     139   -179    -18    227    228 142.2  -4.6  34316  292.22 0854.54
2009/04/23 14:00:14.5     229   -188    -27    297    299 129.5  -5.2  34274  291.51 0854.54
2009/04/23 14:00:14.6     238   -187    -38    303    306 128.2  -7.3  34266  291.38 0854.54
2009/04/23 14:00:14.7     190   -168    -14    254    255 131.4  -3.3  34268  291.39 0854.54
2009/04/23 14:00:14.8     126   -152    -25    198    200 140.3  -7.2  34264  291.35 0854.54
2009/04/23 14:00:14.9      63   -186     17    197    198 161.3   5.0  34274  291.52 0854.54
2009/04/23 14:00:15.0      14   -189    -38    190    194 175.5 -11.3  34306  292.05 0854.54
2009/04/23 14:00:15.1      31   -221    -41    224    228 172.0 -10.5  34320  292.30 0854.54
2009/04/23 14:00:15.2      31   -251     41    253    257 172.9   9.3  34300  291.96 0854.54
2009/04/23 14:00:15.3      78   -289     97    300    316 164.8  17.9  34266  291.36 0854.54
2009/04/23 14:00:15.4      64   -352    145    358    386 169.7  23.1  34268  291.42 0854.54
2009/04/23 14:00:15.5      39   -359    169    362    399 173.7  26.9  34268  291.40 0854.54
2009/04/23 14:00:15.6      39   -284    128    287    314 172.0  25.7  34264  291.33 0854.54
2009/04/23 14:00:15.7      52   -254    124    260    288 168.4  27.3  34264  291.33 0854.54
2009/04/23 14:00:15.8      26   -237    207    239    316 173.7  45.5  34264  291.33 0854.54
2009/04/23 14:00:15.9       0   -255    266    256    369 180.0  51.1  34266  291.37 0854.54
2009/04/23 14:00:16.0      13   -371    215    372    429 177.9  32.7  34260  291.26 0854.54
2009/04/23 14:00:16.1      40   -371    119    374    393 173.8  17.7  34264  291.35 0854.54
2009/04/23 14:00:16.2     -34   -354     97    356    370 185.6  15.3  34264  291.34 0854.54
2009/04/23 14:00:16.3     -32   -483    104    485    497 183.9  12.1  34270  291.44 0854.54
2009/04/23 14:00:16.4    -127   -378     37    399    401 198.6   5.3  34272  291.49 0854.54
2009/04/23 14:00:16.5    -135   -403    259    426    498 198.6  34.2  34278  291.56 0854.54
2009/04/23 14:00:16.6     -42   -245    307    249    395 189.8  57.0  34292  291.81 0854.54
2009/04/23 14:00:16.7      67   -304    243    312    395 167.5  41.7  34302  291.98 0854.54
2009/04/23 14:00:16.8      42   -328    199    331    386 172.7  33.8  34290  291.78 0854.54
2009/04/23 14:00:16.9      67   -305    227    313    386 167.5  39.7  34290  291.79 0854.54
2009/04/23 14:00:17.0      76   -248    235    260    350 163.0  46.9  34286  291.70 0854.54
2009/04/23 14:00:17.1     121   -257    175    285    334 154.7  34.6  34294  291.85 0854.54
2009/04/23 14:00:17.2     285   -151    134    323    349 118.0  23.8  34296  291.88 0854.54
2009/04/23 14:00:17.3     164   -342    116    380    398 154.4  17.1  34288  291.76 0854.54
2009/04/23 14:00:17.4     141   -319     75    349    358 156.1  12.2  34274  291.52 0854.54
2009/04/23 14:00:17.5     115   -423    173    439    471 164.8  22.7  34264  291.33 0854.54
2009/04/23 14:00:17.6     142   -397    135    422    444 160.2  17.8  34256  291.21 0854.54
2009/04/23 14:00:17.7     145   -479    162    501    527 163.1  17.9  34258  291.22 0854.56
2009/04/23 14:00:17.8     180   -448    269    484    553 158.1  31.4  34264  291.33 0854.56
2009/04/23 14:00:17.9     229   -397    245    459    520 150.0  30.3  34264  291.34 0854.56
2009/04/23 14:00:18.0     142   -331    151    361    391 156.7  24.1  34268  291.40 0854.56
2009/04/23 14:00:18.1     130   -407     94    428    439 162.2  12.4  34268  291.40 0854.56
2009/04/23 14:00:18.2     -54   -390    125    394    414 188.0  17.7  34272  291.48 0854.56
2009/04/23 14:00:18.3     -85   -311    199    323    379 195.4  34.8  34268  291.42 0854.56
2009/04/23 14:00:18.4      59   -304    160    310    348 168.9  29.4  34258  291.25 0854.56
2009/04/23 14:00:18.5      -8   -268    254    269    369 181.8  48.4  34272  291.47 0854.56
2009/04/23 14:00:18.6      12   -209    101    210    233 176.6  27.3  34264  291.33 0854.56
2009/04/23 14:00:18.7      -4   -267     47    268    273 180.9  10.1  34260  291.27 0854.56
2009/04/23 14:00:18.8      16   -298     47    299    303 176.9   9.0  34264  291.33 0854.56
2009/04/23 14:00:18.9       0   -217     23    218    220 180.2   6.1  34266  291.37 0854.56
2009/04/23 14:00:19.0     -85   -117     50    145    154 216.0  19.2  34272  291.47 0854.56
2009/04/23 14:00:19.1     -91   -196     85    217    233 204.9  22.5  34272  291.49 0854.56
2009/04/23 14:00:19.2     -53   -134     16    145    146 201.9   6.5  34276  291.55 0854.56
2009/04/23 14:00:19.3      17   -160     -6    161    162 173.8  -2.2  34274  291.50 0854.56
2009/04/23 14:00:19.4      23   -196     26    198    200 173.1   7.5  34274  291.50 0854.56
2009/04/23 14:00:19.5      96   -235    172    254    306 157.7  37.4  34264  291.33 0854.56
2009/04/23 14:00:19.6     229   -321    139    395    418 144.5  20.1  34268  291.41 0854.56
2009/04/23 14:00:19.7     321   -238     78    400    408 126.6  11.1  34270  291.43 0854.57
2009/04/23 14:00:19.8     124   -262    191    290    347 154.6  36.4  34258  291.23 0854.57
2009/04/23 14:00:19.9     256   -162    135    304    332 122.4  25.6  34264  291.33 0854.57
2009/04/23 14:00:20.0     167   -151    119    226    255 132.0  30.1  34264  291.33 0854.57
2009/04/23 14:00:20.1     294   -310     66    428    434 136.6   8.8  34256  291.21 0854.57
2009/04/23 14:00:20.2     213   -452    122    500    515 154.8  13.8  34218  290.56 0854.57
2009/04/23 14:00:20.3     261   -519    193    582    614 153.3  18.4  34238  290.90 0854.57
2009/04/23 14:00:20.4     239   -497    197    552    586 154.2  20.4  34246  291.04 0854.57
2009/04/23 14:00:20.5     191   -533    262    567    624 160.2  26.5  34220  290.58 0854.57
2009/04/23 14:00:20.6      37   -525    236    527    577 175.9  25.8  34250  291.11 0854.57
2009/04/23 14:00:20.7     -13   -390    251    391    464 182.0  35.6  34244  290.99 0854.57
2009/04/23 14:00:20.8     128   -564   -181    579    606 167.2 -22.3  34258  291.22 0854.57
2009/04/23 14:00:20.9     174   -389   -147    427    451 155.9 -24.3  34262  291.29 0854.57
2009/04/23 14:00:21.0     232   -419   -189    480    515 151.0 -27.1  34272  291.49 0854.57
2009/04/23 14:00:21.1     231   -316   -131    392    414 143.9 -18.6  34270  291.43 0854.57
2009/04/23 14:00:21.2     333   -201   -187    389    431 121.1 -31.8  34262  291.31 0854.57
2009/04/23 14:00:21.3      93   -228   -153    247    290 157.7 -39.6  34268  291.39 0854.57
2009/04/23 14:00:21.4     -18   -244   -208    245    321 184.4 -49.2  34276  291.53 0854.57
2009/04/23 14:00:21.5     -69   -155   -153    170    228 204.1 -51.3  34268  291.40 0854.57
2009/04/23 14:00:21.6     -91   -260    -65    276    284 199.4 -13.4  34278  291.56 0854.57
2009/04/23 14:00:21.7      10   -236    -43    237    241 177.5 -10.4  34276  291.53 0854.58
2009/04/23 14:00:21.8     -19   -240    -63    241    250 184.7 -14.7  34274  291.51 0854.58
2009/04/23 14:00:21.9     138   -235    -44    273    277 149.5  -9.3  34276  291.53 0854.58
2009/04/23 14:00:22.0     113   -244     40    270    274 155.1   8.5  34272  291.48 0854.58
2009/04/23 14:00:22.1     183   -244    -39    306    309 143.1  -7.4  34268  291.39 0854.58
2009/04/23 14:00:22.2     134   -305    -67    334    341 156.3 -11.3  34252  291.15 0854.58
2009/04/23 14:00:22.3     184   -331    -29    380    382 150.9  -4.5  34248  291.06 0854.58
2009/04/23 14:00:22.4     134   -402    -70    424    430 161.5  -9.5  34250  291.11 0854.58
2009/04/23 14:00:22.5     202   -430    -44    476    479 154.8  -5.4  34248  291.08 0854.58
2009/04/23 14:00:22.6     266   -326    -16    421    422 140.8  -2.2  34240  290.94 0854.58
2009/04/23 14:00:22.7     135   -344    -63    370    376 158.6  -9.8  34248  291.08 0854.58
2009/04/23 14:00:22.8     205   -369    -18    423    424 151.0  -2.5  34254  291.16 0854.58
2009/04/23 14:00:22.9     118   -341    -45    362    365 160.8  -7.2  34258  291.25 0854.58
2009/04/23 14:00:23.0      82   -278     39    290    293 163.5   7.8  34250  291.09 0854.58
2009/04/23 14:00:23.1      96   -263     80    281    293 159.9  16.0  34264  291.33 0854.58
2009/04/23 14:00:23.2     107   -280     57    301    307 159.0  10.8  34262  291.29 0854.58
2009/04/23 14:00:23.3      76   -312      5    322    323 166.2   1.0  34252  291.12 0854.58
2009/04/23 14:00:23.4     115   -285     16    308    309 158.1   3.1  34262  291.29 0854.58
2009/04/23 14:00:23.5      69   -299     24    307    309 166.9   4.6  34256  291.21 0854.58
2009/04/23 14:00:23.6     -52   -320     43    325    328 189.4   7.6  34260  291.26 0854.58
2009/04/23 14:00:23.7      40   -285    -47    288    292 171.9  -9.4  34252  291.12 0854.62
2009/04/23 14:00:23.8     -14   -315     44    316    320 182.7   8.0  34252  291.14 0854.62
2009/04/23 14:00:23.9    -156   -285    113    326    346 208.8  19.2  34256  291.20 0854.62
2009/04/23 14:00:24.0    -193   -205   -118    282    305 223.2 -28.5  34252  291.14 0854.62
2009/04/23 14:00:24.1       3   -236    -71    237    247 179.1 -21.7  34252  291.14 0854.62
2009/04/23 14:00:24.2     -18   -348     45    349    352 183.0   7.5  34252  291.13 0854.62
2009/04/23 14:00:24.3     -70   -512     53    517    520 187.8   5.9  34252  291.13 0854.62
2009/04/23 14:00:24.4    -163   -517     17    543    544 197.5   1.9  34258  291.23 0854.62
2009/04/23 14:00:24.5    -151   -362    -46    393    396 202.7  -6.8  34248  291.08 0854.62
2009/04/23 14:00:24.6    -228   -248    -93    338    351 222.6 -15.5  34254  291.18 0854.62
2009/04/23 14:00:24.7    -138   -316    -69    345    352 203.6 -11.3  34260  291.27 0854.62
2009/04/23 14:00:24.8     -11   -405    -62    406    411 181.6  -8.8  34258  291.23 0854.62
2009/04/23 14:00:24.9    -163   -370     12    405    406 203.9   1.7  34256  291.21 0854.62
2009/04/23 14:00:25.0    -114   -336     18    356    357 198.8   3.0  34254  291.17 0854.62
2009/04/23 14:00:25.1    -203   -299    106    362    378 214.2  16.3  34260  291.28 0854.62
2009/04/23 14:00:25.2     -39   -531    117    533    546 184.2  12.4  34258  291.23 0854.62
2009/04/23 14:00:25.3    -138   -455    126    476    493 197.0  14.9  34258  291.24 0854.62
2009/04/23 14:00:25.4    -109   -285    123    306    329 200.9  22.9  34252  291.12 0854.62
2009/04/23 14:00:25.5     -56   -409   -112    413    429 187.8 -15.2  34252  291.14 0854.62
2009/04/23 14:00:25.6      43   -560   -178    562    590 175.5 -17.6  34246  291.04 0854.62
2009/04/23 14:00:25.7      23   -513   -141    514    534 177.4 -15.4  34248  291.08 0854.62
2009/04/23 14:00:25.8     121   -507   -143    522    542 166.6 -15.4  34248  291.06 0854.62
2009/04/23 14:00:26.0     134   -446   -130    466    483 163.2 -20.3  34248  291.05 0854.62
2009/04/23 14:00:26.1     209   -304   -129    370    393 145.5 -19.3  34248  291.06 0854.62
2009/04/23 14:00:26.2     221   -240      1    327    328 137.4   0.2  34246  291.02 0854.62
2009/04/23 14:00:26.3     354   -508     31    620    621 145.2   2.9  34234  290.82 0854.62
2009/04/23 14:00:26.4     285   -501     59    577    581 150.4   5.9  34234  290.83 0854.62
2009/04/23 14:00:26.5     383   -553     98    674    682 145.3   8.3  34236  290.85 0854.62
2009/04/23 14:00:26.6     333   -639     75    721    725 152.5   6.0  34228  290.73 0854.62
2009/04/23 14:00:26.7     367   -539    -19    653    654 145.7  -1.7  34224  290.67 0854.62
2009/04/23 14:00:26.8     241   -551      9    602    603 156.4   0.9  34238  290.90 0854.62
2009/04/23 14:00:26.9     211   -464    -12    510    511 155.5  -1.4  34236  290.85 0854.62
2009/04/23 14:00:27.0     218   -395      6    452    453 151.1   0.8  34236  290.85 0854.62
2009/04/23 14:00:27.1     220   -249     80    333    343 138.5  13.6  34238  290.89 0854.62
2009/04/23 14:00:27.2     216   -261    158    339    374 140.4  27.0  34244  291.00 0854.62
2009/04/23 14:00:27.3     220   -374    198    435    477 149.5  26.2  34242  290.97 0854.62
2009/04/23 14:00:27.4     157   -517    130    541    557 163.1  13.5  34242  290.97 0854.62
2009/04/23 14:00:27.5      40   -431    174    434    467 174.6  23.0  34242  290.95 0854.62
2009/04/23 14:00:27.6     150   -335    172    368    406 155.9  27.1  34244  291.00 0854.62
2009/04/23 14:00:27.7      40   -261    210    265    338 171.1  42.4  34238  290.88 0854.62
2009/04/23 14:00:27.8    -106   -413    300    427    521 194.5  38.5  34248  291.05 0854.59
2009/04/23 14:00:27.9     -49   -477    207    480    522 186.0  25.0  34246  291.02 0854.59
2009/04/23 14:00:28.0       6   -319    134    320    346 178.9  24.1  34244  291.00 0854.59
2009/04/23 14:00:28.1      60   -248     26    256    258 166.4   6.0  34248  291.05 0854.59
2009/04/23 14:00:28.2       0   -241    160    242    290 180.0  36.5  34240  290.92 0854.59
2009/04/23 14:00:28.3       4   -319    161    320    358 179.1  28.7  34246  291.03 0854.59
2009/04/23 14:00:28.4     -19   -413     90    414    424 182.7  12.4  34242  290.95 0854.59
2009/04/23 14:00:28.5     101   -329    370    345    505 162.8  52.2  34248  291.06 0854.59
2009/04/23 14:00:28.6      50   -321    227    326    397 171.0  38.4  34240  290.94 0854.59
2009/04/23 14:00:28.7      19   -349    192    350    399 176.9  31.3  34244  291.01 0854.59
2009/04/23 14:00:28.8      71   -273    176    283    333 165.3  34.9  34238  290.90 0854.59
2009/04/23 14:00:28.9      -7   -370    236    371    439 181.1  35.5  34228  290.72 0854.59
2009/04/23 14:00:29.0     -74   -387    181    395    434 190.9  26.3  34236  290.87 0854.59
2009/04/23 14:00:29.1     -31   -287    195    289    348 186.2  37.2  34238  290.88 0854.59
2009/04/23 14:00:29.2      28   -369    295    371    473 175.5  42.4  34240  290.94 0854.59
2009/04/23 14:00:29.3      39   -358    264    361    447 173.8  39.7  34230  290.77 0854.59
2009/04/23 14:00:29.4     173   -184    233    253    343 136.8  47.6  34238  290.88 0854.59
2009/04/23 14:00:29.5     210   -159    206    264    334 127.1  42.1  34238  290.88 0854.59
2009/04/23 14:00:29.6     161   -197    208    255    329 140.8  43.5  34230  290.75 0854.59
2009/04/23 14:00:29.7      -3   -227    221    228    317 181.0  49.1  34234  290.83 0854.59
2009/04/23 14:00:29.8     -39   -240    214    244    324 189.3  45.7  34234  290.83 0854.58
2009/04/23 14:00:29.9      18   -169    162    171    235 173.8  48.2  34240  290.94 0854.58
2009/04/23 14:00:30.0      80   -140    194    162    252 150.1  56.3  34240  290.94 0854.58
2009/04/23 14:00:30.1     175   -131    200    219    296 126.9  47.1  34240  290.92 0854.58
2009/04/23 14:00:30.2     -11   -149    189    150    241 184.5  57.5  34234  290.84 0854.58
2009/04/23 14:00:30.3       6   -272    188    273    331 178.6  37.8  34228  290.71 0854.58
2009/04/23 14:00:30.4      15   -352    229    353    420 177.5  35.9  34232  290.79 0854.58
2009/04/23 14:00:30.5     114   -454    129    469    487 165.9  15.4  34232  290.79 0854.58
2009/04/23 14:00:30.6     131   -358    144    382    408 159.8  21.6  34230  290.77 0854.58
2009/04/23 14:00:30.7      72   -322    165    331    369 167.3  28.5  34228  290.74 0854.58
2009/04/23 14:00:30.8     -18   -356    255    357    438 182.9  39.1  34234  290.82 0854.58
2009/04/23 14:00:30.9     -66   -404    174    410    445 189.4  24.5  34236  290.85 0854.58
2009/04/23 14:00:31.0     -34   -257    263    260    369 187.6  50.2  34238  290.89 0854.58
2009/04/23 14:00:31.1    -122   -315    272    338    433 201.2  43.0  34238  290.89 0854.58
2009/04/23 14:00:31.2    -311   -464    220    559    600 213.8  22.7  34232  290.80 0854.58
2009/04/23 14:00:31.3    -148   -266    185    305    356 209.2  34.1  34236  290.86 0854.58
2009/04/23 14:00:31.4     -79   -202    301    217    371 201.4  60.7  34238  290.88 0854.58
2009/04/23 14:00:31.5    -235   -335    279    410    495 215.1  37.6  34238  290.91 0854.58
2009/04/23 14:00:31.6    -129   -329    345    354    494 201.5  49.3  34244  290.99 0854.58
2009/04/23 14:00:31.7    -103   -290    280    308    416 199.6  47.0  34228  290.72 0854.58
2009/04/23 14:00:31.8      17   -105    206    107    232 170.7  70.6  34242  290.98 0854.55
2009/04/23 14:00:31.9    -112   -106    150    155    215 226.8  49.4  34230  290.75 0854.55
2009/04/23 14:00:32.0     -92    -92     91    131    159 225.1  38.4  34238  290.89 0854.55
2009/04/23 14:00:32.1       1    -35     94     36    100 177.3  77.6  34246  291.03 0854.55
2009/04/23 14:00:32.2      65    -65     91     93    130 134.9  50.0  34240  290.94 0854.55
2009/04/23 14:00:32.3      50      7    131     51    140  81.2  77.1  34252  291.15 0854.55
2009/04/23 14:00:32.4     -45    -34    107     57    121 233.1  69.8  34266  291.37 0854.55
2009/04/23 14:00:32.5     -25   -124    140    127    189 191.6  53.0  34244  290.99 0854.55
2009/04/23 14:00:32.6     -45    -81    102     93    138 209.0  52.2  34244  290.99 0854.55
2009/04/23 14:00:32.7       0    -45     62     46     77 180.9  60.5  34250  291.11 0854.55
2009/04/23 14:00:32.8      11     89     39     90     98   7.6  24.6  34252  291.15 0854.55
2009/04/23 14:00:32.9       6    135    -22    136    138   2.7  -9.4  34246  291.04 0854.55
2009/04/23 14:00:33.0     -67    105     43    125    133 327.4  19.2  34248  291.06 0854.55
2009/04/23 14:00:33.1      32    -58     79     67    103 151.0  55.4  34262  291.30 0854.55
2009/04/23 14:00:33.2     147   -106    208    182    276 126.0  54.3  34226  290.68 0854.55
2009/04/23 14:00:33.3      26    -26    251     37    253 134.9  90.0  34218  290.55 0854.55
2009/04/23 14:00:33.4    -127   -361    108    383    399 199.4  15.8  34192  290.11 0854.55
2009/04/23 14:00:33.5     -53   -417     35    421    423 187.3   4.9  34198  290.22 0854.55
2009/04/23 14:00:33.6    -310   -391    113    500    513 218.4  12.8  34218  290.56 0854.55
2009/04/23 14:00:33.7    -446   -478    -31    655    656 223.0  -2.8  34218  290.55 0854.55
2009/04/23 14:00:33.8    -272   -466    125    540    555 210.3  13.1  34212  290.45 0854.55
2009/04/23 14:00:33.9    -219   -574     69    615    619 200.9   6.5  34224  290.65 0854.55
2009/04/23 14:00:34.0    -250   -470     16    533    534 208.0   1.8  34218  290.55 0854.55
2009/04/23 14:00:34.1    -135   -406     18    429    430 198.5   2.5  34216  290.51 0854.55
2009/04/23 14:00:34.2     -12   -323     11    324    325 182.2   2.1  34206  290.36 0854.55
2009/04/23 14:00:34.3     212   -198    289    291    410 133.1  50.0  34216  290.52 0854.55
2009/04/23 14:00:34.4     184   -358    343    403    529 152.8  44.8  34210  290.42 0854.55
2009/04/23 14:00:34.5      14   -403    241    404    470 178.0  33.6  34214  290.50 0854.55
2009/04/23 14:00:34.6     -26   -450    208    451    496 183.4  26.5  34188  290.03 0854.55
2009/04/23 14:00:34.7     -75   -491    244    497    553 188.7  28.2  34194  290.16 0854.55
2009/04/23 14:00:34.8      23   -261    274    263    379 174.9  51.3  34206  290.35 0854.54
2009/04/23 14:00:34.9     173   -308    274    354    447 150.6  41.7  34196  290.17 0854.54
2009/04/23 14:00:35.0     250   -302    287    393    486 140.4  39.8  34194  290.14 0854.54
2009/04/23 14:00:35.1     232   -407    266    469    539 150.3  32.0  34178  289.86 0854.54
2009/04/23 14:00:35.2     327   -417    379    530    651 141.9  39.1  34188  290.04 0854.54
2009/04/23 14:00:35.3     307   -363    245    476    535 139.7  29.3  34178  289.89 0854.54
2009/04/23 14:00:35.4     387   -371    273    537    602 133.8  29.2  34188  290.05 0854.54
2009/04/23 14:00:35.5     231   -395    294    458    544 149.7  35.6  34182  289.93 0854.54
2009/04/23 14:00:35.6     178   -336    228    381    444 152.0  33.6  34178  289.87 0854.54
2009/04/23 14:00:35.7     216   -179    196    281    342 129.6  38.5  34190  290.09 0854.54
2009/04/23 14:00:35.8     232   -301    177    381    420 142.4  26.9  34166  289.68 0854.54
2009/04/23 14:00:35.9     234   -234    190    331    381 135.0  32.6  34166  289.69 0854.54
2009/04/23 14:00:36.0     222   -193    201    295    356 130.9  37.6  34182  289.93 0854.54
2009/04/23 14:00:36.1     230   -146    201    273    339 122.5  40.0  34186  290.02 0854.54
2009/04/23 14:00:36.2     115   -111    188    160    246 134.0  55.4  34198  290.21 0854.54
2009/04/23 14:00:36.3      73    -84    147    112    184 139.0  59.2  34198  290.23 0854.54
2009/04/23 14:00:36.4     208   -114    229    238    330 118.9  49.1  34198  290.22 0854.54
2009/04/23 14:00:36.5     183    -64    177    194    262 109.3  47.5  34200  290.24 0854.54
2009/04/23 14:00:36.6      -3    -50    123     51    133 183.6  76.6  34206  290.35 0854.54
2009/04/23 14:00:36.7     -33     33     55     47     72 314.9  55.4  34200  290.25 0854.54
2009/04/23 14:00:36.8     -90    -51    108    104    149 240.2  50.7  34198  290.21 0854.51
2009/04/23 14:00:36.9    -218     78     -1    232    233 289.7  -0.3  34194  290.16 0854.51
2009/04/23 14:00:37.0    -287     94    142    303    334 288.2  27.0  34206  290.34 0854.51
2009/04/23 14:00:37.1    -366      0    -73    367    375 270.0 -11.3  34218  290.57 0854.51
2009/04/23 14:00:37.2    -441    -55     21    445    446 262.9   2.8  34226  290.68 0854.51
2009/04/23 14:00:37.3    -474     97   -106    485    497 281.6 -12.4  34192  290.12 0854.51
2009/04/23 14:00:37.4    -456    180    -49    491    494 291.6  -5.8  34186  290.00 0854.51
2009/04/23 14:00:37.5    -358    207      8    414    415 300.0   1.1  34188  290.04 0854.51
2009/04/23 14:00:37.6    -319    247     38    404    406 307.8   5.4  34194  290.14 0854.51
2009/04/23 14:00:37.7    -209     -9     89    210    228 267.5  24.3  34234  290.84 0854.51
2009/04/23 14:00:37.8    -285    -18     21    286    287 266.3   4.4  34236  290.85 0854.51
2009/04/23 14:00:37.9    -271    -87     40    285    288 252.1   8.0  34224  290.65 0854.51
2009/04/23 14:00:38.0    -328   -104    123    345    366 252.4  20.4  34230  290.77 0854.51
2009/04/23 14:00:38.1    -398      0    133    399    421 270.0  18.5  34232  290.80 0854.51
2009/04/23 14:00:38.2    -385      6     32    386    388 270.9   4.9  34240  290.93 0854.51
2009/04/23 14:00:38.3    -361    -29    -46    363    366 265.3  -7.4  34218  290.57 0854.51
2009/04/23 14:00:38.4    -470   -146    -19    493    494 252.7  -2.2  34230  290.76 0854.51
2009/04/23 14:00:38.5    -340    123    313    362    478 290.0  45.2  34258  291.23 0854.51
2009/04/23 14:00:38.6    -373   -144    266    401    481 248.8  36.7  34250  291.11 0854.51
2009/04/23 14:00:38.7    -321   -453    441    556    709 215.3  42.4  34234  290.82 0854.51
2009/04/23 14:00:38.8    -342   -476    354    587    685 215.7  33.8  34244  291.01 0854.49
2009/04/23 14:00:38.9    -339   -551    468    648    799 211.6  39.5  34210  290.41 0854.49
2009/04/23 14:00:39.0    -270   -547    485    611    780 206.3  42.4  34208  290.39 0854.49
2009/04/23 14:00:39.1    -197   -373    387    422    572 207.9  47.3  34222  290.63 0854.49
2009/04/23 14:00:39.2    -200   -315    405    374    551 212.5  52.7  34212  290.45 0854.49
2009/04/23 14:00:39.3    -256   -402    449    477    655 212.5  48.0  34240  290.93 0854.49
2009/04/23 14:00:39.4    -390   -160     40    422    424 247.7   5.4  34238  290.90 0854.49
2009/04/23 14:00:39.5    -330   -400    139    519    538 219.5  15.0  34224  290.67 0854.49
2009/04/23 14:00:39.6    -295    -59    226    301    376 258.5  40.6  34244  291.01 0854.49
2009/04/23 14:00:39.7    -356   -389    192    528    561 222.5  20.9  34190  290.09 0854.49
2009/04/23 14:00:39.8    -285   -472    -21    552    553 211.1  -2.2  34192  290.13 0854.49
2009/04/23 14:00:39.9    -202   -390     55    440    444 207.4   7.2  34202  290.28 0854.49
2009/04/23 14:00:40.0     -72   -229     84    241    256 197.4  19.2  34208  290.39 0854.49
2009/04/23 14:00:40.1     -31   -248    131    251    283 187.3  29.8  34210  290.41 0854.49
2009/04/23 14:00:40.2     -91   -319     33    332    334 196.1   5.8  34214  290.49 0854.49
2009/04/23 14:00:40.3       4   -286     44    287    291 179.1   8.8  34214  290.49 0854.49
2009/04/23 14:00:40.4       1   -295     -1    296    297 179.8  -0.3  34214  290.48 0854.49
2009/04/23 14:00:40.5     -32   -173    123    177    215 190.7  38.6  34260  291.28 0854.49
2009/04/23 14:00:40.6      84   -141     40    165    170 149.3  13.9  34266  291.38 0854.49
2009/04/23 14:00:40.7      11    -12    141     17    142 136.8  90.0  34278  291.59 0854.49
2009/04/23 14:00:40.9     -76   -139    183    159    242 208.9  54.3  34266  291.38 0854.44
2009/04/23 14:00:40.9     -95   -187    276    210    346 207.1  59.0  34268  291.39 0854.44
2009/04/23 14:00:41.0    -135   -177    335    223    402 217.4  63.3  34254  291.18 0854.44
2009/04/23 14:00:41.1       2     18     78     19     80   8.0  86.9  34260  291.28 0854.44
2009/04/23 14:00:41.2     171    360    241    399    466  25.5  34.1  34236  290.87 0854.44
2009/04/23 14:00:41.3     394    173    228    431    487  66.3  30.2  34204  290.32 0854.44
2009/04/23 14:00:41.4     400     14    223    401    458  87.9  31.4  34204  290.31 0854.44
2009/04/23 14:00:41.5     409    128     66    429    435  72.6   8.8  34200  290.26 0854.44
2009/04/23 14:00:41.6     405    122    118    423    440  73.2  15.6  34202  290.28 0854.44
2009/04/23 14:00:41.7     531     69    110    536    548  82.6  11.7  34206  290.36 0854.44
2009/04/23 14:00:41.8     331    128    253    356    436  68.8  38.8  34206  290.36 0854.44
2009/04/23 14:00:41.9     254    111    196    278    340  66.3  38.7  34218  290.56 0854.44
2009/04/23 14:00:42.0     337     37    156    340    374  83.6  26.4  34212  290.47 0854.44
2009/04/23 14:00:42.1     551    121    148    565    584  77.6  14.7  34226  290.70 0854.44
2009/04/23 14:00:42.2     571    187    372    601    706  71.9  34.6  34242  290.95 0854.44
2009/04/23 14:00:42.3     253    196    422    321    530  52.3  59.0  34226  290.68 0854.44
2009/04/23 14:00:42.4      36   -227    243    230    334 170.9  51.9  34210  290.42 0854.44
2009/04/23 14:00:42.5      27   -170    260    173    312 170.9  63.4  34220  290.59 0854.44
2009/04/23 14:00:42.6      28   -111    201    115    231 165.7  67.5  34212  290.45 0854.44
2009/04/23 14:00:42.7    -157   -112   -125    194    230 234.5 -40.0  34216  290.52 0854.44
2009/04/23 14:00:42.8    -182    -92   -173    205    268 243.1 -48.7  34216  290.51 0854.44
2009/04/23 14:00:42.9    -180   -276     86    330    342 213.1  14.6  34208  290.40 0854.44
2009/04/23 14:00:43.0     -84   -254    201    268    335 198.3  40.7  34198  290.22 0854.44
2009/04/23 14:00:43.1    -194   -159     49    251    256 230.7  11.1  34206  290.36 0854.44
2009/04/23 14:00:43.2    -130   -244    128    277    305 208.1  27.0  34210  290.42 0854.44
2009/04/23 14:00:43.3      -8    -29    117     31    121 195.1  84.9  34214  290.50 0854.44
2009/04/23 14:00:43.4      -2   -172    158    173    234 180.9  47.5  34268  291.40 0854.44
2009/04/23 14:00:43.5      15   -238    291    239    376 176.2  56.4  34248  291.08 0854.44
2009/04/23 14:00:43.6       2   -225    212    226    309 179.3  48.0  34242  290.95 0854.44
2009/04/23 14:00:43.7      -6   -393     40    394    397 181.0   5.9  34212  290.45 0854.44
2009/04/23 14:00:43.8     -78   -415     93    423    434 190.7  12.4  34218  290.55 0854.44
2009/04/23 14:00:43.9     -64   -391      5    397    398 189.4   0.8  34212  290.45 0854.44
2009/04/23 14:00:44.0      -9   -400    101    401    414 181.4  14.2  34214  290.48 0854.44
2009/04/23 14:00:44.1      26   -336     16    338    339 175.5   2.8  34210  290.43 0854.44
2009/04/23 14:00:44.2      17   -200     18    201    202 175.1   5.2  34212  290.47 0854.44
2009/04/23 14:00:44.3     -34   -181    117    185    218 190.7  35.5  34212  290.47 0854.44
2009/04/23 14:00:44.4      67   -146     61    161    172 155.1  21.5  34200  290.25 0854.44
2009/04/23 14:00:44.5      51    -74     94     91    130 145.3  50.7  34208  290.38 0854.44
2009/04/23 14:00:44.6      51     12     84     53     99  75.8  64.7  34220  290.58 0854.44
2009/04/23 14:00:44.7     -28     49     78     57     96 330.1  60.5  34232  290.79 0854.44
2009/04/23 14:00:44.8     -11     33     84     35     91 341.5  76.1  34224  290.65 0854.43
2009/04/23 14:00:44.9     -66     66     77     94    121 315.0  43.7  34232  290.79 0854.43
2009/04/23 14:00:45.0     -53    107     13    120    121 333.3   6.5  34236  290.86 0854.43
2009/04/23 14:00:45.1     -56    119     77    132    152 334.5  33.4  34222  290.62 0854.43
2009/04/23 14:00:45.2     -33    101    133    107    170 341.5  56.9  34208  290.38 0854.43
2009/04/23 14:00:45.3     -41    114    123    122    173 340.0  49.9  34208  290.38 0854.43
2009/04/23 14:00:45.4     -20    101    156    104    187 348.4  63.4  34212  290.45 0854.43
2009/04/23 14:00:45.5     152      0    222    153    269  90.0  62.4  34196  290.19 0854.43
2009/04/23 14:00:45.6     -94    -75    247    121    275 231.4  71.9  34196  290.17 0854.43
2009/04/23 14:00:45.7    -104    -39    173    112    206 249.2  64.4  34172  289.79 0854.43
2009/04/23 14:00:45.8     -89   -108    -86    141    165 219.6 -38.8  34172  289.77 0854.43
2009/04/23 14:00:45.9     -32    -73     67     80    104 203.6  43.8  34162  289.62 0854.43
2009/04/23 14:00:46.0     -51     80     63     96    114 327.5  35.6  34184  289.97 0854.43
2009/04/23 14:00:46.1       2    143    118    144    186   0.9  43.7  34188  290.04 0854.43
2009/04/23 14:00:46.2     186    329     77    379    387  29.5  11.5  34222  290.62 0854.43
2009/04/23 14:00:46.3     208    254    252    329    414  39.4  41.3  34228  290.71 0854.43
2009/04/23 14:00:46.4     203    367    192    420    461  29.0  26.4  34220  290.58 0854.43
2009/04/23 14:00:46.5     129    164    226    209    307  38.3  52.2  34218  290.56 0854.43
2009/04/23 14:00:46.6     356    244    107    432    446  55.5  13.9  34210  290.41 0854.43
2009/04/23 14:00:46.7     356    150    115    387    404  67.2  16.6  34208  290.40 0854.43
2009/04/23 14:00:46.8     413   -131    165    434    464 107.6  21.8  34168  289.72 0854.40
2009/04/23 14:00:46.9     260     52    197    266    331  78.6  40.1  34182  289.95 0854.40
2009/04/23 14:00:47.0     183    -86    243    203    316 115.2  55.8  34174  289.80 0854.40
2009/04/23 14:00:47.1      31     -9    222     33    224 106.8  90.0  34196  290.18 0854.40
2009/04/23 14:00:47.2      -5    -18    195     19    195 198.3  90.0  34196  290.18 0854.40
2009/04/23 14:00:47.3     145    -91    172    172    243 122.0  50.1  34182  289.96 0854.40
2009/04/23 14:00:47.4      18    -15     49     24     54 131.3  72.9  34190  290.09 0854.40
2009/04/23 14:00:47.5     -20     24    -61     32     68 320.3 -75.2  34188  290.06 0854.40
2009/04/23 14:00:47.6     -43    -11    -83     45     94 254.9 -73.2  34184  289.97 0854.40
2009/04/23 14:00:47.7     -72      5    -20     73     76 274.4 -15.5  34176  289.85 0854.40
2009/04/23 14:00:47.8     -86    -85     66    121    137 225.4  31.3  34180  289.92 0854.40
2009/04/23 14:00:47.9     -97   -267    350    285    451 200.0  56.6  34188  290.04 0854.40
2009/04/23 14:00:48.0    -142   -355    316    383    496 201.9  43.7  34174  289.82 0854.40
2009/04/23 14:00:48.1     164   -298    293    341    449 151.2  45.1  34172  289.78 0854.40
2009/04/23 14:00:48.2     209   -130    262    247    360 122.0  52.0  34178  289.88 0854.40
2009/04/23 14:00:48.3     374   -263      5    458    459 125.1   0.7  34168  289.72 0854.40
2009/04/23 14:00:48.4     202    -73      0    215    216 109.9   0.2  34170  289.74 0854.40
2009/04/23 14:00:48.5      93   -217    182    237    298 156.8  41.6  34178  289.86 0854.40
2009/04/23 14:00:48.6     -57   -283    252    289    383 191.6  45.6  34184  289.99 0854.40
2009/04/23 14:00:48.7      18    -75    148     78    167 166.6  70.4  34194  290.16 0854.40
2009/04/23 14:00:48.8     122   -309    239    333    409 158.4  39.3  34180  289.91 0854.39
2009/04/23 14:00:48.9       9   -234    214    235    317 177.8  47.1  34176  289.85 0854.39
2009/04/23 14:00:49.0     -75   -409    165    416    447 190.5  22.9  34168  289.72 0854.39
2009/04/23 14:00:49.1     118   -413     75    430    437 164.0   9.9  34174  289.82 0854.39
2009/04/23 14:00:49.2     114   -345     64    364    370 161.6  10.1  34182  289.94 0854.39
2009/04/23 14:00:49.3     237   -397      6    463    464 149.1   0.8  34174  289.82 0854.39
2009/04/23 14:00:49.4     350   -178    137    393    417 117.0  19.2  34180  289.90 0854.39
2009/04/23 14:00:49.5     206   -178    239    273    362 130.9  45.7  34182  289.93 0854.39
2009/04/23 14:00:49.6     204   -125    264    240    356 121.5  53.2  34194  290.15 0854.39
2009/04/23 14:00:49.7     121   -365    335    385    510 161.5  45.6  34176  289.84 0854.39
2009/04/23 14:00:49.8     204   -387    290    438    525 152.1  36.5  34182  289.95 0854.39
2009/04/23 14:00:49.9     250   -442    105    509    520 150.5  11.7  34182  289.93 0854.39
2009/04/23 14:00:50.0     249   -390     37    464    466 147.4   4.6  34182  289.96 0854.39
2009/04/23 14:00:50.1     270   -469     11    542    543 150.1   1.2  34178  289.89 0854.39
2009/04/23 14:00:50.2     276   -419    184    502    534 146.6  21.0  34174  289.82 0854.39
2009/04/23 14:00:50.3     423   -278    182    507    538 123.3  20.4  34182  289.96 0854.39
2009/04/23 14:00:50.4     348   -352    226    496    545 135.4  26.2  34180  289.92 0854.39
2009/04/23 14:00:50.5     293   -334    141    445    467 138.8  17.7  34176  289.83 0854.39
2009/04/23 14:00:50.6     389   -501     26    635    636 142.2   2.4  34174  289.81 0854.39
2009/04/23 14:00:50.7     421   -525    170    674    696 141.3  14.2  34168  289.70 0854.39
2009/04/23 14:00:50.8     215   -422    148    474    497 152.9  17.4  34166  289.69 0854.37
2009/04/23 14:00:50.9     101   -439     80    451    459 167.0  10.1  34162  289.61 0854.37
2009/04/23 14:00:51.0      90   -447    -55    457    461 168.5  -6.9  34172  289.78 0854.37
2009/04/23 14:00:51.1     127   -421    -24    440    441 163.2  -3.2  34168  289.70 0854.37
2009/04/23 14:00:51.2      57   -401    152    406    433 171.9  21.5  34174  289.82 0854.37
2009/04/23 14:00:51.3     146   -492    -20    514    515 163.5  -2.2  34176  289.83 0854.37
2009/04/23 14:00:51.4     353   -377    -20    517    518 136.9  -2.2  34170  289.74 0854.37
2009/04/23 14:00:51.5     300   -288    111    417    432 133.8  14.9  34170  289.75 0854.37
2009/04/23 14:00:51.6     121   -445    108    462    475 164.7  13.2  34172  289.79 0854.37
2009/04/23 14:00:51.7     -16   -448    195    449    489 182.1  25.1  34178  289.88 0854.37
2009/04/23 14:00:51.8     -51   -372     19    376    377 187.8   2.9  34178  289.86 0854.37
2009/04/23 14:00:51.9     114   -421    151    437    463 164.8  19.1  34180  289.90 0854.37
2009/04/23 14:00:52.0     176   -472    114    505    518 159.5  12.8  34182  289.93 0854.37
2009/04/23 14:00:52.1     359   -411     98    546    555 138.9  10.2  34170  289.75 0854.37
2009/04/23 14:00:52.2     291   -343     -5    450    451 139.7  -0.7  34172  289.78 0854.37
2009/04/23 14:00:52.3     123   -578     99    592    601 168.0   9.5  34172  289.78 0854.37
2009/04/23 14:00:52.4     224   -654     66    692    696 161.1   5.5  34164  289.63 0854.37
2009/04/23 14:00:52.5     393   -697    144    801    815 150.6  10.2  34174  289.82 0854.37
2009/04/23 14:00:52.6     227   -647     82    686    691 160.6   6.9  34182  289.95 0854.37
2009/04/23 14:00:52.7     167   -708    128    728    740 166.7  10.0  34166  289.67 0854.37
2009/04/23 14:00:52.8     130   -679     96    692    699 169.1   7.9  34176  289.83 0854.41
2009/04/23 14:00:52.9     156   -770    216    786    816 168.5  15.4  34174  289.81 0854.41
2009/04/23 14:00:53.0     237   -861    162    894    909 164.6  10.3  34174  289.82 0854.41
2009/04/23 14:00:53.1     -11   -688     20    689    690 181.0   1.7  34178  289.88 0854.41
2009/04/23 14:00:53.2      89   -672    -54    678    681 172.4  -4.6  34170  289.75 0854.41
2009/04/23 14:00:53.3      60   -597   -204    601    635 174.2 -18.8  34180  289.92 0854.41
2009/04/23 14:00:53.4    -135   -118   -215    180    280 228.9 -60.5  34172  289.78 0854.41
2009/04/23 14:00:53.5      -5   -214   -149    215    261 181.4 -42.4  34170  289.73 0854.41
2009/04/23 14:00:53.6     -81    -51    280     97    296 237.6  80.5  34188  290.05 0854.41
2009/04/23 14:00:53.7     -69      9    181     70    194 277.9  78.2  34188  290.06 0854.41
2009/04/23 14:00:53.9    -129   -295    311    323    448 203.6  49.0  34182  289.95 0854.44
2009/04/23 14:00:54.0    -156   -341    330    376    500 204.6  45.8  34178  289.87 0854.44
2009/04/23 14:00:54.1    -214   -503    276    547    612 203.1  28.9  34170  289.73 0854.44
2009/04/23 14:00:54.2    -148   -487    361    510    624 196.9  38.7  34170  289.75 0854.44
2009/04/23 14:00:54.3    -110   -577    337    588    677 190.8  32.4  34174  289.82 0854.44
2009/04/23 14:00:54.4     -27   -503    280    504    576 183.1  31.4  34168  289.70 0854.44
2009/04/23 14:00:54.5      95   -300    271    315    415 162.4  45.1  34178  289.86 0854.44
2009/04/23 14:00:54.6       3   -231    262    232    349 179.1  54.0  34184  289.97 0854.44
2009/04/23 14:00:54.7      23    -37    172     44    177 148.4  85.4  34184  289.97 0854.44
2009/04/23 14:00:54.8    -125   -183    271    222    350 214.3  56.4  34178  289.86 0854.44
2009/04/23 14:00:54.9      56   -322    183    328    375 170.0  31.5  34178  289.86 0854.44
2009/04/23 14:00:55.0      47   -158    240    165    291 163.3  62.6  34180  289.90 0854.44
2009/04/23 14:00:55.1      41   -266    248    270    366 171.1  47.5  34182  289.93 0854.44
2009/04/23 14:00:55.2     180   -229    319    292    432 141.9  53.0  34184  289.99 0854.44
2009/04/23 14:00:55.3     157   -202    179    257    313 142.2  38.5  34184  289.98 0854.44
2009/04/23 14:00:55.4     290   -220     74    365    373 127.2  11.5  34178  289.86 0854.44
2009/04/23 14:00:55.5     299   -254     74    393    400 130.3  10.7  34174  289.82 0854.44
2009/04/23 14:00:55.6     410   -213    194    463    502 117.5  24.1  34174  289.81 0854.44
2009/04/23 14:00:55.7     478   -279    259    554    611 120.3  27.0  34176  289.83 0854.44
2009/04/23 14:00:55.8     391   -247    264    463    532 122.3  32.3  34172  289.79 0854.44
2009/04/23 14:00:55.9     302   -288    218    418    471 133.6  29.8  34174  289.80 0854.47
2009/04/23 14:00:56.0     396   -268    241    479    536 124.1  28.8  34174  289.81 0854.47
2009/04/23 14:00:56.1     350   -195    292    401    496 119.2  39.7  34176  289.84 0854.47
2009/04/23 14:00:56.2     328   -142    299    358    466 113.4  43.8  34172  289.78 0854.47
2009/04/23 14:00:56.3     215   -304    351    373    512 144.7  48.0  34182  289.95 0854.47
2009/04/23 14:00:56.4     275   -321    298    423    517 139.4  38.6  34176  289.83 0854.47
2009/04/23 14:00:56.5     234   -306    346    386    518 142.5  46.4  34182  289.96 0854.47
2009/04/23 14:00:56.6     272   -357    280    449    529 142.7  35.0  34178  289.89 0854.47
2009/04/23 14:00:56.7     196   -355    299    406    504 151.0  40.0  34166  289.66 0854.47
2009/04/23 14:00:56.8     175   -439    -34    473    475 158.2  -4.1  34182  289.96 0854.47
2009/04/23 14:00:56.9     115   -283    -39    306    309 157.9  -7.4  34188  290.03 0854.47
2009/04/23 14:00:57.0      85   -129     97    155    182 146.6  35.5  34186  290.02 0854.47
2009/04/23 14:00:57.1      98   -206    191    229    298 154.4  43.8  34186  290.00 0854.47
2009/04/23 14:00:57.2      37   -156    228    161    279 166.6  61.5  34182  289.95 0854.47
2009/04/23 14:00:57.3      15   -307    243    308    392 177.1  42.3  34162  289.60 0854.47
2009/04/23 14:00:57.4       9   -382    263    383    464 178.5  37.7  34180  289.90 0854.47
2009/04/23 14:00:57.5      91   -283    240    298    382 162.2  43.3  34190  290.08 0854.47
2009/04/23 14:00:57.6      55     12    129     57    141  77.6  74.9  34194  290.16 0854.47
2009/04/23 14:00:57.7     307   -222    116    380    398 125.9  17.1  34178  289.87 0854.47
2009/04/23 14:00:57.8     397   -180    305    436    532 114.4  38.5  34166  289.67 0854.47
2009/04/23 14:00:57.9     143   -406    360    431    561 160.5  44.1  34154  289.48 0854.46
2009/04/23 14:00:58.0     249   -290    230    383    446 139.4  33.7  34162  289.60 0854.46
2009/04/23 14:00:58.1     246   -363    114    439    454 145.9  14.6  34166  289.66 0854.46
2009/04/23 14:00:58.2     416   -309    115    519    532 126.6  12.5  34166  289.68 0854.46
2009/04/23 14:00:58.3     198   -384    252    433    500 152.7  32.9  34150  289.39 0854.46
2009/04/23 14:00:58.4     258   -164    301    306    429 122.5  49.8  34156  289.52 0854.46
2009/04/23 14:00:58.5     247    -94    248    265    362 110.8  47.9  34162  289.59 0854.46
2009/04/23 14:00:58.6     316    -31    -22    318    319  95.7  -4.1  34160  289.56 0854.46
2009/04/23 14:00:58.7     242    -73     79    253    266 106.8  17.4  34160  289.58 0854.46
2009/04/23 14:00:58.8     379   -303    243    486    543 128.6  28.6  34156  289.50 0854.46
2009/04/23 14:00:58.9     475   -158    281    501    574 108.5  31.7  34152  289.45 0854.46
2009/04/23 14:00:59.0     404   -346    470    533    710 130.6  45.9  34174  289.80 0854.46
2009/04/23 14:00:59.1     439   -279    231    521    569 122.5  25.6  34144  289.31 0854.46
2009/04/23 14:00:59.2     440   -149     42    465    467 108.7   5.2  34172  289.78 0854.46
2009/04/23 14:00:59.3     258   -251    229    360    426 134.2  35.5  34154  289.46 0854.46
2009/04/23 14:00:59.4     196   -305    330    363    490 147.3  47.0  34166  289.66 0854.46
2009/04/23 14:00:59.5     274   -132    363    305    474 115.8  55.8  34158  289.53 0854.46
2009/04/23 14:00:59.6     117   -271    242    296    382 156.6  43.7  34152  289.42 0854.46
2009/04/23 14:00:59.7     177   -514    309    544    625 160.9  32.2  34166  289.66 0854.46
2009/04/23 14:00:59.8     195   -479    183    518    549 157.8  20.2  34156  289.51 0854.46
2009/04/23 14:00:59.9     155   -262    143    305    336 149.3  27.1  34160  289.56 0854.43
2009/04/23 14:01:00.0     271   -206    184    341    387 127.3  30.8  34162  289.59 0854.43
2009/04/23 14:01:00.1     292    -99    158    309    347 108.8  29.2  34152  289.45 0854.43
2009/04/23 14:01:00.2     183    -57    115    192    223 107.5  33.7  34162  289.62 0854.43
2009/04/23 14:01:00.3     -70   -190    119    203    235 200.3  32.9  34162  289.62 0854.43
2009/04/23 14:01:00.4    -168   -157    -13    231    232 226.9  -3.3  34150  289.40 0854.43
2009/04/23 14:01:00.5      87    -98   -140    132    192 138.6 -56.4  34164  289.65 0854.43
2009/04/23 14:01:00.6     158     25    -21    161    163  80.8  -7.5  34162  289.60 0854.43
2009/04/23 14:01:00.7     203      2    108    204    230  89.2  30.1  34160  289.57 0854.43
2009/04/23 14:01:00.8     371     68      0    378    379  79.5   0.0  34158  289.55 0854.43
2009/04/23 14:01:00.9     236     69    136    247    281  73.6  31.4  34162  289.59 0854.43
2009/04/23 14:01:01.0     217     66    144    227    268  73.1  35.5  34162  289.61 0854.43
2009/04/23 14:01:01.1     319     76    213    329    391  76.5  36.0  34160  289.57 0854.43
2009/04/23 14:01:01.2     179   -197    313    267    411 137.7  55.4  34166  289.67 0854.43
2009/04/23 14:01:01.3     152   -347    329    380    502 156.3  45.2  34162  289.62 0854.43
2009/04/23 14:01:01.4     148   -241    248    284    377 148.4  45.8  34166  289.67 0854.43
2009/04/23 14:01:01.5    -191   -477     48    514    517 201.8   5.4  34156  289.49 0854.43
2009/04/23 14:01:01.6     -98   -346    -72    360    368 195.9 -11.3  34162  289.62 0854.43
2009/04/23 14:01:01.7     -33   -239   -104    242    263 188.0 -29.0  34154  289.46 0854.43
2009/04/23 14:01:01.8     119     16    101    121    157  82.0  44.3  34168  289.72 0854.43
2009/04/23 14:01:01.9       0    -30    251     31    252 179.1  90.0  34184  289.97 0854.43
2009/04/23 14:01:02.0      12   -191    272    192    332 176.4  61.3  34182  289.95 0854.43
2009/04/23 14:01:02.1     -22   -323    212    324    387 183.9  36.2  34152  289.43 0854.43
2009/04/23 14:01:02.2     -63   -324    285    331    436 191.1  45.2  34166  289.68 0854.43
2009/04/23 14:01:02.3     -55   -269    209    275    345 191.6  41.1  34168  289.71 0854.43
2009/04/23 14:01:02.4     191   -228    207    298    362 140.1  38.3  34172  289.77 0854.43
2009/04/23 14:01:02.5    -104   -197    150    224    269 207.9  37.0  34174  289.80 0854.43
2009/04/23 14:01:02.6     -15   -347    286    348    450 182.5  43.7  34172  289.77 0854.43
2009/04/23 14:01:02.7     -93   -494    328    503    600 190.7  36.2  34164  289.64 0854.43
2009/04/23 14:01:02.8      19   -320    389    321    504 176.5  56.4  34170  289.75 0854.43
2009/04/23 14:01:02.9      36   -257    385    260    464 172.0  62.7  34166  289.68 0854.43
2009/04/23 14:01:03.0      66     -4    270     67    278  94.3  86.2  34178  289.87 0854.43
2009/04/23 14:01:03.1     545    -93    250    553    606  99.7  26.2  34162  289.61 0854.43
2009/04/23 14:01:03.2     262    -40    368    266    454  98.8  60.6  34164  289.64 0854.43
2009/04/23 14:01:03.3     339   -220    322    405    517 123.0  42.6  34172  289.78 0854.43
2009/04/23 14:01:03.4     341   -218    114    406    422 122.6  15.7  34168  289.70 0854.43
2009/04/23 14:01:03.5     324   -205    190    384    428 122.4  28.2  34172  289.77 0854.43
2009/04/23 14:01:03.6     138   -454    276    475    549 163.1  32.8  34180  289.90 0854.43
2009/04/23 14:01:03.7     277   -448    345    527    629 148.3  36.4  34188  290.03 0854.43
2009/04/23 14:01:03.8     319   -414    211    523    563 142.4  23.1  34176  289.84 0854.43
2009/04/23 14:01:03.9     430   -401    249    589    639 133.0  24.3  34172  289.77 0854.42
2009/04/23 14:01:04.0     420   -425    223    598    638 135.4  21.4  34172  289.79 0854.42
2009/04/23 14:01:04.1     270   -468    136    541    558 150.0  14.2  34154  289.48 0854.42
2009/04/23 14:01:04.2     198   -406    195    452    492 154.0  24.8  34162  289.62 0854.42
2009/04/23 14:01:04.3      71   -530    239    535    585 172.3  25.7  34166  289.68 0854.42
2009/04/23 14:01:04.4     165   -532    216    558    598 162.7  22.3  34168  289.71 0854.42
2009/04/23 14:01:04.5     120   -478    172    493    522 165.8  20.0  34172  289.78 0854.42
2009/04/23 14:01:04.6     -67   -363    287    370    468 190.5  41.7  34174  289.82 0854.42
2009/04/23 14:01:04.7      26   -179    245    182    305 171.5  59.8  34174  289.81 0854.42
2009/04/23 14:01:04.8      49    -96    218    109    243 152.8  71.7  34174  289.82 0854.42
2009/04/23 14:01:04.9      15   -260    319    261    412 176.5  56.5  34166  289.67 0854.42
2009/04/23 14:01:05.0      10   -230    395    231    457 177.5  67.0  34166  289.67 0854.42
2009/04/23 14:01:05.1     -11   -254    328    255    415 182.7  58.4  34164  289.65 0854.42
2009/04/23 14:01:05.2     -14   -335    295    336    447 182.5  45.8  34160  289.58 0854.42
2009/04/23 14:01:05.3    -166   -458    306    488    576 200.0  35.2  34172  289.77 0854.42
2009/04/23 14:01:05.4       5   -337    326    338    469 179.1  49.0  34176  289.83 0854.42
2009/04/23 14:01:05.5      59   -264    224    271    351 167.3  43.7  34178  289.86 0854.42
2009/04/23 14:01:05.6     -25    -32    182     41    186 217.8  88.0  34194  290.14 0854.42
2009/04/23 14:01:05.7    -164   -239    124    291    316 214.5  24.5  34176  289.85 0854.42
2009/04/23 14:01:05.8    -199   -193     14    278    279 226.0   2.9  34176  289.83 0854.42
2009/04/23 14:01:05.9    -125     -1    -18    126    128 269.2  -8.2  34178  289.89 0854.44
2009/04/23 14:01:06.0     -88    153     93    177    199 330.1  29.8  34182  289.96 0854.44
2009/04/23 14:01:06.1    -234    268    147    356    385 318.9  23.7  34184  289.99 0854.44
2009/04/23 14:01:06.2      44    169     91    175    197  14.9  29.5  34184  289.99 0854.44
2009/04/23 14:01:06.3     -22     52     90     57    106 336.4  64.7  34186  290.01 0854.44
2009/04/23 14:01:06.4    -101    157    164    187    248 327.3  45.8  34188  290.04 0854.44
2009/04/23 14:01:06.5       4   -123     94    124    155 177.8  41.2  34180  289.91 0854.44
2009/04/23 14:01:06.6     -75   -262     69    273    282 196.1  14.3  34178  289.88 0854.44
2009/04/23 14:01:06.7    -104    -97    127    143    191 226.9  46.4  34194  290.16 0854.44
2009/04/23 14:01:06.8     -60     -8    104     61    120 262.0  66.8  34200  290.26 0854.44
2009/04/23 14:01:06.9     -72      0     22     73     77 270.0  17.3  34196  290.18 0854.44
2009/04/23 14:01:07.0     -77    -15     -3     79     80 258.6  -2.6  34190  290.09 0854.44
2009/04/23 14:01:07.1     -71    -86     11    112    113 219.7   5.9  34188  290.06 0854.44
2009/04/23 14:01:07.2     -99   -116     21    153    155 220.5   7.8  34186  290.01 0854.44
2009/04/23 14:01:07.3    -170    -81     21    189    191 244.6   6.5  34174  289.80 0854.44
2009/04/23 14:01:07.4    -121     11    122    122    172 275.2  50.1  34208  290.38 0854.44
2009/04/23 14:01:07.5    -175    -71     74    190    203 247.8  22.3  34182  289.96 0854.44
2009/04/23 14:01:07.6     -75    -91     56    119    131 219.6  27.1  34190  290.09 0854.44
2009/04/23 14:01:07.7     -71    -48     28     86     91 235.8  18.4  34198  290.23 0854.44
2009/04/23 14:01:07.8    -156    -18    -34    158    162 263.4 -12.4  34190  290.09 0854.44
2009/04/23 14:01:07.9     -25   -225    149    227    271 186.5  36.3  34186  290.02 0854.45
2009/04/23 14:01:08.0    -134   -243    107    278    297 208.9  22.1  34192  290.12 0854.45
2009/04/23 14:01:08.1     -86   -226    212    243    322 200.9  45.6  34190  290.07 0854.45
2009/04/23 14:01:08.2     -82   -303    173    315    359 195.2  31.4  34208  290.37 0854.45
2009/04/23 14:01:08.3    -138   -430    224    452    504 197.8  28.2  34192  290.12 0854.45
2009/04/23 14:01:08.4    -112   -293    185    314    364 201.0  33.4  34190  290.08 0854.45
2009/04/23 14:01:08.5       4   -245    200    246    317 179.0  43.3  34194  290.14 0854.45
2009/04/23 14:01:08.6     -83   -273    268    286    391 196.9  48.0  34202  290.27 0854.45
2009/04/23 14:01:08.7     -70   -410     48    417    420 189.8   6.6  34202  290.29 0854.45
2009/04/23 14:01:08.8    -162   -387    376    420    563 202.7  46.4  34194  290.14 0854.45
2009/04/23 14:01:08.9    -188   -455    128    493    510 202.5  14.6  34210  290.42 0854.45
2009/04/23 14:01:09.0    -173   -453    262    486    552 201.0  30.7  34186  290.02 0854.45
2009/04/23 14:01:09.1    -122   -426    124    444    462 196.0  15.6  34198  290.21 0854.45
2009/04/23 14:01:09.2     -20   -441    154    442    469 182.6  19.2  34198  290.22 0854.45
2009/04/23 14:01:09.3     150   -614    300    633    700 166.2  27.2  34192  290.10 0854.45
2009/04/23 14:01:09.4      78   -300    241    311    393 165.3  41.7  34198  290.20 0854.45
2009/04/23 14:01:09.5     232   -546    407    594    720 156.9  37.7  34184  289.99 0854.45
2009/04/23 14:01:09.6     492   -244    448    550    709 116.4  43.3  34184  289.99 0854.45
2009/04/23 14:01:09.7     581   -199    468    615    772 109.0  41.1  34192  290.11 0854.45
2009/04/23 14:01:09.8     504   -174    459    534    704 109.1  45.1  34190  290.09 0854.45
2009/04/23 14:01:09.9     356     68    253    363    442  79.1  38.4  34194  290.14 0854.43
2009/04/23 14:01:10.0     472     -4    340    473    582  90.6  39.3  34184  289.99 0854.43
2009/04/23 14:01:10.1     527    -11    337    528    626  91.3  35.6  34184  289.98 0854.43
2009/04/23 14:01:10.2     533    -45    310    536    619  94.9  32.8  34184  289.98 0854.43
2009/04/23 14:01:10.3     578   -203    213    613    650 109.4  19.2  34178  289.86 0854.43
2009/04/23 14:01:10.4     542   -131    130    558    573 103.7  13.1  34196  290.19 0854.43
2009/04/23 14:01:10.5     479   -130    290    497    575 105.2  32.9  34190  290.07 0854.43
2009/04/23 14:01:10.6     500     38    260    502    565  85.6  29.6  34188  290.06 0854.43
2009/04/23 14:01:10.7     563    135    392    579    699  76.5  37.3  34190  290.07 0854.43
2009/04/23 14:01:10.8     263    110    317    286    426  67.3  53.3  34204  290.33 0854.43
2009/04/23 14:01:10.9     502    174     15    532    533  70.8   1.7  34188  290.06 0854.43
2009/04/23 14:01:11.0     397    158     67    428    434  68.3   8.9  34188  290.04 0854.43
2009/04/23 14:01:11.1     437    246     89    502    510  60.6  10.1  34192  290.10 0854.43
2009/04/23 14:01:11.2     513   -175    204    543    580 108.8  21.5  34186  290.01 0854.43
2009/04/23 14:01:11.3     365    -86    198    375    424 103.3  30.2  34194  290.16 0854.43
2009/04/23 14:01:11.4     375   -116    137    393    417 107.2  19.3  34196  290.17 0854.43
2009/04/23 14:01:11.5     188    -89    212    209    297 115.5  50.2  34194  290.15 0854.43
2009/04/23 14:01:11.6     148    -69    218    164    272 115.2  59.4  34204  290.32 0854.43
2009/04/23 14:01:11.7      30    -45    197     55    204 145.7  84.1  34210  290.41 0854.43
2009/04/23 14:01:11.8     119     -1    163    120    202  90.8  60.5  34208  290.40 0854.43
2009/04/23 14:01:11.9      99    -39    161    107    193 111.7  63.6  34212  290.47 0854.41
2009/04/23 14:01:12.0      38     -2    124     39    129  94.4  81.8  34220  290.60 0854.41
2009/04/23 14:01:12.1     -42    -88     69     98    119 205.5  38.6  34230  290.77 0854.41
2009/04/23 14:01:12.2      95    105    160    142    213  42.3  54.0  34256  291.20 0854.41
2009/04/23 14:01:12.3     147    153    209    213    298  43.7  49.8  34252  291.14 0854.41
2009/04/23 14:01:12.4     334    224    251    403    474  56.1  34.9  34230  290.75 0854.41
2009/04/23 14:01:12.5     215    306    262    375    457  35.1  38.4  34222  290.61 0854.41
2009/04/23 14:01:12.6     236    307    185    388    429  37.5  27.3  34214  290.50 0854.41
2009/04/23 14:01:12.7     119    341    125    362    384  19.3  19.1  34232  290.79 0854.41
2009/04/23 14:01:12.8     112    204    222    233    321  28.9  48.6  34256  291.21 0854.41
2009/04/23 14:01:12.9     127     81    168    151    225  57.5  53.5  34246  291.04 0854.41
2009/04/23 14:01:13.0     164    131     90    211    229  51.4  24.6  34240  290.92 0854.41
2009/04/23 14:01:13.1     172    145    102    226    247  49.8  26.2  34240  290.93 0854.41
2009/04/23 14:01:13.2     124    112     59    168    179  48.0  19.6  34232  290.81 0854.41
2009/04/23 14:01:13.3     126    153     -7    199    200  39.6  -2.2  34230  290.77 0854.41
2009/04/23 14:01:13.4      42    122     80    130    152  19.2  35.5  34236  290.86 0854.41
2009/04/23 14:01:13.5      74     78     93    108    142  43.7  45.4  34250  291.09 0854.41
2009/04/23 14:01:13.6     117     83    114    144    183  54.5  42.4  34264  291.35 0854.41
2009/04/23 14:01:13.7     151    128     76    199    213  49.6  21.5  34258  291.25 0854.41
2009/04/23 14:01:13.8     178     19    -18    180    182  83.9  -6.0  34272  291.49 0854.41
2009/04/23 14:01:13.9     359    192    278    408    493  61.8  37.6  34264  291.34 0854.41
2009/04/23 14:01:14.0     363    224    268    427    504  58.4  35.2  34248  291.08 0854.41
2009/04/23 14:01:14.1     222    201    260    300    396  47.8  45.4  34224  290.66 0854.41
2009/04/23 14:01:14.2     204    344    374    400    547  30.7  47.9  34264  291.34 0854.41
2009/04/23 14:01:14.3     398    211    316    451    550  62.0  38.5  34250  291.09 0854.41
2009/04/23 14:01:14.4     310    243    260    395    472  51.9  36.5  34236  290.87 0854.41
2009/04/23 14:01:14.5     313    123     46    337    341  68.5   7.9  34228  290.74 0854.41
2009/04/23 14:01:14.6     402     82    156    411    439  78.4  21.7  34224  290.65 0854.41
2009/04/23 14:01:14.7     368     86     63    379    385  76.8   9.5  34230  290.76 0854.41
2009/04/23 14:01:14.8     400    159    153    431    457  68.3  20.3  34224  290.67 0854.41
2009/04/23 14:01:14.9     365    145    134    393    416  68.3  18.9  34208  290.38 0854.40
2009/04/23 14:01:15.0     403    101     27    416    417  75.8   3.7  34226  290.70 0854.40
2009/04/23 14:01:15.1     457    145     96    480    490  72.3  11.3  34224  290.66 0854.40
2009/04/23 14:01:15.2     675    109    -31    684    685  80.8  -2.6  34214  290.48 0854.40
2009/04/23 14:01:15.3     641    161    126    661    673  75.9  10.8  34206  290.36 0854.40
2009/04/23 14:01:15.4     533    223    202    578    612  67.3  20.0  34226  290.70 0854.40
2009/04/23 14:01:15.5     485    256    192    549    582  62.1  19.3  34212  290.47 0854.40
2009/04/23 14:01:15.6     576    185    105    605    615  72.2   9.9  34188  290.05 0854.40
2009/04/23 14:01:15.7     578    177    131    605    620  73.0  12.3  34202  290.30 0854.40
2009/04/23 14:01:15.8     494    200    -20    534    535  67.9  -2.2  34210  290.41 0854.40
2009/04/23 14:01:15.9     430    134     87    451    460  72.6  11.0  34196  290.19 0854.40
2009/04/23 14:01:16.0     535    238    -12    586    587  66.0  -1.3  34198  290.20 0854.40
2009/04/23 14:01:16.1     505    152    -35    528    530  73.2  -3.8  34190  290.09 0854.40
2009/04/23 14:01:16.2     506    212      7    549    550  67.3   0.8  34190  290.07 0854.40
2009/04/23 14:01:16.3     502    173    -63    532    536  70.9  -6.8  34202  290.28 0854.40
2009/04/23 14:01:16.4     461    179   -122    495    510  68.7 -13.9  34200  290.25 0854.40
2009/04/23 14:01:16.5     479    175    -73    511    517  69.9  -8.2  34196  290.18 0854.40
2009/04/23 14:01:16.6     567    207     60    604    607  69.9   5.7  34216  290.53 0854.40
2009/04/23 14:01:16.7     429    178     90    465    474  67.4  11.0  34236  290.85 0854.40
2009/04/23 14:01:16.8     431    124     85    449    458  74.0  10.8  34196  290.17 0854.40
2009/04/23 14:01:16.9     468    239    193    526    560  62.9  21.0  34196  290.19 0854.41
2009/04/23 14:01:17.0     413    211    114    464    478  62.9  13.9  34206  290.34 0854.41
2009/04/23 14:01:17.1     436    278    141    518    538  57.5  15.3  34192  290.11 0854.41
2009/04/23 14:01:17.2     423    237    108    486    499  60.7  12.6  34188  290.06 0854.41
2009/04/23 14:01:17.3     399    174    165    436    466  66.4  21.6  34180  289.92 0854.41
2009/04/23 14:01:17.4     353    255    152    436    463  54.1  19.3  34178  289.87 0854.41
2009/04/23 14:01:17.5     389    229    168    452    482  59.5  21.5  34188  290.03 0854.41
2009/04/23 14:01:17.6     339    195    171    392    427  60.1  25.1  34190  290.09 0854.41
2009/04/23 14:01:17.7     367    127    183    389    429  70.8  27.1  34196  290.17 0854.41
2009/04/23 14:01:17.8     320    114    162    340    376  70.3  27.3  34194  290.16 0854.41
2009/04/23 14:01:17.9     280    133     93    311    325  64.6  16.6  34194  290.15 0854.41
2009/04/23 14:01:18.0     406    122    162    425    454  73.2  22.0  34180  289.92 0854.41
2009/04/23 14:01:18.1     318    161    135    357    381  63.2  21.8  34188  290.04 0854.41
2009/04/23 14:01:18.2     322    146    108    354    371  65.5  17.1  34192  290.10 0854.41
2009/04/23 14:01:18.3     370    190     21    416    417  62.8   3.0  34196  290.19 0854.41
2009/04/23 14:01:18.4     407     82     50    416    420  78.6   6.9  34218  290.56 0854.41
2009/04/23 14:01:18.5     332     39     68    335    342  83.3  11.5  34220  290.60 0854.41
2009/04/23 14:01:18.6     238     -3     11    239    240  90.9   2.8  34210  290.42 0854.41
2009/04/23 14:01:18.7     201    -24     30    203    206  97.0   8.5  34220  290.58 0854.41
2009/04/23 14:01:18.8     245      7    122    246    274  88.3  28.2  34240  290.93 0854.41
2009/04/23 14:01:18.9     180    -41    171    185    251 103.0  47.9  34250  291.09 0854.41
2009/04/23 14:01:19.0      63     20    151     67    165  71.8  74.8  34246  291.03 0854.41
2009/04/23 14:01:19.1     148    167    155    224    272  41.5  37.8  34218  290.56 0854.41
2009/04/23 14:01:19.2      90    142     86    169    189  32.5  28.7  34218  290.55 0854.41
2009/04/23 14:01:19.3      42    117    117    125    171  20.1  48.2  34216  290.53 0854.41
2009/04/23 14:01:19.4      45     45    133     65    148  45.0  72.8  34238  290.91 0854.41
2009/04/23 14:01:19.5     -18     97     90     99    133 349.3  47.5  34238  290.89 0854.41
2009/04/23 14:01:19.6     -33      7     99     34    104 283.3  81.2  34242  290.98 0854.41
2009/04/23 14:01:19.7     -77    110    154    135    204 324.8  54.3  34232  290.79 0854.41
2009/04/23 14:01:19.8    -269    -14    187    270    328 267.0  38.0  34250  291.09 0854.41
2009/04/23 14:01:19.9    -281    -49    109    286    306 260.1  22.0  34246  291.02 0854.41
2009/04/23 14:01:20.0    -270     -4    107    271    291 269.1  22.8  34250  291.10 0854.41
2009/04/23 14:01:20.1    -275    -28     14    277    278 264.1   2.9  34248  291.05 0854.41
2009/04/23 14:01:20.2    -326    -91    -25    339    340 254.3  -4.2  34264  291.34 0854.41
2009/04/23 14:01:20.3    -322    -96    -30    337    339 253.4  -5.2  34258  291.25 0854.41
2009/04/23 14:01:20.4    -242    -57    -45    249    254 256.7 -10.3  34220  290.58 0854.41
2009/04/23 14:01:20.5    -357    -96   -105    370    384 254.8 -20.4  34184  289.99 0854.41
2009/04/23 14:01:20.6    -363   -128   -143    386    411 250.5 -25.7  34186  290.00 0854.41
2009/04/23 14:01:20.7    -372   -186   -140    417    439 243.4 -23.3  34184  289.97 0854.41
2009/04/23 14:01:20.8    -311   -190   -143    365    392 238.5 -27.1  34182  289.93 0854.41
2009/04/23 14:01:20.9    -229   -145   -110    272    293 237.6 -27.5  34184  289.98 0854.42
2009/04/23 14:01:21.0     -97   -203   -155    226    274 205.6 -42.0  34186  290.02 0854.42
2009/04/23 14:01:21.1    -122   -165   -166    206    264 216.5 -47.7  34182  289.95 0854.42
2009/04/23 14:01:21.2    -106   -192   -115    220    248 208.9 -34.2  34190  290.09 0854.42
2009/04/23 14:01:21.3    -174     34    -36    178    182 281.2 -11.6  34176  289.85 0854.42
2009/04/23 14:01:21.4    -246    -10    -73    247    258 267.5 -16.6  34180  289.92 0854.42
2009/04/23 14:01:21.5    -127    -50    -49    137    146 248.2 -19.7  34182  289.94 0854.42
2009/04/23 14:01:21.7     -38   -100    -79    108    133 200.9 -44.1  34198  290.21 0854.42
2009/04/23 14:01:21.8     -68    -61     -2     92     93 228.2  -1.8  34204  290.33 0854.42
2009/04/23 14:01:21.9    -163    -79      8    182    183 244.0   2.8  34244  291.01 0854.42
2009/04/23 14:01:22.0    -214   -150    -53    262    268 235.0 -11.5  34248  291.05 0854.42
2009/04/23 14:01:22.1    -253    -93    -91    270    286 249.8 -18.7  34238  290.90 0854.42
2009/04/23 14:01:22.2    -207   -143    -82    252    265 235.4 -23.6  34218  290.56 0854.42
2009/04/23 14:01:22.3    -119   -215     87    246    262 209.0  19.6  34214  290.48 0854.42
2009/04/23 14:01:22.4    -179   -203     95    271    287 221.5  20.0  34212  290.46 0854.42
2009/04/23 14:01:22.5     -86   -159    -24    181    183 208.5  -7.7  34212  290.47 0854.42
2009/04/23 14:01:22.6     -11   -155    -32    156    160 184.4 -11.9  34212  290.47 0854.42
2009/04/23 14:01:22.7     -32   -134    -27    138    141 193.8 -11.3  34216  290.53 0854.42
2009/04/23 14:01:22.8    -135   -134    -35    191    195 225.1 -10.5  34276  291.54 0854.42
2009/04/23 14:01:22.9    -239   -106    -18    262    263 246.0  -4.1  34266  291.38 0854.42
2009/04/23 14:01:23.0    -167   -202    -89    263    278 219.6 -18.7  34218  290.56 0854.43
2009/04/23 14:01:23.1    -200   -230    -96    305    319 221.0 -22.5  34192  290.10 0854.43
2009/04/23 14:01:23.2    -196   -184   -134    270    301 226.8 -32.6  34192  290.12 0854.43
2009/04/23 14:01:23.3    -211   -143   -120    256    282 235.8 -31.5  34212  290.46 0854.43
2009/04/23 14:01:23.4    -194   -229   -119    301    323 220.3 -27.2  34192  290.10 0854.43
2009/04/23 14:01:23.5    -154   -259   -120    302    324 210.7 -27.3  34192  290.12 0854.43
2009/04/23 14:01:23.6    -128   -233   -149    267    305 208.9 -35.8  34188  290.05 0854.43
2009/04/23 14:01:23.7     -75   -234   -139    246    282 197.8 -36.5  34204  290.31 0854.43
2009/04/23 14:01:23.8    -136   -140    -71    196    208 224.3 -25.1  34222  290.62 0854.43
2009/04/23 14:01:23.9    -160   -101   -152    190    243 237.6 -47.1  34224  290.67 0854.43
2009/04/23 14:01:24.0    -116    -69   -169    136    216 239.3 -61.3  34230  290.75 0854.43
2009/04/23 14:01:24.1    -104   -158   -162    190    249 213.4 -49.2  34226  290.69 0854.43
2009/04/23 14:01:24.2     -94   -207   -199    228    302 204.5 -50.2  34202  290.29 0854.43
2009/04/23 14:01:24.3      63   -264   -184    272    328 166.4 -41.7  34204  290.31 0854.43
2009/04/23 14:01:24.4      45     -6    -94     46    104  97.9 -76.8  34190  290.09 0854.43
2009/04/23 14:01:24.5     -27     34   -200     44    204 321.3 -90.0  34216  290.53 0854.43
2009/04/23 14:01:24.6     -19     -7   -108     21    110 250.0 -90.0  34218  290.57 0854.43
2009/04/23 14:01:24.7      39    -22   -112     46    121 119.8 -81.0  34234  290.84 0854.43
2009/04/23 14:01:24.8     -18     53   -106     57    120 341.3 -73.7  34236  290.86 0854.43
2009/04/23 14:01:24.9     -72     -4   -116     73    137 266.5 -69.1  34232  290.79 0854.43
2009/04/23 14:01:25.0     -67      9    -94     68    116 277.9 -64.9  34238  290.91 0854.44
2009/04/23 14:01:25.1     -50     26    -65     57     86 298.0 -58.1  34244  291.01 0854.44
2009/04/23 14:01:25.2     -55     35    -49     66     82 302.4 -45.1  34232  290.81 0854.44
2009/04/23 14:01:25.3     -90     18    -96     92    132 281.4 -55.1  34254  291.16 0854.44
2009/04/23 14:01:25.4     -61    -94      5    113    114 213.0   2.9  34252  291.13 0854.44
2009/04/23 14:01:25.5     -26    -33     86     43     96 218.7  71.9  34260  291.28 0854.44
2009/04/23 14:01:25.6      -5    -94    100     95    137 183.1  52.1  34234  290.82 0854.44
2009/04/23 14:01:25.7     -55   -129     66    141    155 203.2  27.1  34218  290.55 0854.44
2009/04/23 14:01:25.8     -77   -178     22    195    197 203.4   6.7  34218  290.57 0854.44
2009/04/23 14:01:25.9     -77   -126     48    148    156 211.6  17.9  34214  290.50 0854.44
2009/04/23 14:01:26.0     -93    -81     47    124    132 228.7  21.0  34218  290.55 0854.44
2009/04/23 14:01:26.1     -52    -77     47     94    105 214.3  28.2  34224  290.67 0854.44
2009/04/23 14:01:26.2      46      7     72     47     85  81.2  64.1  34238  290.91 0854.44
2009/04/23 14:01:26.3     163   -108    118    196    228 123.5  34.0  34224  290.65 0854.44
2009/04/23 14:01:26.4     106    -99    153    146    211 133.1  51.4  34222  290.64 0854.44
2009/04/23 14:01:26.5      97   -189    192    213    286 152.8  46.9  34218  290.54 0854.44
2009/04/23 14:01:26.6      22   -149    160    151    220 171.5  52.0  34222  290.64 0854.44
2009/04/23 14:01:26.7     -38   -190     28    194    197 191.5   8.2  34218  290.57 0854.44
2009/04/23 14:01:26.8     -22   -202     -5    204    205 186.2  -1.6  34218  290.55 0854.44
2009/04/23 14:01:26.9     -41   -186     20    191    193 192.5   6.1  34222  290.62 0854.44
2009/04/23 14:01:27.0      58   -158      8    169    170 159.7   2.9  34220  290.58 0854.44
2009/04/23 14:01:27.1      86   -139     12    164    165 148.4   4.2  34222  290.62 0854.44
2009/04/23 14:01:27.2      63   -179      9    191    192 160.4   2.8  34220  290.58 0854.44
2009/04/23 14:01:27.3     -84   -211     81    228    241 201.8  20.0  34218  290.54 0854.44
2009/04/23 14:01:27.4    -152   -190     11    244    245 218.8   2.8  34228  290.73 0854.44
2009/04/23 14:01:27.5    -119   -175     55    212    220 214.3  14.7  34224  290.65 0854.44
2009/04/23 14:01:27.6    -191   -116     -4    224    225 238.7  -1.3  34244  291.01 0854.44
2009/04/23 14:01:27.7     -22   -116      0    119    120 190.7   0.2  34242  290.96 0854.44
2009/04/23 14:01:27.8     -26   -208     93    210    229 187.3  25.3  34218  290.55 0854.44
2009/04/23 14:01:27.9    -102   -228     73    250    261 204.1  16.4  34218  290.56 0854.44
2009/04/23 14:01:28.0    -175    -94    -55    199    206 241.6 -20.0  34248  291.08 0854.44
2009/04/23 14:01:28.1     -34   -144    100    149    179 193.4  37.0  34232  290.79 0854.44
2009/04/23 14:01:28.2      45   -198     35    204    208 167.1   9.9  34230  290.77 0854.44
2009/04/23 14:01:28.3      22   -195     57    197    206 173.5  16.3  34214  290.50 0854.44
2009/04/23 14:01:28.4      89   -148    116    173    208 148.8  37.0  34212  290.47 0854.44
2009/04/23 14:01:28.5     149   -213    147    260    298 145.0  31.9  34210  290.42 0854.44
2009/04/23 14:01:28.6     211   -123    156    245    290 120.2  35.5  34214  290.49 0854.44
2009/04/23 14:01:28.7     263   -190     41    325    328 126.0   7.2  34208  290.39 0854.44
2009/04/23 14:01:28.8      78   -307    166    317    357 165.7  29.8  34218  290.55 0854.44
2009/04/23 14:01:28.9      69   -337    133    345    369 168.4  22.0  34210  290.42 0854.44
2009/04/23 14:01:29.0      19   -282    100    283    301 176.0  19.6  34210  290.41 0854.46
2009/04/23 14:01:29.1       0   -293    103    294    312 180.0  19.4  34216  290.53 0854.46
2009/04/23 14:01:29.2      27   -309     74    311    320 174.9  13.5  34214  290.49 0854.46
2009/04/23 14:01:29.3      14   -247     38    248    251 176.6   8.8  34218  290.54 0854.46
2009/04/23 14:01:29.4      24   -212     10    214    215 173.5   2.9  34216  290.53 0854.46
2009/04/23 14:01:29.5     -21   -177     26    179    181 186.9   8.5  34218  290.57 0854.46
2009/04/23 14:01:29.6      -2   -206     47    207    213 180.7  12.9  34218  290.55 0854.46
2009/04/23 14:01:29.7      14   -248    102    249    269 176.6  23.1  34214  290.49 0854.46
2009/04/23 14:01:29.8     -74   -218     52    231    237 198.7  12.9  34214  290.48 0854.46
2009/04/23 14:01:29.9    -141   -145     75    203    216 224.1  21.3  34212  290.45 0854.46
2009/04/23 14:01:30.0     -73   -232     64    244    253 197.4  14.7  34206  290.34 0854.46
2009/04/23 14:01:30.1     -94   -225     96    245    263 202.7  22.5  34204  290.31 0854.46
2009/04/23 14:01:30.2    -131   -213    106    251    272 211.6  24.1  34210  290.42 0854.46
2009/04/23 14:01:30.3    -170   -187     91    254    269 222.3  20.2  34220  290.59 0854.46
2009/04/23 14:01:30.4    -109   -224     49    250    255 205.9  11.1  34208  290.39 0854.46
2009/04/23 14:01:30.5    -200   -205     61    287    294 224.3  12.0  34210  290.42 0854.46
2009/04/23 14:01:30.6    -222   -251     19    336    337 221.4   3.3  34216  290.52 0854.46
2009/04/23 14:01:30.7    -159   -143     20    215    217 228.0   5.4  34232  290.81 0854.46
2009/04/23 14:01:30.8     -81   -201    -19    218    219 202.1  -5.1  34216  290.53 0854.46
2009/04/23 14:01:30.9     -90   -197     18    217    218 204.7   4.9  34222  290.62 0854.46
2009/04/23 14:01:31.0    -100   -178     48    205    211 209.4  13.2  34238  290.91 0854.49
2009/04/23 14:01:31.1    -108   -128     95    168    193 220.3  32.1  34258  291.25 0854.49
2009/04/23 14:01:31.2    -186   -135     73    230    242 234.0  17.7  34262  291.31 0854.49
2009/04/23 14:01:31.3    -210   -195    -41    287    291 227.1  -8.2  34262  291.29 0854.49
2009/04/23 14:01:31.4    -237   -183    -80    300    311 232.3 -15.0  34252  291.14 0854.49
2009/04/23 14:01:31.5    -266   -228   -150    351    381 229.3 -29.0  34232  290.81 0854.49
2009/04/23 14:01:31.6    -249   -322   -144    408    433 217.8 -19.5  34234  290.82 0854.49
2009/04/23 14:01:31.7    -380   -131   -172    403    438 250.9 -29.0  34218  290.55 0854.49
2009/04/23 14:01:31.8    -485   -154   -177    509    538 252.3 -24.3  34238  290.89 0854.49
2009/04/23 14:01:31.9    -267   -352   -174    443    475 217.2 -26.9  34240  290.93 0854.49
2009/04/23 14:01:32.0    -196   -301   -136    360    384 213.1 -26.0  34232  290.81 0854.49
2009/04/23 14:01:32.1     -21   -344    -91    345    357 183.5 -14.8  34234  290.84 0854.49
2009/04/23 14:01:32.2       1   -332     51    333    337 179.8   8.7  34232  290.79 0854.49
2009/04/23 14:01:32.3    -141   -286    -11    319    320 206.3  -2.1  34238  290.90 0854.49
2009/04/23 14:01:32.4     -16   -348     17    349    350 182.8   2.9  34230  290.76 0854.49
2009/04/23 14:01:32.5     -33   -367     28    369    370 185.2   4.4  34228  290.71 0854.49
2009/04/23 14:01:32.6     -38   -276    104    279    297 188.0  21.3  34222  290.61 0854.49
2009/04/23 14:01:32.7     -51   -326     61    331    337 188.9  10.6  34220  290.59 0854.49
2009/04/23 14:01:32.8     -66   -292     87    300    313 192.9  16.1  34222  290.63 0854.49
2009/04/23 14:01:32.9    -200   -315     85    374    384 212.5  12.9  34228  290.71 0854.49
2009/04/23 14:01:33.0    -259   -296   -108    394    409 221.1 -15.4  34218  290.55 0854.49
2009/04/23 14:01:33.1    -304   -326    -57    446    450 223.0  -7.3  34220  290.58 0854.49
2009/04/23 14:01:33.2    -269   -317    -90    416    426 220.3 -12.3  34228  290.73 0854.49
2009/04/23 14:01:33.3    -152   -331    113    365    383 204.7  17.3  34254  291.18 0854.49
2009/04/23 14:01:33.4    -149   -319     96    353    366 205.0  15.3  34268  291.39 0854.49
2009/04/23 14:01:33.5    -208   -327     31    388    390 212.5   4.6  34230  290.77 0854.49
2009/04/23 14:01:33.6    -116   -290     41    313    316 201.8   7.5  34240  290.92 0854.49
2009/04/23 14:01:33.7     -78   -263    107    275    295 196.5  22.5  34248  291.07 0854.49
2009/04/23 14:01:33.8    -188   -288    -46    345    349 213.2  -7.6  34236  290.86 0854.49
2009/04/23 14:01:33.9     -88   -231    106    248    269 200.9  24.6  34230  290.75 0854.49
2009/04/23 14:01:34.0    -104   -203    133    229    264 207.1  32.7  34238  290.88 0854.49
2009/04/23 14:01:34.1     -72   -140    181    158    240 207.2  54.3  34230  290.77 0854.49
2009/04/23 14:01:34.2     -79   -145    156    166    227 208.7  48.0  34232  290.81 0854.49
2009/04/23 14:01:34.3    -112   -163    141    199    243 214.5  38.6  34248  291.08 0854.49
2009/04/23 14:01:34.4     -82   -153    174    174    246 208.1  50.1  34244  291.01 0854.49
2009/04/23 14:01:34.5    -109   -161    147    195    244 214.3  40.9  34244  291.01 0854.49
2009/04/23 14:01:34.6    -164   -120    111    204    232 233.8  31.3  34262  291.32 0854.49
2009/04/23 14:01:34.7    -212   -130     12    249    250 238.5   2.9  34250  291.10 0854.49
2009/04/23 14:01:34.8    -199   -212     92    291    306 223.2  17.7  34242  290.97 0854.49
2009/04/23 14:01:34.9    -282   -207     42    350    353 233.7   6.9  34278  291.56 0854.49
2009/04/23 14:01:35.0    -337   -182      4    383    384 241.6   0.7  34282  291.66 0854.48
2009/04/23 14:01:35.1    -327   -170     80    369    378 242.5  12.3  34272  291.47 0854.48
2009/04/23 14:01:35.2    -206    -84    101    223    244 247.8  26.2  34268  291.41 0854.48
2009/04/23 14:01:35.3    -245    -18     66    246    255 265.6  15.0  34264  291.34 0854.48
2009/04/23 14:01:35.4    -324   -108    -33    342    344 251.6  -5.6  34252  291.13 0854.48
2009/04/23 14:01:35.5    -308   -191     14    363    364 238.3   2.2  34258  291.25 0854.48
2009/04/23 14:01:35.6    -206   -196     18    285    286 226.4   3.6  34270  291.43 0854.48
2009/04/23 14:01:35.7     -26   -254    -14    256    257 186.0  -3.3  34264  291.33 0854.48
2009/04/23 14:01:35.8     -78   -211      3    226    227 200.3   1.0  34270  291.45 0854.48
2009/04/23 14:01:35.9     -65   -292     75    300    310 192.7  14.2  34244  290.99 0854.48
2009/04/23 14:01:36.0     -28   -203     98    206    228 188.0  27.3  34234  290.84 0854.47
2009/04/23 14:01:36.1      79   -183     51    200    207 156.6  14.5  34230  290.77 0854.47
2009/04/23 14:01:36.2      93   -158    -19    184    186 149.5  -6.0  34222  290.62 0854.47
2009/04/23 14:01:36.3      49   -107    -48    118    127 155.1 -27.5  34226  290.69 0854.47
2009/04/23 14:01:36.4      58    -41    -20     72     74 125.1 -20.7  34230  290.77 0854.47
2009/04/23 14:01:36.5    -102      8      4    103    104 274.8   2.3  34232  290.81 0854.47
2009/04/23 14:01:36.6    -164   -106      8    196    197 237.1   2.3  34230  290.77 0854.47
2009/04/23 14:01:36.7    -192   -166      5    255    256 229.1   1.2  34244  290.99 0854.47
2009/04/23 14:01:36.8    -143    -65    -70    158    172 245.6 -29.7  34250  291.09 0854.47
2009/04/23 14:01:36.9     -21   -151     54    153    163 188.1  19.4  34244  291.01 0854.47
2009/04/23 14:01:37.0     -77   -220    -64    234    243 199.4 -15.4  34242  290.97 0854.47
2009/04/23 14:01:37.1     -94   -225     32    244    247 202.7   7.5  34222  290.63 0854.47
2009/04/23 14:01:37.2     -87   -228     25    245    247 200.9   5.9  34226  290.70 0854.47
2009/04/23 14:01:37.3     -37   -239      3    242    243 188.9   0.8  34224  290.65 0854.47
2009/04/23 14:01:37.4     -96   -251     -5    269    270 201.0  -1.3  34234  290.82 0854.47
2009/04/23 14:01:37.5     -55   -256    -23    263    265 192.3  -5.2  34228  290.71 0854.47
2009/04/23 14:01:37.6     -36   -214     -9    218    219 189.6  -2.6  34224  290.67 0854.47
2009/04/23 14:01:37.7      12   -185      6    186    187 176.2   2.1  34224  290.67 0854.47
2009/04/23 14:01:37.8      69   -163    -17    178    179 157.1  -5.6  34234  290.82 0854.47
2009/04/23 14:01:37.9      -6   -130     39    131    137 182.7  16.8  34246  291.03 0854.47
2009/04/23 14:01:38.0     -42   -171     64    177    188 193.8  20.4  34262  291.32 0854.47
2009/04/23 14:01:38.1      58    -91     50    109    119 147.5  26.2  34268  291.40 0854.47
2009/04/23 14:01:38.2     130    -37    123    136    183 105.9  47.1  34248  291.06 0854.47
2009/04/23 14:01:38.3      50   -105     97    117    151 154.5  43.8  34246  291.04 0854.47
2009/04/23 14:01:38.4      60   -138    126    151    196 156.3  44.1  34240  290.92 0854.47
2009/04/23 14:01:38.5      35      2    105     36    111  85.6  81.2  34252  291.13 0854.47
2009/04/23 14:01:38.6     -16     16     90     23     92 314.9  85.9  34264  291.33 0854.47
2009/04/23 14:01:38.7      23     40     74     47     87  29.9  64.7  34262  291.30 0854.47
2009/04/23 14:01:38.8      89     34    103     96    140  68.7  52.2  34262  291.30 0854.47
2009/04/23 14:01:38.9      91     96     26    133    136  43.2  11.1  34250  291.09 0854.47
2009/04/23 14:01:39.0     113    102    -39    153    158  47.8 -14.3  34250  291.09 0854.47
2009/04/23 14:01:39.1     127    110     40    169    174  49.1  13.5  34252  291.13 0854.47
2009/04/23 14:01:39.2     140     53     95    150    177  69.2  35.5  34262  291.32 0854.47
2009/04/23 14:01:39.3     200     68     91    212    230  71.2  24.9  34258  291.23 0854.47
2009/04/23 14:01:39.4     189     67     63    201    211  70.3  17.4  34254  291.16 0854.47
2009/04/23 14:01:39.5     184     64     68    195    207  70.7  19.2  34258  291.25 0854.47
2009/04/23 14:01:39.6     166     63    134    178    222  68.9  40.7  34264  291.35 0854.47
2009/04/23 14:01:39.7     128    111     52    170    178  49.1  17.1  34256  291.21 0854.47
2009/04/23 14:01:39.8     127     46     11    136    137  70.0   5.0  34254  291.16 0854.47
2009/04/23 14:01:39.9     109     43     50    118    128  68.3  24.6  34252  291.15 0854.47
2009/04/23 14:01:40.0     104     67    128    124    178  57.1  50.9  34262  291.32 0854.48
2009/04/23 14:01:40.1     214    146     55    260    266  55.6  12.1  34258  291.24 0854.48
2009/04/23 14:01:40.2     250    161     94    298    313  57.1  17.5  34252  291.14 0854.48
2009/04/23 14:01:40.3     236     93     58    254    261  68.3  12.9  34230  290.75 0854.48
2009/04/23 14:01:40.4     172    120     72    210    223  55.1  18.9  34230  290.75 0854.48
2009/04/23 14:01:40.5      88    195     60    215    224  24.3  15.6  34256  291.21 0854.48
2009/04/23 14:01:40.6     182    129    133    224    260  54.7  33.5  34250  291.10 0854.48
2009/04/23 14:01:40.7     166    107    106    198    224  57.1  30.6  34256  291.21 0854.48
2009/04/23 14:01:40.8     164     73    163    180    242  66.0  47.0  34262  291.30 0854.48
2009/04/23 14:01:40.9     131     94    147    162    218  54.3  47.1  34264  291.35 0854.48
2009/04/23 14:01:41.0      82     -8     99     83    129  96.1  56.3  34266  291.38 0854.48
2009/04/23 14:01:41.1      41    -58    107     72    128 144.8  63.2  34262  291.30 0854.48
2009/04/23 14:01:41.2      20    -74     93     77    120 164.9  56.3  34252  291.15 0854.48
2009/04/23 14:01:41.3      45    -45    142     64    155 135.0  74.0  34254  291.18 0854.48
2009/04/23 14:01:41.4      37    -99    115    106    156 159.5  52.2  34254  291.16 0854.48
2009/04/23 14:01:41.5      95    -80     91    125    154 130.0  39.7  34244  290.99 0854.48
2009/04/23 14:01:41.6      18    -53     17     57     60 161.3  17.3  34244  291.01 0854.48
2009/04/23 14:01:41.7      74    -35     11     82     83 115.3   8.0  34244  291.01 0854.48
2009/04/23 14:01:41.8      93    -70     14    117    118 127.3   6.9  34242  290.98 0854.48
2009/04/23 14:01:41.9     102    -80      6    130    131 128.2   2.8  34236  290.87 0854.48
2009/04/23 14:01:42.0      80    -86     44    118    125 137.2  21.0  34230  290.77 0854.49
2009/04/23 14:01:42.1      77    -64     19    101    103 129.5  11.0  34232  290.79 0854.49
2009/04/23 14:01:42.2      97    -59     36    114    120 121.5  17.9  34228  290.72 0854.49
2009/04/23 14:01:42.3     107    -79      4    134    135 126.4   1.8  34242  290.98 0854.49
2009/04/23 14:01:42.4     122    -63     -5    138    139 117.5  -2.2  34244  291.01 0854.49
2009/04/23 14:01:42.5     111    -70     16    132    134 122.4   7.1  34236  290.87 0854.49
2009/04/23 14:01:42.6     147    -48    116    155    193 108.2  40.4  34230  290.75 0854.49
2009/04/23 14:01:42.7     118    -56    119    131    176 115.4  47.1  34236  290.87 0854.49
2009/04/23 14:01:42.8     110    -52    132    122    179 115.3  52.2  34236  290.86 0854.49
2009/04/23 14:01:42.9     141    -72    148    159    217 117.1  47.9  34234  290.82 0854.49
2009/04/23 14:01:43.0      74    -61    153     97    181 129.5  64.7  34240  290.92 0854.49
2009/04/23 14:01:43.1     -26      0    123     27    125 269.2  88.0  34246  291.04 0854.49
2009/04/23 14:01:43.2      24      7    115     26    117  73.2  87.5  34250  291.09 0854.49
2009/04/23 14:01:43.3     -70     23    116     74    137 288.6  64.6  34252  291.13 0854.49
2009/04/23 14:01:43.4     -46      7     98     47    108 278.8  72.9  34250  291.09 0854.49
2009/04/23 14:01:43.5     -59     13    129     61    142 282.4  73.1  34262  291.32 0854.49
2009/04/23 14:01:43.6     -60   -128    170    142    221 205.3  56.1  34244  290.99 0854.49
2009/04/23 14:01:43.7    -115   -189    159    222    273 211.4  39.1  34252  291.12 0854.49
2009/04/23 14:01:43.8    -103   -177    177    206    271 210.3  44.9  34254  291.17 0854.49
2009/04/23 14:01:43.9     -97   -155    153    183    238 212.1  44.3  34248  291.08 0854.49
2009/04/23 14:01:44.0    -160   -187     67    247    257 220.5  15.3  34258  291.22 0854.49
2009/04/23 14:01:44.1    -173   -174     62    246    254 224.8  14.2  34264  291.33 0854.49
2009/04/23 14:01:44.2    -261   -100     16    280    281 248.9   3.3  34270  291.43 0854.49
2009/04/23 14:01:44.3    -291    -78    -11    302    303 254.9  -2.2  34260  291.27 0854.49
2009/04/23 14:01:44.4    -277   -104    -70    296    305 249.4 -13.3  34256  291.21 0854.49
2009/04/23 14:01:44.5    -298   -117    -48    321    325 248.5  -8.6  34270  291.44 0854.49
2009/04/23 14:01:44.6    -285   -133    -28    315    317 244.9  -5.2  34288  291.75 0854.49
2009/04/23 14:01:44.7    -296    -84    -86    308    320 254.1 -15.7  34254  291.16 0854.49
2009/04/23 14:01:44.8    -223   -219    -85    313    325 225.6 -15.2  34220  290.59 0854.49
2009/04/23 14:01:44.9    -201   -131     -4    241    242 236.9  -1.2  34236  290.87 0854.49
2009/04/23 14:01:45.0    -292    -93    -62    307    314 252.2 -11.5  34268  291.39 0854.49
2009/04/23 14:01:45.1    -243   -216    -90    326    339 228.4 -15.5  34244  291.00 0854.49
2009/04/23 14:01:45.2    -290   -217   -205    363    416 233.2 -36.4  34204  290.33 0854.49
2009/04/23 14:01:45.3    -149   -126   -148    196    245 229.8 -45.3  34206  290.36 0854.49
2009/04/23 14:01:45.4    -240   -256   -107    352    369 223.2 -16.9  34204  290.32 0854.49
2009/04/23 14:01:45.5    -279   -161    -58    323    329 240.0 -10.2  34208  290.39 0854.49
2009/04/23 14:01:45.6    -223   -137   -135    263    295 238.4 -33.7  34198  290.22 0854.49
2009/04/23 14:01:45.7    -297   -237   -129    381    403 231.4 -18.8  34208  290.38 0854.49
2009/04/23 14:01:45.8    -378   -208    -41    432    435 241.1  -5.5  34234  290.82 0854.49
2009/04/23 14:01:45.9    -242   -332    -67    411    417 216.1  -9.4  34220  290.58 0854.49
2009/04/23 14:01:46.0    -331   -240   -129    409    430 234.0 -17.6  34246  291.04 0854.50
2009/04/23 14:01:46.1    -266   -284    -50    390    394 223.2  -7.3  34214  290.49 0854.50
2009/04/23 14:01:46.2    -328   -238    -81    406    415 234.1 -11.3  34202  290.28 0854.50
2009/04/23 14:01:46.3    -206   -220   -107    302    320 223.2 -24.6  34196  290.19 0854.50
2009/04/23 14:01:46.4    -115   -181   -131    215    251 212.5 -38.8  34196  290.17 0854.50
2009/04/23 14:01:46.5    -114   -193    -95    225    244 210.7 -28.7  34200  290.24 0854.50
2009/04/23 14:01:46.6    -158   -226    -91    277    292 215.0 -18.3  34204  290.31 0854.50
2009/04/23 14:01:46.7    -226   -224   -103    319    335 225.3 -23.0  34228  290.71 0854.50
2009/04/23 14:01:46.8    -322   -237    -66    401    407 233.6  -9.3  34210  290.41 0854.50
2009/04/23 14:01:46.9    -231   -279    -71    363    371 219.7 -11.1  34200  290.25 0854.50
2009/04/23 14:01:47.0    -153   -296   -110    334    352 207.3 -18.3  34202  290.27 0854.50
2009/04/23 14:01:47.1    -119   -291    -85    315    327 202.3 -15.2  34204  290.31 0854.50
2009/04/23 14:01:47.2    -181   -251   -102    310    327 215.8 -18.3  34202  290.29 0854.50
2009/04/23 14:01:47.3    -201   -256    -76    326    335 218.1 -13.1  34204  290.32 0854.50
2009/04/23 14:01:47.4    -146   -243    -62    284    291 211.0 -12.4  34212  290.46 0854.50
2009/04/23 14:01:47.6    -126   -237    -69    269    278 208.1 -14.4  34202  290.27 0854.50
2009/04/23 14:01:47.6     -84   -232    -78    247    259 200.0 -22.8  34204  290.32 0854.50
2009/04/23 14:01:47.7     -68   -194    -81    206    221 199.4 -27.2  34200  290.26 0854.50
2009/04/23 14:01:47.8    -116   -154    -97    193    216 217.0 -33.1  34192  290.13 0854.50
2009/04/23 14:01:47.9    -246   -173    -42    301    305 234.9  -8.0  34204  290.32 0854.50
2009/04/23 14:01:48.0    -239   -161    -69    289    298 236.0 -13.4  34200  290.26 0854.49
2009/04/23 14:01:48.1    -182   -126    -52    222    229 235.4 -13.3  34196  290.18 0854.49
2009/04/23 14:01:48.2    -265   -221   -114    346    364 230.1 -23.6  34188  290.03 0854.49
2009/04/23 14:01:48.3    -212   -290    -73    360    368 216.1 -11.5  34188  290.03 0854.49
2009/04/23 14:01:48.4    -165   -234   -115    287    309 215.2 -27.4  34180  289.92 0854.49
2009/04/23 14:01:48.5    -120   -225   -148    256    295 208.1 -37.1  34186  290.00 0854.49
2009/04/23 14:01:48.6    -123   -231   -139    263    297 208.1 -34.6  34186  290.02 0854.49
2009/04/23 14:01:48.7    -230   -237    -79    331    341 224.2 -13.4  34194  290.15 0854.49
2009/04/23 14:01:48.9    -195   -262   -114    327    346 216.6 -24.3  34192  290.11 0854.49
2009/04/23 14:01:49.0    -148   -318   -118    351    371 204.9 -18.7  34202  290.28 0854.49
2009/04/23 14:01:49.1    -169   -268   -167    317    358 212.3 -34.5  34184  289.98 0854.49
2009/04/23 14:01:49.2    -141   -302   -168    334    373 205.0 -33.1  34188  290.06 0854.49
2009/04/23 14:01:49.3    -113   -355   -163    373    407 197.7 -29.5  34196  290.18 0854.49
2009/04/23 14:01:49.4    -110   -331   -120    350    371 198.5 -19.0  34214  290.49 0854.49
2009/04/23 14:01:49.5     -99   -301    -90    317    329 198.3 -20.7  34216  290.53 0854.49
2009/04/23 14:01:49.6     -77   -210    -63    224    232 200.3 -20.2  34208  290.38 0854.49
2009/04/23 14:01:49.7     -83   -221    -71    237    248 200.7 -16.8  34220  290.59 0854.49
2009/04/23 14:01:49.8     -56   -161    -53    171    179 199.4 -22.3  34218  290.55 0854.49
2009/04/23 14:01:49.9       3   -143     49    144    153 178.6  18.9  34220  290.58 0854.49
2009/04/23 14:01:50.0      50   -161     40    169    174 162.6  13.5  34216  290.53 0854.49
2009/04/23 14:01:50.1      29   -145     40    149    155 168.4  15.2  34218  290.57 0854.49
2009/04/23 14:01:50.2      70   -154     60    170    180 155.7  20.0  34216  290.52 0854.49
2009/04/23 14:01:50.3      44   -195     69    201    213 167.1  19.2  34214  290.48 0854.49
2009/04/23 14:01:50.4     -14   -205     89    206    224 184.0  24.9  34220  290.58 0854.49
2009/04/23 14:01:50.5    -142   -159     -8    214    215 221.7  -2.3  34204  290.33 0854.49
2009/04/23 14:01:50.6    -171   -243     30    298    300 215.1   5.9  34204  290.31 0854.49
2009/04/23 14:01:50.7     -47   -261    -10    266    267 190.2  -2.2  34214  290.48 0854.49
2009/04/23 14:01:50.8     -41   -265    -14    269    270 188.9  -3.1  34214  290.48 0854.49
2009/04/23 14:01:50.9      -4   -230     31    231    234 181.0   7.8  34214  290.48 0854.49
2009/04/23 14:01:51.0      34   -247     39    250    254 172.0   9.0  34214  290.49 0854.49
2009/04/23 14:01:51.1      30   -166     17    169    170 169.5   6.1  34216  290.53 0854.49
2009/04/23 14:01:51.2      81   -159     29    179    182 153.0   9.5  34212  290.47 0854.49
2009/04/23 14:01:51.3     102   -154     50    186    193 146.4  15.3  34214  290.48 0854.49
2009/04/23 14:01:51.4      86   -183     70    203    216 154.7  19.2  34210  290.41 0854.49
2009/04/23 14:01:51.5       8   -224     81    225    239 177.8  20.7  34212  290.44 0854.49
2009/04/23 14:01:51.6    -123   -241     31    271    273 207.2   6.7  34200  290.24 0854.49
2009/04/23 14:01:51.7    -110   -173    -78    206    220 212.5 -25.9  34196  290.19 0854.49
2009/04/23 14:01:51.8     -24   -187   -126    189    227 187.6 -41.1  34200  290.26 0854.49
2009/04/23 14:01:51.9    -118   -127   -136    174    220 222.8 -46.4  34192  290.11 0854.49
2009/04/23 14:01:52.0     -27   -232    -81    234    248 186.9 -19.1  34198  290.20 0854.49
2009/04/23 14:01:52.1     -17   -263    -92    264    279 183.8 -24.4  34198  290.20 0854.50
2009/04/23 14:01:52.2       0   -263   -101    264    282 180.0 -26.4  34198  290.20 0854.50
2009/04/23 14:01:52.3      74   -278    -90    288    302 165.1 -17.5  34204  290.31 0854.50
2009/04/23 14:01:52.4      84   -281    -64    294    302 163.3 -12.4  34204  290.31 0854.50
2009/04/23 14:01:52.5      77   -284    -90    295    308 164.9 -21.8  34200  290.24 0854.50
2009/04/23 14:01:52.6      57   -282   -115    288    310 168.4 -27.4  34198  290.22 0854.50
2009/04/23 14:01:52.7     -92   -190   -137    212    252 205.9 -40.0  34198  290.20 0854.50
2009/04/23 14:01:52.8    -151   -151   -155    214    264 225.0 -44.1  34214  290.48 0854.50
2009/04/23 14:01:52.9    -216   -178   -177    281    332 230.5 -39.7  34220  290.59 0854.50
2009/04/23 14:01:53.0    -309    -62   -158    316    353 258.5 -33.0  34212  290.47 0854.50
2009/04/23 14:01:53.1    -203   -181   -106    273    292 228.2 -26.7  34206  290.36 0854.50
2009/04/23 14:01:53.2    -197   -170     42    261    265 229.1   9.3  34216  290.51 0854.50
2009/04/23 14:01:53.3    -114   -161     69    198    210 215.2  19.2  34212  290.45 0854.50
2009/04/23 14:01:53.4    -142   -171     -4    223    224 219.6  -1.3  34208  290.40 0854.50
2009/04/23 14:01:53.5    -118   -127    -26    174    176 222.8  -8.6  34208  290.40 0854.50
2009/04/23 14:01:53.6     -53   -134     81    145    166 201.9  31.9  34218  290.57 0854.50
2009/04/23 14:01:53.7      35   -290    160    293    333 173.1  31.0  34214  290.48 0854.50
2009/04/23 14:01:53.8      -4   -298    160    299    339 180.9  30.5  34218  290.56 0854.50
2009/04/23 14:01:53.9      -3   -309    124    310    333 180.7  23.0  34224  290.65 0854.50
2009/04/23 14:01:54.0      14   -304     51    305    310 177.3   9.5  34220  290.58 0854.50
2009/04/23 14:01:54.1      53   -283     47    289    293 169.3   9.3  34220  290.58 0854.51
2009/04/23 14:01:54.2     -29   -231     38    233    237 187.3   9.3  34218  290.54 0854.51
2009/04/23 14:01:54.3     -53   -237     -7    243    244 192.7  -1.8  34220  290.59 0854.51
2009/04/23 14:01:54.4     -78   -150    -38    170    175 207.6 -12.6  34212  290.47 0854.51
2009/04/23 14:01:54.5    -143   -216    -58    260    267 213.6 -12.6  34210  290.42 0854.51
2009/04/23 14:01:54.6    -267   -192    -39    329    332 234.3  -6.9  34216  290.52 0854.51
2009/04/23 14:01:54.7    -357    -69    -64    364    370 259.0 -10.1  34212  290.45 0854.51
2009/04/23 14:01:54.8    -416     -3     21    417    418 269.5   2.9  34218  290.55 0854.51
2009/04/23 14:01:54.9    -398      4     -6    399    400 270.6  -0.9  34210  290.43 0854.51
2009/04/23 14:01:55.0    -270    -28   -156    272    313 263.9 -36.8  34216  290.53 0854.51
2009/04/23 14:01:55.1    -200     65     20    211    213 288.2   5.4  34230  290.75 0854.51
2009/04/23 14:01:55.2    -292    128     73    319    328 293.7  12.9  34230  290.76 0854.51
2009/04/23 14:01:55.3    -320    179    125    367    388 299.3  18.9  34224  290.66 0854.51
2009/04/23 14:01:55.4    -304    115     54    326    331 290.8   9.5  34230  290.76 0854.51
2009/04/23 14:01:55.5    -197   -265    143    331    360 216.6  24.9  34236  290.86 0854.51
2009/04/23 14:01:55.6     -35   -315    141    318    347 186.5  25.7  34238  290.88 0854.51
2009/04/23 14:01:55.7      22   -192     58    194    203 173.3  16.6  34236  290.86 0854.51
2009/04/23 14:01:55.8     -10   -201     -5    202    203 182.9  -1.6  34226  290.69 0854.51
2009/04/23 14:01:55.9     -97   -214     44    236    241 204.5  10.6  34234  290.83 0854.51
2009/04/23 14:01:56.0     -46   -152     30    159    162 196.9  10.8  34230  290.77 0854.51
2009/04/23 14:01:56.1      32   -190    -24    193    195 170.2  -7.2  34218  290.55 0854.49
2009/04/23 14:01:56.2      15   -129    -41    130    137 173.3 -17.5  34216  290.53 0854.49
2009/04/23 14:01:56.3     -43   -113    -69    122    140 200.9 -35.8  34220  290.60 0854.49
2009/04/23 14:01:56.4     -77   -276   -178    287    337 195.6 -39.3  34222  290.61 0854.49
2009/04/23 14:01:56.5     -84   -171   -189    191    268 206.1 -54.4  34224  290.66 0854.49
2009/04/23 14:01:56.6    -156   -199    -23    254    256 218.1  -5.2  34216  290.53 0854.49
2009/04/23 14:01:56.7    -179   -294     98    345    359 211.4  15.9  34232  290.81 0854.49
2009/04/23 14:01:56.8    -208   -406     -3    457    458 207.1  -0.5  34240  290.92 0854.49
2009/04/23 14:01:56.9      51   -573     52    576    579 174.9   5.2  34226  290.70 0854.49
2009/04/23 14:01:57.0      25   -535    136    536    554 177.3  14.3  34222  290.62 0854.49
2009/04/23 14:01:57.1      91   -586    243    594    641 171.1  23.5  34222  290.64 0854.52
2009/04/23 14:01:57.2      83   -556    203    563    599 171.5  19.9  34218  290.56 0854.52
2009/04/23 14:01:57.3      51   -546    301    549    626 174.6  31.2  34204  290.32 0854.52
2009/04/23 14:01:57.4      47   -452    227    455    508 174.0  28.6  34218  290.54 0854.52
2009/04/23 14:01:57.5     265   -392    286    474    553 145.9  34.0  34212  290.45 0854.52
2009/04/23 14:01:57.6     490   -490    224    694    730 135.0  17.9  34214  290.49 0854.52
2009/04/23 14:01:57.7     347   -377    316    513    602 137.3  34.5  34212  290.47 0854.52
2009/04/23 14:01:57.8     248   -376    163    451    479 146.5  20.7  34218  290.57 0854.52
2009/04/23 14:01:57.9      41   -373    156    376    407 173.7  23.9  34210  290.43 0854.52
2009/04/23 14:01:58.0     165   -290    150    334    366 150.4  25.8  34216  290.52 0854.52
2009/04/23 14:01:58.1       9    -93    154     94    180 174.2  65.7  34224  290.67 0854.52
2009/04/23 14:01:58.2      14   -164    172    165    238 174.9  51.2  34228  290.74 0854.52
2009/04/23 14:01:58.3    -159   -396    153    427    453 201.9  20.7  34212  290.46 0854.52
2009/04/23 14:01:58.4    -216   -514    145    558    577 202.8  14.6  34214  290.49 0854.52
2009/04/23 14:01:58.5    -157   -394    132    425    446 201.8  17.3  34212  290.44 0854.52
2009/04/23 14:01:58.6    -135   -348    184    374    416 201.2  28.2  34216  290.51 0854.52
2009/04/23 14:01:58.7     -22   -225    122    227    257 185.6  30.6  34222  290.63 0854.52
2009/04/23 14:01:58.8      19   -135    118    137    180 171.9  45.1  34222  290.64 0854.52
2009/04/23 14:01:58.9      -1    -34    110     35    115 182.6  80.7  34238  290.91 0854.52
2009/04/23 14:01:59.0     -12    -73     76     75    106 189.8  49.7  34232  290.81 0854.52
2009/04/23 14:01:59.1       5    -31    123     32    127 170.2  84.9  34242  290.98 0854.56
2009/04/23 14:01:59.2     -21    -67     97     71    120 197.8  60.5  34230  290.77 0854.56
2009/04/23 14:01:59.3     -20      2     68     21     71 276.1  81.8  34256  291.20 0854.56
2009/04/23 14:01:59.4       0     -5     50      6     50 182.7  90.0  34256  291.21 0854.56
2009/04/23 14:01:59.5      -3    -25     62     26     67 188.0  77.0  34252  291.13 0854.56
2009/04/23 14:01:59.6      -9     48    102     49    113 349.3  72.9  34260  291.26 0854.56
2009/04/23 14:01:59.7     -51     60    127     79    149 319.5  64.7  34244  291.01 0854.56
2009/04/23 14:01:59.8     -28    -43    138     52    147 213.4  78.6  34242  290.98 0854.56
2009/04/23 14:01:59.9     -25    -78    177     82    195 197.8  73.2  34234  290.82 0854.56
2009/04/23 14:02:00.0      -3     54    106     55    119 356.4  70.8  34252  291.15 0854.56
2009/04/23 14:02:00.1      10     38    132     40    137  15.1  82.8  34254  291.18 0854.56
2009/04/23 14:02:00.2      50     30    150     59    161  59.3  77.6  34242  290.96 0854.56
2009/04/23 14:02:00.3     -31     -3    191     32    193 263.9  90.0  34260  291.26 0854.56
2009/04/23 14:02:00.4     -32    -17    179     37    182 241.1  89.0  34252  291.15 0854.56
2009/04/23 14:02:00.5    -114     45    192    123    228 291.8  64.6  34252  291.13 0854.56
2009/04/23 14:02:00.6      23     59    181     64    191  21.9  80.2  34234  290.84 0854.56
2009/04/23 14:02:00.7      32    -57    168     66    180 151.0  77.4  34230  290.75 0854.56
2009/04/23 14:02:00.8      15   -133    106    134    170 173.3  42.7  34226  290.70 0854.56
2009/04/23 14:02:00.9     -12   -121     48    122    131 185.8  23.0  34224  290.67 0854.56
2009/04/23 14:02:01.0     -56    -64    102     86    133 221.0  55.8  34230  290.77 0854.56
2009/04/23 14:02:01.1     -83     -9    103     84    132 263.4  56.4  34234  290.84 0854.61
2009/04/23 14:02:01.2    -113    -51    106    125    163 245.6  44.5  34240  290.94 0854.61
2009/04/23 14:02:01.3      31     31     98     45    107  45.0  73.5  34238  290.91 0854.61
2009/04/23 14:02:01.4     -45     45     85     64    106 315.0  59.4  34254  291.16 0854.61
2009/04/23 14:02:01.5    -168     68     83    182    200 292.2  26.2  34222  290.64 0854.61
2009/04/23 14:02:01.6    -319    112    153    339    371 289.4  26.0  34230  290.76 0854.61
2009/04/23 14:02:01.7     -88    167    173    189    256 332.1  47.5  34230  290.75 0854.61
2009/04/23 14:02:01.8    -181    195    177    267    320 317.2  36.6  34230  290.75 0854.61
2009/04/23 14:02:01.9    -165    227    180    281    333 324.0  35.6  34222  290.61 0854.61
2009/04/23 14:02:02.0    -232     46    122    237    266 281.2  29.3  34236  290.87 0854.61
2009/04/23 14:02:02.1    -280    132    197    310    367 295.2  35.5  34250  291.11 0854.61
2009/04/23 14:02:02.2    -241    208    207    319    380 310.9  35.9  34234  290.84 0854.61
2009/04/23 14:02:02.3    -170    153    202    230    306 312.0  45.8  34250  291.09 0854.61
2009/04/23 14:02:02.4     -98    149    127    179    219 326.8  39.1  34242  290.98 0854.61
2009/04/23 14:02:02.5    -155     80    131    175    218 297.3  40.4  34256  291.20 0854.61
2009/04/23 14:02:02.6    -150    139    109    205    232 312.9  30.6  34248  291.06 0854.61
2009/04/23 14:02:02.7     -24     71    130     76    150 341.3  66.8  34248  291.06 0854.61
2009/04/23 14:02:02.8    -234    179    128    295    321 307.5  24.9  34266  291.36 0854.61
2009/04/23 14:02:02.9    -211    320     89    384    395 326.6  13.1  34244  291.01 0854.61
2009/04/23 14:02:03.0    -171    267    112    318    338 327.3  19.5  34242  290.98 0854.61
2009/04/23 14:02:03.1     -31    239    121    242    270 352.4  28.2  34220  290.58 0854.61
2009/04/23 14:02:03.2       0    298    143    299    331   0.0  27.3  34212  290.46 0854.61
2009/04/23 14:02:03.3      24    262    124    264    291   5.4  27.1  34214  290.49 0854.61
2009/04/23 14:02:03.4      81    136     63    159    171  30.7  22.8  34222  290.62 0854.61
2009/04/23 14:02:03.5     152    -49     71    160    175 108.2  25.7  34236  290.87 0854.61
2009/04/23 14:02:03.6      -1    -51    161     52    169 181.8  81.6  34238  290.89 0854.61
2009/04/23 14:02:03.7     -61    -80    145    101    176 217.4  61.5  34232  290.81 0854.61
2009/04/23 14:02:03.8    -219     42     55    224    231 281.0  13.9  34226  290.69 0854.61
2009/04/23 14:02:03.9     -94    -31     98    100    140 251.4  50.0  34228  290.72 0854.61
2009/04/23 14:02:04.0     -78    -72    113    107    155 227.3  51.4  34214  290.48 0854.61
2009/04/23 14:02:04.1    -123   -148     78    193    208 219.9  23.0  34202  290.28 0854.61
2009/04/23 14:02:04.2    -119   -165    115    204    234 215.8  31.9  34206  290.36 0854.61
2009/04/23 14:02:04.3    -232    -90    -21    249    250 248.7  -4.9  34212  290.44 0854.61
2009/04/23 14:02:04.4    -210   -113     -7    239    240 241.6  -1.8  34214  290.49 0854.61
2009/04/23 14:02:04.5    -207   -114    -42    237    241 241.1 -10.3  34212  290.44 0854.61
2009/04/23 14:02:04.6    -237   -151     -6    282    283 237.4  -1.3  34218  290.54 0854.61
2009/04/23 14:02:04.7    -286    -47     19    290    291 260.5   3.9  34226  290.68 0854.61
2009/04/23 14:02:04.8    -268      0     -9    269    270 270.0  -2.1  34228  290.73 0854.61
2009/04/23 14:02:04.9    -273    -77     42    284    288 254.1   8.5  34258  291.24 0854.61
2009/04/23 14:02:05.0    -280   -106    -20    300    301 249.2  -3.9  34250  291.10 0854.61
2009/04/23 14:02:05.1    -268    -97     34    286    289 250.0   6.9  34268  291.39 0854.62
2009/04/23 14:02:05.2    -371   -147    -15    400    401 248.4  -2.2  34258  291.23 0854.62
2009/04/23 14:02:05.3    -303   -175     14    351    352 240.0   2.3  34244  291.01 0854.62
2009/04/23 14:02:05.4    -182   -245    196    306    363 216.5  35.6  34218  290.54 0854.62
2009/04/23 14:02:05.5    -167   -168    153    238    282 224.8  35.6  34212  290.44 0854.62
2009/04/23 14:02:05.6    -275   -140    255    309    400 242.9  43.7  34204  290.32 0854.62
2009/04/23 14:02:05.7    -259   -170    162    310    349 236.7  30.0  34208  290.37 0854.62
2009/04/23 14:02:05.8    -151   -320    116    355    374 205.3  18.2  34172  289.79 0854.62
2009/04/23 14:02:05.9    -150   -335    137    368    392 204.1  21.4  34184  289.99 0854.62
2009/04/23 14:02:06.0    -208   -302    147    367    395 214.6  23.0  34174  289.82 0854.62
2009/04/23 14:02:06.1    -240   -295    118    381    400 219.2  17.3  34174  289.81 0854.62
2009/04/23 14:02:06.2    -208   -267    107    339    356 218.0  17.5  34168  289.72 0854.62
2009/04/23 14:02:06.3    -190   -278    109    338    356 214.4  17.9  34172  289.77 0854.62
2009/04/23 14:02:06.4    -140   -281    149    315    348 206.5  27.2  34172  289.79 0854.62
2009/04/23 14:02:06.5    -128   -189    137    229    266 214.1  33.7  34186  290.00 0854.62
2009/04/23 14:02:06.6    -100   -249    205    269    338 201.9  41.2  34218  290.54 0854.62
2009/04/23 14:02:06.7     -44   -263    163    267    312 189.6  34.3  34184  289.98 0854.62
2009/04/23 14:02:06.8      18   -223    128    224    257 175.3  32.3  34168  289.71 0854.62
2009/04/23 14:02:06.9    -153   -142    124    209    243 227.1  33.5  34174  289.80 0854.62
2009/04/23 14:02:07.0    -105   -190    168    218    275 209.0  41.7  34174  289.81 0854.62
2009/04/23 14:02:07.1     -85   -194    155    212    262 203.7  39.7  34164  289.64 0854.62
2009/04/23 14:02:07.2    -149   -180    108    235    258 219.6  26.4  34174  289.80 0854.62
2009/04/23 14:02:07.3    -101   -166    100    195    219 211.4  29.3  34168  289.72 0854.62
2009/04/23 14:02:07.4     -70   -162    115    177    211 203.4  35.7  34166  289.67 0854.62
2009/04/23 14:02:07.5    -120   -241     96    270    286 206.5  20.2  34156  289.51 0854.62
2009/04/23 14:02:07.6    -147   -231     68    275    284 212.5  13.9  34160  289.56 0854.62
2009/04/23 14:02:07.7    -131   -248    133    281    310 208.0  27.1  34168  289.71 0854.62
2009/04/23 14:02:07.8    -156   -188     67    245    254 219.6  15.3  34166  289.66 0854.62
2009/04/23 14:02:07.9    -123   -149     69    194    206 219.4  19.6  34170  289.74 0854.62
2009/04/23 14:02:08.0    -141   -221    145    263    300 212.5  31.4  34164  289.64 0854.62
2009/04/23 14:02:08.1    -199   -240     73    313    322 219.7  13.2  34156  289.49 0854.62
2009/04/23 14:02:08.2    -226   -270     23    353    354 219.9   3.8  34152  289.45 0854.62
2009/04/23 14:02:08.3    -165   -200     74    260    271 219.4  16.0  34158  289.53 0854.62
2009/04/23 14:02:08.4    -122   -193     11    229    230 212.3   2.9  34154  289.48 0854.62
2009/04/23 14:02:08.5     -84   -187    230    206    308 204.3  53.7  34178  289.86 0854.62
2009/04/23 14:02:08.6     -28   -167    198    170    260 189.8  55.0  34180  289.90 0854.62
2009/04/23 14:02:08.7      -2   -119    194    120    228 181.4  64.9  34174  289.82 0854.62
2009/04/23 14:02:08.8     -71   -215    166    227    281 198.3  39.7  34166  289.66 0854.62
2009/04/23 14:02:08.9    -113   -272     89    295    309 202.7  16.8  34152  289.44 0854.62
2009/04/23 14:02:09.0     -83   -252     88    266    281 198.3  18.4  34152  289.42 0854.62
2009/04/23 14:02:09.1     -44   -202    137    207    248 192.5  36.5  34166  289.66 0854.56
2009/04/23 14:02:09.2     -33   -238    141    241    279 188.1  33.1  34160  289.58 0854.56
2009/04/23 14:02:09.3     -24   -198     84    200    216 187.1  24.1  34160  289.57 0854.56
2009/04/23 14:02:09.4     -63   -175     65    187    199 200.0  19.2  34154  289.46 0854.56
2009/04/23 14:02:09.5      -9   -117     65    118    134 184.4  31.4  34156  289.50 0854.56
2009/04/23 14:02:09.6     -62   -132     81    147    167 205.3  31.4  34154  289.48 0854.56
2009/04/23 14:02:09.7    -137   -158     29    210    213 220.8   8.0  34154  289.48 0854.56
2009/04/23 14:02:09.8    -193   -115     -4    225    226 239.3  -1.3  34158  289.53 0854.56
2009/04/23 14:02:09.9    -168      0     31    169    172 270.0  10.6  34172  289.77 0854.56
2009/04/23 14:02:10.0    -175     13     56    176    185 274.4  17.9  34182  289.94 0854.56
2009/04/23 14:02:10.1    -210     86     44    228    233 292.4  11.0  34194  290.14 0854.56
2009/04/23 14:02:10.2    -282    102    -37    300    303 289.9  -7.2  34234  290.83 0854.56
2009/04/23 14:02:10.3    -309    174    -13    355    356 299.4  -2.2  34232  290.81 0854.56
2009/04/23 14:02:10.4    -229    220     28    318    320 313.8   5.1  34216  290.51 0854.56
2009/04/23 14:02:10.5    -259    248     55    359    364 313.8   8.8  34202  290.27 0854.56
2009/04/23 14:02:10.6    -318    185     20    369    370 300.2   3.1  34196  290.18 0854.56
2009/04/23 14:02:10.7    -256    224    121    341    361 311.1  20.2  34232  290.79 0854.56
2009/04/23 14:02:10.8    -324    172    107    367    383 298.0  16.3  34238  290.91 0854.56
2009/04/23 14:02:10.9    -391     23     26    392    393 273.5   3.8  34222  290.64 0854.56
2009/04/23 14:02:11.0    -412     -7     -8    413    414 269.0  -1.2  34232  290.80 0854.56
2009/04/23 14:02:11.1    -330    -78     -2    340    341 256.6  -0.5  34214  290.49 0854.58
2009/04/23 14:02:11.2    -279    -16    -10    280    281 266.6  -2.2  34210  290.41 0854.58
2009/04/23 14:02:11.3    -250    -46    -80    255    267 259.5 -22.5  34180  289.92 0854.58
2009/04/23 14:02:11.4    -252   -118   -100    279    297 244.9 -19.7  34184  289.97 0854.58
2009/04/23 14:02:11.5    -235    -89   -117    252    277 249.2 -31.0  34156  289.49 0854.58
2009/04/23 14:02:11.6    -229     -3   -175    230    289 269.1 -45.6  34170  289.73 0854.58
2009/04/23 14:02:11.7    -228     -2    -54    229    236 269.4 -13.3  34164  289.64 0854.58
2009/04/23 14:02:11.8    -229     51    -78    235    248 282.8 -18.6  34178  289.88 0854.58
2009/04/23 14:02:11.9    -221    -13    -72    222    233 266.5 -23.8  34180  289.92 0854.58
2009/04/23 14:02:12.0    -199     21    -96    201    222 276.1 -31.6  34188  290.06 0854.58
2009/04/23 14:02:12.1    -163     26      9    166    167 279.2   3.1  34196  290.19 0854.58
2009/04/23 14:02:12.2    -173    110     83    206    222 302.6  23.0  34190  290.09 0854.58
2009/04/23 14:02:12.3    -355    168     31    393    395 295.4   4.6  34206  290.35 0854.58
2009/04/23 14:02:12.4    -350     49   -113    354    371 278.0 -22.8  34192  290.10 0854.58
2009/04/23 14:02:12.5    -305    117    -20    327    328 291.1  -3.5  34204  290.31 0854.58
2009/04/23 14:02:12.6    -389    104    -47    403    406 285.0  -6.7  34206  290.34 0854.58
2009/04/23 14:02:12.7    -397    -33   -176    399    436 265.1 -29.6  34188  290.05 0854.58
2009/04/23 14:02:12.8    -316      8   -116    317    337 271.5 -25.4  34180  289.91 0854.58
2009/04/23 14:02:12.9    -380    -70     64    387    393 259.5   9.4  34214  290.50 0854.58
2009/04/23 14:02:13.0    -239     40     12    243    244 279.6   2.9  34212  290.46 0854.58
2009/04/23 14:02:13.1    -292     54    -26    298    300 280.6  -5.1  34224  290.66 0854.58
2009/04/23 14:02:13.2    -227    156    -43    276    280 304.6  -9.0  34230  290.75 0854.58
2009/04/23 14:02:13.3    -328     72    -28    336    338 282.5  -4.9  34208  290.40 0854.58
2009/04/23 14:02:13.4    -342     62   -118    348    368 280.3 -18.8  34206  290.35 0854.58
2009/04/23 14:02:13.5    -260     58    -86    267    281 282.6 -17.9  34204  290.32 0854.58
2009/04/23 14:02:13.6    -234    -40    -53    238    244 260.3 -12.6  34208  290.39 0854.58
2009/04/23 14:02:13.7    -184     -9     61    185    195 267.0  18.4  34210  290.41 0854.58
2009/04/23 14:02:13.8    -172    142    -30    224    227 309.5  -7.7  34214  290.50 0854.58
2009/04/23 14:02:14.0    -243     64    -30    252    254 284.8  -6.9  34214  290.49 0854.58
2009/04/23 14:02:14.0    -276   -192   -104    337    353 235.1 -17.3  34190  290.08 0854.58
2009/04/23 14:02:14.1    -224     25    -45    226    231 276.4 -11.3  34188  290.06 0854.58
2009/04/23 14:02:14.2    -365    131   -109    389    405 289.8 -15.7  34190  290.08 0854.58
2009/04/23 14:02:14.3    -362     -4   -186    363    407 269.3 -33.6  34146  289.35 0854.58
2009/04/23 14:02:14.4    -361    -23   -168    362    399 266.3 -31.0  34132  289.11 0854.58
2009/04/23 14:02:14.5    -349    -28   -170    351    390 265.4 -32.2  34138  289.20 0854.58
2009/04/23 14:02:14.6    -414      3   -139    415    437 270.5 -23.3  34146  289.34 0854.58
2009/04/23 14:02:14.7    -346     26   -153    347    379 274.4 -29.6  34154  289.47 0854.58
2009/04/23 14:02:14.8    -198    -23   -186    200    273 263.2 -52.3  34174  289.81 0854.58
2009/04/23 14:02:14.9    -224    -45   -167    229    283 258.5 -44.1  34184  289.97 0854.58
2009/04/23 14:02:15.0    -196   -102   -160    221    272 242.5 -43.9  34190  290.09 0854.58
2009/04/23 14:02:15.1    -155   -146   -150    214    261 226.8 -42.9  34188  290.05 0854.56
2009/04/23 14:02:15.2    -129   -209   -147    246    286 211.6 -37.9  34184  289.98 0854.56
2009/04/23 14:02:15.4    -120   -164    -64    204    215 216.3 -17.6  34188  290.04 0854.56
2009/04/23 14:02:15.5     -23     19      8     31     33 309.6  15.3  34186  290.01 0854.56
2009/04/23 14:02:15.6      10    -40    -11     42     44 165.7 -15.5  34190  290.09 0854.56
2009/04/23 14:02:15.7     -52    -50    -80     73    108 225.9 -57.1  34194  290.14 0854.56
2009/04/23 14:02:15.8     -45   -138   -162    146    218 198.3 -57.7  34198  290.21 0854.56
2009/04/23 14:02:15.9     -28   -174   -112    177    209 189.1 -39.9  34194  290.14 0854.56
2009/04/23 14:02:16.0     -90   -179   -107    201    227 206.7 -35.0  34204  290.33 0854.56
2009/04/23 14:02:16.1     -84   -177   -115    197    228 205.5 -37.5  34198  290.23 0854.56
2009/04/23 14:02:16.2     -38   -187   -154    191    245 191.6 -47.7  34198  290.21 0854.56
2009/04/23 14:02:16.3      -2   -183   -139    184    230 180.9 -45.3  34194  290.14 0854.56
2009/04/23 14:02:16.4     -15   -168   -117    169    205 185.3 -42.2  34196  290.19 0854.56
2009/04/23 14:02:16.5      50   -145   -121    154    195 160.8 -46.6  34194  290.16 0854.56
2009/04/23 14:02:16.6      28   -109    -88    113    143 165.3 -46.1  34194  290.16 0854.56
2009/04/23 14:02:16.7     -11    -83    -64     84    105 188.0 -45.6  34204  290.31 0854.56
2009/04/23 14:02:16.8     -65    -78    -52    102    114 219.6 -33.7  34200  290.26 0854.56
2009/04/23 14:02:16.9     -63   -128    -51    143    151 206.3 -24.4  34196  290.19 0854.56
2009/04/23 14:02:17.0     -44   -224    -95    229    247 191.3 -28.5  34190  290.07 0854.56
2009/04/23 14:02:17.1     -12   -288   -100    289    305 182.5 -24.0  34176  289.85 0854.56
2009/04/23 14:02:17.2      41   -291    -94    294    308 171.9 -23.0  34182  289.95 0854.55
2009/04/23 14:02:17.3      22   -279   -107    280    299 175.3 -26.4  34178  289.86 0854.55
2009/04/23 14:02:17.4     -31   -286    -81    288    299 186.2 -20.4  34158  289.53 0854.55
2009/04/23 14:02:17.5     -24   -232   -109    234    258 186.0 -31.4  34146  289.32 0854.55
2009/04/23 14:02:17.6     -11   -230   -155    231    278 182.9 -41.7  34146  289.32 0854.55
2009/04/23 14:02:17.7     -20   -205   -132    207    245 185.8 -39.9  34144  289.29 0854.55
2009/04/23 14:02:17.8     -28   -219   -150    221    267 187.3 -41.8  34146  289.32 0854.55
2009/04/23 14:02:17.9     -48   -186   -125    193    229 194.5 -40.0  34142  289.28 0854.55
2009/04/23 14:02:18.0     -82   -223    -44    238    243 200.3 -10.5  34168  289.71 0854.55
2009/04/23 14:02:18.1    -143   -190    -41    238    242 217.0  -9.8  34156  289.49 0854.55
2009/04/23 14:02:18.2    -171   -134    -64    218    228 231.8 -16.4  34142  289.28 0854.53
2009/04/23 14:02:18.3    -139   -118    -68    183    195 229.8 -25.1  34144  289.30 0854.53
2009/04/23 14:02:18.4    -157   -162    -83    226    240 224.1 -25.3  34142  289.25 0854.53
2009/04/23 14:02:18.5    -128   -157   -111    203    231 219.2 -35.7  34140  289.24 0854.53
2009/04/23 14:02:18.6    -170   -137   -104    219    242 231.1 -31.5  34142  289.25 0854.53
2009/04/23 14:02:18.7    -176   -113   -111    210    237 237.4 -34.6  34138  289.19 0854.53
2009/04/23 14:02:18.8    -183    -98   -141    208    251 241.6 -41.7  34140  289.22 0854.53
2009/04/23 14:02:18.9    -198    -77   -174    213    275 248.7 -48.1  34144  289.29 0854.53
2009/04/23 14:02:19.0    -249    -91   -169    266    315 250.0 -39.9  34150  289.39 0854.53
2009/04/23 14:02:19.1    -321    -83   -147    332    363 255.4 -30.0  34146  289.35 0854.53
2009/04/23 14:02:19.2    -308    -67    -91    316    329 257.7 -16.2  34146  289.34 0854.53
2009/04/23 14:02:19.3    -261    -70    -95    271    288 255.0 -19.4  34150  289.41 0854.53
2009/04/23 14:02:19.4    -261    -36    -79    264    275 262.1 -21.7  34138  289.20 0854.53
2009/04/23 14:02:19.5    -231    -12    -80    232    245 267.0 -24.0  34136  289.15 0854.53
2009/04/23 14:02:19.6    -194     32    -70    197    210 279.5 -19.6  34134  289.13 0854.53
2009/04/23 14:02:19.7    -206     31    -66    209    220 278.6 -17.5  34136  289.18 0854.53
2009/04/23 14:02:19.8    -201     44    -73    206    219 282.6 -19.7  34136  289.16 0854.53
2009/04/23 14:02:19.9    -200     66    -34    211    214 288.4  -9.3  34134  289.14 0854.53
2009/04/23 14:02:20.0    -167     54    -63    176    188 287.9 -19.7  34140  289.24 0854.53
2009/04/23 14:02:20.1    -147      6    -73    148    165 272.6 -32.6  34140  289.23 0854.53
2009/04/23 14:02:20.2    -166     33    -77    170    186 281.2 -30.6  34138  289.21 0854.50
2009/04/23 14:02:20.3    -174     25    -79    176    192 278.4 -30.3  34140  289.23 0854.50
2009/04/23 14:02:20.4    -171    -21    -56    173    181 262.8 -23.3  34140  289.23 0854.50
2009/04/23 14:02:20.5    -172    -39    -57    177    185 257.0 -23.6  34140  289.23 0854.50
2009/04/23 14:02:20.6    -154    -44    -82    161    180 254.1 -33.5  34142  289.28 0854.50
2009/04/23 14:02:20.7    -120    -97   -112    155    191 230.9 -43.9  34144  289.31 0854.50
2009/04/23 14:02:20.8    -174   -122    -43    213    218 234.9 -11.5  34152  289.45 0854.50
2009/04/23 14:02:20.9    -126   -104    -53    164    173 230.2 -17.9  34152  289.45 0854.50
2009/04/23 14:02:21.0     -56    -67   -107     88    138 220.1 -60.8  34154  289.48 0854.50
2009/04/23 14:02:21.1     -84    -95   -140    128    189 221.5 -57.1  34158  289.55 0854.50
2009/04/23 14:02:21.2    -207    -48    -76    213    226 256.7 -24.6  34158  289.55 0854.50
2009/04/23 14:02:21.3    -202    -46    -34    208    211 257.2  -9.3  34158  289.53 0854.50
2009/04/23 14:02:21.4    -223    -49     -8    229    230 257.6  -2.1  34150  289.41 0854.50
2009/04/23 14:02:21.5    -141    -36     28    146    149 255.4  11.1  34156  289.50 0854.50
2009/04/23 14:02:21.6     -72     -5     28     73     78 265.6  21.0  34158  289.53 0854.50
2009/04/23 14:02:21.7     -25    -55     50     61     78 204.5  43.7  34162  289.62 0854.50
2009/04/23 14:02:21.8      -8    -78     83     79    114 186.2  51.2  34174  289.80 0854.50
2009/04/23 14:02:21.9      10    -55     49     56     74 169.3  45.8  34172  289.77 0854.50
2009/04/23 14:02:22.0      18    -54     88     58    105 161.3  64.1  34170  289.74 0854.50
2009/04/23 14:02:22.1      -1    -72     72     73    102 180.9  50.0  34160  289.57 0854.50
2009/04/23 14:02:22.2      99    -99    -12    141    142 134.9  -5.1  34156  289.50 0854.51
2009/04/23 14:02:22.3      21   -168     33    170    174 172.9  11.1  34158  289.55 0854.51
2009/04/23 14:02:22.4     117   -179     -8    215    216 146.8  -2.2  34158  289.55 0854.51
2009/04/23 14:02:22.5      76   -190    -96    205    226 158.2 -31.5  34162  289.62 0854.51
2009/04/23 14:02:22.6      33   -175   -226    179    288 169.1 -62.1  34158  289.53 0854.51
2009/04/23 14:02:22.7      76   -121   -179    144    229 147.9 -61.3  34170  289.75 0854.51
2009/04/23 14:02:22.8      64   -136   -151    151    213 154.5 -54.5  34164  289.63 0854.51
2009/04/23 14:02:22.9      15   -251   -144    252    290 176.4 -36.8  34152  289.44 0854.51
2009/04/23 14:02:23.0     -20   -236   -150    237    280 185.1 -39.9  34144  289.29 0854.51
2009/04/23 14:02:23.1      74   -214   -167    227    281 160.8 -44.1  34148  289.37 0854.51
2009/04/23 14:02:23.2      65   -168   -124    181    219 158.8 -42.0  34150  289.41 0854.51
2009/04/23 14:02:23.3     -39   -106   -102    114    152 200.5 -51.3  34140  289.24 0854.51
2009/04/23 14:02:23.4     -79    -79    -76    112    135 225.0 -41.8  34144  289.30 0854.51
2009/04/23 14:02:23.5     -17    -62    -47     65     80 196.0 -44.1  34154  289.46 0854.51
2009/04/23 14:02:23.6      40    -67     -7     79     80 149.3  -5.6  34150  289.41 0854.51
2009/04/23 14:02:23.7     129    -88     40    157    163 124.2  14.3  34152  289.45 0854.51
2009/04/23 14:02:23.8      64   -101    -74    120    140 147.4 -39.4  34154  289.46 0854.51
2009/04/23 14:02:23.9      70   -190    -57    203    210 159.7 -20.4  34154  289.46 0854.51
2009/04/23 14:02:24.0      42   -248    -71    252    262 170.3 -15.8  34156  289.51 0854.51
2009/04/23 14:02:24.1      47   -334   -107    338    355 172.0 -17.6  34170  289.74 0854.51
2009/04/23 14:02:24.2       9   -289    -92    290    305 178.2 -17.6  34166  289.68 0854.50
2009/04/23 14:02:24.3       9   -364    -81    365    375 178.5 -12.6  34174  289.82 0854.50
2009/04/23 14:02:24.4      52   -386     -1    390    391 172.3  -0.3  34162  289.62 0854.50
2009/04/23 14:02:24.5      21   -365    -14    366    367 176.6  -2.2  34170  289.74 0854.50
2009/04/23 14:02:24.6     130   -391     58    413    418 161.6   8.0  34170  289.73 0854.50
2009/04/23 14:02:24.7     147   -383     92    411    422 159.0  12.6  34160  289.58 0854.50
2009/04/23 14:02:24.8     168   -263     93    313    327 147.4  16.6  34166  289.68 0854.50
2009/04/23 14:02:24.9     168   -282     79    329    339 149.3  13.5  34166  289.67 0854.50
2009/04/23 14:02:25.0     203   -252     56    324    329 141.2   9.9  34162  289.61 0854.50
2009/04/23 14:02:25.1     169   -280    -23    328    329 148.8  -4.1  34164  289.64 0854.50
2009/04/23 14:02:25.2     126   -295    -75    321    330 156.8 -13.3  34136  289.17 0854.50
2009/04/23 14:02:25.3     118   -283    -47    307    311 157.3  -8.8  34142  289.25 0854.50
2009/04/23 14:02:25.4      99   -219    -78    241    254 155.7 -18.1  34142  289.25 0854.50
2009/04/23 14:02:25.5      82   -242    -86    256    270 161.3 -23.3  34144  289.31 0854.50
2009/04/23 14:02:25.6      84   -231    -66    247    256 159.9 -15.0  34144  289.31 0854.50
2009/04/23 14:02:25.7      78   -194    -47    210    216 157.9 -12.6  34148  289.36 0854.50
2009/04/23 14:02:25.8      75   -222    -43    235    239 161.3 -10.5  34144  289.31 0854.50
2009/04/23 14:02:25.9      83   -229    -58    244    251 160.0 -13.4  34148  289.36 0854.50
2009/04/23 14:02:26.0      78   -256    -69    268    277 163.1 -14.5  34156  289.49 0854.50
2009/04/23 14:02:26.1      58   -243    -82    250    264 166.4 -18.3  34152  289.42 0854.50
2009/04/23 14:02:26.2      12   -258    -89    259    273 177.3 -24.0  34160  289.56 0854.50
2009/04/23 14:02:26.3       4   -289   -125    290    315 179.1 -29.2  34160  289.58 0854.50
2009/04/23 14:02:26.4      29   -265    -95    267    284 173.7 -19.7  34160  289.58 0854.50
2009/04/23 14:02:26.5       5   -296   -109    297    316 179.0 -25.4  34162  289.59 0854.50
2009/04/23 14:02:26.6      33   -307    -61    309    316 173.8 -11.2  34156  289.49 0854.50
2009/04/23 14:02:26.7      -8   -316    -16    317    318 181.6  -3.0  34154  289.46 0854.50
2009/04/23 14:02:26.8       5   -314     -1    315    316 179.0  -0.3  34158  289.53 0854.50
2009/04/23 14:02:26.9       3   -286     14    287    288 179.3   2.9  34158  289.54 0854.50
2009/04/23 14:02:27.0       8   -271     -5    272    273 178.2  -1.1  34158  289.53 0854.50
2009/04/23 14:02:27.1      -9   -278     16    279    280 182.0   3.3  34158  289.54 0854.50
2009/04/23 14:02:27.2    -107   -280    -28    300    302 201.0  -5.4  34158  289.53 0854.50
2009/04/23 14:02:27.3     -94   -276    -41    292    295 198.9  -8.0  34156  289.51 0854.50
2009/04/23 14:02:27.4    -138   -271    -68    305    313 207.1 -12.6  34154  289.47 0854.50
2009/04/23 14:02:27.5    -147   -256    -59    296    302 209.9 -11.3  34154  289.47 0854.50
2009/04/23 14:02:27.6    -155   -272   -100    314    330 209.6 -17.7  34156  289.49 0854.50
2009/04/23 14:02:27.7    -107   -246    -83    269    281 203.6 -22.3  34156  289.49 0854.50
2009/04/23 14:02:27.8    -130   -179    -87    222    238 216.0 -26.7  34152  289.44 0854.50
2009/04/23 14:02:27.9    -130   -196     20    236    237 213.6   5.0  34148  289.37 0854.50
2009/04/23 14:02:28.0    -135   -140    -36    195    199 224.1 -10.5  34154  289.48 0854.50
2009/04/23 14:02:28.1     -94    -90    -58    131    143 226.4 -29.5  34152  289.45 0854.50
2009/04/23 14:02:28.2     -29   -147    -83    150    171 191.5 -35.8  34154  289.46 0854.51
2009/04/23 14:02:28.3    -123   -144    -81    190    206 220.5 -29.0  34152  289.43 0854.51
2009/04/23 14:02:28.4    -147    -97    -57    177    185 236.5 -23.6  34154  289.46 0854.51
2009/04/23 14:02:28.5    -141   -133    -75    195    208 226.7 -26.4  34156  289.52 0854.51
2009/04/23 14:02:28.6    -168   -191     31    255    257 221.4   7.1  34156  289.51 0854.51
2009/04/23 14:02:28.7    -206   -204     23    291    292 225.3   4.6  34160  289.56 0854.51
2009/04/23 14:02:28.8    -204   -166    -28    264    266 230.9  -6.1  34160  289.56 0854.51
2009/04/23 14:02:28.9    -198   -143    -59    245    253 234.0 -13.7  34166  289.68 0854.51
2009/04/23 14:02:29.0    -167   -157    -70    230    241 226.9 -17.0  34156  289.51 0854.51
2009/04/23 14:02:29.1    -193   -152    -45    246    251 231.8 -10.4  34162  289.59 0854.51
2009/04/23 14:02:29.2    -166   -166    -51    235    241 225.0 -12.4  34158  289.54 0854.51
2009/04/23 14:02:29.3    -151   -124    -13    196    197 230.5  -3.9  34158  289.53 0854.51
2009/04/23 14:02:29.4    -133   -117    -63    178    190 228.7 -19.6  34158  289.55 0854.51
2009/04/23 14:02:29.5    -151   -146    -78    211    224 226.0 -25.4  34160  289.57 0854.51
2009/04/23 14:02:29.6    -146   -176    -45    229    234 219.6 -11.3  34158  289.55 0854.51
2009/04/23 14:02:29.7    -148   -126    -59    195    203 229.6 -21.8  34160  289.58 0854.51
2009/04/23 14:02:29.8    -131   -109    -66    171    183 230.2 -26.4  34162  289.60 0854.51
2009/04/23 14:02:29.9     -64   -160    -89    173    194 201.8 -33.7  34158  289.55 0854.51
2009/04/23 14:02:30.0    -155   -193    -37    248    251 218.8  -8.6  34160  289.56 0854.51
2009/04/23 14:02:30.1    -165   -214    -71    271    281 217.8 -14.7  34158  289.54 0854.51
2009/04/23 14:02:30.2    -151   -245    -78    288    299 211.6 -15.2  34158  289.54 0854.51
2009/04/23 14:02:30.3    -156   -265    -82    308    319 210.5 -15.0  34158  289.53 0854.51
2009/04/23 14:02:30.4     -80   -270   -106    282    301 196.5 -25.9  34162  289.59 0854.51
2009/04/23 14:02:30.5     -69   -208   -102    220    242 198.3 -30.8  34166  289.68 0854.51
2009/04/23 14:02:30.6     -88   -135    -72    162    177 213.0 -30.1  34178  289.87 0854.51
2009/04/23 14:02:30.7    -127   -126    -36    180    184 225.2 -11.5  34168  289.72 0854.51
2009/04/23 14:02:30.8     -62   -195    -21    205    207 197.8  -6.0  34166  289.69 0854.51
2009/04/23 14:02:30.9     -89   -166      4    189    190 208.1   1.2  34168  289.72 0854.51
2009/04/23 14:02:31.0     -87   -194      0    213    214 204.3   0.0  34182  289.96 0854.51
2009/04/23 14:02:31.1     -75   -205     42    219    224 200.3  11.0  34180  289.92 0854.51
2009/04/23 14:02:31.2     -19   -228     48    229    235 184.9  12.0  34182  289.93 0854.51
2009/04/23 14:02:31.3      21   -233     94    235    253 174.7  23.0  34182  289.95 0854.51
2009/04/23 14:02:31.4       0   -182     74    183    197 180.0  23.1  34180  289.92 0854.51
2009/04/23 14:02:31.5      -2   -185     21    186    188 180.9   6.7  34186  290.02 0854.51
2009/04/23 14:02:31.6     -16   -207     58    208    216 184.5  15.6  34184  289.99 0854.51
2009/04/23 14:02:31.7       3   -201     55    202    210 179.1  15.3  34198  290.23 0854.51
2009/04/23 14:02:31.8       0   -217     56    218    226 180.2  14.5  34172  289.79 0854.51
2009/04/23 14:02:31.9     -50   -220     31    226    229 192.9   7.8  34166  289.67 0854.51
2009/04/23 14:02:32.0     -17   -232    -47    233    238 184.4 -11.5  34158  289.54 0854.51
2009/04/23 14:02:32.1     -41   -205    -55    210    218 191.3 -14.7  34162  289.62 0854.51
2009/04/23 14:02:32.2     -83   -279    -35    292    295 196.5  -6.9  34160  289.58 0854.49
2009/04/23 14:02:32.3     -35   -250    -26    253    255 188.0  -6.0  34160  289.56 0854.49
2009/04/23 14:02:32.4       9   -224    -75    225    238 177.5 -18.6  34164  289.63 0854.49
2009/04/23 14:02:32.5       5   -203    -66    204    215 178.4 -17.9  34162  289.60 0854.49
2009/04/23 14:02:32.6      -2   -217     -4    218    219 180.7  -1.3  34162  289.62 0854.49
2009/04/23 14:02:32.7     -31   -232     24    235    237 187.8   5.9  34186  290.00 0854.49
2009/04/23 14:02:32.8     -56   -276     54    282    288 191.5  11.0  34208  290.39 0854.49
2009/04/23 14:02:32.9     -36   -270     18    273    274 187.6   3.8  34166  289.68 0854.49
2009/04/23 14:02:33.0     -76   -247     20    259    260 197.2   4.6  34168  289.71 0854.49
2009/04/23 14:02:33.1     -43   -269      3    273    274 189.1   0.7  34164  289.64 0854.49
2009/04/23 14:02:33.2     -68   -278    -11    287    288 193.8  -2.2  34164  289.63 0854.49
2009/04/23 14:02:33.3     -71   -272      4    282    283 194.7   0.8  34164  289.63 0854.49
2009/04/23 14:02:33.4     -42   -236    -30    240    242 190.2  -7.3  34166  289.66 0854.49
2009/04/23 14:02:33.5     -68   -242    -29    252    254 195.8  -6.7  34168  289.70 0854.49
2009/04/23 14:02:33.6     -62   -269    -55    277    283 193.1 -11.3  34176  289.85 0854.49
2009/04/23 14:02:33.7     -45   -266    -44    270    274 189.7  -9.3  34172  289.78 0854.49
2009/04/23 14:02:33.8     -44   -250     -1    254    255 190.0  -0.3  34174  289.80 0854.49
2009/04/23 14:02:33.9     -11   -254     -3    255    256 182.7  -0.7  34190  290.07 0854.49
2009/04/23 14:02:34.0       3   -278    -35    279    282 179.3  -7.3  34182  289.93 0854.49
2009/04/23 14:02:34.1      19   -296    -48    297    302 176.2  -9.3  34172  289.76 0854.49
2009/04/23 14:02:34.2     -42   -270    -65    274    282 188.9 -13.4  34168  289.71 0854.48
2009/04/23 14:02:34.3     -16   -272    -65    273    281 183.4 -13.4  34168  289.70 0854.48
2009/04/23 14:02:34.4       4   -255    -46    256    261 178.9 -10.3  34170  289.73 0854.48
2009/04/23 14:02:34.5     -13   -299    -49    300    305 182.5  -9.3  34188  290.03 0854.48
2009/04/23 14:02:34.6      28   -288     24    290    292 174.4   4.9  34188  290.03 0854.48
2009/04/23 14:02:34.7      53   -288     25    293    295 169.4   4.9  34204  290.31 0854.48
2009/04/23 14:02:34.8      66   -277    -36    285    288 166.6  -7.2  34180  289.90 0854.48
2009/04/23 14:02:34.9      82   -284    -28    296    298 163.9  -5.6  34172  289.76 0854.48
2009/04/23 14:02:35.0      84   -295    -16    307    308 164.0  -3.1  34166  289.68 0854.48
2009/04/23 14:02:35.1      89   -347     -2    359    360 165.5  -0.4  34168  289.71 0854.48
2009/04/23 14:02:35.2     141   -320    -23    350    351 156.2  -3.8  34168  289.71 0854.48
2009/04/23 14:02:35.3      94   -256    -97    273    290 159.7 -19.7  34172  289.76 0854.48
2009/04/23 14:02:35.4     114   -307    -96    328    342 159.6 -16.4  34168  289.71 0854.48
2009/04/23 14:02:35.5     111   -295    -81    316    327 159.4 -14.4  34172  289.78 0854.48
2009/04/23 14:02:35.6     135   -300    -67    330    337 155.7 -11.5  34178  289.86 0854.48
2009/04/23 14:02:35.7     172   -354    -78    394    402 154.1 -11.3  34180  289.91 0854.48
2009/04/23 14:02:35.8     139   -247    -80    284    296 150.6 -15.8  34178  289.86 0854.48
2009/04/23 14:02:35.9     160   -151     -4    221    222 133.3  -1.3  34178  289.87 0854.48
2009/04/23 14:02:36.0     181   -149     42    235    239 129.5  10.3  34178  289.86 0854.48
2009/04/23 14:02:36.1     158   -170    -33    233    236 137.0  -8.3  34186  290.02 0854.48
2009/04/23 14:02:36.2     184   -147     24    236    238 128.6   6.0  34184  289.98 0854.50
2009/04/23 14:02:36.3      69   -160      7    175    176 156.6   2.5  34172  289.79 0854.50
2009/04/23 14:02:36.4     -17   -159    -71    160    175 186.2 -30.1  34180  289.92 0854.50
2009/04/23 14:02:36.5      59   -153    -68    165    178 158.8 -27.8  34182  289.96 0854.50
2009/04/23 14:02:36.6      77   -184    -74    200    213 157.1 -25.4  34180  289.91 0854.50
2009/04/23 14:02:36.7     -12   -118   -115    119    165 186.2 -53.6  34186  290.01 0854.50
2009/04/23 14:02:36.8       9    -86    -85     87    121 173.8 -54.3  34182  289.94 0854.50
2009/04/23 14:02:36.9      15    -85    -59     87    105 169.8 -41.4  34184  289.99 0854.50
2009/04/23 14:02:37.0      20   -105    -68    108    127 168.9 -39.9  34194  290.14 0854.50
2009/04/23 14:02:37.1       0    -90    -32     91     96 179.5 -23.3  34194  290.16 0854.50
2009/04/23 14:02:37.2      -8    -94    -12     95     96 185.3  -7.3  34190  290.09 0854.50
2009/04/23 14:02:37.3     -49   -103     32    115    120 205.3  15.8  34190  290.08 0854.50
2009/04/23 14:02:37.4       0   -122     64    123    138 180.0  29.3  34188  290.06 0854.50
2009/04/23 14:02:37.5      92   -145     60    173    184 147.5  19.2  34180  289.92 0854.50
2009/04/23 14:02:37.6      92   -211     63    231    240 156.4  15.3  34180  289.92 0854.50
2009/04/23 14:02:37.7     133   -183     77    227    240 143.9  18.9  34186  290.00 0854.50
2009/04/23 14:02:37.8     120   -191     49    226    232 147.9  12.4  34182  289.96 0854.50
2009/04/23 14:02:37.9      78   -201     75    216    229 158.8  19.2  34182  289.94 0854.50
2009/04/23 14:02:38.0      53   -198     76    206    219 164.9  21.0  34176  289.84 0854.50
2009/04/23 14:02:38.1      82   -245    125    259    287 161.5  27.4  34182  289.95 0854.50
2009/04/23 14:02:38.2     135   -344    159    370    402 158.6  24.8  34180  289.91 0854.52
2009/04/23 14:02:38.3     124   -373    181    394    433 161.5  26.3  34178  289.88 0854.52
2009/04/23 14:02:38.4     236   -329    189    406    447 144.3  27.0  34178  289.88 0854.52
2009/04/23 14:02:38.5     214   -362    152    421    448 149.4  19.9  34180  289.90 0854.52
2009/04/23 14:02:38.6     276   -276    115    391    408 135.1  16.4  34174  289.82 0854.52
2009/04/23 14:02:38.7     182   -252     74    311    320 144.2  13.5  34178  289.86 0854.52
2009/04/23 14:02:38.8     124   -215     81    249    262 150.1  18.1  34178  289.88 0854.52
2009/04/23 14:02:38.9     119   -184     94    220    239 147.0  24.6  34176  289.83 0854.52
2009/04/23 14:02:39.0      65   -243    130    252    283 164.9  29.3  34174  289.81 0854.52
2009/04/23 14:02:39.1     -57   -360    175    365    404 189.1  27.3  34184  289.98 0854.52
2009/04/23 14:02:39.2    -115   -427    107    443    456 195.1  13.7  34190  290.07 0854.54
2009/04/23 14:02:39.3    -114   -387     48    404    407 196.5   6.9  34194  290.14 0854.54
2009/04/23 14:02:39.4     -83   -306     11    318    319 195.2   2.1  34194  290.14 0854.54
2009/04/23 14:02:39.5     -99   -335    116    350    369 196.5  18.4  34194  290.15 0854.54
2009/04/23 14:02:39.6    -111   -447    143    461    483 194.0  17.3  34192  290.13 0854.54
2009/04/23 14:02:39.7     -66   -424    101    430    442 188.9  13.2  34186  290.02 0854.54
2009/04/23 14:02:39.8      59   -404     89    409    419 171.7  12.4  34188  290.04 0854.54
2009/04/23 14:02:39.9      38   -457     89    459    468 175.1  11.0  34196  290.17 0854.54
2009/04/23 14:02:40.0      34   -496     96    498    508 176.0  11.0  34198  290.22 0854.54
2009/04/23 14:02:40.1      -9   -511    146    512    533 181.1  15.9  34206  290.35 0854.54
2009/04/23 14:02:40.2     -35   -537     85    539    546 183.8   9.0  34204  290.33 0854.54
2009/04/23 14:02:40.3       9   -609     18    610    611 179.1   1.7  34210  290.42 0854.54
2009/04/23 14:02:40.4     -67   -641     39    645    647 186.0   3.5  34202  290.30 0854.54
2009/04/23 14:02:40.5      34   -605     51    606    609 176.8   4.9  34194  290.14 0854.54
2009/04/23 14:02:40.6     -29   -543     99    544    553 183.1  10.4  34192  290.13 0854.54
2009/04/23 14:02:40.7     -48   -616     45    619    621 184.5   4.2  34208  290.37 0854.54
2009/04/23 14:02:40.8     -55   -537    -59    540    544 185.9  -6.3  34210  290.43 0854.54
2009/04/23 14:02:40.9    -113   -605    -44    616    618 190.6  -4.1  34206  290.35 0854.54
2009/04/23 14:02:41.1    -171   -667   -127    689    701 194.4 -10.5  34222  290.61 0854.54
2009/04/23 14:02:41.2    -111   -657    -62    667    671 189.6  -5.3  34188  290.05 0854.54
2009/04/23 14:02:41.3     125   -514   -167    529    555 166.3 -17.6  34182  289.96 0854.55
2009/04/23 14:02:41.4      44   -564    -22    566    567 175.5  -2.2  34180  289.92 0854.55
2009/04/23 14:02:41.5      -7   -530     52    531    534 180.8   5.7  34192  290.11 0854.55
2009/04/23 14:02:41.6      58   -533     75    537    543 173.8   8.0  34190  290.09 0854.55
2009/04/23 14:02:41.7      40   -520    178    522    552 175.5  18.9  34198  290.23 0854.55
2009/04/23 14:02:41.8      -1   -465    183    466    500 180.2  22.7  34194  290.15 0854.55
2009/04/23 14:02:41.9     -59   -343    -41    349    352 189.8  -6.7  34184  289.98 0854.55
2009/04/23 14:02:42.0    -149   -518    -11    540    541 196.1  -1.3  34190  290.09 0854.55
2009/04/23 14:02:42.1    -127   -394    -42    415    418 197.9  -5.9  34188  290.04 0854.55
2009/04/23 14:02:42.2    -150   -495    -59    518    522 196.9  -6.6  34196  290.18 0854.55
2009/04/23 14:02:42.3    -179   -515    100    546    556 199.2  10.4  34184  289.99 0854.55
2009/04/23 14:02:42.4    -202   -598    110    632    642 198.7   9.9  34174  289.82 0854.55
2009/04/23 14:02:42.5    -350   -547    123    650    662 212.6  10.7  34168  289.70 0854.55
2009/04/23 14:02:42.6    -437   -687    -49    815    817 212.5  -3.5  34178  289.89 0854.55
2009/04/23 14:02:42.7    -378   -696   -160    792    808 208.5 -11.5  34178  289.86 0854.55
2009/04/23 14:02:42.8    -308   -620   -149    693    710 206.4 -12.2  34178  289.88 0854.55
2009/04/23 14:02:42.9    -423   -479   -183    640    666 221.5 -16.0  34176  289.85 0854.55
2009/04/23 14:02:43.0    -422   -397   -180    580    608 226.8 -17.3  34176  289.85 0854.55
2009/04/23 14:02:43.1    -312   -398   -180    507    539 218.1 -19.6  34178  289.89 0854.55
2009/04/23 14:02:43.2    -193   -337   -235    389    454 209.9 -38.4  34182  289.94 0854.55
2009/04/23 14:02:43.3    -141   -302   -216    334    397 205.0 -40.3  34178  289.86 0854.56
2009/04/23 14:02:43.4    -176   -197   -150    265    304 221.7 -36.0  34176  289.85 0854.56
2009/04/23 14:02:43.5    -176   -202   -148    269    307 221.0 -35.7  34178  289.86 0854.56
2009/04/23 14:02:43.6    -114   -261    -87    285    299 203.6 -17.0  34174  289.81 0854.56
2009/04/23 14:02:43.7     -72   -308     16    317    318 193.3   2.9  34178  289.86 0854.56
2009/04/23 14:02:43.8     -25   -339     52    340    344 184.2   8.8  34178  289.89 0854.56
2009/04/23 14:02:43.9     190   -384     73    429    436 153.7   9.7  34172  289.78 0854.56
2009/04/23 14:02:44.0     357   -735    272    818    862 154.1  18.4  34168  289.70 0854.56
2009/04/23 14:02:44.1     368   -752    318    838    896 153.9  21.8  34178  289.88 0854.56
2009/04/23 14:02:44.2     391   -851    343    937    997 155.3  21.0  34184  289.97 0854.56
2009/04/23 14:02:44.3     186   -909    296    929    975 168.4  17.7  34182  289.96 0854.56
2009/04/23 14:02:44.4     108   -920    326    927    983 173.3  19.4  34202  290.30 0854.56
2009/04/23 14:02:44.5    -348  -1105     18   1159   1160 197.5   0.9  34172  289.79 0854.56
2009/04/23 14:02:44.6    -366   -926    -78    996   1000 201.6  -4.5  34172  289.76 0854.56
2009/04/23 14:02:44.7    -463   -850    -67    968    971 208.6  -4.0  34176  289.84 0854.56
2009/04/23 14:02:44.8    -389   -650     10    758    759 210.9   0.8  34182  289.94 0854.56
2009/04/23 14:02:44.9    -376   -564    -74    678    683 213.7  -6.3  34192  290.10 0854.56
2009/04/23 14:02:45.0    -656   -528   -263    843    883 231.2 -22.3  34170  289.74 0854.56
2009/04/23 14:02:45.1    -492   -449   -238    667    709 227.6 -19.7  34170  289.75 0854.56
2009/04/23 14:02:45.2    -367   -415   -223    555    598 221.5 -27.5  34170  289.73 0854.56
2009/04/23 14:02:45.3    -313   -413   -225    519    565 217.1 -29.5  34168  289.70 0854.55
2009/04/23 14:02:45.4    -158   -503   -177    528    558 197.5 -18.6  34188  290.06 0854.55
2009/04/23 14:02:45.5    -279   -618   -131    679    692 204.3 -11.0  34168  289.71 0854.55
2009/04/23 14:02:45.6    -344   -589   -134    683    697 210.3 -11.1  34166  289.66 0854.55
2009/04/23 14:02:45.7    -285   -628      9    690    691 204.4   0.8  34178  289.87 0854.55
2009/04/23 14:02:45.8    -104   -503    -33    514    516 191.8  -3.7  34174  289.81 0854.55
2009/04/23 14:02:45.9    -139   -582    -80    599    605 193.5  -7.7  34178  289.86 0854.55
2009/04/23 14:02:46.0    -165   -614    -97    636    644 195.1  -8.7  34182  289.94 0854.55
2009/04/23 14:02:46.1    -233   -634   -239    676    718 200.2 -19.5  34172  289.79 0854.55
2009/04/23 14:02:46.2    -153   -515   -180    538    567 196.6 -23.5  34182  289.94 0854.55
2009/04/23 14:02:46.3       0   -461   -124    462    479 179.9 -15.0  34198  290.23 0854.55
2009/04/23 14:02:46.4       7   -451     -2    452    453 179.0  -0.3  34198  290.22 0854.55
2009/04/23 14:02:46.5      89   -435   -109    445    459 168.4 -13.8  34196  290.19 0854.55
2009/04/23 14:02:46.6    -124   -300   -105    325    341 202.5 -23.3  34196  290.18 0854.55
2009/04/23 14:02:46.7     -25   -331   -107    332    349 184.4 -17.9  34198  290.21 0854.55
2009/04/23 14:02:46.8     -11   -414   -117    415    431 181.6 -20.4  34188  290.05 0854.55
2009/04/23 14:02:46.9     -91   -453    -55    463    467 191.4  -6.9  34182  289.96 0854.55
2009/04/23 14:02:47.0     -73   -447    -38    454    456 189.3  -4.9  34190  290.07 0854.55
2009/04/23 14:02:47.1     -97   -471     36    482    484 191.7   4.4  34204  290.32 0854.55
2009/04/23 14:02:47.2    -135   -531     40    548    550 194.3   4.2  34208  290.38 0854.55
2009/04/23 14:02:47.3     -88   -503     57    511    515 190.0   6.4  34208  290.39 0854.53
2009/04/23 14:02:47.4      45   -492    190    495    530 174.7  22.1  34178  289.89 0854.53
2009/04/23 14:02:47.5      20   -479    103    480    491 177.5  12.1  34178  289.89 0854.53
2009/04/23 14:02:47.6      59   -497    151    501    524 173.1  16.8  34178  289.88 0854.53
2009/04/23 14:02:47.7     125   -328    123    352    372 159.1  20.0  34172  289.77 0854.53
2009/04/23 14:02:47.8       7   -226    209    227    308 178.0  47.9  34186  290.02 0854.53
2009/04/23 14:02:47.9       1   -147    266    148    304 179.5  68.8  34206  290.34 0854.53
2009/04/23 14:02:48.0      -8   -109    249    110    272 184.5  74.9  34198  290.23 0854.53
2009/04/23 14:02:48.1       0   -255    293    256    389 180.0  54.4  34182  289.96 0854.53
2009/04/23 14:02:48.2      -1   -406    358    407    542 180.2  45.8  34182  289.93 0854.53
2009/04/23 14:02:48.3    -100   -649    235    657    698 188.8  19.7  34176  289.83 0854.53
2009/04/23 14:02:48.4     -38   -730    115    731    741 183.0   9.0  34180  289.90 0854.53
2009/04/23 14:02:48.5      86   -733    214    739    770 173.3  16.1  34180  289.90 0854.53
2009/04/23 14:02:48.6     356   -700      5    786    787 153.0   0.4  34180  289.91 0854.53
2009/04/23 14:02:48.7     148   -596     29    615    616 166.0   2.8  34174  289.82 0854.53
2009/04/23 14:02:48.8      -8   -492    101    493    504 181.0  11.7  34184  289.98 0854.53
2009/04/23 14:02:48.9     -42   -386    -42    389    392 186.2  -6.3  34180  289.91 0854.53
2009/04/23 14:02:49.0      42   -379    -34    382    384 173.7  -5.2  34182  289.93 0854.53
2009/04/23 14:02:49.1     135   -286     61    317    323 154.6  11.0  34186  290.02 0854.53
2009/04/23 14:02:49.2      44   -258    118    262    287 170.2  25.9  34180  289.90 0854.53
2009/04/23 14:02:49.3      -5   -222    178    223    285 181.4  42.8  34186  290.02 0854.49
2009/04/23 14:02:49.4      76   -251    181    263    319 163.1  37.8  34192  290.10 0854.49
2009/04/23 14:02:49.5     -29   -270    181    272    326 186.2  36.7  34190  290.07 0854.49
2009/04/23 14:02:49.6      67   -330    164    337    374 168.4  27.8  34186  290.01 0854.49
2009/04/23 14:02:49.7      38   -307     87    310    323 172.9  15.7  34190  290.09 0854.49
2009/04/23 14:02:49.8      23   -297     87    298    311 175.5  16.3  34192  290.10 0854.49
2009/04/23 14:02:49.9      47   -281      2    286    287 170.4   0.5  34192  290.12 0854.49
2009/04/23 14:02:50.0     183   -140     99    231    251 127.3  24.6  34184  289.98 0854.49
2009/04/23 14:02:50.1     154   -107    152    188    241 124.9  43.3  34188  290.06 0854.49
2009/04/23 14:02:50.2     145   -122     69    190    202 130.2  20.9  34188  290.06 0854.49
2009/04/23 14:02:50.3     207    -49     84    213    228 103.5  22.8  34190  290.08 0854.49
2009/04/23 14:02:50.4     181     96     70    206    218  62.0  18.9  34190  290.09 0854.49
2009/04/23 14:02:50.5      47     93     34    105    111  26.7  17.9  34186  290.02 0854.49
2009/04/23 14:02:50.6     -38    113      6    120    121 341.5   2.9  34198  290.23 0854.49
2009/04/23 14:02:50.7     -63     99      2    118    119 327.5   1.2  34206  290.35 0854.49
2009/04/23 14:02:50.8      51     62     16     81     83  39.6  11.6  34220  290.60 0854.49
2009/04/23 14:02:50.9     218     49    113    224    250  77.2  28.5  34272  291.46 0854.49
2009/04/23 14:02:51.0     313    160    252    352    432  62.9  39.2  34296  291.89 0854.49
2009/04/23 14:02:51.1     210    117    286    241    374  60.7  55.8  34278  291.56 0854.49
2009/04/23 14:02:51.2      67     97    325    119    346  34.7  79.2  34276  291.55 0854.49
2009/04/23 14:02:51.3    -206    113    243    235    338 298.8  51.1  34270  291.44 0854.50
2009/04/23 14:02:51.4    -366      0    188    367    412 270.0  29.2  34238  290.89 0854.50
2009/04/23 14:02:51.5    -318    -24    145    319    350 265.7  26.3  34242  290.98 0854.50
2009/04/23 14:02:51.6    -171     21    188    173    255 277.0  52.7  34272  291.49 0854.50
2009/04/23 14:02:51.7     -93   -147    207    175    271 212.5  55.6  34276  291.53 0854.50
2009/04/23 14:02:51.8     -47     14    210     50    215 286.8  86.9  34248  291.08 0854.50
2009/04/23 14:02:51.9     328     82    377    339    507  75.8  53.5  34234  290.84 0854.50
2009/04/23 14:02:52.0     -24      0    329     25    329 270.0  90.0  34272  291.48 0854.50
2009/04/23 14:02:52.1      44    -12    412     46    414 105.9  90.0  34268  291.42 0854.50
2009/04/23 14:02:52.2    -148   -267    350    306    464 209.0  54.3  34276  291.53 0854.50
2009/04/23 14:02:52.3     209     63    470    219    518  73.2  73.4  34240  290.94 0854.50
2009/04/23 14:02:52.4     327     70    482    335    586  77.8  62.0  34238  290.88 0854.50
2009/04/23 14:02:52.5     447    149    459    472    658  71.6  49.2  34228  290.73 0854.50
2009/04/23 14:02:52.6     307    123    359    332    488  68.1  52.6  34232  290.78 0854.50
2009/04/23 14:02:52.7     277    147    263    314    409  62.0  44.2  34232  290.81 0854.50
2009/04/23 14:02:52.8     220     -9    250    221    333  92.4  54.2  34232  290.78 0854.50
2009/04/23 14:02:52.9     269    132    235    300    381  63.8  42.1  34242  290.98 0854.50
2009/04/23 14:02:53.0     201     24    309    203    369  83.2  63.9  34256  291.19 0854.50
2009/04/23 14:02:53.1     270    -42    294    274    401  99.0  52.2  34246  291.03 0854.50
2009/04/23 14:02:53.2     299     74    197    308    365  76.1  35.6  34258  291.22 0854.50
2009/04/23 14:02:53.3     334     64    121    341    361  79.2  20.2  34252  291.13 0854.50
2009/04/23 14:02:53.4     126     80    171    150    227  57.6  54.3  34248  291.06 0854.50
2009/04/23 14:02:53.5     -93     18    142     95    170 281.5  63.4  34262  291.30 0854.50
2009/04/23 14:02:53.6    -243    -32    109    246    269 262.3  25.7  34254  291.16 0854.50
2009/04/23 14:02:53.7    -170   -170     92    241    257 224.9  22.0  34246  291.02 0854.50
2009/04/23 14:02:53.8    -233    -95    189    252    315 247.8  40.7  34256  291.21 0854.50
2009/04/23 14:02:53.9    -146    -48    117    154    193 251.8  40.9  34256  291.20 0854.50
2009/04/23 14:02:54.0      88     36    101     96    139  67.4  51.6  34256  291.20 0854.50
2009/04/23 14:02:54.1     141     66    162    156    224  64.8  51.2  34250  291.11 0854.50
2009/04/23 14:02:54.2     103    124    195    162    253  39.6  56.3  34236  290.87 0854.50
2009/04/23 14:02:54.3     102    109    174    150    229  43.2  55.0  34242  290.98 0854.50
2009/04/23 14:02:54.4       3    107    109    108    153   1.8  50.1  34244  291.01 0854.50
2009/04/23 14:02:54.5     -82      5    105     83    133 273.5  57.5  34248  291.08 0854.50
2009/04/23 14:02:54.6     -45     54    193     71    205 320.4  79.2  34260  291.28 0854.50
2009/04/23 14:02:54.7     -89    -23    206     92    225 255.4  74.2  34272  291.49 0854.50
2009/04/23 14:02:54.8     -38     83    206     92    225 335.5  74.2  34266  291.37 0854.50
2009/04/23 14:02:54.9      34    105    169    111    202  18.3  63.9  34252  291.15 0854.50
2009/04/23 14:02:55.0     -45     81    170     93    193 331.0  68.9  34254  291.16 0854.50
2009/04/23 14:02:55.1    -108     36    170    114    204 288.4  63.2  34250  291.11 0854.50
2009/04/23 14:02:55.2    -249    -57    240    256    350 257.0  48.0  34262  291.29 0854.50
2009/04/23 14:02:55.3     -48     71    218     86    234 325.7  77.4  34252  291.13 0854.48
2009/04/23 14:02:55.4    -227    -81    176    242    299 250.3  39.7  34246  291.02 0854.48
2009/04/23 14:02:55.5    -350     49    219    354    416 278.0  34.6  34228  290.72 0854.48
2009/04/23 14:02:55.6    -180    -48    151    187    240 255.0  43.0  34240  290.94 0854.48
2009/04/23 14:02:55.7    -164   -132    158    211    263 231.1  40.6  34242  290.95 0854.48
2009/04/23 14:02:55.8    -550    -30     66    551    556 266.9   6.9  34224  290.67 0854.48
2009/04/23 14:02:55.9    -553      0    156    554    576 270.0  15.8  34220  290.60 0854.48
2009/04/23 14:02:56.0    -430    123    221    448    499 286.0  28.2  34208  290.39 0854.48
2009/04/23 14:02:56.1    -358    168    222    396    453 295.2  31.6  34236  290.87 0854.48
2009/04/23 14:02:56.2    -404    156    204    434    479 291.2  27.1  34238  290.90 0854.48
2009/04/23 14:02:56.3    -166    200    125    261    289 320.4  27.3  34244  290.99 0854.48
2009/04/23 14:02:56.4     -88    106     58    138    149 320.3  24.1  34242  290.98 0854.48
2009/04/23 14:02:56.5    -133    241    158    276    318 331.0  32.4  34248  291.05 0854.48
2009/04/23 14:02:56.6    -372     12    102    373    387 271.9  15.3  34244  291.01 0854.48
2009/04/23 14:02:56.7    -295    -84     71    307    316 254.1  13.1  34230  290.75 0854.48
2009/04/23 14:02:56.8     -99     -7     94    100    137 265.6  48.0  34226  290.69 0854.48
2009/04/23 14:02:56.9     -40    -19     65     45     79 244.7  62.1  34242  290.98 0854.48
2009/04/23 14:02:57.0      -1     62     24     63     67 358.2  21.0  34246  291.04 0854.48
2009/04/23 14:02:57.1      12     24    -32     27     41  27.2 -59.8  34246  291.04 0854.48
2009/04/23 14:02:57.2      13     44     16     47     50  16.9  19.2  34248  291.06 0854.48
2009/04/23 14:02:57.3       7    -38     29     39     48 168.4  40.7  34242  290.98 0854.49
2009/04/23 14:02:57.4     -13    -21      5     25     26 212.5  13.2  34254  291.16 0854.49
2009/04/23 14:02:57.5     -51    -51     24     73     77 225.0  18.4  34260  291.26 0854.49
2009/04/23 14:02:57.6    -234    -24     27    236    238 263.9   6.7  34258  291.22 0854.49
2009/04/23 14:02:57.7    -315     -9     10    316    317 268.3   1.9  34256  291.21 0854.49
2009/04/23 14:02:57.8    -379    102     55    393    397 285.1   8.0  34250  291.11 0854.49
2009/04/23 14:02:57.9    -279     77     57    290    296 285.5  11.1  34260  291.26 0854.49
2009/04/23 14:02:58.0    -271     43    -65    275    283 279.0 -13.4  34266  291.36 0854.49
2009/04/23 14:02:58.1    -438     19    -21    439    440 272.5  -2.8  34240  290.94 0854.49
2009/04/23 14:02:58.2    -536     88   -167    544    569 279.3 -21.8  34208  290.40 0854.49
2009/04/23 14:02:58.3    -505      2   -212    506    548 270.3 -28.6  34190  290.09 0854.49
2009/04/23 14:02:58.4    -585     62   -195    589    620 276.1 -23.8  34206  290.36 0854.49
2009/04/23 14:02:58.5    -446     86   -156    455    482 281.0 -19.0  34202  290.27 0854.49
2009/04/23 14:02:58.6    -458     -6   -258    459    526 269.2 -36.3  34208  290.37 0854.49
2009/04/23 14:02:58.7    -359    -23   -300    360    468 266.3 -48.6  34224  290.65 0854.49
2009/04/23 14:02:58.8    -389     58   -222    394    452 278.6 -36.3  34228  290.72 0854.49
2009/04/23 14:02:58.9    -373     17     11    374    375 272.7   1.7  34262  291.32 0854.49
2009/04/23 14:02:59.0    -417    -37    -23    419    420 264.9  -3.2  34238  290.90 0854.49
2009/04/23 14:02:59.1    -437    103    -17    449    450 283.3  -2.3  34260  291.26 0854.49
2009/04/23 14:02:59.2    -373     28    -92    374    386 274.4 -13.9  34238  290.89 0854.49
2009/04/23 14:02:59.3    -306    177   -101    354    369 300.0 -16.0  34248  291.08 0854.49
2009/04/23 14:02:59.4    -283      0    -36    284    287 270.0  -7.3  34270  291.44 0854.49
2009/04/23 14:02:59.5    -411    153    -64    439    444 290.5  -8.4  34262  291.31 0854.49
2009/04/23 14:02:59.6    -452    121   -119    468    484 285.1 -14.3  34288  291.75 0854.49
2009/04/23 14:02:59.7    -488    112   -134    501    519 283.0 -15.0  34278  291.59 0854.49
2009/04/23 14:02:59.8    -446     63   -112    451    465 278.1 -14.0  34262  291.29 0854.49
2009/04/23 14:02:59.9    -537     99   -165    547    572 280.5 -16.8  34230  290.75 0854.49
2009/04/23 14:03:00.0    -468     86   -151    476    500 280.5 -17.7  34242  290.95 0854.49
2009/04/23 14:03:00.1    -352     46   -140    355    381 277.5 -27.3  34222  290.64 0854.49
2009/04/23 14:03:00.2    -256    177   -187    312    363 304.6 -38.1  34248  291.08 0854.49
2009/04/23 14:03:00.3    -176    170   -188    245    308 314.0 -46.0  34248  291.07 0854.51
2009/04/23 14:03:00.4    -173    152   -117    231    258 311.4 -33.5  34238  290.90 0854.51
2009/04/23 14:03:00.5    -176    136   -141    223    263 307.8 -39.9  34242  290.95 0854.51
2009/04/23 14:03:00.6    -231    167     30    286    288 306.0   6.1  34264  291.34 0854.51
2009/04/23 14:03:00.7    -340    161     -7    377    378 295.4  -1.2  34238  290.89 0854.51
2009/04/23 14:03:00.8    -266    342     -8    434    435 322.2  -1.1  34244  290.99 0854.51
2009/04/23 14:03:00.9    -364    234    -49    433    436 302.8  -6.5  34226  290.68 0854.51
2009/04/23 14:03:01.0    -427    130   -126    447    464 286.9 -20.4  34214  290.50 0854.51
2009/04/23 14:03:01.1    -431     58    -74    435    442 277.7  -9.7  34238  290.89 0854.51
2009/04/23 14:03:01.2    -293    143    -78    327    337 296.1 -13.4  34204  290.32 0854.51
2009/04/23 14:03:01.3    -300    180   -116    351    370 301.0 -18.3  34206  290.35 0854.51
2009/04/23 14:03:01.4    -291    197   -125    352    374 304.2 -19.7  34208  290.40 0854.51
2009/04/23 14:03:01.5    -198    143   -118    245    271 306.0 -31.7  34188  290.05 0854.51
2009/04/23 14:03:01.6    -246    115   -105    272    291 295.1 -26.4  34188  290.05 0854.51
2009/04/23 14:03:01.7    -223    126   -127    257    286 299.5 -32.6  34194  290.15 0854.51
2009/04/23 14:03:01.8    -254     87   -234    269    356 289.0 -50.0  34204  290.33 0854.51
2009/04/23 14:03:01.9    -103    337    -99    353    366 343.0 -20.3  34252  291.15 0854.51
2009/04/23 14:03:02.0    -234    410   -159    473    499 330.2 -23.5  34258  291.25 0854.51
2009/04/23 14:03:02.1    -235    358    -59    429    434 326.6  -7.9  34262  291.29 0854.51
2009/04/23 14:03:02.2    -279    296     12    407    408 316.7   1.7  34252  291.14 0854.51
2009/04/23 14:03:02.3    -129    279    -39    308    311 335.1  -7.3  34258  291.22 0854.53
2009/04/23 14:03:02.4     -51    272     -7    277    278 349.3  -1.6  34254  291.17 0854.53
2009/04/23 14:03:02.5    -106    230      9    254    255 335.3   2.1  34252  291.12 0854.53
2009/04/23 14:03:02.6    -124    215     -9    249    250 330.1  -2.2  34250  291.10 0854.53
2009/04/23 14:03:02.7     -79    170     -2    188    189 335.1  -0.7  34246  291.03 0854.53
2009/04/23 14:03:02.8      -9    222     27    223    225 357.5   7.1  34254  291.16 0854.53
2009/04/23 14:03:02.9    -127    249     97    280    297 332.9  19.2  34252  291.12 0854.53
2009/04/23 14:03:03.0    -187    182    151    261    301 314.2  32.9  34266  291.38 0854.53
2009/04/23 14:03:03.1     -23    200    -23    202    204 353.3  -6.7  34254  291.18 0854.53
2009/04/23 14:03:03.2     -38    191     59    195    204 348.7  17.1  34256  291.20 0854.53
2009/04/23 14:03:03.3    -108    321     26    339    341 341.3   4.5  34252  291.13 0854.53
2009/04/23 14:03:03.4    -110    312     13    331    332 340.5   2.3  34264  291.34 0854.53
2009/04/23 14:03:03.5    -139    260     -1    295    296 331.9  -0.3  34262  291.29 0854.53
2009/04/23 14:03:03.6     -99    248     84    268    281 338.2  17.4  34270  291.44 0854.53
2009/04/23 14:03:03.7     -32    261     82    264    277 352.9  17.4  34270  291.43 0854.53
2009/04/23 14:03:03.8    -114    220     67    248    257 332.6  15.2  34288  291.75 0854.53
2009/04/23 14:03:03.9     -98    207     32    230    233 334.5   8.0  34318  292.27 0854.53
2009/04/23 14:03:04.0    -153    163     11    224    225 316.8   2.9  34296  291.89 0854.53
2009/04/23 14:03:04.1     -92    169    -45    193    199 331.5 -13.2  34278  291.57 0854.53
2009/04/23 14:03:04.2    -129    129    -57    183    192 315.1 -17.3  34278  291.57 0854.53
2009/04/23 14:03:04.3    -119    118     -3    168    169 314.8  -1.3  34270  291.43 0854.55
2009/04/23 14:03:04.4    -139     99      5    171    172 305.5   1.8  34256  291.21 0854.55
2009/04/23 14:03:04.5    -121    108     76    163    179 311.8  27.0  34256  291.20 0854.55
2009/04/23 14:03:04.6    -168     63    126    180    219 290.8  38.6  34260  291.26 0854.55
2009/04/23 14:03:04.7    -118    104     47    158    165 311.3  16.6  34264  291.35 0854.55
2009/04/23 14:03:04.8    -124      7     78    125    147 273.5  35.5  34268  291.42 0854.55
2009/04/23 14:03:04.9    -107      0     50    108    119 269.6  27.1  34266  291.38 0854.55
2009/04/23 14:03:05.0     -65     48     51     81     95 306.4  35.5  34264  291.33 0854.55
2009/04/23 14:03:05.1     -77      5     30     78     83 274.4  21.5  34262  291.32 0854.55
2009/04/23 14:03:05.2     -25     25     56     36     66 315.0  64.6  34268  291.42 0854.55
2009/04/23 14:03:05.3     -27     22     41     36     54 309.5  53.3  34268  291.40 0854.55
2009/04/23 14:03:05.4     -15     16     18     22     28 316.8  45.8  34260  291.28 0854.55
2009/04/23 14:03:05.5      71     53     -8     89     90  53.1  -5.6  34260  291.26 0854.55
2009/04/23 14:03:05.6      33    -15    -36     37     51 115.2 -54.4  34264  291.35 0854.55
2009/04/23 14:03:05.7      52    -61    -22     81     85 139.5 -15.5  34266  291.38 0854.55
2009/04/23 14:03:05.8       9   -124      1    125    126 175.5   0.8  34272  291.49 0854.55
2009/04/23 14:03:05.9      21   -151     54    153    163 172.0  19.6  34278  291.57 0854.55
2009/04/23 14:03:06.0      14   -104     87    106    137 171.9  43.7  34288  291.74 0854.55
2009/04/23 14:03:06.1     -34   -132     55    137    147 194.7  23.0  34290  291.77 0854.55
2009/04/23 14:03:06.2     -92   -190    137    212    252 205.9  35.6  34290  291.77 0854.55
2009/04/23 14:03:06.3    -111   -212     84    240    255 207.6  19.4  34312  292.14 0854.55
2009/04/23 14:03:06.4     -75   -194      0    209    210 201.2   0.2  34290  291.77 0854.55
2009/04/23 14:03:06.5    -128   -172    -24    215    217 216.7  -6.5  34274  291.50 0854.55
2009/04/23 14:03:06.6    -130   -124    -36    180    184 226.4 -11.3  34272  291.49 0854.55
2009/04/23 14:03:06.7    -142   -121    -69    187    199 229.6 -25.4  34308  292.10 0854.55
2009/04/23 14:03:06.8    -164    -49   -131    172    216 253.2 -45.8  34306  292.05 0854.55
2009/04/23 14:03:06.9     -93    -87   -108    128    167 226.9 -48.9  34270  291.45 0854.55
2009/04/23 14:03:07.0    -116   -182   -158    216    267 212.5 -44.1  34282  291.63 0854.55
2009/04/23 14:03:07.1    -163   -143    -81    217    231 228.7 -25.7  34274  291.52 0854.55
2009/04/23 14:03:07.2    -176   -113     85    210    226 237.1  23.1  34324  292.37 0854.55
2009/04/23 14:03:07.3    -106   -174      8    204    205 211.4   2.5  34300  291.96 0854.55
2009/04/23 14:03:07.4     -91   -159     44    184    190 209.9  13.5  34320  292.30 0854.55
2009/04/23 14:03:07.5    -124   -139     45    187    193 221.7  13.5  34300  291.96 0854.55
2009/04/23 14:03:07.6    -162    -40     90    167    189 256.1  30.8  34314  292.18 0854.55
2009/04/23 14:03:07.8     -77    -93    100    122    157 219.6  43.7  34286  291.72 0854.55
2009/04/23 14:03:07.8     -40    -71     72     82    109 209.9  46.4  34284  291.67 0854.55
2009/04/23 14:03:08.0     -28    -94    102     99    142 196.5  50.7  34276  291.54 0854.55
2009/04/23 14:03:08.0    -133   -139     67    193    205 223.7  19.2  34292  291.83 0854.55
2009/04/23 14:03:08.2    -143   -185     90    234    250 217.8  22.0  34332  292.48 0854.55
2009/04/23 14:03:08.3    -194   -120    105    229    251 238.2  26.2  34336  292.55 0854.55
2009/04/23 14:03:08.4    -260     19     51    261    267 274.3  11.1  34320  292.28 0854.56
2009/04/23 14:03:08.5    -313     33     19    315    316 276.1   3.5  34298  291.92 0854.56
2009/04/23 14:03:08.6    -209     16    -46    210    216 274.4 -12.4  34204  290.31 0854.56
2009/04/23 14:03:08.7    -217   -121    -91    249    265 240.9 -25.4  34228  290.73 0854.56
2009/04/23 14:03:08.8    -233    -30   -139    235    273 262.5 -37.9  34218  290.54 0854.56
2009/04/23 14:03:08.9    -207     33   -128    210    245 279.2 -38.8  34178  289.88 0854.56
2009/04/23 14:03:09.0    -247      7   -224    248    334 271.7 -51.2  34182  289.95 0854.56
2009/04/23 14:03:09.1    -176    -45   -142    182    230 255.4 -46.4  34194  290.16 0854.56
2009/04/23 14:03:09.2    -122   -101   -113    159    195 230.5 -43.5  34190  290.08 0854.56
2009/04/23 14:03:09.3    -223    -10   -105    224    247 267.2 -31.4  34190  290.09 0854.56
2009/04/23 14:03:09.4     -94    -29   -132     99    165 252.7 -63.8  34196  290.18 0854.56
2009/04/23 14:03:09.5       7    -58   -103     59    118 172.9 -72.1  34202  290.28 0854.56
2009/04/23 14:03:09.6      13   -174    -68    175    187 175.6 -26.7  34192  290.11 0854.56
2009/04/23 14:03:09.7     -41   -134    -53    141    150 197.0 -25.9  34192  290.13 0854.56
2009/04/23 14:03:09.8     -32    -95    -44    101    110 198.7 -29.5  34192  290.11 0854.56
2009/04/23 14:03:09.9     -25    -76    -37     81     89 198.7 -30.6  34190  290.08 0854.56
2009/04/23 14:03:10.0     -84    -61    -75    105    129 234.0 -43.9  34200  290.26 0854.56
2009/04/23 14:03:10.1     -42    -96    -81    105    132 203.6 -46.1  34198  290.21 0854.56
2009/04/23 14:03:10.2       0   -180    -92    181    203 180.0 -33.6  34188  290.04 0854.56
2009/04/23 14:03:10.3      85   -341    -72    352    360 165.9 -11.6  34190  290.08 0854.56
2009/04/23 14:03:10.4     121   -360    -54    380    384 161.4  -8.2  34192  290.10 0854.56
2009/04/23 14:03:10.5     107   -376   -116    391    408 164.1 -16.5  34186  290.02 0854.56
2009/04/23 14:03:10.6      80   -468   -198    475    514 170.3 -28.5  34186  290.00 0854.56
2009/04/23 14:03:10.7      20   -380   -130    381    402 177.0 -23.8  34196  290.18 0854.56
2009/04/23 14:03:10.8     133   -298   -103    327    343 155.9 -17.5  34206  290.35 0854.56
2009/04/23 14:03:10.9     131   -320   -131    346    369 157.7 -25.9  34206  290.35 0854.56
2009/04/23 14:03:11.0     206   -282     17    350    351 143.9   2.9  34200  290.25 0854.56
2009/04/23 14:03:11.1     268   -193    161    331    368 125.9  27.8  34218  290.57 0854.56
2009/04/23 14:03:11.2     264   -192    137    327    354 126.0  24.2  34232  290.81 0854.56
2009/04/23 14:03:11.3     263   -237    108    355    372 132.1  17.0  34220  290.60 0854.56
2009/04/23 14:03:11.4     377    -40     73    380    388  96.1  11.0  34244  291.00 0854.56
2009/04/23 14:03:11.5     296    -61     88    303    316 101.7  16.3  34280  291.60 0854.56
2009/04/23 14:03:11.6     262    -36     31    265    267  97.9   6.7  34274  291.50 0854.56
2009/04/23 14:03:11.7     268   -121     35    295    298 114.4   6.9  34248  291.07 0854.56
2009/04/23 14:03:11.8     226    -98     60    247    255 113.5  13.7  34246  291.04 0854.56
2009/04/23 14:03:11.9     161   -107     66    194    206 123.5  18.9  34240  290.94 0854.56
2009/04/23 14:03:12.0     226   -141     33    267    270 122.0   7.1  34210  290.41 0854.56
2009/04/23 14:03:12.1     256   -146     57    295    301 119.8  11.0  34206  290.36 0854.56
2009/04/23 14:03:12.2     222    -46    163    227    279 101.9  39.5  34252  291.14 0854.56
2009/04/23 14:03:12.3     181    -32    186    184    261 100.1  50.1  34214  290.49 0854.56
2009/04/23 14:03:12.4      92   -163     88    188    207 150.6  27.1  34212  290.47 0854.56
2009/04/23 14:03:12.5      99   -195    -52    219    226 152.9 -13.4  34206  290.35 0854.56
2009/04/23 14:03:12.6     114   -269    -46    293    297 157.1  -9.0  34206  290.34 0854.56
2009/04/23 14:03:12.7     145   -308    -13    341    342 154.7  -2.2  34200  290.25 0854.56
2009/04/23 14:03:12.8     125   -287     63    314    321 156.4  11.4  34202  290.27 0854.56
2009/04/23 14:03:12.9      27   -246    105    248    269 173.7  24.2  34206  290.36 0854.56
2009/04/23 14:03:13.0      -8   -248    124    249    278 182.0  28.5  34210  290.42 0854.56
2009/04/23 14:03:13.1     -29   -212    147    215    260 188.0  37.6  34216  290.53 0854.56
2009/04/23 14:03:13.2     -39   -277    211    280    350 188.1  40.7  34222  290.62 0854.56
2009/04/23 14:03:13.3     -35   -205    155    209    260 189.8  40.4  34228  290.71 0854.56
2009/04/23 14:03:13.4     -72   -229    118    241    268 197.4  27.8  34222  290.63 0854.56
2009/04/23 14:03:13.5     -63   -246    138    255    289 194.5  30.8  34226  290.68 0854.56
2009/04/23 14:03:13.6     -87   -236    -31    252    255 200.3  -7.2  34226  290.68 0854.56
2009/04/23 14:03:13.7     -87   -260    -74    275    285 198.5 -15.2  34218  290.56 0854.56
2009/04/23 14:03:13.8     -98   -234    -76    254    266 202.8 -16.6  34214  290.49 0854.56
2009/04/23 14:03:13.9    -148   -232    -84    276    289 212.5 -17.0  34206  290.34 0854.56
2009/04/23 14:03:14.0    -105   -240    -80    263    274 203.7 -21.7  34184  289.98 0854.56
2009/04/23 14:03:14.1     -48   -282    -91    287    302 189.8 -17.6  34184  289.98 0854.56
2009/04/23 14:03:14.2     -36   -306    -65    309    316 186.7 -11.9  34186  290.00 0854.56
2009/04/23 14:03:14.3     -14   -325    -37    326    329 182.6  -6.6  34184  289.98 0854.56
2009/04/23 14:03:14.4     -10   -305    -46    306    310 182.0  -8.6  34186  290.02 0854.57
2009/04/23 14:03:14.5      44   -334    -82    337    347 172.4 -13.8  34192  290.10 0854.57
2009/04/23 14:03:14.6      25   -328    -21    330    331 175.5  -3.7  34192  290.10 0854.57
2009/04/23 14:03:14.7      -9   -359     28    360    362 181.5   4.6  34188  290.06 0854.57
2009/04/23 14:03:14.8     -50   -325     43    329    332 188.8   7.6  34184  289.98 0854.57
2009/04/23 14:03:14.9     -31   -348    -59    350    355 185.2  -9.6  34188  290.03 0854.57
2009/04/23 14:03:15.0     -29   -356    -72    358    366 184.8 -11.5  34188  290.03 0854.57
2009/04/23 14:03:15.1     -11   -362    -67    363    370 181.8 -10.5  34188  290.04 0854.57
2009/04/23 14:03:15.2     -11   -372   -103    373    388 181.8 -15.5  34188  290.06 0854.57
2009/04/23 14:03:15.3     -33   -356    -86    358    369 185.3 -13.6  34184  289.98 0854.57
2009/04/23 14:03:15.4     -29   -380    -79    382    391 184.5 -11.8  34182  289.96 0854.57
2009/04/23 14:03:15.5     -30   -390    -97    392    404 184.5 -13.9  34182  289.93 0854.57
2009/04/23 14:03:15.6     -22   -351    -99    352    366 183.6 -15.8  34184  289.98 0854.57
2009/04/23 14:03:15.7       7   -324   -103    325    340 178.6 -22.8  34182  289.93 0854.57
2009/04/23 14:03:15.8     -10   -304   -107    305    323 182.0 -24.5  34182  289.95 0854.57
2009/04/23 14:03:15.9     -36   -294   -117    297    319 187.1 -26.9  34182  289.95 0854.57
2009/04/23 14:03:16.0     -62   -300   -115    307    327 191.8 -25.9  34180  289.92 0854.57
2009/04/23 14:03:16.1     -96   -276    -89    293    306 199.2 -21.8  34186  290.00 0854.57
2009/04/23 14:03:16.2     -92   -253    -75    270    280 200.0 -20.2  34182  289.95 0854.57
2009/04/23 14:03:16.3     -54   -249    -89    255    270 192.4 -24.3  34178  289.86 0854.57
2009/04/23 14:03:16.4     -47   -234    -76    239    250 191.6 -22.9  34180  289.90 0854.58
2009/04/23 14:03:16.5     -13   -242    -56    243    250 183.1 -13.2  34186  290.00 0854.58
2009/04/23 14:03:16.6      -6   -248    -46    249    254 181.6 -10.5  34190  290.09 0854.58
2009/04/23 14:03:16.7       0   -248    -61    249    257 180.0 -13.9  34186  290.00 0854.58
2009/04/23 14:03:16.8      -4   -264    -83    265    278 180.9 -17.6  34188  290.03 0854.58
2009/04/23 14:03:16.9      -5   -288    -77    289    300 181.0 -15.0  34180  289.90 0854.58
2009/04/23 14:03:17.0      12   -265    -72    266    276 177.3 -15.2  34184  289.97 0854.58
2009/04/23 14:03:17.1      31   -286    -52    288    293 173.8 -10.4  34182  289.93 0854.58
2009/04/23 14:03:17.2      33   -304    -27    306    308 173.8  -5.2  34188  290.03 0854.58
2009/04/23 14:03:17.3      57   -305   -102    311    328 169.3 -18.2  34182  289.93 0854.58
2009/04/23 14:03:17.4      58   -287    -88    293    307 168.5 -16.8  34184  289.97 0854.58
2009/04/23 14:03:17.5      70   -301    -71    310    319 166.9 -12.9  34182  289.93 0854.58
2009/04/23 14:03:17.6      63   -308    -63    315    322 168.4 -11.3  34184  289.97 0854.58
2009/04/23 14:03:17.7      48   -312    -66    316    323 171.1 -11.9  34182  289.93 0854.58
2009/04/23 14:03:17.8      24   -318    -32    319    321 175.6  -5.9  34182  289.95 0854.58
2009/04/23 14:03:17.9      13   -330    -29    331    333 177.7  -5.1  34186  290.01 0854.58
2009/04/23 14:03:18.0      24   -318    -32    319    321 175.6  -5.9  34182  289.95 0854.58
2009/04/23 14:03:18.1      29   -313    -54    315    320 174.7  -9.8  34182  289.93 0854.58
2009/04/23 14:03:18.2      36   -285    -47    288    292 172.8  -9.3  34178  289.88 0854.58
2009/04/23 14:03:18.3      24   -292    -34    294    297 175.1  -6.7  34178  289.88 0854.58
2009/04/23 14:03:18.4       9   -304    -44    305    309 178.2  -8.2  34180  289.90 0854.56
2009/04/23 14:03:18.5      14   -310    -26    311    313 177.4  -4.8  34190  290.07 0854.56
2009/04/23 14:03:18.6      -6   -316    -52    317    322 181.2  -9.3  34180  289.90 0854.56
2009/04/23 14:03:18.7      23   -294   -101    295    312 175.5 -19.0  34176  289.85 0854.56
2009/04/23 14:03:18.8      41   -293    -91    297    310 171.9 -22.1  34180  289.90 0854.56
2009/04/23 14:03:18.9      43   -339    -85    342    353 172.7 -14.1  34182  289.94 0854.56
2009/04/23 14:03:19.0      27   -356    -59    357    362 175.6  -9.4  34182  289.96 0854.56
2009/04/23 14:03:19.1     -13   -370    -40    371    374 182.1  -6.2  34186  290.01 0854.56
2009/04/23 14:03:19.2     -26   -356    -31    357    359 184.3  -5.1  34184  289.98 0854.56
2009/04/23 14:03:19.3     -11   -351    -70    352    360 181.9 -11.3  34178  289.89 0854.56
2009/04/23 14:03:19.4      -1   -349    -83    350    360 180.2 -13.4  34178  289.86 0854.56
2009/04/23 14:03:19.5      16   -363    -85    364    374 177.4 -13.2  34180  289.91 0854.56
2009/04/23 14:03:19.6       6   -389    -42    390    393 179.0  -6.2  34192  290.10 0854.56
2009/04/23 14:03:19.7      -3   -395    -61    396    401 180.5  -8.8  34188  290.03 0854.56
2009/04/23 14:03:19.8      10   -399    -60    400    405 178.5  -8.6  34186  290.00 0854.56
2009/04/23 14:03:19.9      18   -396    -62    397    402 177.4  -8.9  34184  289.99 0854.56
2009/04/23 14:03:20.0      33   -371    -61    373    379 174.9  -9.3  34186  290.01 0854.56
2009/04/23 14:03:20.1      66   -407    -66    413    419 170.7  -9.1  34184  289.99 0854.56
2009/04/23 14:03:20.2      55   -393    -37    397    399 172.0  -5.4  34182  289.94 0854.56
2009/04/23 14:03:20.3      47   -379    -14    382    383 172.9  -2.1  34182  289.93 0854.56
2009/04/23 14:03:20.4      14   -373    -43    374    377 177.8  -6.7  34182  289.93 0854.52
2009/04/23 14:03:20.5       3   -392    -34    393    395 179.5  -5.1  34188  290.04 0854.52
2009/04/23 14:03:20.6      33   -422    -33    424    426 175.5  -4.5  34194  290.16 0854.52
2009/04/23 14:03:20.7      33   -412    -16    414    415 175.4  -2.2  34198  290.21 0854.52
2009/04/23 14:03:20.8     -56   -398   -102    403    416 188.1 -14.3  34184  289.99 0854.52
2009/04/23 14:03:20.9     -92   -383   -141    394    419 193.6 -19.7  34184  289.97 0854.52
2009/04/23 14:03:21.0    -122   -376   -107    396    411 198.1 -15.2  34186  290.02 0854.52
2009/04/23 14:03:21.1    -117   -447     -3    463    464 194.7  -0.5  34186  290.02 0854.52
2009/04/23 14:03:21.2    -117   -431    -74    447    454 195.2  -9.5  34186  290.02 0854.52
2009/04/23 14:03:21.3     -82   -370    -33    380    382 192.6  -5.1  34188  290.03 0854.52
2009/04/23 14:03:21.4     -62   -388    -56    394    399 189.1  -8.1  34188  290.03 0854.49
2009/04/23 14:03:21.5    -117   -368    -49    387    391 197.7  -7.2  34188  290.06 0854.49
2009/04/23 14:03:21.6    -193   -319    -84    373    383 211.2 -12.7  34190  290.08 0854.49
2009/04/23 14:03:21.7    -216   -306    -53    375    379 215.3  -8.1  34194  290.16 0854.49
2009/04/23 14:03:21.8    -212   -262    -66    338    345 219.0 -11.1  34192  290.10 0854.49
2009/04/23 14:03:21.9    -192   -255    -46    320    324 217.0  -8.2  34194  290.15 0854.49
2009/04/23 14:03:22.0    -225   -280    -11    360    361 218.7  -1.8  34202  290.27 0854.49
2009/04/23 14:03:22.1    -137   -290     42    321    324 205.3   7.6  34196  290.19 0854.49
2009/04/23 14:03:22.2    -195   -304    -50    362    366 212.6  -8.0  34186  290.01 0854.49
2009/04/23 14:03:22.3    -208   -317    -62    380    386 213.3  -9.3  34182  289.94 0854.49
2009/04/23 14:03:22.4    -213   -313    -48    380    384 214.3  -7.3  34178  289.87 0854.49
2009/04/23 14:03:22.5    -256   -291    -59    388    393 221.3  -8.7  34182  289.93 0854.49
2009/04/23 14:03:22.6    -264   -299    -62    400    405 221.5  -8.9  34176  289.83 0854.49
2009/04/23 14:03:22.7    -292   -291    -82    413    422 225.1 -11.2  34176  289.83 0854.49
2009/04/23 14:03:22.8    -286   -287    -79    406    414 224.9 -11.1  34180  289.90 0854.49
2009/04/23 14:03:22.9    -286   -295    -71    411    418 224.1  -9.9  34178  289.88 0854.49
2009/04/23 14:03:23.0    -263   -302    -68    401    407 221.1  -9.7  34182  289.94 0854.49
2009/04/23 14:03:23.1    -235   -303    -34    384    386 217.8  -5.2  34182  289.96 0854.49
2009/04/23 14:03:23.2    -249   -314    -59    401    406 218.4  -8.4  34180  289.92 0854.49
2009/04/23 14:03:23.3    -293   -287    -81    411    420 225.6 -11.2  34184  289.99 0854.49
2009/04/23 14:03:23.4    -297   -258    -97    394    406 229.0 -13.9  34184  289.98 0854.50
2009/04/23 14:03:23.5    -302   -248   -123    391    411 230.6 -17.5  34180  289.92 0854.50
2009/04/23 14:03:23.6    -305   -242    -92    390    401 231.6 -13.4  34182  289.93 0854.50
2009/04/23 14:03:23.7    -323   -221    -61    392    397 235.5  -8.9  34182  289.94 0854.50
2009/04/23 14:03:23.8    -275   -225    -77    356    365 230.8 -12.3  34182  289.93 0854.50
2009/04/23 14:03:23.9    -279   -221   -128    357    380 231.6 -19.8  34184  289.99 0854.50
2009/04/23 14:03:24.0    -330   -260   -168    421    453 231.7 -27.4  34186  290.00 0854.50
2009/04/23 14:03:24.1    -265   -157    -63    309    316 239.4 -11.6  34180  289.90 0854.50
2009/04/23 14:03:24.2    -348   -151    -39    380    382 246.5  -5.9  34184  289.98 0854.50
2009/04/23 14:03:24.3    -396   -168    -74    431    438 246.9  -9.8  34186  290.00 0854.50
2009/04/23 14:03:24.4    -260   -143     31    297    299 241.1   6.1  34184  289.98 0854.50
2009/04/23 14:03:24.5    -159   -157    -80    224    239 225.3 -19.7  34190  290.07 0854.50
2009/04/23 14:03:24.6    -134    -27    -61    137    149 258.6 -30.1  34188  290.04 0854.50
2009/04/23 14:03:24.7    -124   -120     26    173    176 226.0   8.8  34188  290.04 0854.50
2009/04/23 14:03:24.8    -108   -197     89    225    241 208.7  22.8  34192  290.12 0854.50
2009/04/23 14:03:24.9      61   -222    113    231    257 164.6  28.2  34232  290.78 0854.50
2009/04/23 14:03:25.0      66   -223    113    233    258 163.5  27.8  34202  290.27 0854.50
2009/04/23 14:03:25.1      65   -220     71    230    241 163.5  17.3  34200  290.26 0854.50
2009/04/23 14:03:25.2      52   -246    -10    252    253 168.0  -2.3  34196  290.19 0854.50
2009/04/23 14:03:25.3     -26   -215      6    217    218 187.1   1.6  34192  290.11 0854.50
2009/04/23 14:03:25.4      59   -176    -40    186    191 161.3 -12.4  34186  290.02 0854.51
2009/04/23 14:03:25.5      24   -239     16    241    242 174.2   3.9  34192  290.10 0854.51
2009/04/23 14:03:25.6     -74   -278     14    288    289 195.1   2.9  34194  290.15 0854.51
2009/04/23 14:03:25.7     -24   -264      3    266    267 185.3   0.8  34190  290.07 0854.51
2009/04/23 14:03:25.8      52   -196    -97    203    224 165.1 -31.7  34196  290.18 0854.51
2009/04/23 14:03:25.9     -12   -166   -107    167    198 184.4 -40.0  34196  290.19 0854.51
2009/04/23 14:03:26.0     -25   -201   -129    203    240 187.1 -39.9  34196  290.18 0854.51
2009/04/23 14:03:26.1       2   -178   -126    179    218 179.1 -43.2  34194  290.16 0854.51
2009/04/23 14:03:26.2     -28   -205   -124    208    242 188.0 -38.1  34192  290.13 0854.51
2009/04/23 14:03:26.3     -50   -184   -136    191    234 195.2 -43.2  34202  290.30 0854.51
2009/04/23 14:03:26.4    -117   -128   -115    174    208 222.3 -40.9  34202  290.30 0854.51
2009/04/23 14:03:26.5     -89   -131    -90    159    182 214.3 -36.5  34202  290.28 0854.51
2009/04/23 14:03:26.6     -86    -99    -46    132    139 221.0 -23.8  34198  290.21 0854.51
2009/04/23 14:03:26.7     -83    -94    -24    126    129 221.4 -10.9  34194  290.14 0854.51
2009/04/23 14:03:26.8     -84    -69    -43    110    118 230.5 -26.9  34194  290.16 0854.51
2009/04/23 14:03:26.9     -82    -64    -40    105    112 231.8 -25.9  34194  290.16 0854.51
2009/04/23 14:03:27.0     -66    -80     12    104    105 219.7   7.1  34194  290.16 0854.51
2009/04/23 14:03:27.1      22   -110     27    113    117 168.5  13.7  34190  290.08 0854.51
2009/04/23 14:03:27.2     -34   -104    -13    110    111 198.3  -7.2  34194  290.16 0854.51
2009/04/23 14:03:27.3     -11   -112      5    113    114 185.8   2.9  34192  290.13 0854.51
2009/04/23 14:03:27.4     -35   -140      7    145    146 194.3   2.9  34194  290.14 0854.51
2009/04/23 14:03:27.5      32   -144     -3    148    149 167.5  -1.2  34192  290.13 0854.51
2009/04/23 14:03:27.6      18   -130     80    132    154 171.9  35.0  34190  290.09 0854.51
2009/04/23 14:03:27.7      -5   -152     61    153    164 182.2  22.5  34190  290.08 0854.51
2009/04/23 14:03:27.8     -59   -168     55    179    188 199.4  17.3  34190  290.08 0854.51
2009/04/23 14:03:27.9     -44   -187    -24    193    195 193.4  -7.3  34190  290.09 0854.51
2009/04/23 14:03:28.0     -70   -224     36    235    238 197.6   8.9  34192  290.10 0854.51
2009/04/23 14:03:28.1     -74   -220     58    233    241 198.7  14.2  34192  290.12 0854.51
2009/04/23 14:03:28.2     -59   -243     61    251    259 193.8  13.7  34196  290.17 0854.51
2009/04/23 14:03:28.3     -56   -214     12    222    223 194.7   3.1  34196  290.19 0854.51
2009/04/23 14:03:28.4     -77   -223     29    237    239 199.2   7.1  34196  290.19 0854.51
2009/04/23 14:03:28.5     -26   -198    -15    200    201 187.6  -4.4  34196  290.18 0854.51
2009/04/23 14:03:28.6     -23   -218      2    220    221 186.2   0.7  34196  290.19 0854.51
2009/04/23 14:03:28.7     -16   -164    -14    165    166 185.6  -4.9  34194  290.14 0854.51
2009/04/23 14:03:28.8      57   -121    -17    134    136 154.7  -7.3  34196  290.18 0854.51
2009/04/23 14:03:28.9      91    -75     53    118    129 129.5  26.2  34192  290.13 0854.51
2009/04/23 14:03:29.0     122    -80     18    147    149 123.3   7.1  34198  290.21 0854.51
2009/04/23 14:03:29.1      32   -120      6    125    126 164.9   2.9  34196  290.18 0854.51
2009/04/23 14:03:29.2      16   -113      5    115    116 172.0   2.8  34198  290.21 0854.51
2009/04/23 14:03:29.3      12   -110    -12    111    112 173.8  -6.2  34196  290.18 0854.51
2009/04/23 14:03:29.4       1    -97     -7     98     99 179.1  -4.1  34200  290.26 0854.51
2009/04/23 14:03:29.5       1    -80     -7     81     82 178.6  -5.2  34200  290.26 0854.51
2009/04/23 14:03:29.7      14    -70     14     72     74 168.4  11.0  34204  290.31 0854.51
2009/04/23 14:03:29.7       1    -73     -1     74     75 179.1  -1.3  34202  290.30 0854.51
2009/04/23 14:03:29.8      -3    -79      6     80     81 182.2   4.9  34202  290.30 0854.51
2009/04/23 14:03:29.9       0    -81      7     82     83 180.5   5.4  34202  290.28 0854.51
2009/04/23 14:03:30.0     -13    -92      2     94     95 188.5   1.8  34204  290.33 0854.51
2009/04/23 14:03:30.1     -31    -94     -3     99    100 198.3  -1.8  34208  290.38 0854.51
2009/04/23 14:03:30.2     -24    -62    -23     67     70 201.9 -23.3  34208  290.38 0854.51
2009/04/23 14:03:30.3     -24    -61    -30     66     72 201.8 -31.5  34206  290.36 0854.51
2009/04/23 14:03:30.4     -16    -50    -22     53     57 198.7 -27.4  34204  290.31 0854.51
2009/04/23 14:03:30.5      -5    -73    -48     74     88 184.5 -40.4  34198  290.23 0854.51
2009/04/23 14:03:30.6       1    -89     14     90     92 179.1   9.0  34202  290.28 0854.51
2009/04/23 14:03:30.7     -18    -85     21     87     90 192.0  13.7  34200  290.26 0854.51
2009/04/23 14:03:30.8     -28   -103     10    107    108 195.2   5.4  34200  290.26 0854.51
2009/04/23 14:03:30.9     -28   -133    -15    136    137 192.0  -6.7  34208  290.38 0854.51
2009/04/23 14:03:31.0     -14   -113     -6    114    115 187.1  -3.1  34212  290.45 0854.51
2009/04/23 14:03:31.1     -22   -112    -14    115    116 191.1  -7.3  34206  290.35 0854.51
2009/04/23 14:03:31.2     -45   -112      4    121    122 201.9   2.3  34204  290.31 0854.51
2009/04/23 14:03:31.3     -21   -112     -4    115    116 190.7  -2.2  34206  290.36 0854.51
2009/04/23 14:03:31.4       0   -137     16    138    140 180.0   6.9  34220  290.60 0854.53
2009/04/23 14:03:31.5     -31   -151    -10    155    156 191.6  -3.9  34226  290.69 0854.53
2009/04/23 14:03:31.6     -59   -169     -2    180    181 199.2  -0.7  34220  290.58 0854.53
2009/04/23 14:03:31.7     -12   -204     31    205    208 183.6   8.8  34204  290.33 0854.53
2009/04/23 14:03:31.8      -5   -212     22    213    215 181.6   6.1  34204  290.31 0854.53
2009/04/23 14:03:31.9     -16   -214      8    215    216 184.4   2.3  34202  290.30 0854.53
2009/04/23 14:03:32.0       2   -191     -7    192    193 179.3  -2.2  34204  290.33 0854.53
2009/04/23 14:03:32.1     -48   -202    -42    208    213 193.6 -11.5  34212  290.45 0854.53
2009/04/23 14:03:32.2      -6   -142    -50    143    151 182.7 -23.3  34216  290.53 0854.53
2009/04/23 14:03:32.3     -43   -119    -43    127    134 200.1 -23.3  34218  290.55 0854.53
2009/04/23 14:03:32.4     -85   -187    -70    206    218 204.5 -18.9  34222  290.64 0854.53
2009/04/23 14:03:32.5    -165   -260    -48    309    313 212.5  -9.0  34222  290.61 0854.53
2009/04/23 14:03:32.6    -149   -224   -115    270    293 213.6 -28.7  34214  290.48 0854.53
2009/04/23 14:03:32.7     -42   -227     80    231    245 190.5  19.2  34208  290.39 0854.53
2009/04/23 14:03:32.8     -19   -216     55    217    224 185.1  14.3  34206  290.36 0854.53
2009/04/23 14:03:32.9     -22   -207     26    209    211 186.2   7.1  34218  290.55 0854.53
2009/04/23 14:03:33.0       3   -176     18    177    179 178.9   6.1  34214  290.50 0854.53
2009/04/23 14:03:33.1     -23   -165     58    167    177 188.2  19.2  34216  290.52 0854.53
2009/04/23 14:03:33.2       0   -155     81    156    175 180.0  29.5  34212  290.45 0854.53
2009/04/23 14:03:33.3       0   -130     69    131    148 180.0  30.3  34222  290.62 0854.53
2009/04/23 14:03:33.4     -17   -119     83    121    146 188.5  38.0  34218  290.57 0854.54
2009/04/23 14:03:33.5     -37   -124     82    130    153 197.0  35.5  34214  290.48 0854.54
2009/04/23 14:03:33.6     -43   -134     75    141    159 197.8  30.3  34214  290.48 0854.54
2009/04/23 14:03:33.7     -43   -124     65    132    147 199.2  27.3  34208  290.40 0854.54
2009/04/23 14:03:33.8     -55   -138     53    149    159 201.8  19.6  34216  290.53 0854.54
2009/04/23 14:03:33.9     -29   -159     45    162    169 190.5  15.6  34214  290.48 0854.54
2009/04/23 14:03:34.1     -23   -169     48    171    178 187.8  15.8  34208  290.40 0854.54
2009/04/23 14:03:34.2     -45   -185     37    191    195 193.8  11.0  34204  290.33 0854.54
2009/04/23 14:03:34.3     -40   -197     36    202    206 191.6  10.3  34206  290.35 0854.54
2009/04/23 14:03:34.4      -3   -201     50    202    209 180.9  13.9  34208  290.40 0854.54
2009/04/23 14:03:34.5      -3   -201     50    202    209 180.9  13.9  34208  290.40 0854.54
2009/04/23 14:03:34.6     -14   -195     68    196    208 184.4  19.2  34208  290.40 0854.54
2009/04/23 14:03:34.7       8   -198     40    199    204 177.5  11.4  34206  290.35 0854.54
2009/04/23 14:03:34.8      -3   -204     49    205    211 181.0  13.5  34210  290.41 0854.54
2009/04/23 14:03:34.9       1   -177     70    178    191 179.5  22.8  34212  290.45 0854.54
2009/04/23 14:03:35.0     -11   -146     76    147    165 184.5  29.5  34214  290.48 0854.54
2009/04/23 14:03:35.1     -31   -160     57    164    174 191.1  19.2  34212  290.45 0854.54
2009/04/23 14:03:35.2     -48   -178     83    185    202 195.1  25.7  34214  290.50 0854.54
2009/04/23 14:03:35.3     -65   -200    107    211    236 198.0  29.1  34216  290.52 0854.54
2009/04/23 14:03:35.4     -65   -146     88    161    183 204.1  31.3  34222  290.62 0854.54
2009/04/23 14:03:35.5     -12   -171     84    172    191 184.0  27.4  34232  290.79 0854.55
2009/04/23 14:03:35.6     -34   -180     67    184    195 190.9  20.7  34216  290.53 0854.55
2009/04/23 14:03:35.7     -57   -170     62    180    191 198.7  19.2  34224  290.65 0854.55
2009/04/23 14:03:35.8     -55   -147     55    158    168 200.7  19.4  34218  290.57 0854.55
2009/04/23 14:03:35.9     -38   -175     36    180    184 192.3  11.4  34212  290.45 0854.55
2009/04/23 14:03:36.0     -43   -163     36    169    173 195.1  12.2  34214  290.50 0854.55
2009/04/23 14:03:36.1     -21   -114     74    117    138 190.7  35.5  34240  290.94 0854.55
2009/04/23 14:03:36.2      -9   -126     96    127    159 184.4  40.9  34252  291.13 0854.55
2009/04/23 14:03:36.3      -1   -126     72    127    145 180.9  31.9  34244  291.01 0854.55
2009/04/23 14:03:36.4       4   -118     72    119    139 177.8  34.0  34232  290.81 0854.55
2009/04/23 14:03:36.5       7   -102     63    103    120 176.0  34.4  34238  290.91 0854.55
2009/04/23 14:03:36.6      -1   -102     68    103    123 180.9  36.0  34248  291.08 0854.55
2009/04/23 14:03:36.7      -1    -90     65     91    111 180.9  39.5  34250  291.11 0854.55
2009/04/23 14:03:36.8      -4    -86     56     87    103 182.7  35.6  34248  291.06 0854.55
2009/04/23 14:03:36.9       4    -86     65     87    108 177.3  40.7  34246  291.04 0854.55
2009/04/23 14:03:37.0       0    -86     61     87    106 180.4  38.6  34240  290.94 0854.55
2009/04/23 14:03:37.1      16    -62     63     65     90 164.9  49.4  34238  290.91 0854.55
2009/04/23 14:03:37.2      39     -3     56     40     68  94.4  60.6  34256  291.21 0854.55
2009/04/23 14:03:37.3      46      1     45     47     65  88.3  49.0  34250  291.11 0854.55
2009/04/23 14:03:37.4      61    -18     46     64     78 106.8  39.7  34238  290.89 0854.55
2009/04/23 14:03:37.5      85    -11     62     86    106  97.5  39.5  34220  290.58 0854.54
2009/04/23 14:03:37.6      99     -9     69    100    121  95.7  37.6  34218  290.57 0854.54
2009/04/23 14:03:37.7      88    -41     67     98    118 115.2  37.6  34216  290.53 0854.54
2009/04/23 14:03:37.8     112    -83     75    140    158 126.4  30.6  34218  290.57 0854.54
2009/04/23 14:03:37.9     142    -72     80    160    178 117.1  28.5  34238  290.91 0854.54
2009/04/23 14:03:38.0      98    -32     96    104    141 108.2  47.9  34272  291.47 0854.54
2009/04/23 14:03:38.1      67     31    104     75    128  64.8  60.6  34262  291.32 0854.54
2009/04/23 14:03:38.2     103    -76    115    129    172 126.4  46.6  34268  291.42 0854.54
2009/04/23 14:03:38.3     144    -53     26    154    157 110.4   9.9  34252  291.15 0854.54
2009/04/23 14:03:38.4     159    -92      0    184    185 120.2   0.2  34264  291.35 0854.54
2009/04/23 14:03:38.5     202   -100     73    226    238 116.4  17.9  34228  290.73 0854.54
2009/04/23 14:03:38.6     171   -142     76    223    236 129.6  18.9  34246  291.03 0854.54
2009/04/23 14:03:38.7     140   -196     77    242    254 144.4  17.7  34230  290.75 0854.54
2009/04/23 14:03:38.8     143   -133     69    196    207 133.1  20.0  34228  290.72 0854.54
2009/04/23 14:03:38.9     136   -145     66    199    210 136.8  18.4  34226  290.69 0854.54
2009/04/23 14:03:39.0     128    -93     90    159    182 126.0  32.1  34226  290.69 0854.54
2009/04/23 14:03:39.1     157    -28     69    160    174 100.1  24.6  34218  290.57 0854.54
2009/04/23 14:03:39.2     111    -35     81    117    142 107.7  38.0  34228  290.72 0854.54
2009/04/23 14:03:39.3     142    -65     93    157    182 114.8  33.7  34228  290.74 0854.54
2009/04/23 14:03:39.4     131    -34     89    136    162 104.6  36.0  34226  290.70 0854.54
2009/04/23 14:03:39.5     117    -77    100    141    172 123.3  38.6  34230  290.77 0854.56
2009/04/23 14:03:39.6     110    -44     92    119    150 111.8  41.7  34230  290.77 0854.56
2009/04/23 14:03:39.7      64    -64     83     91    123 135.0  47.9  34238  290.89 0854.56
2009/04/23 14:03:39.8      83    -88    115    121    166 136.7  48.7  34238  290.89 0854.56
2009/04/23 14:03:39.9      87   -119    121    148    191 143.9  43.7  34232  290.79 0854.56
2009/04/23 14:03:40.0      -6   -145     71    146    162 182.6  27.8  34240  290.92 0854.56
2009/04/23 14:03:40.1      11   -161    100    162    190 176.0  35.0  34246  291.03 0854.56
2009/04/23 14:03:40.2      47    -67    115     83    141 144.8  60.5  34260  291.26 0854.56
2009/04/23 14:03:40.3      88    -17    113     90    144 101.0  57.5  34250  291.11 0854.56
2009/04/23 14:03:40.4     134    -73     90    153    177 118.9  33.1  34258  291.23 0854.56
2009/04/23 14:03:40.5     104   -118     88    158    180 138.6  31.4  34266  291.37 0854.56
2009/04/23 14:03:40.6      74   -147     93    165    189 153.0  31.9  34264  291.33 0854.56
2009/04/23 14:03:40.7      78   -114    131    139    191 145.7  48.2  34274  291.52 0854.56
2009/04/23 14:03:40.8      86   -101    140    133    193 139.5  51.6  34284  291.67 0854.56
2009/04/23 14:03:40.9     146     12    100    147    177  85.2  37.6  34230  290.77 0854.56
2009/04/23 14:03:41.0     192     14    123    193    228  85.6  35.6  34228  290.74 0854.56
2009/04/23 14:03:41.1     161      0    125    162    204  90.0  41.6  34238  290.91 0854.56
2009/04/23 14:03:41.2      72     47    134     87    159  56.7  64.1  34292  291.81 0854.56
2009/04/23 14:03:41.3     162    102    126    192    229  57.6  36.3  34278  291.59 0854.56
2009/04/23 14:03:41.4     256    127     29    286    288  63.6   6.0  34206  290.36 0854.56
2009/04/23 14:03:41.5     198    104     58    224    232  62.2  14.5  34216  290.52 0854.57
2009/04/23 14:03:41.6     181     92     48    204    210  63.1  13.2  34222  290.64 0854.57
2009/04/23 14:03:41.7     174    103     71    203    216  59.3  19.4  34298  291.91 0854.57
2009/04/23 14:03:41.8     223    147     99    268    285  56.7  21.0  34302  291.99 0854.57
2009/04/23 14:03:41.9     245    135     71    280    289  61.2  14.3  34322  292.33 0854.57
2009/04/23 14:03:42.0     180     55    101    189    214  72.9  30.8  34320  292.29 0854.57
2009/04/23 14:03:42.1     181    168    127    248    278  47.1  29.3  34284  291.67 0854.57
2009/04/23 14:03:42.2     298     90     71    312    321  73.1  12.9  34232  290.78 0854.57
2009/04/23 14:03:42.3     274     44     98    278    294  80.8  20.2  34256  291.19 0854.57
2009/04/23 14:03:42.4     365    218     77    426    434  59.2  10.3  34296  291.89 0854.57
2009/04/23 14:03:42.5     321    179     85    368    378  60.9  13.1  34312  292.14 0854.57
2009/04/23 14:03:42.6     203    129    113    241    266  57.6  27.1  34308  292.09 0854.57
2009/04/23 14:03:42.7     170    127    147    213    258  53.1  38.0  34350  292.79 0854.57
2009/04/23 14:03:42.8     100     82    151    130    199  50.4  54.8  34356  292.90 0854.57
2009/04/23 14:03:42.9     171     74    152    187    240  66.5  43.3  34362  293.02 0854.57
2009/04/23 14:03:43.0     255     85     79    270    282  71.4  16.3  34340  292.64 0854.57
2009/04/23 14:03:43.1     265    168     55    314    319  57.6  10.1  34368  293.10 0854.57
2009/04/23 14:03:43.2     229    174     14    288    289  52.7   2.8  34386  293.40 0854.57
2009/04/23 14:03:43.3     218     94     24    238    240  66.7   6.0  34334  292.52 0854.57
2009/04/23 14:03:43.4     167    177    119    244    271  43.4  27.4  34316  292.23 0854.57
2009/04/23 14:03:43.5     235    110    179    260    315  64.9  37.9  34300  291.96 0854.57
2009/04/23 14:03:43.6     230    162    140    282    314  54.9  28.4  34286  291.70 0854.57
2009/04/23 14:03:43.7     200    147    182    249    308  53.8  39.7  34274  291.50 0854.57
2009/04/23 14:03:43.8     217    108    139    243    279  63.4  32.4  34326  292.38 0854.57
2009/04/23 14:03:43.9     168    125     79    210    224  53.4  21.3  34310  292.13 0854.57
2009/04/23 14:03:44.0     211     86     53    228    235  67.8  13.2  34286  291.72 0854.57
2009/04/23 14:03:44.1     207    220     15    303    304  43.3   2.9  34278  291.56 0854.57
2009/04/23 14:03:44.2     196    147    -14    246    247  53.2  -3.3  34288  291.73 0854.57
2009/04/23 14:03:44.3     148    192     13    243    244  37.8   3.1  34296  291.89 0854.57
2009/04/23 14:03:44.4     121    205     54    239    246  30.7  12.9  34318  292.26 0854.57
2009/04/23 14:03:44.5     178    125     75    218    231  54.9  19.2  34326  292.39 0854.56
2009/04/23 14:03:44.6     173    136     70    221    232  51.8  17.7  34296  291.89 0854.56
2009/04/23 14:03:44.7     155     45     49    162    170  73.8  17.1  34284  291.67 0854.56
2009/04/23 14:03:44.8     137     86    100    163    191  57.8  34.8  34272  291.49 0854.56
2009/04/23 14:03:44.9     212     67    115    223    250  72.5  29.3  34306  292.04 0854.56
2009/04/23 14:03:45.0     234     63    129    243    275  74.9  30.2  34318  292.26 0854.56
2009/04/23 14:03:45.1     235     15    109    236    259  86.3  26.4  34274  291.50 0854.56
2009/04/23 14:03:45.2     194     -8     65    195    206  92.4  18.6  34262  291.32 0854.56
2009/04/23 14:03:45.3     204     51     57    211    219  75.8  15.2  34274  291.50 0854.56
2009/04/23 14:03:45.4     197     82     73    214    227  67.4  18.9  34300  291.95 0854.56
2009/04/23 14:03:45.5     139    115     74    181    195  50.2  23.4  34344  292.69 0854.56
2009/04/23 14:03:45.6     154      2     83    155    175  89.2  30.6  34278  291.57 0854.56
2009/04/23 14:03:45.7     182     25    110    184    214  81.9  33.7  34282  291.64 0854.56
2009/04/23 14:03:45.8     175     51    101    183    209  73.6  31.4  34292  291.83 0854.56
2009/04/23 14:03:45.9     206     50    117    213    243  76.3  31.4  34322  292.33 0854.56
2009/04/23 14:03:46.0     114     83    153    142    208  54.0  52.2  34354  292.88 0854.56
2009/04/23 14:03:46.1      49    -49     96     70    118 135.0  60.5  34316  292.23 0854.56
2009/04/23 14:03:46.2     114   -113    123    161    202 134.9  41.4  34250  291.11 0854.56
2009/04/23 14:03:46.3     124    -63    157    140    210 117.1  54.0  34290  291.79 0854.56
2009/04/23 14:03:46.4     155     46    157    162    225  73.4  49.2  34350  292.80 0854.56
2009/04/23 14:03:46.5     122      0    152    123    195  90.0  56.9  34350  292.80 0854.54
2009/04/23 14:03:46.6     118      0    117    119    166  90.0  49.8  34376  293.24 0854.54
2009/04/23 14:03:46.7     117    -26    134    120    179 102.8  53.5  34404  293.72 0854.54
2009/04/23 14:03:46.8      84     10    123     85    149  83.0  62.1  34404  293.74 0854.54
2009/04/23 14:03:46.9     123     37     95    129    160  73.2  40.1  34334  292.52 0854.54
2009/04/23 14:03:47.0     119     48    123    129    178  67.8  48.7  34378  293.29 0854.54
2009/04/23 14:03:47.1     155    -36    150    160    219 103.3  48.0  34366  293.09 0854.54
2009/04/23 14:03:47.2     162     -8    170    163    235  93.0  51.2  34358  292.95 0854.54
2009/04/23 14:03:47.3     117    -45    137    126    186 111.3  52.7  34310  292.13 0854.54
2009/04/23 14:03:47.4      78    -58    112     98    148 126.4  54.3  34310  292.13 0854.54
2009/04/23 14:03:47.5      -8    -64     80     65    103 187.1  56.4  34314  292.20 0854.54
2009/04/23 14:03:47.6      24    -98    112    101    150 166.2  53.3  34282  291.66 0854.54
2009/04/23 14:03:47.7     -23    -96     92     99    135 193.8  47.9  34280  291.60 0854.54
2009/04/23 14:03:47.8     -20    -85     48     88    100 193.4  31.3  34266  291.37 0854.54
2009/04/23 14:03:47.9      -5    -72     49     73     87 184.4  37.0  34264  291.35 0854.54
2009/04/23 14:03:48.0       2    -21     39     22     44 173.8  67.7  34292  291.81 0854.54
2009/04/23 14:03:48.1      -9     11     35     15     38 320.4  77.1  34292  291.81 0854.54
2009/04/23 14:03:48.2     -13     50     44     52     68 344.9  44.8  34298  291.91 0854.54
2009/04/23 14:03:48.3       3     50     45     51     68   3.6  47.9  34288  291.74 0854.54
2009/04/23 14:03:48.4     -27     40     20     49     52 325.7  23.0  34288  291.76 0854.54
2009/04/23 14:03:48.5     -23     13     30     27     40 298.9  53.3  34304  292.01 0854.53
2009/04/23 14:03:48.6     -23     35     22     43     48 326.6  29.3  34312  292.15 0854.53
2009/04/23 14:03:48.7     -12     37     19     40     44 341.7  26.2  34314  292.18 0854.53
2009/04/23 14:03:48.8     -10     45     29     47     55 346.6  35.5  34316  292.22 0854.53
2009/04/23 14:03:48.9       0     20     42     21     46 357.3  71.9  34326  292.39 0854.53
2009/04/23 14:03:49.0     -33     58     31     67     73 330.1  27.1  34300  291.96 0854.53
2009/04/23 14:03:49.1     -61     16     49     64     80 285.1  41.2  34300  291.96 0854.53
2009/04/23 14:03:49.2     -58    -11     58     60     83 258.5  50.0  34284  291.67 0854.53
2009/04/23 14:03:49.3     -56    -47     40     74     84 230.4  31.4  34264  291.35 0854.53
2009/04/23 14:03:49.4     -51    -42     23     67     72 230.5  19.4  34262  291.30 0854.53
2009/04/23 14:03:49.5     -66    -31     19     73     76 244.8  15.2  34270  291.45 0854.53
2009/04/23 14:03:49.6     -64     40    -21     76     79 302.4 -15.5  34280  291.60 0854.53
2009/04/23 14:03:49.7     -17     53     24     56     60 341.3  24.1  34290  291.79 0854.53
2009/04/23 14:03:49.8      -2    -35     79     36     86 184.4  74.5  34298  291.93 0854.53
2009/04/23 14:03:49.9      -4    -26     90     27     93 189.8  82.3  34296  291.88 0854.53
2009/04/23 14:03:50.0       0    -43     90     44    100 179.1  72.4  34298  291.93 0854.53
2009/04/23 14:03:50.1     -88    -76     93    117    149 229.1  43.3  34282  291.66 0854.53
2009/04/23 14:03:50.2     -86   -135    130    161    206 212.5  43.5  34280  291.62 0854.53
2009/04/23 14:03:50.3    -101   -179    177    206    271 209.6  44.9  34288  291.73 0854.53
2009/04/23 14:03:50.4    -110   -142    148    180    233 217.8  43.7  34302  292.00 0854.53
2009/04/23 14:03:50.5    -119   -139    102    184    210 220.5  31.4  34304  292.01 0854.53
2009/04/23 14:03:50.6    -111   -101    107    151    185 227.8  38.8  34314  292.18 0854.53
2009/04/23 14:03:50.7     -40    -59    112     72    133 214.3  64.6  34316  292.22 0854.53
2009/04/23 14:03:50.8     -53     37     82     65    104 305.1  57.5  34328  292.42 0854.53
2009/04/23 14:03:50.9    -125     11     -1    126    127 275.2  -0.7  34314  292.18 0854.53
2009/04/23 14:03:51.0    -132    -44     38    140    146 251.4  15.3  34314  292.18 0854.53
2009/04/23 14:03:51.1    -127    -98     20    161    163 232.2   7.2  34328  292.42 0854.53
2009/04/23 14:03:51.2    -174    -85      5    194    195 244.0   1.6  34328  292.42 0854.53
2009/04/23 14:03:51.3    -151    -65     19    165    167 246.5   6.7  34328  292.44 0854.53
2009/04/23 14:03:51.4    -143    -96    -34    173    177 236.0 -11.3  34326  292.40 0854.53
2009/04/23 14:03:51.5    -116    -88    -18    146    148 232.7  -7.3  34334  292.54 0854.53
2009/04/23 14:03:51.6     -84    -81      2    117    118 226.0   1.2  34340  292.64 0854.53
2009/04/23 14:03:51.7     -80    -54     18     97     99 235.8  10.6  34336  292.58 0854.53
2009/04/23 14:03:51.8     -65    -64     38     92     99 225.1  23.1  34334  292.54 0854.53
2009/04/23 14:03:51.9     -65    -41     29     78     83 237.5  21.0  34354  292.86 0854.53
2009/04/23 14:03:52.0     -96    -15     -3     98     99 261.2  -2.2  34334  292.54 0854.53
2009/04/23 14:03:52.1     -63    -77     17    100    102 219.6  10.1  34338  292.59 0854.53
2009/04/23 14:03:52.2     -94    -83    -20    126    128 228.7  -9.4  34346  292.75 0854.53
2009/04/23 14:03:52.3     -70    -46    -13     84     86 236.7  -9.3  34350  292.80 0854.53
2009/04/23 14:03:52.4     -82    -47    -11     95     96 239.8  -6.7  34356  292.92 0854.53
2009/04/23 14:03:52.5     -53    -83     34     99    105 213.0  18.9  34358  292.95 0854.52
2009/04/23 14:03:52.6     -89   -145     47    171    178 211.4  15.6  34362  293.02 0854.52
2009/04/23 14:03:52.7     -41   -136     68    143    158 196.9  27.0  34332  292.49 0854.52
2009/04/23 14:03:52.8     -18   -128     84    130    154 188.0  35.6  34360  292.97 0854.52
2009/04/23 14:03:52.9     -31    -91     71     97    120 199.2  39.7  34362  293.00 0854.52
2009/04/23 14:03:53.0     -62   -102     50    120    130 211.6  24.1  34370  293.15 0854.52
2009/04/23 14:03:53.1     -80   -104     58    132    144 217.4  25.2  34360  292.98 0854.52
2009/04/23 14:03:53.2     -40    -87     47     97    107 204.9  27.3  34356  292.90 0854.52
2009/04/23 14:03:53.3     -34    -98     39    104    111 199.2  21.5  34356  292.90 0854.52
2009/04/23 14:03:53.4     -21    -92     48     95    106 192.9  28.7  34344  292.69 0854.52
2009/04/23 14:03:53.5     -21    -40     49     46     67 207.2  52.1  34340  292.64 0854.52
2009/04/23 14:03:53.6      -3      0     70      4     70 270.0  90.0  34360  292.97 0854.52
2009/04/23 14:03:53.7       2    -56     78     57     96 177.3  60.5  34338  292.61 0854.52
2009/04/23 14:03:53.8      -8    -63     65     64     91 188.0  50.1  34320  292.30 0854.52
2009/04/23 14:03:53.9     -20    -62     76     66    100 197.8  54.3  34312  292.17 0854.52
2009/04/23 14:03:54.0     -26    -81     84     86    120 197.8  50.0  34304  292.03 0854.52
2009/04/23 14:03:54.1     -33    -88    105     95    141 200.9  52.7  34306  292.06 0854.52
2009/04/23 14:03:54.2     -33    -40     91     53    105 219.6  66.8  34318  292.27 0854.52
2009/04/23 14:03:54.3     -26    -16     81     31     86 237.6  78.6  34332  292.51 0854.52
2009/04/23 14:03:54.4     -11    -26     77     29     82 203.6  78.6  34334  292.52 0854.52
2009/04/23 14:03:54.5     -33    -11     74     35     81 251.6  73.5  34332  292.51 0854.50
2009/04/23 14:03:54.6     -31     41     42     52     66 322.2  43.7  34326  292.40 0854.50
2009/04/23 14:03:54.7     -24     24      6     35     36 315.0  11.1  34328  292.42 0854.50
2009/04/23 14:03:54.8     -48     18      5     52     53 290.8   5.9  34322  292.32 0854.50
2009/04/23 14:03:54.9     -44     36     39     58     69 309.5  36.5  34324  292.35 0854.50
2009/04/23 14:03:55.0     -82    -10     49     83     96 263.0  34.0  34326  292.39 0854.50
2009/04/23 14:03:55.1     -75      0     97     76    123 270.0  57.9  34318  292.27 0854.50
2009/04/23 14:03:55.2     -23     67     51     71     87 340.8  39.1  34332  292.49 0854.50
2009/04/23 14:03:55.3     -18     77     21     80     83 346.6  15.3  34328  292.44 0854.50
2009/04/23 14:03:55.4      32     35     41     48     63  42.3  44.8  34334  292.54 0854.50
2009/04/23 14:03:55.5      20     35     40     41     57  30.7  51.1  34328  292.42 0854.50
2009/04/23 14:03:55.6       2     28     49     29     56   4.5  65.7  34340  292.64 0854.50
2009/04/23 14:03:55.7      14     10     43     18     46  54.0  77.1  34352  292.83 0854.50
2009/04/23 14:03:55.8      62      1     47     63     78  88.3  41.2  34334  292.52 0854.50
2009/04/23 14:03:55.9     134    -12     47    135    144  95.2  19.2  34314  292.18 0854.50
2009/04/23 14:03:56.0     172     -8     74    173    188  92.8  24.3  34306  292.06 0854.50
2009/04/23 14:03:56.1     195     27     46    197    203  82.1  13.2  34296  291.89 0854.50
2009/04/23 14:03:56.2     215     85     64    232    241  68.3  15.6  34296  291.89 0854.50
2009/04/23 14:03:56.3     219     95     48    239    244  66.5  11.4  34304  292.02 0854.50
2009/04/23 14:03:56.4     209    137     17    251    252  56.7   3.9  34304  292.01 0854.50
2009/04/23 14:03:56.5     219    144     70    263    273  56.7  15.0  34290  291.77 0854.49
2009/04/23 14:03:56.6     208    114     57    238    245  61.2  13.7  34302  291.99 0854.49
2009/04/23 14:03:56.7     182    109     55    213    220  59.1  14.5  34296  291.89 0854.49
2009/04/23 14:03:56.8     146    109     13    183    184  53.1   4.2  34286  291.71 0854.49
2009/04/23 14:03:56.9     140    103     -6    174    175  53.6  -2.3  34276  291.55 0854.49
2009/04/23 14:03:57.0     178    108     26    209    211  58.9   7.1  34262  291.32 0854.49
2009/04/23 14:03:57.1      83    153     61    175    186  28.5  19.2  34264  291.33 0854.49
2009/04/23 14:03:57.2      60    183     90    193    212  18.3  27.0  34278  291.59 0854.49
2009/04/23 14:03:57.3     102    116     41    155    161  41.4  15.0  34272  291.47 0854.49
2009/04/23 14:03:57.4     117    134     68    179    191  41.2  21.7  34278  291.59 0854.49
2009/04/23 14:03:57.5     131    154     50    203    210  40.3  13.9  34294  291.86 0854.49
2009/04/23 14:03:57.6     168    178     52    245    251  43.3  12.2  34338  292.60 0854.49
2009/04/23 14:03:57.7     120    209    136    242    277  29.9  31.9  34328  292.43 0854.49
2009/04/23 14:03:57.8     206    170    159    268    311  50.4  33.5  34348  292.77 0854.49
2009/04/23 14:03:57.9     255     83     76    269    280  71.8  15.8  34334  292.53 0854.49
2009/04/23 14:03:58.0      98    132     69    165    178  36.7  23.8  34340  292.64 0854.49
2009/04/23 14:03:58.1     223    196    131    298    325  48.7  25.2  34328  292.41 0854.49
2009/04/23 14:03:58.2     274    163     18    319    320  59.3   3.2  34288  291.75 0854.49
2009/04/23 14:03:58.3     308     67     -8    316    317  77.6  -1.6  34274  291.51 0854.49
2009/04/23 14:03:58.4     370      0     70    371    378  90.0  10.8  34282  291.64 0854.49
2009/04/23 14:03:58.5     408    133    -23    430    431  71.9  -3.2  34246  291.04 0854.49
2009/04/23 14:03:58.6     197    153    225    250    336  52.0  46.8  34286  291.72 0854.49
2009/04/23 14:03:58.7     234    249    216    343    405  43.2  35.3  34318  292.25 0854.49
2009/04/23 14:03:58.8     321    292    187    435    473  47.7  24.8  34362  293.00 0854.49
2009/04/23 14:03:58.9     292    285    216    409    462  45.7  30.1  34346  292.74 0854.49
2009/04/23 14:03:59.0     268    213    210    343    402  51.6  34.4  34366  293.09 0854.49
2009/04/23 14:03:59.1     210    202     36    292    295  46.0   7.1  34360  292.98 0854.49
2009/04/23 14:03:59.2     172    114    109    207    233  56.3  30.2  34370  293.15 0854.49
2009/04/23 14:03:59.3     182    146    169    234    288  51.1  39.5  34376  293.25 0854.49
2009/04/23 14:03:59.4     372     44    116    375    393  83.1  17.2  34362  292.99 0854.49
2009/04/23 14:03:59.5     445    134    163    465    492  73.2  20.1  34370  293.14 0854.49
2009/04/23 14:03:59.6     351    137    130    378    400  68.6  19.1  34372  293.17 0854.49
2009/04/23 14:03:59.7     448    217    123    499    515  64.1  13.9  34380  293.31 0854.49
2009/04/23 14:03:59.8     295    231    208    375    428  51.9  31.4  34380  293.32 0854.49
2009/04/23 14:03:59.9     421     30    189    423    463  85.9  25.8  34316  292.21 0854.49
2009/04/23 14:04:00.0     349    -26    134    350    374  94.4  22.0  34292  291.83 0854.49
2009/04/23 14:04:00.1     390     26    143    391    416  86.1  21.0  34292  291.82 0854.49
2009/04/23 14:04:00.2     403    126    132    423    444  72.6  17.3  34324  292.37 0854.49
2009/04/23 14:04:00.3     350      4    178    351    393  89.3  29.1  34308  292.10 0854.49
2009/04/23 14:04:00.4     391     32    153    393    421  85.3  22.5  34328  292.43 0854.49
2009/04/23 14:04:00.5     388     29    186    390    432  85.6  27.3  34328  292.43 0854.48
2009/04/23 14:04:00.6     302     -4    159    303    342  90.8  30.0  34318  292.25 0854.48
2009/04/23 14:04:00.7     235   -122     30    265    267 117.5   6.5  34284  291.67 0854.48
2009/04/23 14:04:00.8     218     -8    100    219    240  92.1  26.2  34300  291.96 0854.48
2009/04/23 14:04:00.9     219    -18    104    220    243  94.8  27.2  34322  292.33 0854.48
2009/04/23 14:04:01.0     180     -5    101    181    207  91.9  31.6  34322  292.32 0854.48
2009/04/23 14:04:01.1     101    -10     42    102    110  96.1  23.6  34320  292.29 0854.48
2009/04/23 14:04:01.2      51   -153   -111    162    196 161.5 -42.2  34310  292.13 0854.48
2009/04/23 14:04:01.3      90   -171   -155    194    248 152.1 -47.1  34318  292.27 0854.48
2009/04/23 14:04:01.4      14   -100   -206    102    229 171.9 -76.5  34316  292.22 0854.48
2009/04/23 14:04:01.6     146   -146   -188    207    279 135.0 -51.3  34322  292.31 0854.48
2009/04/23 14:04:01.7     112   -131   -267    173    318 139.5 -68.4  34314  292.18 0854.48
2009/04/23 14:04:01.8     100    -63   -185    119    219 122.5 -69.0  34332  292.49 0854.48
2009/04/23 14:04:01.9     242   -159    -58    290    296 123.3 -11.3  34318  292.26 0854.48
2009/04/23 14:04:02.0     276   -130     67    306    314 115.3  12.5  34350  292.79 0854.48
2009/04/23 14:04:02.1     181    -96    129    205    242 118.0  35.5  34340  292.63 0854.48
2009/04/23 14:04:02.2     240   -150    -90    284    298 122.0 -17.6  34334  292.52 0854.48
2009/04/23 14:04:02.3     190   -130   -103    231    252 124.4 -30.1  34326  292.40 0854.48
2009/04/23 14:04:02.4      82   -129    -65    154    167 147.5 -28.7  34314  292.18 0854.48
2009/04/23 14:04:02.5     -56    -26    -65     62     89 244.8 -55.6  34326  292.39 0854.48
2009/04/23 14:04:02.6     -93   -152     57    179    188 211.6  17.7  34328  292.42 0854.48
2009/04/23 14:04:02.7     -52   -138    121    148    191 200.9  43.7  34334  292.52 0854.48
2009/04/23 14:04:02.8    -199     -3     65    200    211 269.1  18.1  34310  292.12 0854.48
2009/04/23 14:04:02.9    -128    209     29    246    248 328.6   6.9  34308  292.09 0854.48
2009/04/23 14:04:03.0    -126    194    -45    232    237 327.0 -11.1  34218  290.54 0854.48
2009/04/23 14:04:03.1    -166    100     30    195    198 301.1   8.8  34224  290.65 0854.48
2009/04/23 14:04:03.2    -104    104     19    148    150 315.0   7.5  34244  290.99 0854.48
2009/04/23 14:04:03.3    -148     49     94    157    182 288.4  34.0  34252  291.13 0854.48
2009/04/23 14:04:03.4     -67   -126    124    143    189 208.1  45.1  34326  292.40 0854.48
2009/04/23 14:04:03.5     -75   -188     71    203    216 201.8  19.4  34332  292.49 0854.48
2009/04/23 14:04:03.6    -190   -202     66    278    286 223.2  13.5  34346  292.74 0854.50
2009/04/23 14:04:03.7    -227   -188    115    296    317 230.4  22.3  34338  292.59 0854.50
2009/04/23 14:04:03.8    -185   -173    201    254    323 226.9  42.4  34360  292.98 0854.50
2009/04/23 14:04:03.9      52    -91    210    106    235 150.1  71.4  34354  292.86 0854.50
2009/04/23 14:04:04.0    -129   -196    230    235    328 213.4  49.7  34296  291.89 0854.50
2009/04/23 14:04:04.1     -89   -223    170    241    294 201.8  38.8  34274  291.51 0854.50
2009/04/23 14:04:04.2     -54   -200    176    208    272 195.1  44.3  34272  291.48 0854.50
2009/04/23 14:04:04.3     -10   -216    182    217    283 182.7  43.8  34272  291.48 0854.50
2009/04/23 14:04:04.4     -60   -165     84    176    195 200.0  27.3  34274  291.52 0854.50
2009/04/23 14:04:04.5     -25   -176     66    178    189 188.2  21.0  34276  291.54 0854.50
2009/04/23 14:04:04.6     -66   -223     54    233    240 196.7  13.2  34276  291.55 0854.50
2009/04/23 14:04:04.7     -50   -193     74    200    213 194.7  21.0  34266  291.38 0854.50
2009/04/23 14:04:04.8    -114   -204     68    234    244 209.2  16.4  34274  291.50 0854.50
2009/04/23 14:04:04.9     -77   -233     95    246    263 198.3  22.0  34286  291.70 0854.50
2009/04/23 14:04:05.0     -56   -166     98    176    201 198.7  31.4  34288  291.76 0854.50
2009/04/23 14:04:05.1     -36   -179    160    183    243 191.6  45.8  34344  292.71 0854.50
2009/04/23 14:04:05.2     -47   -175    174    182    251 195.1  49.0  34336  292.58 0854.50
2009/04/23 14:04:05.3       4     -7    108      9    108 147.5  90.0  34356  292.90 0854.50
2009/04/23 14:04:05.4     -63   -176    236    188    301 199.8  57.5  34294  291.85 0854.50
2009/04/23 14:04:05.5     -87   -165    108    187    215 207.9  32.4  34284  291.69 0854.50
2009/04/23 14:04:05.6     -73   -205     27    218    220 199.6   7.2  34290  291.77 0854.51
2009/04/23 14:04:05.7    -115   -224    108    252    274 207.2  24.9  34288  291.75 0854.51
2009/04/23 14:04:05.8    -137   -223     82    263    276 211.6  17.3  34278  291.56 0854.51
2009/04/23 14:04:05.9     -80   -249    184    262    320 197.8  38.5  34280  291.60 0854.51
2009/04/23 14:04:06.0     -46   -300    119    304    326 188.9  22.5  34274  291.51 0854.51
2009/04/23 14:04:06.1     -51   -285    117    290    312 190.2  23.0  34280  291.60 0854.51
2009/04/23 14:04:06.2     -32   -298    123    300    324 186.3  23.6  34282  291.65 0854.51
2009/04/23 14:04:06.3       4   -272      0    273    274 179.1   0.0  34292  291.82 0854.51
2009/04/23 14:04:06.4      18   -203     -4    204    205 174.9  -1.2  34286  291.71 0854.51
2009/04/23 14:04:06.5       8   -191     12    192    193 177.5   3.6  34286  291.72 0854.51
2009/04/23 14:04:06.6      45   -168     34    175    179 164.9  11.1  34292  291.83 0854.51
2009/04/23 14:04:06.7      31   -154     26    158    161 168.4   9.5  34294  291.86 0854.51
2009/04/23 14:04:06.8      18   -165     58    167    177 173.5  19.2  34300  291.95 0854.51
2009/04/23 14:04:06.9      34   -188     77    192    206 169.8  23.0  34282  291.66 0854.51
2009/04/23 14:04:07.0      56   -234    103    241    262 166.4  24.3  34272  291.48 0854.51
2009/04/23 14:04:07.1      71   -213     81    225    239 161.5  20.7  34272  291.46 0854.51
2009/04/23 14:04:07.2      33   -206    121    209    241 170.7  32.9  34244  291.01 0854.51
2009/04/23 14:04:07.3      -9   -264     34    265    268 182.0   7.5  34242  290.97 0854.51
2009/04/23 14:04:07.4     -10   -264     34    265    268 182.2   7.5  34232  290.80 0854.51
2009/04/23 14:04:07.5     -40   -269     74    273    283 188.5  15.2  34236  290.85 0854.51
2009/04/23 14:04:07.6     -38   -260     13    263    264 188.5   2.9  34236  290.85 0854.52
2009/04/23 14:04:07.7    -103   -203    -19    228    229 207.0  -4.9  34254  291.16 0854.52
2009/04/23 14:04:07.8     -69   -242    -19    252    253 196.1  -4.4  34256  291.21 0854.52
2009/04/23 14:04:07.9    -161   -269      4    314    315 211.0   0.9  34254  291.17 0854.52
2009/04/23 14:04:08.0    -182   -263    -12    320    321 214.7  -2.2  34276  291.55 0854.52
2009/04/23 14:04:08.1    -127   -248    -24    279    281 207.2  -5.1  34268  291.41 0854.52
2009/04/23 14:04:08.2    -151   -229     13    275    276 213.4   2.8  34264  291.33 0854.52
2009/04/23 14:04:08.3     -77   -246     93    258    274 197.4  20.7  34244  291.00 0854.52
2009/04/23 14:04:08.4    -138   -108     23    176    178 232.0   7.5  34250  291.11 0854.52
2009/04/23 14:04:08.5    -137   -179    -43    226    231 217.6 -10.9  34250  291.11 0854.52
2009/04/23 14:04:08.6     -18   -242     51    243    249 184.4  12.0  34242  290.95 0854.52
2009/04/23 14:04:08.7    -119   -263     40    289    292 204.5   8.0  34230  290.76 0854.52
2009/04/23 14:04:08.8     -57   -251     22    258    260 192.9   4.9  34230  290.75 0854.52
2009/04/23 14:04:08.9     -80   -158     19    178    180 207.0   6.1  34232  290.81 0854.52
2009/04/23 14:04:09.0     -58   -171    144    181    231 198.7  43.0  34242  290.98 0854.52
2009/04/23 14:04:09.1     -53   -261     73    267    277 191.6  15.3  34246  291.02 0854.52
2009/04/23 14:04:09.2     -66   -279     90    287    301 193.4  17.4  34244  290.99 0854.52
2009/04/23 14:04:09.3       8   -306     92    307    321 178.4  16.7  34238  290.88 0854.52
2009/04/23 14:04:09.4     -53   -337     14    342    343 189.0   2.4  34232  290.79 0854.52
2009/04/23 14:04:09.5      -2   -508     -2    509    510 180.3  -0.3  34216  290.51 0854.52
2009/04/23 14:04:09.6     -77   -410    -85    418    427 190.7 -11.5  34232  290.78 0854.54
2009/04/23 14:04:09.7    -119   -423    107    440    453 195.8  13.7  34224  290.67 0854.54
2009/04/23 14:04:09.8     -96   -404     34    416    418 193.4   4.7  34238  290.89 0854.54
2009/04/23 14:04:09.9     -69   -430     48    436    439 189.1   6.4  34242  290.97 0854.54
2009/04/23 14:04:10.0      -7   -395    132    396    418 181.1  18.4  34230  290.75 0854.54
2009/04/23 14:04:10.1      43   -336    157    339    373 172.7  26.9  34232  290.79 0854.54
2009/04/23 14:04:10.2      58   -310    193    316    370 169.3  34.4  34232  290.79 0854.54
2009/04/23 14:04:10.3      47   -263    189    268    327 169.8  38.6  34234  290.83 0854.54
2009/04/23 14:04:10.4      45   -263     91    267    283 170.3  18.9  34232  290.80 0854.54
2009/04/23 14:04:10.5      32   -121     92    126    156 164.9  39.7  34234  290.84 0854.54
2009/04/23 14:04:10.6      95    -79    111    124    166 129.6  46.4  34236  290.86 0854.54
2009/04/23 14:04:10.7     126    -39     69    132    148 107.3  29.3  34236  290.87 0854.54
2009/04/23 14:04:10.8     103    -86     48    135    143 129.6  20.0  34236  290.86 0854.54
2009/04/23 14:04:10.9      42   -208     17    213    214 168.4   4.6  34232  290.81 0854.54
2009/04/23 14:04:11.0     -49   -178     13    185    186 195.4   4.2  34230  290.77 0854.54
2009/04/23 14:04:11.1     -76   -209    -16    223    224 200.1  -4.1  34228  290.72 0854.54
2009/04/23 14:04:11.2    -116   -211     -1    241    242 208.9  -0.3  34228  290.71 0854.54
2009/04/23 14:04:11.3    -123   -224     13    256    257 208.7   2.9  34228  290.73 0854.54
2009/04/23 14:04:11.4    -200   -298    -45    359    362 213.9  -7.2  34236  290.86 0854.54
2009/04/23 14:04:11.5    -134   -264    -11    297    298 207.0  -2.2  34238  290.90 0854.54
2009/04/23 14:04:11.6    -134   -197    -21    239    240 214.2  -5.2  34248  291.05 0854.54
2009/04/23 14:04:11.7    -139   -115    -36    181    185 230.5 -11.5  34234  290.82 0854.54
2009/04/23 14:04:11.8    -120   -144     27    188    190 219.9   8.2  34226  290.69 0854.54
2009/04/23 14:04:11.9     -87   -137    103    163    192 212.5  35.5  34222  290.64 0854.54
2009/04/23 14:04:12.0     -84   -229     67    245    254 200.3  15.3  34220  290.59 0854.54
2009/04/23 14:04:12.1     -53   -238     87    244    259 192.7  20.2  34220  290.59 0854.54
2009/04/23 14:04:12.2    -149   -271     30    310    312 208.7   5.7  34218  290.56 0854.54
2009/04/23 14:04:12.3    -191   -203    -20    279    280 223.3  -4.1  34242  290.95 0854.54
2009/04/23 14:04:12.4    -162   -128    -73    207    219 231.6 -24.6  34252  291.15 0854.54
2009/04/23 14:04:12.5     -32    -68      3     76     77 205.3   2.9  34248  291.08 0854.54
2009/04/23 14:04:12.6     -35   -102     66    109    127 199.2  34.0  34246  291.04 0854.54
2009/04/23 14:04:12.7     -89    -71     57    114    127 231.4  28.2  34248  291.08 0854.54
2009/04/23 14:04:12.8    -134    -74     25    154    157 241.2   9.3  34258  291.25 0854.54
2009/04/23 14:04:12.9     -80    -75     34    110    116 226.8  17.4  34248  291.08 0854.54
2009/04/23 14:04:13.0     -84   -115      7    143    144 216.1   2.8  34236  290.87 0854.54
2009/04/23 14:04:13.1     -22    -68     31     72     78 198.5  24.1  34234  290.84 0854.54
2009/04/23 14:04:13.2     -24   -135     80    138    159 190.2  32.9  34228  290.72 0854.54
2009/04/23 14:04:13.3     -22   -234    133    236    270 185.6  31.9  34228  290.71 0854.54
2009/04/23 14:04:13.4     -53   -261    160    267    311 191.5  33.7  34228  290.73 0854.54
2009/04/23 14:04:13.5    -100   -239    132    260    291 202.8  29.2  34230  290.75 0854.54
2009/04/23 14:04:13.6    -100   -167    144    195    242 211.0  39.9  34228  290.74 0854.56
2009/04/23 14:04:13.7     -94   -168     66    193    205 209.4  18.9  34228  290.74 0854.56
2009/04/23 14:04:13.8      21    -63     23     67     72 161.7  19.4  34230  290.75 0854.56
2009/04/23 14:04:13.9       8    -40    125     41    131 168.4  80.7  34240  290.94 0854.56
2009/04/23 14:04:14.0     -44    -29    168     53    176 236.7  81.8  34240  290.94 0854.56
2009/04/23 14:04:14.1       9    -65    156     66    169 172.0  75.5  34240  290.94 0854.56
2009/04/23 14:04:14.2       7   -242    274    243    366 178.2  54.2  34228  290.72 0854.56
2009/04/23 14:04:14.3      92   -241    225    259    343 159.0  45.4  34234  290.82 0854.56
2009/04/23 14:04:14.4      21   -277    226    278    358 175.5  43.4  34230  290.77 0854.56
2009/04/23 14:04:14.5      48   -281    227    286    365 170.3  42.6  34228  290.74 0854.56
2009/04/23 14:04:14.6      12   -366    224    367    429 178.0  34.3  34230  290.75 0854.56
2009/04/23 14:04:14.7     -14   -427    189    428    467 181.9  25.2  34224  290.65 0854.56
2009/04/23 14:04:14.8     -37   -382    189    384    427 185.6  28.1  34226  290.68 0854.56
2009/04/23 14:04:14.9      15   -370    175    371    410 177.7  27.1  34224  290.66 0854.56
2009/04/23 14:04:15.0      27   -408    189    409    450 176.2  26.5  34218  290.55 0854.56
2009/04/23 14:04:15.1     -53   -386    191    390    434 187.9  28.0  34224  290.67 0854.56
2009/04/23 14:04:15.2     124   -381    194    401    445 162.0  27.7  34214  290.50 0854.56
2009/04/23 14:04:15.3      -7   -324    113    325    345 181.4  19.3  34214  290.49 0854.56
2009/04/23 14:04:15.4     -47   -385    140    388    412 187.0  20.8  34212  290.44 0854.56
2009/04/23 14:04:15.5     -39   -423    154    425    453 185.4  19.9  34210  290.43 0854.56
2009/04/23 14:04:15.6     -88   -462    189    471    507 190.9  23.1  34220  290.59 0854.55
2009/04/23 14:04:15.7      45   -452    107    455    468 174.3  13.2  34214  290.50 0854.55
2009/04/23 14:04:15.8     158   -464     76    491    498 161.2   8.9  34218  290.56 0854.55
2009/04/23 14:04:15.9     163   -534    158    559    581 163.0  15.8  34212  290.46 0854.55
2009/04/23 14:04:16.0     119   -507    125    521    536 166.8  13.5  34220  290.60 0854.55
2009/04/23 14:04:16.1     159   -482    148    508    530 161.7  16.3  34218  290.55 0854.55
2009/04/23 14:04:16.2     111   -459    138    473    493 166.3  16.3  34212  290.47 0854.55
2009/04/23 14:04:16.3      76   -445    158    452    478 170.2  20.0  34210  290.42 0854.55
2009/04/23 14:04:16.4      81   -475    203    482    523 170.3  24.2  34216  290.51 0854.55
2009/04/23 14:04:16.5      44   -583    237    585    631 175.6  23.4  34216  290.52 0854.55
2009/04/23 14:04:16.6     145   -505    200    526    562 164.0  22.0  34212  290.46 0854.55
2009/04/23 14:04:16.7      65   -554    282    558    625 173.3  28.9  34216  290.53 0854.55
2009/04/23 14:04:16.8     129   -542    261    558    616 166.6  27.1  34212  290.46 0854.55
2009/04/23 14:04:16.9      90   -524    263    532    593 170.2  28.2  34218  290.54 0854.55
2009/04/23 14:04:17.0      52   -475    168    478    507 173.7  19.4  34222  290.61 0854.55
2009/04/23 14:04:17.1      69   -482     23    488    489 171.8   2.8  34228  290.71 0854.55
2009/04/23 14:04:17.2     -51   -473     78    476    483 186.3   9.3  34222  290.64 0854.55
2009/04/23 14:04:17.3     -76   -660     56    665    668 186.6   4.9  34224  290.66 0854.55
2009/04/23 14:04:17.4      62   -500    -26    504    505 172.9  -3.0  34228  290.73 0854.55
2009/04/23 14:04:17.5      55   -395     -9    399    400 172.0  -1.4  34228  290.71 0854.55
2009/04/23 14:04:17.6      -9   -342    -15    343    344 181.6  -2.6  34234  290.84 0854.53
2009/04/23 14:04:17.7      23   -414      1    415    416 176.8   0.2  34236  290.87 0854.53
2009/04/23 14:04:17.8     -32   -392    -61    394    399 184.8  -8.8  34228  290.72 0854.53
2009/04/23 14:04:17.9     -59   -424   -109    429    443 188.0 -14.3  34234  290.84 0854.53
2009/04/23 14:04:18.0     -97   -454    -25    465    466 192.1  -3.1  34252  291.12 0854.53
2009/04/23 14:04:18.1     -93   -498   -165    507    534 190.6 -18.1  34238  290.89 0854.53
2009/04/23 14:04:18.2    -112   -469   -108    483    495 193.4 -12.6  34248  291.08 0854.53
2009/04/23 14:04:18.3     -93   -541    -79    550    556 189.8  -8.3  34236  290.86 0854.53
2009/04/23 14:04:18.4     -34   -562    -61    564    568 183.5  -6.2  34234  290.82 0854.53
2009/04/23 14:04:18.5     -89   -559   -110    567    578 189.1 -11.0  34238  290.88 0854.53
2009/04/23 14:04:18.6     -76   -486    -66    493    498 188.9  -7.7  34238  290.90 0854.53
2009/04/23 14:04:18.7     -23   -390    -49    391    395 183.4  -7.2  34234  290.83 0854.53
2009/04/23 14:04:18.8       5   -360    -45    361    364 179.1  -7.2  34234  290.83 0854.53
2009/04/23 14:04:18.9    -138   -302   -111    333    351 204.6 -23.6  34234  290.83 0854.53
2009/04/23 14:04:19.0     -99   -275    -30    293    295 200.0  -6.0  34248  291.05 0854.53
2009/04/23 14:04:19.1     -32   -320    -40    322    325 185.8  -7.2  34244  290.99 0854.53
2009/04/23 14:04:19.2       5   -335    -32    336    338 179.0  -5.6  34228  290.72 0854.53
2009/04/23 14:04:19.3      12   -281    -66    282    290 177.4 -13.2  34230  290.76 0854.53
2009/04/23 14:04:19.4    -115   -273    -97    297    313 202.9 -18.1  34234  290.83 0854.53
2009/04/23 14:04:19.5    -141   -349    -34    377    379 202.1  -5.2  34236  290.86 0854.53
2009/04/23 14:04:19.6    -159   -252    -16    299    300 212.3  -3.1  34230  290.76 0854.51
2009/04/23 14:04:19.7     103   -130    -55    167    176 141.5 -18.3  34224  290.67 0854.51
2009/04/23 14:04:19.8      94   -204     28    225    227 155.3   7.1  34230  290.75 0854.51
2009/04/23 14:04:19.9      64   -192     39    203    207 161.5  11.0  34232  290.81 0854.51
2009/04/23 14:04:20.0     -23    -95     14     98    100 193.8   8.5  34236  290.86 0854.51
2009/04/23 14:04:20.1     -11    -58    -38     60     71 190.7 -39.9  34236  290.87 0854.51
2009/04/23 14:04:20.2      22   -115    -28    118    122 168.9 -13.3  34234  290.82 0854.51
2009/04/23 14:04:20.3     -13   -176   -124    177    216 184.5 -43.2  34240  290.92 0854.51
2009/04/23 14:04:20.4      -9   -219   -140    220    260 182.5 -39.9  34234  290.83 0854.51
2009/04/23 14:04:20.5      69   -162    -68    177    189 156.8 -26.4  34232  290.81 0854.51
2009/04/23 14:04:20.6      55    -97    -40    112    118 150.1 -24.8  34232  290.79 0854.51
2009/04/23 14:04:20.7       5    -68    -11     69     70 175.6  -9.3  34238  290.89 0854.51
2009/04/23 14:04:20.8     -15      5    -37     16     40 288.6 -79.4  34236  290.87 0854.51
2009/04/23 14:04:20.9      17     64    -41     67     78  15.1 -38.8  34236  290.87 0854.51
2009/04/23 14:04:21.0      48     85    -90     98    133  29.4 -52.3  34242  290.98 0854.51
2009/04/23 14:04:21.1     108     63    -61    126    139  59.8 -31.7  34236  290.87 0854.51
2009/04/23 14:04:21.2     141     46    -50    149    158  71.8 -18.7  34238  290.89 0854.51
2009/04/23 14:04:21.3     123    -24    -80    126    149 101.0 -39.9  34238  290.89 0854.51
2009/04/23 14:04:21.4     148     36   -140    153    207  76.3 -51.9  34234  290.82 0854.51
2009/04/23 14:04:21.5     144    135   -134    198    239  46.7 -41.8  34234  290.82 0854.51
2009/04/23 14:04:21.6     167    -83   -149    187    239 116.4 -47.1  34232  290.81 0854.48
2009/04/23 14:04:21.7     162    -51   -103    170    198 107.5 -38.4  34230  290.77 0854.48
2009/04/23 14:04:21.8     196    -15    -81    197    213  94.4 -27.8  34230  290.75 0854.48
2009/04/23 14:04:21.9     247     74     33    258    261  73.2   7.5  34226  290.68 0854.48
2009/04/23 14:04:22.0     196     14    159    197    253  85.9  43.3  34232  290.80 0854.48
2009/04/23 14:04:22.1     113     38    142    120    185  71.4  55.8  34226  290.70 0854.48
2009/04/23 14:04:22.2      26     49    135     56    146  28.1  77.0  34244  291.01 0854.48
2009/04/23 14:04:22.3       5     41    125     42    131   7.1  81.0  34244  290.99 0854.48
2009/04/23 14:04:22.4     -12     16    151     21    152 322.2  90.0  34258  291.23 0854.48
2009/04/23 14:04:22.5     -19     43    114     48    123 336.4  76.1  34246  291.04 0854.48
2009/04/23 14:04:22.6     -71     82    135    109    173 319.0  56.9  34240  290.94 0854.48
2009/04/23 14:04:22.7    -142     86    137    167    216 301.3  43.7  34230  290.77 0854.48
2009/04/23 14:04:22.8    -155    123    100    199    222 308.4  28.7  34230  290.75 0854.48
2009/04/23 14:04:22.9    -231    147     82    275    288 302.5  16.6  34230  290.75 0854.48
2009/04/23 14:04:23.0    -281    164    114    326    345 300.2  20.0  34244  291.00 0854.48
2009/04/23 14:04:23.1    -318    122      4    341    342 291.1   0.7  34256  291.20 0854.48
2009/04/23 14:04:23.2    -392    258    -33    470    472 303.3  -4.1  34258  291.22 0854.48
2009/04/23 14:04:23.3    -341    290     87    448    457 310.4  11.0  34250  291.09 0854.48
2009/04/23 14:04:23.4    -205    266    172    336    377 322.4  29.3  34264  291.35 0854.48
2009/04/23 14:04:23.5    -161    338    131    375    398 334.5  19.3  34252  291.13 0854.48
2009/04/23 14:04:23.6    -202    316    117    376    394 327.4  17.3  34260  291.27 0854.46
2009/04/23 14:04:23.7    -248    179     47    306    310 305.9   8.9  34260  291.27 0854.46
2009/04/23 14:04:23.8    -250     72    101    261    279 286.0  22.1  34272  291.48 0854.46
2009/04/23 14:04:23.9    -273    -79    173    285    333 253.8  34.1  34258  291.24 0854.46
2009/04/23 14:04:24.0    -196    -25     26    198    200 262.5   7.5  34264  291.33 0854.46
2009/04/23 14:04:24.1     -92   -287    107    302    320 197.9  20.2  34242  290.97 0854.46
2009/04/23 14:04:24.2     -91   -346     70    358    365 194.8  11.1  34230  290.77 0854.46
2009/04/23 14:04:24.3    -128   -514    109    530    542 194.1  11.7  34230  290.75 0854.46
2009/04/23 14:04:24.4    -115   -505    237    519    570 192.9  26.2  34238  290.89 0854.46
2009/04/23 14:04:24.5      -8   -454    237    455    513 181.1  29.8  34238  290.88 0854.46
2009/04/23 14:04:24.6      21   -416    196    417    460 177.0  27.1  34230  290.77 0854.46
2009/04/23 14:04:24.7      66   -388    136    394    417 170.3  19.1  34232  290.80 0854.46
2009/04/23 14:04:24.8      30   -395    101    397    410 175.6  14.3  34228  290.72 0854.46
2009/04/23 14:04:24.9      30   -386     60    388    393 175.5   8.9  34226  290.69 0854.46
2009/04/23 14:04:25.0      20   -358    111    359    376 176.8  17.3  34230  290.76 0854.46
2009/04/23 14:04:25.1     -26   -336    161    338    374 184.5  27.3  34228  290.72 0854.46
2009/04/23 14:04:25.2      -3   -240    122    241    270 180.9  28.7  34234  290.83 0854.46
2009/04/23 14:04:25.3      45   -167     27    174    177 164.9   8.8  34230  290.77 0854.46
2009/04/23 14:04:25.4      12   -143    -33    144    148 175.1 -12.9  34232  290.79 0854.46
2009/04/23 14:04:25.5     -58   -219    -71    227    239 195.1 -17.5  34230  290.75 0854.46
2009/04/23 14:04:25.6     -68   -286    -89    294    308 193.4 -16.8  34236  290.87 0854.46
2009/04/23 14:04:25.7     -20   -267    -66    268    277 184.5 -13.9  34240  290.93 0854.46
2009/04/23 14:04:25.8     -25   -236     -9    238    239 186.3  -2.2  34240  290.93 0854.46
2009/04/23 14:04:25.9     -50   -252    106    258    278 191.3  23.4  34242  290.95 0854.46
2009/04/23 14:04:26.0     -66   -323    106    330    347 191.6  17.9  34234  290.83 0854.46
2009/04/23 14:04:26.1     -62   -306     69    313    321 191.5  12.5  34234  290.83 0854.46
2009/04/23 14:04:26.2     -45   -238    119    243    270 190.7  27.8  34240  290.93 0854.46
2009/04/23 14:04:26.3     -52   -260     95    266    282 191.5  20.4  34242  290.97 0854.46
2009/04/23 14:04:26.4     -10   -232     82    233    247 182.5  20.0  34246  291.02 0854.46
2009/04/23 14:04:26.5     -50   -160    108    168    199 197.4  35.7  34244  291.01 0854.46
2009/04/23 14:04:26.6      -6    -99     99    100    140 183.6  50.0  34244  291.01 0854.46
2009/04/23 14:04:26.7      72    -98    118    122    169 143.5  49.4  34252  291.15 0854.46
2009/04/23 14:04:26.8     113   -208    141    237    275 151.5  33.5  34240  290.92 0854.46
2009/04/23 14:04:26.9     -45   -256    249    261    360 190.0  48.6  34232  290.79 0854.46
2009/04/23 14:04:27.0       0   -172    238    173    294 180.2  60.5  34234  290.82 0854.46
2009/04/23 14:04:27.1     116   -187     86    221    237 148.1  22.3  34230  290.75 0854.46
2009/04/23 14:04:27.2     159    -96     65    186    198 121.1  19.2  34236  290.87 0854.46
2009/04/23 14:04:27.3      94   -149     79    177    193 147.7  25.9  34238  290.89 0854.46
2009/04/23 14:04:27.4      67   -233     44    243    248 164.0  10.3  34240  290.93 0854.46
2009/04/23 14:04:27.6     144   -185     81    235    249 142.2  19.2  34244  290.99 0854.46
2009/04/23 14:04:27.7      94   -231     78    250    263 157.9  17.4  34248  291.07 0854.46
2009/04/23 14:04:27.7      86   -214     63    231    240 157.9  15.3  34244  291.00 0854.46
2009/04/23 14:04:27.8      76   -158     67    176    188 154.1  21.7  34246  291.03 0854.46
2009/04/23 14:04:27.9      47   -141     81    149    169 161.3  30.8  34246  291.03 0854.46
2009/04/23 14:04:28.0     -41   -169    109    175    206 193.8  35.2  34244  291.01 0854.46
2009/04/23 14:04:28.1     -92   -245    107    262    283 200.7  23.1  34250  291.10 0854.46
2009/04/23 14:04:28.2      26   -283    224    285    362 174.6  42.2  34242  290.96 0854.46
2009/04/23 14:04:28.3      35   -104    173    110    205 161.3  64.7  34262  291.30 0854.46
2009/04/23 14:04:28.4     -92   -240    181    258    315 200.9  38.5  34244  291.00 0854.46
2009/04/23 14:04:28.6     -17   -218    186    219    287 184.5  44.8  34256  291.19 0854.46
2009/04/23 14:04:28.6       0   -229    204    230    307 179.8  46.2  34250  291.10 0854.46
2009/04/23 14:04:28.7       8   -510    306    511    595 179.0  33.7  34238  290.90 0854.46
2009/04/23 14:04:28.8      57   -411    271    415    495 172.1  36.3  34244  291.00 0854.46
2009/04/23 14:04:28.9      34   -410    384    412    563 175.2  47.9  34250  291.10 0854.46
2009/04/23 14:04:29.0      16   -435    283    436    519 177.9  36.0  34242  290.96 0854.46
2009/04/23 14:04:29.1     -10   -345    173    346    386 181.8  28.5  34244  291.00 0854.46
2009/04/23 14:04:29.2      39   -286    126    289    315 172.2  25.0  34254  291.16 0854.46
2009/04/23 14:04:29.4      53   -284    171    290    336 169.3  33.1  34254  291.16 0854.46
2009/04/23 14:04:29.5     -38   -413    197    415    459 185.3  27.2  34248  291.07 0854.46
2009/04/23 14:04:29.6     -13   -446    170    447    478 181.8  21.8  34238  290.88 0854.46
2009/04/23 14:04:29.7     110   -507    191    519    553 167.7  21.1  34236  290.87 0854.46
2009/04/23 14:04:29.8     124   -492    222    508    554 165.8  25.1  34236  290.87 0854.46
2009/04/23 14:04:29.9     -13   -498    285    499    574 181.6  32.3  34244  290.99 0854.46
2009/04/23 14:04:30.0     -88   -570    251    577    629 188.8  25.0  34242  290.95 0854.46
2009/04/23 14:04:30.1       0   -602    182    603    630 180.0  16.8  34242  290.96 0854.46
2009/04/23 14:04:30.2      -7   -403    148    404    430 181.0  21.0  34240  290.92 0854.46
2009/04/23 14:04:30.3       5   -337    133    338    363 179.0  22.7  34240  290.93 0854.46
2009/04/23 14:04:30.4      23   -434    204    435    480 176.9  27.1  34238  290.90 0854.46
2009/04/23 14:04:30.5      13   -408    202    409    456 178.1  28.2  34240  290.94 0854.46
2009/04/23 14:04:30.6     -87   -409    194    419    461 192.1  26.9  34236  290.85 0854.46
2009/04/23 14:04:30.7    -148   -402    151    429    455 200.2  19.4  34238  290.90 0854.47
2009/04/23 14:04:30.8    -102   -213    208    237    315 205.6  45.8  34242  290.95 0854.47
2009/04/23 14:04:30.9    -256   -403    150    478    502 212.5  17.4  34228  290.73 0854.47
2009/04/23 14:04:31.0    -138   -280    135    313    340 206.3  24.8  34238  290.91 0854.47
2009/04/23 14:04:31.1    -139   -368    169    394    428 200.7  24.8  34236  290.87 0854.47
2009/04/23 14:04:31.2     -89   -377    235    388    453 193.4  34.1  34248  291.06 0854.47
2009/04/23 14:04:31.3    -234   -164    -91    286    300 234.9 -22.8  34256  291.21 0854.47
2009/04/23 14:04:31.4     -37   -239    107    242    264 188.9  25.3  34250  291.09 0854.47
2009/04/23 14:04:31.5      58   -193    120    202    234 163.1  33.5  34244  290.99 0854.47
2009/04/23 14:04:31.6     -53   -312    245    317    400 189.8  41.7  34246  291.03 0854.47
2009/04/23 14:04:31.7    -144   -399    169    425    457 199.9  23.0  34234  290.82 0854.47
2009/04/23 14:04:31.8     -30   -410     74    412    419 184.3  10.2  34238  290.90 0854.47
2009/04/23 14:04:31.9     104   -370     -7    385    386 164.3  -1.2  34234  290.83 0854.47
2009/04/23 14:04:32.0      79   -252     95    265    281 162.6  20.4  34234  290.83 0854.47
2009/04/23 14:04:32.1      56   -121    148    134    199 155.1  53.3  34246  291.04 0854.47
2009/04/23 14:04:32.2     147   -112    150    186    238 127.3  43.0  34254  291.16 0854.47
2009/04/23 14:04:32.3     131    -57    148    143    205 113.5  51.2  34256  291.21 0854.47
2009/04/23 14:04:32.4      36    -37    112     52    123 135.9  73.5  34260  291.26 0854.47
2009/04/23 14:04:32.5     249    -77    143    261    297 107.3  31.3  34250  291.09 0854.47
2009/04/23 14:04:32.6     211   -114    156    240    286 118.4  36.0  34248  291.07 0854.47
2009/04/23 14:04:32.7      70   -255    138    265    298 164.6  29.5  34244  291.00 0854.49
2009/04/23 14:04:32.8      -9   -300    178    301    349 181.8  33.5  34242  290.96 0854.49
2009/04/23 14:04:32.9     126   -236     72    268    278 151.9  15.2  34244  290.99 0854.49
2009/04/23 14:04:33.0     107   -267     78    288    299 158.1  15.3  34242  290.97 0854.49
2009/04/23 14:04:33.1      80   -248     66    261    270 162.0  14.3  34236  290.87 0854.49
2009/04/23 14:04:33.2     150   -321    133    355    379 155.0  21.5  34232  290.81 0854.49
2009/04/23 14:04:33.3     149   -180    145    235    276 140.4  34.5  34232  290.80 0854.49
2009/04/23 14:04:33.4      59   -130    174    143    225 155.5  56.4  34224  290.65 0854.49
2009/04/23 14:04:33.5     116    -39    119    123    171 108.6  49.2  34230  290.77 0854.49
2009/04/23 14:04:33.6      90    -57    106    107    150 122.4  50.0  34240  290.92 0854.49
2009/04/23 14:04:33.7       5   -105    104    106    148 176.9  50.0  34238  290.89 0854.49
2009/04/23 14:04:33.8      14    -31    120     35    125 154.7  82.8  34252  291.15 0854.49
2009/04/23 14:04:33.9     -56   -113     88    127    154 206.3  37.6  34236  290.86 0854.49
2009/04/23 14:04:34.0    -106   -166    110    198    226 212.5  31.4  34238  290.91 0854.49
2009/04/23 14:04:34.1    -124    -73    -25    145    148 239.4  -9.8  34232  290.79 0854.49
2009/04/23 14:04:34.2    -170     56   -120    180    216 288.4 -41.4  34236  290.87 0854.49
2009/04/23 14:04:34.3     -47     -7     -7     48     49 261.2  -9.3  34240  290.94 0854.49
2009/04/23 14:04:34.4     -19    -11     -7     23     24 239.3 -23.8  34242  290.98 0854.49
2009/04/23 14:04:34.5     106     67     44    126    134  57.6  19.4  34238  290.89 0854.49
2009/04/23 14:04:34.6     191     79    147    207    253  67.4  38.8  34236  290.87 0854.49
2009/04/23 14:04:34.7     239     18    181    240    300  85.7  40.7  34242  290.95 0854.50
2009/04/23 14:04:34.8     187      4     97    188    211  88.7  29.3  34252  291.13 0854.50
2009/04/23 14:04:34.9      29   -121    146    125    192 166.2  55.4  34240  290.92 0854.50
2009/04/23 14:04:35.0       1   -100    115    101    153 179.1  54.2  34242  290.98 0854.50
2009/04/23 14:04:35.1      85    -88    109    123    164 135.9  46.4  34244  291.01 0854.50
2009/04/23 14:04:35.2     -22   -108     54    111    123 191.5  27.3  34234  290.84 0854.50
2009/04/23 14:04:35.3      12    -65     66     67     94 169.3  50.5  34236  290.86 0854.50
2009/04/23 14:04:35.4     -45    -48     47     67     81 223.2  38.6  34224  290.65 0854.50
2009/04/23 14:04:35.5      32     39     24     51     56  39.6  27.1  34234  290.84 0854.50
2009/04/23 14:04:35.6      20     48     -2     53     54  22.7  -2.2  34232  290.79 0854.50
2009/04/23 14:04:35.7     144    -41    -42    150    155 105.9 -20.4  34226  290.69 0854.50
2009/04/23 14:04:35.8      83     40     72     93    117  64.2  41.7  34226  290.70 0854.50
2009/04/23 14:04:35.9      71     26     93     76    120  69.2  56.4  34242  290.96 0854.50
2009/04/23 14:04:36.0     -20   -102    140    105    175 191.5  59.4  34222  290.64 0854.50
2009/04/23 14:04:36.1      12     -8     81     15     82 122.4  90.0  34224  290.65 0854.50
2009/04/23 14:04:36.2      18    -88     79     90    119 168.4  45.8  34218  290.55 0854.50
2009/04/23 14:04:36.3      86   -155     62    178    189 151.0  19.4  34214  290.50 0854.50
2009/04/23 14:04:36.4     122     -7     43    123    131  93.5  19.4  34208  290.40 0854.50
2009/04/23 14:04:36.5      29     45    178     54    186  32.6  82.8  34218  290.55 0854.50
2009/04/23 14:04:36.6    -142     30    -29    146    149 281.9 -11.3  34230  290.75 0854.50
2009/04/23 14:04:36.7    -215    157    -23    267    269 306.2  -5.1  34200  290.26 0854.50
2009/04/23 14:04:36.8      13     28    -88     32     93  25.3 -84.6  34206  290.36 0854.50
2009/04/23 14:04:36.9      47     39    -17     62     65  50.4 -15.5  34194  290.14 0854.50
2009/04/23 14:04:37.0      48   -120      6    130    131 158.2   2.8  34198  290.23 0854.50
2009/04/23 14:04:37.1      92    -79     23    122    125 130.9  11.0  34192  290.13 0854.50
2009/04/23 14:04:37.2     245     10    109    246    269  87.6  25.7  34184  289.97 0854.50
2009/04/23 14:04:37.3      48     45    122     67    139  46.8  68.9  34202  290.30 0854.50
2009/04/23 14:04:37.4     179     54    200    187    273  73.2  52.2  34172  289.78 0854.50
2009/04/23 14:04:37.5     273     33    255    276    375  83.0  47.7  34190  290.08 0854.50
2009/04/23 14:04:37.6     256    -23    246    258    356  95.3  48.6  34190  290.07 0854.50
2009/04/23 14:04:37.7      77     20    198     80    213  75.0  77.1  34204  290.31 0854.50
2009/04/23 14:04:37.8      14   -211    226    212    309 176.2  52.1  34196  290.17 0854.50
2009/04/23 14:04:37.9      25   -285    226    287    365 174.9  42.3  34182  289.94 0854.50
2009/04/23 14:04:38.0     271   -255    290    373    472 133.2  41.7  34180  289.92 0854.50
2009/04/23 14:04:38.1     216   -186    222    286    362 130.7  41.7  34184  289.98 0854.50
2009/04/23 14:04:38.2      78     10    181     79    197  82.1  75.0  34198  290.21 0854.50
2009/04/23 14:04:38.3     168    -22    131    170    214  97.5  41.6  34190  290.08 0854.50
2009/04/23 14:04:38.4      64    -90    131    111    171 144.4  55.6  34200  290.26 0854.50
2009/04/23 14:04:38.5     -31   -108     85    113    141 196.0  40.7  34186  290.02 0854.50
2009/04/23 14:04:38.6      54     -4    132     55    143  94.3  77.0  34198  290.21 0854.50
2009/04/23 14:04:38.7       1    -39    166     40    170 177.3  86.7  34198  290.23 0854.51
2009/04/23 14:04:38.8      -7     44     26     45     51 350.2  32.4  34194  290.16 0854.51
2009/04/23 14:04:38.9     -28     68    -76     74    106 337.3 -54.5  34194  290.14 0854.51
2009/04/23 14:04:39.0       8     77    -74     78    107   6.2 -52.9  34194  290.16 0854.51
2009/04/23 14:04:39.1      31    132    -32    136    140  13.4 -13.4  34188  290.04 0854.51
2009/04/23 14:04:39.2     -81    152    102    173    200 331.7  33.4  34188  290.04 0854.51
2009/04/23 14:04:39.3     -18     41     75     45     87 336.4  65.7  34196  290.18 0854.51
2009/04/23 14:04:39.4     -69    -98    228    121    258 215.2  69.8  34196  290.18 0854.51
2009/04/23 14:04:39.5    -199    -66    157    210    262 251.6  40.4  34208  290.37 0854.51
2009/04/23 14:04:39.6    -164   -198    129    258    288 219.6  28.5  34192  290.10 0854.51
2009/04/23 14:04:39.7    -205   -226     66    306    314 222.3  12.3  34188  290.05 0854.51
2009/04/23 14:04:39.8    -212   -128     91    248    264 238.9  20.9  34194  290.14 0854.51
2009/04/23 14:04:39.9    -250    -80    -62    263    271 252.2 -13.4  34196  290.19 0854.51
2009/04/23 14:04:40.0    -256     23     43    258    262 275.2   9.5  34208  290.39 0854.51
2009/04/23 14:04:40.1    -328   -108     -9    346    347 251.7  -1.6  34220  290.59 0854.51
2009/04/23 14:04:40.2    -431   -238   -102    493    504 241.1 -11.8  34218  290.57 0854.51
2009/04/23 14:04:40.3    -309   -404    133    509    527 217.4  14.7  34176  289.85 0854.51
2009/04/23 14:04:40.4    -276   -276    -10    391    392 225.1  -1.6  34172  289.79 0854.51
2009/04/23 14:04:40.5    -199   -288     99    351    365 214.6  15.8  34186  290.01 0854.51
2009/04/23 14:04:40.6    -246   -178    146    304    337 234.0  27.4  34200  290.26 0854.51
2009/04/23 14:04:40.7    -274   -194    173    336    377 234.7  29.3  34188  290.03 0854.51
2009/04/23 14:04:40.8    -151   -220    226    267    349 214.5  44.4  34180  289.92 0854.51
2009/04/23 14:04:40.9    -145    -68    179    161    240 244.8  53.3  34192  290.13 0854.51
2009/04/23 14:04:41.0    -150    -76    115    169    204 243.0  37.6  34210  290.41 0854.51
2009/04/23 14:04:41.1    -101   -141    145    174    226 215.6  43.8  34210  290.43 0854.51
2009/04/23 14:04:41.2     -83   -163     57    184    193 207.0  17.3  34200  290.25 0854.51
2009/04/23 14:04:41.3      -2   -148     -5    149    150 180.9  -2.2  34190  290.08 0854.51
2009/04/23 14:04:41.4     -50    -90     16    104    106 209.0   9.0  34198  290.21 0854.51
2009/04/23 14:04:41.5     -62    -34     89     71    113 241.1  56.9  34214  290.50 0854.51
2009/04/23 14:04:41.6    -113    -26     58    117    130 256.7  27.8  34228  290.72 0854.51
2009/04/23 14:04:41.7     -94     19      7     97     98 281.9   4.4  34220  290.60 0854.51
2009/04/23 14:04:41.8    -159      1     35    160    164 270.4  12.4  34210  290.43 0854.51
2009/04/23 14:04:41.9    -161     51    113    169    203 287.7  37.0  34228  290.74 0854.51
2009/04/23 14:04:42.0    -158    150     73    219    232 313.6  18.6  34212  290.47 0854.51
2009/04/23 14:04:42.1    -132    114     69    175    188 310.9  22.8  34206  290.36 0854.51
2009/04/23 14:04:42.2    -120     93     31    153    157 307.8  11.6  34210  290.41 0854.51
2009/04/23 14:04:42.3    -125     -1     77    126    147 269.2  35.0  34206  290.35 0854.51
2009/04/23 14:04:42.4     -58     25    121     64    136 293.5  70.4  34216  290.52 0854.51
2009/04/23 14:04:42.5      70     14    133     72    151  78.6  68.9  34212  290.45 0854.51
2009/04/23 14:04:42.6     257    -21    199    258    325  94.8  41.5  34210  290.41 0854.51
2009/04/23 14:04:42.7     114   -113    162    161    228 134.8  50.1  34200  290.25 0854.51
2009/04/23 14:04:42.8     129   -326     64    351    357 158.4  10.3  34194  290.15 0854.51
2009/04/23 14:04:42.9     143   -299     50    332    336 154.4   8.7  34188  290.06 0854.51
2009/04/23 14:04:43.0      -1   -398     39    399    401 180.3   5.7  34184  289.98 0854.51
2009/04/23 14:04:43.1    -104   -536     71    547    552 191.0   7.4  34172  289.77 0854.51
2009/04/23 14:04:43.2    -309   -594    -14    670    671 207.5  -1.3  34186  290.02 0854.51
2009/04/23 14:04:43.3    -294   -568     83    640    646 207.4   7.5  34168  289.72 0854.51
2009/04/23 14:04:43.4     -72   -562      8    567    568 187.4   0.8  34196  290.18 0854.51
2009/04/23 14:04:43.5    -200   -524    203    562    598 200.9  19.9  34196  290.19 0854.51
2009/04/23 14:04:43.6    -355   -505    132    618    633 215.1  12.1  34194  290.15 0854.51
2009/04/23 14:04:43.7    -197   -285    177    347    389 214.7  29.3  34196  290.18 0854.51
2009/04/23 14:04:43.8    -120   -147    219    190    289 219.2  54.6  34196  290.19 0854.51
2009/04/23 14:04:43.9     155   -128    225    202    302 129.5  53.3  34206  290.36 0854.51
2009/04/23 14:04:44.0     266   -164    161    313    351 121.8  29.3  34182  289.93 0854.51
2009/04/23 14:04:44.1     110    -46    179    120    215 112.6  63.2  34204  290.31 0854.51
2009/04/23 14:04:44.2       6    -61     89     62    108 173.8  62.1  34208  290.40 0854.51
2009/04/23 14:04:44.3     -57   -170    101    180    206 198.5  31.4  34186  290.01 0854.51
2009/04/23 14:04:44.4    -112   -193     93    224    242 210.1  23.8  34186  290.02 0854.51
2009/04/23 14:04:44.5    -182   -182    -18    258    259 225.0  -4.1  34186  290.02 0854.51
2009/04/23 14:04:44.6     -60    -49    -78     78    110 230.5 -54.5  34192  290.11 0854.51
2009/04/23 14:04:44.7      73    -20    -26     76     80 105.9 -23.8  34196  290.19 0854.52
2009/04/23 14:04:44.8     114     -7     21    115    117  93.5  10.6  34192  290.13 0854.52
2009/04/23 14:04:44.9     136    -87     26    162    165 122.5   9.3  34194  290.14 0854.52
2009/04/23 14:04:45.0     121    -77    -46    144    151 122.5 -23.8  34190  290.08 0854.52
2009/04/23 14:04:45.1      12   -131    -78    132    153 174.7 -37.9  34198  290.23 0854.52
2009/04/23 14:04:45.2      34    -97    -81    104    131 160.4 -46.1  34196  290.19 0854.52
2009/04/23 14:04:45.3       5    -59    -54     60     80 174.7 -51.3  34194  290.16 0854.52
2009/04/23 14:04:45.4    -102    -97    -25    141    144 226.4 -10.3  34190  290.08 0854.52
2009/04/23 14:04:45.5    -176   -103    -61    205    213 239.6 -21.7  34192  290.13 0854.52
2009/04/23 14:04:45.6    -242   -169    -60    296    302 235.1 -11.5  34198  290.20 0854.52
2009/04/23 14:04:45.7    -174   -133    -12    220    221 232.7  -3.3  34198  290.23 0854.52
2009/04/23 14:04:45.8    -193    -33    101    196    220 260.3  29.3  34198  290.21 0854.52
2009/04/23 14:04:45.9    -238     12    -25    239    241 273.0  -6.1  34198  290.20 0854.52
2009/04/23 14:04:46.0    -231     13    -39    232    236 273.3  -9.6  34200  290.26 0854.52
2009/04/23 14:04:46.1    -295    -41    -74    298    308 262.1 -14.1  34204  290.31 0854.52
2009/04/23 14:04:46.2    -443    -95   -159    454    481 257.9 -24.4  34186  290.00 0854.52
2009/04/23 14:04:46.3    -311   -254    -17    402    403 230.8  -2.5  34186  290.02 0854.52
2009/04/23 14:04:46.4    -372   -435     -3    573    574 220.6  -0.4  34180  289.91 0854.52
2009/04/23 14:04:46.5    -747   -169   -161    767    784 257.2 -11.9  34200  290.24 0854.52
2009/04/23 14:04:46.6    -599   -196   -156    631    651 251.8 -13.9  34204  290.32 0854.52
2009/04/23 14:04:46.7    -689   -380    -41    787    789 241.1  -3.0  34200  290.25 0854.52
2009/04/23 14:04:46.8    -760   -191   -113    784    793 255.9  -8.2  34206  290.34 0854.52
2009/04/23 14:04:46.9    -648   -357   -138    740    753 241.1 -10.6  34208  290.38 0854.52
2009/04/23 14:04:47.0    -633   -325    220    712    746 242.8  17.2  34190  290.07 0854.52
2009/04/23 14:04:47.1    -636   -397    109    750    759 238.0   8.3  34192  290.11 0854.52
2009/04/23 14:04:47.2    -648   -176   -214    672    705 254.8 -22.8  34216  290.53 0854.52
2009/04/23 14:04:47.3    -293   -610   -133    677    691 205.7 -11.1  34192  290.10 0854.52
2009/04/23 14:04:47.4    -256   -537    -44    595    597 205.5  -4.2  34184  289.98 0854.52
2009/04/23 14:04:47.5    -208   -366    -69    422    428 209.6  -9.3  34186  290.00 0854.52
2009/04/23 14:04:47.6    -236   -322    123    400    419 216.3  17.2  34196  290.19 0854.52
2009/04/23 14:04:47.7    -206   -342   -116    400    417 211.0 -16.2  34192  290.12 0854.53
2009/04/23 14:04:47.8    -204   -364   -133    418    438 209.3 -22.8  34186  290.02 0854.53
2009/04/23 14:04:47.9    -193   -346    -65    397    403 209.2  -9.3  34182  289.94 0854.53
2009/04/23 14:04:48.0    -149   -316   -115    350    369 205.3 -18.3  34180  289.91 0854.53
2009/04/23 14:04:48.1      60   -320   -116    326    346 169.3 -24.7  34188  290.04 0854.53
2009/04/23 14:04:48.2    -221   -505   -194    552    585 203.6 -24.6  34182  289.95 0854.53
2009/04/23 14:04:48.3    -163   -426   -136    457    476 201.0 -21.5  34174  289.81 0854.53
2009/04/23 14:04:48.4    -166   -375   -245    411    478 203.9 -38.1  34180  289.90 0854.53
2009/04/23 14:04:48.5    -190   -174   -177    258    312 227.6 -42.2  34208  290.39 0854.53
2009/04/23 14:04:48.6    -248    -42   -139    252    287 260.3 -35.8  34200  290.26 0854.53
2009/04/23 14:04:48.7     -36    -20    -75     42     85 241.1 -72.7  34210  290.43 0854.53
2009/04/23 14:04:48.8      12     -8    -57     15     58 126.0 -89.3  34210  290.43 0854.53
2009/04/23 14:04:48.9     100    -40      2    108    109 111.8   1.2  34202  290.30 0854.53
2009/04/23 14:04:49.0     254   -304     47    397    400 140.1   6.9  34194  290.15 0854.53
2009/04/23 14:04:49.1     238   -253     26    348    349 136.7   4.3  34188  290.06 0854.53
2009/04/23 14:04:49.2     281   -232   -112    365    381 129.5 -22.1  34184  289.98 0854.53
2009/04/23 14:04:49.3     194   -323    -53    378    382 149.0  -8.1  34192  290.11 0854.53
2009/04/23 14:04:49.4     273   -301    -46    407    410 137.8  -6.6  34186  290.00 0854.53
2009/04/23 14:04:49.5     301   -176     50    349    353 120.4   8.2  34184  289.99 0854.53
2009/04/23 14:04:49.6     261   -147    106    300    318 119.5  20.3  34184  289.98 0854.53
2009/04/23 14:04:49.7     255   -270    128    372    394 136.7  19.1  34198  290.23 0854.52
2009/04/23 14:04:49.8     180   -319    -14    367    368 150.5  -2.2  34188  290.06 0854.52
2009/04/23 14:04:49.9     203   -347     98    403    415 149.6  13.7  34176  289.83 0854.52
2009/04/23 14:04:50.0     312   -332    159    456    484 136.8  19.3  34184  289.98 0854.52
2009/04/23 14:04:50.1     284   -334    239    439    499 139.6  30.9  34186  290.01 0854.52
2009/04/23 14:04:50.2     215   -349    218    410    464 148.4  30.3  34182  289.94 0854.52
2009/04/23 14:04:50.3     154   -455    234    481    534 161.3  27.8  34196  290.17 0854.52
2009/04/23 14:04:50.4     181   -355    269    399    481 152.9  37.2  34194  290.16 0854.52
2009/04/23 14:04:50.5     111   -483    288    496    573 167.0  32.8  34194  290.14 0854.52
2009/04/23 14:04:50.6      21   -467    239    468    525 177.3  29.2  34192  290.12 0854.52
2009/04/23 14:04:50.7     -20   -442    307    443    538 182.6  38.1  34188  290.06 0854.52
2009/04/23 14:04:50.8    -113   -349    294    368    471 198.0  42.7  34182  289.94 0854.52
2009/04/23 14:04:50.9     -88   -220    287    238    372 201.8  56.3  34192  290.13 0854.52
2009/04/23 14:04:51.0     -44   -413    210    416    466 186.1  28.9  34190  290.07 0854.52
2009/04/23 14:04:51.1     -13   -381    351    382    518 182.0  47.3  34192  290.12 0854.52
2009/04/23 14:04:51.2      67   -498    345    503    609 172.3  37.7  34184  289.97 0854.52
2009/04/23 14:04:51.3     204   -438    316    484    578 155.1  36.2  34192  290.11 0854.52
2009/04/23 14:04:51.4     120   -405    259    423    495 163.5  34.4  34186  290.00 0854.52
2009/04/23 14:04:51.5     161   -494    198    520    556 161.9  22.0  34186  290.02 0854.52
2009/04/23 14:04:51.6     217   -424    232    477    530 152.9  27.8  34192  290.10 0854.52
2009/04/23 14:04:51.7     178   -414    272    451    526 156.7  34.0  34188  290.06 0854.52
2009/04/23 14:04:51.8      51   -346    323    350    476 171.5  47.5  34196  290.19 0854.52
2009/04/23 14:04:51.9     130   -334    274    359    451 158.6  41.3  34196  290.19 0854.52
2009/04/23 14:04:52.0     199   -211    232    291    372 136.7  42.6  34200  290.25 0854.52
2009/04/23 14:04:52.1     147   -268    192    306    361 151.1  35.3  34198  290.21 0854.52
2009/04/23 14:04:52.2     116   -243    193    270    331 154.5  39.1  34208  290.37 0854.52
2009/04/23 14:04:52.3     109   -183    184    214    282 149.2  45.4  34204  290.31 0854.52
2009/04/23 14:04:52.4      78   -216    187    230    296 160.0  43.7  34212  290.44 0854.52
2009/04/23 14:04:52.5     -87   -305    215    318    383 196.0  37.3  34200  290.25 0854.52
2009/04/23 14:04:52.6    -188   -379    178    424    459 206.4  24.2  34196  290.17 0854.52
2009/04/23 14:04:52.7    -203   -398    253    447    513 207.1  32.0  34198  290.23 0854.52
2009/04/23 14:04:52.8    -104   -390    191    404    446 195.1  27.1  34210  290.43 0854.52
2009/04/23 14:04:52.9    -160   -287    206    329    388 209.1  35.3  34216  290.52 0854.52
2009/04/23 14:04:53.0    -154   -340    169    374    410 204.3  26.0  34214  290.50 0854.52
2009/04/23 14:04:53.1    -235   -322    123    399    418 216.1  17.2  34208  290.39 0854.52
2009/04/23 14:04:53.2    -302   -319    221    440    492 223.5  28.7  34228  290.74 0854.52
2009/04/23 14:04:53.3    -187   -425    112    465    479 203.8  13.6  34206  290.34 0854.52
2009/04/23 14:04:53.4     -64   -410     89    416    426 188.9  12.2  34194  290.16 0854.52
2009/04/23 14:04:53.5     -17   -310    137    311    339 183.1  25.3  34194  290.15 0854.52
2009/04/23 14:04:53.6    -158   -413    175    443    476 201.0  22.7  34198  290.23 0854.52
2009/04/23 14:04:53.7    -213   -603     19    640    641 199.5   1.8  34208  290.38 0854.52
2009/04/23 14:04:53.8    -378   -459     62    595    599 219.5   6.0  34206  290.34 0854.52
2009/04/23 14:04:53.9    -233   -371    255    439    507 212.1  32.9  34186  290.01 0854.52
2009/04/23 14:04:54.0      14   -136    302    137    331 173.8  74.1  34214  290.49 0854.52
2009/04/23 14:04:54.1      70   -167    247    182    306 157.1  60.5  34214  290.48 0854.52
2009/04/23 14:04:54.2      75     -2    223     76    235  91.7  81.0  34230  290.77 0854.52
2009/04/23 14:04:54.3     128   -177    227    219    315 144.0  51.1  34202  290.29 0854.52
2009/04/23 14:04:54.4       6   -235    278    236    364 178.4  55.5  34206  290.36 0854.52
2009/04/23 14:04:54.5     -38   -105    204    112    232 200.0  68.8  34208  290.38 0854.52
2009/04/23 14:04:54.6     -18   -186    106    187    214 185.8  31.9  34202  290.28 0854.52
2009/04/23 14:04:54.7      53   -233     35    240    243 167.1   8.5  34194  290.14 0854.52
2009/04/23 14:04:54.8      91   -326     72    339    347 164.4  12.0  34198  290.21 0854.52
2009/04/23 14:04:54.9      86   -363    -60    374    379 166.6  -9.1  34198  290.20 0854.52
2009/04/23 14:04:55.0      86   -361   -173    372    410 166.5 -31.0  34198  290.21 0854.52
2009/04/23 14:04:55.1      16   -321   -263    322    415 177.0 -47.9  34210  290.42 0854.52
2009/04/23 14:04:55.2    -190   -119    -18    225    226 238.0  -4.6  34196  290.19 0854.52
2009/04/23 14:04:55.3     -45    -42   -120     62    135 226.9 -75.2  34210  290.41 0854.52
2009/04/23 14:04:55.4      84    -35    -31     92     97 112.6 -23.6  34214  290.48 0854.52
2009/04/23 14:04:55.5     207   -106     49    233    239 117.1  12.0  34208  290.39 0854.52
2009/04/23 14:04:55.6     218   -180    114    283    305 129.5  23.1  34208  290.39 0854.52
2009/04/23 14:04:55.7     172   -221    114    281    303 142.2  23.1  34216  290.53 0854.52
2009/04/23 14:04:55.8     112   -241    171    266    316 155.1  35.7  34218  290.56 0854.52
2009/04/23 14:04:55.9       5   -190    139    191    236 178.4  39.7  34224  290.67 0854.52
2009/04/23 14:04:56.0      -3    -46     90     47    101 184.5  70.4  34230  290.75 0854.52
2009/04/23 14:04:56.1     112   -179    117    212    242 147.9  31.4  34218  290.57 0854.52
2009/04/23 14:04:56.2     120   -216     83    248    262 151.0  18.6  34218  290.54 0854.52
2009/04/23 14:04:56.3      53   -219     33    226    229 166.4   8.5  34218  290.55 0854.52
2009/04/23 14:04:56.4      52   -196     59    203    212 165.1  16.3  34222  290.62 0854.52
2009/04/23 14:04:56.5       5   -210     87    211    228 178.6  23.4  34218  290.57 0854.52
2009/04/23 14:04:56.6     -24   -176     48    178    185 188.0  15.3  34218  290.57 0854.52
2009/04/23 14:04:56.7      -1   -129    131    130    184 180.8  49.9  34226  290.69 0854.52
2009/04/23 14:04:56.8     186   -142    141    235    274 127.3  33.7  34226  290.68 0854.52
2009/04/23 14:04:56.9     168   -245    168    298    342 145.5  32.0  34222  290.61 0854.52
2009/04/23 14:04:57.0     190   -455    179    494    526 157.3  19.9  34204  290.32 0854.52
2009/04/23 14:04:57.1     116   -436    252    452    517 165.1  31.5  34206  290.35 0854.52
2009/04/23 14:04:57.3      80   -449    144    457    480 169.9  17.5  34204  290.32 0854.52
2009/04/23 14:04:57.4     261   -414     15    490    491 147.7   1.8  34206  290.35 0854.52
2009/04/23 14:04:57.5      -4   -349     85    350    361 180.8  13.7  34208  290.37 0854.52
2009/04/23 14:04:57.6       9   -660    237    661    702 179.2  20.7  34204  290.31 0854.52
2009/04/23 14:04:57.7    -115   -542    137    555    572 192.1  13.9  34194  290.14 0854.52
2009/04/23 14:04:57.8    -121   -553    171    567    593 192.4  16.8  34196  290.19 0854.52
2009/04/23 14:04:57.9     -85   -359     70    370    377 193.4  10.7  34202  290.28 0854.52
2009/04/23 14:04:58.0     107   -157    188    191    268 145.7  49.8  34204  290.32 0854.52
2009/04/23 14:04:58.1     139   -219     74    260    271 147.5  16.0  34198  290.20 0854.52
2009/04/23 14:04:58.2     144   -203    261    250    361 144.6  51.4  34206  290.34 0854.52
2009/04/23 14:04:58.3      50   -268    259    273    376 169.4  48.4  34212  290.47 0854.52
2009/04/23 14:04:58.4     -67   -461    266    466    536 188.3  32.3  34194  290.15 0854.52
2009/04/23 14:04:58.5       0   -283     18    284    285 180.0   3.8  34196  290.17 0854.52
2009/04/23 14:04:58.6      77    -90    -49    119    128 139.5 -28.0  34194  290.14 0854.52
2009/04/23 14:04:58.7     135     24    -32    138    142  79.9 -13.4  34198  290.21 0854.52
2009/04/23 14:04:58.8     157     76     88    175    195  64.0  28.7  34204  290.31 0854.52
2009/04/23 14:04:58.9      30     39    136     50    144  37.0  79.2  34224  290.67 0854.52
2009/04/23 14:04:59.0      31     31    123     45    130  45.0  79.2  34214  290.50 0854.52
2009/04/23 14:04:59.1      46   -166     71    173    187 164.4  23.6  34210  290.41 0854.52
2009/04/23 14:04:59.2      97   -205     99    227    247 154.7  25.1  34202  290.27 0854.52
2009/04/23 14:04:59.3      95   -256    172    274    323 159.5  35.2  34200  290.24 0854.52
2009/04/23 14:04:59.4     182   -296    222    348    412 148.4  35.6  34208  290.40 0854.52
2009/04/23 14:04:59.5      96   -252    129    270    299 159.1  27.3  34198  290.22 0854.52
2009/04/23 14:04:59.6      97   -246    141    265    300 158.4  30.3  34200  290.24 0854.52
2009/04/23 14:04:59.7     -60   -298    203    305    366 191.5  36.9  34204  290.32 0854.52
2009/04/23 14:04:59.8    -133   -289    130    319    344 204.7  23.4  34198  290.23 0854.53
2009/04/23 14:04:59.9    -194   -237     80    307    318 219.4  14.6  34202  290.29 0854.53
2009/04/23 14:05:00.0    -146   -216      7    261    262 214.1   1.7  34206  290.34 0854.53
2009/04/23 14:05:00.1    -214   -256   -101    334    350 219.9 -16.9  34216  290.52 0854.53
2009/04/23 14:05:00.2    -246   -211     13    325    326 229.3   2.3  34228  290.71 0854.53
2009/04/23 14:05:00.3    -198   -227    -38    302    305 221.0  -7.3  34220  290.58 0854.53
2009/04/23 14:05:00.4    -276   -328     56    430    434 220.1   7.5  34222  290.63 0854.53
2009/04/23 14:05:00.5    -334   -336    -64    474    479 224.8  -7.7  34210  290.42 0854.53
2009/04/23 14:05:00.6    -111   -331     49    350    354 198.6   8.1  34216  290.52 0854.53
2009/04/23 14:05:00.7    -217   -286   -107    360    376 217.2 -16.6  34222  290.62 0854.53
2009/04/23 14:05:00.8     -76   -317     16    327    328 193.6   2.9  34214  290.49 0854.53
2009/04/23 14:05:00.9    -171   -231    230    288    368 216.5  42.9  34214  290.49 0854.53
2009/04/23 14:05:01.0    -267   -109     30    289    291 247.8   6.1  34212  290.44 0854.53
2009/04/23 14:05:01.1    -216   -260    -48    339    343 219.8  -8.1  34208  290.38 0854.53
2009/04/23 14:05:01.2    -171   -155     40    232    236 227.8  10.0  34210  290.41 0854.53
2009/04/23 14:05:01.3     -67   -227      2    237    238 196.5   0.5  34208  290.37 0854.53
2009/04/23 14:05:01.4       0   -231     70    232    243 180.0  16.8  34206  290.34 0854.53
2009/04/23 14:05:01.5      28    -78     72     84    110 160.0  44.8  34206  290.35 0854.53
2009/04/23 14:05:01.6     -85    -43    -68     96    117 242.9 -43.9  34212  290.47 0854.53
2009/04/23 14:05:01.7      16     34    -87     38     94  25.3 -79.4  34218  290.55 0854.53
2009/04/23 14:05:01.8      99    131    -54    165    174  37.0 -18.3  34220  290.60 0854.52
2009/04/23 14:05:01.9     -49    102     -4    114    115 334.1  -2.2  34218  290.55 0854.52
2009/04/23 14:05:02.0    -140     55     29    151    154 291.7  11.1  34216  290.53 0854.52
2009/04/23 14:05:02.1    -208    -90     -5    227    228 246.5  -1.3  34218  290.55 0854.52
2009/04/23 14:05:02.2    -177   -175     36    249    252 225.3   8.2  34220  290.59 0854.52
2009/04/23 14:05:02.3     -51   -465    -14    468    469 186.3  -1.8  34212  290.47 0854.52
2009/04/23 14:05:02.4    -119   -470    139    486    506 194.3  16.0  34202  290.30 0854.52
2009/04/23 14:05:02.5     -32   -583    230    584    627 183.2  22.7  34184  289.98 0854.52
2009/04/23 14:05:02.6      91   -641    351    648    736 171.9  30.8  34202  290.28 0854.52
2009/04/23 14:05:02.7     125   -523    260    538    597 166.5  27.7  34198  290.20 0854.52
2009/04/23 14:05:02.8     215   -495    247    540    593 156.5  26.2  34200  290.25 0854.52
2009/04/23 14:05:02.9     301   -489     54    575    578 148.4   5.4  34200  290.25 0854.52
2009/04/23 14:05:03.0     154   -455     -2    481    482 161.3  -0.3  34194  290.15 0854.52
2009/04/23 14:05:03.1      -8   -463    123    464    481 181.0  14.9  34192  290.10 0854.52
2009/04/23 14:05:03.2      93   -376    184    388    429 166.0  27.2  34208  290.38 0854.52
2009/04/23 14:05:03.3       9   -318    203    319    378 178.2  35.5  34204  290.33 0854.52
2009/04/23 14:05:03.4       7   -297    288    298    414 178.6  49.0  34218  290.55 0854.52
2009/04/23 14:05:03.5      45   -436    298    439    530 174.0  37.6  34208  290.37 0854.52
2009/04/23 14:05:03.6    -167   -474    355    503    615 199.4  38.6  34202  290.27 0854.52
2009/04/23 14:05:03.7    -119   -742    305    752    811 189.1  23.4  34204  290.32 0854.52
2009/04/23 14:05:03.8      17   -687    376    688    784 178.5  31.0  34202  290.29 0854.51
2009/04/23 14:05:03.9     -83   -758    338    763    834 186.3  25.6  34198  290.20 0854.51
2009/04/23 14:05:04.0     133   -800    264    812    854 170.6  18.0  34200  290.24 0854.51
2009/04/23 14:05:04.1     -57   -736    173    739    760 184.5  13.2  34198  290.23 0854.51
2009/04/23 14:05:04.2     -88   -620    174    627    651 188.1  15.6  34198  290.23 0854.51
2009/04/23 14:05:04.3      84   -487    248    495    553 170.1  28.7  34204  290.31 0854.51
2009/04/23 14:05:04.4     205   -396    190    447    485 152.6  24.5  34208  290.40 0854.51
2009/04/23 14:05:04.5     276   -341    239    439    499 141.0  30.9  34182  289.96 0854.51
2009/04/23 14:05:04.6     495   -266    459    563    726 118.3  43.4  34202  290.27 0854.51
2009/04/23 14:05:04.7     175    -90    200    197    280 117.3  50.2  34208  290.37 0854.51
2009/04/23 14:05:04.8     -72    -42     80     84    116 239.3  49.0  34218  290.55 0854.51
2009/04/23 14:05:04.9      46    -51     13     69     71 137.7  11.0  34214  290.50 0854.51
2009/04/23 14:05:05.0      67   -185      8    197    198 160.0   2.5  34200  290.26 0854.51
2009/04/23 14:05:05.1     188   -144    -84    238    253 127.5 -19.4  34202  290.27 0854.51
2009/04/23 14:05:05.2     272   -197     83    337    348 126.0  13.9  34206  290.35 0854.51
2009/04/23 14:05:05.3     218   -250    -42    332    335 138.9  -7.2  34202  290.30 0854.51
2009/04/23 14:05:05.4     177   -291    -26    341    343 148.7  -4.5  34204  290.32 0854.51
2009/04/23 14:05:05.5     175   -309    -50    356    360 150.5  -8.0  34204  290.32 0854.51
2009/04/23 14:05:05.6     181   -287     17    340    341 147.7   2.9  34202  290.30 0854.51
2009/04/23 14:05:05.7     111   -118     38    163    168 136.7  13.2  34204  290.33 0854.51
2009/04/23 14:05:05.8      22    -14     15     27     30 122.4  31.4  34210  290.43 0854.50
2009/04/23 14:05:05.9      -4     57      7     58     59 355.5   6.9  34216  290.53 0854.50
2009/04/23 14:05:06.0     -67    105     25    125    128 327.4  11.6  34214  290.50 0854.50
2009/04/23 14:05:06.1     -38     53    -50     66     82 324.8 -45.6  34218  290.55 0854.50
2009/04/23 14:05:06.2     -48     49    -18     69     72 315.9 -14.5  34220  290.60 0854.50
2009/04/23 14:05:06.3      -4     28    -15     29     32 350.2 -33.7  34224  290.67 0854.50
2009/04/23 14:05:06.4      19      7     -6     21     23  70.0 -17.6  34226  290.69 0854.50
2009/04/23 14:05:06.5      62     24    -21     67     70  68.3 -23.8  34224  290.65 0854.50
2009/04/23 14:05:06.6     113     49    -40    124    130  66.5 -23.8  34212  290.47 0854.50
2009/04/23 14:05:06.7     146     98    -48    177    184  56.0 -15.4  34210  290.43 0854.50
2009/04/23 14:05:06.8     280    102      4    299    300  70.0   0.8  34212  290.46 0854.50
2009/04/23 14:05:06.9     311    103     69    328    336  71.6  12.0  34212  290.47 0854.50
2009/04/23 14:05:07.0     227     75    117    240    267  71.6  27.4  34218  290.54 0854.50
2009/04/23 14:05:07.1     161     96    237    188    302  59.3  57.7  34228  290.71 0854.50
2009/04/23 14:05:07.2      16    -13    141     21    142 129.5  90.0  34236  290.86 0854.50
2009/04/23 14:05:07.3      53    -34    139     64    153 122.5  73.5  34234  290.84 0854.50
2009/04/23 14:05:07.4      83    -45    112     95    146 118.4  55.8  34230  290.77 0854.50
2009/04/23 14:05:07.5      43    -12    147     45    153 105.9  82.3  34230  290.75 0854.50
2009/04/23 14:05:07.6     -43    -68    128     81    151 212.5  64.7  34228  290.74 0854.50
2009/04/23 14:05:07.7    -151    -72    170    168    239 244.6  50.1  34228  290.72 0854.50
2009/04/23 14:05:07.8    -136    -54     26    147    150 248.3  10.1  34222  290.64 0854.50
2009/04/23 14:05:07.9      -4    -54    130     55    141 184.5  76.1  34232  290.79 0854.50
2009/04/23 14:05:08.0    -113   -134    138    176    223 220.3  42.0  34220  290.60 0854.50
2009/04/23 14:05:08.1    -125   -197     64    234    243 212.5  15.3  34220  290.58 0854.50
2009/04/23 14:05:08.2     -74   -200     28    214    216 200.5   7.5  34216  290.52 0854.50
2009/04/23 14:05:08.3     -38   -326     83    329    340 186.8  14.2  34218  290.57 0854.50
2009/04/23 14:05:08.4    -131   -449    106    468    480 196.3  12.8  34216  290.51 0854.50
2009/04/23 14:05:08.5    -149   -507    -35    529    531 196.4  -3.8  34216  290.53 0854.50
2009/04/23 14:05:08.6    -121   -481    -33    497    499 194.2  -3.9  34216  290.52 0854.50
2009/04/23 14:05:08.7     -56   -410    -84    414    423 187.9 -11.6  34218  290.55 0854.50
2009/04/23 14:05:08.8     -84   -496    -97    504    514 189.7 -10.9  34216  290.52 0854.48
2009/04/23 14:05:08.9     -36   -329     14    331    332 186.3   2.5  34214  290.49 0854.48
2009/04/23 14:05:09.1      79   -199    -34    215    218 158.2  -9.0  34216  290.53 0854.48
2009/04/23 14:05:09.1       0    -40     27     41     49 180.0  36.5  34216  290.53 0854.48
2009/04/23 14:05:09.2      33   -253     59    256    263 172.4  13.1  34212  290.46 0854.48
2009/04/23 14:05:09.3     143   -346    -53    375    379 157.5  -8.1  34218  290.55 0854.48
2009/04/23 14:05:09.4      82   -286    -16    298    299 163.9  -3.2  34214  290.49 0854.48
2009/04/23 14:05:09.5      40   -374    136    377    401 173.8  19.9  34218  290.54 0854.48
2009/04/23 14:05:09.6     160   -315     90    354    366 153.0  14.3  34214  290.49 0854.48
2009/04/23 14:05:09.7      51   -354    187    358    403 171.7  29.6  34216  290.52 0854.48
2009/04/23 14:05:09.8     139   -283    225    316    387 153.7  39.1  34218  290.57 0854.48
2009/04/23 14:05:09.9      23   -316    209    317    379 175.8  36.4  34220  290.59 0854.48
2009/04/23 14:05:10.0      -5   -374    220    375    434 180.9  33.1  34212  290.46 0854.48
2009/04/23 14:05:10.1     -27   -420    208    421    469 183.8  28.2  34216  290.51 0854.48
2009/04/23 14:05:10.2     -41   -410    194    413    456 185.8  27.1  34212  290.44 0854.48
2009/04/23 14:05:10.3     -31   -414    208    416    465 184.3  28.5  34214  290.48 0854.48
2009/04/23 14:05:10.4     -84   -415    232    424    483 191.5  31.0  34218  290.56 0854.48
2009/04/23 14:05:10.5    -147   -370    209    399    450 201.7  30.0  34214  290.48 0854.48
2009/04/23 14:05:10.6     -89   -406    297    416    511 192.4  39.1  34218  290.56 0854.48
2009/04/23 14:05:10.7     -52   -451    222    455    506 186.6  27.8  34216  290.52 0854.48
2009/04/23 14:05:10.8     -91   -324    324    337    467 195.7  49.0  34212  290.44 0854.47
2009/04/23 14:05:10.9      -8   -279    326    280    429 181.8  55.0  34214  290.50 0854.47
2009/04/23 14:05:11.0     190   -420    267    462    533 155.6  32.7  34216  290.52 0854.47
2009/04/23 14:05:11.1     236   -367    182    437    473 147.2  23.9  34208  290.39 0854.47
2009/04/23 14:05:11.2     381   -490     74    621    626 142.2   6.9  34212  290.47 0854.47
2009/04/23 14:05:11.3     390   -421     32    575    576 137.2   3.2  34218  290.56 0854.47
2009/04/23 14:05:11.4     283   -364     20    462    463 142.2   2.5  34210  290.43 0854.47
2009/04/23 14:05:11.5     227   -244   -106    334    351 137.1 -17.7  34218  290.54 0854.47
2009/04/23 14:05:11.6     206   -277    212    346    405 143.3  34.4  34222  290.64 0854.47
2009/04/23 14:05:11.7     218   -240    280    325    428 137.7  45.1  34228  290.74 0854.47
2009/04/23 14:05:11.8     139   -261    239    296    380 151.9  43.3  34222  290.64 0854.47
2009/04/23 14:05:11.9       5   -218    227    219    315 178.6  51.1  34228  290.71 0854.47
2009/04/23 14:05:12.0      19   -257    234    258    348 175.6  47.0  34228  290.71 0854.47
2009/04/23 14:05:12.1      36   -239    227    242    331 171.3  48.0  34230  290.76 0854.47
2009/04/23 14:05:12.2      52   -361    239    365    436 171.7  36.5  34222  290.63 0854.47
2009/04/23 14:05:12.3      52   -218    253    225    338 166.4  53.9  34230  290.75 0854.47
2009/04/23 14:05:12.4     222   -368    269    430    507 148.9  35.0  34218  290.57 0854.47
2009/04/23 14:05:12.5     222   -145    263    266    374 123.1  49.9  34226  290.69 0854.47
2009/04/23 14:05:12.6     267   -297    313    400    507 138.0  42.0  34222  290.64 0854.47
2009/04/23 14:05:12.7     197   -384    195    432    473 152.8  25.9  34228  290.72 0854.47
2009/04/23 14:05:12.8     295   -324     62    439    444 137.7   8.1  34222  290.63 0854.47
2009/04/23 14:05:12.9     275   -245     30    369    371 131.8   4.7  34222  290.64 0854.47
2009/04/23 14:05:13.0     294   -321    -17    436    437 137.6  -2.2  34224  290.65 0854.47
2009/04/23 14:05:13.1     287   -260    -17    388    389 132.1  -2.6  34222  290.62 0854.47
2009/04/23 14:05:13.2     303   -270    -51    406    410 131.7  -7.2  34228  290.72 0854.47
2009/04/23 14:05:13.3     268   -182    143    325    355 124.2  25.2  34216  290.52 0854.47
2009/04/23 14:05:13.4     123   -389    204    409    457 162.4  28.5  34220  290.58 0854.47
2009/04/23 14:05:13.5     183   -490    263    524    586 159.5  28.7  34212  290.46 0854.47
2009/04/23 14:05:13.6     283   -443    334    526    623 147.4  35.5  34220  290.58 0854.47
2009/04/23 14:05:13.7     393   -345     82    524    531 131.3   8.9  34218  290.55 0854.47
2009/04/23 14:05:13.8     298   -298    142    422    446 135.0  18.6  34208  290.38 0854.47
2009/04/23 14:05:13.9     235   -431     49    491    494 151.4   5.8  34212  290.47 0854.47
2009/04/23 14:05:14.0     149   -416     95    443    454 160.2  12.2  34212  290.44 0854.47
2009/04/23 14:05:14.1      70   -455     67    461    466 171.2   8.3  34210  290.41 0854.47
2009/04/23 14:05:14.2       6   -369    225    370    433 179.0  34.2  34218  290.55 0854.47
2009/04/23 14:05:14.3     229   -230    101    325    341 135.2  17.3  34204  290.32 0854.47
2009/04/23 14:05:14.4     110   -290     48    311    315 159.1   8.8  34214  290.48 0854.47
2009/04/23 14:05:14.5      59   -542    159    546    569 173.8  16.3  34222  290.62 0854.47
2009/04/23 14:05:14.6    -113   -515    260    528    588 192.4  28.2  34230  290.76 0854.47
2009/04/23 14:05:14.7      72   -526    382    531    654 172.2  39.3  34220  290.60 0854.47
2009/04/23 14:05:14.8     113   -481    100    495    505 166.7  11.5  34226  290.69 0854.46
2009/04/23 14:05:14.9     121   -421    153    439    464 164.0  20.0  34224  290.65 0854.46
2009/04/23 14:05:15.0     100   -299    151    316    350 161.5  27.3  34228  290.72 0854.46
2009/04/23 14:05:15.1     150   -322    124    356    378 155.0  19.3  34226  290.69 0854.46
2009/04/23 14:05:15.2     120   -350      3    371    372 161.0   0.5  34226  290.69 0854.46
2009/04/23 14:05:15.3     156   -274     55    316    321 150.4   9.9  34224  290.66 0854.46
2009/04/23 14:05:15.4     196   -248     55    317    322 141.7   9.9  34226  290.70 0854.46
2009/04/23 14:05:15.5     225   -277     25    357    358 140.9   4.0  34224  290.67 0854.46
2009/04/23 14:05:15.6     206   -249      5    324    325 140.4   0.9  34226  290.68 0854.46
2009/04/23 14:05:15.7     157   -292    187    332    381 151.6  31.9  34212  290.47 0854.46
2009/04/23 14:05:15.8      83   -381    274    391    477 167.6  38.5  34212  290.44 0854.46
2009/04/23 14:05:15.9      97   -210    346    232    416 155.1  63.1  34228  290.74 0854.46
2009/04/23 14:05:16.0     450   -239    254    510    569 118.0  28.4  34216  290.53 0854.46
2009/04/23 14:05:16.1     119   -271    296    297    419 156.3  50.0  34226  290.69 0854.46
2009/04/23 14:05:16.2      34   -315    132    317    343 173.8  23.8  34218  290.57 0854.46
2009/04/23 14:05:16.3     292   -198      4    353    354 124.2   0.7  34226  290.69 0854.46
2009/04/23 14:05:16.4     297   -279    -44    408    411 133.2  -6.3  34230  290.77 0854.46
2009/04/23 14:05:16.5     418   -222    162    474    502 118.0  18.9  34226  290.69 0854.46
2009/04/23 14:05:16.6     328   -316    198    456    497 133.9  25.1  34212  290.45 0854.46
2009/04/23 14:05:16.7     373   -236    124    442    460 122.3  15.7  34218  290.55 0854.46
2009/04/23 14:05:16.8     203   -222     66    302    310 137.6  12.4  34214  290.48 0854.45
2009/04/23 14:05:16.9      58   -193     73    202    214 163.3  20.7  34216  290.53 0854.45
2009/04/23 14:05:17.0      -9   -208     73    209    222 182.7  19.4  34218  290.57 0854.45
2009/04/23 14:05:17.1     -14   -257     65    258    267 183.1  14.2  34214  290.49 0854.45
2009/04/23 14:05:17.2     172   -275    -28    325    327 148.0  -5.1  34214  290.48 0854.45
2009/04/23 14:05:17.3     242   -251      6    349    350 136.0   1.0  34222  290.62 0854.45
2009/04/23 14:05:17.4     237   -179    -21    298    299 127.1  -4.1  34220  290.58 0854.45
2009/04/23 14:05:17.5      93   -315     81    329    339 163.5  13.9  34216  290.52 0854.45
2009/04/23 14:05:17.6      80   -396    273    404    487 168.6  37.2  34226  290.70 0854.45
2009/04/23 14:05:17.7      38   -412     84    414    423 174.7  11.5  34220  290.58 0854.45
2009/04/23 14:05:17.8     -38   -270    -96    273    290 188.0 -19.4  34218  290.54 0854.45
2009/04/23 14:05:17.9      67   -155   -133    169    215 156.6 -46.6  34218  290.57 0854.45
2009/04/23 14:05:18.0     175   -104     86    204    221 120.7  24.1  34216  290.53 0854.45
2009/04/23 14:05:18.1     191   -198    199    276    340 136.1  39.3  34222  290.63 0854.45
2009/04/23 14:05:18.2     235   -149    173    279    328 122.5  34.9  34222  290.61 0854.45
2009/04/23 14:05:18.3       5   -356    166    357    393 179.1  26.6  34208  290.40 0854.45
2009/04/23 14:05:18.4      21   -326    173    327    369 176.2  30.3  34210  290.43 0854.45
2009/04/23 14:05:18.5     133   -298     15    327    328 155.9   2.8  34200  290.26 0854.45
2009/04/23 14:05:18.6     326   -433     30    543    544 143.0   3.2  34212  290.46 0854.45
2009/04/23 14:05:18.7     110   -558    254    569    623 168.8  25.7  34218  290.54 0854.45
2009/04/23 14:05:18.8     344   -523     35    627    629 146.7   3.2  34204  290.33 0854.43
2009/04/23 14:05:18.9     317   -562    168    646    668 150.6  14.6  34196  290.17 0854.43
2009/04/23 14:05:19.0     318   -562    234    646    687 150.5  20.9  34198  290.21 0854.43
2009/04/23 14:05:19.1      65   -251     90    260    276 165.5  19.2  34192  290.10 0854.43
2009/04/23 14:05:19.2      83   -252    -73    266    276 161.7 -15.4  34206  290.34 0854.43
2009/04/23 14:05:19.3      27   -251     32    253    256 173.8   7.2  34208  290.37 0854.43
2009/04/23 14:05:19.4      83   -122    -48    148    155 145.7 -23.8  34200  290.25 0854.43
2009/04/23 14:05:19.5     131   -100    -68    165    178 127.3 -27.8  34214  290.48 0854.43
2009/04/23 14:05:19.6     186    -96     35    210    213 117.5   9.5  34214  290.50 0854.43
2009/04/23 14:05:19.7     161   -166     68    232    242 135.9  16.4  34216  290.51 0854.43
2009/04/23 14:05:19.8     306    -89     86    319    331 106.3  15.2  34216  290.51 0854.43
2009/04/23 14:05:19.9     262    -87    136    277    308 108.4  28.0  34216  290.53 0854.43
2009/04/23 14:05:20.0     261   -222    172    343    383 130.4  28.5  34204  290.32 0854.43
2009/04/23 14:05:20.1     141   -477    239    498    552 163.5  27.4  34208  290.40 0854.43
2009/04/23 14:05:20.2      46   -677    269    679    730 176.1  22.9  34206  290.34 0854.43
2009/04/23 14:05:20.3     108   -482    125    495    511 167.3  14.2  34216  290.52 0854.43
2009/04/23 14:05:20.4     141   -567    120    585    598 166.0  11.7  34208  290.39 0854.43
2009/04/23 14:05:20.5      26   -496    127    497    514 177.0  14.4  34206  290.35 0854.43
2009/04/23 14:05:20.6    -129   -543    242    559    609 193.4  25.1  34196  290.19 0854.43
2009/04/23 14:05:20.7     -84   -654    288    660    720 187.3  25.1  34204  290.32 0854.43
2009/04/23 14:05:20.8    -164   -625    369    647    744 194.7  32.3  34202  290.27 0854.43
2009/04/23 14:05:20.9    -139   -604    392    620    733 193.0  35.5  34206  290.34 0854.43
2009/04/23 14:05:21.0     -74   -656    117    661    672 186.5  10.1  34210  290.43 0854.43
2009/04/23 14:05:21.1     157   -683     -8    701    702 167.0  -0.7  34208  290.37 0854.43
2009/04/23 14:05:21.2     143   -472     55    494    498 163.1   6.4  34208  290.40 0854.43
2009/04/23 14:05:21.3     309   -240    190    392    435 127.8  27.9  34252  291.12 0854.43
2009/04/23 14:05:21.4     445    -37    157    447    473  94.8  20.2  34224  290.66 0854.43
2009/04/23 14:05:21.5     517     29     94    518    527  86.8  10.3  34348  292.76 0854.43
2009/04/23 14:05:21.6     322     34    182    324    371  83.9  31.6  34284  291.69 0854.43
2009/04/23 14:05:21.7     178    -46    199    184    271 104.6  52.2  34238  290.90 0854.43
2009/04/23 14:05:21.8      77   -207    133    222    258 159.5  33.7  34220  290.59 0854.43
2009/04/23 14:05:21.9      11   -147     93    148    174 175.5  35.5  34216  290.53 0854.43
2009/04/23 14:05:22.0      -2     -3    107      4    107 212.5  90.0  34234  290.82 0854.43
2009/04/23 14:05:22.1     -33    -36    206     50    211 222.3  86.7  34222  290.62 0854.43
2009/04/23 14:05:22.2     -50   -140    322    149    354 200.0  73.6  34220  290.58 0854.43
2009/04/23 14:05:22.3    -152   -196    274    249    370 217.8  53.2  34210  290.43 0854.43
2009/04/23 14:05:22.4    -168   -304    157    348    381 209.0  25.9  34210  290.43 0854.43
2009/04/23 14:05:22.5     -74   -394    208    402    452 190.7  29.4  34214  290.48 0854.43
2009/04/23 14:05:22.6    -118   -326    -19    347    348 199.9  -3.1  34210  290.43 0854.43
2009/04/23 14:05:22.7     -85   -256    106    271    290 198.5  22.5  34208  290.37 0854.43
2009/04/23 14:05:22.8     -42   -310    266    313    410 187.8  44.8  34210  290.43 0854.43
2009/04/23 14:05:22.9    -123   -138     36    185    189 221.7  11.1  34220  290.58 0854.43
2009/04/23 14:05:23.0      -5   -329     70    330    338 180.9  12.0  34208  290.38 0854.43
2009/04/23 14:05:23.1    -191   -484    -28    521    522 201.6  -3.1  34208  290.38 0854.43
2009/04/23 14:05:23.2     -28   -461     71    462    468 183.5   8.8  34216  290.51 0854.43
2009/04/23 14:05:23.3     126   -232    -77    265    275 151.5 -21.0  34216  290.51 0854.43
2009/04/23 14:05:23.4     205   -311   -118    373    392 146.6 -17.6  34212  290.45 0854.43
2009/04/23 14:05:23.5      15   -591     19    592    593 178.5   1.9  34202  290.29 0854.43
2009/04/23 14:05:23.7    -137   -554    155    571    592 193.9  15.2  34202  290.29 0854.43
2009/04/23 14:05:23.8     -92   -406    224    417    473 192.8  30.6  34208  290.38 0854.43
2009/04/23 14:05:23.9     -92   -306    111    320    339 196.8  19.2  34204  290.33 0854.43
2009/04/23 14:05:24.0     -91   -478    101    487    498 190.9  11.8  34198  290.22 0854.43
2009/04/23 14:05:24.1     -73   -464    221    470    519 189.0  27.1  34208  290.39 0854.43
2009/04/23 14:05:24.2    -137   -426    204    448    492 197.8  26.2  34206  290.35 0854.43
2009/04/23 14:05:24.3     -95   -226    128    246    277 202.9  29.5  34198  290.20 0854.43
2009/04/23 14:05:24.4    -188   -227    215    295    365 219.7  39.7  34218  290.54 0854.43
2009/04/23 14:05:24.5     -47   -191    262    197    327 194.0  59.3  34224  290.66 0854.43
2009/04/23 14:05:24.6    -115   -170    163    206    262 214.2  42.4  34216  290.53 0854.43
2009/04/23 14:05:24.7     -53    -83    134     99    166 212.6  59.8  34220  290.58 0854.43
2009/04/23 14:05:24.8      -5     15    104     16    105 341.7  90.0  34234  290.82 0854.43
2009/04/23 14:05:24.9     -98    153    123    182    219 327.3  37.4  34224  290.67 0854.43
2009/04/23 14:05:25.0      39     61     31     73     79  32.6  24.1  34238  290.89 0854.43
2009/04/23 14:05:25.1     -23   -114     80    117    141 191.5  37.6  34228  290.72 0854.43
2009/04/23 14:05:25.2      -9    -35    146     37    150 195.1  85.9  34218  290.57 0854.43
2009/04/23 14:05:25.3     360   -124    215    381    437 109.1  32.1  34186  290.02 0854.43
2009/04/23 14:05:25.4     197   -310    195    368    416 147.5  30.2  34170  289.74 0854.43
2009/04/23 14:05:25.5     136   -256    212    291    360 152.0  39.7  34182  289.93 0854.43
2009/04/23 14:05:25.6      13   -414     80    415    423 178.1  11.0  34190  290.07 0854.43
2009/04/23 14:05:25.7      49   -310    187    315    366 170.9  33.5  34182  289.94 0854.43
2009/04/23 14:05:25.8     136   -237    192    274    334 150.1  38.6  34190  290.07 0854.43
2009/04/23 14:05:25.9     279   -137    154    312    347 116.2  28.1  34198  290.20 0854.43
2009/04/23 14:05:26.0     139   -279    143    312    343 153.5  26.5  34164  289.65 0854.43
2009/04/23 14:05:26.1     173   -290     56    338    343 149.1   9.5  34178  289.87 0854.43
2009/04/23 14:05:26.2     241   -320      0    401    402 143.0   0.0  34190  290.08 0854.43
2009/04/23 14:05:26.3     209   -207    -11    295    296 134.7  -2.3  34192  290.10 0854.43
2009/04/23 14:05:26.4     239    -89    -60    256    263 110.6 -13.3  34194  290.15 0854.43
2009/04/23 14:05:26.5     270   -125    -70    298    307 114.8 -13.3  34192  290.10 0854.43
2009/04/23 14:05:26.6     132   -140     56    193    202 136.6  16.3  34186  290.02 0854.43
2009/04/23 14:05:26.7      50   -162    103    170    198 162.6  34.0  34188  290.06 0854.43
2009/04/23 14:05:26.8      68   -131   -107    148    182 152.4 -43.9  34196  290.18 0854.43
2009/04/23 14:05:26.9      23    -71   -108     75    131 161.7 -66.5  34202  290.30 0854.44
2009/04/23 14:05:27.0     -10    -51    -98     53    111 191.6 -73.7  34208  290.38 0854.44
2009/04/23 14:05:27.1     -16    -86    -62     88    107 190.7 -43.9  34198  290.23 0854.44
2009/04/23 14:05:27.2     -31   -164    -58    167    176 190.7 -23.8  34182  289.94 0854.44
2009/04/23 14:05:27.3      16   -236    -16    237    238 176.0  -3.9  34170  289.73 0854.44
2009/04/23 14:05:27.4       0   -281    -66    282    290 180.0 -13.2  34166  289.66 0854.44
2009/04/23 14:05:27.5      22   -289    -52    290    295 175.6 -10.3  34164  289.64 0854.44
2009/04/23 14:05:27.6      61   -327     35    333    335 169.3   6.1  34172  289.79 0854.44
2009/04/23 14:05:27.7      76   -368     58    376    381 168.2   8.9  34164  289.64 0854.44
2009/04/23 14:05:27.8     176   -356     22    398    399 153.7   3.3  34164  289.65 0854.44
2009/04/23 14:05:27.9     223   -351     30    417    419 147.5   4.2  34168  289.70 0854.46
2009/04/23 14:05:28.0     255   -331     35    418    420 142.4   4.9  34164  289.65 0854.46
2009/04/23 14:05:28.1     192   -318    128    372    394 148.8  19.1  34164  289.65 0854.46
2009/04/23 14:05:28.2     154   -364    162    396    427 157.0  23.5  34164  289.63 0854.46
2009/04/23 14:05:28.3     126   -377    180    398    436 161.4  26.2  34176  289.83 0854.46
2009/04/23 14:05:28.4      83   -378    196    388    434 167.5  29.1  34176  289.83 0854.46
2009/04/23 14:05:28.5     -21   -467    197    468    507 182.6  24.2  34182  289.95 0854.46
2009/04/23 14:05:28.6     -25   -526    165    527    553 182.8  17.4  34186  290.01 0854.46
2009/04/23 14:05:28.7    -283   -503    172    578    604 209.4  16.6  34180  289.91 0854.46
2009/04/23 14:05:28.8    -472   -492     31    683    684 223.8   2.6  34164  289.63 0854.46
2009/04/23 14:05:28.9    -436   -609   -268    750    797 215.6 -19.7  34160  289.56 0854.46
2009/04/23 14:05:29.0    -455   -607   -267    759    805 216.9 -19.4  34152  289.42 0854.46
2009/04/23 14:05:29.1    -534   -579   -290    788    839 222.7 -25.5  34164  289.65 0854.46
2009/04/23 14:05:29.2    -547   -679   -261    873    912 218.9 -16.7  34178  289.89 0854.46
2009/04/23 14:05:29.3    -800   -663   -211   1040   1061 230.4 -11.5  34176  289.83 0854.46
2009/04/23 14:05:29.4    -653   -653   -307    924    973 225.0 -23.6  34138  289.21 0854.46
2009/04/23 14:05:29.5    -469   -548    -23    722    723 220.6  -1.9  34188  290.05 0854.46
2009/04/23 14:05:29.6    -533   -531   -168    753    772 225.1 -12.6  34158  289.53 0854.46
2009/04/23 14:05:29.7    -538   -408    -87    676    682 232.8  -7.4  34192  290.12 0854.46
2009/04/23 14:05:29.8    -275   -243    125    368    389 228.6  18.8  34198  290.23 0854.46
2009/04/23 14:05:29.9    -232   -391    -49    455    458 210.7  -6.3  34192  290.12 0854.46
2009/04/23 14:05:30.0    -250   -249   -113    354    372 225.1 -17.7  34172  289.77 0854.46
2009/04/23 14:05:30.1    -432   -646   -255    778    819 213.8 -18.2  34172  289.77 0854.46
2009/04/23 14:05:30.2    -287   -647     37    708    709 204.0   3.0  34192  290.11 0854.46
2009/04/23 14:05:30.3    -251   -527     97    584    593 205.5   9.5  34184  289.97 0854.46
2009/04/23 14:05:30.4    -466   -545     40    718    720 220.5   3.2  34192  290.13 0854.46
2009/04/23 14:05:30.5    -721   -518     -5    888    889 234.3  -0.4  34170  289.74 0854.46
2009/04/23 14:05:30.6    -420   -528    203    675    705 218.5  16.8  34160  289.56 0854.46
2009/04/23 14:05:30.7    -266   -392    207    474    517 214.2  25.2  34192  290.10 0854.46
2009/04/23 14:05:30.8    -166   -413    -41    446    449 201.9  -5.4  34176  289.85 0854.46
2009/04/23 14:05:30.9      81   -495     52    502    505 170.7   6.0  34178  289.89 0854.46
2009/04/23 14:05:31.0      50   -478    -15    481    482 173.9  -1.8  34174  289.81 0854.46
2009/04/23 14:05:31.1    -156   -587    164    608    630 194.9  15.1  34178  289.86 0854.46
2009/04/23 14:05:31.2    -350   -619    201    712    741 209.5  15.8  34186  290.00 0854.46
2009/04/23 14:05:31.3    -494   -701    135    858    869 215.2   9.0  34178  289.88 0854.46
2009/04/23 14:05:31.4    -161   -735   -134    753    765 192.4 -10.1  34170  289.73 0854.46
2009/04/23 14:05:31.5    -189   -697     44    723    725 195.2   3.5  34198  290.22 0854.46
2009/04/23 14:05:31.6    -231   -710     90    747    753 198.0   6.9  34188  290.04 0854.46
2009/04/23 14:05:31.7    -219   -878    132    905    915 194.1   8.3  34184  289.99 0854.46
2009/04/23 14:05:31.8      42   -899    319    901    956 177.3  19.5  34182  289.96 0854.46
2009/04/23 14:05:31.9     151   -616    267    635    688 166.2  24.2  34172  289.78 0854.49
2009/04/23 14:05:32.0    -180   -417    436    455    630 203.4  48.7  34200  290.25 0854.49
2009/04/23 14:05:32.1     108   -227    425    252    494 154.5  66.8  34192  290.11 0854.49
2009/04/23 14:05:32.2     490   -362    483    610    778 126.5  42.4  34192  290.10 0854.49
2009/04/23 14:05:32.3     434   -321    299    541    618 126.5  31.4  34192  290.10 0854.49
2009/04/23 14:05:32.4     346   -336    232    483    535 134.1  27.3  34188  290.06 0854.49
2009/04/23 14:05:32.5     420   -371    273    561    623 131.4  27.9  34182  289.93 0854.49
2009/04/23 14:05:32.6     402   -133    260    424    497 108.3  34.5  34188  290.03 0854.49
2009/04/23 14:05:32.7     279    -89    230    293    372 107.7  42.1  34194  290.16 0854.49
2009/04/23 14:05:32.8      23     13    150     27    152  61.1  90.0  34196  290.19 0854.49
2009/04/23 14:05:32.9     210     31    171    213    273  81.6  42.8  34196  290.17 0854.49
2009/04/23 14:05:33.0     -75   -103    177    128    218 216.1  60.6  34196  290.18 0854.49
2009/04/23 14:05:33.1    -250   -299      6    391    392 219.9   1.0  34198  290.21 0854.49
2009/04/23 14:05:33.2    -377    -93   -107    389    404 256.1 -15.4  34196  290.18 0854.49
2009/04/23 14:05:33.3    -158   -335    298    371    475 205.2  42.8  34196  290.19 0854.49
2009/04/23 14:05:33.4     -73   -360    297    368    472 191.6  43.0  34194  290.14 0854.49
2009/04/23 14:05:33.5    -150   -395    136    423    445 200.9  17.9  34206  290.36 0854.49
2009/04/23 14:05:33.6     -41   -387     16    390    391 186.1   2.4  34202  290.27 0854.49
2009/04/23 14:05:33.7     -35   -349    121    351    372 185.8  19.1  34198  290.21 0854.49
2009/04/23 14:05:33.8     127   -336    -32    360    362 159.3  -5.1  34198  290.21 0854.49
2009/04/23 14:05:33.9     338   -142    147    367    395 112.8  23.0  34192  290.13 0854.50
2009/04/23 14:05:34.0     138   -197    181    241    301 145.0  40.6  34190  290.09 0854.50
2009/04/23 14:05:34.1     168   -231     -1    286    287 143.9  -0.3  34196  290.17 0854.50
2009/04/23 14:05:34.2     145   -332     25    363    364 156.4   4.0  34192  290.13 0854.50
2009/04/23 14:05:34.3     289   -256    137    387    411 131.5  19.6  34188  290.04 0854.50
2009/04/23 14:05:34.4     457   -341     27    571    572 126.8   2.8  34188  290.03 0854.50
2009/04/23 14:05:34.5     539   -390    149    666    683 125.9  12.6  34158  289.53 0854.50
2009/04/23 14:05:34.6     237   -342    107    417    431 145.3  14.5  34178  289.88 0854.50
2009/04/23 14:05:34.7     305    -61    -68    312    320 101.4 -12.4  34192  290.12 0854.50
2009/04/23 14:05:34.8     354    -18     72    355    363  93.0  11.6  34190  290.08 0854.50
2009/04/23 14:05:34.9     335    -72    202    343    398 102.2  33.3  34190  290.08 0854.50
2009/04/23 14:05:35.0     282   -128    157    310    347 114.4  28.9  34198  290.21 0854.50
2009/04/23 14:05:35.1     256    -84     95    270    286 108.2  20.0  34202  290.29 0854.50
2009/04/23 14:05:35.2     244   -160     37    293    296 123.3   7.2  34210  290.42 0854.50
2009/04/23 14:05:35.3     140   -228     87    268    282 148.4  18.1  34186  290.00 0854.50
2009/04/23 14:05:35.4     200   -247      2    319    320 141.0   0.4  34196  290.17 0854.50
2009/04/23 14:05:35.5     392   -250     83    466    474 122.5  10.1  34184  289.98 0854.50
2009/04/23 14:05:35.6     283   -136    274    315    417 115.8  45.5  34166  289.69 0854.50
2009/04/23 14:05:35.7     203    -91    196    223    296 114.2  45.8  34172  289.78 0854.50
2009/04/23 14:05:35.8     203    -74    209    217    301 110.0  49.0  34190  290.07 0854.50
2009/04/23 14:05:35.9     283   -171    231    331    403 121.1  38.4  34186  290.01 0854.51
2009/04/23 14:05:36.0     143   -317    286    348    450 155.7  43.7  34190  290.09 0854.51
2009/04/23 14:05:36.1      97   -143    203    174    267 145.7  55.3  34194  290.14 0854.51
2009/04/23 14:05:36.2     -53   -112    227    125    259 205.5  68.8  34168  289.72 0854.51
2009/04/23 14:05:36.3     155    -60    224    167    279 111.1  59.6  34182  289.95 0854.51
2009/04/23 14:05:36.4     117   -154    126    194    231 142.6  35.6  34180  289.92 0854.51
2009/04/23 14:05:36.5     124   -354    333    376    502 160.7  46.2  34172  289.78 0854.51
2009/04/23 14:05:36.6     -79   -389    250    398    470 191.6  35.1  34172  289.77 0854.51
2009/04/23 14:05:36.7    -205   -458    186    502    535 204.1  21.3  34176  289.85 0854.51
2009/04/23 14:05:36.8    -191   -171    -33    257    260 228.2  -7.3  34168  289.70 0854.51
2009/04/23 14:05:36.9      99     14    -34    101    106  81.6 -23.6  34176  289.85 0854.51
2009/04/23 14:05:37.0       9   -238    255    239    349 177.8  52.1  34178  289.88 0854.51
2009/04/23 14:05:37.1      27   -354    315    356    475 175.5  46.2  34176  289.83 0854.51
2009/04/23 14:05:37.2     309   -370    272    483    554 140.1  31.9  34184  289.97 0854.51
2009/04/23 14:05:37.3      94   -284    215    300    369 161.7  39.1  34196  290.18 0854.51
2009/04/23 14:05:37.4     216   -269    250    346    426 141.3  39.5  34192  290.10 0854.51
2009/04/23 14:05:37.5      46   -295    247    299    387 171.1  43.7  34186  290.01 0854.51
2009/04/23 14:05:37.6     136   -347    109    373    389 158.5  16.3  34194  290.16 0854.51
2009/04/23 14:05:37.7     105   -521    125    532    547 168.5  13.3  34180  289.90 0854.51
2009/04/23 14:05:37.8     107   -567    332    578    666 169.3  32.4  34172  289.77 0854.51
2009/04/23 14:05:37.9     106   -561    506    571    762 169.3  46.1  34172  289.76 0854.50
2009/04/23 14:05:38.0     246   -471    288    532    604 152.4  30.9  34178  289.86 0854.50
2009/04/23 14:05:38.1     323   -493    349    590    685 146.8  33.4  34188  290.03 0854.50
2009/04/23 14:05:38.2     371   -677    321    773    837 151.3  23.8  34180  289.92 0854.50
2009/04/23 14:05:38.3     317   -606    335    685    762 152.4  28.0  34184  289.97 0854.50
2009/04/23 14:05:38.4     291   -625    264    690    738 155.1  22.1  34190  290.08 0854.50
2009/04/23 14:05:38.5     110   -428   -143    443    466 165.5 -17.9  34190  290.07 0854.50
2009/04/23 14:05:38.6     412   -461    -83    619    625 138.2  -7.7  34186  290.01 0854.50
2009/04/23 14:05:38.7     300   -505   -125    588    602 149.3 -12.0  34184  289.98 0854.50
2009/04/23 14:05:38.8     320   -597    -13    678    679 151.8  -1.2  34174  289.82 0854.50
2009/04/23 14:05:38.9     403   -348    -47    533    536 130.8  -5.1  34160  289.58 0854.50
2009/04/23 14:05:39.0     195   -321     71    376    383 148.7  10.8  34172  289.76 0854.50
2009/04/23 14:05:39.1     128   -409    197    429    472 162.6  26.4  34174  289.82 0854.50
2009/04/23 14:05:39.2     156   -389    -81    420    428 158.1 -11.0  34180  289.90 0854.50
2009/04/23 14:05:39.3      20   -375     64    376    382 176.9   9.7  34192  290.13 0854.50
2009/04/23 14:05:39.4    -231   -119    -24    261    263 242.7  -5.4  34192  290.12 0854.50
2009/04/23 14:05:39.5    -104   -259     98    280    297 201.9  19.4  34194  290.14 0854.50
2009/04/23 14:05:39.6    -132   -215    125    253    282 211.7  28.2  34196  290.19 0854.50
2009/04/23 14:05:39.7    -267   -194    157    331    366 234.0  27.3  34210  290.42 0854.50
2009/04/23 14:05:39.8    -309   -105    106    327    344 251.2  18.0  34204  290.33 0854.50
2009/04/23 14:05:39.9    -194   -181    153    266    306 226.9  32.4  34176  289.85 0854.52
2009/04/23 14:05:40.0     -14   -313    159    314    351 182.7  29.1  34166  289.69 0854.52
2009/04/23 14:05:40.1      37   -386    296    388    488 174.4  41.2  34180  289.92 0854.52
2009/04/23 14:05:40.2      -5   -356    257    357    439 180.9  39.5  34134  289.14 0854.52
2009/04/23 14:05:40.3     -19   -359    317    360    479 183.2  45.8  34146  289.34 0854.52
2009/04/23 14:05:40.4       5   -275    314    276    418 178.9  54.3  34146  289.32 0854.52
2009/04/23 14:05:40.5     -86   -462    373    470    600 190.6  42.6  34152  289.43 0854.52
2009/04/23 14:05:40.6     -58   -465    430    469    636 187.2  47.2  34176  289.85 0854.52
2009/04/23 14:05:40.7    -110   -421    400    436    591 194.6  47.3  34176  289.85 0854.52
2009/04/23 14:05:40.8     -37   -289    252    292    385 187.3  45.2  34182  289.94 0854.52
2009/04/23 14:05:40.9     -10   -232    218    233    319 182.6  48.0  34192  290.12 0854.52
2009/04/23 14:05:41.0       0   -310    327    311    451 180.1  51.9  34196  290.19 0854.52
2009/04/23 14:05:41.1    -128   -368    272    390    475 199.3  38.4  34174  289.82 0854.52
2009/04/23 14:05:41.2     -84   -255    219    269    346 198.3  43.5  34176  289.85 0854.52
2009/04/23 14:05:41.3    -143   -515    105    535    546 195.6  11.1  34178  289.89 0854.52
2009/04/23 14:05:41.4    -192   -571    169    603    627 198.6  15.7  34176  289.84 0854.52
2009/04/23 14:05:41.5    -108   -372    136    388    412 196.3  19.4  34172  289.78 0854.52
2009/04/23 14:05:41.6    -190    -37     85    194    211 258.8  25.1  34180  289.91 0854.52
2009/04/23 14:05:41.7    -265    110    -45    288    292 292.6  -9.0  34190  290.07 0854.52
2009/04/23 14:05:41.8    -356    206     51    412    416 300.1   7.1  34216  290.51 0854.52
2009/04/23 14:05:41.9     -65    278     56    286    292 346.7  11.1  34226  290.68 0854.53
2009/04/23 14:05:42.0      -1     11    255     12    255 352.0  90.0  34242  290.98 0854.53
2009/04/23 14:05:42.1      77     -1    230     78    242  90.9  81.0  34220  290.60 0854.53
2009/04/23 14:05:42.2     140   -244    366    282    462 150.1  58.5  34200  290.24 0854.53
2009/04/23 14:05:42.3     147   -365    383    394    549 158.1  49.1  34208  290.39 0854.53
2009/04/23 14:05:42.4      15   -189    226    190    295 175.3  55.8  34220  290.58 0854.53
2009/04/23 14:05:42.5    -110   -415    379    430    573 194.9  45.9  34174  289.82 0854.53
2009/04/23 14:05:42.6     -19   -357     90    358    370 183.1  14.2  34180  289.91 0854.53
2009/04/23 14:05:42.7     -25   -323    237    325    402 184.6  39.8  34188  290.06 0854.53
2009/04/23 14:05:42.8    -138   -454    213    475    520 196.9  25.8  34178  289.86 0854.53
2009/04/23 14:05:42.9    -133   -416    153    437    464 197.8  19.3  34170  289.73 0854.53
2009/04/23 14:05:43.0    -193   -296    164    354    390 213.2  26.5  34178  289.87 0854.53
2009/04/23 14:05:43.1     -68   -273    234    282    366 194.0  43.8  34172  289.76 0854.53
2009/04/23 14:05:43.2     -23   -307    230    308    384 184.4  40.4  34178  289.86 0854.53
2009/04/23 14:05:43.3      -9   -293    222    294    368 181.8  40.9  34180  289.91 0854.53
2009/04/23 14:05:43.4     -71   -301    278    310    416 193.4  46.6  34174  289.81 0854.53
2009/04/23 14:05:43.5     -67   -443    292    449    535 188.7  36.0  34182  289.95 0854.53
2009/04/23 14:05:43.6      67   -268     98    277    293 166.0  20.0  34178  289.86 0854.53
2009/04/23 14:05:43.7       0   -296    208    297    362 180.1  38.5  34182  289.93 0854.53
2009/04/23 14:05:43.8     -53   -278    135    284    314 190.9  27.2  34180  289.92 0854.53
2009/04/23 14:05:43.9    -141   -322    192    352    400 203.7  30.9  34192  290.11 0854.54
2009/04/23 14:05:44.0    -194   -193    103    274    292 225.1  21.5  34188  290.03 0854.54
2009/04/23 14:05:44.1     -28   -260     27    262    264 186.3   5.9  34182  289.95 0854.54
2009/04/23 14:05:44.2      68   -251     92    261    277 164.8  19.4  34180  289.92 0854.54
2009/04/23 14:05:44.3      82   -372     75    382    390 167.5  11.1  34202  290.27 0854.54
2009/04/23 14:05:44.4      17   -231     54    232    239 175.6  13.2  34196  290.19 0854.54
2009/04/23 14:05:44.5     116   -277     50    301    306 157.3   9.5  34188  290.03 0854.54
2009/04/23 14:05:44.6      78   -234    118    247    273 161.5  27.3  34188  290.03 0854.54
2009/04/23 14:05:44.7      26   -348     15    349    350 175.6   2.5  34174  289.81 0854.54
2009/04/23 14:05:44.8     -29   -289     90    291    305 185.8  17.3  34176  289.85 0854.54
2009/04/23 14:05:44.9     197   -275    125    339    361 144.4  21.0  34198  290.23 0854.54
2009/04/23 14:05:45.0      90   -228    200    246    317 158.4  43.3  34202  290.27 0854.54
2009/04/23 14:05:45.1      36   -233    214    236    318 171.1  47.0  34204  290.32 0854.54
2009/04/23 14:05:45.2       3   -315    211    316    379 179.3  36.9  34194  290.15 0854.54
2009/04/23 14:05:45.3     -44   -353    287    356    457 187.1  43.0  34200  290.26 0854.54
2009/04/23 14:05:45.4      64   -464    391    469    610 172.1  44.0  34214  290.50 0854.54
2009/04/23 14:05:45.5       8   -518    245    519    573 179.1  27.1  34206  290.35 0854.54
2009/04/23 14:05:45.6     -52   -490    220    493    539 186.1  25.7  34198  290.23 0854.54
2009/04/23 14:05:45.7     -85   -418    131    427    447 191.5  17.1  34200  290.24 0854.54
2009/04/23 14:05:45.8     -16   -429    150    430    455 182.2  20.0  34186  290.00 0854.54
2009/04/23 14:05:45.9      14   -458    181    459    493 178.2  22.8  34186  290.01 0854.52
2009/04/23 14:05:46.0     -59   -347    169    353    391 189.8  27.4  34184  289.98 0854.52
2009/04/23 14:05:46.1    -106   -384    118    399    417 195.5  16.5  34190  290.07 0854.52
2009/04/23 14:05:46.2     -42   -339     89    342    354 187.1  14.7  34184  289.98 0854.52
2009/04/23 14:05:46.3     -77   -450    161    457    485 189.8  19.5  34182  289.95 0854.52
2009/04/23 14:05:46.4     -54   -456    132    460    479 186.8  16.0  34178  289.89 0854.52
2009/04/23 14:05:46.5      17   -436      1    437    438 177.8   0.2  34182  289.94 0854.52
2009/04/23 14:05:46.6     165   -464     12    493    494 160.4   1.5  34174  289.81 0854.52
2009/04/23 14:05:46.7     322   -486     11    584    585 146.5   1.1  34176  289.83 0854.52
2009/04/23 14:05:46.8     366   -375     47    525    528 135.7   5.2  34176  289.84 0854.52
2009/04/23 14:05:46.9     247   -385     71    458    464 147.3   8.9  34180  289.90 0854.52
2009/04/23 14:05:47.0     185   -394    114    436    451 154.8  14.7  34180  289.90 0854.52
2009/04/23 14:05:47.1     220   -187    -75    290    300 130.4 -14.5  34184  289.97 0854.52
2009/04/23 14:05:47.2     214    -36    -60    218    227  99.7 -15.4  34180  289.91 0854.52
2009/04/23 14:05:47.3      58   -259    104    266    285 167.3  22.8  34182  289.95 0854.52
2009/04/23 14:05:47.4    -106   -288     48    308    312 200.3   9.0  34182  289.95 0854.52
2009/04/23 14:05:47.5    -172   -293     62    340    346 210.4  10.3  34178  289.89 0854.52
2009/04/23 14:05:47.6    -254   -422    151    493    516 211.0  17.0  34182  289.96 0854.52
2009/04/23 14:05:47.7    -308   -371    133    483    502 219.6  15.4  34182  289.96 0854.52
2009/04/23 14:05:47.8    -207   -265    156    337    371 218.0  26.6  34192  290.10 0854.52
2009/04/23 14:05:47.9    -201   -179    207    270    340 228.2  41.3  34186  290.02 0854.49
2009/04/23 14:05:48.0    -192   -124    203    229    306 237.1  45.9  34174  289.80 0854.49
2009/04/23 14:05:48.1       0    158    238    159    286   0.0  63.4  34204  290.31 0854.49
2009/04/23 14:05:48.2     -12     90    134     91    161 352.4  62.6  34208  290.40 0854.49
2009/04/23 14:05:48.3     -40   -121    -26    128    131 198.5 -11.5  34212  290.45 0854.49
2009/04/23 14:05:48.4    -209   -308    141    373    398 214.2  21.7  34182  289.94 0854.49
2009/04/23 14:05:48.5    -524   -257   -137    584    600 243.8 -13.3  34188  290.05 0854.49
2009/04/23 14:05:48.6    -382   -349    227    518    565 227.6  25.1  34192  290.11 0854.49
2009/04/23 14:05:48.7    -247   -485    189    545    578 207.0  19.2  34182  289.94 0854.49
2009/04/23 14:05:48.8     -63   -467    243    472    530 187.7  29.3  34182  289.96 0854.49
2009/04/23 14:05:48.9    -108   -490    249    502    560 192.5  28.2  34188  290.04 0854.49
2009/04/23 14:05:49.0      -5   -387    394    388    552 180.8  50.6  34196  290.18 0854.49
2009/04/23 14:05:49.1      19   -257    329    258    418 175.6  58.0  34180  289.91 0854.49
2009/04/23 14:05:49.2     270   -164    338    316    462 121.3  52.2  34192  290.11 0854.49
2009/04/23 14:05:49.3      98    -70    214    121    245 125.9  68.3  34188  290.04 0854.49
2009/04/23 14:05:49.4     107   -246    189    269    328 156.4  38.6  34184  289.98 0854.49
2009/04/23 14:05:49.5     150   -235    216    280    353 147.4  41.6  34182  289.94 0854.49
2009/04/23 14:05:49.6     -76   -409    138    417    440 190.6  18.4  34178  289.88 0854.49
2009/04/23 14:05:49.7      73   -702    127    706    718 174.0  10.2  34172  289.78 0854.49
2009/04/23 14:05:49.9     171   -816    168    834    851 168.1  11.4  34172  289.78 0854.49
2009/04/23 14:05:50.0     294   -652    145    716    731 155.7  11.5  34178  289.86 0854.49
2009/04/23 14:05:50.1     439   -686    145    815    828 147.4  10.1  34178  289.86 0854.49
2009/04/23 14:05:50.2     408   -620    331    743    813 146.6  25.7  34178  289.88 0854.49
2009/04/23 14:05:50.3     430   -628     82    762    767 145.6   6.2  34172  289.79 0854.49
2009/04/23 14:05:50.4     320   -519     72    610    615 148.4   6.8  34182  289.95 0854.49
2009/04/23 14:05:50.5     173   -509     48    538    541 161.2   5.2  34188  290.04 0854.49
2009/04/23 14:05:50.6      36   -674    157    676    695 176.9  13.1  34198  290.21 0854.49
2009/04/23 14:05:50.7     -22   -559    239    560    608 182.3  24.6  34198  290.20 0854.49
2009/04/23 14:05:50.8     -38   -514    182    516    548 184.2  19.4  34196  290.19 0854.49
2009/04/23 14:05:50.9    -212   -457    177    504    535 204.9  19.4  34190  290.09 0854.49
2009/04/23 14:05:51.0    -368   -425    112    563    575 220.9  11.3  34202  290.29 0854.49
2009/04/23 14:05:51.1    -330   -328    146    466    489 225.1  17.4  34216  290.52 0854.49
2009/04/23 14:05:51.2    -282   -346    235    447    505 219.2  30.0  34196  290.18 0854.49
2009/04/23 14:05:51.3    -325   -511    164    606    629 212.5  15.2  34178  289.86 0854.49
2009/04/23 14:05:51.4    -449   -516    112    685    695 221.0   9.3  34186  290.00 0854.49
2009/04/23 14:05:51.5    -320   -320    253    453    518 225.0  31.6  34202  290.30 0854.49
2009/04/23 14:05:51.6    -212   -427     93    477    487 206.4  11.1  34192  290.10 0854.49
2009/04/23 14:05:51.7    -501   -395    -58    639    642 231.7  -5.2  34188  290.04 0854.49
2009/04/23 14:05:51.8    -409   -261    104    486    498 237.5  12.1  34194  290.15 0854.49
2009/04/23 14:05:51.9    -290   -314    114    428    444 222.8  15.0  34198  290.21 0854.49
2009/04/23 14:05:52.0    -188   -352     94    400    411 208.1  13.2  34186  290.00 0854.49
2009/04/23 14:05:52.1    -165   -445    222    475    524 200.4  27.0  34188  290.03 0854.49
2009/04/23 14:05:52.2    -228   -420    174    478    508 208.5  20.9  34188  290.03 0854.49
2009/04/23 14:05:52.3     -26   -288    165    290    333 185.3  32.0  34192  290.10 0854.49
2009/04/23 14:05:52.4     -87   -272    120    286    310 197.8  24.1  34186  290.02 0854.49
2009/04/23 14:05:52.5     -31   -393    168    395    429 184.6  24.3  34184  289.97 0854.49
2009/04/23 14:05:52.6     -50   -478    168    481    510 186.0  19.3  34184  289.98 0854.49
2009/04/23 14:05:52.7     -26   -404    173    405    440 183.8  24.8  34180  289.90 0854.49
2009/04/23 14:05:52.8     -38   -453    316    455    553 184.8  38.1  34176  289.84 0854.49
2009/04/23 14:05:52.9      63   -536    253    540    596 173.2  27.1  34176  289.83 0854.49
2009/04/23 14:05:53.0      30   -475    236    476    531 176.4  28.2  34172  289.76 0854.50
2009/04/23 14:05:53.1      -8   -450    311    451    547 181.1  38.0  34202  290.27 0854.50
2009/04/23 14:05:53.2      19   -427    360    428    559 177.4  44.3  34172  289.79 0854.50
2009/04/23 14:05:53.3     147   -403    339    430    547 160.0  42.2  34174  289.81 0854.50
2009/04/23 14:05:53.4      92   -450    286    460    541 168.4  35.0  34176  289.83 0854.50
2009/04/23 14:05:53.5     165   -367    212    403    455 155.8  30.1  34168  289.70 0854.50
2009/04/23 14:05:53.6     249   -540    288    595    661 155.2  27.7  34178  289.87 0854.50
2009/04/23 14:05:53.7     163   -416    169    447    477 158.6  21.7  34182  289.93 0854.50
2009/04/23 14:05:53.8      77   -254     13    266    267 163.1   2.8  34180  289.90 0854.50
2009/04/23 14:05:53.9     139   -202    -13    246    247 145.5  -3.2  34178  289.88 0854.50
2009/04/23 14:05:54.0     231   -445     94    502    511 152.5  10.7  34182  289.96 0854.50
2009/04/23 14:05:54.1      93   -409     11    420    421 167.1   1.6  34188  290.04 0854.50
2009/04/23 14:05:54.2      42   -391    -28    394    395 173.8  -4.1  34184  289.99 0854.50
2009/04/23 14:05:54.3     130   -432     28    452    453 163.2   3.6  34182  289.94 0854.50
2009/04/23 14:05:54.4      13   -397    140    398    422 178.1  19.4  34186  290.00 0854.50
2009/04/23 14:05:54.5      23   -504    145    505    526 177.3  16.0  34186  290.00 0854.50
2009/04/23 14:05:54.6     -29   -389    137    391    414 184.4  20.1  34192  290.11 0854.50
2009/04/23 14:05:54.7    -180   -457    272    492    562 201.5  31.4  34196  290.19 0854.50
2009/04/23 14:05:54.8    -304   -552    171    631    654 208.9  15.2  34182  289.94 0854.50
2009/04/23 14:05:54.9    -418   -463     40    624    626 222.1   3.7  34178  289.86 0854.50
2009/04/23 14:05:55.0    -427   -419    -54    599    602 225.6  -5.2  34186  290.02 0854.50
2009/04/23 14:05:55.1    -349   -348    -57    493    497 225.1  -6.7  34188  290.05 0854.50
2009/04/23 14:05:55.2    -362   -417   -165    553    578 221.0 -16.6  34188  290.05 0854.50
2009/04/23 14:05:55.3    -287   -395   -145    489    510 216.0 -21.4  34172  289.76 0854.50
2009/04/23 14:05:55.4    -194   -475      8    514    515 202.2   0.9  34172  289.79 0854.50
2009/04/23 14:05:55.5    -324   -353    -42    480    482 222.5  -5.1  34166  289.69 0854.50
2009/04/23 14:05:55.6    -280   -450      0    530    531 211.9   0.1  34178  289.89 0854.50
2009/04/23 14:05:55.7    -207   -290   -122    357    378 215.5 -18.9  34178  289.86 0854.50
2009/04/23 14:05:55.8    -335   -469    -60    577    581 215.6  -6.0  34188  290.03 0854.50
2009/04/23 14:05:55.9    -375   -490    -73    618    623 217.4  -6.8  34182  289.96 0854.50
2009/04/23 14:05:56.0    -201   -221     85    300    312 222.3  15.9  34182  289.95 0854.50
2009/04/23 14:05:56.1     -41   -267     93    271    287 188.9  18.9  34188  290.03 0854.50
2009/04/23 14:05:56.2     -22   -291    138    292    322 184.4  27.2  34184  289.98 0854.50
2009/04/23 14:05:56.3      57   -410    174    415    450 172.0  24.1  34182  289.95 0854.50
2009/04/23 14:05:56.4     150   -364    198    394    440 157.6  28.7  34182  289.95 0854.50
2009/04/23 14:05:56.5     115   -310    223    331    399 159.6  37.2  34182  289.94 0854.50
2009/04/23 14:05:56.6      52   -278    189    283    340 169.4  36.9  34188  290.05 0854.50
2009/04/23 14:05:56.7     179   -369     23    411    412 154.1   3.2  34182  289.94 0854.50
2009/04/23 14:05:56.8     285   -325    120    433    450 138.7  15.6  34178  289.87 0854.50
2009/04/23 14:05:56.9     329   -366    220    493    539 138.1  25.7  34166  289.67 0854.50
2009/04/23 14:05:57.0     224   -284    244    362    436 141.7  37.4  34172  289.77 0854.53
2009/04/23 14:05:57.1     165   -334    297    373    476 153.7  42.6  34178  289.88 0854.53
2009/04/23 14:05:57.2     154   -399     48    428    431 158.8   6.5  34188  290.04 0854.53
2009/04/23 14:05:57.3     212   -340      6    401    402 148.0   0.9  34182  289.96 0854.53
2009/04/23 14:05:57.4     297   -306    -73    427    434 135.9  -9.8  34180  289.90 0854.53
2009/04/23 14:05:57.5     328   -306     46    450    453 133.0   5.9  34180  289.92 0854.53
2009/04/23 14:05:57.6     273   -401     57    486    490 145.7   6.7  34176  289.84 0854.53
2009/04/23 14:05:57.7     252   -408      6    480    481 148.3   0.8  34180  289.91 0854.53
2009/04/23 14:05:57.8     348   -326     -4    477    478 133.1  -0.6  34178  289.86 0854.53
2009/04/23 14:05:57.9     358   -314     19    477    478 131.3   2.3  34178  289.89 0854.53
2009/04/23 14:05:58.0     412   -303     44    512    515 126.4   5.0  34182  289.93 0854.53
2009/04/23 14:05:58.1     333   -304    151    452    477 132.4  18.5  34172  289.78 0854.53
2009/04/23 14:05:58.2     331   -332      3    470    471 135.1   0.4  34172  289.76 0854.53
2009/04/23 14:05:58.3     344   -277      5    442    443 128.9   0.7  34176  289.85 0854.53
2009/04/23 14:05:58.4     312   -261     51    407    411 129.9   7.2  34172  289.77 0854.53
2009/04/23 14:05:58.5     268   -344     38    437    439 142.1   5.0  34174  289.80 0854.53
2009/04/23 14:05:58.6     260   -379    -22    460    461 145.5  -2.8  34180  289.90 0854.53
2009/04/23 14:05:58.7     215   -384     21    441    442 150.8   2.8  34186  290.00 0854.53
2009/04/23 14:05:58.8     192   -343     47    394    397 150.7   6.8  34184  289.98 0854.53
2009/04/23 14:05:58.9     209   -364      3    420    421 150.1   0.5  34186  290.02 0854.53
2009/04/23 14:05:59.0     247   -323     35    407    409 142.6   5.0  34180  289.92 0854.50
2009/04/23 14:05:59.1     210   -222     60    306    312 136.6  11.1  34182  289.95 0854.50
2009/04/23 14:05:59.2     233   -222    112    323    343 133.6  19.2  34184  289.98 0854.50
2009/04/23 14:05:59.3     175   -296    207    344    401 149.4  34.0  34188  290.06 0854.50
2009/04/23 14:05:59.4     132   -367    151    391    419 160.2  22.2  34186  290.02 0854.50
2009/04/23 14:05:59.5     185   -366     72    411    418 153.2  10.0  34186  290.00 0854.50
2009/04/23 14:05:59.6     149   -321    114    354    373 155.1  17.9  34182  289.96 0854.50
2009/04/23 14:05:59.7     205   -338    148    396    422 148.7  21.5  34188  290.04 0854.50
2009/04/23 14:05:59.8      98   -344    182    358    401 164.1  29.1  34190  290.08 0854.50
2009/04/23 14:05:59.9     183   -387    188    429    468 154.7  25.1  34194  290.14 0854.50
2009/04/23 14:06:00.0     125   -437    156    455    482 164.0  18.9  34188  290.05 0854.50
2009/04/23 14:06:00.1     130   -501    183    518    550 165.4  19.5  34180  289.92 0854.50
2009/04/23 14:06:00.2     170   -447    120    479    494 159.1  14.2  34186  290.00 0854.50
2009/04/23 14:06:00.3     108   -327     96    345    359 161.7  15.6  34192  290.10 0854.50
2009/04/23 14:06:00.4     -10   -365    134    366    389 181.6  21.0  34194  290.15 0854.50
2009/04/23 14:06:00.5      83   -307     36    319    322 164.9   6.6  34188  290.05 0854.50
2009/04/23 14:06:00.6     115   -312     74    333    342 159.7  12.6  34192  290.13 0854.50
2009/04/23 14:06:00.7     100   -260     34    279    282 159.0   7.1  34196  290.17 0854.50
2009/04/23 14:06:00.8     129   -288     18    316    317 155.9   3.3  34190  290.09 0854.50
2009/04/23 14:06:00.9      63   -314     71    321    329 168.5  12.6  34182  289.93 0854.50
2009/04/23 14:06:01.0     100   -259     43    278    282 158.8   8.9  34184  289.98 0854.47
2009/04/23 14:06:01.1      -2   -146     21    147    149 180.9   8.5  34188  290.06 0854.47
2009/04/23 14:06:01.2    -115   -149    -66    189    201 217.6 -19.4  34186  290.01 0854.47
2009/04/23 14:06:01.3    -115    -59     75    130    150 243.0  32.4  34184  289.99 0854.47
2009/04/23 14:06:01.4     -80    -14     82     82    115 259.9  50.1  34204  290.33 0854.47
2009/04/23 14:06:01.5     -90   -200    200    220    297 204.3  47.1  34194  290.15 0854.47
2009/04/23 14:06:01.6    -238   -325    120    404    422 216.2  16.6  34186  290.00 0854.47
2009/04/23 14:06:01.7     -60   -240    165    248    297 194.2  36.7  34192  290.10 0854.47
2009/04/23 14:06:01.8      -6   -138    212    139    253 182.6  63.9  34198  290.23 0854.47
2009/04/23 14:06:01.9     101   -379    259    393    470 165.1  36.6  34190  290.09 0854.47
2009/04/23 14:06:02.0     -10   -390    155    391    420 181.6  23.0  34190  290.07 0854.47
2009/04/23 14:06:02.1     -75   -283     79    293    304 194.9  15.2  34188  290.05 0854.47
2009/04/23 14:06:02.2    -111   -130   -112    172    205 220.5 -40.4  34198  290.21 0854.47
2009/04/23 14:06:02.3    -149   -203    -89    252    267 216.3 -24.4  34186  290.00 0854.47
2009/04/23 14:06:02.4     -41   -185     -7    190    191 192.5  -2.2  34188  290.04 0854.47
2009/04/23 14:06:02.5     -38   -260    -73    263    273 188.5 -15.5  34188  290.03 0854.47
2009/04/23 14:06:02.6     -40   -235     21    239    240 189.8   5.2  34188  290.03 0854.47
2009/04/23 14:06:02.7      50   -168    -48    176    183 163.3 -15.4  34190  290.08 0854.47
2009/04/23 14:06:02.8     104    -94     29    141    145 132.2  11.6  34190  290.08 0854.47
2009/04/23 14:06:02.9     226   -115     47    254    259 117.1  10.6  34198  290.22 0854.47
2009/04/23 14:06:03.0     200   -145    152    248    290 126.0  34.5  34190  290.07 0854.48
2009/04/23 14:06:03.1     -29   -209    166    212    269 188.0  42.2  34194  290.14 0854.48
2009/04/23 14:06:03.2     -58   -175    120    185    220 198.5  35.7  34190  290.08 0854.48
2009/04/23 14:06:03.3       4   -131     82    132    155 178.2  35.5  34192  290.13 0854.48
2009/04/23 14:06:03.4      85   -133     96    159    185 147.4  34.2  34196  290.19 0854.48
2009/04/23 14:06:03.5     110   -203    186    231    296 151.5  43.3  34194  290.14 0854.48
2009/04/23 14:06:03.6      43   -164    156    170    230 165.1  47.7  34194  290.14 0854.48
2009/04/23 14:06:03.7     177   -137    142    224    265 127.8  35.5  34194  290.15 0854.48
2009/04/23 14:06:03.8     247   -191    144    313    344 127.8  26.5  34190  290.08 0854.48
2009/04/23 14:06:03.9     247   -103    144    268    304 112.7  30.6  34188  290.03 0854.48
2009/04/23 14:06:04.0     241   -128    207    273    342 118.0  41.1  34196  290.19 0854.48
2009/04/23 14:06:04.1     243   -155    230    289    369 122.5  42.6  34194  290.15 0854.48
2009/04/23 14:06:04.2     263   -179    181    319    366 124.2  32.1  34194  290.16 0854.48
2009/04/23 14:06:04.3     280   -242    115    371    389 130.8  17.3  34188  290.03 0854.48
2009/04/23 14:06:04.4     210   -354    135    412    434 149.3  18.1  34184  289.99 0854.48
2009/04/23 14:06:04.5     110   -289    112    310    329 159.1  20.6  34190  290.07 0854.48
2009/04/23 14:06:04.6     -12   -241     84    242    257 182.9  19.2  34190  290.09 0854.48
2009/04/23 14:06:04.7      -9   -233     95    234    252 182.2  23.1  34192  290.10 0854.48
2009/04/23 14:06:04.8      48    -86    100     99    140 151.0  50.1  34192  290.13 0854.48
2009/04/23 14:06:04.9     165    -23     48    167    174  98.1  16.3  34190  290.09 0854.48
2009/04/23 14:06:05.0     113   -108    181    157    239 133.6  54.6  34192  290.11 0854.47
2009/04/23 14:06:05.1       5   -118    172    119    209 177.3  62.4  34204  290.31 0854.47
2009/04/23 14:06:05.2     -30   -244    250    246    350 187.1  50.2  34196  290.17 0854.47
2009/04/23 14:06:05.3      -2   -200    259    201    327 180.7  58.3  34200  290.26 0854.47
2009/04/23 14:06:05.4    -158   -190    148    248    288 219.6  33.5  34196  290.19 0854.47
2009/04/23 14:06:05.5      73    -88    162    115    198 140.4  61.3  34204  290.31 0854.47
2009/04/23 14:06:05.6      71   -139    198    157    252 152.9  57.5  34208  290.40 0854.47
2009/04/23 14:06:05.7      38    -60    177     72    191 147.5  77.0  34208  290.40 0854.47
2009/04/23 14:06:05.8      92    -89    164    129    208 134.0  57.9  34206  290.35 0854.47
2009/04/23 14:06:05.9     -31   -155    156    159    222 191.5  49.8  34196  290.19 0854.47
2009/04/23 14:06:06.0      15   -204    251    205    324 175.5  56.5  34204  290.31 0854.47
2009/04/23 14:06:06.1     -18   -205    213    206    296 185.1  51.2  34200  290.26 0854.47
2009/04/23 14:06:06.2     -21   -259    233    260    349 184.7  46.5  34194  290.15 0854.47
2009/04/23 14:06:06.3       3   -250    257    251    359 179.1  50.6  34200  290.24 0854.47
2009/04/23 14:06:06.4      15   -155    238    156    284 174.2  63.6  34200  290.26 0854.47
2009/04/23 14:06:06.5      13   -208    237    209    315 176.4  54.2  34202  290.27 0854.47
2009/04/23 14:06:06.6      73   -107    234    130    267 145.8  68.8  34204  290.31 0854.47
2009/04/23 14:06:06.7     -12   -260    261    261    369 182.7  50.1  34202  290.30 0854.47
2009/04/23 14:06:06.8      60   -183    165    193    253 161.7  44.8  34198  290.20 0854.47
2009/04/23 14:06:06.9      55    -28    153     62    165 117.1  77.1  34208  290.40 0854.47
2009/04/23 14:06:07.0     104    -73    189    128    228 125.1  62.7  34206  290.35 0854.45
2009/04/23 14:06:07.1     -16   -210    173    211    272 184.4  43.7  34200  290.24 0854.45
2009/04/23 14:06:07.2      -9   -243     76    244    256 182.2  17.3  34194  290.15 0854.45
2009/04/23 14:06:07.3     126   -123    131    177    220 134.4  40.1  34194  290.16 0854.45
2009/04/23 14:06:07.4      70   -142    131    159    206 153.7  43.7  34194  290.16 0854.45
2009/04/23 14:06:07.5      54   -165     92    174    196 161.7  30.1  34190  290.08 0854.45
2009/04/23 14:06:07.6      85   -158    130    180    222 151.5  39.5  34194  290.14 0854.45
2009/04/23 14:06:07.7     -25   -238     21    240    241 186.2   5.2  34190  290.09 0854.45
2009/04/23 14:06:07.8     -93   -268     97    284    301 199.2  18.9  34190  290.09 0854.45
2009/04/23 14:06:07.9     -53   -268    115    274    297 191.3  24.1  34186  290.02 0854.45
2009/04/23 14:06:08.0     -38   -187     31    191    194 191.5   9.3  34186  290.01 0854.45
2009/04/23 14:06:08.1      23   -157     54    159    169 171.5  18.9  34190  290.08 0854.45
2009/04/23 14:06:08.2     -42   -192     51    197    204 192.5  14.7  34186  290.02 0854.45
2009/04/23 14:06:08.3     -43   -212     64    217    227 191.6  16.6  34186  290.02 0854.45
2009/04/23 14:06:08.4     -16   -106    115    108    157 188.9  52.0  34200  290.25 0854.45
2009/04/23 14:06:08.5     -16     85     99     87    131 348.9  54.3  34212  290.47 0854.45
2009/04/23 14:06:08.6       0    -18     99     19    100 182.7  89.6  34208  290.40 0854.45
2009/04/23 14:06:08.7      -8     -8    110     12    110 223.2  90.0  34210  290.41 0854.45
2009/04/23 14:06:08.8     -41    -97    171    106    201 203.2  65.4  34208  290.38 0854.45
2009/04/23 14:06:08.9      14   -110    158    111    193 172.4  61.8  34206  290.36 0854.45
2009/04/23 14:06:09.0       5   -209    232    210    312 178.6  53.3  34196  290.17 0854.44
2009/04/23 14:06:09.1      52   -258     88    264    279 168.4  18.6  34196  290.19 0854.44
2009/04/23 14:06:09.2     170   -134     82    217    231 128.2  21.5  34188  290.06 0854.44
2009/04/23 14:06:09.3     131   -161     84    208    224 140.8  23.0  34188  290.06 0854.44
2009/04/23 14:06:09.4      47   -212     11    218    219 167.3   3.1  34188  290.06 0854.44
2009/04/23 14:06:09.5     115   -245     53    271    277 154.7  11.1  34194  290.14 0854.44
2009/04/23 14:06:09.6     140   -254     74    291    301 151.1  14.3  34194  290.14 0854.44
2009/04/23 14:06:09.7     157   -249     79    295    306 147.7  15.0  34192  290.10 0854.44
2009/04/23 14:06:09.8     112   -315    152    335    367 160.4  26.2  34198  290.23 0854.44
2009/04/23 14:06:09.9      81   -284    189    296    351 164.0  35.6  34194  290.16 0854.44
2009/04/23 14:06:10.0      18   -240    150    241    283 175.5  35.0  34198  290.20 0854.34
2009/04/23 14:06:10.1      75   -159    162    176    239 154.6  47.7  34200  290.25 0854.34
2009/04/23 14:06:10.2     160   -201     90    258    274 141.5  19.2  34196  290.17 0854.34
2009/04/23 14:06:10.3     126   -241     96    272    288 152.4  20.0  34186  290.02 0854.34
2009/04/23 14:06:10.4     200   -234    113    309    329 139.5  20.8  34190  290.07 0854.34
2009/04/23 14:06:10.5     171   -252    129    305    331 145.8  24.2  34178  289.86 0854.34
2009/04/23 14:06:10.6      39   -280    144    283    317 172.0  29.1  34186  290.00 0854.34
2009/04/23 14:06:10.7      21   -282     28    283    285 175.6   5.7  34190  290.07 0854.34
2009/04/23 14:06:10.8      17   -227     -1    228    229 175.6  -0.3  34192  290.11 0854.34
2009/04/23 14:06:10.9      83   -304     69    316    324 164.6  12.4  34192  290.12 0854.34
2009/04/23 14:06:11.0     109   -261     55    284    290 157.3  11.1  34194  290.14 0854.34
2009/04/23 14:06:11.1     148   -169    117    225    253 138.8  29.5  34192  290.12 0854.34
2009/04/23 14:06:11.2     203   -163    105    261    281 128.9  23.0  34190  290.09 0854.34
2009/04/23 14:06:11.3     158   -261    168    306    349 148.8  31.3  34178  289.87 0854.34
2009/04/23 14:06:11.4      91   -343    280    355    452 165.1  42.2  34176  289.85 0854.34
2009/04/23 14:06:11.5      51   -340    279    344    442 171.4  43.4  34172  289.78 0854.34
2009/04/23 14:06:11.6     152   -256    173    299    345 149.3  32.8  34178  289.87 0854.34
2009/04/23 14:06:11.7     265   -125    133    294    322 115.3  26.2  34186  290.00 0854.34
2009/04/23 14:06:11.8     255   -125    103    285    303 116.2  20.9  34186  290.02 0854.34
2009/04/23 14:06:11.9     290   -232     85    372    382 128.6  12.9  34172  289.79 0854.34
2009/04/23 14:06:12.0     355   -275     21    450    451 127.8   2.8  34182  289.94 0854.32
2009/04/23 14:06:12.1     148   -301     38    336    339 153.8   6.5  34186  290.01 0854.32
2009/04/23 14:06:12.2     212   -264    120    339    360 141.3  19.6  34166  289.69 0854.32
2009/04/23 14:06:12.3     180   -338    127    384    405 151.9  18.4  34172  289.77 0854.32
2009/04/23 14:06:12.4     162   -331    169    369    405 153.8  26.3  34172  289.76 0854.32
2009/04/23 14:06:12.5     163   -320    189    360    406 152.9  30.0  34170  289.74 0854.32
2009/04/23 14:06:12.6      64   -398    175    404    440 170.8  25.1  34182  289.95 0854.32
2009/04/23 14:06:12.7     -31   -415    113    417    433 184.4  15.2  34184  289.97 0854.32
2009/04/23 14:06:12.8      66   -389    149    395    422 170.3  21.8  34182  289.95 0854.32
2009/04/23 14:06:12.9      88   -337     88    349    360 165.4  14.2  34180  289.91 0854.32
2009/04/23 14:06:13.0     147   -276     69    314    322 151.9  12.4  34186  290.00 0854.32
2009/04/23 14:06:13.1     133   -293     28    322    324 155.5   5.1  34186  290.00 0854.32
2009/04/23 14:06:13.2     109   -349     61    366    372 162.6   9.5  34184  289.99 0854.32
2009/04/23 14:06:13.3     120   -333     47    355    359 160.1   7.6  34184  289.98 0854.32
2009/04/23 14:06:13.4     141   -337     24    366    367 157.3   3.8  34186  290.01 0854.32
2009/04/23 14:06:13.5      30   -328    139    330    358 174.7  24.1  34172  289.76 0854.32
2009/04/23 14:06:13.6      93   -389    194    401    445 166.5  27.7  34168  289.72 0854.32
2009/04/23 14:06:13.8     111   -403    123    419    437 164.6  16.4  34170  289.75 0854.32
2009/04/23 14:06:13.8     184   -201     -8    273    274 137.5  -1.8  34178  289.86 0854.32
2009/04/23 14:06:13.9     216   -178     55    280    286 129.5  11.1  34182  289.95 0854.32
2009/04/23 14:06:14.0     176   -237     69    296    305 143.5  13.2  34180  289.92 0854.29
2009/04/23 14:06:14.1     143   -301     89    334    346 154.5  15.0  34178  289.86 0854.29
2009/04/23 14:06:14.2      72   -370     73    378    386 168.9  11.0  34186  290.01 0854.29
2009/04/23 14:06:14.3     133   -381     67    404    410 160.7   9.5  34176  289.85 0854.29
2009/04/23 14:06:14.4     204   -320    133    380    403 147.4  19.3  34180  289.91 0854.29
2009/04/23 14:06:14.5     225   -356    148    422    447 147.7  20.0  34176  289.85 0854.29
2009/04/23 14:06:14.6     298   -341     71    454    460 138.8   9.0  34178  289.88 0854.29
2009/04/23 14:06:14.7     256   -362     29    444    445 144.8   3.8  34182  289.95 0854.29
2009/04/23 14:06:14.8     293   -342    -43    451    454 139.5  -5.5  34184  289.97 0854.29
2009/04/23 14:06:15.0     269   -279     18    388    389 136.1   2.8  34176  289.84 0854.29
2009/04/23 14:06:15.1     285   -212    -70    356    363 126.6 -11.2  34182  289.94 0854.29
2009/04/23 14:06:15.1     175   -213    -82    276    287 140.6 -21.7  34186  290.00 0854.29
2009/04/23 14:06:15.2      89   -248    -39    264    267 160.2  -8.6  34178  289.88 0854.29
2009/04/23 14:06:15.3      26   -251    122    253    280 174.0  27.3  34184  289.98 0854.29
2009/04/23 14:06:15.4     148   -177    -30    232    234 140.1  -7.5  34186  290.02 0854.29
2009/04/23 14:06:15.5     107   -101    -50    148    157 133.2 -18.9  34184  289.99 0854.29
2009/04/23 14:06:15.6      77   -116    -47    140    147 146.6 -23.6  34186  290.02 0854.29
2009/04/23 14:06:15.7      58    -74    -64     95    114 141.7 -40.9  34192  290.11 0854.29
2009/04/23 14:06:15.8      32    -77    -50     84     97 157.3 -38.8  34188  290.06 0854.29
2009/04/23 14:06:15.9      35   -105    -36    111    116 161.3 -23.8  34188  290.04 0854.29
2009/04/23 14:06:16.0     -15   -184    -60    185    194 184.9 -23.6  34186  290.02 0854.30
2009/04/23 14:06:16.1      35   -211    -59    214    223 170.4 -15.5  34190  290.08 0854.30
2009/04/23 14:06:16.2     109   -285    -40    306    309 159.1  -7.6  34188  290.05 0854.30
2009/04/23 14:06:16.4     182   -277     -9    332    333 146.6  -1.6  34182  289.94 0854.30
2009/04/23 14:06:16.5     217   -302     10    373    374 144.3   1.6  34174  289.82 0854.30
2009/04/23 14:06:16.5     175   -277     31    328    330 147.7   5.5  34172  289.79 0854.30
2009/04/23 14:06:16.7     161   -270      2    315    316 149.3   0.4  34178  289.86 0854.30
2009/04/23 14:06:16.8     174   -265     10    318    319 146.6   1.9  34178  289.88 0854.30
2009/04/23 14:06:16.9      65   -315    -68    322    330 168.3 -12.0  34184  289.97 0854.30
2009/04/23 14:06:17.0     121   -374    -78    394    402 162.1 -11.2  34182  289.93 0854.30
2009/04/23 14:06:17.1     110   -320    -22    339    340 161.0  -3.7  34184  289.98 0854.30
2009/04/23 14:06:17.2     112   -269    -31    292    294 157.3  -6.1  34182  289.95 0854.30
2009/04/23 14:06:17.3      87   -236      0    252    253 159.7   0.0  34182  289.95 0854.30
2009/04/23 14:06:17.4      67   -249    -52    258    264 164.9 -11.5  34180  289.92 0854.30
2009/04/23 14:06:17.5     105   -314     37    332    335 161.5   6.4  34182  289.93 0854.30
2009/04/23 14:06:17.6      58   -284     14    291    292 168.4   2.9  34182  289.95 0854.30
2009/04/23 14:06:17.7      30   -278     70    280    289 173.8  14.2  34180  289.92 0854.30
2009/04/23 14:06:17.8      67   -285     63    293    300 166.6  12.2  34180  289.92 0854.30
2009/04/23 14:06:17.9      58   -305    102    311    328 169.1  18.1  34180  289.92 0854.30
2009/04/23 14:06:18.0     107   -224     21    249    250 154.4   4.9  34180  289.90 0854.30
2009/04/23 14:06:18.1     121   -396    -23    415    416 163.0  -3.3  34180  289.92 0854.31
2009/04/23 14:06:18.2     122   -392     23    411    412 162.7   3.3  34180  289.90 0854.31
2009/04/23 14:06:18.3     137   -347     44    374    377 158.4   6.8  34176  289.84 0854.31
2009/04/23 14:06:18.4      96   -391     23    403    404 166.2   3.3  34180  289.92 0854.31
2009/04/23 14:06:18.5     191   -413      2    456    457 155.2   0.4  34180  289.90 0854.31
2009/04/23 14:06:18.6     203   -412    -17    460    461 153.8  -2.2  34182  289.94 0854.31
2009/04/23 14:06:18.7     140   -387   -123    412    431 160.1 -16.7  34182  289.95 0854.31
2009/04/23 14:06:18.8     256   -390    -42    467    469 146.7  -5.2  34180  289.91 0854.31
2009/04/23 14:06:18.9     177   -328    -50    373    377 151.6  -7.7  34178  289.86 0854.31
2009/04/23 14:06:19.0     227   -299    -67    376    383 142.7 -10.2  34178  289.86 0854.31
2009/04/23 14:06:19.1     287   -235    -20    371    372 129.3  -3.1  34178  289.86 0854.31
2009/04/23 14:06:19.2     257   -216     44    336    339 130.0   7.6  34170  289.74 0854.31
2009/04/23 14:06:19.3     296   -270    110    401    416 132.4  15.4  34174  289.82 0854.31
2009/04/23 14:06:19.4     259   -283     93    384    396 137.6  13.7  34178  289.87 0854.31
2009/04/23 14:06:19.5     221   -283     53    360    365 142.0   8.5  34182  289.96 0854.31
2009/04/23 14:06:19.6     295   -295    115    418    434 135.0  15.4  34170  289.73 0854.31
2009/04/23 14:06:19.7     259   -329    115    420    436 141.8  15.3  34176  289.85 0854.31
2009/04/23 14:06:19.8     245   -384    159    456    482 147.4  20.0  34166  289.69 0854.31
2009/04/23 14:06:19.9     245   -260     46    358    361 136.8   7.4  34178  289.86 0854.31
2009/04/23 14:06:20.0     321   -321      7    454    455 135.0   0.9  34180  289.90 0854.31
2009/04/23 14:06:20.1     312   -435    130    536    552 144.3  13.7  34174  289.80 0854.32
2009/04/23 14:06:20.2     333   -490    190    593    623 145.8  17.8  34168  289.71 0854.32
2009/04/23 14:06:20.3     269   -506    156    573    595 152.0  15.3  34180  289.90 0854.32
2009/04/23 14:06:20.4     232   -510    174    561    588 155.5  17.3  34184  289.98 0854.32
2009/04/23 14:06:20.5     173   -456     75    488    494 159.2   8.8  34188  290.05 0854.32
2009/04/23 14:06:20.6     262   -441     77    514    520 149.3   8.6  34186  290.01 0854.32
2009/04/23 14:06:20.7     256   -431    157    502    527 149.3  17.4  34182  289.96 0854.32
2009/04/23 14:06:20.8     263   -450     82    522    529 149.7   9.0  34190  290.09 0854.32
2009/04/23 14:06:20.9     181   -403     22    442    443 155.8   2.9  34190  290.07 0854.32
2009/04/23 14:06:21.0     129   -405     67    426    432 162.3   9.0  34194  290.16 0854.32
2009/04/23 14:06:21.1     111   -465     65    479    484 166.5   7.8  34192  290.10 0854.32
2009/04/23 14:06:21.2      92   -405     93    416    427 167.2  12.6  34194  290.14 0854.32
2009/04/23 14:06:21.3     -16   -420    145    421    446 182.3  19.1  34192  290.12 0854.32
2009/04/23 14:06:21.4       3   -372    164    373    407 179.5  25.2  34194  290.15 0854.32
2009/04/23 14:06:21.5      53   -428    117    432    448 172.9  15.2  34190  290.07 0854.32
2009/04/23 14:06:21.6       6   -443    120    444    461 179.2  15.2  34194  290.16 0854.32
2009/04/23 14:06:21.7      58   -364    147    369    397 170.9  23.0  34200  290.25 0854.32
2009/04/23 14:06:21.8      67   -493    117    498    512 172.2  13.3  34190  290.08 0854.32
2009/04/23 14:06:21.9     -14   -451     79    452    460 181.8  10.0  34192  290.12 0854.32
2009/04/23 14:06:22.0     -18   -384    199    385    433 182.7  29.3  34192  290.12 0854.32
2009/04/23 14:06:22.1      -2   -441    207    442    488 180.3  27.0  34200  290.25 0854.33
2009/04/23 14:06:22.2     123   -376    164    396    428 161.9  23.8  34196  290.17 0854.33
2009/04/23 14:06:22.3     111   -454    151    468    492 166.2  17.9  34190  290.08 0854.33
2009/04/23 14:06:22.4      94   -504    175    513    543 169.4  18.8  34196  290.19 0854.33
2009/04/23 14:06:22.5      20   -478    190    479    515 177.5  22.9  34198  290.22 0854.33
2009/04/23 14:06:22.6     -29   -425     15    427    428 184.0   2.1  34190  290.07 0854.33
2009/04/23 14:06:22.7      18   -365     88    366    377 177.1  13.5  34198  290.20 0854.33
2009/04/23 14:06:22.8      78   -402     68    410    416 169.0   9.4  34196  290.19 0854.33
2009/04/23 14:06:22.9     133   -398     74    420    427 161.5  10.1  34190  290.07 0854.33
2009/04/23 14:06:23.0     169   -319    137    362    387 152.0  21.7  34188  290.03 0854.33
2009/04/23 14:06:23.1     239   -334    166    411    443 144.4  23.1  34190  290.09 0854.33
2009/04/23 14:06:23.2     140   -353    107    380    395 158.3  15.8  34192  290.11 0854.33
2009/04/23 14:06:23.3      34   -399    101    401    414 175.0  14.2  34194  290.16 0854.33
2009/04/23 14:06:23.4      42   -464    138    466    487 174.8  16.5  34190  290.08 0854.33
2009/04/23 14:06:23.5      75   -382    187    390    432 168.9  27.3  34190  290.09 0854.33
2009/04/23 14:06:23.6     179   -329    101    375    389 151.4  15.2  34192  290.10 0854.33
2009/04/23 14:06:23.7     237   -366     72    437    444 147.0   9.4  34182  289.94 0854.33
2009/04/23 14:06:23.8     157   -384    138    416    439 157.7  18.4  34178  289.88 0854.33
2009/04/23 14:06:23.9     187   -346    122    394    413 151.6  17.3  34180  289.92 0854.33
2009/04/23 14:06:24.0     224   -333    175    402    438 146.1  25.1  34178  289.87 0854.33
2009/04/23 14:06:24.1     263   -295    206    396    446 138.2  29.5  34190  290.09 0854.34
2009/04/23 14:06:24.2     247   -225    168    335    374 132.3  28.6  34188  290.03 0854.34
2009/04/23 14:06:24.3     125   -308    246    333    414 157.8  40.0  34172  289.79 0854.34
2009/04/23 14:06:24.4     147   -341    256    372    451 156.6  37.9  34186  290.02 0854.34
2009/04/23 14:06:24.5     251   -259    199    362    413 135.9  31.3  34188  290.04 0854.34
2009/04/23 14:06:24.6     287   -187    148    343    373 123.1  24.9  34194  290.16 0854.34
2009/04/23 14:06:24.7     222   -255    193    339    390 138.9  32.3  34194  290.15 0854.34
2009/04/23 14:06:24.8     126   -268    248    297    386 154.7  43.8  34190  290.08 0854.34
2009/04/23 14:06:24.9      87   -316    222    328    396 164.6  37.4  34190  290.08 0854.34
2009/04/23 14:06:25.0     149   -219    191    266    327 145.7  39.2  34190  290.07 0854.34
2009/04/23 14:06:25.1     197   -416    255    461    526 154.6  31.4  34192  290.12 0854.34
2009/04/23 14:06:25.2     145   -400    259    426    498 160.0  34.2  34178  289.89 0854.34
2009/04/23 14:06:25.3     109   -409    275    424    505 165.1  35.9  34186  290.01 0854.34
2009/04/23 14:06:25.4     134   -377    252    401    473 160.4  35.1  34194  290.14 0854.34
2009/04/23 14:06:25.5     103   -344    221    360    422 163.4  34.4  34190  290.07 0854.34
2009/04/23 14:06:25.6     141   -345    244    373    445 157.7  36.3  34188  290.05 0854.34
2009/04/23 14:06:25.7      85   -258    215    272    346 161.7  42.4  34184  289.98 0854.34
2009/04/23 14:06:25.8      52   -371    243    375    446 172.0  35.7  34188  290.05 0854.34
2009/04/23 14:06:25.9      44   -338    173    341    382 172.6  29.1  34194  290.16 0854.34
2009/04/23 14:06:26.0     179   -355    185    398    438 153.2  26.6  34188  290.04 0854.34
2009/04/23 14:06:26.1     164   -335    211    374    429 153.9  32.0  34184  289.97 0854.33
2009/04/23 14:06:26.2     161   -328    202    366    418 153.9  31.4  34192  290.11 0854.33
2009/04/23 14:06:26.3     170   -241    229    296    374 144.8  41.7  34192  290.13 0854.33
2009/04/23 14:06:26.4     -31   -285     32    287    289 186.3   6.5  34196  290.19 0854.33
2009/04/23 14:06:26.5     -78   -340    -41    349    352 193.0  -6.7  34196  290.18 0854.33
2009/04/23 14:06:26.6       6   -386      6    387    388 179.1   0.9  34194  290.15 0854.33
2009/04/23 14:06:26.7     -53   -368    226    372    435 188.3  34.2  34196  290.19 0854.33
2009/04/23 14:06:26.8     -65   -350    305    356    468 190.6  45.0  34186  290.02 0854.33
2009/04/23 14:06:26.9     -50   -339    312    343    463 188.5  47.0  34192  290.12 0854.33
2009/04/23 14:06:27.0    -123   -470    323    486    583 194.7  36.6  34182  289.96 0854.33
2009/04/23 14:06:27.1     -76   -393    239    401    466 191.0  33.6  34196  290.17 0854.33
2009/04/23 14:06:27.2    -113   -338    172    357    396 198.6  27.7  34192  290.11 0854.33
2009/04/23 14:06:27.3    -135   -243    191    279    338 209.0  37.8  34198  290.22 0854.33
2009/04/23 14:06:27.4    -126   -194    184    232    296 213.0  42.4  34196  290.17 0854.33
2009/04/23 14:06:27.5     -67   -142    181    158    240 205.3  54.3  34198  290.23 0854.33
2009/04/23 14:06:27.6      20    -55    117     59    131 160.0  71.4  34210  290.43 0854.33
2009/04/23 14:06:27.7     -87     17     -6     89     90 281.5  -4.1  34210  290.41 0854.33
2009/04/23 14:06:27.8     -63    -74    -51     98    110 220.5 -33.7  34200  290.26 0854.33
2009/04/23 14:06:27.9     -34    -77     -7     85     86 204.1  -5.2  34194  290.16 0854.33
2009/04/23 14:06:28.0     107   -162    116    195    226 146.6  33.5  34194  290.16 0854.33
2009/04/23 14:06:28.1     111   -267     24    290    292 157.3   4.9  34190  290.09 0854.37
2009/04/23 14:06:28.2      28   -226    -10    228    229 172.9  -2.6  34194  290.14 0854.37
2009/04/23 14:06:28.3      85   -180     58    200    209 154.7  16.3  34194  290.16 0854.37
2009/04/23 14:06:28.4      86   -165    107    187    215 152.4  32.1  34192  290.13 0854.37
2009/04/23 14:06:28.5     160   -221    153    274    313 144.0  31.6  34196  290.17 0854.37
2009/04/23 14:06:28.6     199   -241    159    313    351 140.4  29.2  34198  290.20 0854.37
2009/04/23 14:06:28.7     233   -169    116    288    310 126.0  23.1  34198  290.20 0854.37
2009/04/23 14:06:28.8     130   -200    183    239    301 147.0  41.4  34204  290.31 0854.37
2009/04/23 14:06:28.9     174   -181    151    252    293 136.1  33.5  34202  290.29 0854.37
2009/04/23 14:06:29.0     198   -251    177    321    366 141.7  31.4  34198  290.20 0854.37
2009/04/23 14:06:29.1     211   -268    114    342    361 141.8  18.5  34198  290.20 0854.37
2009/04/23 14:06:29.2     230   -222    135    320    347 134.0  24.2  34200  290.25 0854.37
2009/04/23 14:06:29.3     213   -270    115    345    364 141.7  18.5  34192  290.13 0854.37
2009/04/23 14:06:29.4     212   -293     93    363    375 144.1  14.5  34188  290.04 0854.37
2009/04/23 14:06:29.5     222   -306    103    379    393 144.1  15.3  34186  290.01 0854.37
2009/04/23 14:06:29.6     217   -268    173    346    386 141.0  28.5  34182  289.96 0854.37
2009/04/23 14:06:29.7     220   -269    141    348    375 140.8  23.1  34188  290.04 0854.37
2009/04/23 14:06:29.8     207   -270    159    341    376 142.6  27.1  34188  290.03 0854.37
2009/04/23 14:06:29.9     148   -289    168    325    365 152.8  29.4  34184  289.98 0854.37
2009/04/23 14:06:30.0     126   -300    148    326    358 157.2  26.2  34186  290.01 0854.37
2009/04/23 14:06:30.1     146   -308    109    342    359 154.6  17.7  34186  290.01 0854.35
2009/04/23 14:06:30.2     130   -272    122    302    325 154.4  23.4  34184  289.98 0854.35
2009/04/23 14:06:30.3     120   -299     93    323    337 158.2  16.1  34186  290.01 0854.35
2009/04/23 14:06:30.4      83   -276    122    289    313 163.3  24.2  34186  290.00 0854.35
2009/04/23 14:06:30.5      79   -291    134    302    330 164.8  25.6  34188  290.03 0854.35
2009/04/23 14:06:30.6     120   -291    102    315    332 157.5  18.0  34182  289.93 0854.35
2009/04/23 14:06:30.7      66   -283     94    291    306 166.7  17.9  34188  290.05 0854.35
2009/04/23 14:06:30.8      90   -225    179    243    301 158.1  39.7  34192  290.12 0854.35
2009/04/23 14:06:30.9     116   -232    142    260    296 153.3  31.3  34186  290.00 0854.35
2009/04/23 14:06:31.0     119   -234    173    263    314 152.9  36.5  34196  290.17 0854.35
2009/04/23 14:06:31.1      98   -207    191    230    298 154.5  43.8  34192  290.10 0854.34
2009/04/23 14:06:31.2     113   -218    176    246    302 152.6  39.3  34192  290.12 0854.34
2009/04/23 14:06:31.3     154   -259    143    302    334 149.2  27.1  34194  290.14 0854.34
2009/04/23 14:06:31.4     103   -296    161    314    352 160.8  29.3  34192  290.13 0854.34
2009/04/23 14:06:31.5     149   -278    162    316    355 151.7  29.3  34194  290.16 0854.34
2009/04/23 14:06:31.6     148   -249    205    290    355 149.3  38.7  34196  290.18 0854.34
2009/04/23 14:06:31.7      81   -222    220    237    323 160.0  47.7  34198  290.22 0854.34
2009/04/23 14:06:31.8       1   -104    152    105    184 179.1  62.4  34200  290.26 0854.34
2009/04/23 14:06:31.9      -1   -103    163    104    193 181.0  64.7  34206  290.35 0854.34
2009/04/23 14:06:32.0     -21   -139    183    141    231 188.9  58.5  34198  290.21 0854.34
2009/04/23 14:06:32.1      27   -252    238    254    348 173.8  48.0  34196  290.19 0854.34
2009/04/23 14:06:32.2      17   -224    226    225    318 175.6  50.0  34198  290.20 0854.34
2009/04/23 14:06:32.3     -12   -274    150    275    313 182.7  30.9  34198  290.22 0854.34
2009/04/23 14:06:32.4      -3   -231    142    232    272 180.9  34.8  34202  290.27 0854.34
2009/04/23 14:06:32.5     -24   -230    132    232    266 186.0  32.3  34204  290.31 0854.34
2009/04/23 14:06:32.6     -12   -233    182    234    296 183.1  41.7  34204  290.31 0854.34
2009/04/23 14:06:32.7      27   -248    153    250    293 173.8  34.4  34204  290.32 0854.34
2009/04/23 14:06:32.8     -18   -241    206    242    317 184.4  44.8  34200  290.26 0854.34
2009/04/23 14:06:32.9     -20   -200    191    202    278 185.8  48.2  34200  290.26 0854.34
2009/04/23 14:06:33.0     -51   -191    181    198    268 195.1  47.5  34200  290.24 0854.34
2009/04/23 14:06:33.1    -114   -192    164    224    277 210.7  39.7  34200  290.26 0854.37
2009/04/23 14:06:33.2    -148   -211    138    259    293 215.1  30.3  34204  290.32 0854.37
2009/04/23 14:06:33.3    -190   -199     94    276    292 223.7  18.9  34204  290.31 0854.37
2009/04/23 14:06:33.4    -204   -205     78    290    301 224.9  15.2  34218  290.56 0854.37
2009/04/23 14:06:33.5    -153   -187     38    242    246 219.4   8.9  34216  290.53 0854.37
2009/04/23 14:06:33.6     -29   -272     33    274    276 186.3   6.9  34210  290.42 0854.37
2009/04/23 14:06:33.7     -37   -138    -46    143    151 195.1 -18.1  34206  290.36 0854.37
2009/04/23 14:06:33.8       4   -250     59    251    258 178.9  13.2  34206  290.36 0854.37
2009/04/23 14:06:33.9      66   -198    117    209    239 161.5  31.6  34228  290.72 0854.37
2009/04/23 14:06:34.0      43   -214     91    219    237 168.4  24.1  34218  290.55 0854.37
2009/04/23 14:06:34.1      18   -254    127    255    284 175.8  28.2  34216  290.51 0854.37
2009/04/23 14:06:34.2     -12   -173    141    174    223 184.0  43.5  34220  290.58 0854.37
2009/04/23 14:06:34.3     -15   -132    144    133    196 186.7  52.5  34242  290.98 0854.37
2009/04/23 14:06:34.4     -14   -103    107    105    149 188.1  50.1  34228  290.72 0854.37
2009/04/23 14:06:34.5     -66   -140    163    155    224 205.3  51.4  34210  290.43 0854.37
2009/04/23 14:06:34.6    -116   -182    182    217    283 212.5  43.8  34232  290.80 0854.37
2009/04/23 14:06:34.7     -79   -154    187    174    255 207.2  52.2  34238  290.89 0854.37
2009/04/23 14:06:34.8    -171   -251    188    304    357 214.3  34.8  34222  290.62 0854.37
2009/04/23 14:06:34.9    -220   -194    173    294    341 228.6  33.3  34216  290.51 0854.37
2009/04/23 14:06:35.0    -247   -204    154    321    356 230.5  27.3  34212  290.45 0854.37
2009/04/23 14:06:35.1    -251   -258    181    361    403 224.2  28.5  34216  290.52 0854.39
2009/04/23 14:06:35.2    -259   -269    181    374    415 223.9  27.8  34228  290.72 0854.39
2009/04/23 14:06:35.3    -207   -199    150    288    324 226.2  29.6  34244  291.00 0854.39
2009/04/23 14:06:35.4    -175   -134    162    221    274 232.5  39.7  34262  291.29 0854.39
2009/04/23 14:06:35.5    -242   -136     64    278    286 240.7  13.1  34264  291.34 0854.39
2009/04/23 14:06:35.6    -146   -352    140    382    406 202.5  21.0  34220  290.59 0854.39
2009/04/23 14:06:35.7    -208   -382     88    436    445 208.6  11.5  34286  291.70 0854.39
2009/04/23 14:06:35.8     -77   -311     69    321    329 193.9  12.3  34236  290.85 0854.39
2009/04/23 14:06:35.9     -52   -336     83    340    351 188.8  13.8  34222  290.64 0854.39
2009/04/23 14:06:36.0     -31   -367     65    369    375 184.9  10.1  34228  290.71 0854.39
2009/04/23 14:06:36.1      -6   -328     72    329    337 181.2  12.4  34260  291.27 0854.39
2009/04/23 14:06:36.2    -182   -285    103    339    355 212.6  17.0  34264  291.34 0854.39
2009/04/23 14:06:36.3    -246   -311      3    397    398 218.3   0.5  34270  291.45 0854.39
2009/04/23 14:06:36.4     -72   -288      9    297    298 194.2   1.8  34278  291.56 0854.39
2009/04/23 14:06:36.5    -129   -323    -96    349    363 201.8 -15.4  34254  291.17 0854.39
2009/04/23 14:06:36.6     -84   -222    121    238    266 200.9  29.1  34298  291.92 0854.39
2009/04/23 14:06:36.7     -52    -81    168     97    193 213.0  67.5  34288  291.74 0854.39
2009/04/23 14:06:36.8      58    -70    145     92    171 140.3  64.7  34238  290.89 0854.39
2009/04/23 14:06:36.9      48    -45     88     67    110 133.2  59.0  34240  290.92 0854.39
2009/04/23 14:06:37.0     -46    -43     62     64     89 226.9  50.0  34248  291.08 0854.39
2009/04/23 14:06:37.1      70     33      6     78     79  64.8   4.9  34242  290.96 0854.41
2009/04/23 14:06:37.2      93     -7     25     94     98  94.4  15.3  34236  290.86 0854.41
2009/04/23 14:06:37.3      73     41    -38     84     92  60.7 -30.6  34246  291.03 0854.41
2009/04/23 14:06:37.4     122     22    -39    125    132  79.4 -17.6  34246  291.03 0854.41
2009/04/23 14:06:37.5     129     51     58    139    150  68.3  23.6  34246  291.04 0854.41
2009/04/23 14:06:37.6     126     78     60    149    160  58.0  23.0  34240  290.92 0854.41
2009/04/23 14:06:37.7     100     62     77    118    140  58.0  36.0  34244  291.01 0854.41
2009/04/23 14:06:37.8      49      3     82     50     96  85.6  65.1  34252  291.13 0854.41
2009/04/23 14:06:37.9     -26    -32     75     42     85 219.6  68.3  34262  291.32 0854.41
2009/04/23 14:06:38.0     -52    -44     95     69    117 229.6  60.5  34262  291.32 0854.41
2009/04/23 14:06:38.1     -78    -78     75    111    133 225.0  37.0  34254  291.18 0854.41
2009/04/23 14:06:38.2     -46   -116     33    126    131 201.8  14.7  34248  291.06 0854.41
2009/04/23 14:06:38.3    -103   -165     70    195    207 211.9  20.7  34262  291.30 0854.41
2009/04/23 14:06:38.4      39   -146     99    152    181 164.9  36.0  34264  291.33 0854.41
2009/04/23 14:06:38.5     -24   -174     84    176    195 188.0  27.3  34254  291.18 0854.41
2009/04/23 14:06:38.6      29   -179    123    182    219 170.7  37.4  34260  291.28 0854.41
2009/04/23 14:06:38.7      44   -132    150    140    205 161.3  52.1  34248  291.08 0854.41
2009/04/23 14:06:38.8      -1   -214    171    215    274 180.5  42.7  34260  291.27 0854.41
2009/04/23 14:06:38.9    -179    -70    107    193    220 248.7  31.4  34274  291.52 0854.41
2009/04/23 14:06:39.0    -131   -128     96    184    207 225.8  29.5  34276  291.55 0854.41
2009/04/23 14:06:39.1     -71   -142    159    160    225 206.7  50.2  34254  291.16 0854.42
2009/04/23 14:06:39.2     -58   -175     99    185    209 198.5  30.6  34256  291.20 0854.42
2009/04/23 14:06:39.3     -87   -187     75    207    220 204.9  20.7  34246  291.03 0854.42
2009/04/23 14:06:39.4      72   -121     59    141    152 149.2  23.6  34252  291.15 0854.42
2009/04/23 14:06:39.5     118    -52    164    130    209 114.0  57.5  34256  291.21 0854.42
2009/04/23 14:06:39.6      46    -45    131     65    146 134.0  72.4  34258  291.25 0854.42
2009/04/23 14:06:39.7     107    -68    107    127    166 122.4  44.3  34246  291.04 0854.42
2009/04/23 14:06:39.8      92   -139    149    168    224 146.4  46.2  34290  291.79 0854.42
2009/04/23 14:06:39.9     -31   -174    142    177    226 190.2  43.3  34284  291.69 0854.42
2009/04/23 14:06:40.0      44     12    119     46    127  74.1  78.2  34308  292.10 0854.42
2009/04/23 14:06:40.1      88    -17    137     90    163 101.5  63.9  34326  292.39 0854.42
2009/04/23 14:06:40.2     135    -73     99    154    183 118.4  35.6  34308  292.10 0854.42
2009/04/23 14:06:40.3      43    -36    104     57    118 129.5  68.9  34310  292.13 0854.42
2009/04/23 14:06:40.4     -13   -239     13    240    241 183.1   3.3  34292  291.80 0854.42
2009/04/23 14:06:40.5     -37   -246    -64    249    258 188.7 -14.5  34280  291.60 0854.42
2009/04/23 14:06:40.6     -51   -344    -15    348    349 188.5  -2.5  34286  291.71 0854.42
2009/04/23 14:06:40.7     -95   -328     49    342    346 196.3   8.2  34308  292.10 0854.42
2009/04/23 14:06:40.8     -71   -344     -7    352    353 191.8  -1.2  34308  292.07 0854.42
2009/04/23 14:06:40.9     -28   -332     78    334    344 185.0  13.2  34292  291.83 0854.42
2009/04/23 14:06:41.0      16   -345     16    346    347 177.2   2.8  34278  291.59 0854.42
2009/04/23 14:06:41.1     -14   -317    -12    318    319 182.6  -2.2  34268  291.41 0854.46
2009/04/23 14:06:41.2      50   -292    107    297    315 170.2  20.7  34286  291.72 0854.46
2009/04/23 14:06:41.3      72   -363     81    371    380 168.7  12.4  34248  291.05 0854.46
2009/04/23 14:06:41.4      89   -371     83    382    391 166.5  12.3  34244  291.01 0854.46
2009/04/23 14:06:41.5      34   -348      9    350    351 174.3   1.5  34252  291.13 0854.46
2009/04/23 14:06:41.6      77   -314     99    324    339 166.2  17.0  34234  290.84 0854.46
2009/04/23 14:06:41.7     100   -262    114    281    303 159.1  23.1  34238  290.90 0854.46
2009/04/23 14:06:41.8      60   -274    110    281    301 167.5  22.5  34236  290.87 0854.46
2009/04/23 14:06:41.9      54   -286     24    292    294 169.3   4.9  34242  290.95 0854.46
2009/04/23 14:06:42.0      61   -277     94    284    300 167.5  18.4  34238  290.90 0854.46
2009/04/23 14:06:42.1      74   -317    129    326    350 166.7  22.8  34246  291.03 0854.46
2009/04/23 14:06:42.2     -71   -371    136    378    401 190.9  20.6  34266  291.37 0854.46
2009/04/23 14:06:42.3    -151   -320    186    354    399 205.3  30.1  34268  291.39 0854.46
2009/04/23 14:06:42.4    -109   -328     79    346    355 198.5  12.9  34268  291.42 0854.46
2009/04/23 14:06:42.6     -92   -412    134    423    444 192.6  17.7  34244  291.01 0854.46
2009/04/23 14:06:42.6      88   -369    137    380    405 166.6  19.9  34232  290.81 0854.46
2009/04/23 14:06:42.8      41   -278    104    282    300 171.5  21.0  34230  290.76 0854.46
2009/04/23 14:06:42.8      52   -194    126    202    238 164.9  35.0  34228  290.72 0854.46
2009/04/23 14:06:43.0     118   -111    159    163    227 133.1  49.4  34242  290.96 0854.46
2009/04/23 14:06:43.1     139   -115    149    181    234 129.5  43.7  34242  290.96 0854.46
2009/04/23 14:06:43.1     118   -107    113    160    195 132.2  38.6  34236  290.86 0854.48
2009/04/23 14:06:43.2      76    -58     92     96    132 127.3  49.4  34240  290.94 0854.48
2009/04/23 14:06:43.4      59    -59     89     84    122 135.0  51.6  34248  291.06 0854.48
2009/04/23 14:06:43.5     -16    -12     75     21     77 232.2  83.9  34256  291.21 0854.48
2009/04/23 14:06:43.6     -25     45     84     52     98 331.0  65.1  34262  291.30 0854.48
2009/04/23 14:06:43.7     -18     56     64     59     87 341.7  52.2  34264  291.35 0854.48
2009/04/23 14:06:43.8     -43     44     80     62    101 315.9  57.9  34272  291.47 0854.48
2009/04/23 14:06:43.9      -6     46     79     47     91 352.0  66.2  34272  291.49 0854.48
2009/04/23 14:06:44.0     -22    -41     73     47     86 208.1  64.6  34268  291.40 0854.48
2009/04/23 14:06:44.1     -13   -112     94    113    146 187.1  43.8  34274  291.50 0854.48
2009/04/23 14:06:44.2      23    -80    129     84    153 164.0  64.6  34282  291.66 0854.48
2009/04/23 14:06:44.3      34    -84    133     91    161 157.7  62.4  34254  291.16 0854.48
2009/04/23 14:06:44.4      45     15    182     48    188  71.6  84.9  34262  291.32 0854.48
2009/04/23 14:06:44.5     -50     22    168     55    176 294.4  81.0  34260  291.26 0854.48
2009/04/23 14:06:44.6    -124     67     99    142    173 298.4  38.0  34264  291.33 0854.48
2009/04/23 14:06:44.7     -74     40     91     85    124 298.4  51.6  34260  291.26 0854.48
2009/04/23 14:06:44.8     -68      5     77     69    103 274.4  52.7  34266  291.37 0854.48
2009/04/23 14:06:44.9      32    -95     35    101    108 161.3  19.4  34246  291.04 0854.48
2009/04/23 14:06:45.0      71   -129     79    148    167 151.0  30.3  34232  290.81 0854.48
2009/04/23 14:06:45.1     -27   -139     33    142    146 191.1  13.1  34230  290.77 0854.48
2009/04/23 14:06:45.2      -3   -216     52    217    224 180.9  13.7  34228  290.74 0854.53
2009/04/23 14:06:45.3      43   -279     82    283    295 171.1  16.3  34232  290.80 0854.53
2009/04/23 14:06:45.4     129   -186     92    227    244 145.3  23.4  34236  290.85 0854.53
2009/04/23 14:06:45.5       2   -134     -2    135    136 179.1  -1.3  34226  290.70 0854.53
2009/04/23 14:06:45.6     -76   -114     -9    138    139 213.8  -3.7  34236  290.87 0854.53
2009/04/23 14:06:45.7     -79   -100    -25    128    131 218.3 -11.3  34238  290.91 0854.53
2009/04/23 14:06:45.8    -101   -100    -18    143    145 225.2  -7.3  34236  290.86 0854.53
2009/04/23 14:06:45.9     -40    -77     -2     87     88 207.6  -1.8  34228  290.72 0854.53
2009/04/23 14:06:46.0     -41    -67     56     79     96 211.6  38.6  34224  290.65 0854.53
2009/04/23 14:06:46.1     -51    -86    100    101    142 210.7  50.0  34230  290.75 0854.53
2009/04/23 14:06:46.2     -55    -80     85     98    129 214.3  45.4  34228  290.72 0854.53
2009/04/23 14:06:46.3      -8   -115    136    116    178 184.4  55.4  34226  290.70 0854.53
2009/04/23 14:06:46.4       2   -142    126    143    190 179.0  45.8  34224  290.67 0854.53
2009/04/23 14:06:46.5     -27   -234    163    236    286 186.7  37.8  34230  290.76 0854.53
2009/04/23 14:06:46.6     -99   -253    187    272    330 201.4  37.7  34234  290.82 0854.53
2009/04/23 14:06:46.7    -109   -213    119    240    267 207.1  28.2  34238  290.90 0854.53
2009/04/23 14:06:46.8      -4   -165    145    166    220 181.4  45.8  34236  290.86 0854.53
2009/04/23 14:06:46.9     -18   -228    129    229    262 184.7  31.9  34228  290.73 0854.53
2009/04/23 14:06:47.0     -16   -259    142    260    296 183.6  31.3  34232  290.80 0854.53
2009/04/23 14:06:47.1     -11   -251    110    252    274 182.7  25.1  34232  290.80 0854.53
2009/04/23 14:06:47.2     -27   -295     75    297    307 185.4  14.3  34230  290.75 0854.56
2009/04/23 14:06:47.3     -50   -238     68    244    254 192.0  15.6  34232  290.80 0854.56
2009/04/23 14:06:47.4     -22   -257     72    259    269 185.1  15.6  34230  290.75 0854.56
2009/04/23 14:06:47.5     -16   -266     23    267    269 183.6   5.0  34234  290.83 0854.56
2009/04/23 14:06:47.6     -71   -228     25    239    241 197.4   6.1  34240  290.92 0854.56
2009/04/23 14:06:47.7     -77   -183    142    199    244 202.9  38.8  34252  291.13 0854.56
2009/04/23 14:06:47.8     -45   -196    155    202    254 192.9  41.4  34250  291.09 0854.56
2009/04/23 14:06:47.9     -33   -147    166    151    224 192.9  52.7  34252  291.15 0854.56
2009/04/23 14:06:48.0     -15   -179    160    180    240 185.1  46.4  34250  291.11 0854.56
2009/04/23 14:06:48.1       3   -203    139    204    246 179.0  37.6  34248  291.07 0854.56
2009/04/23 14:06:48.2      18   -288    101    289    307 176.4  19.4  34248  291.05 0854.56
2009/04/23 14:06:48.3      58   -216    137    224    262 164.9  34.4  34250  291.10 0854.56
2009/04/23 14:06:48.4      26   -249     78    251    263 174.0  17.3  34244  291.00 0854.56
2009/04/23 14:06:48.5     -11   -257    181    258    315 182.5  38.5  34244  290.99 0854.56
2009/04/23 14:06:48.6     -24   -233    154    235    280 186.0  36.3  34240  290.93 0854.56
2009/04/23 14:06:48.7      -3   -226    126    227    259 180.9  31.4  34234  290.83 0854.56
2009/04/23 14:06:48.8      46   -297    104    301    319 171.1  19.2  34226  290.70 0854.56
2009/04/23 14:06:48.9      12   -257    106    258    278 177.3  23.4  34224  290.66 0854.56
2009/04/23 14:06:49.0       8   -274    139    275    308 178.2  29.1  34228  290.73 0854.56
2009/04/23 14:06:49.1      -2   -273    120    274    299 180.5  25.2  34230  290.75 0854.56
2009/04/23 14:06:49.2      -1   -277    128    278    306 180.2  26.6  34226  290.68 0854.57
2009/04/23 14:06:49.3      44   -324    114    327    347 172.2  19.3  34232  290.79 0854.57
2009/04/23 14:06:49.4      -3   -279     79    280    291 180.7  15.8  34228  290.73 0854.57
2009/04/23 14:06:49.5       4   -313     67    314    322 179.1  12.1  34226  290.68 0854.57
2009/04/23 14:06:49.6      15   -229     70    230    241 176.2  17.1  34226  290.70 0854.57
2009/04/23 14:06:49.7      59   -289    114    296    317 168.4  22.2  34234  290.83 0854.57
2009/04/23 14:06:49.8     138   -289    113    321    340 154.4  20.1  34230  290.77 0854.57
2009/04/23 14:06:49.9     111   -275     40    297    300 157.9   7.8  34234  290.82 0854.57
2009/04/23 14:06:50.0     185   -228     96    294    310 141.0  18.1  34232  290.80 0854.57
2009/04/23 14:06:50.1     117   -257    122    283    308 155.5  24.9  34226  290.68 0854.57
2009/04/23 14:06:50.2     124   -273    105    301    318 155.5  20.0  34222  290.61 0854.57
2009/04/23 14:06:50.3     111   -272     79    294    305 157.7  15.2  34222  290.61 0854.57
2009/04/23 14:06:50.4      73   -292    109    302    322 165.8  19.9  34224  290.65 0854.57
2009/04/23 14:06:50.5      24   -315    103    317    334 175.5  18.1  34228  290.71 0854.57
2009/04/23 14:06:50.6       4   -270    145    271    307 179.1  30.6  34228  290.71 0854.57
2009/04/23 14:06:50.7      62   -285    156    292    331 167.6  30.6  34224  290.66 0854.57
2009/04/23 14:06:50.8     -79   -256     70    268    278 197.2  14.7  34226  290.70 0854.57
2009/04/23 14:06:50.9     -20   -267     94    268    284 184.5  20.0  34228  290.71 0854.57
2009/04/23 14:06:51.0      -3   -250     99    251    269 180.7  22.8  34226  290.70 0854.57
2009/04/23 14:06:51.1     -11   -245     95    246    263 182.7  22.0  34228  290.73 0854.57
2009/04/23 14:06:51.2     -30   -242    120    244    271 187.1  28.2  34228  290.73 0854.57
2009/04/23 14:06:51.3     -99   -195     76    219    232 207.0  19.2  34228  290.72 0854.57
2009/04/23 14:06:51.4    -122   -171     47    211    217 215.6  12.6  34226  290.70 0854.57
2009/04/23 14:06:51.5    -219   -217    -39    309    312 225.2  -7.2  34246  291.02 0854.57
2009/04/23 14:06:51.6    -266   -203    -96    335    348 232.7 -20.7  34230  290.76 0854.57
2009/04/23 14:06:51.7    -164   -264     -3    312    313 211.9  -0.7  34234  290.83 0854.57
2009/04/23 14:06:51.8    -241   -290     -7    378    379 219.7  -1.2  34234  290.83 0854.57
2009/04/23 14:06:51.9    -225   -189    -50    295    300 230.0  -9.6  34232  290.80 0854.57
2009/04/23 14:06:52.0    -184   -290   -118    344    364 212.4 -19.1  34252  291.15 0854.57
2009/04/23 14:06:52.1    -189   -251    -62    315    322 217.0 -11.1  34248  291.07 0854.57
2009/04/23 14:06:52.2    -194   -220    -89    294    308 221.5 -16.8  34226  290.70 0854.59
2009/04/23 14:06:52.3    -248   -152    -82    292    303 238.5 -20.2  34240  290.92 0854.59
2009/04/23 14:06:52.4    -239   -121    -86    268    282 243.1 -17.9  34250  291.10 0854.59
2009/04/23 14:06:52.5    -156   -139     -8    210    211 228.2  -2.2  34244  290.99 0854.59
2009/04/23 14:06:52.6    -177   -133    -28    222    224 232.9  -7.3  34246  291.04 0854.59
2009/04/23 14:06:52.7    -173    -92    -62    196    206 242.0 -17.5  34252  291.13 0854.59
2009/04/23 14:06:52.8    -161    -30    -49    164    172 259.2 -16.8  34252  291.13 0854.59
2009/04/23 14:06:52.9    -116   -152    -69    192    205 217.2 -19.7  34256  291.20 0854.59
2009/04/23 14:06:53.0    -137    -75     -7    157    158 241.2  -2.8  34252  291.13 0854.59
2009/04/23 14:06:53.1    -140    -61     -4    153    154 246.5  -1.8  34250  291.11 0854.59
2009/04/23 14:06:53.2    -116    -44      5    125    126 249.2   2.3  34248  291.08 0854.59
2009/04/23 14:06:53.3      -5   -113    -70    114    133 182.7 -39.9  34248  291.08 0854.59
2009/04/23 14:06:53.4     -33   -141    -52    145    155 193.4 -19.7  34246  291.03 0854.59
2009/04/23 14:06:53.5    -131   -139    -93    192    213 223.4 -31.8  34244  290.99 0854.59
2009/04/23 14:06:53.6    -155   -126   -107    201    227 230.9 -35.0  34244  291.01 0854.59
2009/04/23 14:06:53.7    -116    -45     -5    125    126 248.7  -2.6  34256  291.20 0854.59
2009/04/23 14:06:53.8    -124    -23     41    127    134 259.4  17.9  34256  291.21 0854.59
2009/04/23 14:06:53.9    -148    -35    -11    153    154 256.8  -4.1  34262  291.30 0854.59
2009/04/23 14:06:54.0    -192    -84    -79    210    224 246.3 -25.7  34246  291.03 0854.59
2009/04/23 14:06:54.1    -239   -132    -87    274    288 241.1 -17.6  34246  291.02 0854.59
2009/04/23 14:06:54.2    -240    -91    -83    257    271 249.2 -17.9  34262  291.31 0854.52
2009/04/23 14:06:54.3    -223     28    -12    225    226 277.2  -3.1  34284  291.69 0854.52
2009/04/23 14:06:54.4    -103     15    -31    105    109 278.4 -21.7  34276  291.55 0854.52
2009/04/23 14:06:54.5     -54     -4    -63     55     83 265.6 -58.1  34274  291.52 0854.52
2009/04/23 14:06:54.6    -173    -12    -91    174    196 265.9 -33.9  34238  290.91 0854.52
2009/04/23 14:06:54.7    -141    -36   -102    146    178 255.4 -43.0  34242  290.96 0854.52
2009/04/23 14:06:54.8     -97      0    -87     98    131 270.0 -50.3  34240  290.92 0854.52
2009/04/23 14:06:54.9    -127     21    -60    129    142 279.7 -31.5  34254  291.16 0854.52
2009/04/23 14:06:55.0    -123     81    -46    148    154 303.3 -23.3  34266  291.38 0854.52
2009/04/23 14:06:55.1    -160    142    -43    214    219 311.6 -11.5  34284  291.67 0854.52
2009/04/23 14:06:55.2    -151    152    -58    215    223 315.1 -15.2  34280  291.62 0854.52
2009/04/23 14:06:55.3     -89    169    -78    192    207 332.1 -27.8  34280  291.60 0854.52
2009/04/23 14:06:55.4     -86    135    -88    161    183 327.5 -35.7  34282  291.64 0854.52
2009/04/23 14:06:55.5     -28    177    -64    180    192 350.9 -19.7  34276  291.55 0854.52
2009/04/23 14:06:55.6     -94    144    -50    173    180 326.8 -21.0  34276  291.54 0854.52
2009/04/23 14:06:55.7    -101    123    -67    160    173 320.8 -28.2  34280  291.60 0854.52
2009/04/23 14:06:55.8     -92    127    -56    157    167 324.0 -19.7  34276  291.55 0854.52
2009/04/23 14:06:55.9     -38     91    -15     99    101 337.3  -8.8  34272  291.49 0854.52
2009/04/23 14:06:56.0     -45     45    -33     64     72 314.9 -32.6  34272  291.47 0854.52
2009/04/23 14:06:56.1      -1    116     -4    117    118 359.5  -2.2  34266  291.37 0854.52
2009/04/23 14:06:56.2      -9    189     -3    190    191 357.1  -1.2  34272  291.47 0854.49
2009/04/23 14:06:56.3     -43    179     22    185    187 346.4   6.9  34272  291.49 0854.49
2009/04/23 14:06:56.4    -160    166     20    231    232 316.1   5.2  34266  291.38 0854.49
2009/04/23 14:06:56.5    -118     79      0    143    144 303.7  -0.3  34264  291.33 0854.49
2009/04/23 14:06:56.6     -97    108     13    146    147 318.1   5.4  34266  291.38 0854.49
2009/04/23 14:06:56.7     -72     87     40    113    119 320.4  20.0  34270  291.45 0854.49
2009/04/23 14:06:56.8     -88     63     50    109    119 305.9  26.2  34272  291.47 0854.49
2009/04/23 14:06:56.9     -68     32     34     76     83 295.4  25.7  34272  291.47 0854.49
2009/04/23 14:06:57.0      36     47     32     60     68  37.8  31.3  34272  291.47 0854.49
2009/04/23 14:06:57.1      28     85     42     90     99  18.7  27.1  34262  291.32 0854.49
2009/04/23 14:06:57.2      33     40     32     53     61  39.6  34.4  34262  291.32 0854.49
2009/04/23 14:06:57.3    -125     90     -7    155    156 305.9  -2.6  34256  291.21 0854.49
2009/04/23 14:06:57.4    -105     27    -30    109    114 284.6 -15.5  34264  291.35 0854.49
2009/04/23 14:06:57.5     -67    -18     38     70     79 254.9  30.8  34268  291.42 0854.49
2009/04/23 14:06:57.6      67    -18     80     70    106 105.0  53.7  34280  291.60 0854.49
2009/04/23 14:06:57.7     123     63     74    139    157  63.0  30.1  34268  291.40 0854.49
2009/04/23 14:06:57.8     166    126     98    209    230  52.9  27.1  34256  291.20 0854.49
2009/04/23 14:06:57.9     170    132    105    216    240  52.2  27.8  34256  291.20 0854.49
2009/04/23 14:06:58.0     165    196     70    257    267  40.1  15.3  34242  290.95 0854.49
2009/04/23 14:06:58.1     272    179    164    326    364  56.6  28.7  34234  290.83 0854.49
2009/04/23 14:06:58.2     346    169    198    386    433  63.9  29.3  34230  290.75 0854.44
2009/04/23 14:06:58.3     443    281    211    525    565  57.6  23.1  34254  291.16 0854.44
2009/04/23 14:06:58.4     465    234    160    521    546  63.3  17.1  34252  291.13 0854.44
2009/04/23 14:06:58.5     483    118     97    498    508  76.2  11.1  34252  291.15 0854.44
2009/04/23 14:06:58.6     433    196    172    476    506  65.6  20.8  34248  291.05 0854.44
2009/04/23 14:06:58.7     385    166     -9    420    421  66.7  -1.3  34248  291.06 0854.44
2009/04/23 14:06:58.8     367    149    164    397    429  67.8  23.7  34246  291.04 0854.44
2009/04/23 14:06:58.9     296    156     89    335    347  62.1  14.9  34234  290.83 0854.44
2009/04/23 14:06:59.0     314     30     22    316    317  84.5   4.0  34248  291.07 0854.44
2009/04/23 14:06:59.1     421     48    -75    424    431  83.4 -10.1  34242  290.97 0854.44
2009/04/23 14:06:59.2     440     20    124    441    459  87.3  15.8  34250  291.09 0854.44
2009/04/23 14:06:59.3     342     24     48    343    347  86.0   8.1  34248  291.05 0854.44
2009/04/23 14:06:59.4     300      0     -1    301    302  90.0  -0.3  34260  291.26 0854.44
2009/04/23 14:06:59.5     213   -155     41    264    268 126.0   9.0  34274  291.50 0854.44
2009/04/23 14:06:59.6     232   -163     -1    284    285 125.1  -0.3  34270  291.44 0854.44
2009/04/23 14:06:59.7     240    -82    -36    254    257 109.1  -8.2  34254  291.17 0854.44
2009/04/23 14:06:59.8     260     -7    -20    261    262  91.7  -4.4  34256  291.19 0854.44
2009/04/23 14:06:59.9     358    -12     41    359    362  92.0   6.6  34254  291.17 0854.44
2009/04/23 14:07:00.0     413    -32     22    415    416  94.5   3.1  34256  291.21 0854.44
2009/04/23 14:07:00.1     513     39   -115    515    528  85.6 -12.7  34250  291.11 0854.44
2009/04/23 14:07:00.2     401     38    -80    403    412  84.5 -11.3  34256  291.21 0854.47
2009/04/23 14:07:00.3     263     76    -98    274    292  73.8 -19.7  34256  291.21 0854.47
2009/04/23 14:07:00.4     182   -220    122    286    310 140.4  24.6  34272  291.48 0854.47
2009/04/23 14:07:00.5     162   -180    110    243    266 137.9  26.2  34276  291.53 0854.47
2009/04/23 14:07:00.6     189   -164    -11    251    252 130.9  -2.6  34282  291.65 0854.47
2009/04/23 14:07:00.7     179   -171     -3    248    249 133.8  -0.7  34272  291.46 0854.47
2009/04/23 14:07:00.8     163   -119     -7    203    204 126.2  -2.1  34272  291.49 0854.47
2009/04/23 14:07:00.9     143    -95     27    172    175 123.7   9.0  34268  291.42 0854.47
2009/04/23 14:07:01.0      91    -75     75    119    140 129.6  35.5  34274  291.52 0854.47
2009/04/23 14:07:01.1     139    -65     69    154    168 115.2  25.7  34266  291.38 0854.47
2009/04/23 14:07:01.2     210     12     57    211    219  86.5  15.3  34252  291.15 0854.47
2009/04/23 14:07:01.3     154      2    -21    155    157  89.2  -7.7  34248  291.08 0854.47
2009/04/23 14:07:01.4     116    133      9    177    178  41.0   2.9  34242  290.96 0854.47
2009/04/23 14:07:01.5     138    131     26    191    193  46.7   7.8  34250  291.11 0854.47
2009/04/23 14:07:01.6     138    126    116    187    220  47.6  35.0  34266  291.38 0854.47
2009/04/23 14:07:01.7      47     88    124    100    159  28.1  57.1  34306  292.05 0854.47
2009/04/23 14:07:01.8     164    142     72    217    229  49.1  18.6  34262  291.32 0854.47
2009/04/23 14:07:01.9     122     67     71    140    156  61.1  28.7  34264  291.35 0854.47
2009/04/23 14:07:02.0     166     81    107    185    213  63.8  33.1  34262  291.30 0854.47
2009/04/23 14:07:02.1     148     74    166    166    234  63.4  50.1  34280  291.62 0854.47
2009/04/23 14:07:02.2     111     95     59    147    158  49.6  23.0  34274  291.52 0854.49
2009/04/23 14:07:02.3     129     75     98    150    179  59.8  36.3  34274  291.50 0854.49
2009/04/23 14:07:02.4      22    108     86    111    140  11.6  41.7  34276  291.55 0854.49
2009/04/23 14:07:02.5     -71     11    129     72    147 278.8  68.8  34298  291.91 0854.49
2009/04/23 14:07:02.6    -142   -147    165    205    263 224.1  43.3  34302  291.97 0854.49
2009/04/23 14:07:02.7    -367    -87     -9    378    379 256.6  -1.4  34248  291.05 0854.49
2009/04/23 14:07:02.8    -331   -259    -32    421    423 231.9  -4.5  34226  290.70 0854.49
2009/04/23 14:07:02.9    -437   -301    -78    531    537 235.4  -8.4  34222  290.63 0854.49
2009/04/23 14:07:03.0    -517   -300   -109    598    608 239.9 -10.4  34206  290.34 0854.49
2009/04/23 14:07:03.1    -586   -213   -208    624    657 250.0 -23.6  34220  290.59 0854.49
2009/04/23 14:07:03.2    -273   -282   -131    393    414 224.1 -23.6  34226  290.68 0854.49
2009/04/23 14:07:03.3    -176   -473     71    506    512 200.5   8.0  34218  290.57 0854.49
2009/04/23 14:07:03.4    -119   -500    130    515    532 193.4  14.2  34240  290.92 0854.49
2009/04/23 14:07:03.5    -267   -560   -211    621    657 205.5 -18.8  34234  290.84 0854.49
2009/04/23 14:07:03.6    -233   -359   -186    429    467 213.0 -29.3  34236  290.87 0854.49
2009/04/23 14:07:03.7      34   -346     23    348    349 174.3   3.8  34228  290.74 0854.49
2009/04/23 14:07:03.8       0    -94    175     95    199 179.5  69.1  34264  291.35 0854.49
2009/04/23 14:07:03.9    -249   -304    161    393    424 219.3  23.6  34256  291.19 0854.49
2009/04/23 14:07:04.0    -344   -325     61    474    478 226.7   7.4  34270  291.44 0854.49
2009/04/23 14:07:04.1    -177   -280    134    332    358 212.3  23.1  34250  291.10 0854.49
2009/04/23 14:07:04.2    -171   -206    154    268    309 219.7  32.4  34260  291.26 0854.48
2009/04/23 14:07:04.3    -171   -381    146    418    442 204.2  20.0  34266  291.36 0854.48
2009/04/23 14:07:04.4    -204   -558    116    595    607 200.1  11.1  34266  291.38 0854.48
2009/04/23 14:07:04.5    -270   -607     88    665    671 204.0   7.6  34282  291.65 0854.48
2009/04/23 14:07:04.6    -270   -551    159    614    635 206.1  14.5  34274  291.52 0854.48
2009/04/23 14:07:04.7    -208   -467     48    512    515 204.0   5.4  34282  291.63 0854.48
2009/04/23 14:07:04.8    -280   -362     51    458    461 217.8   6.4  34294  291.86 0854.48
2009/04/23 14:07:04.9    -124   -537     57    552    555 193.0   5.9  34252  291.13 0854.48
2009/04/23 14:07:05.0    -133   -506     15    524    525 194.8   1.7  34258  291.23 0854.48
2009/04/23 14:07:05.1    -103   -396     83    410    419 194.7  11.6  34272  291.46 0854.48
2009/04/23 14:07:05.2    -136   -385     92    409    420 199.5  12.8  34258  291.23 0854.48
2009/04/23 14:07:05.3    -183   -449    141    485    506 202.2  16.3  34258  291.24 0854.48
2009/04/23 14:07:05.4    -221   -398    155    456    482 209.0  18.8  34260  291.27 0854.48
2009/04/23 14:07:05.5    -266   -439    136    514    532 211.2  14.9  34266  291.38 0854.48
2009/04/23 14:07:05.6    -273   -467    -39    542    544 210.3  -4.1  34256  291.20 0854.48
2009/04/23 14:07:05.7    -493   -471    -71    682    686 226.3  -6.0  34230  290.75 0854.48
2009/04/23 14:07:05.8    -274   -471    -49    546    549 210.2  -5.2  34244  291.01 0854.48
2009/04/23 14:07:05.9    -409   -307    -46    512    515 233.1  -5.2  34262  291.32 0854.48
2009/04/23 14:07:06.0    -435   -107   -167    449    479 256.1 -25.8  34262  291.29 0854.48
2009/04/23 14:07:06.1    -382     59   -111    387    402 278.8 -20.8  34272  291.47 0854.48
2009/04/23 14:07:06.2    -251    -93   -202    268    335 249.6 -45.2  34264  291.34 0854.48
2009/04/23 14:07:06.3    -274     -2   -125    275    302 269.4 -30.6  34248  291.05 0854.48
2009/04/23 14:07:06.4    -266    -87     98    280    297 251.8  19.4  34254  291.17 0854.48
2009/04/23 14:07:06.5    -277   -120    101    303    320 246.5  18.4  34258  291.24 0854.48
2009/04/23 14:07:06.6    -344   -217    148    407    433 237.8  20.9  34242  290.95 0854.48
2009/04/23 14:07:06.7    -342    -10    103    343    359 268.2  16.8  34248  291.05 0854.48
2009/04/23 14:07:06.8     -90   -224    209    242    319 201.9  45.4  34252  291.12 0854.48
2009/04/23 14:07:06.9    -351   -551     18    654    655 212.5   1.6  34248  291.08 0854.48
2009/04/23 14:07:07.0    -336   -383    -31    510    511 221.3  -3.5  34238  290.91 0854.48
2009/04/23 14:07:07.1    -207   -250    -79    325    335 219.6 -13.8  34238  290.88 0854.48
2009/04/23 14:07:07.2    -299   -359     39    468    470 219.8   4.9  34240  290.93 0854.48
2009/04/23 14:07:07.3    -329   -360     10    488    489 222.4   1.2  34238  290.91 0854.48
2009/04/23 14:07:07.4    -270   -384     22    470    471 215.1   2.8  34232  290.79 0854.48
2009/04/23 14:07:07.5    -385   -348    -56    520    524 227.9  -6.2  34242  290.96 0854.48
2009/04/23 14:07:07.6    -162   -567     54    590    593 196.0   5.3  34240  290.93 0854.48
2009/04/23 14:07:07.7    -226   -518     32    566    567 203.6   3.3  34236  290.87 0854.48
2009/04/23 14:07:07.8    -214   -372     76    430    437 209.9  10.1  34238  290.90 0854.48
2009/04/23 14:07:07.9    -167   -340     95    380    392 206.2  14.2  34238  290.89 0854.48
2009/04/23 14:07:08.0    -194   -292    143    351    379 213.6  23.2  34236  290.86 0854.48
2009/04/23 14:07:08.1       2   -374    193    375    421 179.7  29.3  34224  290.65 0854.48
2009/04/23 14:07:08.2      78   -528    230    534    581 171.5  24.8  34228  290.72 0854.48
2009/04/23 14:07:08.3     -21   -587    221    588    628 182.1  21.6  34234  290.84 0854.48
2009/04/23 14:07:08.4      77   -614    170    619    643 172.8  15.4  34244  290.99 0854.48
2009/04/23 14:07:08.5     208   -614    131    649    663 161.3  11.4  34218  290.55 0854.48
2009/04/23 14:07:08.6     126   -555    -31    570    571 167.2  -3.1  34238  290.90 0854.48
2009/04/23 14:07:08.7     124   -456    -87    473    482 164.7 -10.5  34236  290.85 0854.48
2009/04/23 14:07:08.8    -378   -308    -44    488    491 230.8  -5.2  34242  290.96 0854.48
2009/04/23 14:07:08.9    -248   -382    -78    456    463 213.0  -9.7  34226  290.68 0854.48
2009/04/23 14:07:09.0    -293   -351      8    458    459 219.9   1.1  34242  290.97 0854.48
2009/04/23 14:07:09.1    -230   -367    -29    434    435 212.1  -3.9  34250  291.09 0854.48
2009/04/23 14:07:09.2    -352   -332    -34    485    487 226.7  -4.1  34236  290.86 0854.48
2009/04/23 14:07:09.4    -336   -364    -19    496    497 222.7  -2.2  34226  290.69 0854.48
2009/04/23 14:07:09.5    -393   -330     -2    514    515 230.0  -0.3  34198  290.20 0854.48
2009/04/23 14:07:09.6    -318   -385    -85    500    508 219.5  -9.7  34218  290.54 0854.48
2009/04/23 14:07:09.7    -186   -293    -90    348    360 212.5 -14.6  34218  290.54 0854.48
2009/04/23 14:07:09.8    -224   -264    -66    347    354 220.3 -10.9  34210  290.42 0854.48
2009/04/23 14:07:09.9    -377   -187    -23    421    422 243.6  -3.1  34204  290.31 0854.48
2009/04/23 14:07:10.0    -374   -126     20    395    396 251.3   3.0  34206  290.35 0854.48
2009/04/23 14:07:10.1    -358    -59      2    363    364 260.6   0.4  34192  290.11 0854.48
2009/04/23 14:07:10.2    -350    -14    -22    351    352 267.6  -3.7  34192  290.13 0854.48
2009/04/23 14:07:10.3    -212      9    -19    213    214 272.6  -5.2  34230  290.77 0854.49
2009/04/23 14:07:10.4    -102     -7    136    103    170 265.6  59.0  34258  291.25 0854.49
2009/04/23 14:07:10.5     -48   -172    145    179    230 195.6  43.7  34256  291.21 0854.49
2009/04/23 14:07:10.6     -31   -204    126    207    242 188.7  34.4  34222  290.64 0854.49
2009/04/23 14:07:10.7     -81   -253     54    266    272 197.8  11.6  34218  290.56 0854.49
2009/04/23 14:07:10.8    -457   -326   -123    562    576 234.5 -12.4  34216  290.51 0854.49
2009/04/23 14:07:10.9    -523    -55   -136    526    544 263.9 -14.5  34202  290.28 0854.49
2009/04/23 14:07:11.0    -293     53     12    298    299 280.4   2.3  34212  290.44 0854.49
2009/04/23 14:07:11.1    -101    -79    211    129    247 232.2  65.7  34220  290.60 0854.49
2009/04/23 14:07:11.2     -78   -102    117    129    174 217.8  47.1  34224  290.65 0854.49
2009/04/23 14:07:11.3     -65     65     57     93    109 315.0  35.0  34226  290.70 0854.49
2009/04/23 14:07:11.4       0     -7     62      8     62 175.5  90.0  34222  290.62 0854.49
2009/04/23 14:07:11.5      44   -164     95    170    194 164.9  31.6  34204  290.33 0854.49
2009/04/23 14:07:11.6      19   -311     57    312    318 176.4  10.3  34210  290.42 0854.49
2009/04/23 14:07:11.7     138   -411     50    434    437 161.4   6.6  34186  290.02 0854.49
2009/04/23 14:07:11.8     111   -473    -51    486    489 166.8  -6.1  34202  290.27 0854.49
2009/04/23 14:07:11.9      17   -423   -136    424    445 177.7 -22.9  34204  290.33 0854.49
2009/04/23 14:07:12.0    -145   -380   -331    407    524 200.9 -47.7  34198  290.20 0854.49
2009/04/23 14:07:12.1    -187   -334   -152    383    412 209.3 -27.4  34200  290.26 0854.49
2009/04/23 14:07:12.2    -301   -479     17    566    567 212.1   1.8  34206  290.35 0854.49
2009/04/23 14:07:12.3    -220   -503   -189    550    582 203.6 -19.0  34210  290.41 0854.47
2009/04/23 14:07:12.4     -67   -436   -131    442    461 188.8 -21.5  34198  290.22 0854.47
2009/04/23 14:07:12.5    -498   -495   -179    703    726 225.2 -14.3  34192  290.11 0854.47
2009/04/23 14:07:12.6    -480   -362   -228    602    643 233.0 -26.2  34212  290.45 0854.47
2009/04/23 14:07:12.7    -164   -409   -168    441    471 201.9 -26.4  34202  290.29 0854.47
2009/04/23 14:07:12.8    -154   -279     16    319    320 208.9   2.9  34226  290.68 0854.47
2009/04/23 14:07:12.9    -176   -230   -103    290    308 217.4 -19.6  34224  290.65 0854.47
2009/04/23 14:07:13.0    -279   -304   -148    413    438 222.6 -25.0  34214  290.48 0854.47
2009/04/23 14:07:13.1    -268   -431   -265    508    572 211.9 -34.2  34218  290.55 0854.47
2009/04/23 14:07:13.2      30   -579    -63    580    584 177.0  -6.3  34212  290.46 0854.47
2009/04/23 14:07:13.3     102   -570    198    580    614 169.8  18.9  34208  290.39 0854.47
2009/04/23 14:07:13.4      60   -528    139    532    550 173.4  14.7  34208  290.38 0854.47
2009/04/23 14:07:13.5     -28   -533     64    534    538 183.0   6.9  34210  290.41 0854.47
2009/04/23 14:07:13.6     -39   -591     73    593    598 183.8   7.1  34208  290.39 0854.47
2009/04/23 14:07:13.7     -58   -562    -31    566    567 186.0  -3.2  34206  290.35 0854.47
2009/04/23 14:07:13.8     152   -627   -161    646    666 166.3 -14.0  34204  290.31 0854.47
2009/04/23 14:07:13.9     194   -797    -45    821    823 166.3  -3.2  34204  290.31 0854.47
2009/04/23 14:07:14.0     121   -420   -129    438    457 163.9 -16.5  34194  290.16 0854.47
2009/04/23 14:07:14.1    -117   -311   -121    333    354 200.7 -25.3  34212  290.47 0854.47
2009/04/23 14:07:14.2     183   -415   -302    454    545 156.2 -41.0  34198  290.23 0854.47
2009/04/23 14:07:14.3     -98   -463    -21    474    475 192.1  -2.6  34212  290.44 0854.45
2009/04/23 14:07:14.4     149   -587     76    606    611 165.7   7.2  34212  290.46 0854.45
2009/04/23 14:07:14.5      38   -852    -52    853    855 177.4  -3.5  34226  290.68 0854.45
2009/04/23 14:07:14.6      63   -673    -95    677    684 174.6  -8.0  34212  290.46 0854.45
2009/04/23 14:07:14.7      65   -526   -188    531    564 172.9 -19.6  34210  290.41 0854.45
2009/04/23 14:07:14.8    -295   -758     70    814    818 201.3   5.0  34220  290.60 0854.45
2009/04/23 14:07:14.9    -429   -853    -99    955    961 206.7  -6.0  34200  290.26 0854.45
2009/04/23 14:07:15.0    -550   -847     21   1011   1012 213.0   1.2  34204  290.31 0854.45
2009/04/23 14:07:15.1    -371   -778    197    862    885 205.5  12.9  34204  290.32 0854.45
2009/04/23 14:07:15.2    -355   -745    -79    826    830 205.5  -5.5  34210  290.42 0854.45
2009/04/23 14:07:15.3    -561   -635   -210    848    874 221.5 -13.9  34216  290.51 0854.44
2009/04/23 14:07:15.4    -473   -526   -231    708    745 221.9 -18.1  34206  290.35 0854.44
2009/04/23 14:07:15.5      75   -689     30    694    695 173.8   2.5  34214  290.48 0854.44
2009/04/23 14:07:15.6     -34   -763    -81    764    769 182.6  -6.1  34212  290.46 0854.44
2009/04/23 14:07:15.7      26   -646   -108    647    656 177.7  -9.5  34214  290.50 0854.44
2009/04/23 14:07:15.8     -81   -719   -122    724    735 186.5  -9.6  34212  290.44 0854.44
2009/04/23 14:07:15.9     164   -598   -138    621    637 164.6 -12.6  34212  290.45 0854.44
2009/04/23 14:07:16.0     114   -437   -194    452    491 165.3 -29.0  34212  290.45 0854.44
2009/04/23 14:07:16.1     -41   -263     22    267    269 188.9   4.9  34222  290.63 0854.44
2009/04/23 14:07:16.2     169   -297      0    342    343 150.4   0.1  34218  290.54 0854.44
2009/04/23 14:07:16.3    -172   -227    151    286    323 217.2  30.0  34218  290.56 0854.44
2009/04/23 14:07:16.4    -105   -439    211    452    498 193.5  27.0  34216  290.52 0854.44
2009/04/23 14:07:16.5    -114   -555    380    567    682 191.7  37.1  34218  290.54 0854.44
2009/04/23 14:07:16.6      33   -310    357    312    474 173.8  54.4  34226  290.68 0854.44
2009/04/23 14:07:16.7     153    -11    267    154    308  94.4  67.7  34220  290.59 0854.44
2009/04/23 14:07:16.8     230    203     40    307    310  48.6   7.5  34208  290.39 0854.44
2009/04/23 14:07:16.9     337    120     65    359    365  70.3  10.3  34212  290.45 0854.44
2009/04/23 14:07:17.0     176    181    -32    253    256  44.1  -7.2  34212  290.44 0854.44
2009/04/23 14:07:17.1     -24     51   -153     57    163 334.7 -83.3  34226  290.70 0854.44
2009/04/23 14:07:17.2      35     67    -75     76    106  28.1 -54.9  34220  290.60 0854.44
2009/04/23 14:07:17.3     116    130    -96    175    199  41.9 -35.7  34206  290.35 0854.45
2009/04/23 14:07:17.4     162    -12   -164    163    231  94.3 -54.3  34214  290.50 0854.45
2009/04/23 14:07:17.5     176    199   -250    266    365  41.4 -52.4  34214  290.49 0854.45
2009/04/23 14:07:17.6     212    212   -303    300    426  45.0 -54.6  34220  290.59 0854.45
2009/04/23 14:07:17.7     128    312   -181    338    383  22.4 -34.9  34234  290.83 0854.45
2009/04/23 14:07:17.8     133    293   -122    322    344  24.5 -26.1  34262  291.32 0854.45
2009/04/23 14:07:17.9     164    180    123    244    273  42.3  28.7  34250  291.09 0854.45
2009/04/23 14:07:18.0     318    -20    305    319    441  93.7  48.7  34242  290.95 0854.45
2009/04/23 14:07:18.1     198    -55    430    206    476 105.5  72.7  34240  290.94 0854.45
2009/04/23 14:07:18.2      39   -115    419    122    436 161.3  83.4  34240  290.94 0854.45
2009/04/23 14:07:18.3     -16   -207    420    208    468 184.5  71.9  34234  290.83 0854.45
2009/04/23 14:07:18.4     176   -155    368    235    436 131.3  64.6  34248  291.06 0854.45
2009/04/23 14:07:18.5     114   -479    429    493    653 166.6  45.5  34224  290.66 0854.45
2009/04/23 14:07:18.6     263   -574    147    632    649 155.4  13.1  34226  290.69 0854.45
2009/04/23 14:07:18.7      85   -457    193    465    503 169.4  23.9  34218  290.57 0854.45
2009/04/23 14:07:18.8      -5   -613    240    614    659 180.5  22.5  34212  290.47 0854.45
2009/04/23 14:07:18.9      63   -583    273    587    647 173.8  26.7  34222  290.62 0854.45
2009/04/23 14:07:19.0     -10   -606    183    607    634 181.0  16.8  34224  290.67 0854.45
2009/04/23 14:07:19.1     -25   -554     -6    555    556 182.6  -0.7  34226  290.69 0854.45
2009/04/23 14:07:19.2     -34   -647     58    648    651 183.0   5.2  34222  290.62 0854.45
2009/04/23 14:07:19.3     141   -745    -54    759    761 169.3  -4.1  34232  290.79 0854.41
2009/04/23 14:07:19.4      49   -656   -112    658    668 175.7  -9.7  34228  290.72 0854.41
2009/04/23 14:07:19.5     165   -498    112    525    538 161.6  12.1  34228  290.72 0854.41
2009/04/23 14:07:19.6      26   -519      7    520    521 177.1   0.8  34232  290.80 0854.41
2009/04/23 14:07:19.7      67   -502     44    507    509 172.3   5.0  34222  290.62 0854.41
2009/04/23 14:07:19.8     123   -483    164    499    526 165.7  18.2  34222  290.64 0854.41
2009/04/23 14:07:19.9       8   -541    153    542    564 179.1  15.8  34218  290.57 0854.41
2009/04/23 14:07:20.0      60   -431     -9    436    437 172.0  -1.3  34228  290.72 0854.41
2009/04/23 14:07:20.1     109   -583    218    593    631 169.4  21.1  34222  290.64 0854.41
2009/04/23 14:07:20.2      60   -620    264    624    677 174.4  24.4  34224  290.65 0854.41
2009/04/23 14:07:20.3      56   -568    342    571    665 174.3  33.7  34230  290.76 0854.41
2009/04/23 14:07:20.4      65   -587    376    591    700 173.7  35.5  34236  290.85 0854.41
2009/04/23 14:07:20.5     -11   -658    367    659    754 181.0  31.5  34226  290.69 0854.41
2009/04/23 14:07:20.6     -92   -589    325    597    679 188.9  31.0  34228  290.74 0854.41
2009/04/23 14:07:20.7     -73   -353    288    361    461 191.8  42.7  34226  290.68 0854.41
2009/04/23 14:07:20.8    -247   -417    182    485    518 210.6  21.5  34236  290.85 0854.41
2009/04/23 14:07:20.9      14   -200    171    201    263 176.0  44.8  34240  290.92 0854.41
2009/04/23 14:07:21.0      90    -65    187    112    217 125.9  66.7  34248  291.06 0854.41
2009/04/23 14:07:21.1     -42     66    164     79    182 327.5  72.8  34260  291.26 0854.41
2009/04/23 14:07:21.2    -110    -88    221    142    262 231.4  64.6  34242  290.98 0854.41
2009/04/23 14:07:21.3    -193   -437    338    478    585 203.8  38.6  34234  290.82 0854.42
2009/04/23 14:07:21.4      60   -178    369    188    414 161.3  71.0  34262  291.30 0854.42
2009/04/23 14:07:21.5     -68   -261    328    270    424 194.7  56.4  34264  291.34 0854.42
2009/04/23 14:07:21.6      69   -271    236    280    366 165.7  44.4  34248  291.08 0854.42
2009/04/23 14:07:21.7      89   -138    189    165    250 147.3  54.3  34256  291.20 0854.42
2009/04/23 14:07:21.8     192   -211    179    286    337 137.7  35.1  34244  290.99 0854.42
2009/04/23 14:07:21.9      58      7    215     59    222  83.0  84.6  34254  291.18 0854.42
2009/04/23 14:07:22.0     -28   -366    186    368    412 184.5  28.9  34240  290.93 0854.42
2009/04/23 14:07:22.1     -43   -510    170    512    540 184.9  18.4  34234  290.82 0854.42
2009/04/23 14:07:22.2    -249   -438     80    505    512 209.6   9.0  34234  290.83 0854.42
2009/04/23 14:07:22.3      -8   -416   -159    417    446 181.2 -26.4  34234  290.84 0854.42
2009/04/23 14:07:22.4      31   -394   -109    396    411 175.4 -15.4  34232  290.78 0854.42
2009/04/23 14:07:22.5      40   -231     -1    235    236 170.0  -0.3  34234  290.83 0854.42
2009/04/23 14:07:22.6      93   -110    193    145    241 139.9  59.4  34236  290.86 0854.42
2009/04/23 14:07:22.7       1   -304    191    305    359 179.8  35.2  34242  290.96 0854.42
2009/04/23 14:07:22.8    -110   -287    123    308    331 201.0  23.0  34230  290.76 0854.42
2009/04/23 14:07:22.9    -179   -429     90    466    475 202.7  11.0  34236  290.86 0854.42
2009/04/23 14:07:23.0     -94   -428     86    439    448 192.5  11.1  34234  290.84 0854.42
2009/04/23 14:07:23.1    -182   -364     45    408    411 206.6   6.4  34238  290.89 0854.42
2009/04/23 14:07:23.2    -193   -368     13    416    417 207.7   1.9  34246  291.04 0854.42
2009/04/23 14:07:23.3    -334   -271    144    431    455 231.0  18.5  34246  291.02 0854.44
2009/04/23 14:07:23.4    -287   -171     63    335    341 239.3  10.7  34248  291.05 0854.44
2009/04/23 14:07:23.5    -345     97     87    359    370 285.7  13.7  34208  290.37 0854.44
2009/04/23 14:07:23.6    -437    273     77    516    522 302.0   8.5  34172  289.77 0854.44
2009/04/23 14:07:23.7    -245    -42    216    249    329 260.1  45.4  34244  290.99 0854.44
2009/04/23 14:07:23.8      -6   -128    241    129    273 182.7  69.8  34234  290.83 0854.44
2009/04/23 14:07:23.9    -100    -91     66    136    151 227.8  27.3  34220  290.58 0854.44
2009/04/23 14:07:24.0    -329    -29     -4    331    332 264.9  -0.7  34218  290.55 0854.44
2009/04/23 14:07:24.1    -242    273     92    365    377 318.5  14.2  34202  290.27 0854.44
2009/04/23 14:07:24.2    -211    140    225    254    339 303.7  46.2  34224  290.66 0854.44
2009/04/23 14:07:24.3    -106    156    218    190    289 325.7  54.3  34212  290.44 0854.44
2009/04/23 14:07:24.4      67     54    107     87    137  50.9  56.4  34228  290.72 0854.44
2009/04/23 14:07:24.5     104    -48     31    115    120 115.2  15.3  34228  290.72 0854.44
2009/04/23 14:07:24.6      36     65    -29     75     80  29.0 -26.9  34220  290.58 0854.44
2009/04/23 14:07:24.7     -79   -134    -47    156    162 210.7 -21.7  34216  290.52 0854.44
2009/04/23 14:07:24.8      24   -174     46    176    182 172.0  14.7  34228  290.74 0854.44
2009/04/23 14:07:24.9     -13    -47     27     49     55 196.0  32.4  34228  290.74 0854.44
2009/04/23 14:07:25.0     -88    -40    -30     97    102 245.2 -17.6  34228  290.72 0854.44
2009/04/23 14:07:25.1     -33     53    -77     63     99 327.5 -60.8  34238  290.89 0854.44
2009/04/23 14:07:25.2     -31     19    -67     37     76 302.5 -73.2  34238  290.89 0854.44
2009/04/23 14:07:25.3     -42    -74    -82     86    118 209.4 -53.4  34232  290.79 0854.44
2009/04/23 14:07:25.4     -77     -4   -100     78    126 266.5 -62.8  34220  290.60 0854.44
2009/04/23 14:07:25.5      -7   -246   -141    247    284 181.8 -36.7  34220  290.58 0854.44
2009/04/23 14:07:25.6    -293   -212   -230    362    428 234.1 -39.9  34210  290.41 0854.44
2009/04/23 14:07:25.7    -174   -288     78    337    346 211.1  13.1  34218  290.57 0854.44
2009/04/23 14:07:25.8     -77   -319    226    329    399 193.6  37.7  34228  290.74 0854.44
2009/04/23 14:07:25.9      40   -426     68    429    435 174.6   9.0  34222  290.63 0854.44
2009/04/23 14:07:26.0     -35   -455    245    457    518 184.5  30.5  34218  290.57 0854.44
2009/04/23 14:07:26.1      41   -606    222    608    647 176.1  21.0  34218  290.55 0854.44
2009/04/23 14:07:26.2      76   -645    135    650    665 173.2  11.8  34216  290.51 0854.44
2009/04/23 14:07:26.3     125   -619    228    632    671 168.5  20.8  34218  290.56 0854.44
2009/04/23 14:07:26.4     145   -755    282    769    819 169.1  21.0  34230  290.75 0854.44
2009/04/23 14:07:26.5     141   -614    241    631    675 167.0  22.0  34230  290.75 0854.44
2009/04/23 14:07:26.6     105   -584    284    594    658 169.8  27.3  34222  290.64 0854.44
2009/04/23 14:07:26.7      40   -577     90    579    587 176.0   8.9  34220  290.59 0854.44
2009/04/23 14:07:26.8      20   -535     79    536    542 177.8   8.5  34216  290.52 0854.44
2009/04/23 14:07:26.9    -223   -685     86    721    727 198.1   6.9  34206  290.35 0854.44
2009/04/23 14:07:27.0    -402   -732     83    835    840 208.8   5.7  34212  290.46 0854.44
2009/04/23 14:07:27.1    -118   -528     76    542    548 192.6   8.0  34206  290.36 0854.44
2009/04/23 14:07:27.2    -100   -610    153    619    638 189.4  13.9  34188  290.04 0854.44
2009/04/23 14:07:27.3    -233   -420    145    481    503 209.0  16.8  34208  290.40 0854.44
2009/04/23 14:07:27.4     -30   -503     79    504    511 183.5   8.9  34202  290.29 0854.44
2009/04/23 14:07:27.5     386   -456    140    598    615 139.7  13.2  34208  290.37 0854.44
2009/04/23 14:07:27.6     304   -344    231    460    514 138.6  28.7  34198  290.22 0854.44
2009/04/23 14:07:27.7     192   -300    178    357    398 147.3  28.4  34194  290.15 0854.44
2009/04/23 14:07:27.8      25     17    173     31    175  55.8  90.0  34200  290.25 0854.44
2009/04/23 14:07:27.9      52    -61    111     81    137 139.5  60.5  34214  290.50 0854.44
2009/04/23 14:07:28.0      64   -239     70    248    258 164.9  15.8  34202  290.29 0854.44
2009/04/23 14:07:28.1     -89   -173     67    195    207 207.2  18.9  34196  290.18 0854.44
2009/04/23 14:07:28.2     -88    177    109    198    226 333.5  31.3  34204  290.33 0854.44
2009/04/23 14:07:28.3    -264    125     45    293    297 295.3   8.8  34206  290.36 0854.44
2009/04/23 14:07:28.4    -169     49    307    177    354 286.4  67.5  34204  290.32 0854.44
2009/04/23 14:07:28.5      82   -460      1    468    469 169.9   0.2  34182  289.96 0854.44
2009/04/23 14:07:28.6    -145   -363    138    392    416 201.9  19.5  34198  290.21 0854.44
2009/04/23 14:07:28.7    -162    305     83    346    356 332.0  13.5  34196  290.18 0854.44
2009/04/23 14:07:28.8      18    296    346    297    455   3.5  55.0  34218  290.55 0854.44
2009/04/23 14:07:28.9     108     49    342    119    362  65.2  80.5  34222  290.63 0854.44
2009/04/23 14:07:29.0     266   -490    443    558    712 151.5  42.6  34214  290.48 0854.44
2009/04/23 14:07:29.1     241   -435    320    498    591 151.0  35.7  34208  290.38 0854.44
2009/04/23 14:07:29.2     137   -531     64    549    553 165.5   6.7  34206  290.35 0854.44
2009/04/23 14:07:29.3     339   -181    133    385    408 118.1  19.1  34204  290.32 0854.45
2009/04/23 14:07:29.4     537   -144    369    556    667 105.1  36.9  34198  290.23 0854.45
2009/04/23 14:07:29.5     369   -116    247    387    459 107.5  35.6  34204  290.33 0854.45
2009/04/23 14:07:29.6     -71   -386    252    393    466 190.5  35.6  34196  290.17 0854.45
2009/04/23 14:07:29.7     -65   -335    200    342    396 191.0  33.0  34196  290.18 0854.45
2009/04/23 14:07:29.8     276   -153    155    316    351 119.1  28.1  34204  290.32 0854.45
2009/04/23 14:07:29.9     156   -399     40    429    432 158.6   5.4  34204  290.31 0854.45
2009/04/23 14:07:30.0     384   -328     -4    506    507 130.5  -0.5  34208  290.39 0854.45
2009/04/23 14:07:30.1     -54   -504    308    508    594 186.2  34.1  34192  290.11 0854.45
2009/04/23 14:07:30.2     252   -407    392    479    618 148.3  43.7  34198  290.22 0854.45
2009/04/23 14:07:30.3      56   -390    227    395    455 171.8  32.4  34202  290.28 0854.45
2009/04/23 14:07:30.4     205   -137     59    247    255 123.7  13.5  34192  290.12 0854.45
2009/04/23 14:07:30.5    -123   -156     82    199    215 218.3  23.4  34190  290.09 0854.45
2009/04/23 14:07:30.6    -289    -90     93    303    318 252.7  17.1  34186  290.00 0854.45
2009/04/23 14:07:30.7       7   -567    387    568    687 179.3  37.6  34188  290.03 0854.45
2009/04/23 14:07:30.8     -95   -400    420    412    588 193.4  50.7  34184  289.99 0854.45
2009/04/23 14:07:30.9    -156   -543    121    566    579 196.0  12.1  34178  289.88 0854.45
2009/04/23 14:07:31.0      89   -593     59    600    603 171.4   5.7  34180  289.90 0854.45
2009/04/23 14:07:31.1      42   -560    125    562    576 175.7  12.6  34174  289.81 0854.45
2009/04/23 14:07:31.2     -21   -473    420    474    633 182.6  46.2  34182  289.93 0854.45
2009/04/23 14:07:31.3     117   -534    323    547    635 167.6  33.4  34162  289.61 0854.44
2009/04/23 14:07:31.4     -87   -466    288    474    554 190.6  34.2  34174  289.82 0854.44
2009/04/23 14:07:31.5      90   -398    338    409    530 167.2  43.7  34184  289.98 0854.44
2009/04/23 14:07:31.6     113   -350    321    368    488 162.1  45.5  34182  289.95 0854.44
2009/04/23 14:07:31.7     -16   -268    275    269    384 183.5  50.6  34182  289.96 0854.44
2009/04/23 14:07:31.8      68   -195    250    207    324 160.6  56.3  34178  289.86 0854.44
2009/04/23 14:07:31.9     -27    -88    260     93    276 197.4  79.7  34186  290.01 0854.44
2009/04/23 14:07:32.0     -15   -167    207    168    266 185.3  56.4  34178  289.88 0854.44
2009/04/23 14:07:32.1      20    -84    218     87    234 166.2  77.4  34180  289.92 0854.44
2009/04/23 14:07:32.2      23   -300    180    301    350 175.5  33.8  34172  289.79 0854.44
2009/04/23 14:07:32.3     106   -484    255    496    557 167.6  29.3  34176  289.84 0854.44
2009/04/23 14:07:32.4      89   -628    267    635    688 171.9  24.2  34174  289.82 0854.44
2009/04/23 14:07:32.5     128   -487    247    504    561 165.2  28.1  34178  289.87 0854.44
2009/04/23 14:07:32.6     135   -570    212    586    624 166.6  19.9  34166  289.68 0854.44
2009/04/23 14:07:32.7       9   -669    238    670    711 179.2  20.3  34170  289.74 0854.44
2009/04/23 14:07:32.8     -70   -685    259    689    736 185.9  21.7  34176  289.84 0854.44
2009/04/23 14:07:32.9     -99   -708    184    716    740 188.0  14.4  34182  289.94 0854.44
2009/04/23 14:07:33.0    -141   -574    177    592    619 193.8  16.7  34176  289.85 0854.44
2009/04/23 14:07:33.1     -81   -475    266    482    550 189.7  31.3  34172  289.79 0854.44
2009/04/23 14:07:33.2     -82   -499    308    506    592 189.4  34.2  34182  289.96 0854.44
2009/04/23 14:07:33.3    -182   -430     94    468    478 203.0  11.4  34180  289.91 0854.42
2009/04/23 14:07:33.4    -196   -418    138    462    483 205.2  16.6  34182  289.93 0854.42
2009/04/23 14:07:33.5    -437   -344    -65    557    561 231.8  -6.7  34196  290.18 0854.42
2009/04/23 14:07:33.6    -361   -429    -10    561    562 220.1  -1.1  34196  290.19 0854.42
2009/04/23 14:07:33.7    -180   -397     37    436    438 204.4   5.0  34188  290.05 0854.42
2009/04/23 14:07:33.8      42   -271     49    275    280 171.1  10.1  34190  290.09 0854.42
2009/04/23 14:07:33.9     198   -203    167    284    329 135.7  33.3  34182  289.93 0854.42
2009/04/23 14:07:34.0    -102   -317    321    334    463 197.9  48.8  34186  290.00 0854.42
2009/04/23 14:07:34.1     -64   -274    292    282    405 193.3  51.2  34178  289.87 0854.42
2009/04/23 14:07:34.2     -52   -311    264    316    411 189.6  44.1  34182  289.93 0854.42
2009/04/23 14:07:34.3    -147   -440    197    465    505 198.5  24.3  34188  290.06 0854.42
2009/04/23 14:07:34.4    -250   -375    196    451    491 213.7  25.0  34182  289.96 0854.42
2009/04/23 14:07:34.5    -360   -261     50    445    448 234.1   6.5  34190  290.07 0854.42
2009/04/23 14:07:34.6    -194   -430    -15    472    473 204.3  -1.9  34188  290.03 0854.42
2009/04/23 14:07:34.7     -53   -527    232    530    578 185.8  25.2  34184  289.99 0854.42
2009/04/23 14:07:34.8     -13   -443    256    444    512 181.7  32.7  34188  290.03 0854.42
2009/04/23 14:07:34.9      57   -462    219    466    514 172.9  27.0  34194  290.15 0854.42
2009/04/23 14:07:35.0      10   -415    156    416    444 178.5  21.5  34192  290.11 0854.42
2009/04/23 14:07:35.1      -8   -539    125    540    555 180.9  13.1  34194  290.16 0854.42
2009/04/23 14:07:35.2    -227   -573     77    617    622 201.7   7.2  34220  290.59 0854.42
2009/04/23 14:07:35.3    -107   -577     29    587    588 190.6   2.9  34204  290.31 0854.44
2009/04/23 14:07:35.4    -182   -716     -6    739    740 194.3  -0.5  34208  290.38 0854.44
2009/04/23 14:07:35.5    -269   -718      1    768    769 200.6   0.1  34208  290.38 0854.44
2009/04/23 14:07:35.6    -499   -674    -10    839    840 216.5  -0.7  34200  290.26 0854.44
2009/04/23 14:07:35.7    -459  -1022    327   1121   1168 204.2  16.3  34186  290.01 0854.44
2009/04/23 14:07:35.8    -175   -872    474    890   1008 191.4  30.3  34178  289.86 0854.44
2009/04/23 14:07:35.9     390   -767    338    861    924 153.0  22.5  34198  290.21 0854.44
2009/04/23 14:07:36.0     345  -1075    468   1130   1223 162.2  23.9  34182  289.95 0854.44
2009/04/23 14:07:36.1     588   -971    510   1136   1245 148.8  25.8  34176  289.85 0854.44
2009/04/23 14:07:36.3     535   -960    717   1100   1313 150.9  36.2  34156  289.51 0854.44
2009/04/23 14:07:36.3     268   -745   -143    792    805 160.2 -10.3  34192  290.12 0854.44
2009/04/23 14:07:36.4     280  -1033    176   1071   1086 164.8   9.3  34182  289.95 0854.44
2009/04/23 14:07:36.5     381  -1180    232   1241   1263 162.1  10.6  34188  290.04 0854.44
2009/04/23 14:07:36.6     648  -1057    441   1241   1317 148.5  20.4  34146  289.35 0854.44
2009/04/23 14:07:36.7     -10   -810    642    811   1034 180.7  42.4  34172  289.77 0854.44
2009/04/23 14:07:36.8     408  -1007    460   1087   1180 157.9  24.3  34190  290.08 0854.44
2009/04/23 14:07:36.9     455  -1023    478   1120   1217 156.0  24.6  34168  289.71 0854.44
2009/04/23 14:07:37.0     617   -998    385   1174   1236 148.3  18.2  34196  290.19 0854.44
2009/04/23 14:07:37.2      66  -1259     15   1261   1262 177.0   0.7  34188  290.06 0854.44
2009/04/23 14:07:37.3      -4  -1261    -49   1262   1264 180.2  -2.2  34198  290.20 0854.44
2009/04/23 14:07:37.4    -496   -987   -135   1105   1114 206.7  -7.0  34192  290.13 0854.44
2009/04/23 14:07:37.5    -445   -641   -248    781    819 214.8 -22.6  34198  290.21 0854.44
2009/04/23 14:07:37.6      10   -518      7    519    520 178.9   0.8  34196  290.17 0854.44
2009/04/23 14:07:37.7      44   -687    -38    689    691 176.3  -3.2  34196  290.19 0854.44
2009/04/23 14:07:37.8      53   -541    -39    544    546 174.3  -4.1  34196  290.18 0854.44
2009/04/23 14:07:37.9       9   -593    -80    594    600 179.1  -7.7  34188  290.05 0854.44
2009/04/23 14:07:38.0     -27   -593   -121    594    607 182.7 -11.6  34178  289.88 0854.44
2009/04/23 14:07:38.1     198   -451   -103    493    504 156.3 -11.9  34176  289.84 0854.44
2009/04/23 14:07:38.2     -23   -224   -116    226    254 186.0 -33.7  34170  289.75 0854.44
2009/04/23 14:07:38.3      57   -263     -9    270    271 167.6  -2.1  34184  289.98 0854.44
2009/04/23 14:07:38.4      11   -442    -12    443    444 178.5  -1.6  34188  290.04 0854.45
2009/04/23 14:07:38.5     -50   -418    -29    422    424 186.9  -4.0  34180  289.92 0854.45
2009/04/23 14:07:38.6      65   -249     88    258    273 165.3  18.9  34180  289.90 0854.45
2009/04/23 14:07:38.7     -80   -394    156    403    432 191.6  22.3  34176  289.85 0854.45
2009/04/23 14:07:38.8    -397   -458    -26    607    608 220.9  -2.5  34176  289.83 0854.45
2009/04/23 14:07:38.9      63   -309    178    316    362 168.4  31.9  34176  289.84 0854.45
2009/04/23 14:07:39.0     177   -443    -14    478    479 158.2  -1.8  34178  289.89 0854.45
2009/04/23 14:07:39.1     158   -673     90    692    698 166.7   7.5  34174  289.80 0854.45
2009/04/23 14:07:39.2     219   -385     34    444    446 150.4   4.4  34172  289.78 0854.45
2009/04/23 14:07:39.3     250   -376    -90    452    462 146.4 -11.3  34176  289.85 0854.45
2009/04/23 14:07:39.4     411   -153    -17    439    440 110.4  -2.2  34176  289.83 0854.45
2009/04/23 14:07:39.5     541    -57    208    545    583  96.1  22.0  34176  289.83 0854.45
2009/04/23 14:07:39.6     285      0    173    286    334  90.0  34.1  34180  289.90 0854.45
2009/04/23 14:07:39.7     236   -194     32    306    308 129.5   6.1  34182  289.93 0854.45
2009/04/23 14:07:39.8     139    -88     18    165    167 122.4   6.5  34180  289.92 0854.45
2009/04/23 14:07:39.9       4    -26    107     27    110 170.2  85.9  34200  290.26 0854.45
2009/04/23 14:07:40.0       0   -154     99    155    183 180.4  35.6  34176  289.85 0854.45
2009/04/23 14:07:40.1     -23   -305    170    307    350 184.5  31.4  34184  289.98 0854.45
2009/04/23 14:07:40.2     -92   -540    327    548    638 189.7  33.6  34158  289.54 0854.45
2009/04/23 14:07:40.3    -151   -868    214    882    908 189.9  13.7  34178  289.89 0854.45
2009/04/23 14:07:40.4     135   -729    -85    742    747 169.5  -6.6  34170  289.75 0854.45
2009/04/23 14:07:40.5     216   -555   -114    596    608 158.7 -10.9  34176  289.85 0854.45
2009/04/23 14:07:40.6     109   -484   -131    497    514 167.3 -14.8  34172  289.78 0854.45
2009/04/23 14:07:40.7      25   -227    -15    229    230 173.5  -3.9  34172  289.79 0854.45
2009/04/23 14:07:40.8    -146   -187    135    238    273 217.9  32.1  34176  289.83 0854.45
2009/04/23 14:07:40.9    -110   -161    337    196    389 214.3  67.2  34182  289.94 0854.45
2009/04/23 14:07:41.0     160   -282    248    325    408 150.4  41.3  34194  290.16 0854.45
2009/04/23 14:07:41.1    -111   -326     82    345    355 198.9  13.5  34182  289.94 0854.45
2009/04/23 14:07:41.2     171   -504    306    533    614 161.2  32.4  34174  289.80 0854.45
2009/04/23 14:07:41.3     215   -828    293    856    906 165.4  18.9  34186  290.01 0854.45
2009/04/23 14:07:41.4     -40   -855    383    857    938 182.7  25.7  34186  290.00 0854.45
2009/04/23 14:07:41.5     123   -879    476    888   1007 172.0  30.6  34172  289.79 0854.45
2009/04/23 14:07:41.6     158   -936    527    950   1086 170.4  31.4  34182  289.95 0854.45
2009/04/23 14:07:41.7     -33  -1074    495   1075   1183 181.8  26.5  34190  290.09 0854.45
2009/04/23 14:07:41.8     321   -837    331    897    956 159.0  21.3  34172  289.76 0854.45
2009/04/23 14:07:41.9     541   -955    387   1098   1165 150.5  19.4  34168  289.72 0854.45
2009/04/23 14:07:42.0     591  -1004    410   1166   1237 149.5  19.4  34166  289.68 0854.45
2009/04/23 14:07:42.1     295   -988    358   1031   1091 163.4  20.0  34172  289.79 0854.45
2009/04/23 14:07:42.2     280  -1034    239   1072   1099 164.8  12.6  34166  289.67 0854.45
2009/04/23 14:07:42.3     195   -709    452    736    863 164.6  34.4  34168  289.70 0854.45
2009/04/23 14:07:42.4    -290   -793    110    845    853 200.1   7.4  34178  289.87 0854.44
2009/04/23 14:07:42.5    -424   -896    299    992   1037 205.3  16.8  34178  289.89 0854.44
2009/04/23 14:07:42.6    -391   -680    278    785    833 209.9  19.5  34182  289.94 0854.44
2009/04/23 14:07:42.7    -499   -506    153    711    728 224.6  12.2  34196  290.18 0854.44
2009/04/23 14:07:42.8    -261   -412   -159    488    514 212.4 -18.0  34182  289.93 0854.44
2009/04/23 14:07:42.9    -250   -491     80    552    558 207.0   8.3  34182  289.96 0854.44
2009/04/23 14:07:43.0      30   -393   -178    395    433 175.5 -30.3  34182  289.95 0854.44
2009/04/23 14:07:43.1       7   -209   -210    210    296 178.0 -54.5  34190  290.09 0854.44
2009/04/23 14:07:43.2     103   -318    191    335    385 162.0  32.3  34182  289.96 0854.44
2009/04/23 14:07:43.3      63   -308    211    315    379 168.4  37.0  34184  289.99 0854.44
2009/04/23 14:07:43.4     -67   -227     92    237    254 196.5  22.1  34186  290.02 0854.44
2009/04/23 14:07:43.5    -243   -234     16    338    339 226.1   2.8  34182  289.93 0854.44
2009/04/23 14:07:43.6    -100   -244   -124    264    291 202.3 -31.5  34180  289.90 0854.44
2009/04/23 14:07:43.7       1    -93   -164     94    189 179.1 -72.1  34194  290.14 0854.44
2009/04/23 14:07:43.8     120   -120    -60    170    181 134.9 -19.6  34186  290.02 0854.44
2009/04/23 14:07:43.9      27   -247    -42    249    253 173.7  -9.6  34192  290.10 0854.44
2009/04/23 14:07:44.0     -12   -313    -97    314    328 182.2 -22.2  34180  289.92 0854.44
2009/04/23 14:07:44.1    -305    -79    -64    316    323 255.4 -11.5  34182  289.95 0854.44
2009/04/23 14:07:44.2    -181   -192    333    265    425 223.3  57.5  34182  289.93 0854.44
2009/04/23 14:07:44.3     -86   -423    575    432    719 191.5  59.4  34174  289.82 0854.44
2009/04/23 14:07:44.4    -478   -480    392    678    783 224.9  32.7  34168  289.72 0854.45
2009/04/23 14:07:44.5    -651   -342    366    736    821 242.3  28.5  34182  289.93 0854.45
2009/04/23 14:07:44.6    -925   -175    161    942    956 259.3   9.7  34166  289.69 0854.45
2009/04/23 14:07:44.7    -998    208    106   1020   1026 281.8   6.0  34192  290.11 0854.45
2009/04/23 14:07:44.8   -1096    -32    205   1097   1116 268.3  10.6  34216  290.52 0854.45
2009/04/23 14:07:44.9    -820   -192    168    843    860 256.8  11.3  34176  289.85 0854.45
2009/04/23 14:07:45.0    -731    -56    333    733    805 265.6  26.2  34182  289.96 0854.45
2009/04/23 14:07:45.1    -489   -198    189    528    560 247.9  20.4  34182  289.94 0854.45
2009/04/23 14:07:45.2    -577   -156    247    598    647 254.8  23.7  34166  289.67 0854.45
2009/04/23 14:07:45.3    -978    -91    117    983    990 264.7   6.8  34174  289.80 0854.45
2009/04/23 14:07:45.4    -847     63   -222    850    879 274.3 -14.7  34176  289.83 0854.45
2009/04/23 14:07:45.5    -960    -11   -188    961    980 269.3 -11.1  34178  289.86 0854.45
2009/04/23 14:07:45.6    -840   -123   -342    849    915 261.6 -27.5  34186  290.01 0854.45
2009/04/23 14:07:45.7    -881   -268   -354    922    987 253.1 -26.6  34194  290.14 0854.45
2009/04/23 14:07:45.8    -671   -334   -430    750    864 243.5 -36.8  34180  289.92 0854.45
2009/04/23 14:07:45.9    -681   -274   -335    735    807 248.1 -30.6  34180  289.90 0854.45
2009/04/23 14:07:46.0    -714   -253   -240    758    796 250.4 -17.6  34208  290.39 0854.45
2009/04/23 14:07:46.1    -907   -368   -360    979   1043 247.9 -25.5  34188  290.04 0854.45
2009/04/23 14:07:46.2   -1060   -345   -299   1115   1155 252.0 -15.0  34198  290.20 0854.45
2009/04/23 14:07:46.3    -950   -259   -350    985   1046 254.7 -19.6  34194  290.16 0854.45
2009/04/23 14:07:46.4   -1169   -386   -410   1232   1298 251.7 -23.6  34198  290.22 0854.44
2009/04/23 14:07:46.5    -991    -96   -140    996   1007 264.4  -8.0  34204  290.31 0854.44
2009/04/23 14:07:46.6    -709   -401    119    815    824 240.5   8.3  34214  290.50 0854.44
2009/04/23 14:07:46.7    -849   -485   -128    978    987 240.3  -7.5  34200  290.25 0854.44
2009/04/23 14:07:46.8    -556   -291     79    628    634 242.4   7.2  34202  290.28 0854.44
2009/04/23 14:07:46.9    -511   -336     76    612    617 236.7   7.1  34214  290.50 0854.44
2009/04/23 14:07:47.0    -795   -387     38    885    886 244.0   2.5  34222  290.62 0854.44
2009/04/23 14:07:47.1    -644   -485    -87    807    812 233.0  -6.2  34220  290.60 0854.44
2009/04/23 14:07:47.2    -669   -405    -66    783    787 238.8  -4.9  34250  291.09 0854.44
2009/04/23 14:07:47.3    -447   -580   -188    733    757 217.6 -14.4  34218  290.55 0854.44
2009/04/23 14:07:47.4    -916   -557   -206   1073   1093 238.7 -10.9  34192  290.10 0854.44
2009/04/23 14:07:47.5    -958   -504   -212   1083   1104 242.2 -11.1  34212  290.47 0854.44
2009/04/23 14:07:47.6    -507   -644   -300    821    874 218.2 -25.4  34198  290.22 0854.44
2009/04/23 14:07:47.7    -301   -659   -249    725    766 204.6 -24.0  34198  290.23 0854.44
2009/04/23 14:07:47.8    -304   -658   -242    725    764 204.8 -23.6  34188  290.06 0854.44
2009/04/23 14:07:47.9     -68   -666   -163    670    690 185.9 -13.7  34186  290.02 0854.44
2009/04/23 14:07:48.0    -278   -598     54    660    663 204.9   4.7  34210  290.43 0854.44
2009/04/23 14:07:48.1    -268   -504    134    571    587 208.0  13.2  34206  290.36 0854.44
2009/04/23 14:07:48.2    -314   -367    -23    484    485 220.6  -2.8  34208  290.37 0854.44
2009/04/23 14:07:48.3    -466   -630   -210    784    812 216.5 -15.0  34202  290.27 0854.44
2009/04/23 14:07:48.4    -412   -201   -260    459    527 244.0 -36.4  34196  290.17 0854.46
2009/04/23 14:07:48.5    -433   -412     34    598    599 226.4   3.3  34204  290.32 0854.46
2009/04/23 14:07:48.6    -389   -448     66    594    598 221.0   6.4  34202  290.29 0854.46
2009/04/23 14:07:48.7    -264   -509     87    574    581 207.4   8.7  34216  290.51 0854.46
2009/04/23 14:07:48.8    -116   -505      0    519    520 193.0   0.1  34218  290.57 0854.46
2009/04/23 14:07:48.9    -127   -475     26    492    493 195.1   3.1  34234  290.83 0854.46
2009/04/23 14:07:49.0    -137   -506   -159    525    548 195.2 -21.7  34232  290.80 0854.46
2009/04/23 14:07:49.1    -218   -478   -184    526    557 204.5 -24.4  34232  290.79 0854.46
2009/04/23 14:07:49.2    -127   -270   -181    299    349 205.3 -38.7  34218  290.55 0854.46
2009/04/23 14:07:49.3    -117     -2    -98    118    153 268.7 -48.2  34242  290.98 0854.46
2009/04/23 14:07:49.4    -324   -413    -51    525    528 218.1  -5.6  34230  290.75 0854.46
2009/04/23 14:07:49.5    -393   -181   -112    433    448 245.3 -14.5  34234  290.82 0854.46
2009/04/23 14:07:49.6    -241   -294    -49    381    385 219.3  -7.4  34240  290.93 0854.46
2009/04/23 14:07:49.7    -255   -386    -21    463    464 213.5  -2.7  34232  290.80 0854.46
2009/04/23 14:07:49.8    -258   -431    -70    503    509 210.9  -8.0  34228  290.74 0854.46
2009/04/23 14:07:49.9    -251   -463     20    527    528 208.5   2.2  34254  291.18 0854.46
2009/04/23 14:07:50.0      -7   -680    163    681    701 180.6  13.5  34246  291.04 0854.46
2009/04/23 14:07:50.1    -132   -577    -32    592    593 192.9  -3.1  34236  290.85 0854.46
2009/04/23 14:07:50.2    -377   -828   -191    910    930 204.5 -11.9  34184  289.99 0854.46
2009/04/23 14:07:50.3    -169   -718   -146    738    753 193.3 -11.2  34212  290.45 0854.46
2009/04/23 14:07:50.4    -243   -871   -102    905    911 195.6  -6.5  34226  290.70 0854.47
2009/04/23 14:07:50.5     158   -825    192    841    863 169.1  12.9  34218  290.54 0854.47
2009/04/23 14:07:50.6    -152   -951    215    964    988 189.1  12.6  34250  291.11 0854.47
2009/04/23 14:07:50.7    -321   -973    -86   1025   1029 198.3  -4.8  34250  291.11 0854.47
2009/04/23 14:07:50.8    -313  -1021   -304   1069   1112 197.1 -15.9  34224  290.67 0854.47
2009/04/23 14:07:50.9    -332   -966    -10   1022   1023 199.0  -0.6  34250  291.10 0854.47
2009/04/23 14:07:51.0    -354   -924    224    990   1016 201.0  12.8  34242  290.95 0854.47
2009/04/23 14:07:51.1    -265   -724    130    772    783 200.1   9.6  34240  290.93 0854.47
2009/04/23 14:07:51.2    -372   -747     40    835    837 206.5   2.8  34212  290.47 0854.47
2009/04/23 14:07:51.3     -96   -834    -86    840    845 186.6  -5.9  34216  290.53 0854.47
2009/04/23 14:07:51.4     411   -583    -25    714    715 144.8  -2.0  34206  290.34 0854.47
2009/04/23 14:07:51.5     499    -94    227    508    556 100.7  25.8  34212  290.45 0854.47
2009/04/23 14:07:51.6     351   -126    400    374    547 109.8  52.2  34202  290.30 0854.47
2009/04/23 14:07:51.7      69   -369    293    376    476 169.3  41.9  34226  290.68 0854.47
2009/04/23 14:07:51.8    -139    -88    345    165    382 237.6  72.8  34228  290.73 0854.47
2009/04/23 14:07:51.9     157   -231    427    280    510 145.7  63.6  34226  290.70 0854.47
2009/04/23 14:07:52.0     -13    -37    350     40    352 200.0  90.0  34222  290.61 0854.47
2009/04/23 14:07:52.1     111    -82    281    139    313 126.4  71.8  34214  290.49 0854.47
2009/04/23 14:07:52.2     162   -117    359    201    411 125.9  68.5  34208  290.40 0854.47
2009/04/23 14:07:52.3     242   -168    354    295    460 124.9  56.3  34214  290.50 0854.47
2009/04/23 14:07:52.4     231   -211    375    313    488 132.4  56.0  34202  290.28 0854.47
2009/04/23 14:07:52.5     170   -512    424    540    686 161.6  42.1  34216  290.52 0854.47
2009/04/23 14:07:52.6     144   -497    429    518    672 163.9  43.8  34214  290.50 0854.47
2009/04/23 14:07:52.7      22   -436    485    437    652 177.1  53.4  34216  290.51 0854.47
2009/04/23 14:07:52.8      37   -322    463    325    565 173.4  61.7  34224  290.66 0854.47
2009/04/23 14:07:52.9     -95   -425    529    436    685 192.6  56.4  34228  290.74 0854.47
2009/04/23 14:07:53.0    -199   -449    585    492    764 203.9  55.8  34236  290.85 0854.47
2009/04/23 14:07:53.1    -220   -479    490    528    720 204.7  47.7  34240  290.94 0854.47
2009/04/23 14:07:53.2    -218   -529    447    573    726 202.4  41.9  34216  290.53 0854.47
2009/04/23 14:07:53.3    -235   -415    307    477    567 209.5  35.7  34228  290.72 0854.47
2009/04/23 14:07:53.4    -311   -618    279    692    746 206.7  23.1  34228  290.73 0854.47
2009/04/23 14:07:53.5    -269   -647    164    701    721 202.6  13.2  34234  290.83 0854.47
2009/04/23 14:07:53.6    -277   -505    262    577    633 208.8  26.0  34248  291.06 0854.47
2009/04/23 14:07:53.7    -337   -605    204    693    723 209.1  16.4  34248  291.08 0854.47
2009/04/23 14:07:53.8    -201   -527    237    565    612 200.9  24.2  34222  290.63 0854.47
2009/04/23 14:07:53.9    -324   -536    236    627    669 211.1  21.6  34234  290.84 0854.47
2009/04/23 14:07:54.0    -416   -644    235    767    803 212.9  17.0  34232  290.78 0854.47
2009/04/23 14:07:54.1    -218   -485    373    532    649 204.2  38.5  34226  290.70 0854.47
2009/04/23 14:07:54.2    -284   -554    198    623    654 207.2  17.7  34220  290.60 0854.47
2009/04/23 14:07:54.3    -221   -527     43    572    574 202.8   4.3  34240  290.92 0854.47
2009/04/23 14:07:54.4    -219   -435     68    488    493 206.7   8.0  34228  290.73 0854.48
2009/04/23 14:07:54.5    -240   -516    184    570    600 205.0  17.9  34220  290.58 0854.48
2009/04/23 14:07:54.6    -234   -419    291    481    562 209.2  34.1  34234  290.82 0854.48
2009/04/23 14:07:54.7    -157   -435    240    463    521 200.0  29.4  34234  290.83 0854.48
2009/04/23 14:07:54.8    -279   -490    257    564    619 209.7  26.2  34252  291.12 0854.48
2009/04/23 14:07:54.9    -276   -448    175    527    556 211.7  18.4  34252  291.13 0854.48
2009/04/23 14:07:55.0    -324   -468    134    570    586 214.7  13.2  34238  290.88 0854.48
2009/04/23 14:07:55.1    -243   -522    123    576    590 205.0  12.1  34236  290.87 0854.48
2009/04/23 14:07:55.2    -276   -489    221    562    603 209.4  22.7  34230  290.76 0854.48
2009/04/23 14:07:55.3     -50   -459    167    462    491 186.3  20.7  34228  290.71 0854.48
2009/04/23 14:07:55.4      31   -459    235    461    517 176.1  29.2  34228  290.73 0854.48
2009/04/23 14:07:55.5       7   -454    184    455    490 179.1  23.2  34228  290.73 0854.48
2009/04/23 14:07:55.6     -17   -228    270    229    354 184.4  55.5  34238  290.90 0854.48
2009/04/23 14:07:55.7     -15   -170    202    171    264 185.3  55.8  34268  291.41 0854.48
2009/04/23 14:07:55.8    -130   -217    326    254    413 211.0  58.3  34252  291.15 0854.48
2009/04/23 14:07:55.9    -231   -127    234    264    352 241.1  46.2  34268  291.41 0854.48
2009/04/23 14:07:56.0    -194   -131    302    235    382 235.9  58.3  34260  291.28 0854.48
2009/04/23 14:07:56.1    -154      4    188    155    243 271.7  56.4  34270  291.43 0854.48
2009/04/23 14:07:56.2       9    -21    154     24    155 156.4  90.0  34244  290.99 0854.48
2009/04/23 14:07:56.3     -36   -101    222    108    246 200.0  72.4  34246  291.03 0854.48
2009/04/23 14:07:56.4     -53   -179    292    187    346 196.5  64.6  34262  291.29 0854.48
2009/04/23 14:07:56.5      90    -74    230    117    258 129.6  71.0  34240  290.94 0854.48
2009/04/23 14:07:56.6       9   -209    234    210    314 177.5  53.6  34230  290.75 0854.48
2009/04/23 14:07:56.7     -27   -238    244    240    342 186.7  50.4  34236  290.87 0854.48
2009/04/23 14:07:56.8     -59    -81    283    101    300 216.1  79.7  34246  291.04 0854.48
2009/04/23 14:07:56.9      91   -202    268    222    348 155.7  56.3  34248  291.07 0854.48
2009/04/23 14:07:57.0     -10   -129    270    130    299 184.5  72.8  34252  291.12 0854.48
2009/04/23 14:07:57.1     -84   -187    269    206    338 204.3  58.9  34248  291.05 0854.48
2009/04/23 14:07:57.2    -166   -165    262    235    351 225.2  53.6  34240  290.93 0854.48
2009/04/23 14:07:57.3    -157     42    160    163    228 285.3  49.8  34252  291.13 0854.48
2009/04/23 14:07:57.4    -173    150    156    230    277 310.9  37.6  34250  291.10 0854.48
2009/04/23 14:07:57.5     -19    -30    -61     36     70 212.6 -71.2  34238  290.89 0854.48
2009/04/23 14:07:57.6     -46    -75     56     89    105 211.6  35.5  34238  290.91 0854.48
2009/04/23 14:07:57.7     148    -11     75    149    166  94.4  28.5  34236  290.87 0854.48
2009/04/23 14:07:57.8     159    -58    164    170    236 110.0  49.0  34248  291.08 0854.48
2009/04/23 14:07:57.9     196    -51    174    203    267 104.6  44.9  34246  291.04 0854.48
2009/04/23 14:07:58.0     117    -56     83    130    154 115.8  35.5  34248  291.06 0854.48
2009/04/23 14:07:58.1     -25     23     91     35     97 313.1  78.6  34262  291.30 0854.48
2009/04/23 14:07:58.2      32    158     97    162    188  11.5  34.0  34284  291.69 0854.48
2009/04/23 14:07:58.3      56    159     92    169    192  19.6  31.3  34298  291.91 0854.48
2009/04/23 14:07:58.4      11    146     95    147    175   4.4  35.6  34302  292.00 0854.48
2009/04/23 14:07:58.5     -24    142     65    145    158 350.3  25.9  34306  292.06 0854.48
2009/04/23 14:07:58.6     -69     97     98    120    154 324.4  43.7  34300  291.95 0854.48
2009/04/23 14:07:58.7     -51    160    188    169    252 342.2  53.3  34314  292.18 0854.48
2009/04/23 14:07:58.8    -100    247    237    267    357 337.9  46.3  34352  292.85 0854.48
2009/04/23 14:07:58.9    -130    237    232    271    356 331.3  45.1  34356  292.92 0854.48
2009/04/23 14:07:59.0    -121    324    177    347    389 339.4  29.3  34322  292.34 0854.48
2009/04/23 14:07:59.1     -77    237    154    250    293 342.0  34.5  34354  292.86 0854.48
2009/04/23 14:07:59.2      -5    209    146    210    255 358.6  38.4  34338  292.60 0854.48
2009/04/23 14:07:59.3      75    236    131    248    280  17.8  30.1  34346  292.72 0854.48
2009/04/23 14:07:59.4      19    352    205    353    408   3.2  32.9  34356  292.90 0854.48
2009/04/23 14:07:59.5     -19    328    187    329    378 356.6  32.3  34354  292.87 0854.48
2009/04/23 14:07:59.6      -1    269     47    270    275 359.8   9.9  34332  292.48 0854.48
2009/04/23 14:07:59.7       5    277    -70    278    287   1.1 -14.3  34324  292.35 0854.48
2009/04/23 14:07:59.8     -42    173     16    179    180 346.2   5.2  34322  292.34 0854.48
2009/04/23 14:07:59.9     -63    154      8    167    168 337.5   2.9  34316  292.22 0854.48
2009/04/23 14:08:00.0     -49     69    -17     85     87 324.4 -11.9  34314  292.18 0854.48
2009/04/23 14:08:00.1      -6     56     15     57     60 353.8  15.3  34308  292.08 0854.48
2009/04/23 14:08:00.2      25    -94    180     98    204 164.9  68.9  34292  291.83 0854.48
2009/04/23 14:08:00.3      -1    -40    193     41    197 182.7  88.5  34334  292.52 0854.48
2009/04/23 14:08:00.4     -73   -134    247    153    290 208.5  64.9  34250  291.10 0854.48
2009/04/23 14:08:00.5     -59   -100    173    117    208 210.7  62.7  34248  291.06 0854.48
2009/04/23 14:08:00.6     -79   -102    139    130    190 217.9  52.2  34252  291.15 0854.48
2009/04/23 14:08:00.7     -74    -81     85    110    139 222.3  41.7  34252  291.13 0854.48
2009/04/23 14:08:00.8     -48     27    -42     56     70 299.8 -45.1  34260  291.28 0854.48
2009/04/23 14:08:00.9    -124    197   -185    233    297 327.7 -47.1  34212  290.44 0854.48
2009/04/23 14:08:01.0      -3    208   -293    209    359 359.1 -65.6  34218  290.54 0854.48
2009/04/23 14:08:01.1    -261    -48   -270    266    379 259.4 -54.6  34254  291.18 0854.48
2009/04/23 14:08:01.2      -4   -124   -241    125    271 182.2 -75.0  34238  290.90 0854.48
2009/04/23 14:08:01.3     -45   -191   -218    197    293 193.4 -57.7  34252  291.12 0854.48
2009/04/23 14:08:01.4      95    -32     94    101    137 109.1  47.9  34258  291.23 0854.47
2009/04/23 14:08:01.5     228   -149    172    273    322 123.3  35.3  34254  291.16 0854.47
2009/04/23 14:08:01.6     247    -49    307    252    397 101.4  56.5  34248  291.08 0854.47
2009/04/23 14:08:01.7     142   -509   -347    529    632 164.4 -40.8  34252  291.15 0854.47
2009/04/23 14:08:01.8     366   -460   -315    588    667 141.5 -34.9  34258  291.25 0854.47
2009/04/23 14:08:01.9     549   -175   -172    577    602 107.7 -21.6  34270  291.43 0854.47
2009/04/23 14:08:02.0     430    -27   -150    431    457  93.6 -19.3  34278  291.57 0854.47
2009/04/23 14:08:02.1     523   -158    -28    547    548 106.8  -3.0  34276  291.54 0854.47
2009/04/23 14:08:02.2     606   -310    370    681    775 117.1  30.9  34264  291.35 0854.47
2009/04/23 14:08:02.3     355   -296    341    463    575 129.8  40.0  34274  291.52 0854.47
2009/04/23 14:08:02.4     110   -293    129    314    339 159.3  23.6  34260  291.27 0854.47
2009/04/23 14:08:02.5     124   -262    248    290    381 154.7  45.0  34252  291.13 0854.47
2009/04/23 14:08:02.6     -49   -183    -81    190    206 195.1 -29.0  34266  291.37 0854.47
2009/04/23 14:08:02.7      20    -75     27     78     83 164.9  19.2  34258  291.25 0854.47
2009/04/23 14:08:02.8     -40    -64     -3     76     77 212.6  -2.2  34258  291.25 0854.47
2009/04/23 14:08:02.9    -122    -10    -45    123    130 265.2 -25.4  34256  291.21 0854.47
2009/04/23 14:08:03.0     -65    155      8    169    170 337.3   2.9  34244  291.01 0854.47
2009/04/23 14:08:03.1      70     72    143    101    175  44.1  61.5  34258  291.23 0854.47
2009/04/23 14:08:03.2     161    -78    140    180    228 116.0  41.7  34254  291.18 0854.47
2009/04/23 14:08:03.3     157   -372    259    405    480 157.1  35.6  34260  291.28 0854.47
2009/04/23 14:08:03.4     208   -519     31    560    561 158.2   3.2  34238  290.91 0854.46
2009/04/23 14:08:03.5     431   -366    -86    566    573 130.3  -8.7  34242  290.98 0854.46
2009/04/23 14:08:03.6     533   -355    -21    641    642 123.7  -1.9  34232  290.79 0854.46
2009/04/23 14:08:03.7     640   -462    220    790    821 125.9  15.6  34252  291.15 0854.46
2009/04/23 14:08:03.8     623   -489    281    793    842 128.1  19.5  34208  290.40 0854.46
2009/04/23 14:08:03.9     322   -388    350    505    614 140.4  38.0  34242  290.97 0854.46
2009/04/23 14:08:04.0     365   -684     81    776    781 151.9   6.0  34230  290.76 0854.46
2009/04/23 14:08:04.1     232   -570    262    616    669 157.8  24.5  34234  290.82 0854.46
2009/04/23 14:08:04.2     481    134   -101    500    511  74.4 -11.5  34242  290.96 0854.46
2009/04/23 14:08:04.3     411    -90     25    421    422 102.4   3.5  34230  290.75 0854.46
2009/04/23 14:08:04.4      46    231    176    236    294  11.5  40.6  34244  291.00 0854.46
2009/04/23 14:08:04.5    -212    556    106    596    606 339.1  10.1  34226  290.68 0854.46
2009/04/23 14:08:04.6    -295    495    -90    577    585 329.2  -8.9  34230  290.75 0854.46
2009/04/23 14:08:04.7    -149    377    -89    406    416 338.4 -12.4  34220  290.58 0854.46
2009/04/23 14:08:04.8     -95    260     79    277    289 339.9  16.0  34230  290.75 0854.46
2009/04/23 14:08:05.0    -192    267    211    330    391 324.3  35.6  34234  290.83 0854.46
2009/04/23 14:08:05.1    -380    188    150    425    450 296.4  20.1  34232  290.80 0854.46
2009/04/23 14:08:05.2     119     -8     94    120    152  94.3  42.7  34234  290.82 0854.46
2009/04/23 14:08:05.3       0    -94    288     95    303 180.5  80.7  34246  291.02 0854.46
2009/04/23 14:08:05.4     146    -29    399    149    425 101.4  78.8  34238  290.88 0854.46
2009/04/23 14:08:05.5     362    137    449    388    593  69.2  54.8  34230  290.75 0854.48
2009/04/23 14:08:05.6     456    135    477    476    673  73.5  50.0  34228  290.74 0854.48
2009/04/23 14:08:05.7     400    139    575    424    714  70.8  60.0  34230  290.76 0854.48
2009/04/23 14:08:05.8     186     77    460    202    502  67.6  74.8  34240  290.92 0854.48
2009/04/23 14:08:05.9    -174   -180    239    251    346 224.1  48.5  34244  290.99 0854.48
2009/04/23 14:08:06.0     152    136    515    205    554  48.2  77.1  34244  291.00 0854.48
2009/04/23 14:08:06.1     217   -106    362    242    435 116.0  63.2  34232  290.81 0854.48
2009/04/23 14:08:06.2     150   -151    323    213    386 135.2  63.6  34240  290.93 0854.48
2009/04/23 14:08:06.3       5      8    252     10    252  32.5  90.0  34250  291.11 0854.48
2009/04/23 14:08:06.4     -60   -150    266    162    311 201.9  65.7  34242  290.95 0854.48
2009/04/23 14:08:06.5     106   -153    218    187    287 145.3  55.3  34246  291.02 0854.48
2009/04/23 14:08:06.6     114   -251    258    276    377 155.5  48.0  34242  290.98 0854.48
2009/04/23 14:08:06.7       9   -319    255    320    409 178.2  42.7  34240  290.94 0854.48
2009/04/23 14:08:06.8     -92   -398    338    409    530 193.1  43.7  34238  290.91 0854.48
2009/04/23 14:08:06.9    -195   -429    271    472    544 204.5  32.4  34244  291.01 0854.48
2009/04/23 14:08:07.0    -265   -550    247    611    659 205.8  23.2  34248  291.08 0854.48
2009/04/23 14:08:07.1    -293   -456    181    543    573 212.8  18.5  34244  290.99 0854.48
2009/04/23 14:08:07.2    -499   -425    -29    656    657 229.6  -2.6  34238  290.89 0854.48
2009/04/23 14:08:07.3    -464   -415     -5    623    624 228.2  -0.5  34226  290.69 0854.48
2009/04/23 14:08:07.4    -617   -394   -197    733    759 237.4 -15.1  34228  290.72 0854.48
2009/04/23 14:08:07.5    -447   -313   -165    546    570 235.0 -21.7  34238  290.91 0854.48
2009/04/23 14:08:07.6    -308   -622    368    695    786 206.4  30.2  34238  290.91 0854.48
2009/04/23 14:08:07.7    -287   -288    -91    407    418 224.9 -12.7  34268  291.41 0854.48
2009/04/23 14:08:07.8    -274   -444     36    522    524 211.7   4.0  34266  291.37 0854.48
2009/04/23 14:08:07.9    -510   -280    -56    582    585 241.2  -5.6  34282  291.66 0854.48
2009/04/23 14:08:08.0    -277   -338      5    438    439 219.4   0.7  34264  291.33 0854.48
2009/04/23 14:08:08.1    -182   -463    106    498    510 201.5  12.0  34268  291.41 0854.48
2009/04/23 14:08:08.2    -330   -652    -40    731    733 206.9  -3.2  34260  291.27 0854.48
2009/04/23 14:08:08.3     -69   -523    -47    528    531 187.6  -5.1  34238  290.91 0854.48
2009/04/23 14:08:08.4     103   -581   -177    591    617 169.9 -16.7  34228  290.73 0854.48
2009/04/23 14:08:08.5     335   -533   -164    630    651 147.9 -14.6  34218  290.57 0854.48
2009/04/23 14:08:08.6     318   -441   -188    544    576 144.2 -19.1  34218  290.57 0854.48
2009/04/23 14:08:08.7       3   -397    -98    398    410 179.5 -13.9  34232  290.78 0854.48
2009/04/23 14:08:08.8     -51   -403    -79    407    415 187.2 -11.0  34248  291.07 0854.48
2009/04/23 14:08:08.9     -46   -504    -31    507    508 185.3  -3.5  34244  291.00 0854.48
2009/04/23 14:08:09.0     103   -466   -155    478    503 167.5 -18.0  34222  290.62 0854.48
2009/04/23 14:08:09.1      90   -471   -101    480    491 169.1 -11.9  34234  290.83 0854.48
2009/04/23 14:08:09.2      46   -398   -110    401    417 173.3 -15.4  34254  291.16 0854.48
2009/04/23 14:08:09.3     147   -519    -83    540    547 164.1  -8.8  34218  290.55 0854.48
2009/04/23 14:08:09.4     -34   -461   -111    463    477 184.2 -13.6  34252  291.13 0854.48
2009/04/23 14:08:09.5      36   -469     14    471    472 175.5   1.7  34220  290.59 0854.49
2009/04/23 14:08:09.6      94   -467     62    477    482 168.5   7.4  34216  290.52 0854.49
2009/04/23 14:08:09.7     131   -438    107    458    471 163.3  13.2  34210  290.42 0854.49
2009/04/23 14:08:09.8      74   -529     84    535    542 172.0   9.0  34214  290.48 0854.49
2009/04/23 14:08:09.9      73   -497    101    503    514 171.6  11.4  34218  290.57 0854.49
2009/04/23 14:08:10.0      71   -501     43    507    509 171.9   4.9  34218  290.56 0854.49
2009/04/23 14:08:10.1      92   -419     56    430    434 167.6   7.4  34220  290.60 0854.49
2009/04/23 14:08:10.2      80   -239    -59    253    260 161.5 -13.2  34224  290.66 0854.49
2009/04/23 14:08:10.3     220   -299     32    372    374 143.7   5.0  34210  290.42 0854.49
2009/04/23 14:08:10.4      33   -420     52    422    426 175.4   7.1  34220  290.58 0854.49
2009/04/23 14:08:10.5      -5   -429     37    430    432 180.7   5.0  34222  290.61 0854.49
2009/04/23 14:08:10.6     -62   -400    130    405    426 188.8  17.8  34216  290.51 0854.49
2009/04/23 14:08:10.7     -96   -476    119    486    501 191.5  13.8  34218  290.57 0854.49
2009/04/23 14:08:10.8    -101   -456     87    468    476 192.5  10.6  34222  290.61 0854.49
2009/04/23 14:08:10.9     -92   -425     37    436    438 192.3   5.0  34232  290.80 0854.49
2009/04/23 14:08:11.0     -61   -302    -12    309    310 191.6  -2.2  34238  290.88 0854.49
2009/04/23 14:08:11.1     -13   -307    -73    308    317 182.6 -13.4  34232  290.80 0854.49
2009/04/23 14:08:11.2     -12   -265    -77    266    276 182.6 -20.8  34232  290.78 0854.49
2009/04/23 14:08:11.3     -77   -245    -52    258    264 197.6 -11.6  34236  290.85 0854.49
2009/04/23 14:08:11.4    -167   -305     10    348    349 208.7   1.7  34234  290.83 0854.49
2009/04/23 14:08:11.5    -116   -357     87    376    387 198.1  13.1  34232  290.81 0854.50
2009/04/23 14:08:11.6     -91   -302      0    316    317 196.9   0.0  34234  290.82 0854.50
2009/04/23 14:08:11.7      23   -388     69    389    396 176.5  10.1  34232  290.79 0854.50
2009/04/23 14:08:11.8     113   -378     52    395    399 163.4   7.6  34232  290.81 0854.50
2009/04/23 14:08:11.9     138   -279    -81    312    323 153.6 -14.7  34232  290.78 0854.50
2009/04/23 14:08:12.0      77   -189    -20    205    207 157.7  -5.6  34238  290.91 0854.50
2009/04/23 14:08:12.1      55   -197   -106    205    230 164.4 -33.7  34248  291.06 0854.50
2009/04/23 14:08:12.2      27   -232    -79    234    246 173.3 -23.3  34250  291.09 0854.50
2009/04/23 14:08:12.3     -40   -289    107    292    310 188.0  20.9  34244  290.99 0854.50
2009/04/23 14:08:12.4     -45   -368    215    371    428 187.0  32.8  34224  290.67 0854.50
2009/04/23 14:08:12.5     -23   -320    213    321    385 184.1  36.6  34230  290.77 0854.50
2009/04/23 14:08:12.6    -107   -292    148    312    345 200.1  27.2  34228  290.72 0854.50
2009/04/23 14:08:12.7     -12   -272    137    273    305 182.7  28.5  34236  290.87 0854.50
2009/04/23 14:08:12.8     -41   -242     89    246    262 189.8  19.9  34234  290.82 0854.50
2009/04/23 14:08:12.9     -54   -227    146    234    275 193.4  35.0  34240  290.92 0854.50
2009/04/23 14:08:13.0     -54   -175     63    184    195 197.2  18.9  34246  291.04 0854.50
2009/04/23 14:08:13.1      -4    -83     74     84    111 183.1  46.4  34244  290.99 0854.50
2009/04/23 14:08:13.2      -9     11     66     15     67 320.4  88.0  34256  291.20 0854.50
2009/04/23 14:08:13.3     -16    -15     68     22     71 226.9  80.7  34258  291.25 0854.50
2009/04/23 14:08:13.4     -91    -84     95    125    157 227.3  41.4  34248  291.06 0854.50
2009/04/23 14:08:13.5    -195    -71     60    208    217 249.8  16.3  34234  290.82 0854.52
2009/04/23 14:08:13.6    -416    -80     20    424    425 259.1   2.8  34244  291.01 0854.52
2009/04/23 14:08:13.7    -381    -39     32    384    386 264.0   4.9  34246  291.03 0854.52
2009/04/23 14:08:13.8    -394   -139    -80    418    426 250.5 -10.9  34246  291.04 0854.52
2009/04/23 14:08:13.9    -354   -113    -33    372    374 252.2  -5.2  34262  291.32 0854.52
2009/04/23 14:08:14.0    -361    -73    -79    369    378 258.5 -12.2  34278  291.56 0854.52
2009/04/23 14:08:14.1    -328   -213      8    392    393 236.9   1.2  34260  291.28 0854.52
2009/04/23 14:08:14.2    -316   -195     -4    372    373 238.3  -0.7  34260  291.27 0854.52
2009/04/23 14:08:14.3    -368     12    -89    369    380 272.0 -13.7  34256  291.20 0854.52
2009/04/23 14:08:14.4    -304      4    107    305    324 270.8  19.4  34248  291.05 0854.52
2009/04/23 14:08:14.5    -265    -71    149    275    312 255.0  30.8  34252  291.14 0854.52
2009/04/23 14:08:14.6    -406    -49     20    410    411 263.0   2.8  34268  291.41 0854.52
2009/04/23 14:08:14.7    -262    -71     32    272    274 254.9   6.9  34278  291.56 0854.52
2009/04/23 14:08:14.8    -167   -130     90    212    230 232.2  24.6  34274  291.50 0854.52
2009/04/23 14:08:14.9    -117   -187    -65    221    231 212.1 -16.4  34260  291.28 0854.52
2009/04/23 14:08:15.0    -155   -114    -67    193    204 233.8 -24.0  34258  291.23 0854.52
2009/04/23 14:08:15.1    -105   -221    -71    245    255 205.5 -20.8  34262  291.29 0854.52
2009/04/23 14:08:15.2     -63   -207    -70    217    228 196.9 -23.3  34266  291.38 0854.52
2009/04/23 14:08:15.3    -106   -165     -7    197    198 212.7  -2.1  34274  291.50 0854.52
2009/04/23 14:08:15.4     -62   -139    -51    153    162 204.1 -18.7  34270  291.45 0854.52
2009/04/23 14:08:15.5      15   -166    -30    167    170 174.7 -10.5  34270  291.45 0854.54
2009/04/23 14:08:15.6     -34   -125     43    130    138 195.2  18.4  34272  291.47 0854.54
2009/04/23 14:08:15.7     -80   -293    120    304    326 195.4  22.7  34268  291.41 0854.54
2009/04/23 14:08:15.8     -81   -362     73    372    380 192.7  11.1  34260  291.28 0854.54
2009/04/23 14:08:15.9      32   -492    154    493    517 176.3  17.4  34242  290.96 0854.54
2009/04/23 14:08:16.0     224   -513    150    561    581 156.4  15.0  34224  290.66 0854.54
2009/04/23 14:08:16.1     320   -512    131    604    619 148.0  12.3  34228  290.73 0854.54
2009/04/23 14:08:16.2     321   -388    137    504    523 140.4  15.3  34224  290.66 0854.54
2009/04/23 14:08:16.3      65   -340    272    347    440 169.2  42.0  34232  290.78 0854.54
2009/04/23 14:08:16.4      59   -360    358    365    511 170.6  49.5  34234  290.83 0854.54
2009/04/23 14:08:16.5      91   -129    172    158    233 144.8  52.2  34226  290.69 0854.54
2009/04/23 14:08:16.6     161   -251    234    299    379 147.4  42.0  34216  290.52 0854.54
2009/04/23 14:08:16.7      31   -261     95    263    279 173.1  20.9  34222  290.63 0854.54
2009/04/23 14:08:16.8    -115   -418     16    434    435 195.4   2.1  34228  290.72 0854.54
2009/04/23 14:08:16.9    -170   -358    -56    397    402 205.5  -8.1  34236  290.86 0854.54
2009/04/23 14:08:17.0    -121   -329    -50    351    355 200.3  -8.2  34242  290.98 0854.54
2009/04/23 14:08:17.1     -26   -306   -120    308    330 184.9 -26.8  34244  291.00 0854.54
2009/04/23 14:08:17.2      19   -449     88    450    459 177.5  11.1  34236  290.85 0854.54
2009/04/23 14:08:17.3    -161   -512    165    537    562 197.5  17.1  34240  290.94 0854.54
2009/04/23 14:08:17.4    -320   -575     29    659    660 209.1   2.6  34236  290.85 0854.54
2009/04/23 14:08:17.5    -178   -532     73    562    567 198.6   7.4  34240  290.92 0854.54
2009/04/23 14:08:17.6    -269   -483     17    554    555 209.1   1.8  34232  290.79 0854.54
2009/04/23 14:08:17.7    -203   -408     76    456    463 206.5   9.5  34238  290.90 0854.54
2009/04/23 14:08:17.8    -136   -407     -8    430    431 198.5  -1.1  34236  290.85 0854.54
2009/04/23 14:08:17.9    -114   -377      6    395    396 196.9   1.0  34230  290.77 0854.54
2009/04/23 14:08:18.0    -220   -197    102    296    314 228.2  19.1  34238  290.88 0854.54
2009/04/23 14:08:18.1    -164   -247    -90    297    310 213.6 -21.8  34230  290.76 0854.54
2009/04/23 14:08:18.2    -346   -212    -57    406    411 238.5  -8.0  34228  290.73 0854.54
2009/04/23 14:08:18.3    -203      1      5    204    205 270.4   1.6  34236  290.86 0854.54
2009/04/23 14:08:18.4     -94    -85    114    127    170 227.8  46.6  34238  290.91 0854.54
2009/04/23 14:08:18.5     -22   -187    162    189    248 186.9  44.8  34244  290.99 0854.54
2009/04/23 14:08:18.6    -107   -232    115    256    280 204.9  25.7  34236  290.87 0854.54
2009/04/23 14:08:18.7      -5   -376    150    377    405 180.9  22.9  34232  290.79 0854.54
2009/04/23 14:08:18.8       0   -413    146    414    438 180.0  20.2  34230  290.75 0854.54
2009/04/23 14:08:18.9     -21   -399    131    400    422 183.0  18.2  34226  290.70 0854.54
2009/04/23 14:08:19.0     -72   -322    142    331    360 192.6  24.8  34228  290.74 0854.54
2009/04/23 14:08:19.1    -163   -192    119    253    279 220.3  27.1  34222  290.63 0854.54
2009/04/23 14:08:19.2     -58    -79    161     99    189 216.5  65.1  34232  290.81 0854.54
2009/04/23 14:08:19.3     -74   -151    177    169    244 206.3  51.2  34240  290.92 0854.54
2009/04/23 14:08:19.4      -3   -126     10    127    128 181.4   4.9  34226  290.70 0854.54
2009/04/23 14:08:19.5     -75     56    178     94    201 306.9  70.0  34238  290.89 0854.53
2009/04/23 14:08:19.6     -82   -155    197    176    264 208.1  53.7  34238  290.88 0854.53
2009/04/23 14:08:19.7    -147   -297    119    332    352 206.3  20.6  34230  290.76 0854.53
2009/04/23 14:08:19.8    -129   -225    222    260    341 209.9  44.8  34234  290.82 0854.53
2009/04/23 14:08:19.9    -170   -212    300    273    405 218.8  53.2  34230  290.76 0854.53
2009/04/23 14:08:20.0    -211   -297    238    365    435 215.4  36.3  34228  290.72 0854.53
2009/04/23 14:08:20.1    -454   -425    313    623    697 226.9  28.7  34216  290.53 0854.53
2009/04/23 14:08:20.2    -471   -341    338    582    673 234.1  32.9  34220  290.59 0854.53
2009/04/23 14:08:20.3    -232   -239    150    334    366 224.1  25.8  34222  290.64 0854.53
2009/04/23 14:08:20.4    -384   -275    274    473    546 234.4  32.8  34224  290.67 0854.53
2009/04/23 14:08:20.5    -407   -452    245    609    656 222.0  23.1  34222  290.62 0854.52
2009/04/23 14:08:20.6    -684   -387    245    787    825 240.5  17.3  34210  290.43 0854.52
2009/04/23 14:08:20.7    -653   -208    -86    686    692 252.3  -7.2  34230  290.75 0854.52
2009/04/23 14:08:20.8    -536   -324    348    627    717 238.9  31.4  34264  291.33 0854.52
2009/04/23 14:08:20.9    -317   -435    281    539    607 216.1  29.8  34248  291.05 0854.52
2009/04/23 14:08:21.0    -361   -758    328    840    901 205.5  22.5  34262  291.30 0854.52
2009/04/23 14:08:21.1    -461   -601    126    758    769 217.5   9.4  34262  291.31 0854.52
2009/04/23 14:08:21.2    -532   -625    -30    822    823 220.4  -2.1  34238  290.89 0854.52
2009/04/23 14:08:21.3    -477   -625   -104    787    794 217.3  -7.6  34220  290.58 0854.52
2009/04/23 14:08:21.4    -313   -622    426    697    816 206.8  34.4  34230  290.76 0854.52
2009/04/23 14:08:21.5    -188   -680    150    706    722 195.5  12.0  34212  290.45 0854.52
2009/04/23 14:08:21.6    -402   -647    273    762    809 211.9  20.6  34214  290.49 0854.52
2009/04/23 14:08:21.7    -162   -474    350    502    611 198.9  38.4  34216  290.53 0854.52
2009/04/23 14:08:21.8    -180   -508    422    540    685 199.6  42.0  34220  290.60 0854.52
2009/04/23 14:08:21.9    -170   -574    354    599    695 196.5  33.4  34236  290.87 0854.52
2009/04/23 14:08:22.0    -335   -615    288    701    757 208.6  23.6  34218  290.55 0854.52
2009/04/23 14:08:22.1    -252   -801     59    840    843 197.5   4.0  34222  290.61 0854.52
2009/04/23 14:08:22.2    -325   -592    209    676    708 208.8  17.2  34232  290.81 0854.52
2009/04/23 14:08:22.3    -166   -444    165    475    503 200.5  19.2  34218  290.54 0854.52
2009/04/23 14:08:22.4     -12   -406    196    407    451 181.8  27.3  34238  290.89 0854.52
2009/04/23 14:08:22.5      -5   -325    224    326    395 181.0  37.8  34232  290.81 0854.51
2009/04/23 14:08:22.6      42   -419    201    422    467 174.2  27.3  34248  291.07 0854.51
2009/04/23 14:08:22.7      96   -384    238    396    462 165.9  33.8  34238  290.90 0854.51
2009/04/23 14:08:22.8     -20   -196    209    198    287 186.0  52.0  34244  291.00 0854.51
2009/04/23 14:08:22.9    -157   -471    176    497    528 198.5  19.5  34242  290.96 0854.51
2009/04/23 14:08:23.0     -65   -362    296    368    472 190.3  42.9  34240  290.92 0854.51
2009/04/23 14:08:23.1    -111   -161    181    196    266 214.7  47.7  34252  291.12 0854.51
2009/04/23 14:08:23.2    -109    -24    216    112    243 257.6  70.6  34264  291.35 0854.51
2009/04/23 14:08:23.3     -30    -23    126     39    131 232.2  82.3  34254  291.18 0854.51
2009/04/23 14:08:23.4     -37      0    131     38    136 270.0  83.3  34254  291.16 0854.51
2009/04/23 14:08:23.5     -32    -55    175     64    186 210.7  79.2  34244  291.01 0854.51
2009/04/23 14:08:23.6    -116   -182    171    217    276 212.5  42.2  34222  290.61 0854.51
2009/04/23 14:08:23.7     -24   -143    252    146    291 189.8  67.0  34232  290.80 0854.51
2009/04/23 14:08:23.8      -7    -87    234     88    250 184.9  78.6  34236  290.87 0854.51
2009/04/23 14:08:23.9      93   -181    247    204    320 152.8  56.4  34222  290.61 0854.51
2009/04/23 14:08:24.0      23   -243    297    245    385 174.6  56.4  34214  290.50 0854.51
2009/04/23 14:08:24.1     -85   -283    276    296    404 196.7  47.9  34252  291.13 0854.51
2009/04/23 14:08:24.2     -64   -238    197    247    315 195.2  42.6  34246  291.02 0854.51
2009/04/23 14:08:24.3      27   -190    206    192    281 171.8  52.2  34234  290.82 0854.51
2009/04/23 14:08:24.4     141   -118    206    185    276 130.0  53.5  34234  290.82 0854.51
2009/04/23 14:08:24.5       0   -123    232    124    263 180.4  69.6  34240  290.94 0854.51
2009/04/23 14:08:24.6     -49   -259    308    264    405 190.7  55.3  34240  290.94 0854.51
2009/04/23 14:08:24.7     -68   -279    289    288    408 193.8  50.1  34248  291.06 0854.51
2009/04/23 14:08:24.8     -97   -296    358    312    474 198.3  54.6  34248  291.06 0854.51
2009/04/23 14:08:24.9      16   -155    351    156    384 173.8  74.7  34234  290.83 0854.51
2009/04/23 14:08:25.0     -79    -36    300     88    312 245.2  83.3  34242  290.97 0854.51
2009/04/23 14:08:25.1       5   -163    324    164    363 178.0  71.3  34252  291.12 0854.51
2009/04/23 14:08:25.2       4   -127    385    128    405 177.8  80.9  34246  291.03 0854.51
2009/04/23 14:08:25.3    -137   -170    306    219    376 218.7  61.0  34244  291.01 0854.51
2009/04/23 14:08:25.4     -91     57    212    108    237 302.4  71.0  34242  290.98 0854.51
2009/04/23 14:08:25.5    -399    -79    222    407    463 258.8  31.3  34282  291.65 0854.51
2009/04/23 14:08:25.6    -519   -301    311    600    675 239.9  29.5  34284  291.69 0854.51
2009/04/23 14:08:25.7    -331   -278    456    433    628 230.0  51.8  34302  291.97 0854.51
2009/04/23 14:08:25.8    -355   -304    145    468    491 229.4  17.3  34272  291.47 0854.51
2009/04/23 14:08:25.9    -396   -324    179    512    542 230.7  20.0  34244  290.99 0854.51
2009/04/23 14:08:26.0    -491   -289    197    571    605 239.5  19.1  34250  291.10 0854.51
2009/04/23 14:08:26.1    -496   -248     87    555    562 243.4   9.0  34236  290.86 0854.51
2009/04/23 14:08:26.2    -494   -184     32    528    529 249.6   3.5  34248  291.08 0854.51
2009/04/23 14:08:26.3    -388   -188    117    432    448 244.1  15.2  34252  291.14 0854.51
2009/04/23 14:08:26.4    -562    -89     54    570    573 261.0   5.5  34246  291.04 0854.51
2009/04/23 14:08:26.5    -502    -90    -53    511    514 259.8  -6.0  34244  291.00 0854.54
2009/04/23 14:08:26.6    -198   -271    199    336    390 216.2  33.5  34252  291.15 0854.54
2009/04/23 14:08:26.7    -195   -400    296    446    535 206.0  36.6  34266  291.36 0854.54
2009/04/23 14:08:26.8     -52   -370     60    374    379 188.1   9.2  34204  290.32 0854.54
2009/04/23 14:08:26.9    -121   -388    132    407    429 197.4  18.0  34206  290.36 0854.54
2009/04/23 14:08:27.0    -192   -473    317    511    601 202.1  34.9  34212  290.46 0854.54
2009/04/23 14:08:27.1     -66   -374    359    380    522 190.0  48.2  34212  290.47 0854.54
2009/04/23 14:08:27.2     -71   -152    251    169    302 205.2  62.8  34226  290.68 0854.54
2009/04/23 14:08:27.3    -113   -342    180    361    403 198.3  28.4  34214  290.49 0854.54
2009/04/23 14:08:27.4       1   -453    222    454    505 179.8  27.9  34212  290.44 0854.54
2009/04/23 14:08:27.5     208   -324    196    386    432 147.3  29.2  34218  290.56 0854.54
2009/04/23 14:08:27.6      86   -330     62    342    348 165.3  10.3  34214  290.50 0854.54
2009/04/23 14:08:27.7     -89   -275    123    290    315 197.9  24.3  34216  290.53 0854.54
2009/04/23 14:08:27.8     -16   -323     42    324    327 182.9   7.5  34214  290.48 0854.54
2009/04/23 14:08:27.9     -81   -301    106    312    330 195.2  18.8  34208  290.39 0854.54
2009/04/23 14:08:28.0     -85   -530    238    537    587 189.1  25.3  34206  290.34 0854.54
2009/04/23 14:08:28.1    -256   -489    129    553    568 207.7  13.2  34210  290.43 0854.54
2009/04/23 14:08:28.2     -98   -475    149    486    509 191.7  17.0  34208  290.39 0854.54
2009/04/23 14:08:28.3    -115   -429    103    445    457 195.1  13.1  34222  290.63 0854.54
2009/04/23 14:08:28.4    -207   -541    193    580    612 201.0  18.5  34214  290.49 0854.54
2009/04/23 14:08:28.5    -181   -315     19    364    365 209.9   3.1  34232  290.81 0854.52
2009/04/23 14:08:28.6    -215   -243     -1    325    326 221.4  -0.2  34230  290.76 0854.52
2009/04/23 14:08:28.7      50   -167   -132    175    219 163.1 -45.1  34236  290.86 0854.52
2009/04/23 14:08:28.8     241   -109     64    265    273 114.4  13.7  34236  290.87 0854.52
2009/04/23 14:08:28.9     188   -134    170    231    286 125.5  39.9  34222  290.63 0854.52
2009/04/23 14:08:29.0     -32   -136    207    140    249 193.4  62.8  34228  290.74 0854.52
2009/04/23 14:08:29.1      -4   -108    176    109    207 182.2  65.1  34228  290.72 0854.52
2009/04/23 14:08:29.2      25    -86     59     90    107 163.5  35.6  34232  290.79 0854.52
2009/04/23 14:08:29.4      42     13     19     45     48  72.3  23.0  34228  290.74 0854.52
2009/04/23 14:08:29.4    -183      9    -72    184    197 273.0 -26.9  34238  290.89 0854.52
2009/04/23 14:08:29.5    -200     94    -29    222    224 295.2  -7.5  34240  290.92 0854.52
2009/04/23 14:08:29.6    -174     62    -48    185    192 289.7 -14.5  34246  291.04 0854.52
2009/04/23 14:08:29.7     -33     60     98     69    119 331.0  61.5  34238  290.89 0854.52
2009/04/23 14:08:29.8       5    106    107    107    151   2.7  50.1  34238  290.91 0854.52
2009/04/23 14:08:29.9     -33    134    107    139    175 346.2  41.7  34238  290.89 0854.52
2009/04/23 14:08:30.0     -79    149     60    169    180 331.9  19.6  34232  290.79 0854.52
2009/04/23 14:08:30.1     -81    116      5    142    143 324.8   2.3  34228  290.74 0854.52
2009/04/23 14:08:30.2    -121    177     18    215    216 325.7   4.9  34232  290.79 0854.52
2009/04/23 14:08:30.3    -104    229     58    252    259 335.5  13.1  34236  290.85 0854.52
2009/04/23 14:08:30.4    -189    221    119    291    314 319.5  23.6  34234  290.82 0854.52
2009/04/23 14:08:30.5    -106    106     87    150    173 315.0  32.9  34240  290.92 0854.53
2009/04/23 14:08:30.6    -117     55    160    130    206 295.4  56.4  34236  290.87 0854.53
2009/04/23 14:08:30.7    -174     40     88    179    199 283.0  28.0  34234  290.82 0854.53
2009/04/23 14:08:30.8    -158    -58    -13    169    170 249.6  -4.6  34236  290.86 0854.53
2009/04/23 14:08:30.9    -167    -60    -31    178    181 250.0 -10.1  34224  290.65 0854.53
2009/04/23 14:08:31.0    -161    -30    -80    164    182 259.4 -32.2  34248  291.08 0854.53
2009/04/23 14:08:31.1    -100    -23    -39    103    110 256.7 -25.9  34250  291.11 0854.53
2009/04/23 14:08:31.2     -43      0    -15     44     47 270.8 -18.7  34246  291.04 0854.53
2009/04/23 14:08:31.3     -67    -15     87     69    111 256.7  56.9  34238  290.91 0854.53
2009/04/23 14:08:31.4    -235    -16    107    236    259 266.1  26.2  34246  291.02 0854.53
2009/04/23 14:08:31.5    -425    -75     84    432    441 260.0  11.0  34260  291.26 0854.53
2009/04/23 14:08:31.6    -318   -318     46    451    454 225.0   5.9  34220  290.60 0854.53
2009/04/23 14:08:31.7    -227   -357     -9    424    425 212.5  -1.3  34220  290.58 0854.53
2009/04/23 14:08:31.8    -279   -285    -15    399    400 224.4  -2.3  34222  290.64 0854.53
2009/04/23 14:08:31.9    -359   -243     45    434    437 235.9   6.0  34250  291.09 0854.53
2009/04/23 14:08:32.1    -371    -49      4    375    376 262.4   0.7  34274  291.51 0854.53
2009/04/23 14:08:32.1    -377      0     21    378    379 270.0   3.2  34260  291.27 0854.53
2009/04/23 14:08:32.3    -255    -77     -1    267    268 253.1  -0.3  34260  291.27 0854.53
2009/04/23 14:08:32.3    -337    -69    -32    345    347 258.4  -5.3  34262  291.30 0854.53
2009/04/23 14:08:32.4    -270    -72    -40    280    283 255.0  -8.2  34260  291.26 0854.53
2009/04/23 14:08:32.6    -244    -91    -48    261    266 249.4 -10.5  34244  290.99 0854.58
2009/04/23 14:08:32.7    -311    -81    -62    322    329 255.4 -11.0  34246  291.04 0854.58
2009/04/23 14:08:32.8    -186   -287      5    343    344 213.0   0.9  34248  291.08 0854.58
2009/04/23 14:08:32.9    -214   -252     13    331    332 220.3   2.4  34238  290.88 0854.58
2009/04/23 14:08:33.0    -224   -317     60    389    394 215.3   8.8  34252  291.15 0854.58
2009/04/23 14:08:33.1    -273   -343     61    439    444 218.6   7.9  34228  290.73 0854.58
2009/04/23 14:08:33.2    -229   -531     90    579    587 203.3   8.9  34264  291.34 0854.58
2009/04/23 14:08:33.3    -236   -439    302    499    583 208.3  34.1  34226  290.70 0854.58
2009/04/23 14:08:33.4    -241   -480    257    538    596 206.7  27.3  34208  290.37 0854.58
2009/04/23 14:08:33.5    -319   -467    -31    566    567 214.4  -3.1  34200  290.26 0854.58
2009/04/23 14:08:33.6    -289   -456     11    541    542 212.4   1.2  34174  289.80 0854.58
2009/04/23 14:08:33.7    -324   -344    148    473    496 223.3  17.4  34200  290.25 0854.58
2009/04/23 14:08:33.8    -375   -332     91    501    510 228.5  10.4  34198  290.23 0854.58
2009/04/23 14:08:33.9    -473   -338    110    582    593 234.4  10.7  34212  290.46 0854.58
2009/04/23 14:08:34.0    -400   -375    -13    549    550 226.8  -1.4  34242  290.96 0854.58
2009/04/23 14:08:34.1    -451   -373     12    586    587 230.4   1.2  34228  290.71 0854.58
2009/04/23 14:08:34.2    -480   -266    147    550    570 241.0  15.0  34248  291.06 0854.58
2009/04/23 14:08:34.3    -413   -209     -1    464    465 243.1  -0.2  34254  291.16 0854.58
2009/04/23 14:08:34.4    -330    -63    -38    337    340 259.1  -6.6  34246  291.03 0854.58
2009/04/23 14:08:34.5    -277   -110    -57    299    305 248.3 -10.9  34254  291.16 0854.58
2009/04/23 14:08:34.6     -96   -252   -116    270    293 200.9 -29.5  34240  290.92 0854.61
2009/04/23 14:08:34.7    -229   -253     -7    342    343 222.2  -1.3  34244  291.01 0854.61
2009/04/23 14:08:34.8    -104   -204    -22    230    232 207.0  -5.6  34232  290.79 0854.61
2009/04/23 14:08:34.9     -82    -86   -101    120    156 223.7 -48.9  34240  290.92 0854.61
2009/04/23 14:08:35.0    -118    -47   -131    128    183 248.3 -55.1  34246  291.04 0854.61
2009/04/23 14:08:35.1    -143    -91   -181    170    248 237.6 -56.5  34222  290.62 0854.61
2009/04/23 14:08:35.2    -183   -252   -247    312    397 216.1 -46.8  34168  289.72 0854.61
2009/04/23 14:08:35.3     -92   -244   -222    261    342 200.7 -48.9  34190  290.07 0854.61
2009/04/23 14:08:35.4     -28   -483   -197    484    522 183.4 -27.8  34178  289.86 0854.61
2009/04/23 14:08:35.5     176   -557   -219    585    624 162.5 -26.0  34188  290.03 0854.61
2009/04/23 14:08:35.6     115   -242   -236    269    357 154.5 -50.2  34192  290.11 0854.61
2009/04/23 14:08:35.7    -188   -268    -99    328    342 215.1 -21.7  34196  290.18 0854.61
2009/04/23 14:08:35.8    -522   -171     -8    550    551 251.8  -0.9  34206  290.35 0854.61
2009/04/23 14:08:35.9    -488     71    -99    494    504 278.4 -11.3  34208  290.40 0854.61
2009/04/23 14:08:36.0    -314   -116   -211    335    395 249.7 -39.6  34210  290.43 0854.61
2009/04/23 14:08:36.1    -204    -96    -26    226    228 244.8  -6.7  34214  290.48 0854.61
2009/04/23 14:08:36.2    -254   -167    111    305    324 236.7  20.8  34224  290.65 0854.61
2009/04/23 14:08:36.3    -110   -299    -48    319    323 200.3  -8.6  34208  290.39 0854.61
2009/04/23 14:08:36.4      66   -270    125    279    305 166.2  25.9  34208  290.37 0854.61
2009/04/23 14:08:36.5      40   -340    105    343    359 173.2  17.1  34194  290.15 0854.61
2009/04/23 14:08:36.6      93   -340    122    353    374 164.7  19.2  34192  290.10 0854.61
2009/04/23 14:08:36.7     223   -344    192    411    453 147.0  27.0  34168  289.72 0854.61
2009/04/23 14:08:36.8     172   -309    287    354    455 150.8  43.3  34174  289.82 0854.61
2009/04/23 14:08:36.9      82   -242    237    256    348 161.1  47.8  34192  290.12 0854.61
2009/04/23 14:08:37.0     -30   -346    370    348    507 185.0  52.1  34204  290.31 0854.61
2009/04/23 14:08:37.1      -9   -410    383    411    561 181.4  47.9  34200  290.25 0854.61
2009/04/23 14:08:37.2    -112   -554    291    566    636 191.5  29.4  34206  290.34 0854.61
2009/04/23 14:08:37.3    -248   -546     45    600    602 204.5   4.3  34198  290.20 0854.61
2009/04/23 14:08:37.4    -265   -661    244    713    754 201.9  18.9  34198  290.23 0854.61
2009/04/23 14:08:37.5    -132   -784    280    796    844 189.6  19.4  34204  290.33 0854.61
2009/04/23 14:08:37.6    -349   -829    137    900    911 202.8   8.7  34202  290.28 0854.61
2009/04/23 14:08:37.7    -151   -838    273    852    895 190.2  17.8  34198  290.20 0854.61
2009/04/23 14:08:37.8    -194   -863    358    885    954 192.7  23.2  34192  290.10 0854.61
2009/04/23 14:08:37.9    -215   -803    293    832    882 195.0  20.1  34168  289.70 0854.61
2009/04/23 14:08:38.0    -318   -848    397    907    990 200.6  25.2  34188  290.04 0854.61
2009/04/23 14:08:38.1    -149   -500    464    522    698 196.7  46.2  34188  290.04 0854.61
2009/04/23 14:08:38.2    -179   -517    493    548    737 199.1  46.5  34186  290.02 0854.61
2009/04/23 14:08:38.3      51   -250    378    256    456 168.4  62.7  34192  290.10 0854.61
2009/04/23 14:08:38.4     169   -524    226    551    595 162.1  23.6  34182  289.93 0854.61
2009/04/23 14:08:38.5      46   -377    203    380    430 172.9  30.3  34188  290.05 0854.61
2009/04/23 14:08:38.6      73   -177    147    192    241 157.5  41.2  34194  290.16 0854.55
2009/04/23 14:08:38.7      54   -173    106    182    210 162.4  33.1  34192  290.11 0854.55
2009/04/23 14:08:38.8     -19   -225    177    226    287 184.9  42.0  34196  290.17 0854.55
2009/04/23 14:08:38.9     -39   -167     43    172    178 193.4  14.3  34190  290.09 0854.55
2009/04/23 14:08:39.0    -214   -255     10    334    335 220.0   1.8  34184  289.99 0854.55
2009/04/23 14:08:39.1       3   -240    250    241    347 179.1  51.2  34192  290.12 0854.55
2009/04/23 14:08:39.2      61   -228     89    237    253 164.9  21.3  34194  290.15 0854.55
2009/04/23 14:08:39.3      12   -275     42    276    280 177.3   8.8  34200  290.24 0854.55
2009/04/23 14:08:39.4     -75     68    -70    102    123 312.2 -42.0  34208  290.40 0854.55
2009/04/23 14:08:39.5      93    129    -43    160    166  35.8 -15.2  34208  290.40 0854.55
2009/04/23 14:08:39.6     167    186   -118    250    276  41.9 -31.5  34202  290.29 0854.55
2009/04/23 14:08:39.7     151     11   -148    152    212  85.7 -54.2  34204  290.31 0854.55
2009/04/23 14:08:39.8     117     51    -81    128    151  66.5 -39.9  34206  290.35 0854.55
2009/04/23 14:08:39.9      73   -133     -8    152    153 151.1  -3.2  34210  290.41 0854.55
2009/04/23 14:08:40.0      -5    -65    161     66    174 184.5  76.8  34214  290.50 0854.55
2009/04/23 14:08:40.1     -40   -154     77    160    177 194.7  27.3  34214  290.50 0854.55
2009/04/23 14:08:40.2    -144   -493    -84    514    521 196.3  -9.3  34202  290.30 0854.55
2009/04/23 14:08:40.3    -226   -472    -20    524    525 205.7  -2.3  34200  290.26 0854.55
2009/04/23 14:08:40.4    -292   -496     -2    576    577 210.5  -0.3  34200  290.24 0854.55
2009/04/23 14:08:40.5    -222   -214     82    309    320 226.0  15.0  34204  290.31 0854.55
2009/04/23 14:08:40.6     -53    -97    116    111    160 209.0  51.4  34214  290.48 0854.49
2009/04/23 14:08:40.7     -10    -54    199     55    206 190.7  84.6  34212  290.45 0854.49
2009/04/23 14:08:40.8      27     22    168     36    171  50.5  88.5  34216  290.53 0854.49
2009/04/23 14:08:40.9     -18    -69    223     72    234 195.1  81.7  34214  290.50 0854.49
2009/04/23 14:08:41.0     -90     65    205    112    233 305.9  68.9  34218  290.57 0854.49
2009/04/23 14:08:41.1    -389    129     85    410    419 288.4  11.8  34208  290.39 0854.49
2009/04/23 14:08:41.2    -428     53     87    432    441 277.1  11.4  34208  290.39 0854.49
2009/04/23 14:08:41.3    -469    148     83    493    501 287.6   9.6  34198  290.23 0854.49
2009/04/23 14:08:41.4    -330    498      9    598    599 326.4   0.9  34198  290.20 0854.49
2009/04/23 14:08:41.5    -338    434     41    551    553 322.1   4.3  34196  290.18 0854.49
2009/04/23 14:08:41.6    -109    239    142    263    298 335.5  30.8  34204  290.32 0854.37
2009/04/23 14:08:41.7     -60      2    223     61    231 272.6  84.8  34220  290.60 0854.37
2009/04/23 14:08:41.8    -211    -87    178    229    290 247.4  41.7  34214  290.49 0854.37
2009/04/23 14:08:41.9    -121   -287     84    312    324 202.9  15.1  34214  290.49 0854.37
2009/04/23 14:08:42.0      -8   -259    113    260    283 181.8  25.1  34220  290.59 0854.37
2009/04/23 14:08:42.1      23   -169     84    171    190 172.2  27.8  34218  290.57 0854.37
2009/04/23 14:08:42.2      36   -275     29    278    280 172.4   6.0  34226  290.68 0854.37
2009/04/23 14:08:42.3     -54   -309    -20    314    315 190.0  -3.8  34216  290.51 0854.37
2009/04/23 14:08:42.4    -154   -144     50    211    218 226.9  13.5  34224  290.67 0854.37
2009/04/23 14:08:42.5    -310   -194    -52    366    370 237.9  -8.2  34208  290.40 0854.37
2009/04/23 14:08:42.6     -95   -247     67    265    274 201.2  14.2  34212  290.46 0854.37
2009/04/23 14:08:42.7      43   -240    124    244    273 169.8  29.2  34212  290.46 0854.37
2009/04/23 14:08:42.8    -192   -183    224    266    347 226.4  44.3  34246  291.02 0854.37
2009/04/23 14:08:42.9    -164   -305    302    347    460 208.3  45.6  34226  290.70 0854.37
2009/04/23 14:08:43.0    -283   -353    182    453    488 218.8  23.0  34248  291.08 0854.37
2009/04/23 14:08:43.1    -206   -272    173    342    383 217.2  28.9  34218  290.55 0854.37
2009/04/23 14:08:43.2    -374   -341     90    507    516 227.7  10.1  34214  290.49 0854.37
2009/04/23 14:08:43.3    -500   -425    -29    657    658 229.6  -2.6  34244  290.99 0854.37
2009/04/23 14:08:43.4    -423   -234   -144    484    504 241.0 -21.5  34228  290.73 0854.37
2009/04/23 14:08:43.5    -213    364   -326    422    533 329.6 -46.0  34212  290.47 0854.37
2009/04/23 14:08:43.6    -249    522   -297    579    650 334.5 -33.8  34222  290.64 0854.39
2009/04/23 14:08:43.7     -37    530   -294    532    607 356.0 -35.8  34226  290.68 0854.39
2009/04/23 14:08:43.8    -214    467   -235    514    565 335.4 -30.6  34218  290.57 0854.39
2009/04/23 14:08:43.9    -259    195   -279    325    428 307.0 -49.4  34210  290.42 0854.39
2009/04/23 14:08:44.0    -204    -96   -319    226    390 244.6 -65.8  34212  290.47 0854.39
2009/04/23 14:08:44.1    -123   -123   -349    175    390 225.0 -75.8  34220  290.60 0854.39
2009/04/23 14:08:44.2      44   -255   -135    259    292 170.2 -34.2  34208  290.39 0854.39
2009/04/23 14:08:44.3    -120   -402    -39    420    422 196.6  -5.4  34216  290.51 0854.39
2009/04/23 14:08:44.4    -178   -365    108    407    422 206.0  14.9  34216  290.53 0854.39
2009/04/23 14:08:44.5    -364   -491    143    612    629 216.6  13.2  34220  290.59 0854.39
2009/04/23 14:08:44.6    -452   -499    239    674    716 222.2  19.6  34220  290.59 0854.39
2009/04/23 14:08:44.7    -653   -376     70    754    758 240.1   5.3  34224  290.65 0854.39
2009/04/23 14:08:44.8    -704   -325   -231    776    810 245.2 -16.6  34212  290.44 0854.39
2009/04/23 14:08:44.9    -835    -94   -225    841    871 263.5 -15.0  34210  290.41 0854.39
2009/04/23 14:08:45.0    -609   -158     31    630    631 255.4   2.9  34218  290.54 0854.39
2009/04/23 14:08:45.1    -546   -287   -113    617    628 242.3 -10.4  34218  290.54 0854.39
2009/04/23 14:08:45.2    -618   -313   -204    693    723 243.1 -16.4  34206  290.34 0854.39
2009/04/23 14:08:45.3    -558   -418   -192    698    725 233.1 -15.4  34208  290.39 0854.39
2009/04/23 14:08:45.4    -591   -354   -204    689    719 239.1 -16.5  34202  290.28 0854.39
2009/04/23 14:08:45.5    -547   -319   -184    634    661 239.8 -16.2  34204  290.33 0854.39
2009/04/23 14:08:45.6    -578   -160   -190    600    629 254.5 -22.6  34198  290.21 0854.43
2009/04/23 14:08:45.7    -379   -132   -138    402    426 250.8 -18.9  34202  290.28 0854.43
2009/04/23 14:08:45.8    -306    -92   -224    320    390 253.2 -42.9  34194  290.16 0854.43
2009/04/23 14:08:45.9    -324    -93   -158    338    373 253.9 -31.5  34208  290.37 0854.43
2009/04/23 14:08:46.0    -216   -147   -104    262    281 235.6 -27.4  34206  290.36 0854.43
2009/04/23 14:08:46.1    -332    -64    -99    339    353 259.0 -21.1  34214  290.49 0854.43
2009/04/23 14:08:46.2    -289   -307   -126    422    440 223.3 -21.7  34222  290.61 0854.43
2009/04/23 14:08:46.3    -249   -199    -90    319    331 231.4 -20.3  34226  290.68 0854.43
2009/04/23 14:08:46.4    -187   -188    -27    266    268 224.8  -6.0  34226  290.70 0854.43
2009/04/23 14:08:46.5    -266    -97     14    284    285 250.0   2.9  34220  290.59 0854.43
2009/04/23 14:08:46.6    -235   -238   -109    335    352 224.5 -23.3  34208  290.38 0854.43
2009/04/23 14:08:46.7    -293   -215   -108    364    380 233.8 -16.6  34216  290.52 0854.43
2009/04/23 14:08:46.8    -343      7    -82    344    354 271.3 -13.4  34218  290.55 0854.43
2009/04/23 14:08:46.9     -80   -118     -7    143    144 214.2  -3.1  34214  290.48 0854.43
2009/04/23 14:08:47.0     -79    -89     28    120    124 221.4  13.2  34220  290.60 0854.43
2009/04/23 14:08:47.1     -76    -46     44     89     99 238.9  28.2  34236  290.86 0854.43
2009/04/23 14:08:47.2      61    -92    -31    111    116 146.6 -15.5  34232  290.81 0854.43
2009/04/23 14:08:47.3      16    -28    -47     33     57 149.3 -65.9  34232  290.79 0854.43
2009/04/23 14:08:47.4      10     22     -7     25     25  23.6 -21.7  34228  290.74 0854.43
2009/04/23 14:08:47.5      70    -23     23     74     78 108.2  17.3  34232  290.79 0854.43
2009/04/23 14:08:47.6      55     45     -9     72     73  50.4  -7.3  34230  290.77 0854.47
2009/04/23 14:08:47.7      44     28     11     53     55  57.6  12.2  34234  290.82 0854.47
2009/04/23 14:08:47.8      22     47     97     53    110  25.4  68.9  34240  290.92 0854.47
2009/04/23 14:08:47.9     -15     -4    100     16    101 251.8  90.0  34248  291.08 0854.47
2009/04/23 14:08:48.0     -57     19    132     61    145 288.4  73.5  34250  291.09 0854.47
2009/04/23 14:08:48.1     -34     44     74     56     92 322.2  58.5  34236  290.87 0854.47
2009/04/23 14:08:48.2     -99   -182    239    208    316 208.7  54.6  34224  290.65 0854.47
2009/04/23 14:08:48.3     -63   -151    203    164    260 202.9  56.9  34232  290.78 0854.47
2009/04/23 14:08:48.4     -63   -314    172    321    364 191.5  30.5  34220  290.60 0854.47
2009/04/23 14:08:48.5      -9   -350    277    351    447 181.5  42.3  34222  290.63 0854.47
2009/04/23 14:08:48.6     -59   -460    210    464    509 187.4  26.0  34222  290.61 0854.47
2009/04/23 14:08:48.7     -38   -406    142    408    433 185.4  19.2  34228  290.72 0854.47
2009/04/23 14:08:48.8     -40   -346     89    349    361 186.7  14.4  34230  290.76 0854.47
2009/04/23 14:08:48.9       6   -384    164    385    418 179.0  24.5  34222  290.63 0854.47
2009/04/23 14:08:49.0      34   -385    218    387    444 174.9  31.9  34224  290.65 0854.47
2009/04/23 14:08:49.1      38   -482    243    484    541 175.4  28.7  34226  290.69 0854.47
2009/04/23 14:08:49.2       1   -484    239    485    540 179.8  28.2  34234  290.82 0854.47
2009/04/23 14:08:49.3      74   -446    196    453    493 170.6  24.9  34238  290.88 0854.47
2009/04/23 14:08:49.4     148   -289    237    325    402 152.8  39.8  34232  290.81 0854.47
2009/04/23 14:08:49.5     196   -398    222    444    496 153.7  28.6  34218  290.54 0854.47
2009/04/23 14:08:49.6     235   -315    206    394    444 143.3  29.8  34214  290.48 0854.50
2009/04/23 14:08:49.7     224   -404    229    463    516 151.0  28.2  34232  290.78 0854.50
2009/04/23 14:08:49.8     226   -360    224    426    481 147.9  30.0  34216  290.51 0854.50
2009/04/23 14:08:49.9     153   -373    235    404    467 157.7  33.0  34214  290.48 0854.50
2009/04/23 14:08:50.0     132   -261    236    293    376 153.0  43.0  34230  290.77 0854.50
2009/04/23 14:08:50.1     171    -92    237    195    306 118.2  56.4  34230  290.76 0854.50
2009/04/23 14:08:50.2     -18   -165    247    167    298 186.5  62.7  34220  290.58 0854.50
2009/04/23 14:08:50.3     -65   -138    259    153    300 205.3  66.8  34232  290.80 0854.50
2009/04/23 14:08:50.4     -35   -107    163    113    198 198.3  62.1  34234  290.82 0854.50
2009/04/23 14:08:50.5     -36     38    142     53    151 316.8  79.1  34242  290.98 0854.50
2009/04/23 14:08:50.6     -36   -134    224    139    263 195.2  65.1  34234  290.82 0854.50
2009/04/23 14:08:50.7    -164    -88    207    187    278 241.6  53.3  34234  290.83 0854.50
2009/04/23 14:08:50.8    -200      0    129    201    238 270.0  35.7  34238  290.89 0854.50
2009/04/23 14:08:50.9    -188    103     72    215    227 298.9  18.6  34244  290.99 0854.50
2009/04/23 14:08:51.0    -253    -73    128    264    293 253.8  27.4  34248  291.05 0854.50
2009/04/23 14:08:51.1    -233    -58     86    241    255 255.8  20.2  34250  291.10 0854.50
2009/04/23 14:08:51.2      10   -251     99    252    270 177.5  22.8  34244  290.99 0854.50
2009/04/23 14:08:51.3     200   -100    167    224    279 116.6  40.6  34252  291.14 0854.50
2009/04/23 14:08:51.4     -66     85    107    108    152 322.2  50.0  34260  291.28 0854.50
2009/04/23 14:08:51.5    -144     24     83    147    168 279.7  32.1  34264  291.33 0854.50
2009/04/23 14:08:51.6      -8   -149    208    150    256 183.1  60.6  34244  290.99 0854.50
2009/04/23 14:08:51.7     -80   -189    163    206    262 202.9  42.4  34234  290.82 0854.50
2009/04/23 14:08:51.8      41    -50     85     65    107 140.3  59.0  34244  290.99 0854.50
2009/04/23 14:08:51.9      24     44     44     51     67  29.0  45.8  34244  290.99 0854.50
2009/04/23 14:08:52.0     -98     82     75    128    148 310.0  33.4  34248  291.08 0854.50
2009/04/23 14:08:52.1    -140     37     86    145    168 285.1  33.5  34244  291.01 0854.50
2009/04/23 14:08:52.2    -288    -64     63    296    303 257.4  12.2  34286  291.72 0854.50
2009/04/23 14:08:52.3    -274   -100     54    292    298 250.0  10.6  34288  291.73 0854.50
2009/04/23 14:08:52.4    -260   -120     45    287    291 245.2   9.0  34284  291.68 0854.50
2009/04/23 14:08:52.5    -359   -228     32    426    428 237.6   4.4  34286  291.72 0854.50
2009/04/23 14:08:52.6    -335   -165     45    374    377 243.8   6.9  34290  291.78 0854.50
2009/04/23 14:08:52.7    -212   -199     79    291    302 226.8  15.2  34278  291.56 0854.50
2009/04/23 14:08:52.8    -228    -91    134    246    280 248.2  31.0  34280  291.60 0854.50
2009/04/23 14:08:52.9    -216    -93     36    236    239 246.7   8.8  34282  291.65 0854.50
2009/04/23 14:08:53.0    -285   -108     75    305    315 249.2  13.9  34278  291.56 0854.50
2009/04/23 14:08:53.1    -297    -60    -24    303    305 258.6  -4.6  34292  291.82 0854.50
2009/04/23 14:08:53.2    -278     94    -76    294    304 288.8 -14.5  34268  291.41 0854.50
2009/04/23 14:08:53.3    -233    109    116    258    282 295.1  26.2  34276  291.55 0854.50
2009/04/23 14:08:53.4    -255    140    126    292    318 298.8  24.8  34282  291.63 0854.50
2009/04/23 14:08:53.5     -72     75    194    105    220 316.3  69.1  34288  291.76 0854.50
2009/04/23 14:08:53.6     -63   -152    184    165    247 202.5  53.5  34268  291.40 0854.41
2009/04/23 14:08:53.7      -4   -205    226    206    305 181.4  53.0  34252  291.14 0854.41
2009/04/23 14:08:53.8     -33   -178    221    182    286 190.5  56.4  34246  291.02 0854.41
2009/04/23 14:08:53.9      87    -66    186    110    216 127.3  66.8  34260  291.26 0854.41
2009/04/23 14:08:54.0      55   -116    245    129    276 154.6  70.0  34262  291.29 0854.41
2009/04/23 14:08:54.1     148   -237    329    280    432 148.1  55.4  34238  290.89 0854.41
2009/04/23 14:08:54.2    -429   -245    319    495    588 240.3  35.9  34240  290.94 0854.41
2009/04/23 14:08:54.3    -215   -282    -17    355    356 217.3  -2.8  34218  290.57 0854.41
2009/04/23 14:08:54.4    -219   -385    -77    444    451 209.6  -9.9  34222  290.63 0854.41
2009/04/23 14:08:54.5     -82   -366    -60    376    381 192.6  -9.1  34248  291.05 0854.41
2009/04/23 14:08:54.6     100   -205   -128    229    262 153.9 -36.0  34248  291.05 0854.41
2009/04/23 14:08:54.7     -83   -142   -159    165    229 210.3 -53.6  34208  290.38 0854.41
2009/04/23 14:08:54.8    -219   -226     71    315    324 224.1  12.8  34212  290.46 0854.41
2009/04/23 14:08:54.9    -138   -237    243    275    366 210.3  46.1  34204  290.33 0854.41
2009/04/23 14:08:55.0     -30   -431    283    433    517 184.0  36.3  34192  290.12 0854.41
2009/04/23 14:08:55.1    -187   -407    137    448    469 204.7  17.1  34194  290.14 0854.41
2009/04/23 14:08:55.2    -274   -205     39    343    346 233.1   6.5  34190  290.08 0854.41
2009/04/23 14:08:55.3    -442   -401    -12    597    598 227.8  -1.2  34194  290.14 0854.41
2009/04/23 14:08:55.4    -332   -258   -148    421    447 232.2 -19.4  34184  289.97 0854.41
2009/04/23 14:08:55.5    -391   -132   -169    413    446 251.3 -27.9  34198  290.21 0854.41
2009/04/23 14:08:55.6    -264    -49    156    269    310 259.4  32.9  34196  290.17 0854.47
2009/04/23 14:08:55.7     -91   -394    253    405    477 193.0  35.0  34194  290.16 0854.47
2009/04/23 14:08:55.8    -100   -278    305    296    425 200.0  51.1  34174  289.81 0854.47
2009/04/23 14:08:55.9    -120   -316    219    339    403 200.8  35.9  34192  290.11 0854.47
2009/04/23 14:08:56.0     -61   -318    179    324    370 190.9  31.4  34202  290.28 0854.47
2009/04/23 14:08:56.1     198   -303    293    363    466 146.8  43.3  34190  290.07 0854.47
2009/04/23 14:08:56.2     303   -245    224    390    449 129.0  32.4  34188  290.04 0854.47
2009/04/23 14:08:56.3     332   -479     38    584    586 145.3   3.8  34190  290.07 0854.47
2009/04/23 14:08:56.4     190   -553    110    585    596 161.0  10.7  34146  289.32 0854.47
2009/04/23 14:08:56.5     107   -597    256    607    658 169.8  24.3  34166  289.69 0854.47
2009/04/23 14:08:56.6     188   -566    175    597    623 161.6  16.4  34170  289.73 0854.47
2009/04/23 14:08:56.7      16   -683    172    684    706 178.6  14.2  34168  289.71 0854.47
2009/04/23 14:08:56.8     -47   -604     46    607    609 184.5   4.3  34162  289.59 0854.47
2009/04/23 14:08:56.9     -93   -459    -42    469    471 191.6  -5.2  34158  289.54 0854.47
2009/04/23 14:08:57.0    -156   -414   -229    443    498 200.7 -33.9  34158  289.54 0854.47
2009/04/23 14:08:57.1      12   -183    162    184    245 176.0  45.8  34148  289.36 0854.47
2009/04/23 14:08:57.2      71   -456    313    462    558 171.1  37.4  34178  289.87 0854.47
2009/04/23 14:08:57.3    -132   -770    283    782    832 189.8  19.9  34184  289.97 0854.47
2009/04/23 14:08:57.4    -141   -759    268    772    818 190.6  19.2  34184  289.98 0854.47
2009/04/23 14:08:57.5       9   -690    180    691    714 179.2  14.6  34182  289.96 0854.47
2009/04/23 14:08:57.6     -33   -489     69    491    496 183.9   8.0  34162  289.59 0854.51
2009/04/23 14:08:57.7    -170   -680     98    701    709 194.1   8.0  34182  289.96 0854.51
2009/04/23 14:08:57.8    -547   -723    -19    907    908 217.1  -1.3  34166  289.68 0854.51
2009/04/23 14:08:57.9    -612   -485   -296    781    835 231.6 -26.2  34170  289.75 0854.51
2009/04/23 14:08:58.0    -495   -428   -276    655    710 229.1 -28.6  34178  289.87 0854.51
2009/04/23 14:08:58.1    -368   -377   -123    527    542 224.3 -13.1  34158  289.53 0854.51
2009/04/23 14:08:58.2    -337   -388    317    515    604 221.0  34.5  34172  289.76 0854.51
2009/04/23 14:08:58.3    -294    -20    141    295    326 266.1  27.3  34184  289.97 0854.51
2009/04/23 14:08:58.4    -343     18     62    344    350 273.0  10.3  34192  290.13 0854.51
2009/04/23 14:08:58.6    -373   -477    342    606    695 218.0  31.9  34174  289.82 0854.51
2009/04/23 14:08:58.6    -592   -335    -20    681    682 240.5  -1.7  34182  289.93 0854.51
2009/04/23 14:08:58.7    -388   -364    234    533    582 226.8  25.2  34170  289.75 0854.51
2009/04/23 14:08:58.8      17   -575    192    576    608 178.2  18.5  34180  289.90 0854.51
2009/04/23 14:08:59.0     -62   -674   -131    678    691 185.3 -11.0  34174  289.82 0854.51
2009/04/23 14:08:59.1     -52   -621    -96    624    632 184.9  -8.8  34166  289.69 0854.51
2009/04/23 14:08:59.2     -14   -565     48    566    569 181.5   4.9  34172  289.79 0854.51
2009/04/23 14:08:59.3     -81   -495     -2    502    503 189.4  -0.3  34168  289.71 0854.51
2009/04/23 14:08:59.4    -114   -612     59    623    626 190.6   5.4  34166  289.69 0854.51
2009/04/23 14:08:59.5    -145   -556    -83    575    582 194.7  -8.3  34166  289.66 0854.51
2009/04/23 14:08:59.6    -352   -485   -149    600    619 216.0 -14.0  34172  289.78 0854.51
2009/04/23 14:08:59.7    -356   -551    -48    657    659 212.9  -4.2  34176  289.83 0854.39
2009/04/23 14:08:59.8    -173   -487   -108    517    529 199.6 -11.8  34174  289.80 0854.39
2009/04/23 14:08:59.9    -479   -433   -137    646    661 227.9 -12.0  34174  289.82 0854.39
2009/04/23 14:09:00.0    -351   -375   -182    514    546 223.1 -19.6  34176  289.85 0854.39
2009/04/23 14:09:00.1    -347   -358    -67    499    504 224.1  -7.7  34176  289.84 0854.39
2009/04/23 14:09:00.2    -338   -496   -120    601    613 214.3 -11.3  34174  289.80 0854.39
2009/04/23 14:09:00.3    -234   -470   -160    526    551 206.5 -17.0  34164  289.63 0854.39
2009/04/23 14:09:00.4     -98   -466   -233    477    530 191.9 -32.3  34166  289.66 0854.39
2009/04/23 14:09:00.5    -229   -516    -15    565    566 204.0  -1.6  34182  289.96 0854.39
2009/04/23 14:09:00.6    -203   -580    -19    615    616 199.3  -1.8  34188  290.03 0854.39
2009/04/23 14:09:00.7     -93   -474    -10    484    485 191.1  -1.3  34180  289.91 0854.39
2009/04/23 14:09:00.8    -328   -512     46    609    611 212.6   4.3  34178  289.88 0854.39
2009/04/23 14:09:00.9    -136   -743    272    756    803 190.4  20.7  34202  290.27 0854.39
2009/04/23 14:09:01.0    -331   -592     60    679    682 209.2   5.1  34160  289.58 0854.39
2009/04/23 14:09:01.1    -369   -723    -55    812    814 207.1  -3.9  34164  289.64 0854.39
2009/04/23 14:09:01.2    -387   -702   -103    802    809 208.9  -7.4  34168  289.70 0854.39
2009/04/23 14:09:01.3    -327   -574    -83    661    667 209.7  -7.2  34168  289.70 0854.39
2009/04/23 14:09:01.4    -367   -495   -222    617    656 216.6 -19.8  34164  289.65 0854.39
2009/04/23 14:09:01.5    -399   -290   -163    494    520 234.0 -23.6  34160  289.56 0854.39
2009/04/23 14:09:01.6    -382   -319   -140    498    518 230.1 -15.8  34166  289.66 0854.39
2009/04/23 14:09:01.7    -347   -286   -130    450    469 230.5 -16.2  34164  289.63 0854.39
2009/04/23 14:09:01.8    -355   -459   -196    581    614 217.8 -18.7  34156  289.49 0854.39
2009/04/23 14:09:01.9    -469   -356   -397    590    711 232.8 -41.6  34158  289.53 0854.39
2009/04/23 14:09:02.0    -436   -213   -212    486    530 243.9 -29.5  34178  289.89 0854.39
2009/04/23 14:09:02.1    -413   -120   -136    431    452 253.7 -17.5  34176  289.83 0854.39
2009/04/23 14:09:02.2    -134   -325    -79    352    361 202.5 -12.7  34190  290.08 0854.39
2009/04/23 14:09:02.3    -100   -334    -33    349    351 196.7  -5.5  34180  289.91 0854.39
2009/04/23 14:09:02.4     -44   -264     63    268    276 189.6  13.2  34186  290.00 0854.39
2009/04/23 14:09:02.5    -121   -228     31    259    261 208.0   6.9  34186  290.02 0854.39
2009/04/23 14:09:02.6    -132   -121    -56    180    188 227.6 -22.5  34182  289.96 0854.39
2009/04/23 14:09:02.7    -256    -19    -51    257    263 265.7 -11.3  34182  289.93 0854.39
2009/04/23 14:09:02.8    -399    -30    103    401    415 265.7  14.4  34182  289.94 0854.39
2009/04/23 14:09:02.9    -201   -235    274    310    413 220.5  46.1  34180  289.91 0854.39
2009/04/23 14:09:03.0    -215   -448    183    498    530 205.7  21.0  34180  289.92 0854.39
2009/04/23 14:09:03.1    -112   -379    147    396    422 196.5  21.4  34184  289.99 0854.39
2009/04/23 14:09:03.2     -27   -394     64    395    401 184.0   9.2  34182  289.94 0854.39
2009/04/23 14:09:03.3     -64   -288    131    296    323 192.7  25.6  34184  289.97 0854.39
2009/04/23 14:09:03.4      18   -187    172    188    254 174.4  47.1  34190  290.07 0854.39
2009/04/23 14:09:03.5       7   -324    181    325    372 178.6  31.4  34180  289.91 0854.39
2009/04/23 14:09:03.6     154   -398    212    427    476 158.8  28.4  34178  289.88 0854.39
2009/04/23 14:09:03.7     137   -697    -66    711    715 168.9  -5.4  34180  289.91 0854.37
2009/04/23 14:09:03.8     125   -593   -111    607    617 168.1 -10.4  34176  289.85 0854.37
2009/04/23 14:09:03.9    -189   -612     -4    641    642 197.2  -0.4  34188  290.04 0854.37
2009/04/23 14:09:04.0    -298   -648     86    714    720 204.7   6.9  34206  290.35 0854.37
2009/04/23 14:09:04.1    -136   -744    107    757    765 190.4   8.1  34184  289.97 0854.37
2009/04/23 14:09:04.2      17   -599    338    600    688 178.3  31.9  34182  289.95 0854.37
2009/04/23 14:09:04.3     211   -640    498    674    838 161.7  40.1  34202  290.27 0854.37
2009/04/23 14:09:04.4     259   -265    336    371    500 135.7  46.9  34214  290.48 0854.37
2009/04/23 14:09:04.5     497   -188    305    532    613 110.8  32.4  34198  290.20 0854.37
2009/04/23 14:09:04.6     408   -404     -5    575    576 134.7  -0.6  34180  289.90 0854.37
2009/04/23 14:09:04.7     491   -260     58    556    560 117.9   6.0  34176  289.84 0854.36
2009/04/23 14:09:04.8     339   -471    160    581    603 144.3  15.4  34178  289.88 0854.36
2009/04/23 14:09:04.9     224   -536    360    582    684 157.3  34.8  34190  290.08 0854.36
2009/04/23 14:09:05.0     217   -566    309    607    681 159.0  29.2  34180  289.92 0854.36
2009/04/23 14:09:05.1      67   -475    298    480    564 171.9  34.9  34184  289.99 0854.36
2009/04/23 14:09:05.2     106   -414    224    428    483 165.6  29.9  34184  289.98 0854.36
2009/04/23 14:09:05.3      84   -192    278    210    348 156.4  59.2  34192  290.10 0854.36
2009/04/23 14:09:05.4    -182   -416    240    455    514 203.6  30.1  34196  290.18 0854.36
2009/04/23 14:09:05.5    -352   -432     69    558    563 219.2   7.1  34204  290.33 0854.36
2009/04/23 14:09:05.6     -69   -462    300    468    555 188.5  35.6  34188  290.06 0854.36
2009/04/23 14:09:05.7    -115   -339    104    359    374 198.8  16.3  34196  290.18 0854.36
2009/04/23 14:09:05.8    -322   -505    305    600    673 212.5  29.1  34194  290.16 0854.36
2009/04/23 14:09:05.9     -73   -115    236    137    272 212.5  67.2  34206  290.36 0854.36
2009/04/23 14:09:06.0      12    -59    340     61    345 168.4  90.0  34190  290.07 0854.36
2009/04/23 14:09:06.1     160     27    259    163    306  80.1  64.7  34208  290.37 0854.36
2009/04/23 14:09:06.2     296      8    296    297    419  88.3  50.0  34194  290.16 0854.36
2009/04/23 14:09:06.3     264      3    339    265    430  89.2  58.3  34212  290.45 0854.36
2009/04/23 14:09:06.4     304    -86    297    317    434 105.9  48.0  34212  290.45 0854.36
2009/04/23 14:09:06.5     230    -91    257    248    357 111.7  51.2  34210  290.42 0854.36
2009/04/23 14:09:06.6     288   -109    197    309    366 110.8  35.6  34212  290.47 0854.36
2009/04/23 14:09:06.7     313    -68    107    321    339 102.3  18.6  34210  290.43 0854.43
2009/04/23 14:09:06.8     380     95    146    392    418  75.8  21.4  34214  290.50 0854.43
2009/04/23 14:09:06.9     364     97    104    377    392  75.0  15.4  34220  290.60 0854.43
2009/04/23 14:09:07.0     304    189    207    359    414  58.1  32.6  34248  291.05 0854.43
2009/04/23 14:09:07.1     367    172    197    406    451  64.8  27.8  34246  291.04 0854.43
2009/04/23 14:09:07.2     203     89    244    222    329  66.3  53.2  34232  290.78 0854.43
2009/04/23 14:09:07.3     -34     62    187     72    200 331.0  78.4  34246  291.04 0854.43
2009/04/23 14:09:07.4    -116     74    208    138    249 302.5  63.6  34236  290.86 0854.43
2009/04/23 14:09:07.5     -19     58    125     62    139 341.7  71.9  34230  290.77 0854.43
2009/04/23 14:09:07.6    -115   -181    119    215    245 212.5  31.4  34226  290.68 0854.43
2009/04/23 14:09:07.7    -141    -12     -5    142    143 264.8  -2.2  34228  290.72 0854.43
2009/04/23 14:09:07.8    -155    116   -103    194    219 306.9 -34.7  34238  290.89 0854.43
2009/04/23 14:09:07.9     -24    247   -225    249    335 354.4 -51.3  34226  290.68 0854.43
2009/04/23 14:09:08.0      76     -5   -189     77    204  94.4 -81.4  34214  290.48 0854.43
2009/04/23 14:09:08.1     202    -84     69    219    230 112.6  17.7  34192  290.11 0854.43
2009/04/23 14:09:08.2     -48   -124    222    134    259 201.4  66.2  34210  290.43 0854.43
2009/04/23 14:09:08.3    -117    -16    247    119    274 262.0  72.7  34234  290.82 0854.43
2009/04/23 14:09:08.4     -88     12    223     89    240 278.4  77.1  34306  292.06 0854.43
2009/04/23 14:09:08.5     -17     18     57     25     62 316.6  75.0  34306  292.05 0854.43
2009/04/23 14:09:08.6     108    -72     48    130    138 123.7  21.0  34286  291.71 0854.43
2009/04/23 14:09:08.7      77     82     63    113    129  43.2  31.4  34276  291.54 0854.40
2009/04/23 14:09:08.8     -91    234     -7    252    253 338.6  -1.8  34304  292.02 0854.40
2009/04/23 14:09:08.9    -196    203     15    283    284 315.9   3.1  34290  291.78 0854.40
2009/04/23 14:09:09.0     -84    184     65    203    214 335.5  17.9  34292  291.81 0854.40
2009/04/23 14:09:09.1     -65    276     65    284    292 346.7  12.9  34298  291.92 0854.40
2009/04/23 14:09:09.2     -60    214     39    223    227 344.2  10.1  34306  292.06 0854.40
2009/04/23 14:09:09.3     -79    239    101    252    271 341.7  23.0  34350  292.79 0854.40
2009/04/23 14:09:09.4     -76    291     93    301    316 345.3  17.3  34348  292.77 0854.40
2009/04/23 14:09:09.5    -120    293     70    317    325 337.7  12.5  34338  292.60 0854.40
2009/04/23 14:09:09.6    -181    299     -3    350    351 328.7  -0.6  34316  292.22 0854.40
2009/04/23 14:09:09.7    -301    179      4    351    352 300.8   0.7  34266  291.37 0854.40
2009/04/23 14:09:09.8    -217    181    182    283    336 309.8  35.7  34306  292.06 0854.40
2009/04/23 14:09:09.9    -318     90     67    331    338 285.8  11.4  34274  291.52 0854.40
2009/04/23 14:09:10.0    -337     76     -7    346    347 282.8  -1.3  34308  292.07 0854.40
2009/04/23 14:09:10.1    -261    166    -39    310    313 302.4  -7.2  34318  292.24 0854.40
2009/04/23 14:09:10.2     -56    184     79    193    208 343.1  23.4  34316  292.23 0854.40
2009/04/23 14:09:10.3    -104    147     31    181    184 324.8   9.9  34324  292.35 0854.40
2009/04/23 14:09:10.4    -177    229    -69    290    299 322.4 -13.4  34338  292.60 0854.40
2009/04/23 14:09:10.5     -98    310    -92    326    339 342.4 -15.8  34298  291.91 0854.40
2009/04/23 14:09:10.6    -108    355     -2    372    373 343.1  -0.4  34278  291.59 0854.40
2009/04/23 14:09:10.7    -164    381    -37    415    417 336.7  -5.2  34272  291.48 0854.23
2009/04/23 14:09:10.8    -285    357     -9    457    458 321.4  -1.2  34282  291.63 0854.23
2009/04/23 14:09:10.9    -287    329     26    437    438 318.9   3.5  34260  291.26 0854.23
2009/04/23 14:09:11.0    -301    233     92    381    392 307.8  13.6  34296  291.88 0854.23
2009/04/23 14:09:11.1    -208    291    130    358    380 324.4  20.8  34328  292.42 0854.23
2009/04/23 14:09:11.2    -274    153    109    315    334 299.2  19.1  34304  292.01 0854.23
2009/04/23 14:09:11.3    -384    141      5    410    411 290.2   0.8  34312  292.15 0854.23
2009/04/23 14:09:11.4    -314    153    -25    350    351 296.0  -4.2  34310  292.12 0854.23
2009/04/23 14:09:11.5    -149    241    100    284    302 328.3  19.4  34318  292.24 0854.23
2009/04/23 14:09:11.6    -163    357     84    393    403 335.5  12.2  34300  291.95 0854.23
2009/04/23 14:09:11.7    -314    346    -35    468    470 317.8  -4.4  34292  291.83 0854.23
2009/04/23 14:09:11.8    -245    383    123    455    472 327.4  15.1  34274  291.51 0854.23
2009/04/23 14:09:11.9    -240    329    243    408    474 323.9  33.5  34296  291.89 0854.23
2009/04/23 14:09:12.0    -302    269    165    405    437 311.7  23.4  34320  292.30 0854.23
2009/04/23 14:09:12.1    -246    216    201    328    384 311.3  34.4  34292  291.81 0854.23
2009/04/23 14:09:12.2    -232    209     32    313    315 312.0   5.9  34280  291.60 0854.23
2009/04/23 14:09:12.3    -279    216    151    353    383 307.8  24.8  34264  291.34 0854.23
2009/04/23 14:09:12.4    -285    250     98    380    393 311.3  14.5  34294  291.85 0854.23
2009/04/23 14:09:12.5    -417    186    -25    457    458 294.1  -3.1  34296  291.87 0854.23
2009/04/23 14:09:12.6    -347    115    152    366    396 288.4  23.9  34276  291.54 0854.23
2009/04/23 14:09:12.7    -367    187     80    412    420 297.0  11.1  34290  291.77 0854.18
2009/04/23 14:09:12.8    -352     26     69    353    360 274.3  11.1  34298  291.91 0854.18
2009/04/23 14:09:12.9    -268     41     64    272    280 278.8  13.2  34304  292.01 0854.18
2009/04/23 14:09:13.0    -126    -37     28    132    136 253.6  12.2  34270  291.43 0854.18
2009/04/23 14:09:13.1    -211     44     23    216    218 281.9   6.1  34292  291.81 0854.18
2009/04/23 14:09:13.2    -211     18    -71    212    223 275.0 -23.6  34302  292.00 0854.18
2009/04/23 14:09:13.3    -174   -163    -60    239    247 226.9 -14.3  34284  291.67 0854.18
2009/04/23 14:09:13.4    -176   -213     54    277    283 219.7  11.1  34306  292.04 0854.18
2009/04/23 14:09:13.5    -163   -139     -4    215    216 229.6  -1.3  34304  292.01 0854.18
2009/04/23 14:09:13.6    -334   -142     17    364    365 247.0   2.8  34308  292.07 0854.18
2009/04/23 14:09:13.7    -387   -382     67    545    550 225.4   7.1  34292  291.81 0854.18
2009/04/23 14:09:13.8    -264   -413     36    491    493 212.6   4.2  34284  291.68 0854.18
2009/04/23 14:09:13.9    -282   -340     69    443    449 219.7   8.9  34288  291.75 0854.18
2009/04/23 14:09:14.0    -324   -266     76    420    427 230.6  10.4  34286  291.72 0854.18
2009/04/23 14:09:14.1    -387   -269     31    472    474 235.1   3.8  34314  292.19 0854.18
2009/04/23 14:09:14.2    -388   -321    128    504    521 230.4  14.3  34306  292.05 0854.18
2009/04/23 14:09:14.3    -318   -241    141    400    424 232.8  20.1  34258  291.24 0854.18
2009/04/23 14:09:14.4    -132   -308    -47    336    340 203.3  -8.0  34268  291.39 0854.18
2009/04/23 14:09:14.5    -135   -199    -57    241    248 214.3 -13.4  34272  291.48 0854.18
2009/04/23 14:09:14.6    -198    -25    -88    200    218 262.8 -29.6  34260  291.26 0854.18
2009/04/23 14:09:14.7    -283   -229    -42    365    368 231.0  -6.7  34228  290.71 0854.26
2009/04/23 14:09:14.8    -121   -391   -146    410    436 197.2 -19.7  34236  290.85 0854.26
2009/04/23 14:09:14.9     -13   -346   -153    347    379 182.2 -29.6  34230  290.76 0854.26
2009/04/23 14:09:15.0    -207   -253   -263    328    420 219.3 -47.3  34230  290.77 0854.26
2009/04/23 14:09:15.1    -240   -342   -170    418    451 215.1 -27.6  34238  290.89 0854.26
2009/04/23 14:09:15.2    -175   -356   -133    397    418 206.2 -23.3  34214  290.50 0854.26
2009/04/23 14:09:15.3    -137   -329    -78    357    366 202.6 -12.4  34182  289.93 0854.26
2009/04/23 14:09:15.4    -279   -209    -91    349    361 233.1 -14.7  34172  289.77 0854.26
2009/04/23 14:09:15.5    -154     31    -93    158    183 281.5 -37.9  34202  290.30 0854.26
2009/04/23 14:09:15.6     111   -203    136    232    268 151.3  33.1  34190  290.09 0854.26
2009/04/23 14:09:15.7    -386     29    -10    388    389 274.4  -1.6  34188  290.03 0854.26
2009/04/23 14:09:15.8    -262     -7   -244    263    358 268.3 -52.2  34210  290.42 0854.26
2009/04/23 14:09:15.9    -217   -166     11    274    275 232.5   2.3  34200  290.24 0854.26
2009/04/23 14:09:16.0    -187   -263    -95    323    336 215.4 -21.2  34188  290.04 0854.26
2009/04/23 14:09:16.1    -294   -206   -173    360    399 234.9 -31.8  34188  290.04 0854.26
2009/04/23 14:09:16.2    -123   -343     53    365    369 199.8   8.3  34202  290.28 0854.26
2009/04/23 14:09:16.3    -164   -645    236    666    706 194.3  20.3  34190  290.07 0854.26
2009/04/23 14:09:16.4    -123   -421    306    439    535 196.3  38.4  34180  289.91 0854.26
2009/04/23 14:09:16.5     189   -514    329    548    639 159.8  33.8  34186  290.00 0854.26
2009/04/23 14:09:16.6     116   -522    319    535    622 167.4  33.6  34198  290.20 0854.26
2009/04/23 14:09:16.7     148   -515    286    536    607 164.0  30.3  34198  290.22 0854.21
2009/04/23 14:09:16.8     323   -435    253    542    598 143.4  27.0  34200  290.24 0854.21
2009/04/23 14:09:16.9     377   -494    292    622    687 142.6  27.1  34186  290.00 0854.21
2009/04/23 14:09:17.0     373   -627    266    730    776 149.3  20.9  34182  289.95 0854.21
2009/04/23 14:09:17.1     434   -539    328    693    766 141.2  27.1  34182  289.95 0854.21
2009/04/23 14:09:17.2     250   -445    323    511    604 150.7  35.5  34184  289.98 0854.21
2009/04/23 14:09:17.3     267   -388    240    472    529 145.5  29.2  34178  289.88 0854.21
2009/04/23 14:09:17.4     -50   -597    297    600    669 184.9  28.4  34206  290.35 0854.21
2009/04/23 14:09:17.5    -119   -608    329    620    701 191.1  30.2  34208  290.39 0854.21
2009/04/23 14:09:17.6    -140   -522    352    541    645 195.1  36.2  34218  290.56 0854.21
2009/04/23 14:09:17.7    -206   -322    217    383    440 212.7  32.1  34220  290.58 0854.21
2009/04/23 14:09:17.8    -222   -314    114    385    402 215.2  16.5  34218  290.57 0854.21
2009/04/23 14:09:17.9    -142   -388    184    414    453 200.1  25.6  34228  290.72 0854.21
2009/04/23 14:09:18.0      24   -406    196    407    451 176.5  27.3  34220  290.60 0854.21
2009/04/23 14:09:18.1      65   -457    211    462    507 171.9  26.2  34202  290.29 0854.21
2009/04/23 14:09:18.2     -67   -377    185    383    425 190.1  27.7  34198  290.21 0854.21
2009/04/23 14:09:18.3     -57   -365    219    370    429 188.9  33.4  34202  290.28 0854.21
2009/04/23 14:09:18.4    -158   -168    141    231    270 223.3  34.5  34216  290.51 0854.21
2009/04/23 14:09:18.5    -202   -341    244    397    465 210.6  34.5  34218  290.55 0854.21
2009/04/23 14:09:18.6    -184   -361    291    406    499 207.1  39.2  34200  290.25 0854.21
2009/04/23 14:09:18.7    -232   -300    284    380    474 217.7  40.6  34206  290.34 0854.21
2009/04/23 14:09:18.8    -187   -175    210    257    331 226.8  43.5  34230  290.75 0854.21
2009/04/23 14:09:18.9    -334    -67    -69    341    348 258.6 -11.5  34210  290.43 0854.21
2009/04/23 14:09:19.0    -284     21    -88    285    298 274.3 -21.8  34198  290.22 0854.21
2009/04/23 14:09:19.1    -300     48   -112    304    323 279.2 -25.5  34190  290.07 0854.21
2009/04/23 14:09:19.2    -298     68   -150    306    340 283.0 -32.5  34192  290.10 0854.21
2009/04/23 14:09:19.3    -197    -37   -100    201    224 259.2 -32.9  34194  290.14 0854.21
2009/04/23 14:09:19.4    -127     89     35    156    161 305.1  12.9  34202  290.28 0854.21
2009/04/23 14:09:19.5    -217    114     68    246    256 297.8  15.6  34220  290.58 0854.21
2009/04/23 14:09:19.6    -186    188    126    265    293 315.2  27.2  34214  290.49 0854.21
2009/04/23 14:09:19.7    -120     52     94    132    162 293.6  39.1  34234  290.84 0854.21
2009/04/23 14:09:19.8    -218   -364    123    425    443 210.9  16.1  34236  290.87 0854.21
2009/04/23 14:09:19.9    -195   -177     -1    264    265 227.8  -0.3  34248  291.05 0854.21
2009/04/23 14:09:20.0    -172    -25    -41    174    179 261.6 -13.4  34248  291.08 0854.21
2009/04/23 14:09:20.1     -36    -95     80    102    129 200.9  42.2  34244  290.99 0854.21
2009/04/23 14:09:20.2     -67   -162    119    176    212 202.7  37.3  34234  290.82 0854.21
2009/04/23 14:09:20.3    -134   -266    149    298    333 206.7  28.5  34200  290.24 0854.21
2009/04/23 14:09:20.4      97   -104    225    143    266 137.2  64.7  34224  290.65 0854.21
2009/04/23 14:09:20.5     195   -214    193    290    348 137.7  36.7  34216  290.52 0854.21
2009/04/23 14:09:20.6     250   -314    -11    402    403 141.4  -1.6  34200  290.25 0854.21
2009/04/23 14:09:20.7     213   -293     17    363    364 144.0   2.8  34208  290.38 0854.26
2009/04/23 14:09:20.8     233   -357      8    427    428 146.8   1.1  34172  289.78 0854.26
2009/04/23 14:09:20.9     256   -174     56    310    316 124.2  10.4  34196  290.19 0854.26
2009/04/23 14:09:21.0     141   -299     86    331    343 154.7  14.6  34178  289.89 0854.26
2009/04/23 14:09:21.1     255   -187     38    317    320 126.2   6.9  34204  290.31 0854.26
2009/04/23 14:09:21.2     229   -261     19    348    349 138.8   3.1  34174  289.82 0854.26
2009/04/23 14:09:21.3     252   -242     36    350    352 133.8   5.9  34172  289.76 0854.26
2009/04/23 14:09:21.4     177   -315    111    362    379 150.6  17.2  34178  289.89 0854.26
2009/04/23 14:09:21.5     228   -259     48    346    350 138.6   8.0  34180  289.91 0854.26
2009/04/23 14:09:21.6     186   -335     30    384    386 151.0   4.6  34184  289.99 0854.26
2009/04/23 14:09:21.7     251   -314   -105    403    417 141.4 -14.6  34186  290.02 0854.26
2009/04/23 14:09:21.8     387   -384   -170    546    571 134.8 -22.3  34184  289.99 0854.26
2009/04/23 14:09:21.9     379   -373   -153    533    555 134.5 -16.0  34178  289.87 0854.26
2009/04/23 14:09:22.0     461   -302   -152    552    573 123.2 -15.4  34174  289.82 0854.26
2009/04/23 14:09:22.1     375   -397    110    547    558 136.7  11.4  34174  289.80 0854.26
2009/04/23 14:09:22.2     391   -546    376    672    770 144.4  31.6  34178  289.87 0854.26
2009/04/23 14:09:22.3     352   -523    379    631    736 146.1  33.7  34182  289.96 0854.26
2009/04/23 14:09:22.4     434   -541    401    694    801 141.3  32.7  34184  289.99 0854.26
2009/04/23 14:09:22.5     388   -459    382    602    712 139.8  35.5  34184  289.99 0854.26
2009/04/23 14:09:22.6     233   -510    451    561    719 155.4  42.9  34192  290.12 0854.26
2009/04/23 14:09:22.7     238   -196    408    309    511 129.5  59.1  34190  290.07 0854.33
2009/04/23 14:09:22.8     173    -72    299    188    353 112.6  64.9  34198  290.22 0854.33
2009/04/23 14:09:22.9      45   -239    391    244    460 169.3  65.0  34202  290.30 0854.33
2009/04/23 14:09:23.0      41   -295    332    298    446 172.0  53.5  34212  290.44 0854.33
2009/04/23 14:09:23.1      61   -305    296    312    430 168.7  48.2  34200  290.25 0854.33
2009/04/23 14:09:23.2      16   -196    247    197    315 175.3  57.6  34202  290.29 0854.33
2009/04/23 14:09:23.3      33   -189    203    192    279 170.0  52.0  34204  290.32 0854.33
2009/04/23 14:09:23.4     218    -56    255    226    340 104.4  53.9  34198  290.20 0854.33
2009/04/23 14:09:23.5     637     98    265    645    697  81.2  23.6  34202  290.27 0854.33
2009/04/23 14:09:23.6     573     75    481    578    751  82.5  44.0  34212  290.44 0854.33
2009/04/23 14:09:23.7     197      2    278    198    341  89.2  61.2  34218  290.56 0854.33
2009/04/23 14:09:23.8     225    149    341    271    435  56.5  57.6  34210  290.42 0854.33
2009/04/23 14:09:23.9     480    474     42    675    677  45.4   3.6  34192  290.12 0854.33
2009/04/23 14:09:24.0     728     69    162    732    750  84.5  12.5  34212  290.46 0854.33
2009/04/23 14:09:24.1     964    -42     18    965    966  92.5   1.1  34190  290.08 0854.33
2009/04/23 14:09:24.2     813    -48   -134    815    827  93.4  -9.4  34178  289.87 0854.33
2009/04/23 14:09:24.3     513    117    -75    527    533  77.1  -8.1  34192  290.13 0854.33
2009/04/23 14:09:24.4     889     12     59    890    892  89.2   3.8  34196  290.18 0854.33
2009/04/23 14:09:24.6     803   -219    157    833    848 105.3  10.7  34210  290.41 0854.33
2009/04/23 14:09:24.6     537   -131    -33    553    554 103.8  -3.5  34212  290.46 0854.33
2009/04/23 14:09:24.7     313   -225    181    386    426 125.7  27.1  34206  290.36 0854.37
2009/04/23 14:09:24.8     468   -125   -173    485    516 105.1 -19.7  34196  290.18 0854.37
2009/04/23 14:09:24.9     556   -112    -51    568    571 101.4  -5.2  34192  290.10 0854.37
2009/04/23 14:09:25.1     603     64    -73    607    612  83.9  -6.9  34210  290.42 0854.37
2009/04/23 14:09:25.2     674     40     32    676    677  86.6   2.8  34220  290.60 0854.37
2009/04/23 14:09:25.3     349   -116    123    369    390 108.5  18.5  34228  290.72 0854.37
2009/04/23 14:09:25.4     586    214     42    625    627  69.9   3.9  34198  290.21 0854.37
2009/04/23 14:09:25.5     522    118     84    536    543  77.2   9.0  34196  290.19 0854.37
2009/04/23 14:09:25.6     599    162    133    621    636  74.9  12.1  34194  290.15 0854.37
2009/04/23 14:09:25.7     618    202    191    651    679  71.9  16.4  34194  290.16 0854.37
2009/04/23 14:09:25.8     623    123    184    636    663  78.8  16.1  34204  290.32 0854.40
2009/04/23 14:09:25.9     514     54    255    517    576  83.9  28.2  34200  290.26 0854.40
2009/04/23 14:09:26.0     582      8    240    583    630  89.2  23.7  34228  290.74 0854.40
2009/04/23 14:09:26.1     655     52    118    658    669  85.4  10.2  34220  290.58 0854.40
2009/04/23 14:09:26.2     567   -110    339    578    670 101.0  33.1  34230  290.76 0854.40
2009/04/23 14:09:26.3     696    -27    396    697    801  92.2  32.1  34238  290.89 0854.40
2009/04/23 14:09:26.4     557   -176    341    585    677 107.6  32.9  34220  290.60 0854.40
2009/04/23 14:09:26.5     496     72    305    502    587  81.7  34.1  34208  290.38 0854.40
2009/04/23 14:09:26.6     574    117    220    587    626  78.4  21.6  34188  290.03 0854.40
2009/04/23 14:09:26.7     596    106    142    606    623  79.9  13.2  34204  290.33 0854.40
2009/04/23 14:09:26.8     470      7    224    471    521  89.1  27.3  34206  290.34 0854.40
2009/04/23 14:09:26.9     534    185     63    566    570  70.8   6.4  34192  290.13 0854.40
2009/04/23 14:09:27.0     568    203    152    604    623  70.3  14.2  34190  290.08 0854.40
2009/04/23 14:09:27.1     654    264    223    706    741  68.0  17.5  34202  290.27 0854.40
2009/04/23 14:09:27.2     563    148    253    583    635  75.2  25.0  34222  290.62 0854.40
2009/04/23 14:09:27.3     553     50    355    556    659  84.8  35.6  34232  290.79 0854.40
2009/04/23 14:09:27.4     399    241    320    467    566  58.8  37.6  34218  290.55 0854.40
2009/04/23 14:09:27.5     310    310    243    439    501  45.0  31.4  34206  290.34 0854.40
2009/04/23 14:09:27.6     288    208    159    356    389  54.1  25.7  34212  290.45 0854.40
2009/04/23 14:09:27.7     288    239    194    375    422  50.4  29.4  34204  290.31 0854.40
2009/04/23 14:09:27.8     562    271     47    624    626  64.2   4.3  34190  290.09 0854.41
2009/04/23 14:09:27.9     575    160    320    597    677  74.4  30.5  34260  291.27 0854.41
2009/04/23 14:09:28.0     325     76      6    334    335  76.8   1.1  34208  290.38 0854.41
2009/04/23 14:09:28.1     640    204    121    672    683  72.3  10.2  34206  290.34 0854.41
2009/04/23 14:09:28.2     507    353    117    618    630  55.1  10.7  34198  290.23 0854.41
2009/04/23 14:09:28.3     189    296    -82    352    362  32.6 -13.2  34200  290.25 0854.41
2009/04/23 14:09:28.4     214    148    -74    261    271  55.4 -20.7  34202  290.29 0854.41
2009/04/23 14:09:28.5     331    184    108    380    396  60.9  15.9  34206  290.35 0854.41
2009/04/23 14:09:28.6     486     73     58    492    496  81.4   6.8  34206  290.34 0854.41
2009/04/23 14:09:28.7     397    142    112    422    437  70.2  14.9  34200  290.24 0854.41
2009/04/23 14:09:28.8     429    -47    -88    432    442  96.3 -11.6  34208  290.38 0854.41
2009/04/23 14:09:28.9     168    -82   -269    188    328 116.0 -66.2  34218  290.56 0854.41
2009/04/23 14:09:29.0     272   -253     46    372    375 132.9   7.1  34222  290.64 0854.41
2009/04/23 14:09:29.1     376   -334     38    504    506 131.6   4.3  34214  290.49 0854.41
2009/04/23 14:09:29.2     216   -261   -159    340    375 140.4 -31.4  34210  290.42 0854.41
2009/04/23 14:09:29.3     240     -5   -153    241    285  91.3 -39.9  34204  290.32 0854.41
2009/04/23 14:09:29.4     453    -63    116    458    473  97.9  14.3  34202  290.30 0854.41
2009/04/23 14:09:29.5     208     95    246    229    336  65.4  52.2  34210  290.42 0854.41
2009/04/23 14:09:29.6     357    -80    234    366    434 102.7  35.6  34210  290.41 0854.41
2009/04/23 14:09:29.7     249    -19    286    250    379  94.6  54.3  34228  290.71 0854.41
2009/04/23 14:09:29.8     189     -9    211    190    283  92.8  53.3  34222  290.63 0854.41
2009/04/23 14:09:29.9     107     60    208    123    241  60.7  66.8  34220  290.58 0854.41
2009/04/23 14:09:30.0     148     77     94    167    191  62.5  31.6  34218  290.55 0854.41
2009/04/23 14:09:30.1      49     35     73     61     95  54.0  56.3  34220  290.60 0854.41
2009/04/23 14:09:30.2      11    106     93    107    141   6.2  45.8  34228  290.72 0854.41
2009/04/23 14:09:30.3     -96    311    113    326    346 342.7  19.2  34212  290.47 0854.41
2009/04/23 14:09:30.4    -220    526     68    571    576 337.3   6.9  34220  290.59 0854.41
2009/04/23 14:09:30.5     -63    400     47    406    409 351.0   6.7  34216  290.51 0854.41
2009/04/23 14:09:30.6      82    361     -8    371    372  12.9  -1.3  34216  290.52 0854.41
2009/04/23 14:09:30.7      40    529   -101    531    541   4.4 -10.8  34222  290.62 0854.41
2009/04/23 14:09:30.8     -56    157   -116    167    203 340.2 -42.2  34226  290.69 0854.41
2009/04/23 14:09:30.9    -142    277    -12    312    313 332.8  -2.3  34210  290.41 0854.41
2009/04/23 14:09:31.0     152     61     80    164    182  68.0  27.8  34222  290.62 0854.41
2009/04/23 14:09:31.1      94    -48     16    106    108 117.5   9.0  34248  291.08 0854.41
2009/04/23 14:09:31.2     -34   -104     51    110    121 198.5  26.6  34252  291.13 0854.41
2009/04/23 14:09:31.3     141   -109     49    179    186 127.8  15.6  34252  291.15 0854.41
2009/04/23 14:09:31.4     -92    -91     87    130    156 225.1  36.5  34254  291.18 0854.41
2009/04/23 14:09:31.5    -228   -134    129    265    294 239.6  27.8  34270  291.44 0854.41
2009/04/23 14:09:31.6    -114   -219    189    248    311 207.6  41.2  34274  291.51 0854.41
2009/04/23 14:09:31.7    -175   -112    191    208    282 237.4  47.7  34272  291.48 0854.41
2009/04/23 14:09:31.8     -86   -134    188    160    246 212.6  55.4  34264  291.33 0854.44
2009/04/23 14:09:31.9    -187   -138    116    233    260 233.6  28.2  34254  291.16 0854.44
2009/04/23 14:09:32.0     -86    -46      5     98     99 241.6   3.3  34258  291.25 0854.44
2009/04/23 14:09:32.1      22     27     99     36    105  39.7  80.2  34258  291.25 0854.44
2009/04/23 14:09:32.2     -91    -30    116     97    151 251.4  56.3  34262  291.32 0854.44
2009/04/23 14:09:32.3    -125     64    122    141    186 297.1  45.1  34248  291.08 0854.44
2009/04/23 14:09:32.4    -190    126    100    229    249 303.5  25.1  34246  291.04 0854.44
2009/04/23 14:09:32.5    -219    113     82    247    261 297.3  18.4  34260  291.26 0854.44
2009/04/23 14:09:32.6    -161    -81     35    181    185 243.4  11.0  34236  290.87 0854.44
2009/04/23 14:09:32.7     -58     77     69     97    119 323.0  39.1  34256  291.20 0854.44
2009/04/23 14:09:32.8    -251    227     53    339    344 312.2   8.9  34252  291.13 0854.44
2009/04/23 14:09:32.9    -336     31    201    338    393 275.4  33.5  34248  291.08 0854.44
2009/04/23 14:09:33.0    -178     -4    186    179    258 268.5  51.2  34258  291.24 0854.44
2009/04/23 14:09:33.1    -295   -125    113    321    341 246.9  19.5  34242  290.96 0854.44
2009/04/23 14:09:33.2    -307   -145    100    340    355 244.6  16.5  34240  290.93 0854.44
2009/04/23 14:09:33.3    -314     -3    -33    315    317 269.4  -6.1  34230  290.75 0854.44
2009/04/23 14:09:33.4    -263    -44    -69    267    276 260.5 -14.5  34242  290.95 0854.44
2009/04/23 14:09:33.5     120    -32    -42    125    133 105.0 -18.7  34234  290.84 0854.44
2009/04/23 14:09:33.6     156   -263    -80    307    318 149.3 -14.6  34234  290.82 0854.44
2009/04/23 14:09:33.7     338    -64   -194    345    395 100.8 -36.3  34220  290.59 0854.44
2009/04/23 14:09:33.8     434    102   -137    446    467  76.8 -17.2  34212  290.44 0854.44
2009/04/23 14:09:33.9     434    158    -74    463    470  70.0  -9.1  34214  290.49 0854.44
2009/04/23 14:09:34.0     518    283     65    591    595  61.4   6.4  34204  290.31 0854.44
2009/04/23 14:09:34.1     569    177     30    596    597  72.7   2.9  34198  290.22 0854.44
2009/04/23 14:09:34.2     699    265    -49    748    750  69.2  -3.8  34196  290.19 0854.44
2009/04/23 14:09:34.3     471     56     49    475    478  83.1   6.0  34192  290.10 0854.44
2009/04/23 14:09:34.4     523    243    -54    577    580  65.1  -5.4  34190  290.07 0854.44
2009/04/23 14:09:34.5     603    256     46    656    658  67.0   4.0  34204  290.31 0854.44
2009/04/23 14:09:34.6     610    108    -13    620    621  79.9  -1.3  34200  290.25 0854.44
2009/04/23 14:09:34.7     765    296    229    821    853  68.8  15.6  34258  291.24 0854.44
2009/04/23 14:09:34.8     814    235    300    848    899  73.9  20.3  34228  290.72 0854.44
2009/04/23 14:09:34.9     778    348    201    853    877  65.9  13.3  34212  290.44 0854.44
2009/04/23 14:09:35.0     632    214    260    668    716  71.3  22.4  34222  290.61 0854.44
2009/04/23 14:09:35.1     487     71    364    493    612  81.7  40.0  34222  290.61 0854.44
2009/04/23 14:09:35.2     624    145    201    641    672  76.9  17.4  34208  290.39 0854.44
2009/04/23 14:09:35.3     534     15    178    535    564  88.3  18.4  34196  290.19 0854.44
2009/04/23 14:09:35.4     538     29    231    539    586  86.9  24.6  34200  290.25 0854.44
2009/04/23 14:09:35.5     644    134    141    658    674  78.2  12.2  34172  289.78 0854.44
2009/04/23 14:09:35.6     631    204    176    664    688  72.1  14.9  34168  289.71 0854.44
2009/04/23 14:09:35.7     577    174    268    603    659  73.2  25.6  34186  290.01 0854.44
2009/04/23 14:09:35.8     568     47    235    570    616  85.2  23.6  34202  290.29 0854.44
2009/04/23 14:09:35.9     551     98    233    560    606  79.9  23.9  34190  290.07 0854.44
2009/04/23 14:09:36.0     632    205     79    665    670  72.0   6.8  34198  290.22 0854.44
2009/04/23 14:09:36.1     537     84     41    544    546  81.1   4.3  34200  290.26 0854.44
2009/04/23 14:09:36.2     569    143     98    587    596  75.8   9.5  34194  290.15 0854.44
2009/04/23 14:09:36.3     551    209    -13    590    591  69.2  -1.3  34188  290.05 0854.44
2009/04/23 14:09:36.4     767    209    361    796    874  74.7  26.2  34274  291.50 0854.44
2009/04/23 14:09:36.5     423     90    502    433    662  77.9  54.9  34266  291.36 0854.44
2009/04/23 14:09:36.7     589    276    453    651    793  64.9  38.3  34204  290.33 0854.44
2009/04/23 14:09:36.7     643    357    298    736    794  61.0  23.4  34186  290.00 0854.44
2009/04/23 14:09:36.8     499    168    507    527    731  71.3  48.8  34200  290.24 0854.44
2009/04/23 14:09:36.9     671    257    390    719    817  69.0  30.9  34192  290.10 0854.44
2009/04/23 14:09:37.0     360    208    431    416    599  60.0  51.2  34182  289.94 0854.44
2009/04/23 14:09:37.1     270    -40    376    274    465  98.6  60.5  34214  290.48 0854.44
2009/04/23 14:09:37.2     288    -49    413    293    506  99.7  61.3  34242  290.95 0854.44
2009/04/23 14:09:37.3     349   -153    357    382    522 113.6  47.9  34252  291.15 0854.44
2009/04/23 14:09:37.4     210    -69    262    222    343 108.2  55.7  34240  290.92 0854.44
2009/04/23 14:09:37.5    -108    -80    364    135    388 233.6  79.0  34240  290.92 0854.44
2009/04/23 14:09:37.6    -126   -144    345    192    394 221.2  68.6  34198  290.21 0854.44
2009/04/23 14:09:37.7    -493     48    411    496    644 275.6  43.8  34222  290.61 0854.44
2009/04/23 14:09:37.8    -542    159    286    565    633 286.4  28.9  34250  291.10 0854.43
2009/04/23 14:09:37.9    -627      0     49    628    631 270.0   4.5  34238  290.89 0854.43
2009/04/23 14:09:38.0    -316     59    205    322    381 280.6  35.5  34240  290.93 0854.43
2009/04/23 14:09:38.1    -179     65    196    191    273 290.0  50.7  34236  290.85 0854.43
2009/04/23 14:09:38.2    -256     19     99    257    275 274.4  22.3  34242  290.95 0854.43
2009/04/23 14:09:38.3    -315    -59     16    321    322 259.4   2.9  34234  290.83 0854.43
2009/04/23 14:09:38.4    -343    -51   -118    347    367 261.5 -18.8  34224  290.67 0854.43
2009/04/23 14:09:38.5    -256    -39   -113    260    283 261.2 -29.5  34232  290.78 0854.43
2009/04/23 14:09:38.6     -75   -103    -11    128    129 216.0  -5.2  34242  290.96 0854.43
2009/04/23 14:09:38.7      65   -110     48    128    136 149.3  21.0  34236  290.86 0854.43
2009/04/23 14:09:38.8     139   -215     63    257    265 147.0  13.9  34236  290.87 0854.43
2009/04/23 14:09:38.9     223   -162     92    276    292 126.0  18.5  34186  290.00 0854.43
2009/04/23 14:09:39.0     269   -186    143    328    357 124.6  25.1  34178  289.87 0854.43
2009/04/23 14:09:39.1     278   -203    198    345    397 126.2  32.4  34188  290.06 0854.43
2009/04/23 14:09:39.2     196   -326    173    381    418 149.0  26.2  34208  290.38 0854.43
2009/04/23 14:09:39.3     131   -492    210    510    551 165.1  23.7  34214  290.48 0854.43
2009/04/23 14:09:39.4     160   -439    180    468    501 160.0  22.2  34198  290.20 0854.43
2009/04/23 14:09:39.5     282   -429    166    514    541 146.6  17.9  34186  290.02 0854.43
2009/04/23 14:09:39.6     293   -376    187    477    512 142.1  22.5  34188  290.03 0854.43
2009/04/23 14:09:39.7     121   -324    151    347    378 159.4  25.1  34192  290.10 0854.43
2009/04/23 14:09:39.8    -213   -384    132    440    460 209.0  16.8  34218  290.56 0854.44
2009/04/23 14:09:39.9    -197   -344    122    397    416 209.9  17.2  34226  290.68 0854.44
2009/04/23 14:09:40.0    -183   -386    133    428    449 205.3  17.3  34212  290.46 0854.44
2009/04/23 14:09:40.1     -70   -497    168    503    531 188.0  18.5  34214  290.48 0854.44
2009/04/23 14:09:40.2    -155   -486    201    511    549 197.7  22.7  34218  290.57 0854.44
2009/04/23 14:09:40.3     145   -575    108    593    603 165.8  10.4  34212  290.47 0854.44
2009/04/23 14:09:40.4     328   -662    189    739    763 153.6  14.4  34218  290.57 0854.44
2009/04/23 14:09:40.5     215   -613    300    650    715 160.6  26.5  34210  290.43 0854.44
2009/04/23 14:09:40.6      99   -474     41    485    487 168.2   4.9  34206  290.35 0854.44
2009/04/23 14:09:40.7      27   -354    102    356    371 175.5  16.0  34208  290.38 0854.44
2009/04/23 14:09:40.8      -5   -339    137    340    366 181.0  23.1  34210  290.42 0854.44
2009/04/23 14:09:40.9     -51   -278    128    283    310 190.5  26.2  34200  290.24 0854.44
2009/04/23 14:09:41.0    -191   -351     41    400    403 208.6   5.9  34212  290.47 0854.44
2009/04/23 14:09:41.1     -77   -320     10    330    331 193.5   1.9  34214  290.50 0854.44
2009/04/23 14:09:41.2     -93   -256     -5    273    274 200.1  -1.1  34218  290.56 0854.44
2009/04/23 14:09:41.3     -60   -236    -73    244    255 194.3 -16.8  34218  290.56 0854.44
2009/04/23 14:09:41.4    -104   -220      0    244    245 205.3   0.0  34220  290.58 0854.44
2009/04/23 14:09:41.5      12   -232     47    233    238 176.9  11.4  34216  290.51 0854.44
2009/04/23 14:09:41.6      48   -255     89    260    275 169.3  18.9  34212  290.44 0854.44
2009/04/23 14:09:41.7      93   -319    120    333    355 163.7  19.9  34208  290.37 0854.44
2009/04/23 14:09:41.8     158   -317      0    355    356 153.5   0.0  34208  290.38 0854.47
2009/04/23 14:09:41.9     140   -350     59    378    383 158.2   9.0  34208  290.37 0854.47
2009/04/23 14:09:42.0     163   -391     82    424    432 157.3  11.0  34204  290.31 0854.47
2009/04/23 14:09:42.1     200   -355     37    408    410 150.6   5.3  34208  290.38 0854.47
2009/04/23 14:09:42.2     112   -390     45    406    409 164.0   6.4  34210  290.41 0854.47
2009/04/23 14:09:42.3      68   -332    141    340    368 168.4  23.7  34192  290.11 0854.47
2009/04/23 14:09:42.4     154   -330    129    365    387 155.0  20.1  34190  290.08 0854.47
2009/04/23 14:09:42.5     146   -273    275    310    414 151.9  46.2  34190  290.08 0854.47
2009/04/23 14:09:42.6      87   -329    308    341    459 165.2  46.8  34192  290.12 0854.47
2009/04/23 14:09:42.7     -18   -287    339    288    444 183.6  55.5  34194  290.16 0854.47
2009/04/23 14:09:42.8     -78   -456    329    463    567 189.8  39.1  34194  290.14 0854.47
2009/04/23 14:09:42.9     -10   -586    126    587    601 181.0  12.1  34196  290.17 0854.47
2009/04/23 14:09:43.0     -71   -369    163    376    409 191.0  25.0  34182  289.96 0854.47
2009/04/23 14:09:43.1    -297   -467   -111    554    566 212.5 -11.3  34192  290.13 0854.47
2009/04/23 14:09:43.2    -494   -415    -55    646    649 230.0  -4.9  34184  289.98 0854.47
2009/04/23 14:09:43.3    -471   -353     46    589    591 233.2   4.5  34180  289.91 0854.47
2009/04/23 14:09:43.4    -422   -376    -27    566    567 228.3  -2.8  34192  290.13 0854.47
2009/04/23 14:09:43.5    -346   -281    130    447    466 230.9  16.3  34194  290.16 0854.47
2009/04/23 14:09:43.6    -376   -292     25    477    478 232.2   3.0  34188  290.03 0854.47
2009/04/23 14:09:43.7    -180   -282     68    335    343 212.6  11.6  34188  290.03 0854.47
2009/04/23 14:09:43.8    -213   -176     54    277    283 230.5  11.1  34190  290.09 0854.44
2009/04/23 14:09:43.9    -168   -314     73    357    365 208.2  11.6  34188  290.04 0854.44
2009/04/23 14:09:44.0    -245   -305     81    392    401 218.7  11.8  34188  290.04 0854.44
2009/04/23 14:09:44.1    -220   -157     91    271    286 234.5  18.6  34190  290.07 0854.44
2009/04/23 14:09:44.2    -302     99     45    318    322 288.2   8.1  34234  290.83 0854.44
2009/04/23 14:09:44.3    -283     28    -85    285    297 275.7 -21.7  34246  291.04 0854.44
2009/04/23 14:09:44.4    -462     54   -228    466    518 276.7 -32.4  34246  291.03 0854.44
2009/04/23 14:09:44.5    -549    100   -186    559    589 280.4 -23.7  34220  290.58 0854.44
2009/04/23 14:09:44.6    -439    110   -160    453    480 284.2 -24.7  34238  290.90 0854.44
2009/04/23 14:09:44.7    -442    104   -219    455    504 283.3 -31.8  34236  290.85 0854.44
2009/04/23 14:09:44.8    -208    186   -294    280    406 311.8 -55.9  34194  290.15 0854.44
2009/04/23 14:09:44.9     -90    -39   -235     99    255 246.5 -80.4  34208  290.38 0854.44
2009/04/23 14:09:45.0    -329     29   -172    331    373 275.1 -33.9  34224  290.67 0854.44
2009/04/23 14:09:45.1    -371    276   -119    463    479 306.6 -14.5  34216  290.52 0854.44
2009/04/23 14:09:45.2    -324    402     26    517    518 321.2   2.9  34212  290.44 0854.44
2009/04/23 14:09:45.3    -355    277    -17    451    452 307.9  -2.2  34224  290.67 0854.44
2009/04/23 14:09:45.4    -419    303   -164    518    543 305.9 -22.8  34194  290.16 0854.44
2009/04/23 14:09:45.5    -364    407   -189    547    578 318.2 -24.3  34202  290.28 0854.44
2009/04/23 14:09:45.6    -115    375    -40    393    396 343.0  -5.9  34212  290.47 0854.44
2009/04/23 14:09:45.7    -217    523    -48    567    570 337.4  -4.9  34214  290.50 0854.44
2009/04/23 14:09:45.8    -112    629     50    639    642 349.9   4.5  34220  290.59 0854.44
2009/04/23 14:09:45.9    -122    427    157    445    473 344.0  19.5  34260  291.28 0854.44
2009/04/23 14:09:46.0     -57    405    115    410    426 352.0  15.7  34244  290.99 0854.44
2009/04/23 14:09:46.1     -81    397    222    406    462 348.4  31.3  34218  290.56 0854.44
2009/04/23 14:09:46.2    -116    355    -17    374    375 341.9  -2.6  34234  290.83 0854.44
2009/04/23 14:09:46.3      65    -52    215     84    230 128.6  77.6  34232  290.79 0854.44
2009/04/23 14:09:46.4     -81   -176     90    194    213 204.7  27.0  34228  290.74 0854.44
2009/04/23 14:09:46.5     -45   -127     51    135    144 199.6  21.0  34234  290.82 0854.44
2009/04/23 14:09:46.6    -131   -120     63    178    189 227.6  19.6  34236  290.87 0854.44
2009/04/23 14:09:46.7     -18   -155    -56    157    167 186.7 -19.7  34246  291.03 0854.44
2009/04/23 14:09:46.8      55   -232    -42    239    243 166.6 -10.1  34234  290.83 0854.46
2009/04/23 14:09:46.9      32   -190      9    193    194 170.4   2.8  34240  290.92 0854.46
2009/04/23 14:09:47.0     133   -129     -7    186    187 134.2  -2.2  34232  290.79 0854.46
2009/04/23 14:09:47.1     209   -115    -20    239    240 118.9  -4.9  34218  290.54 0854.46
2009/04/23 14:09:47.2     160   -163    -63    229    238 135.7 -15.4  34218  290.54 0854.46
2009/04/23 14:09:47.3     136   -212    -70    252    262 147.3 -15.5  34222  290.63 0854.46
2009/04/23 14:09:47.4     -51   -256    118    262    287 191.3  25.9  34220  290.59 0854.46
2009/04/23 14:09:47.5    -103   -240     70    262    272 203.2  15.0  34240  290.93 0854.46
2009/04/23 14:09:47.6    -174   -264    110    317    336 213.3  19.2  34252  291.13 0854.46
2009/04/23 14:09:47.7    -225   -381    155    443    470 210.7  19.3  34236  290.85 0854.46
2009/04/23 14:09:47.8    -204   -406    106    455    468 206.7  13.1  34244  291.01 0854.46
2009/04/23 14:09:47.9     -59   -315    163    321    360 190.7  29.2  34230  290.77 0854.46
2009/04/23 14:09:48.0       8   -292    114    293    314 178.4  22.3  34226  290.68 0854.46
2009/04/23 14:09:48.1     -50   -138    137    148    201 200.1  47.9  34228  290.72 0854.46
2009/04/23 14:09:48.2    -244    -45    107    249    271 259.4  24.9  34220  290.59 0854.46
2009/04/23 14:09:48.3    -353    160     71    388    395 294.5  10.4  34230  290.76 0854.46
2009/04/23 14:09:48.4    -343     19     61    344    350 273.3  10.1  34218  290.55 0854.46
2009/04/23 14:09:48.5    -203     41    120    208    240 281.4  32.4  34226  290.69 0854.46
2009/04/23 14:09:48.6    -243    144    -41    283    286 300.7  -8.3  34226  290.70 0854.46
2009/04/23 14:09:48.7    -283    -10    -92    284    299 267.9 -18.1  34224  290.65 0854.46
2009/04/23 14:09:48.8    -311     52   -150    316    349 279.5 -31.6  34218  290.55 0854.47
2009/04/23 14:09:48.9    -352     -8   -143    353    380 268.6 -27.6  34226  290.69 0854.47
2009/04/23 14:09:49.0    -236   -166   -105    289    307 234.9 -25.3  34228  290.73 0854.47
2009/04/23 14:09:49.1    -335   -101   -309    350    466 253.2 -50.3  34202  290.29 0854.47
2009/04/23 14:09:49.2    -417   -114   -310    433    532 254.7 -43.6  34212  290.44 0854.47
2009/04/23 14:09:49.3    -229    183   -190    294    350 308.7 -40.0  34234  290.83 0854.47
2009/04/23 14:09:49.4    -253    152   -133    296    324 300.9 -30.3  34238  290.88 0854.47
2009/04/23 14:09:49.5    -176   -174    -67    248    257 225.3 -15.2  34242  290.95 0854.47
2009/04/23 14:09:49.6    -284   -215    -30    357    359 232.8  -4.9  34234  290.84 0854.47
2009/04/23 14:09:49.7    -314   -238     77    395    403 232.8  11.1  34242  290.96 0854.47
2009/04/23 14:09:49.8    -277   -206     73    346    354 233.4  12.0  34242  290.96 0854.47
2009/04/23 14:09:49.9    -325     -7    -65    326    333 268.6 -11.3  34248  291.06 0854.47
2009/04/23 14:09:50.0    -203   -139    -64    247    256 235.6 -14.5  34228  290.71 0854.47
2009/04/23 14:09:50.1    -118   -169     97    207    228 215.0  27.1  34218  290.55 0854.47
2009/04/23 14:09:50.2    -178   -214    142    279    313 219.6  29.1  34242  290.95 0854.47
2009/04/23 14:09:50.3     -57   -269     63    276    284 192.0  12.9  34224  290.65 0854.47
2009/04/23 14:09:50.4      79   -243    -91    256    271 162.0 -24.4  34218  290.54 0854.47
2009/04/23 14:09:50.5      86   -181     -9    201    202 154.6  -2.6  34208  290.40 0854.47
2009/04/23 14:09:50.6     -51   -270    -10    275    276 190.7  -2.2  34204  290.32 0854.47
2009/04/23 14:09:50.7     -77   -385    191    393    436 191.3  27.9  34214  290.48 0854.47
2009/04/23 14:09:50.8    -211   -454    227    501    550 204.9  26.2  34208  290.38 0854.47
2009/04/23 14:09:50.9    -329   -319    111    459    473 225.9  13.7  34206  290.34 0854.50
2009/04/23 14:09:51.0    -431    -78      6    439    440 259.7   0.9  34204  290.33 0854.50
2009/04/23 14:09:51.1    -430   -246     -2    496    497 240.3  -0.3  34210  290.42 0854.50
2009/04/23 14:09:51.2    -326   -186   -104    376    391 240.3 -15.5  34212  290.47 0854.50
2009/04/23 14:09:51.4    -184   -131    -67    227    237 234.5 -16.6  34222  290.61 0854.50
2009/04/23 14:09:51.5    -176   -230     -5    290    291 217.4  -1.2  34222  290.61 0854.50
2009/04/23 14:09:51.6    -241   -297    -18    383    384 219.1  -2.8  34228  290.72 0854.50
2009/04/23 14:09:51.7    -302   -283   -120    415    433 226.9 -16.2  34214  290.50 0854.50
2009/04/23 14:09:51.8    -491    -69   -149    496    519 262.0 -16.8  34228  290.74 0854.50
2009/04/23 14:09:51.9    -456   -231   -118    512    526 243.1 -13.0  34224  290.65 0854.50
2009/04/23 14:09:52.0    -451   -239     21    511    512 242.1   2.4  34218  290.56 0854.50
2009/04/23 14:09:52.1    -395   -321   -187    510    543 230.9 -25.4  34250  291.11 0854.50
2009/04/23 14:09:52.2    -307   -254   -170    399    433 230.4 -29.0  34218  290.55 0854.50
2009/04/23 14:09:52.3    -440   -125   -141    458    479 254.1 -22.2  34242  290.96 0854.50
2009/04/23 14:09:52.4    -479   -265   -112    548    560 241.0 -11.6  34240  290.94 0854.50
2009/04/23 14:09:52.5    -555   -222   -218    598    636 248.2 -25.4  34218  290.54 0854.50
2009/04/23 14:09:52.6    -637   -237   -269    680    731 249.6 -27.3  34232  290.79 0854.50
2009/04/23 14:09:52.7    -420   -435   -156    605    625 224.0 -14.5  34218  290.54 0854.50
2009/04/23 14:09:52.8    -395   -376   -169    546    572 226.5 -17.2  34224  290.67 0854.50
2009/04/23 14:09:52.9    -343   -369   -172    504    532 222.9 -23.9  34236  290.87 0854.54
2009/04/23 14:09:53.0    -322   -264   -107    417    431 230.7 -14.5  34212  290.44 0854.54
2009/04/23 14:09:53.1    -224   -110     -9    250    251 243.8  -2.2  34224  290.66 0854.54
2009/04/23 14:09:53.2    -399   -399   -136    565    582 225.0 -13.6  34222  290.64 0854.54
2009/04/23 14:09:53.3    -128   -365    -46    388    391 199.4  -6.9  34220  290.59 0854.54
2009/04/23 14:09:53.4    -220   -305     49    377    381 215.9   7.5  34214  290.49 0854.54
2009/04/23 14:09:53.5    -197   -201    -72    282    292 224.3 -14.4  34210  290.42 0854.54
2009/04/23 14:09:53.6    -287   -315    -95    427    438 222.3 -12.6  34202  290.29 0854.54
2009/04/23 14:09:53.7    -204   -382   -125    434    451 208.1 -20.7  34202  290.28 0854.54
2009/04/23 14:09:53.8    -157   -403     21    433    434 201.3   2.8  34210  290.43 0854.54
2009/04/23 14:09:53.9    -185   -272    -99    330    344 214.3 -21.6  34208  290.37 0854.54
2009/04/23 14:09:54.0    -342   -221     49    408    411 237.1   6.9  34212  290.46 0854.54
2009/04/23 14:09:54.1    -334   -166     54    374    378 243.5   8.2  34218  290.57 0854.54
2009/04/23 14:09:54.2    -224    -33   -177    227    287 261.6 -46.1  34212  290.44 0854.54
2009/04/23 14:09:54.3    -206   -120     -5    239    240 239.6  -1.3  34204  290.32 0854.54
2009/04/23 14:09:54.4    -186    -23    -52    188    196 262.8 -15.5  34212  290.47 0854.54
2009/04/23 14:09:54.5    -231   -109    -71    256    266 244.7 -15.5  34230  290.75 0854.54
2009/04/23 14:09:54.6    -357   -329     30    486    487 227.4   3.6  34220  290.59 0854.54
2009/04/23 14:09:54.7    -332   -489     -2    592    593 214.2  -0.3  34208  290.39 0854.54
2009/04/23 14:09:54.8    -296   -539     35    615    616 208.8   3.3  34202  290.30 0854.54
2009/04/23 14:09:54.9    -172   -618     48    642    644 195.6   4.3  34202  290.30 0854.55
2009/04/23 14:09:55.0    -204   -640     52    672    675 197.7   4.5  34194  290.16 0854.55
2009/04/23 14:09:55.1    -238   -500     73    555    560 205.5   7.6  34204  290.31 0854.55
2009/04/23 14:09:55.2    -180   -556    107    585    595 197.9  10.4  34204  290.32 0854.55
2009/04/23 14:09:55.3    -213   -577     11    616    617 200.3   1.1  34198  290.21 0854.55
2009/04/23 14:09:55.4     -16   -435    126    436    454 182.1  16.1  34210  290.41 0854.55
2009/04/23 14:09:55.5      35   -417    151    419    445 175.2  20.7  34206  290.34 0854.55
2009/04/23 14:09:55.6       7   -454    191    455    493 179.0  24.2  34204  290.32 0854.55
2009/04/23 14:09:55.7     -79   -457    175    464    495 189.9  21.6  34200  290.25 0854.55
2009/04/23 14:09:55.8      -1   -562     79    563    569 180.1   8.0  34204  290.31 0854.55
2009/04/23 14:09:55.9     -39   -695     27    697    698 183.3   2.2  34198  290.22 0854.55
2009/04/23 14:09:56.0     -77   -543     13    549    550 188.1   1.4  34198  290.23 0854.55
2009/04/23 14:09:56.1    -128   -471    -82    489    496 195.2  -9.6  34192  290.13 0854.55
2009/04/23 14:09:56.2     101   -329    191    345    394 163.0  31.4  34210  290.42 0854.55
2009/04/23 14:09:56.3     127   -135    240    186    303 136.6  58.4  34240  290.93 0854.55
2009/04/23 14:09:56.4      18   -329    267    330    424 176.9  43.3  34224  290.66 0854.55
2009/04/23 14:09:56.5     -26   -359    121    360    380 184.3  18.6  34218  290.55 0854.55
2009/04/23 14:09:56.6     -32   -290    214    292    362 186.5  39.9  34224  290.66 0854.55
2009/04/23 14:09:56.7     -42   -201     71    206    219 191.8  19.2  34216  290.52 0854.55
2009/04/23 14:09:56.8      -9   -122    139    123    185 184.5  54.0  34224  290.67 0854.55
2009/04/23 14:09:56.9     -33   -118    115    123    168 195.6  48.2  34218  290.57 0854.59
2009/04/23 14:09:57.0    -112   -100    103    151    182 228.2  37.6  34200  290.26 0854.59
2009/04/23 14:09:57.1    -136     26     70    139    155 281.0  28.7  34212  290.47 0854.59
2009/04/23 14:09:57.2     -43     -3     68     44     80 264.8  64.1  34220  290.58 0854.59
2009/04/23 14:09:57.3      -6   -369    149    370    398 181.0  23.0  34220  290.60 0854.59
2009/04/23 14:09:57.4     -88   -221    235    239    335 201.8  49.7  34224  290.66 0854.59
2009/04/23 14:09:57.5      86   -151    233    174    290 150.4  59.8  34222  290.63 0854.59
2009/04/23 14:09:57.6     146   -211    119    257    283 145.3  27.0  34226  290.70 0854.59
2009/04/23 14:09:57.7     184   -177    113    256    279 133.8  25.2  34228  290.71 0854.59
2009/04/23 14:09:57.8     325   -272    -45    424    427 129.9  -6.1  34216  290.53 0854.59
2009/04/23 14:09:57.9     342   -384     60    515    519 138.3   6.7  34208  290.40 0854.59
2009/04/23 14:09:58.0     299   -279     20    410    411 133.0   2.9  34214  290.48 0854.59
2009/04/23 14:09:58.1     289   -207     78    356    365 125.6  12.5  34222  290.62 0854.59
2009/04/23 14:09:58.2     321   -277    154    425    452 130.8  20.9  34230  290.75 0854.59
2009/04/23 14:09:58.3     135   -164    214    213    301 140.4  50.1  34258  291.24 0854.59
2009/04/23 14:09:58.4     210   -107    261    236    351 117.0  53.4  34224  290.66 0854.59
2009/04/23 14:09:58.5     279    -64    160    287    328 103.0  31.6  34214  290.49 0854.59
2009/04/23 14:09:58.6     273    -83    127    286    312 106.9  25.3  34218  290.56 0854.59
2009/04/23 14:09:58.7     323    -96    148    338    368 106.6  25.2  34216  290.52 0854.59
2009/04/23 14:09:58.8     260    -53    120    266    291 101.7  26.2  34218  290.54 0854.59
2009/04/23 14:09:58.9     223      0     50    224    230  90.0  12.6  34222  290.62 0854.62
2009/04/23 14:09:59.0     114      0     82    115    141  90.4  39.5  34222  290.62 0854.62
2009/04/23 14:09:59.1     114      1     49    115    125  89.1  24.6  34220  290.58 0854.62
2009/04/23 14:09:59.2     110    -14     52    111    122  97.5  26.6  34220  290.58 0854.62
2009/04/23 14:09:59.3      21    -13     48     25     54 122.4  71.9  34222  290.64 0854.62
2009/04/23 14:09:59.4      14     -9      5     17     18 122.4  18.9  34224  290.67 0854.62
2009/04/23 14:09:59.5     -24    -71     31     75     81 198.7  23.6  34226  290.69 0854.62
2009/04/23 14:09:59.6     -55    -45     65     72     97 230.4  46.9  34220  290.60 0854.62
2009/04/23 14:09:59.7    -133    -82    -42    157    163 238.5 -15.2  34216  290.53 0854.62
2009/04/23 14:09:59.8    -199   -177     95    267    284 228.4  19.6  34218  290.54 0854.62
2009/04/23 14:09:59.9    -192   -198     -5    276    277 224.1  -1.2  34234  290.82 0854.62
2009/04/23 14:10:00.0    -374   -229   -125    439    457 238.5 -15.9  34260  291.28 0854.62
2009/04/23 14:10:00.1    -294   -460   -141    547    565 212.6 -14.5  34214  290.48 0854.62
2009/04/23 14:10:00.2    -129   -512    -28    528    529 194.2  -3.1  34228  290.72 0854.62
2009/04/23 14:10:00.3      48   -355    107    359    375 172.3  16.6  34238  290.88 0854.62
2009/04/23 14:10:00.4    -125   -246    106    277    296 207.0  22.0  34258  291.22 0854.62
2009/04/23 14:10:00.5     -87   -169    126    191    228 207.2  36.3  34260  291.26 0854.62
2009/04/23 14:10:00.6     -69   -174     51    188    195 201.8  15.2  34246  291.03 0854.62
2009/04/23 14:10:00.7    -138   -158     -8    211    212 221.2  -2.3  34234  290.82 0854.62
2009/04/23 14:10:00.8    -181   -238     42    300    304 217.2   8.0  34222  290.63 0854.62
2009/04/23 14:10:00.9    -269   -226     14    352    353 230.0   2.4  34238  290.88 0854.58
2009/04/23 14:10:01.0    -220   -311    -76    382    390 215.3 -11.3  34204  290.33 0854.58
2009/04/23 14:10:01.1    -298   -302      1    425    426 224.6   0.2  34218  290.56 0854.58
2009/04/23 14:10:01.2    -213   -226     56    311    317 223.3  10.2  34220  290.59 0854.58
2009/04/23 14:10:01.3     -25   -219    171    221    279 186.7  41.7  34224  290.66 0854.58
2009/04/23 14:10:01.4    -205    -59     58    214    222 253.8  15.3  34228  290.74 0854.58
2009/04/23 14:10:01.5    -222    -52    -41    229    233 256.7 -10.4  34244  290.99 0854.58
2009/04/23 14:10:01.6    -233    -46    -25    238    240 258.8  -6.2  34240  290.93 0854.58
2009/04/23 14:10:01.7    -224    -87     -9    241    242 248.7  -2.2  34248  291.07 0854.58
2009/04/23 14:10:01.8    -193    -68      0    205    206 250.5  -0.3  34258  291.25 0854.58
2009/04/23 14:10:01.9    -162    -54     29    171    174 251.6   9.9  34270  291.43 0854.58
2009/04/23 14:10:02.0    -200   -117     47    232    237 239.6  11.6  34268  291.41 0854.58
2009/04/23 14:10:02.1    -224   -137     27    263    265 238.5   5.9  34244  291.00 0854.58
2009/04/23 14:10:02.2    -125   -176     -4    217    218 215.4  -1.2  34216  290.52 0854.58
2009/04/23 14:10:02.3     -87   -152     26    176    178 209.9   8.5  34212  290.45 0854.58
2009/04/23 14:10:02.4      14   -101     55    103    116 172.0  30.8  34214  290.48 0854.58
2009/04/23 14:10:02.5      -1    -82     79     83    114 180.9  49.0  34214  290.50 0854.58
2009/04/23 14:10:02.6      61    -33     69     70     98 118.9  50.0  34216  290.52 0854.58
2009/04/23 14:10:02.7     106    -77    126    132    182 125.9  48.7  34214  290.48 0854.58
2009/04/23 14:10:02.8     138    -22    103    140    173  99.2  39.9  34206  290.36 0854.58
2009/04/23 14:10:02.9     156     27     90    159    182  79.9  32.1  34216  290.53 0854.58
2009/04/23 14:10:03.0     178      8     74    179    193  87.4  23.4  34222  290.64 0854.58
2009/04/23 14:10:03.1     155     10     65    156    169  86.1  23.8  34230  290.75 0854.58
2009/04/23 14:10:03.2     150     35     24    155    157  76.7   9.0  34230  290.77 0854.58
2009/04/23 14:10:03.3     157     99     17    186    187  57.6   5.4  34240  290.92 0854.58
2009/04/23 14:10:03.4     153    144     10    211    212  46.8   2.9  34240  290.92 0854.58
2009/04/23 14:10:03.5     229    188     41    297    301  50.5   8.0  34270  291.44 0854.58
2009/04/23 14:10:03.6     270    225     19    352    353  50.2   3.2  34308  292.07 0854.58
2009/04/23 14:10:03.7     236    209    -11    316    317  48.6  -2.1  34288  291.75 0854.58
2009/04/23 14:10:03.8     110    223      4    249    250  26.3   1.0  34296  291.87 0854.58
2009/04/23 14:10:03.9     146    308    105    341    357  25.4  17.2  34362  293.00 0854.58
2009/04/23 14:10:04.0     132    300    102    329    345  23.8  17.3  34352  292.85 0854.58
2009/04/23 14:10:04.1     178    205     97    272    288  41.0  20.2  34338  292.59 0854.58
2009/04/23 14:10:04.2      97    135     99    167    194  35.6  33.7  34348  292.78 0854.58
2009/04/23 14:10:04.3      31    217     73    220    232   8.2  18.4  34372  293.19 0854.58
2009/04/23 14:10:04.4      62    253    137    261    294  13.8  29.8  34364  293.05 0854.58
2009/04/23 14:10:04.5      85    302    -14    314    315  15.8  -2.6  34286  291.72 0854.58
2009/04/23 14:10:04.6     191    283      4    342    343  34.1   0.7  34370  293.14 0854.58
2009/04/23 14:10:04.7     314    282    132    423    444  48.1  17.3  34372  293.18 0854.58
2009/04/23 14:10:04.8     186    256     -1    317    318  36.0  -0.2  34276  291.53 0854.58
2009/04/23 14:10:04.9     250    159    109    297    316  57.4  21.0  34400  293.64 0854.62
2009/04/23 14:10:05.0     251    118    168    278    324  64.8  34.1  34392  293.52 0854.62
2009/04/23 14:10:05.1     238    166     76    291    301  55.1  14.7  34316  292.21 0854.62
2009/04/23 14:10:05.2     176    134     84    222    237  52.7  22.0  34312  292.17 0854.62
2009/04/23 14:10:05.3     162    173    161    238    287  43.2  37.4  34280  291.61 0854.62
2009/04/23 14:10:05.4     132    208    181    247    306  32.5  39.7  34302  291.99 0854.62
2009/04/23 14:10:05.5      36    179    175    183    253  11.5  49.0  34284  291.67 0854.62
2009/04/23 14:10:05.6      24    135    135    138    193  10.2  49.8  34276  291.55 0854.62
2009/04/23 14:10:05.7       3    163    104    164    194   1.4  35.5  34282  291.66 0854.62
2009/04/23 14:10:05.8       0     88    147     89    171   0.0  65.7  34274  291.50 0854.62
2009/04/23 14:10:05.9      12     48     74     50     89  15.1  63.2  34266  291.38 0854.62
2009/04/23 14:10:06.0      22     39    131     45    138  29.9  80.7  34272  291.47 0854.62
2009/04/23 14:10:06.1     -43    -15    108     46    117 250.0  76.1  34286  291.71 0854.62
2009/04/23 14:10:06.2     -25     88     79     92    121 344.0  45.4  34288  291.76 0854.62
2009/04/23 14:10:06.3     -61     39     37     73     81 302.4  28.7  34302  292.00 0854.62
2009/04/23 14:10:06.4     -23     48    101     54    114 334.7  69.3  34310  292.13 0854.62
2009/04/23 14:10:06.5      -7      6     87     10     87 309.5  90.0  34312  292.17 0854.62
2009/04/23 14:10:06.6      17     -9     71     20     73 118.9  83.9  34300  291.96 0854.62
2009/04/23 14:10:06.7      -8    -23     93     25     96 200.0  84.4  34312  292.15 0854.62
2009/04/23 14:10:06.8     -14     42    142     45    148 340.8  81.8  34318  292.25 0854.62
2009/04/23 14:10:06.9     -77    164    103    182    209 334.7  31.9  34302  292.00 0854.67
2009/04/23 14:10:07.0     -41    150    104    156    187 344.4  36.7  34298  291.91 0854.67
2009/04/23 14:10:07.1     -63    116     66    132    147 331.5  28.2  34292  291.81 0854.67
2009/04/23 14:10:07.2      29     87     29     92     97  18.7  17.9  34280  291.62 0854.67
2009/04/23 14:10:07.3      52     44    113     69    132  49.6  65.7  34254  291.16 0854.67
2009/04/23 14:10:07.4     -58      4    134     59    146 274.3  75.0  34270  291.43 0854.67
2009/04/23 14:10:07.5      65     31    153     73    169  64.6  72.8  34260  291.28 0854.67
2009/04/23 14:10:07.6     150     92    173    176    246  58.5  49.8  34276  291.55 0854.67
2009/04/23 14:10:07.7      74      4    164     75    180  86.5  73.8  34248  291.06 0854.67
2009/04/23 14:10:07.8      60      0    148     61    160  89.2  76.6  34256  291.21 0854.67
2009/04/23 14:10:07.9     114    -92     72    147    163 129.1  28.0  34266  291.37 0854.61
2009/04/23 14:10:08.0     127   -115      8    172    173 132.2   2.9  34266  291.37 0854.61
2009/04/23 14:10:08.1      73   -137     21    156    158 151.9   8.0  34278  291.57 0854.61
2009/04/23 14:10:08.2     -21    -75     67     79    103 196.0  44.8  34288  291.74 0854.61
2009/04/23 14:10:08.3      16   -164     98    165    191 174.2  33.7  34308  292.08 0854.61
2009/04/23 14:10:08.4     -19   -140    121    142    186 188.0  44.5  34324  292.35 0854.61
2009/04/23 14:10:08.5     -27   -194    206    197    285 188.1  51.2  34358  292.93 0854.61
2009/04/23 14:10:08.6       2   -142    181    143    230 179.1  57.5  34348  292.78 0854.61
2009/04/23 14:10:08.7    -109   -126    120    167    205 220.8  39.5  34346  292.73 0854.61
2009/04/23 14:10:08.8    -112   -176     79    209    223 212.5  21.5  34348  292.76 0854.61
2009/04/23 14:10:08.9    -105   -217     -4    242    243 205.9  -1.1  34346  292.72 0854.61
2009/04/23 14:10:09.0    -122   -172     68    212    223 215.4  17.9  34380  293.33 0854.61
2009/04/23 14:10:09.1    -125   -228     74    261    272 208.7  15.8  34380  293.30 0854.61
2009/04/23 14:10:09.2    -164   -208     42    265    269 218.3   9.0  34388  293.44 0854.61
2009/04/23 14:10:09.3     -15   -196    158    197    252 184.4  42.8  34340  292.62 0854.61
2009/04/23 14:10:09.4     -95   -196    116    218    246 205.9  30.3  34352  292.82 0854.61
2009/04/23 14:10:09.5    -109   -197     48    226    232 209.0  12.1  34370  293.15 0854.61
2009/04/23 14:10:09.6    -149   -226     90    271    286 213.4  18.4  34354  292.87 0854.61
2009/04/23 14:10:09.7     -87   -225     76    242    254 201.2  17.4  34332  292.48 0854.61
2009/04/23 14:10:09.8      13   -179    106    180    208 175.6  33.5  34302  292.00 0854.61
2009/04/23 14:10:09.9     -23   -187    118    189    222 187.1  35.5  34302  292.00 0854.55
2009/04/23 14:10:10.0     -68   -189    165    202    260 200.0  43.7  34302  291.99 0854.55
2009/04/23 14:10:10.1     -79   -145    118    166    203 208.7  38.8  34334  292.54 0854.55
2009/04/23 14:10:10.2     -66   -183    110    195    223 200.0  31.9  34346  292.75 0854.55
2009/04/23 14:10:10.3    -194   -182     61    267    274 226.9  12.9  34368  293.10 0854.55
2009/04/23 14:10:10.4    -112   -172    130    206    243 213.2  35.5  34316  292.23 0854.55
2009/04/23 14:10:10.5    -148   -158    115    217    245 223.0  30.2  34322  292.31 0854.55
2009/04/23 14:10:10.6     -53   -183    123    191    227 196.3  35.6  34274  291.52 0854.55
2009/04/23 14:10:10.7    -103   -188     96    215    235 208.9  25.7  34270  291.45 0854.55
2009/04/23 14:10:10.8    -132   -151     98    201    223 221.2  27.8  34294  291.86 0854.55
2009/04/23 14:10:10.9     -99   -184     83    209    224 208.3  23.0  34282  291.66 0854.55
2009/04/23 14:10:11.0    -108   -201    134    229    265 208.3  32.9  34292  291.82 0854.55
2009/04/23 14:10:11.1     -33   -172    149    176    230 190.9  44.3  34250  291.11 0854.55
2009/04/23 14:10:11.2     -50   -149    151    158    218 198.7  48.5  34262  291.32 0854.55
2009/04/23 14:10:11.3     -49   -113    152    124    196 203.6  56.4  34272  291.47 0854.55
2009/04/23 14:10:11.4     -65   -102    140    122    185 212.6  54.6  34290  291.77 0854.55
2009/04/23 14:10:11.5    -166   -120     89    205    223 234.1  24.9  34334  292.52 0854.55
2009/04/23 14:10:11.6    -107   -140     74    177    191 217.4  23.8  34312  292.15 0854.55
2009/04/23 14:10:11.7    -109   -171    120    203    235 212.5  33.1  34292  291.81 0854.55
2009/04/23 14:10:11.8    -119   -101     52    157    166 229.6  18.6  34344  292.69 0854.55
2009/04/23 14:10:11.9     -82   -100     71    130    148 219.6  31.3  34308  292.08 0854.59
2009/04/23 14:10:12.0     -37   -106     92    113    145 199.6  43.7  34270  291.45 0854.59
2009/04/23 14:10:12.1     -94   -132    120    163    202 215.6  39.7  34260  291.28 0854.59
2009/04/23 14:10:12.2     -73   -124    113    145    183 210.7  42.0  34262  291.30 0854.59
2009/04/23 14:10:12.3     -76   -125    119    147    189 211.2  43.5  34266  291.37 0854.59
2009/04/23 14:10:12.4     -12    -54    124     56    136 192.5  74.0  34276  291.55 0854.59
2009/04/23 14:10:12.5     -14    -43    146     46    153 197.8  81.2  34296  291.89 0854.59
2009/04/23 14:10:12.6      20    -71    116     74    137 164.0  64.6  34286  291.71 0854.59
2009/04/23 14:10:12.7      13    -70     87     72    112 169.3  56.3  34280  291.60 0854.59
2009/04/23 14:10:12.8       9   -101    122    102    159 174.7  55.8  34274  291.50 0854.59
2009/04/23 14:10:12.9      52   -161    125    170    211 162.0  39.9  34246  291.04 0854.59
2009/04/23 14:10:13.0      13   -112    144    113    183 172.9  58.2  34264  291.35 0854.59
2009/04/23 14:10:13.1     -20   -168    167    170    238 186.9  49.8  34260  291.26 0854.59
2009/04/23 14:10:13.2     -29   -150    109    153    187 191.1  39.1  34252  291.15 0854.59
2009/04/23 14:10:13.3     -55   -154    105    164    194 200.0  35.6  34250  291.09 0854.59
2009/04/23 14:10:13.4     -81   -136     69    159    173 210.7  24.9  34286  291.71 0854.59
2009/04/23 14:10:13.5     -34   -104     59    110    124 198.3  30.8  34270  291.45 0854.59
2009/04/23 14:10:13.6     -34   -146    103    151    182 193.3  37.6  34260  291.26 0854.59
2009/04/23 14:10:13.7     -17    -90    102     92    137 190.7  52.7  34264  291.35 0854.59
2009/04/23 14:10:13.8     -37    -92    130    100    164 202.3  58.7  34244  290.99 0854.59
2009/04/23 14:10:13.9     -82    -97    105    128    165 220.1  43.5  34252  291.15 0854.57
2009/04/23 14:10:14.0    -149    -79     88    169    190 242.0  29.5  34256  291.20 0854.57
2009/04/23 14:10:14.1    -156    -52     23    165    167 251.6   8.2  34326  292.40 0854.57
2009/04/23 14:10:14.2    -196     14    -41    197    202 274.3 -11.9  34354  292.88 0854.57
2009/04/23 14:10:14.3    -163     41      0    169    170 284.2   0.2  34290  291.77 0854.57
2009/04/23 14:10:14.4    -130     -8     46    131    139 266.1  19.4  34280  291.62 0854.57
2009/04/23 14:10:14.5    -174    -58     50    184    191 251.6  15.3  34276  291.54 0854.57
2009/04/23 14:10:14.6    -172    -58     28    182    185 251.2   9.0  34310  292.13 0854.57
2009/04/23 14:10:14.7    -235    -58     -9    243    244 256.1  -2.2  34348  292.76 0854.57
2009/04/23 14:10:14.8    -226    -39    -37    230    234 260.1  -9.3  34324  292.35 0854.57
2009/04/23 14:10:14.9    -211    -55    -63    219    227 255.4 -21.0  34320  292.29 0854.57
2009/04/23 14:10:15.0    -217     -9    -65    218    228 267.4 -16.6  34364  293.04 0854.57
2009/04/23 14:10:15.1    -191     -4    -54    192    200 268.7 -15.8  34362  293.02 0854.57
2009/04/23 14:10:15.2    -203      9    -37    204    208 272.6 -10.5  34368  293.10 0854.57
2009/04/23 14:10:15.3    -193     26    -25    195    197 277.7  -7.3  34386  293.43 0854.57
2009/04/23 14:10:15.4    -151      0    -34    152    156 270.0 -12.9  34356  292.92 0854.57
2009/04/23 14:10:15.5     -94    -84     32    127    132 228.2  14.3  34302  291.98 0854.57
2009/04/23 14:10:15.6    -109   -161     73    195    208 214.1  21.3  34262  291.30 0854.57
2009/04/23 14:10:15.7    -123   -168     98    209    230 216.1  27.1  34242  290.96 0854.57
2009/04/23 14:10:15.8    -127   -160     55    205    213 218.3  15.2  34288  291.76 0854.57
2009/04/23 14:10:15.9    -154   -188    -45    244    249 219.4 -10.5  34214  290.48 0854.60
2009/04/23 14:10:16.0    -159   -162    -75    228    241 224.5 -18.3  34216  290.51 0854.60
2009/04/23 14:10:16.1    -136   -128    -69    188    200 226.7 -25.3  34212  290.45 0854.60
2009/04/23 14:10:16.2    -148   -112    -53    186    193 232.9 -20.7  34200  290.26 0854.60
2009/04/23 14:10:16.3    -154   -163    -62    225    234 223.3 -15.4  34190  290.09 0854.60
2009/04/23 14:10:16.4     -59   -160    -61    171    181 200.3 -24.8  34194  290.16 0854.60
2009/04/23 14:10:16.5     -72   -280    -37    290    293 194.5  -7.3  34226  290.70 0854.60
2009/04/23 14:10:16.6     -99   -293     35    310    312 198.7   6.5  34222  290.63 0854.60
2009/04/23 14:10:16.7    -169   -222     55    280    286 217.2  11.1  34234  290.83 0854.60
2009/04/23 14:10:16.8    -170   -258     15    310    311 213.4   2.9  34226  290.68 0854.60
2009/04/23 14:10:16.9    -154   -295    -99    333    348 207.6 -16.7  34182  289.96 0854.60
2009/04/23 14:10:17.0     -53   -202    -14    210    211 194.9  -3.9  34184  289.99 0854.60
2009/04/23 14:10:17.1      79   -268    -33    280    283 163.5  -6.9  34200  290.26 0854.60
2009/04/23 14:10:17.2      54   -266   -106    272    291 168.4 -26.7  34194  290.14 0854.60
2009/04/23 14:10:17.3      19   -129   -106    131    168 171.5 -47.7  34210  290.41 0854.60
2009/04/23 14:10:17.4     123    -73    -65    144    157 120.7 -30.1  34208  290.38 0854.60
2009/04/23 14:10:17.5     145     29     72    148    164  78.5  28.0  34216  290.53 0854.60
2009/04/23 14:10:17.6      84     87     19    122    124  44.1   9.0  34220  290.60 0854.60
2009/04/23 14:10:17.8     -18     47    107     51    118 338.2  72.9  34224  290.67 0854.60
2009/04/23 14:10:17.9     -23    120    114    123    167 348.9  47.7  34226  290.69 0854.60
2009/04/23 14:10:17.9     -58     96     74    113    135 328.8  35.6  34236  290.87 0854.63
2009/04/23 14:10:18.0     -99     46     58    110    124 294.8  30.3  34230  290.75 0854.63
2009/04/23 14:10:18.2    -101     -7     44    102    111 265.6  25.1  34234  290.82 0854.63
2009/04/23 14:10:18.3    -122    -13      6    123    124 263.8   2.9  34238  290.89 0854.63
2009/04/23 14:10:18.4    -126    -46    -17    135    137 250.0  -7.3  34226  290.70 0854.63
2009/04/23 14:10:18.5    -100   -158    -42    188    193 212.5 -12.6  34244  290.99 0854.63
2009/04/23 14:10:18.6    -223   -162     50    276    281 234.0  10.3  34236  290.87 0854.63
2009/04/23 14:10:18.7    -145   -187     -1    237    238 217.8  -0.3  34212  290.44 0854.63
2009/04/23 14:10:18.8    -144   -196     -4    244    245 216.3  -1.2  34204  290.32 0854.63
2009/04/23 14:10:18.9    -151   -142     -6    208    209 226.8  -1.8  34214  290.50 0854.63
2009/04/23 14:10:19.0    -109   -127      0    168    169 220.5  -0.3  34234  290.84 0854.63
2009/04/23 14:10:19.1       0   -189     72    190    203 180.0  21.5  34210  290.41 0854.63
2009/04/23 14:10:19.2     -39   -193      8    198    199 191.6   2.3  34230  290.75 0854.63
2009/04/23 14:10:19.3     -53   -181      2    189    190 196.5   0.8  34232  290.79 0854.63
2009/04/23 14:10:19.4     -35   -106    -21    112    115 198.7 -10.9  34230  290.75 0854.63
2009/04/23 14:10:19.5     -70   -170    -23    185    187 202.5  -7.3  34236  290.87 0854.63
2009/04/23 14:10:19.6    -105   -181     10    210    211 210.3   2.8  34232  290.79 0854.63
2009/04/23 14:10:19.7    -105   -214    -36    239    242 206.3  -8.6  34238  290.90 0854.63
2009/04/23 14:10:19.8    -141   -193     20    240    241 216.1   4.9  34246  291.04 0854.63
2009/04/23 14:10:19.9    -139   -154     -7    208    209 222.1  -2.1  34260  291.28 0854.63
2009/04/23 14:10:20.0    -120   -140    -52    185    192 220.5 -20.2  34224  290.67 0854.61
2009/04/23 14:10:20.1     -62   -125    -77    140    159 206.3 -35.4  34220  290.60 0854.61
2009/04/23 14:10:20.2     -66    -90   -112    112    158 216.1 -54.5  34232  290.79 0854.61
2009/04/23 14:10:20.3     -58    -81    -97    100    139 215.6 -53.8  34248  291.06 0854.61
2009/04/23 14:10:20.4     -63    -80    -84    102    132 218.3 -48.2  34246  291.04 0854.61
2009/04/23 14:10:20.5     -55   -105    -56    119    131 207.6 -31.5  34234  290.82 0854.61
2009/04/23 14:10:20.6    -102   -157    -24    188    190 213.2  -7.3  34218  290.57 0854.61
2009/04/23 14:10:20.7    -120    -96    -33    154    158 231.4 -12.2  34220  290.60 0854.61
2009/04/23 14:10:20.8    -135   -111    -35    175    179 230.5 -11.6  34228  290.74 0854.61
2009/04/23 14:10:20.9     -96   -178     -9    203    204 208.3  -2.8  34232  290.79 0854.61
2009/04/23 14:10:21.0     -63   -191      1    202    203 198.3   0.5  34226  290.69 0854.61
2009/04/23 14:10:21.1     -68   -340     56    347    352 191.4   9.2  34214  290.50 0854.61
2009/04/23 14:10:21.2    -105   -350     20    366    367 196.7   3.2  34220  290.59 0854.61
2009/04/23 14:10:21.3    -122   -268      9    295    296 204.5   1.8  34222  290.63 0854.61
2009/04/23 14:10:21.4     -91   -247     33    264    267 200.3   7.2  34234  290.82 0854.61
2009/04/23 14:10:21.5    -102   -235     26    257    259 203.4   5.9  34222  290.61 0854.61
2009/04/23 14:10:21.6    -164   -277     32    323    325 210.7   5.8  34232  290.80 0854.61
2009/04/23 14:10:21.7    -154   -350    -50    383    387 203.8  -7.5  34220  290.60 0854.61
2009/04/23 14:10:21.8    -175   -316     59    362    367 209.0   9.3  34214  290.50 0854.61
2009/04/23 14:10:21.9    -188   -317     37    369    371 210.7   5.8  34214  290.49 0854.61
2009/04/23 14:10:22.0    -116   -255      2    281    282 204.5   0.5  34218  290.54 0854.60
2009/04/23 14:10:22.1     -58   -275    112    282    303 192.0  23.0  34216  290.51 0854.60
2009/04/23 14:10:22.2     -77   -253    161    265    310 196.9  34.4  34218  290.54 0854.60
2009/04/23 14:10:22.3    -130   -233    107    268    288 209.2  23.0  34216  290.53 0854.60
2009/04/23 14:10:22.4    -158   -266     72    310    319 210.7  13.2  34218  290.54 0854.60
2009/04/23 14:10:22.5    -258   -257    -17    365    366 225.2  -2.8  34212  290.45 0854.60
2009/04/23 14:10:22.6    -227   -231     45    325    329 224.5   7.9  34204  290.31 0854.60
2009/04/23 14:10:22.7    -155   -219     24    269    271 215.4   5.2  34204  290.32 0854.60
2009/04/23 14:10:22.8    -153   -212     36    262    265 215.8   8.0  34210  290.41 0854.60
2009/04/23 14:10:22.9    -119   -215     47    246    251 209.0  11.0  34212  290.44 0854.60
2009/04/23 14:10:23.0    -313   -179   -108    361    377 240.2 -16.7  34208  290.38 0854.60
2009/04/23 14:10:23.1    -183   -191   -142    265    300 223.7 -35.0  34200  290.26 0854.60
2009/04/23 14:10:23.2    -111   -185   -119    216    246 211.0 -35.8  34198  290.20 0854.60
2009/04/23 14:10:23.3      69   -167    -83    181    199 157.5 -30.8  34198  290.21 0854.60
2009/04/23 14:10:23.4     162   -119     69    202    214 126.4  18.9  34206  290.36 0854.60
2009/04/23 14:10:23.5     174    -88     76    196    210 116.9  22.3  34208  290.38 0854.60
2009/04/23 14:10:23.6     117   -186      4    220    221 147.9   1.2  34210  290.41 0854.60
2009/04/23 14:10:23.7      47   -207     -4    213    214 167.1  -1.1  34208  290.40 0854.60
2009/04/23 14:10:23.8       0   -201    -11    202    203 180.0  -3.1  34210  290.41 0854.60
2009/04/23 14:10:23.9      76   -189    -33    204    207 157.9  -9.3  34214  290.50 0854.60
2009/04/23 14:10:24.0     102   -140    -52    174    182 143.9 -16.8  34210  290.41 0854.54
2009/04/23 14:10:24.1      27   -128    -67    131    147 168.0 -33.6  34210  290.43 0854.54
2009/04/23 14:10:24.2       8    -99    -76    100    125 175.1 -45.6  34210  290.43 0854.54
2009/04/23 14:10:24.3      36    -80    -84     88    121 155.5 -53.4  34206  290.36 0854.54
2009/04/23 14:10:24.4     117    -51    -26    128    131 113.5 -11.9  34208  290.38 0854.54
2009/04/23 14:10:24.5      91     20    -11     94     95  77.2  -7.2  34204  290.33 0854.54
2009/04/23 14:10:24.6      94     26     -1     98     99  74.1  -0.7  34212  290.45 0854.54
2009/04/23 14:10:24.7      64    -65     36     92     98 135.3  22.5  34214  290.48 0854.54
2009/04/23 14:10:24.8       3   -117    -50    118    128 178.2 -29.0  34210  290.43 0854.54
2009/04/23 14:10:24.9     -20   -138    -65    140    154 188.5 -31.5  34208  290.38 0854.54
2009/04/23 14:10:25.0     -17   -156    -79    157    175 186.3 -33.1  34224  290.67 0854.54
2009/04/23 14:10:25.1     -21   -152   -110    154    189 188.0 -43.7  34244  291.01 0854.54
2009/04/23 14:10:25.2     -38   -208    -67    212    223 190.5 -17.6  34228  290.74 0854.54
2009/04/23 14:10:25.3    -153   -188   -102    243    263 219.2 -28.5  34224  290.66 0854.54
2009/04/23 14:10:25.4     -67   -187    -66    199    209 200.0 -23.8  34222  290.62 0854.54
2009/04/23 14:10:25.5    -167   -109    -64    200    211 236.7 -17.9  34230  290.77 0854.54
2009/04/23 14:10:25.6    -200   -139    -38    244    248 235.1  -9.0  34228  290.71 0854.54
2009/04/23 14:10:25.7    -113   -164     87    200    218 214.7  25.1  34228  290.72 0854.54
2009/04/23 14:10:25.8    -172   -202     60    266    273 220.5  12.9  34224  290.66 0854.54
2009/04/23 14:10:25.9     -38   -110     84    117    144 199.2  39.5  34228  290.74 0854.54
2009/04/23 14:10:26.0      48   -134    125    143    189 160.0  45.6  34224  290.67 0854.53
2009/04/23 14:10:26.1      47   -119    118    129    174 158.2  47.1  34226  290.69 0854.53
2009/04/23 14:10:26.2      65   -140    114    155    192 155.1  39.7  34218  290.55 0854.53
2009/04/23 14:10:26.3       9   -127    109    128    168 175.5  44.8  34222  290.64 0854.53
2009/04/23 14:10:26.4      31   -148    107    152    185 168.0  38.6  34216  290.53 0854.53
2009/04/23 14:10:26.5      38   -178    107    183    211 167.7  33.4  34214  290.48 0854.53
2009/04/23 14:10:26.6     141   -160    155    214    264 138.5  39.7  34214  290.48 0854.53
2009/04/23 14:10:26.7     161   -187    140    247    283 139.2  31.9  34220  290.58 0854.53
2009/04/23 14:10:26.8     130   -233    176    267    319 150.8  36.4  34214  290.48 0854.53
2009/04/23 14:10:26.9      89   -291    194    305    361 163.0  35.5  34212  290.45 0854.53
2009/04/23 14:10:27.0     129   -323    154    348    380 158.2  25.6  34218  290.57 0854.53
2009/04/23 14:10:27.1     204   -286    109    352    369 144.5  17.3  34214  290.49 0854.53
2009/04/23 14:10:27.2     105   -289    108    308    327 160.0  19.4  34220  290.59 0854.53
2009/04/23 14:10:27.3      70   -301    100    310    326 166.9  17.9  34220  290.58 0854.53
2009/04/23 14:10:27.4      88   -288     77    302    312 163.0  14.3  34220  290.58 0854.53
2009/04/23 14:10:27.5       6   -395     77    396    404 179.0  11.0  34222  290.64 0854.53
2009/04/23 14:10:27.6      46   -383     52    386    390 173.1   7.8  34222  290.64 0854.53
2009/04/23 14:10:27.7      20   -381    138    382    407 177.0  19.9  34226  290.69 0854.53
2009/04/23 14:10:27.8      30   -338    118    340    361 174.9  19.2  34228  290.72 0854.53
2009/04/23 14:10:27.9      62   -366    101    372    386 170.3  15.3  34230  290.76 0854.53
2009/04/23 14:10:28.0     159   -521      4    545    546 163.0   0.5  34216  290.53 0854.45
2009/04/23 14:10:28.1     241   -546     72    598    603 156.2   6.9  34220  290.58 0854.45
2009/04/23 14:10:28.2     284   -485    203    563    599 149.6  19.9  34218  290.56 0854.45
2009/04/23 14:10:28.3     171   -550    204    577    613 162.7  19.5  34220  290.58 0854.45
2009/04/23 14:10:28.4      43   -603    174    605    630 175.9  16.0  34230  290.76 0854.45
2009/04/23 14:10:28.5      19   -627    175    628    652 178.2  15.6  34202  290.28 0854.45
2009/04/23 14:10:28.6     121   -567    249    580    631 167.9  24.6  34202  290.28 0854.45
2009/04/23 14:10:28.7      24   -544    305    545    624 177.4  31.9  34218  290.56 0854.45
2009/04/23 14:10:28.8      69   -751    148    755    770 174.7  11.1  34188  290.04 0854.45
2009/04/23 14:10:28.9     156   -735    341    752    825 168.0  26.0  34202  290.29 0854.45
2009/04/23 14:10:29.0     208  -1030    235   1051   1078 168.6  12.6  34168  289.71 0854.42
2009/04/23 14:10:29.1     186  -1134    217   1150   1171 170.7  10.7  34174  289.80 0854.42
2009/04/23 14:10:29.2      36  -1163    250   1164   1191 178.2  12.2  34174  289.80 0854.42
2009/04/23 14:10:29.3      17  -1112    280   1113   1148 179.1  14.2  34174  289.81 0854.42
2009/04/23 14:10:29.4      70  -1034     76   1037   1040 176.1   4.2  34184  289.97 0854.42
2009/04/23 14:10:29.5     -36   -710    126    711    723 182.9  10.1  34198  290.22 0854.42
2009/04/23 14:10:29.6      79   -877    -84    881    886 174.8  -5.5  34192  290.13 0854.42
2009/04/23 14:10:29.7    -422   -564     25    705    706 216.8   2.1  34182  289.96 0854.42
2009/04/23 14:10:29.8       1   -618     -7    619    620 179.9  -0.7  34196  290.18 0854.42
2009/04/23 14:10:29.9      88   -876   -193    881    903 174.2 -12.4  34198  290.22 0854.42
2009/04/23 14:10:30.0     -19   -678   -161    679    698 181.6 -13.4  34194  290.16 0854.42
2009/04/23 14:10:30.1       0   -775      0    776    777 180.0   0.0  34172  289.76 0854.42
2009/04/23 14:10:30.2     -17   -781    -15    782    783 181.3  -1.1  34166  289.66 0854.42
2009/04/23 14:10:30.3     -43   -784    -90    786    792 183.2  -6.6  34164  289.64 0854.42
2009/04/23 14:10:30.4    -108   -825    -75    832    836 187.5  -5.2  34166  289.67 0854.42
2009/04/23 14:10:30.5    -167   -808    -85    826    831 191.7  -5.9  34164  289.65 0854.42
2009/04/23 14:10:30.6     -78   -866   -103    870    877 185.2  -6.8  34172  289.76 0854.42
2009/04/23 14:10:30.7     -94   -774     -6    780    781 187.0  -0.5  34170  289.73 0854.42
2009/04/23 14:10:30.8     -76   -740    -33    744    745 185.9  -2.6  34174  289.80 0854.42
2009/04/23 14:10:30.9     -24   -738    -34    739    740 181.9  -2.7  34174  289.82 0854.42
2009/04/23 14:10:31.0       8   -825      4    826    827 179.4   0.3  34168  289.72 0854.41
2009/04/23 14:10:31.1      24   -798    -45    799    801 178.2  -3.3  34168  289.71 0854.41
2009/04/23 14:10:31.2     -18   -761    -43    762    764 181.4  -3.3  34164  289.65 0854.41
2009/04/23 14:10:31.3     -47   -770    -23    772    773 183.5  -1.7  34170  289.73 0854.41
2009/04/23 14:10:31.4     -24   -787    -94    788    794 181.8  -6.9  34166  289.66 0854.41
2009/04/23 14:10:31.5       3   -799    -81    800    805 179.8  -5.8  34166  289.66 0854.41
2009/04/23 14:10:31.6       1   -798   -123    799    809 179.9  -8.8  34158  289.53 0854.41
2009/04/23 14:10:31.7       0   -816    -34    817    818 180.0  -2.4  34154  289.48 0854.41
2009/04/23 14:10:31.8     -19   -741    -49    742    744 181.5  -3.8  34158  289.53 0854.41
2009/04/23 14:10:31.9      54   -779   -132    781    793 176.0  -9.6  34156  289.49 0854.41
2009/04/23 14:10:32.0      43   -708    -55    710    713 176.5  -4.5  34156  289.52 0854.41
2009/04/23 14:10:32.1     -36   -642   -129    644    657 183.3 -11.3  34156  289.50 0854.41
2009/04/23 14:10:32.2      33   -614     63    615    619 176.9   5.9  34154  289.47 0854.41
2009/04/23 14:10:32.3      52   -676     54    679    682 175.5   4.6  34154  289.48 0854.41
2009/04/23 14:10:32.4     108   -666     44    675    677 170.8   3.7  34154  289.46 0854.41
2009/04/23 14:10:32.5     112   -755     10    764    765 171.5   0.8  34152  289.45 0854.41
2009/04/23 14:10:32.6      42   -707    -63    709    712 176.6  -5.1  34154  289.47 0854.41
2009/04/23 14:10:32.7      60   -716   -130    719    731 175.2 -10.3  34156  289.52 0854.41
2009/04/23 14:10:32.8      86   -670   -111    676    686 172.7  -9.3  34158  289.54 0854.41
2009/04/23 14:10:32.9     136   -543     35    560    562 165.9   3.6  34148  289.36 0854.41
2009/04/23 14:10:33.0      43   -557    100    559    569 175.5  10.2  34162  289.60 0854.47
2009/04/23 14:10:33.1      83   -594     18    600    601 172.0   1.8  34156  289.52 0854.47
2009/04/23 14:10:33.2     123   -517    -20    532    533 166.6  -2.2  34164  289.63 0854.47
2009/04/23 14:10:33.3      95   -468     79    478    485 168.4   9.4  34168  289.71 0854.47
2009/04/23 14:10:33.4      48   -467     78    470    477 174.0   9.5  34178  289.88 0854.47
2009/04/23 14:10:33.5     103   -519    147    530    551 168.8  15.6  34158  289.53 0854.47
2009/04/23 14:10:33.6      73   -501    153    507    530 171.7  16.8  34168  289.70 0854.47
2009/04/23 14:10:33.7      64   -595    255    599    651 173.8  24.5  34158  289.53 0854.47
2009/04/23 14:10:33.8      84   -651     69    657    661 172.6   6.1  34166  289.68 0854.47
2009/04/23 14:10:33.9     108   -762   -190    770    794 171.9 -13.9  34162  289.61 0854.47
2009/04/23 14:10:34.0      53   -698   -163    700    719 175.6 -13.1  34180  289.91 0854.47
2009/04/23 14:10:34.1      92   -730    -62    736    739 172.8  -4.9  34186  290.02 0854.47
2009/04/23 14:10:34.2     138   -670    -80    685    690 168.3  -6.7  34178  289.88 0854.47
2009/04/23 14:10:34.3     174   -589     96    615    623 163.5   8.9  34178  289.86 0854.47
2009/04/23 14:10:34.4     308   -681    -94    748    754 155.7  -7.2  34186  290.02 0854.47
2009/04/23 14:10:34.5     300   -544    -25    622    623 151.1  -2.4  34188  290.03 0854.47
2009/04/23 14:10:34.6     146   -526   -110    546    557 164.5 -11.5  34184  289.97 0854.47
2009/04/23 14:10:34.7     159   -541   -179    564    591 163.6 -22.6  34188  290.03 0854.47
2009/04/23 14:10:34.8     183   -461    -35    497    499 158.3  -4.1  34178  289.88 0854.47
2009/04/23 14:10:34.9      32   -430    -39    432    434 175.7  -5.2  34186  290.02 0854.47
2009/04/23 14:10:35.0      32   -582    -31    583    584 176.8  -3.1  34188  290.03 0854.52
2009/04/23 14:10:35.1      42   -533    -88    535    543 175.4  -9.4  34192  290.11 0854.52
2009/04/23 14:10:35.2      53   -551      0    554    555 174.4   0.0  34192  290.11 0854.52
2009/04/23 14:10:35.3      23   -508    -68    509    514 177.4  -7.7  34188  290.03 0854.52
2009/04/23 14:10:35.4      88   -456    -10    465    466 169.0  -1.3  34188  290.06 0854.52
2009/04/23 14:10:35.5       7   -497      8    498    499 179.1   1.0  34192  290.12 0854.52
2009/04/23 14:10:35.6      -3   -435    -23    436    437 180.5  -3.1  34190  290.07 0854.52
2009/04/23 14:10:35.7     -62   -363     10    369    370 189.7   1.6  34198  290.20 0854.52
2009/04/23 14:10:35.8      60   -299      1    306    307 168.5   0.2  34192  290.12 0854.52
2009/04/23 14:10:35.9     -12   -279    -88    280    294 182.6 -17.6  34192  290.10 0854.52
2009/04/23 14:10:36.0      11   -297    -59    298    304 177.8 -11.3  34194  290.15 0854.52
2009/04/23 14:10:36.1      23   -271    -39    273    276 175.1  -8.3  34190  290.09 0854.52
2009/04/23 14:10:36.2       0   -256    -73    257    267 180.0 -20.7  34190  290.09 0854.52
2009/04/23 14:10:36.3       0   -239    -17    240    241 179.8  -4.1  34192  290.12 0854.52
2009/04/23 14:10:36.4      69   -248    -90    258    273 164.4 -24.4  34194  290.14 0854.52
2009/04/23 14:10:36.5     107   -220    -79    245    257 153.9 -22.9  34194  290.14 0854.52
2009/04/23 14:10:36.6      38   -224    -20    228    229 170.4  -5.2  34194  290.14 0854.52
2009/04/23 14:10:36.7      69   -228     80    239    253 163.1  18.6  34190  290.09 0854.52
2009/04/23 14:10:36.8      89   -226   -118    244    271 158.4 -31.7  34192  290.12 0854.52
2009/04/23 14:10:36.9      89   -189    -56    210    218 154.7 -15.0  34192  290.13 0854.52
2009/04/23 14:10:37.0      68   -267    -50    276    281 165.7 -10.3  34194  290.14 0854.55
2009/04/23 14:10:37.1     103   -293    -43    311    314 160.6  -7.9  34192  290.10 0854.55
2009/04/23 14:10:37.2     138   -258    -89    293    307 151.9 -17.0  34190  290.09 0854.55
2009/04/23 14:10:37.3     133   -205    -73    245    256 147.0 -16.8  34192  290.12 0854.55
2009/04/23 14:10:37.4     -59   -197    -70    206    217 196.9 -23.6  34196  290.18 0854.55
2009/04/23 14:10:37.5     -31   -176    -23    179    181 190.0  -7.3  34194  290.16 0854.55
2009/04/23 14:10:37.6      22   -201    -11    203    204 173.5  -3.1  34196  290.19 0854.55
2009/04/23 14:10:37.7       6   -204    -11    205    206 178.2  -3.2  34198  290.21 0854.55
2009/04/23 14:10:37.8     -22   -217     27    219    221 185.8   7.1  34198  290.23 0854.55
2009/04/23 14:10:37.9     -54   -203     10    211    212 195.1   2.8  34200  290.25 0854.55
2009/04/23 14:10:38.0     -63   -172    -22    184    186 200.3  -6.9  34202  290.30 0854.55
2009/04/23 14:10:38.1     -80   -113    -38    139    145 215.2 -15.5  34208  290.40 0854.55
2009/04/23 14:10:38.2    -107    -88    -37    139    144 230.4 -15.0  34216  290.53 0854.55
2009/04/23 14:10:38.3    -166      0    -28    167    170 269.9  -9.6  34212  290.45 0854.55
2009/04/23 14:10:38.4     -92     21     32     95    101 283.3  18.9  34218  290.55 0854.55
2009/04/23 14:10:38.5     -19     31     -4     37     38 327.5  -7.2  34210  290.43 0854.55
2009/04/23 14:10:38.6      67     34    -70     76    103  62.9 -52.3  34206  290.35 0854.55
2009/04/23 14:10:38.8      29    -87    -50     92    104 161.5 -35.8  34194  290.14 0854.55
2009/04/23 14:10:38.9     151     86     22    175    177  60.2   7.2  34190  290.09 0854.55
2009/04/23 14:10:38.9     152     66    167    166    235  66.5  50.1  34186  290.01 0854.55
2009/04/23 14:10:39.0      74     61    216     96    236  50.5  74.8  34210  290.43 0854.57
2009/04/23 14:10:39.1      17     67    187     70    199  14.3  78.9  34222  290.62 0854.57
2009/04/23 14:10:39.2     -12    175    143    176    226 356.0  43.7  34204  290.31 0854.57
2009/04/23 14:10:39.3     139    119    150    184    237  49.3  43.5  34196  290.19 0854.57
2009/04/23 14:10:39.4     157    104    180    189    261  56.3  48.5  34238  290.88 0854.57
2009/04/23 14:10:39.5      57     54    124     79    147  46.8  64.7  34246  291.04 0854.57
2009/04/23 14:10:39.6      -4     45    100     46    110 353.8  73.1  34254  291.18 0854.57
2009/04/23 14:10:39.7     -56     30     89     64    109 298.9  60.6  34264  291.33 0854.57
2009/04/23 14:10:39.8      -8      4     90     10     90 298.9  90.0  34240  290.92 0854.57
2009/04/23 14:10:40.0      67     85    156    109    190  38.3  61.8  34214  290.48 0854.57
2009/04/23 14:10:40.1       0     38     67     39     77 359.1  66.8  34228  290.74 0854.57
2009/04/23 14:10:40.1      22     33     87     40     95  34.3  73.5  34262  291.30 0854.57
2009/04/23 14:10:40.2     120    120    187    170    252  45.0  53.2  34256  291.21 0854.57
2009/04/23 14:10:40.3      44     -9    309     46    312 102.4  90.0  34270  291.43 0854.57
2009/04/23 14:10:40.4     114    118    233    165    285  43.9  61.5  34292  291.80 0854.57
2009/04/23 14:10:40.5      70     97    210    120    241  36.0  67.7  34296  291.89 0854.57
2009/04/23 14:10:40.6      29     24    188     38    191  50.5  89.0  34282  291.64 0854.57
2009/04/23 14:10:40.7     108    120    281    162    324  41.9  67.6  34294  291.84 0854.57
2009/04/23 14:10:40.8     102    108    223    149    268  43.3  63.4  34296  291.87 0854.57
2009/04/23 14:10:40.9     -66   -152     85    166    186 203.6  29.1  34302  292.00 0854.57
2009/04/23 14:10:41.0     -42   -159    123    165    205 195.1  40.7  34290  291.79 0854.56
2009/04/23 14:10:41.1     -44   -261    254    265    367 189.7  48.7  34288  291.74 0854.56
2009/04/23 14:10:41.2    -130   -335    245    360    435 201.3  37.6  34310  292.13 0854.56
2009/04/23 14:10:41.3    -149   -325    180    358    400 204.6  28.7  34258  291.25 0854.56
2009/04/23 14:10:41.4      70   -458    211    464    509 171.3  26.2  34228  290.73 0854.56
2009/04/23 14:10:41.5      60   -371    140    376    401 170.8  21.4  34220  290.59 0854.56
2009/04/23 14:10:41.6       7   -250    211    251    327 178.4  44.3  34232  290.78 0854.56
2009/04/23 14:10:41.7     145   -221    169    265    314 146.6  35.6  34234  290.83 0854.56
2009/04/23 14:10:41.8     123   -155    229    199    303 141.5  54.6  34240  290.93 0854.56
2009/04/23 14:10:41.9      25   -257    148    259    298 174.4  32.3  34228  290.71 0854.56
2009/04/23 14:10:42.0    -103   -360    188    375    419 196.0  28.5  34228  290.72 0854.56
2009/04/23 14:10:42.1      76   -411    257    418    490 169.5  34.4  34238  290.91 0854.56
2009/04/23 14:10:42.2     100   -402    225    415    472 166.0  30.8  34238  290.90 0854.56
2009/04/23 14:10:42.3       4   -415    312    416    520 179.4  40.7  34242  290.95 0854.56
2009/04/23 14:10:42.4      60   -403    240    408    473 171.4  33.1  34236  290.85 0854.56
2009/04/23 14:10:42.5      24   -362    190    363    409 176.2  30.1  34248  291.06 0854.56
2009/04/23 14:10:42.6      64   -311    249    318    403 168.2  42.1  34248  291.06 0854.56
2009/04/23 14:10:42.7      99   -272    254    290    385 159.9  45.8  34272  291.47 0854.56
2009/04/23 14:10:42.8     -40   -280    315    283    423 188.2  53.5  34274  291.51 0854.56
2009/04/23 14:10:42.9    -154   -251    260    295    393 211.6  45.8  34258  291.23 0854.56
2009/04/23 14:10:43.0      33   -157    150    161    220 168.0  47.9  34252  291.15 0854.59
2009/04/23 14:10:43.1      -8   -158    193    159    250 183.1  56.4  34246  291.04 0854.59
2009/04/23 14:10:43.2    -103   -157    181    189    261 213.4  49.0  34236  290.85 0854.59
2009/04/23 14:10:43.3     -69   -191    266    204    335 199.8  58.9  34236  290.85 0854.59
2009/04/23 14:10:43.4     -94   -279    119    295    318 198.7  23.2  34226  290.68 0854.59
2009/04/23 14:10:43.5     -30   -336    133    338    363 185.2  22.7  34228  290.71 0854.59
2009/04/23 14:10:43.6    -125   -465    137    482    502 195.1  15.9  34232  290.81 0854.59
2009/04/23 14:10:43.7    -125   -298     96    324    338 202.8  16.5  34254  291.18 0854.59
2009/04/23 14:10:43.8    -212   -311    219    377    435 214.4  32.9  34248  291.06 0854.59
2009/04/23 14:10:43.9    -192   -345    -45    396    399 209.1  -6.5  34248  291.05 0854.59
2009/04/23 14:10:44.0     -95   -293   -106    309    327 198.0 -19.0  34236  290.85 0854.59
2009/04/23 14:10:44.1    -140   -276     74    310    319 207.0  13.5  34240  290.92 0854.59
2009/04/23 14:10:44.2     -44   -219     97    224    244 191.5  24.9  34230  290.75 0854.59
2009/04/23 14:10:44.3     -87   -157     53    180    188 209.0  16.6  34240  290.94 0854.59
2009/04/23 14:10:44.4     -81   -139     65    161    173 210.3  23.0  34238  290.91 0854.59
2009/04/23 14:10:44.5     -37   -123     80    129    151 197.0  35.5  34242  290.96 0854.59
2009/04/23 14:10:44.6     -69   -159    114    174    208 203.4  36.3  34234  290.84 0854.59
2009/04/23 14:10:44.7     -77   -134    166    155    227 209.9  52.2  34236  290.86 0854.59
2009/04/23 14:10:44.8    -107   -100    169    147    223 226.8  54.3  34238  290.91 0854.59
2009/04/23 14:10:45.0     -70    -45    156     84    177 237.5  69.3  34250  291.09 0854.59
2009/04/23 14:10:45.1     -35    -22    117     42    124 237.6  80.2  34262  291.30 0854.58
2009/04/23 14:10:45.2     -28     -2    120     29    123 265.6  86.9  34262  291.30 0854.58
2009/04/23 14:10:45.3     -24    -96    156    100    185 194.3  64.6  34246  291.03 0854.58
2009/04/23 14:10:45.4    -147   -126    143    194    241 229.3  40.1  34246  291.03 0854.58
2009/04/23 14:10:45.5     -77   -162     91    180    201 205.4  29.1  34246  291.03 0854.58
2009/04/23 14:10:45.6     -87    -78     58    118    131 228.2  27.8  34248  291.06 0854.58
2009/04/23 14:10:45.7     -38    -83     25     92     96 204.5  15.3  34250  291.11 0854.58
2009/04/23 14:10:45.8      59    -67     56     90    106 139.0  35.5  34266  291.37 0854.58
2009/04/23 14:10:45.9     -13   -287     85    288    301 182.7  16.4  34224  290.66 0854.58
2009/04/23 14:10:46.0      77   -285   -110    296    315 164.9 -25.8  34224  290.66 0854.58
2009/04/23 14:10:46.1      60   -271   -198    278    341 167.5 -43.4  34196  290.19 0854.58
2009/04/23 14:10:46.2    -163   -223    -66    277    285 216.1 -13.4  34206  290.34 0854.58
2009/04/23 14:10:46.3    -182   -157     78    241    254 229.1  17.9  34198  290.20 0854.58
2009/04/23 14:10:46.4    -178   -183    130    256    287 224.1  29.2  34214  290.48 0854.58
2009/04/23 14:10:46.5     -94   -224     66    244    253 202.8  15.3  34210  290.41 0854.58
2009/04/23 14:10:46.6     -19   -259    140    260    295 184.4  30.8  34214  290.49 0854.58
2009/04/23 14:10:46.7     -32   -297    109    299    318 186.2  21.0  34210  290.42 0854.58
2009/04/23 14:10:46.8     -76   -448    115    455    470 189.7  14.2  34186  290.00 0854.58
2009/04/23 14:10:46.9    -150   -273     69    312    320 208.9  12.6  34196  290.17 0854.58
2009/04/23 14:10:47.0      47   -218    203    224    302 167.7  47.0  34192  290.10 0854.58
2009/04/23 14:10:47.1       6   -360    180    361    403 179.0  28.4  34208  290.37 0854.58
2009/04/23 14:10:47.2    -150   -266     72    306    315 209.4  13.3  34188  290.05 0854.58
2009/04/23 14:10:47.3    -112   -198    -67    228    237 209.6 -21.0  34192  290.12 0854.58
2009/04/23 14:10:47.4    -217   -345   -158    408    437 212.2 -26.7  34170  289.75 0854.58
2009/04/23 14:10:47.5     -21   -270   -214    271    345 184.5 -46.8  34170  289.75 0854.58
2009/04/23 14:10:47.6      14   -184    -70    185    197 175.6 -25.9  34204  290.31 0854.58
2009/04/23 14:10:47.7      25   -207     61    209    218 172.9  16.3  34184  289.97 0854.58
2009/04/23 14:10:47.8     -86   -367    124    378    398 193.3  18.2  34188  290.06 0854.58
2009/04/23 14:10:47.9     -10   -359     87    360    371 181.6  13.6  34182  289.96 0854.58
2009/04/23 14:10:48.0     -57   -235     75    242    254 193.8  17.3  34190  290.07 0854.58
2009/04/23 14:10:48.1     -66   -200    119    211    242 198.3  32.1  34196  290.17 0854.58
2009/04/23 14:10:48.2     -50   -152     84    161    181 198.3  29.8  34190  290.08 0854.58
2009/04/23 14:10:48.3       8   -284    166    285    329 178.2  33.0  34196  290.17 0854.58
2009/04/23 14:10:48.4      39   -287    157    290    329 172.2  30.7  34190  290.09 0854.58
2009/04/23 14:10:48.5      52   -279    159    284    325 169.3  31.7  34192  290.10 0854.58
2009/04/23 14:10:48.6     100   -315    212    331    393 162.3  35.6  34192  290.13 0854.58
2009/04/23 14:10:48.7     127   -386    145    407    432 161.7  20.6  34190  290.07 0854.58
2009/04/23 14:10:48.8     244   -448    179    511    542 151.4  19.3  34182  289.96 0854.58
2009/04/23 14:10:48.9     215   -595    294    633    697 160.1  26.7  34178  289.87 0854.58
2009/04/23 14:10:49.0     148   -595    337    614    700 166.0  31.3  34180  289.92 0854.58
2009/04/23 14:10:49.1     143   -645    147    661    678 167.5  12.6  34188  290.05 0854.58
2009/04/23 14:10:49.2      37   -589    123    591    604 176.4  11.8  34184  289.97 0854.58
2009/04/23 14:10:49.3     159   -421    221    451    502 159.3  28.0  34196  290.17 0854.58
2009/04/23 14:10:49.4     -48   -447     97    450    461 186.2  12.2  34188  290.05 0854.58
2009/04/23 14:10:49.5      70   -390    192    397    440 169.8  27.7  34186  290.00 0854.58
2009/04/23 14:10:49.6      86   -464    293    472    555 169.4  34.9  34190  290.09 0854.58
2009/04/23 14:10:49.7      92   -445    283    455    535 168.3  35.0  34192  290.13 0854.58
2009/04/23 14:10:49.8     161   -245    183    294    346 146.6  35.0  34202  290.27 0854.58
2009/04/23 14:10:49.9     106   -170    192    201    277 148.1  48.7  34202  290.29 0854.58
2009/04/23 14:10:50.0     -72   -268     95    278    294 195.2  18.9  34196  290.19 0854.58
2009/04/23 14:10:50.1     178   -124    155    218    267 124.9  38.8  34206  290.36 0854.54
2009/04/23 14:10:50.2     143   -140    153    201    252 134.4  41.2  34204  290.31 0854.54
2009/04/23 14:10:50.3      -3   -221    185    222    288 180.9  43.8  34196  290.19 0854.54
2009/04/23 14:10:50.4       8   -377    -31    378    380 178.8  -4.8  34198  290.21 0854.54
2009/04/23 14:10:50.5       5   -341     52    342    346 179.1   8.7  34200  290.25 0854.54
2009/04/23 14:10:50.6      32   -320    -35    322    324 174.2  -6.2  34200  290.24 0854.54
2009/04/23 14:10:50.7       5   -302    -74    303    312 178.9 -13.8  34206  290.34 0854.54
2009/04/23 14:10:50.8    -146   -284     86    320    332 207.3  15.2  34198  290.20 0854.54
2009/04/23 14:10:50.9    -125   -375    124    396    416 198.5  17.4  34206  290.36 0854.54
2009/04/23 14:10:51.0    -123   -288    107    314    333 203.2  18.9  34206  290.36 0854.54
2009/04/23 14:10:51.1    -157   -245    134    292    321 212.7  26.3  34204  290.32 0854.54
2009/04/23 14:10:51.2    -212   -270    192    344    393 218.1  31.6  34206  290.35 0854.54
2009/04/23 14:10:51.3    -207   -150    143    256    293 234.1  31.4  34210  290.42 0854.54
2009/04/23 14:10:51.4    -292    -25     33    294    296 265.0   6.5  34228  290.71 0854.54
2009/04/23 14:10:51.5    -112   -136    175    177    248 219.6  50.0  34214  290.48 0854.54
2009/04/23 14:10:51.6    -100    -81     88    130    156 230.9  37.8  34226  290.70 0854.54
2009/04/23 14:10:51.7    -191     23    -60    193    202 277.0 -22.1  34214  290.50 0854.54
2009/04/23 14:10:51.8     -21     20   -180     30    182 313.3 -90.0  34234  290.82 0854.54
2009/04/23 14:10:51.9      21    -83   -116     86    144 165.7 -64.9  34224  290.67 0854.54
2009/04/23 14:10:52.0       0   -131   -103    132    167 180.4 -46.6  34218  290.57 0854.54
2009/04/23 14:10:52.1     111   -102    -76    151    169 132.7 -32.9  34212  290.45 0854.52
2009/04/23 14:10:52.2     172    -72    -64    187    198 112.8 -19.1  34218  290.55 0854.52
2009/04/23 14:10:52.3     173    -91     -9    196    197 117.8  -2.8  34216  290.53 0854.52
2009/04/23 14:10:52.4      96   -197    -85    220    235 153.9 -26.5  34214  290.50 0854.52
2009/04/23 14:10:52.5     106   -192    -46    220    225 151.0 -11.9  34220  290.58 0854.52
2009/04/23 14:10:52.6     -13   -222      6    223    224 183.4   1.6  34218  290.57 0854.52
2009/04/23 14:10:52.7    -170    -55    -51    179    186 251.8 -20.4  34216  290.53 0854.52
2009/04/23 14:10:52.8    -184    -68     17    197    198 249.6   5.0  34226  290.69 0854.52
2009/04/23 14:10:52.9    -217    -51     66    223    233 256.7  16.6  34216  290.53 0854.52
2009/04/23 14:10:53.0    -266   -146    109    304    322 241.1  20.4  34220  290.59 0854.52
2009/04/23 14:10:53.1    -260   -224     83    344    354 229.3  13.7  34210  290.42 0854.52
2009/04/23 14:10:53.2    -283   -186     42    339    342 236.7   7.1  34220  290.60 0854.52
2009/04/23 14:10:53.3    -236   -148     10    279    280 237.8   2.1  34224  290.65 0854.52
2009/04/23 14:10:53.4    -162   -157     66    226    236 225.8  16.4  34214  290.49 0854.52
2009/04/23 14:10:53.5    -118    -99    131    155    202 230.0  44.8  34222  290.64 0854.52
2009/04/23 14:10:53.6    -166   -103     82    196    212 238.0  24.1  34230  290.75 0854.52
2009/04/23 14:10:53.7    -158    -63      5    171    172 248.3   1.8  34202  290.28 0854.52
2009/04/23 14:10:53.8    -132    -37     52    138    147 254.1  21.5  34210  290.43 0854.52
2009/04/23 14:10:53.9    -170    -26    -39    172    177 261.2 -12.9  34198  290.21 0854.52
2009/04/23 14:10:54.0    -239   -100    -47    260    265 247.2 -10.4  34204  290.31 0854.52
2009/04/23 14:10:54.1    -230    -15     29    231    233 266.1   7.2  34200  290.25 0854.51
2009/04/23 14:10:54.2    -155    -10     69    156    170 266.1  25.3  34220  290.58 0854.51
2009/04/23 14:10:54.3    -149     12     38    150    155 274.8  14.3  34216  290.53 0854.51
2009/04/23 14:10:54.4     -18     82   -100     84    130 347.5 -60.7  34192  290.13 0854.51
2009/04/23 14:10:54.5     -44     25   -133     51    142 299.8 -82.6  34192  290.13 0854.51
2009/04/23 14:10:54.6      -8     -8    -99     12     99 226.9 -90.0  34194  290.14 0854.51
2009/04/23 14:10:54.7     -63     47   -144     79    164 306.9 -73.2  34188  290.06 0854.51
2009/04/23 14:10:54.8     -15     17   -117     24    119 318.6 -90.0  34194  290.14 0854.51
2009/04/23 14:10:54.9       4     61    -92     62    110   4.5 -67.6  34192  290.13 0854.51
2009/04/23 14:10:55.0      15     49    -80     52     95  17.8 -69.0  34194  290.14 0854.51
2009/04/23 14:10:55.1      21     37    -90     43     99  29.9 -77.3  34190  290.08 0854.51
2009/04/23 14:10:55.2      56    -13    -26     58     63 103.3 -29.5  34188  290.04 0854.51
2009/04/23 14:10:55.3      69    -43    -32     82     88 122.4 -26.4  34184  289.99 0854.51
2009/04/23 14:10:55.4      -7   -104    -31    105    109 184.0 -21.7  34184  289.97 0854.51
2009/04/23 14:10:55.5      -7    -49    -26     50     56 188.9 -33.7  34186  290.02 0854.51
2009/04/23 14:10:55.6     -53    -33    -56     63     84 237.6 -51.3  34192  290.13 0854.51
2009/04/23 14:10:55.7     -39    -22    -80     45     91 240.2 -72.7  34198  290.21 0854.51
2009/04/23 14:10:55.8      -7    -54    -71     55     89 188.0 -62.3  34196  290.19 0854.51
2009/04/23 14:10:55.9     -13    -54    -61     56     82 194.3 -56.6  34192  290.13 0854.51
2009/04/23 14:10:56.0      18    -45    -75     49     89 157.3 -68.5  34192  290.13 0854.51
2009/04/23 14:10:56.1      34    -58    -62     68     92 149.3 -51.9  34188  290.04 0854.52
2009/04/23 14:10:56.2      41    -86    -11     96     97 154.5  -6.7  34184  289.97 0854.52
2009/04/23 14:10:56.3     121   -156    -50    198    205 142.2 -14.3  34180  289.92 0854.52
2009/04/23 14:10:56.4      22   -230    -82    232    247 174.4 -19.6  34184  289.98 0854.52
2009/04/23 14:10:56.5      46   -225    -39    230    234 168.4  -9.6  34180  289.92 0854.52
2009/04/23 14:10:56.6      76   -230     -2    243    244 161.7  -0.5  34182  289.93 0854.52
2009/04/23 14:10:56.7      75   -249     10    261    262 163.1   2.3  34182  289.95 0854.52
2009/04/23 14:10:56.8      61   -275    -19    282    283 167.5  -3.9  34182  289.95 0854.52
2009/04/23 14:10:56.9      62   -357    -30    363    365 170.1  -4.8  34186  290.01 0854.52
2009/04/23 14:10:57.0      63   -355      0    361    362 169.9   0.0  34190  290.08 0854.52
2009/04/23 14:10:57.1     -87   -200    -27    219    221 203.6  -7.2  34190  290.08 0854.52
2009/04/23 14:10:57.2     -44   -143     36    150    155 197.4  13.5  34194  290.16 0854.52
2009/04/23 14:10:57.3     -51   -335    -67    339    346 188.8 -11.3  34200  290.25 0854.52
2009/04/23 14:10:57.4     -92   -522    -32    531    532 190.0  -3.5  34204  290.31 0854.52
2009/04/23 14:10:57.5      39   -440   -150    442    466 174.8 -23.6  34206  290.34 0854.52
2009/04/23 14:10:57.6    -102   -448    -40    460    462 192.9  -5.1  34206  290.34 0854.52
2009/04/23 14:10:57.7    -170   -330      0    372    373 207.3   0.0  34198  290.20 0854.52
2009/04/23 14:10:57.8    -259   -313   -137    407    430 219.6 -18.7  34188  290.05 0854.52
2009/04/23 14:10:57.9    -197   -300    -99    360    374 213.3 -15.4  34184  289.98 0854.52
2009/04/23 14:10:58.0    -150   -303     30    339    341 206.4   5.2  34188  290.03 0854.52
2009/04/23 14:10:58.1    -166   -229    -12    284    285 216.0  -2.6  34190  290.07 0854.52
2009/04/23 14:10:58.2    -102   -192      2    218    219 208.1   0.7  34188  290.04 0854.52
2009/04/23 14:10:58.3      52   -134     44    144    151 158.6  17.3  34190  290.08 0854.52
2009/04/23 14:10:58.4       2   -184     54    185    193 179.3  16.3  34192  290.13 0854.52
2009/04/23 14:10:58.5     -38   -307     23    310    311 187.2   4.3  34198  290.20 0854.52
2009/04/23 14:10:58.6       2   -391     33    392    394 179.7   4.9  34198  290.21 0854.52
2009/04/23 14:10:58.7      79   -551    -40    557    559 171.8  -4.1  34204  290.31 0854.52
2009/04/23 14:10:58.8      33   -445     78    447    454 175.7  10.0  34202  290.29 0854.52
2009/04/23 14:10:58.9      73   -467     83    473    481 171.1  10.0  34202  290.30 0854.52
2009/04/23 14:10:59.0      65   -504     44    509    511 172.6   5.0  34216  290.51 0854.52
2009/04/23 14:10:59.1      35   -474    102    476    487 175.8  12.1  34208  290.39 0854.52
2009/04/23 14:10:59.2      40   -517    136    519    537 175.5  14.7  34218  290.55 0854.52
2009/04/23 14:10:59.3      57   -481    175    485    516 173.2  19.9  34228  290.71 0854.52
2009/04/23 14:10:59.4      26   -590    126    591    605 177.4  12.1  34194  290.15 0854.52
2009/04/23 14:10:59.5    -147   -579    -70    598    603 194.3  -6.7  34192  290.12 0854.52
2009/04/23 14:10:59.6    -278   -507   -166    579    603 208.8 -16.0  34194  290.15 0854.52
2009/04/23 14:10:59.7    -390   -713   -156    813    828 208.7 -10.9  34194  290.14 0854.52
2009/04/23 14:10:59.8    -337   -624   -135    710    723 208.4 -10.8  34188  290.06 0854.52
2009/04/23 14:10:59.9    -321   -554    -61    641    645 210.1  -5.5  34200  290.26 0854.52
2009/04/23 14:11:00.0    -202   -606    -66    640    644 198.5  -5.9  34182  289.94 0854.52
2009/04/23 14:11:00.1    -117   -657    -92    668    675 190.1  -7.9  34188  290.04 0854.50
2009/04/23 14:11:00.2     -76   -705   -108    710    719 186.2  -8.7  34192  290.13 0854.50
2009/04/23 14:11:00.3     -22   -725    -28    726    727 181.8  -2.2  34194  290.15 0854.50
2009/04/23 14:11:00.4      20   -596     33    597    598 178.0   3.2  34198  290.20 0854.50
2009/04/23 14:11:00.5      36   -599    -94    601    609 176.5  -8.9  34190  290.07 0854.50
2009/04/23 14:11:00.6     -27   -641    -12    642    643 182.5  -1.1  34184  289.98 0854.50
2009/04/23 14:11:00.7     -46   -613     16    615    616 184.4   1.5  34180  289.92 0854.50
2009/04/23 14:11:00.8     -59   -583    -12    587    588 185.8  -1.3  34184  289.98 0854.50
2009/04/23 14:11:00.9     -14   -598   -149    599    618 181.4 -14.0  34192  290.10 0854.50
2009/04/23 14:11:01.0     -19   -547   -181    548    578 182.0 -18.3  34192  290.13 0854.50
2009/04/23 14:11:01.1      52   -535   -134    538    555 174.4 -14.1  34194  290.16 0854.50
2009/04/23 14:11:01.2      34   -440   -113    442    457 175.5 -14.4  34180  289.92 0854.50
2009/04/23 14:11:01.3     -37   -481   -173    483    514 184.5 -19.7  34186  290.00 0854.50
2009/04/23 14:11:01.4     -16   -505   -159    506    531 181.9 -17.5  34180  289.92 0854.50
2009/04/23 14:11:01.5      69   -512    -66    517    522 172.3  -7.3  34180  289.90 0854.50
2009/04/23 14:11:01.6     106   -496   -123    508    523 167.9 -13.7  34178  289.86 0854.50
2009/04/23 14:11:01.7     189   -562   -119    594    606 161.4 -11.3  34178  289.86 0854.50
2009/04/23 14:11:01.8     236   -374     22    443    444 147.7   2.9  34190  290.09 0854.50
2009/04/23 14:11:01.9     197   -378     99    427    439 152.4  13.1  34192  290.11 0854.50
2009/04/23 14:11:02.0     -82   -317    105    328    345 194.6  17.8  34198  290.20 0854.50
2009/04/23 14:11:02.1    -163   -320    -73    360    368 207.1 -11.6  34202  290.27 0854.50
2009/04/23 14:11:02.2    -263   -217   -116    342    362 230.5 -18.7  34204  290.33 0854.50
2009/04/23 14:11:02.3    -251   -259    -37    361    363 224.1  -6.0  34206  290.35 0854.50
2009/04/23 14:11:02.4    -407   -220   -127    463    480 241.6 -20.0  34206  290.34 0854.50
2009/04/23 14:11:02.5     -61   -109     87    126    153 209.4  37.6  34206  290.35 0854.50
2009/04/23 14:11:02.6    -193   -263   -107    327    344 216.3 -23.5  34210  290.42 0854.50
2009/04/23 14:11:02.7    -379   -212   -189    435    474 240.8 -29.5  34202  290.29 0854.50
2009/04/23 14:11:02.8    -199   -180   -136    269    301 228.0 -33.6  34206  290.36 0854.50
2009/04/23 14:11:02.9    -299   -361    -33    469    471 219.6  -4.1  34204  290.32 0854.50
2009/04/23 14:11:03.0    -167   -299     67    343    350 209.3  11.1  34218  290.55 0854.50
2009/04/23 14:11:03.1     -71   -178     46    192    198 201.8  13.7  34216  290.53 0854.50
2009/04/23 14:11:03.2    -116   -139     56    182    191 219.9  17.3  34220  290.60 0854.50
2009/04/23 14:11:03.3    -182   -305    -75    356    365 210.9 -12.0  34216  290.52 0854.50
2009/04/23 14:11:03.4     -66   -489     -9    494    495 187.7  -1.2  34216  290.52 0854.50
2009/04/23 14:11:03.5    -170   -358     -1    397    398 205.5  -0.3  34234  290.83 0854.50
2009/04/23 14:11:03.6    -155   -433    -55    461    465 199.7  -6.9  34224  290.65 0854.50
2009/04/23 14:11:03.7     -34   -314     11    316    317 186.2   2.1  34216  290.53 0854.50
2009/04/23 14:11:03.8     -29   -328    -12    330    331 185.2  -2.2  34234  290.83 0854.50
2009/04/23 14:11:03.9       0   -342     61    343    349 180.0  10.2  34220  290.60 0854.50
2009/04/23 14:11:04.0     -91   -264     -8    280    281 199.1  -1.8  34220  290.59 0854.50
2009/04/23 14:11:04.1      65   -113   -118    131    176 150.1 -51.3  34218  290.57 0854.49
2009/04/23 14:11:04.2      41    -41   -110     59    124 135.0 -73.7  34230  290.75 0854.49
2009/04/23 14:11:04.3    -104   -203   -225    229    321 207.2 -54.2  34236  290.85 0854.49
2009/04/23 14:11:04.4      39   -358   -121    361    380 173.8 -23.3  34222  290.64 0854.49
2009/04/23 14:11:04.5     148   -538    -80    559    565 164.6  -8.2  34204  290.33 0854.49
2009/04/23 14:11:04.6     191   -553     76    586    591 160.9   7.5  34216  290.53 0854.49
2009/04/23 14:11:04.7     223   -421     27    477    478 152.1   3.3  34214  290.49 0854.49
2009/04/23 14:11:04.8      51   -367   -126    371    392 172.0 -18.8  34222  290.64 0854.49
2009/04/23 14:11:04.9     -33   -480   -172    482    513 184.0 -19.7  34222  290.61 0854.49
2009/04/23 14:11:05.0      -9   -466   -112    467    481 181.2 -13.6  34228  290.73 0854.49
2009/04/23 14:11:05.1     -56   -417    -60    421    426 187.7  -8.2  34230  290.75 0854.49
2009/04/23 14:11:05.2    -152   -304   -114    340    358 206.6 -23.5  34224  290.66 0854.49
2009/04/23 14:11:05.3    -102   -162   -138    192    236 212.1 -43.7  34224  290.67 0854.49
2009/04/23 14:11:05.4     -18   -304   -128    305    330 183.4 -28.5  34222  290.61 0854.49
2009/04/23 14:11:05.5     -36   -388    -20    390    391 185.3  -3.0  34218  290.57 0854.49
2009/04/23 14:11:05.6    -132   -355     11    380    381 200.5   1.7  34226  290.69 0854.49
2009/04/23 14:11:05.7    -180   -276     21    330    331 213.1   3.8  34226  290.69 0854.49
2009/04/23 14:11:05.8    -181   -384   -117    425    441 205.3 -15.4  34228  290.72 0854.49
2009/04/23 14:11:05.9    -108   -518   -116    530    543 191.8 -12.4  34226  290.70 0854.49
2009/04/23 14:11:06.0    -203   -465    -86    508    516 203.6  -9.6  34232  290.81 0854.49
2009/04/23 14:11:06.1     -25   -455    -17    456    457 183.2  -2.2  34212  290.44 0854.53
2009/04/23 14:11:06.2     -36   -338    -18    341    342 186.2  -3.2  34214  290.49 0854.53
2009/04/23 14:11:06.3    -152   -336    -74    370    378 204.4 -11.3  34222  290.62 0854.53
2009/04/23 14:11:06.4     -91   -414      5    425    426 192.5   0.7  34218  290.55 0854.53
2009/04/23 14:11:06.5    -219   -429      0    482    483 207.1   0.1  34220  290.59 0854.53
2009/04/23 14:11:06.6    -179   -432    -86    468    476 202.6 -10.5  34226  290.68 0854.53
2009/04/23 14:11:06.7    -116   -433     75    449    456 195.0   9.5  34222  290.63 0854.53
2009/04/23 14:11:06.8    -301   -481    -65    568    572 212.0  -6.6  34228  290.71 0854.53
2009/04/23 14:11:06.9    -244   -579   -136    629    644 202.8 -12.3  34218  290.55 0854.53
2009/04/23 14:11:07.0    -172   -528   -149    556    576 198.0 -15.0  34212  290.47 0854.53
2009/04/23 14:11:07.1    -155   -455     31    481    483 198.8   3.8  34222  290.64 0854.53
2009/04/23 14:11:07.2    -316   -550    -97    635    643 209.9  -8.7  34220  290.59 0854.53
2009/04/23 14:11:07.3    -419   -551   -197    693    721 217.2 -15.9  34212  290.47 0854.53
2009/04/23 14:11:07.4    -464   -464   -251    657    703 225.0 -26.4  34232  290.80 0854.53
2009/04/23 14:11:07.5    -481   -501   -200    695    723 223.8 -20.8  34218  290.56 0854.53
2009/04/23 14:11:07.6    -535   -453   -275    702    753 229.7 -26.9  34222  290.63 0854.53
2009/04/23 14:11:07.7    -470   -550   -205    724    752 220.5 -20.5  34220  290.58 0854.53
2009/04/23 14:11:07.8    -320   -543     -2    631    632 210.5  -0.2  34204  290.32 0854.53
2009/04/23 14:11:07.9    -340   -601     13    691    692 209.5   1.1  34222  290.63 0854.53
2009/04/23 14:11:08.0    -306   -506   -130    592    607 211.2 -12.4  34216  290.53 0854.53
2009/04/23 14:11:08.1    -266   -470   -160    541    565 209.5 -16.5  34218  290.57 0854.49
2009/04/23 14:11:08.2    -254   -496    -45    558    560 207.2  -4.7  34220  290.58 0854.49
2009/04/23 14:11:08.3    -351   -351     55    497    501 225.0   6.4  34222  290.61 0854.49
2009/04/23 14:11:08.4    -131   -501    -50    518    521 194.7  -5.6  34220  290.60 0854.49
2009/04/23 14:11:08.5     -41   -637    -24    639    640 183.7  -2.2  34214  290.50 0854.49
2009/04/23 14:11:08.6     -41   -533    -64    535    539 184.5  -6.9  34224  290.65 0854.49
2009/04/23 14:11:08.7     -60   -558   -155    562    584 186.2 -15.4  34234  290.83 0854.49
2009/04/23 14:11:08.8    -131   -516    -77    533    539 194.3  -8.2  34218  290.57 0854.49
2009/04/23 14:11:08.9    -122   -440    -57    457    461 195.5  -7.2  34218  290.56 0854.49
2009/04/23 14:11:09.0    -115   -475    -43    489    492 193.7  -5.1  34218  290.54 0854.49
2009/04/23 14:11:09.1     -23   -601    -71    602    607 182.3  -6.8  34220  290.58 0854.49
2009/04/23 14:11:09.2      97   -564    -41    573    575 170.2  -4.1  34204  290.31 0854.49
2009/04/23 14:11:09.3     140   -530    -78    549    555 165.2  -8.1  34216  290.53 0854.49
2009/04/23 14:11:09.4     100   -393    122    406    425 165.7  16.8  34224  290.65 0854.49
2009/04/23 14:11:09.5      92   -663     57    670    673 172.1   4.9  34218  290.56 0854.49
2009/04/23 14:11:09.6     152   -647     37    665    667 166.7   3.2  34220  290.60 0854.49
2009/04/23 14:11:09.7     196   -524     -5    560    561 159.4  -0.6  34220  290.60 0854.49
2009/04/23 14:11:09.8     351   -593     17    690    691 149.4   1.5  34214  290.48 0854.49
2009/04/23 14:11:09.9     405   -628     -6    748    749 147.1  -0.5  34218  290.55 0854.49
2009/04/23 14:11:10.0     339   -611    -97    699    706 151.0  -7.9  34220  290.59 0854.49
2009/04/23 14:11:10.1     184   -681     85    706    712 164.9   6.9  34226  290.69 0854.43
2009/04/23 14:11:10.2     160   -554     17    577    578 163.9   1.7  34224  290.66 0854.43
2009/04/23 14:11:10.3     121   -391    146    410    436 162.7  19.6  34232  290.78 0854.43
2009/04/23 14:11:10.4     256   -426     36    498    500 149.0   4.2  34222  290.62 0854.43
2009/04/23 14:11:10.5     304   -288    -30    420    422 133.5  -4.1  34230  290.77 0854.43
2009/04/23 14:11:10.6     289   -314    -32    428    430 137.4  -4.4  34230  290.77 0854.43
2009/04/23 14:11:10.7     248   -321     13    406    407 142.3   1.9  34232  290.78 0854.43
2009/04/23 14:11:10.8     308   -308     -9    436    437 135.0  -1.3  34236  290.85 0854.43
2009/04/23 14:11:10.9     260   -334     12    424    425 142.2   1.7  34230  290.77 0854.43
2009/04/23 14:11:11.0     185   -319     20    369    370 149.9   3.1  34234  290.83 0854.43
2009/04/23 14:11:11.1     161   -346     26    382    383 155.1   4.0  34242  290.96 0854.41
2009/04/23 14:11:11.2      68   -411     62    417    422 170.6   8.5  34254  291.18 0854.41
2009/04/23 14:11:11.3     112   -398    174    414    449 164.2  24.2  34244  290.99 0854.41
2009/04/23 14:11:11.4     -41   -356    213    359    417 186.6  33.5  34246  291.03 0854.41
2009/04/23 14:11:11.5    -192   -347    130    397    418 209.0  18.2  34244  291.01 0854.41
2009/04/23 14:11:11.6     -46   -445    193    448    487 185.9  24.6  34238  290.91 0854.41
2009/04/23 14:11:11.7    -103   -389    229    403    463 194.9  32.3  34228  290.72 0854.41
2009/04/23 14:11:11.8    -121   -466    175    482    512 194.6  20.9  34228  290.71 0854.41
2009/04/23 14:11:11.9     -29   -631    272    632    688 182.7  24.8  34262  291.29 0854.41
2009/04/23 14:11:12.0    -197   -592    163    625    646 198.5  14.7  34222  290.64 0854.41
2009/04/23 14:11:12.1    -126   -541    250    556    609 193.1  25.9  34246  291.02 0854.41
2009/04/23 14:11:12.2    -129   -496    250    513    570 194.6  27.9  34254  291.16 0854.41
2009/04/23 14:11:12.3      54   -411     47    415    418 172.4   6.6  34248  291.07 0854.41
2009/04/23 14:11:12.4     140   -438   -143    460    482 162.2 -17.3  34254  291.17 0854.41
2009/04/23 14:11:12.5     190   -453    -76    492    498 157.2  -8.8  34246  291.03 0854.41
2009/04/23 14:11:12.6     101   -441    -43    453    456 167.0  -5.5  34248  291.07 0854.41
2009/04/23 14:11:12.8      28   -384    -11    386    387 175.8  -1.7  34238  290.89 0854.41
2009/04/23 14:11:12.9      88   -337    -83    349    359 165.3 -13.4  34248  291.05 0854.41
2009/04/23 14:11:13.0     235   -288    -26    372    373 140.8  -4.1  34244  291.00 0854.41
2009/04/23 14:11:13.1     198   -369    -25    419    420 151.7  -3.5  34232  290.80 0854.41
2009/04/23 14:11:13.2     217   -448    -32    499    500 154.1  -3.7  34228  290.73 0854.38
2009/04/23 14:11:13.3     189   -420      3    461    462 155.8   0.5  34230  290.77 0854.38
2009/04/23 14:11:13.4     172   -426     22    460    461 157.9   2.8  34226  290.70 0854.38
2009/04/23 14:11:13.5     207   -348     22    406    407 149.3   3.1  34226  290.70 0854.38
2009/04/23 14:11:13.6     175   -316     84    362    372 151.0  13.1  34218  290.55 0854.38
2009/04/23 14:11:13.7     114   -328     68    348    355 160.7  11.1  34230  290.77 0854.38
2009/04/23 14:11:13.8     177   -374     99    414    426 154.7  13.6  34232  290.78 0854.38
2009/04/23 14:11:13.9     196   -357    -74    408    415 151.2 -10.4  34224  290.67 0854.38
2009/04/23 14:11:14.0      94   -363   -129    376    397 165.4 -23.9  34218  290.54 0854.38
2009/04/23 14:11:14.1      -2   -275   -224    276    355 180.5 -47.8  34228  290.74 0854.38
2009/04/23 14:11:14.2     149   -371   -239    400    465 158.1 -38.0  34214  290.48 0854.38
2009/04/23 14:11:14.3     148   -306   -148    341    371 154.1 -29.4  34208  290.40 0854.38
2009/04/23 14:11:14.4     105   -266    -98    287    304 158.4 -18.9  34208  290.39 0854.38
2009/04/23 14:11:14.5     132   -191   -128    233    265 145.3 -35.7  34208  290.37 0854.38
2009/04/23 14:11:14.6     168   -119    -27    207    209 125.3  -7.7  34214  290.50 0854.38
2009/04/23 14:11:14.7     173   -115    -42    209    214 123.7 -11.6  34222  290.64 0854.38
2009/04/23 14:11:14.8     151   -170    -88    228    244 138.3 -26.4  34226  290.68 0854.38
2009/04/23 14:11:14.9     226   -353    -76    420    427 147.3 -10.4  34216  290.51 0854.38
2009/04/23 14:11:15.0     303   -546   -143    625    642 151.0 -12.9  34212  290.45 0854.38
2009/04/23 14:11:15.1     256   -368    -52    449    453 145.2  -6.7  34208  290.38 0854.38
2009/04/23 14:11:15.2     137   -294   -101    325    341 155.1 -17.3  34214  290.50 0854.35
2009/04/23 14:11:15.3     240   -269    -47    361    365 138.3  -7.5  34214  290.50 0854.35
2009/04/23 14:11:15.4     170   -240    -85    295    307 144.6 -20.8  34216  290.53 0854.35
2009/04/23 14:11:15.5     201   -182      3    272    273 132.2   0.8  34218  290.54 0854.35
2009/04/23 14:11:15.6     145   -104     70    179    192 125.7  22.5  34218  290.57 0854.35
2009/04/23 14:11:15.7      53   -143      7    153    154 159.5   2.8  34218  290.55 0854.35
2009/04/23 14:11:15.8      65    -64     -3     92     93 134.9  -2.2  34222  290.64 0854.35
2009/04/23 14:11:15.9      54    -18     99     58    114 108.6  66.8  34220  290.60 0854.35
2009/04/23 14:11:16.0       4     -7    165      9    165 147.5  90.0  34232  290.81 0854.35
2009/04/23 14:11:16.1      58     45    147     74    164  52.2  71.4  34234  290.82 0854.35
2009/04/23 14:11:16.2      89    -67    169    112    202 127.3  63.6  34230  290.77 0854.35
2009/04/23 14:11:16.3      39   -146    160    152    220 164.9  52.0  34228  290.72 0854.35
2009/04/23 14:11:16.4      92   -262    260    278    380 160.6  48.0  34224  290.67 0854.35
2009/04/23 14:11:16.5     213   -280    247    353    430 142.7  38.5  34220  290.60 0854.35
2009/04/23 14:11:16.6     119   -320    244    342    420 159.6  39.1  34220  290.59 0854.35
2009/04/23 14:11:16.7      95   -319    265    333    425 163.4  42.7  34224  290.67 0854.35
2009/04/23 14:11:16.8      62   -188    191    199    275 161.7  49.0  34222  290.63 0854.35
2009/04/23 14:11:16.9     187   -323    235    374    441 150.0  35.3  34220  290.58 0854.35
2009/04/23 14:11:17.0      69   -257    268    267    378 164.9  50.1  34220  290.60 0854.35
2009/04/23 14:11:17.1     135   -265    266    298    399 152.9  46.4  34220  290.59 0854.35
2009/04/23 14:11:17.2     224   -286    164    364    399 142.0  25.9  34222  290.62 0854.30
2009/04/23 14:11:17.3      88   -261    219    276    352 161.3  42.4  34224  290.66 0854.30
2009/04/23 14:11:17.4     130   -195    189    235    301 146.2  43.0  34228  290.71 0854.30
2009/04/23 14:11:17.5     249   -142     56    287    293 119.8  11.1  34224  290.66 0854.30
2009/04/23 14:11:17.6     233   -111     77    259    271 115.5  16.6  34222  290.63 0854.30
2009/04/23 14:11:17.7     253    -13    106    254    275  93.0  24.1  34222  290.61 0854.30
2009/04/23 14:11:17.8     279   -147    144    316    347 117.8  26.4  34218  290.54 0854.30
2009/04/23 14:11:17.9     160   -268    187    313    364 149.2  33.7  34218  290.57 0854.30
2009/04/23 14:11:18.0     156   -281    192    322    374 151.0  33.6  34214  290.49 0854.30
2009/04/23 14:11:18.1     145    -92    206    173    269 122.5  56.1  34228  290.71 0854.30
2009/04/23 14:11:18.2       8    -81    162     82    181 174.2  71.4  34226  290.70 0854.30
2009/04/23 14:11:18.3     -74   -314    209    323    384 193.3  35.7  34214  290.49 0854.30
2009/04/23 14:11:18.4       0   -220    205    221    301 180.2  47.9  34222  290.61 0854.30
2009/04/23 14:11:18.5      -8   -287    193    288    346 181.8  36.9  34222  290.61 0854.30
2009/04/23 14:11:18.6      62   -306    208    313    375 168.4  36.7  34222  290.64 0854.30
2009/04/23 14:11:18.7      30   -394    161    396    427 175.6  23.2  34222  290.63 0854.30
2009/04/23 14:11:18.8    -134   -307    110    336    354 203.6  18.2  34222  290.64 0854.30
2009/04/23 14:11:18.9      -6   -217    102    218    240 181.8  27.0  34204  290.32 0854.30
2009/04/23 14:11:19.0      49   -189    155    196    249 165.5  42.7  34212  290.46 0854.30
2009/04/23 14:11:19.1     -77   -259    110    271    292 196.5  23.1  34214  290.49 0854.30
2009/04/23 14:11:19.2      15   -218      0    219    220 176.0   0.2  34220  290.58 0854.25
2009/04/23 14:11:19.3     144    -90    -18    170    172 122.0  -6.2  34216  290.53 0854.25
2009/04/23 14:11:19.4     124   -111    116    167    203 132.0  37.8  34214  290.50 0854.25
2009/04/23 14:11:19.5      20   -271    153    272    312 175.6  31.9  34218  290.54 0854.25
2009/04/23 14:11:19.6      27   -428    116    429    445 176.4  15.2  34216  290.53 0854.25
2009/04/23 14:11:19.7      -8   -332    137    333    360 181.5  23.6  34218  290.55 0854.25
2009/04/23 14:11:19.8      41   -295     35    298    301 172.0   6.7  34216  290.53 0854.25
2009/04/23 14:11:19.9      84   -376    -61    386    391 167.3  -9.0  34238  290.89 0854.25
2009/04/23 14:11:20.0      57   -622   -121    625    637 174.7 -11.0  34224  290.67 0854.25
2009/04/23 14:11:20.1      38   -522      6    524    525 175.8   0.7  34226  290.69 0854.25
2009/04/23 14:11:20.2      82   -480   -126    488    505 170.2 -14.5  34228  290.71 0854.25
2009/04/23 14:11:20.3     131   -456    -64    475    480 164.0  -7.7  34222  290.62 0854.25
2009/04/23 14:11:20.4     117   -492   -103    506    517 166.6 -11.6  34222  290.64 0854.25
2009/04/23 14:11:20.5      83   -582   -130    589    604 171.9 -12.5  34202  290.27 0854.25
2009/04/23 14:11:20.6     141   -489    -45    510    513 163.9  -5.1  34200  290.25 0854.25
2009/04/23 14:11:20.7     110   -480    -32    493    494 167.0  -3.7  34208  290.40 0854.25
2009/04/23 14:11:20.8      65   -484     19    489    490 172.3   2.3  34218  290.57 0854.25
2009/04/23 14:11:20.9      82   -578     44    584    586 171.9   4.4  34194  290.15 0854.25
2009/04/23 14:11:21.0      33   -529    131    531    548 176.4  13.9  34196  290.19 0854.25
2009/04/23 14:11:21.1      34   -501     42    503    505 176.1   4.9  34196  290.18 0854.25
2009/04/23 14:11:21.2     -43   -464    100    467    478 185.4  12.2  34196  290.18 0854.24
2009/04/23 14:11:21.3    -241   -472    236    531    581 207.1  25.7  34212  290.46 0854.24
2009/04/23 14:11:21.4    -330   -556     44    647    649 210.7   3.9  34224  290.67 0854.24
2009/04/23 14:11:21.5    -294   -496   -142    577    595 210.7 -13.9  34174  289.81 0854.24
2009/04/23 14:11:21.6    -262   -520   -162    583    606 206.8 -15.5  34178  289.86 0854.24
2009/04/23 14:11:21.7    -251   -507   -124    566    580 206.4 -12.4  34174  289.80 0854.24
2009/04/23 14:11:21.8    -412   -497   -109    646    656 219.6  -9.6  34178  289.87 0854.24
2009/04/23 14:11:21.9    -340   -345   -138    485    505 224.5 -15.9  34182  289.93 0854.24
2009/04/23 14:11:22.0    -429   -300   -120    524    538 235.0 -12.9  34180  289.90 0854.24
2009/04/23 14:11:22.1    -377   -211   -123    433    450 240.7 -20.5  34184  289.99 0854.24
2009/04/23 14:11:22.2    -267   -279   -153    387    416 223.8 -27.3  34196  290.17 0854.24
2009/04/23 14:11:22.3    -331   -284   -113    437    452 229.3 -14.5  34192  290.12 0854.24
2009/04/23 14:11:22.4    -239   -253   -123    349    370 223.3 -24.5  34192  290.11 0854.24
2009/04/23 14:11:22.5    -151   -305    -88    341    353 206.4 -14.5  34194  290.16 0854.24
2009/04/23 14:11:22.6    -201   -227   -121    304    327 221.4 -27.2  34190  290.09 0854.24
2009/04/23 14:11:22.7    -219   -279    -93    355    367 218.1 -14.7  34182  289.94 0854.24
2009/04/23 14:11:22.8    -324   -267   -119    421    438 230.5 -15.8  34192  290.11 0854.24
2009/04/23 14:11:22.9    -296   -163    -12    338    339 241.2  -2.1  34198  290.21 0854.24
2009/04/23 14:11:23.0    -247    -99      8    267    268 248.0   1.8  34208  290.37 0854.24
2009/04/23 14:11:23.1    -220   -201    -91    298    312 227.6 -17.0  34228  290.71 0854.24
2009/04/23 14:11:23.2    -178   -236    -88    296    308 217.0 -21.7  34210  290.41 0854.23
2009/04/23 14:11:23.3    -258    -66    -80    267    279 255.6 -16.8  34200  290.26 0854.23
2009/04/23 14:11:23.4    -370   -133    -49    394    398 250.2  -7.2  34192  290.11 0854.23
2009/04/23 14:11:23.5    -395   -136    -98    418    430 250.9 -13.3  34186  290.00 0854.23
2009/04/23 14:11:23.6    -325   -141   -127    355    378 246.5 -19.7  34188  290.06 0854.23
2009/04/23 14:11:23.7    -334   -152   -123    367    388 245.5 -18.6  34190  290.08 0854.23
2009/04/23 14:11:23.8    -375   -177   -120    415    432 244.7 -20.8  34192  290.11 0854.23
2009/04/23 14:11:23.9    -353    -64   -128    359    381 259.7 -24.7  34192  290.11 0854.23
2009/04/23 14:11:24.0    -336    -35    -97    338    351 263.9 -20.7  34194  290.15 0854.23
2009/04/23 14:11:24.1     191      0   -143    192    239  90.0 -45.0  34198  290.23 0854.23
2009/04/23 14:11:24.2     272    -73   -138    282    313 105.1 -32.4  34204  290.31 0854.23
2009/04/23 14:11:24.3     186   -145   -138    237    274 128.0 -37.1  34200  290.24 0854.23
2009/04/23 14:11:24.4       2   -167    -65    168    180 179.3 -26.4  34194  290.16 0854.23
2009/04/23 14:11:24.5    -174    -36   -150    178    232 258.1 -48.5  34200  290.25 0854.23
2009/04/23 14:11:24.6    -165    -88   -156    188    244 241.8 -48.2  34204  290.33 0854.23
2009/04/23 14:11:24.7    -231     54   -171    238    293 283.2 -43.9  34210  290.41 0854.23
2009/04/23 14:11:24.8    -311     43   -186    314    364 277.9 -37.9  34202  290.30 0854.23
2009/04/23 14:11:24.9    -279     -1   -185    280    335 269.6 -40.9  34194  290.15 0854.23
2009/04/23 14:11:25.0    -359    -48   -107    363    378 262.3 -21.4  34232  290.81 0854.23
2009/04/23 14:11:25.1    -379     16   -111    380    395 272.5 -21.1  34192  290.13 0854.23
2009/04/23 14:11:25.2    -387     55   -270    391    475 278.1 -42.4  34200  290.24 0854.22
2009/04/23 14:11:25.3    -374    -12   -172    375    412 268.1 -30.7  34202  290.27 0854.22
2009/04/23 14:11:25.4    -356      5   -162    357    392 270.9 -30.6  34202  290.28 0854.22
2009/04/23 14:11:25.5    -335     15   -211    336    396 272.6 -39.5  34206  290.35 0854.22
2009/04/23 14:11:25.6    -278     61   -131    285    313 282.4 -30.8  34212  290.46 0854.22
2009/04/23 14:11:25.7    -232    103   -170    254    305 294.0 -41.4  34218  290.54 0854.22
2009/04/23 14:11:25.8    -232     47   -111    237    261 281.5 -31.5  34244  291.00 0854.22
2009/04/23 14:11:25.9    -132     65    -75    148    165 296.2 -33.5  34252  291.13 0854.22
2009/04/23 14:11:26.0    -114     -3    -39    115    121 268.3 -23.3  34272  291.49 0854.22
2009/04/23 14:11:26.1    -134    -45    -66    142    156 251.4 -31.0  34268  291.42 0854.22
2009/04/23 14:11:26.2     -72    -72    -87    103    134 225.0 -48.7  34264  291.35 0854.22
2009/04/23 14:11:26.3     -66   -110    -60    129    142 210.8 -31.5  34260  291.26 0854.22
2009/04/23 14:11:26.4     -12   -127    -47    128    136 185.8 -25.3  34246  291.03 0854.22
2009/04/23 14:11:26.5      11    -55    -35     57     66 168.4 -39.9  34232  290.79 0854.22
2009/04/23 14:11:26.6      -8    -46     79     47     91 190.7  66.2  34238  290.91 0854.22
2009/04/23 14:11:26.7     -57    -12     97     59    113 257.6  64.7  34248  291.08 0854.22
2009/04/23 14:11:26.8     -20   -105    109    108    153 191.1  50.1  34244  290.99 0854.22
2009/04/23 14:11:26.9     -99   -133     67    167    179 216.7  23.0  34232  290.79 0854.22
2009/04/23 14:11:27.0    -117   -149     65    190    201 218.3  18.9  34236  290.86 0854.22
2009/04/23 14:11:27.1    -132   -212     51    250    256 211.9  11.6  34224  290.66 0854.22
2009/04/23 14:11:27.2     -69   -238     85    248    263 196.3  18.9  34224  290.66 0854.22
2009/04/23 14:11:27.3    -166   -200     49    260    265 219.7  10.8  34240  290.92 0854.22
2009/04/23 14:11:27.4    -160   -292    137    333    360 208.7  23.6  34230  290.76 0854.22
2009/04/23 14:11:27.5    -363   -256    125    445    463 234.8  15.7  34226  290.70 0854.22
2009/04/23 14:11:27.6    -283   -238    132    371    393 229.9  20.4  34220  290.59 0854.22
2009/04/23 14:11:27.7    -316   -318    106    449    462 224.8  13.3  34222  290.61 0854.22
2009/04/23 14:11:27.8    -381   -330      7    505    506 229.1   0.8  34236  290.85 0854.22
2009/04/23 14:11:27.9    -313   -355     44    474    477 221.4   5.3  34240  290.93 0854.22
2009/04/23 14:11:28.0    -299   -265     36    400    402 228.4   5.2  34238  290.91 0854.22
2009/04/23 14:11:28.1    -221   -219      6    312    313 225.3   1.2  34226  290.70 0854.22
2009/04/23 14:11:28.2    -190   -303    -94    358    371 212.1 -14.8  34226  290.69 0854.22
2009/04/23 14:11:28.3    -212   -276     50    349    353 217.5   8.2  34228  290.72 0854.22
2009/04/23 14:11:28.4    -206   -288      4    355    356 215.6   0.7  34234  290.83 0854.22
2009/04/23 14:11:28.5    -193   -395     -9    440    441 206.1  -1.3  34224  290.67 0854.22
2009/04/23 14:11:28.6    -115   -454    176    469    500 194.3  21.5  34228  290.73 0854.22
2009/04/23 14:11:28.7     -32   -450     16    452    453 184.1   2.1  34226  290.70 0854.22
2009/04/23 14:11:28.8      35   -462    163    464    492 175.7  19.4  34218  290.56 0854.22
2009/04/23 14:11:28.9      77   -458    165    465    493 170.4  20.3  34228  290.71 0854.22
2009/04/23 14:11:29.0      86   -388    136    398    421 167.5  18.9  34234  290.84 0854.22
2009/04/23 14:11:29.1      60   -385     39    390    393 171.1   5.8  34228  290.72 0854.22
2009/04/23 14:11:29.2     -39   -491    -23    493    494 184.6  -2.7  34256  291.19 0854.24
2009/04/23 14:11:29.3    -205   -394     45    445    448 207.5   5.8  34250  291.11 0854.24
2009/04/23 14:11:29.4    -251   -154     51    295    300 238.5   9.9  34252  291.14 0854.24
2009/04/23 14:11:29.5    -115   -180     73    214    227 212.7  18.9  34250  291.11 0854.24
2009/04/23 14:11:29.6     -54   -377     60    381    386 188.3   9.0  34244  291.01 0854.24
2009/04/23 14:11:29.7    -151   -441    119    467    482 198.9  14.3  34246  291.02 0854.24
2009/04/23 14:11:29.8    -146   -449    175    473    504 198.0  21.3  34268  291.41 0854.24
2009/04/23 14:11:29.9    -136   -378    216    402    456 199.8  30.7  34250  291.11 0854.24
2009/04/23 14:11:30.0     -88   -532    329    540    632 189.4  34.2  34242  290.95 0854.24
2009/04/23 14:11:30.1     -58   -530    367    534    647 186.3  37.9  34252  291.12 0854.24
2009/04/23 14:11:30.2    -132   -603    248    618    665 192.4  23.1  34250  291.10 0854.24
2009/04/23 14:11:30.3     -90   -573    239    581    628 189.0  23.7  34226  290.68 0854.24
2009/04/23 14:11:30.4     -31   -615    175    616    641 182.9  15.9  34220  290.60 0854.24
2009/04/23 14:11:30.5     -80   -571    177    577    604 188.0  17.1  34220  290.58 0854.24
2009/04/23 14:11:30.6     -42   -699    332    701    775 183.5  27.1  34234  290.82 0854.24
2009/04/23 14:11:30.7    -252   -461    163    526    551 208.7  17.3  34222  290.63 0854.24
2009/04/23 14:11:30.8    -209   -469    355    514    624 204.1  37.9  34232  290.78 0854.24
2009/04/23 14:11:30.9     -24   -461    331    462    568 183.0  39.2  34232  290.79 0854.24
2009/04/23 14:11:31.0    -110   -464    331    477    580 193.4  38.1  34216  290.52 0854.24
2009/04/23 14:11:31.1      31   -468    399    470    616 176.2  44.5  34212  290.47 0854.24
2009/04/23 14:11:31.2     -86   -495    340    503    607 189.9  37.4  34226  290.68 0854.25
2009/04/23 14:11:31.3     -61   -428    385    433    579 188.1  46.3  34218  290.57 0854.25
2009/04/23 14:11:31.4     -42   -299    259    303    398 188.0  44.9  34228  290.71 0854.25
2009/04/23 14:11:31.5     -70   -499    273    505    574 188.0  30.8  34216  290.52 0854.25
2009/04/23 14:11:31.6     100   -223    228    245    334 155.7  47.9  34216  290.51 0854.25
2009/04/23 14:11:31.7      92   -303    238    317    396 163.0  40.7  34228  290.72 0854.25
2009/04/23 14:11:31.8     -29   -387    306    389    494 184.4  42.2  34230  290.75 0854.25
2009/04/23 14:11:31.9     -99   -505    296    515    594 191.1  32.4  34224  290.66 0854.25
2009/04/23 14:11:32.0    -121   -683    356    694    779 190.1  29.4  34204  290.33 0854.25
2009/04/23 14:11:32.1    -127   -665    222    678    714 190.8  18.2  34222  290.61 0854.25
2009/04/23 14:11:32.2    -163   -724    398    743    842 192.7  30.5  34218  290.57 0854.25
2009/04/23 14:11:32.3     -41   -535    281    537    606 184.4  29.9  34226  290.70 0854.25
2009/04/23 14:11:32.4    -139   -744    450    757    880 190.6  33.5  34222  290.63 0854.25
2009/04/23 14:11:32.5    -175   -759    420    779    885 193.0  30.7  34222  290.63 0854.25
2009/04/23 14:11:32.6    -180   -593    283    621    682 196.9  26.3  34226  290.70 0854.25
2009/04/23 14:11:32.7      76   -534    410    540    678 171.9  41.1  34214  290.50 0854.25
2009/04/23 14:11:32.8      96   -557    369    566    675 170.2  36.2  34218  290.57 0854.25
2009/04/23 14:11:32.9      53   -573    295    576    647 174.7  29.3  34238  290.89 0854.25
2009/04/23 14:11:33.0      81   -405    290    414    505 168.7  38.5  34226  290.69 0854.25
2009/04/23 14:11:33.1     141   -418    219    442    493 161.3  28.2  34228  290.71 0854.25
2009/04/23 14:11:33.2     196   -307    286    365    463 147.4  42.1  34230  290.75 0854.25
2009/04/23 14:11:33.3     -85   -547    207    554    591 188.9  21.5  34230  290.75 0854.25
2009/04/23 14:11:33.4       0   -557    243    558    608 180.0  25.1  34220  290.58 0854.25
2009/04/23 14:11:33.5       8   -541    233    542    589 179.1  24.8  34220  290.58 0854.25
2009/04/23 14:11:33.6      24   -392    193    393    437 176.5  28.2  34222  290.61 0854.25
2009/04/23 14:11:33.7      99   -261    174    280    329 159.1  35.1  34224  290.66 0854.25
2009/04/23 14:11:33.8     264   -366     56    452    456 144.2   7.1  34236  290.85 0854.25
2009/04/23 14:11:33.9     192   -374    131    421    441 152.8  17.3  34234  290.84 0854.25
2009/04/23 14:11:34.0     129   -548    145    563    582 166.7  14.5  34226  290.70 0854.25
2009/04/23 14:11:34.1     180   -646    205    671    702 164.4  17.0  34226  290.68 0854.25
2009/04/23 14:11:34.2      -3   -574    -26    575    576 180.4  -2.6  34228  290.71 0854.28
2009/04/23 14:11:34.3     -48   -440   -149    443    467 186.3 -23.3  34212  290.46 0854.28
2009/04/23 14:11:34.4     -76   -507    134    513    531 188.6  14.7  34208  290.38 0854.28
2009/04/23 14:11:34.5     -71   -528    163    533    558 187.7  17.0  34214  290.50 0854.28
2009/04/23 14:11:34.6     -49   -536     57    539    543 185.3   6.1  34226  290.69 0854.28
2009/04/23 14:11:34.7    -203   -551    -96    588    596 200.3  -9.3  34216  290.51 0854.28
2009/04/23 14:11:34.9    -144   -561    -51    580    583 194.4  -5.1  34216  290.53 0854.28
2009/04/23 14:11:34.9     -91   -356    185    368    411 194.4  28.6  34214  290.50 0854.28
2009/04/23 14:11:35.0      67   -283    148    291    326 166.6  29.1  34218  290.56 0854.28
2009/04/23 14:11:35.1       0   -446    -59    447    451 179.9  -7.6  34218  290.55 0854.28
2009/04/23 14:11:35.2      87   -596    -33    603    604 171.7  -3.1  34218  290.56 0854.28
2009/04/23 14:11:35.3     157   -415    126    444    462 159.2  15.9  34208  290.38 0854.28
2009/04/23 14:11:35.4     263   -383    180    465    498 145.5  22.3  34212  290.45 0854.28
2009/04/23 14:11:35.5      85   -412     60    421    426 168.3   8.2  34220  290.58 0854.28
2009/04/23 14:11:35.6     -17   -449    -20    450    451 182.3  -2.6  34220  290.58 0854.28
2009/04/23 14:11:35.7     199   -364    179    416    452 151.3  24.9  34212  290.46 0854.28
2009/04/23 14:11:35.8      54   -524    204    527    565 174.1  22.2  34216  290.52 0854.28
2009/04/23 14:11:35.9     299   -539     40    617    619 151.0   3.8  34204  290.33 0854.28
2009/04/23 14:11:36.0     421   -392    279    576    640 133.0  27.8  34212  290.47 0854.28
2009/04/23 14:11:36.1     291   -423    253    514    572 145.5  28.2  34192  290.11 0854.28
2009/04/23 14:11:36.2     331   -297    308    446    542 131.9  38.0  34202  290.27 0854.30
2009/04/23 14:11:36.3     367   -451    203    582    617 140.9  19.3  34200  290.24 0854.30
2009/04/23 14:11:36.4     387   -516    293    645    708 143.1  26.2  34182  289.93 0854.30
2009/04/23 14:11:36.5     297   -670    336    733    806 156.1  26.4  34202  290.27 0854.30
2009/04/23 14:11:36.6     275   -845    228    889    918 162.0  14.4  34204  290.31 0854.30
2009/04/23 14:11:36.7     277   -819    218    865    892 161.3  14.2  34194  290.16 0854.30
2009/04/23 14:11:36.8     234   -685    338    725    799 161.1  26.7  34180  289.91 0854.30
2009/04/23 14:11:36.9     -18   -606    241    607    653 181.8  22.9  34200  290.26 0854.30
2009/04/23 14:11:37.0     203   -743    209    771    799 164.7  15.2  34202  290.30 0854.30
2009/04/23 14:11:37.1     284   -711    272    766    814 158.2  19.6  34186  290.02 0854.30
2009/04/23 14:11:37.2     251   -616    362    666    758 157.8  30.9  34196  290.17 0854.30
2009/04/23 14:11:37.3     130   -873    444    883    988 171.5  28.7  34192  290.10 0854.30
2009/04/23 14:11:37.4     124   -719    528    730    900 170.2  39.5  34196  290.19 0854.30
2009/04/23 14:11:37.5     161   -476    494    503    705 161.3  49.4  34198  290.21 0854.30
2009/04/23 14:11:37.6     222   -197    336    297    448 131.6  54.2  34212  290.44 0854.30
2009/04/23 14:11:37.7     128   -387    422    408    586 161.6  51.2  34188  290.06 0854.30
2009/04/23 14:11:37.8      69   -520    450    525    691 172.4  45.0  34198  290.23 0854.30
2009/04/23 14:11:37.9     158   -492    311    517    603 162.2  33.8  34202  290.27 0854.30
2009/04/23 14:11:38.0     173   -509    364    538    649 161.2  37.3  34192  290.13 0854.30
2009/04/23 14:11:38.1     235   -403    407    467    619 149.8  45.6  34208  290.39 0854.30
2009/04/23 14:11:38.2     501   -318    230    594    636 122.4  22.3  34190  290.09 0854.33
2009/04/23 14:11:38.3     478   -336    299    585    656 125.1  29.2  34184  289.99 0854.33
2009/04/23 14:11:38.4     627   -468     51    783    785 126.8   3.7  34186  290.00 0854.33
2009/04/23 14:11:38.5     584   -445    293    735    791 127.3  23.0  34192  290.10 0854.33
2009/04/23 14:11:38.6     431   -502    206    662    694 139.4  17.3  34188  290.04 0854.33
2009/04/23 14:11:38.7     352   -472    295    590    659 143.3  28.5  34188  290.06 0854.33
2009/04/23 14:11:38.8     450   -558     12    718    719 141.1   1.0  34202  290.28 0854.33
2009/04/23 14:11:38.9     304   -613    153    685    702 153.6  12.6  34192  290.13 0854.33
2009/04/23 14:11:39.0     521   -815     50    968    970 147.4   3.0  34186  290.02 0854.33
2009/04/23 14:11:39.1     473   -757    202    893    916 148.0  12.8  34198  290.23 0854.33
2009/04/23 14:11:39.2     303   -872    118    924    932 160.8   7.3  34206  290.34 0854.33
2009/04/23 14:11:39.3     352   -772     87    849    854 155.5   5.9  34196  290.17 0854.33
2009/04/23 14:11:39.4     336   -944    -33   1003   1004 160.4  -1.9  34194  290.14 0854.33
2009/04/23 14:11:39.5     339   -810    -84    879    884 157.3  -5.5  34200  290.25 0854.33
2009/04/23 14:11:39.6     113   -748   -106    757    765 171.4  -8.0  34202  290.28 0854.33
2009/04/23 14:11:39.7     143   -660   -111    676    686 167.7  -9.4  34200  290.26 0854.33
2009/04/23 14:11:39.8      44   -710   -101    712    720 176.4  -8.1  34196  290.18 0854.33
2009/04/23 14:11:39.9      31   -615     -3    616    617 177.1  -0.4  34202  290.28 0854.33
2009/04/23 14:11:40.0    -146   -543    -59    563    567 195.1  -6.1  34214  290.48 0854.33
2009/04/23 14:11:40.1      34   -451   -130    453    472 175.6 -16.0  34210  290.42 0854.33
2009/04/23 14:11:40.2    -126   -590   -225    604    644 192.1 -25.8  34222  290.62 0854.37
2009/04/23 14:11:40.3    -105   -566   -182    576    605 190.6 -17.5  34222  290.63 0854.37
2009/04/23 14:11:40.4     155   -785   -230    801    834 168.8 -16.0  34230  290.77 0854.37
2009/04/23 14:11:40.6     184   -867    -63    887    890 168.0  -4.1  34224  290.67 0854.37
2009/04/23 14:11:40.7     146   -581   -189    599    628 165.9 -22.5  34218  290.54 0854.37
2009/04/23 14:11:40.8      95   -375   -222    387    446 165.7 -36.8  34214  290.48 0854.37
2009/04/23 14:11:40.9     139   -117    -50    182    189 130.2 -15.5  34224  290.65 0854.37
2009/04/23 14:11:41.0     282   -327   -119    433    449 139.2 -20.0  34216  290.53 0854.37
2009/04/23 14:11:41.1     161   -571    -52    594    597 164.2  -5.1  34224  290.66 0854.37
2009/04/23 14:11:41.2     231   -433    110    492    505 151.9  12.6  34216  290.52 0854.37
2009/04/23 14:11:41.3     287   -541    204    613    647 152.0  18.5  34206  290.35 0854.37
2009/04/23 14:11:41.4     420   -784     46    890    892 151.8   3.0  34210  290.42 0854.37
2009/04/23 14:11:41.5     417   -781    -27    886    887 151.9  -1.8  34206  290.35 0854.37
2009/04/23 14:11:41.6     422   -739    -31    852    853 150.3  -2.1  34212  290.44 0854.37
2009/04/23 14:11:41.7     197   -755    102    781    788 165.4   7.5  34212  290.46 0854.37
2009/04/23 14:11:41.8     248   -798    179    836    856 162.7  12.1  34206  290.36 0854.37
2009/04/23 14:11:41.9     -17   -563    158    564    586 181.8  15.7  34216  290.51 0854.37
2009/04/23 14:11:42.0     127   -429    105    448    461 163.5  13.2  34214  290.50 0854.37
2009/04/23 14:11:42.1     168   -198     56    260    267 139.7  12.2  34216  290.53 0854.37
2009/04/23 14:11:42.2      83   -485    246    493    550 170.3  28.5  34214  290.50 0854.37
2009/04/23 14:11:42.3     -18   -583    104    584    594 181.8  10.1  34222  290.61 0854.39
2009/04/23 14:11:42.4     162   -553     28    577    578 163.6   2.8  34216  290.53 0854.39
2009/04/23 14:11:42.5     162   -354   -119    390    408 155.4 -17.0  34222  290.64 0854.39
2009/04/23 14:11:42.6      99   -445   -100    457    468 167.4 -12.4  34218  290.55 0854.39
2009/04/23 14:11:42.7    -260   -439    -73    511    517 210.6  -8.2  34226  290.68 0854.39
2009/04/23 14:11:42.8     144   -360    -41    388    391 158.2  -6.1  34224  290.66 0854.39
2009/04/23 14:11:42.9     135   -467    221    487    534 163.9  26.2  34214  290.48 0854.39
2009/04/23 14:11:43.0     -73   -428    308    435    533 189.7  38.8  34224  290.66 0854.39
2009/04/23 14:11:43.1      84   -227    170    243    296 159.7  38.5  34212  290.44 0854.39
2009/04/23 14:11:43.2     -21   -417    285    418    505 182.9  37.6  34226  290.69 0854.39
2009/04/23 14:11:43.3     130   -274    197    304    362 154.5  35.9  34232  290.81 0854.39
2009/04/23 14:11:43.4     268   -183    244    325    406 124.4  40.7  34222  290.62 0854.39
2009/04/23 14:11:43.5       6   -470    380    471    605 179.2  43.0  34218  290.55 0854.39
2009/04/23 14:11:43.6     166   -467    263    496    561 160.4  30.2  34222  290.62 0854.39
2009/04/23 14:11:43.7     130   -542    202    558    594 166.5  19.9  34222  290.61 0854.39
2009/04/23 14:11:43.8      -1   -372    284    373    468 180.2  41.2  34210  290.41 0854.39
2009/04/23 14:11:43.9      -7   -743    468    744    878 180.6  35.2  34208  290.40 0854.39
2009/04/23 14:11:44.0     -50   -596    426    599    735 184.9  39.0  34202  290.27 0854.39
2009/04/23 14:11:44.1      91   -706    436    712    834 172.6  34.4  34200  290.24 0854.39
2009/04/23 14:11:44.2     100   -683    295    691    751 171.6  24.6  34212  290.47 0854.39
2009/04/23 14:11:44.3     -65   -698    137    702    716 185.4  11.1  34218  290.56 0854.41
2009/04/23 14:11:44.4    -132   -944    229    954    982 188.0  13.5  34206  290.35 0854.41
2009/04/23 14:11:44.5      86   -596    272    603    661 171.8  25.9  34202  290.28 0854.41
2009/04/23 14:11:44.6     293   -529    262    606    660 151.0  24.9  34212  290.45 0854.41
2009/04/23 14:11:44.7     363   -704    501    793    938 152.7  35.2  34204  290.32 0854.41
2009/04/23 14:11:44.8     114   -746    490    755    900 171.3  36.0  34220  290.60 0854.41
2009/04/23 14:11:44.9     -60   -856    408    859    950 184.0  27.3  34218  290.56 0854.41
2009/04/23 14:11:45.0     169   -797    380    815    899 168.0  26.7  34222  290.62 0854.41
2009/04/23 14:11:45.1     246   -762    267    801    845 162.1  18.5  34208  290.38 0854.41
2009/04/23 14:11:45.2     187   -796    335    818    883 166.8  23.6  34208  290.39 0854.41
2009/04/23 14:11:45.3      96   -868    334    874    935 173.7  22.0  34218  290.56 0854.41
2009/04/23 14:11:45.4     137   -805    202    817    842 170.3  13.9  34212  290.47 0854.41
2009/04/23 14:11:45.5     117   -657    105    668    677 169.9   9.0  34206  290.36 0854.41
2009/04/23 14:11:45.6     -25   -524    161    525    550 182.8  17.1  34190  290.07 0854.41
2009/04/23 14:11:45.7     -82   -535    200    542    577 188.7  21.3  34208  290.38 0854.41
2009/04/23 14:11:45.8     -77   -552    390    558    680 188.0  38.4  34212  290.47 0854.41
2009/04/23 14:11:45.9     353   -426    192    554    587 140.4  19.2  34220  290.59 0854.41
2009/04/23 14:11:46.0    -179   -394    242    433    496 204.5  31.6  34216  290.51 0854.41
2009/04/23 14:11:46.1     -15   -362    274    363    454 182.5  40.7  34214  290.48 0854.41
2009/04/23 14:11:46.2     -24   -317    257    318    408 184.4  43.1  34218  290.54 0854.41
2009/04/23 14:11:46.3     -57   -277    277    283    396 191.8  49.7  34220  290.60 0854.43
2009/04/23 14:11:46.4     -57   -281    324    287    432 191.6  54.2  34218  290.55 0854.43
2009/04/23 14:11:46.5     -96   -350    330    364    491 195.4  47.0  34224  290.67 0854.43
2009/04/23 14:11:46.6     -34   -383    372    385    535 185.2  49.0  34222  290.61 0854.43
2009/04/23 14:11:46.7     148   -623    302    641    708 166.6  27.1  34222  290.61 0854.43
2009/04/23 14:11:46.8     130   -563    343    578    672 167.0  33.5  34212  290.47 0854.43
2009/04/23 14:11:46.9     198   -531    373    567    678 159.5  36.4  34212  290.47 0854.43
2009/04/23 14:11:47.0     264   -454    320    526    615 149.8  34.3  34212  290.46 0854.43
2009/04/23 14:11:47.1     217   -403    365    458    585 151.7  42.7  34214  290.50 0854.43
2009/04/23 14:11:47.2     139   -406    379    430    573 161.1  45.9  34220  290.58 0854.43
2009/04/23 14:11:47.3     223   -401    380    460    596 150.9  43.7  34214  290.50 0854.43
2009/04/23 14:11:47.4     339   -326    310    471    563 133.9  36.5  34222  290.63 0854.43
2009/04/23 14:11:47.5     380   -392    326    547    636 135.9  33.6  34222  290.64 0854.43
2009/04/23 14:11:47.6     404   -431    315    591    669 136.9  30.3  34218  290.55 0854.43
2009/04/23 14:11:47.7     264   -494    323    561    647 151.9  32.6  34212  290.45 0854.43
2009/04/23 14:11:47.8     187   -566    321    597    677 161.7  30.6  34208  290.37 0854.43
2009/04/23 14:11:47.9     177   -552    259    580    635 162.2  25.7  34214  290.48 0854.43
2009/04/23 14:11:48.0     167   -565    169    590    614 163.5  16.0  34218  290.54 0854.43
2009/04/23 14:11:48.1     227   -580     42    623    625 158.6   3.9  34218  290.57 0854.43
2009/04/23 14:11:48.2     223   -512    145    559    578 156.4  14.6  34220  290.58 0854.45
2009/04/23 14:11:48.3     104   -531    203    542    578 168.9  21.5  34216  290.52 0854.45
2009/04/23 14:11:48.4     113   -431    114    446    461 165.3  14.4  34214  290.50 0854.45
2009/04/23 14:11:48.5      68   -482    156    487    512 171.9  17.8  34220  290.59 0854.45
2009/04/23 14:11:48.6       4   -332     46    333    337 179.3   7.9  34218  290.55 0854.45
2009/04/23 14:11:48.7      -3   -221     77    222    236 180.9  19.2  34220  290.58 0854.45
2009/04/23 14:11:48.8     152   -264     83    305    317 150.1  15.2  34220  290.59 0854.45
2009/04/23 14:11:48.9      36   -257    189    260    321 172.0  39.5  34216  290.51 0854.45
2009/04/23 14:11:49.0     177   -390    210    429    477 155.5  28.0  34216  290.51 0854.45
2009/04/23 14:11:49.1     135   -472    187    492    526 164.0  21.8  34212  290.44 0854.45
2009/04/23 14:11:49.2     184   -518    292    550    622 160.4  30.3  34220  290.58 0854.45
2009/04/23 14:11:49.3     212   -414    269    466    538 152.9  32.7  34218  290.54 0854.45
2009/04/23 14:11:49.4       8   -379    333    380    505 178.8  45.7  34228  290.73 0854.45
2009/04/23 14:11:49.5     -58   -413    291    418    509 188.1  38.3  34222  290.61 0854.45
2009/04/23 14:11:49.6    -227   -520    222    568    609 203.6  22.5  34222  290.64 0854.45
2009/04/23 14:11:49.7      34   -242    280    245    372 171.9  54.3  34234  290.83 0854.45
2009/04/23 14:11:49.8      89     16    228     91    245  79.4  77.1  34240  290.94 0854.45
2009/04/23 14:11:49.9     -25   -171    272    173    322 188.5  64.7  34238  290.88 0854.45
2009/04/23 14:11:50.0    -263   -321    158    416    444 219.3  21.8  34224  290.65 0854.45
2009/04/23 14:11:50.1    -202   -311    249    372    447 213.0  36.9  34222  290.63 0854.45
2009/04/23 14:11:50.2     -91   -316    185    329    377 196.1  31.7  34228  290.74 0854.45
2009/04/23 14:11:50.3     148     12     44    149    156  85.2  16.6  34232  290.79 0854.45
2009/04/23 14:11:50.4    -126    120    102    175    202 313.6  33.1  34238  290.89 0854.45
2009/04/23 14:11:50.5      14    181    203    182    272   4.5  53.3  34244  291.00 0854.45
2009/04/23 14:11:50.6      88    138    204    164    261  32.6  57.3  34250  291.09 0854.45
2009/04/23 14:11:50.7       8     98    125     99    159   4.9  57.7  34252  291.13 0854.45
2009/04/23 14:11:50.8     202    146    147    250    290  54.0  33.4  34236  290.87 0854.45
2009/04/23 14:11:50.9     297    105    242    316    398  70.5  41.4  34232  290.81 0854.45
2009/04/23 14:11:51.0     381    239    171    450    481  57.9  21.7  34278  291.56 0854.45
2009/04/23 14:11:51.1     371    168    204    408    456  65.7  28.6  34292  291.80 0854.45
2009/04/23 14:11:51.2     356    172    223    396    454  64.2  31.7  34304  292.01 0854.45
2009/04/23 14:11:51.3     369    127    248    391    463  70.9  35.5  34300  291.94 0854.45
2009/04/23 14:11:51.4     422    134    232    443    500  72.3  29.8  34292  291.80 0854.45
2009/04/23 14:11:51.5     502    203    458    542    709  67.9  44.5  34280  291.62 0854.45
2009/04/23 14:11:51.6     382    181    476    423    636  64.6  54.0  34274  291.51 0854.45
2009/04/23 14:11:51.7     539    458    302    708    769  49.6  24.5  34258  291.25 0854.45
2009/04/23 14:11:51.8     284    634    275    695    747  24.2  22.9  34246  291.03 0854.45
2009/04/23 14:11:51.9     361    554    311    662    731  33.1  27.1  34312  292.15 0854.45
2009/04/23 14:11:52.0     509    280    204    581    615  61.2  20.0  34324  292.36 0854.45
2009/04/23 14:11:52.1     596    184    152    624    643  72.8  13.7  34332  292.51 0854.45
2009/04/23 14:11:52.2     519    253    193    578    610  64.0  18.5  34340  292.64 0854.45
2009/04/23 14:11:52.3     450    185    111    487    500  67.6  12.9  34326  292.39 0854.44
2009/04/23 14:11:52.4     297     60    205    303    365  78.6  37.4  34332  292.49 0854.44
2009/04/23 14:11:52.5     346    344    153    489    513  45.2  17.4  34268  291.42 0854.44
2009/04/23 14:11:52.6     357    379    247    521    576  43.3  27.2  34250  291.11 0854.44
2009/04/23 14:11:52.7     425    226    173    482    512  62.0  20.6  34302  291.99 0854.44
2009/04/23 14:11:52.8     326    154    252    361    440  64.6  38.4  34312  292.16 0854.44
2009/04/23 14:11:52.9     343    408    340    534    633  40.1  35.6  34278  291.58 0854.44
2009/04/23 14:11:53.0     270    213    317    344    467  51.7  47.7  34270  291.43 0854.44
2009/04/23 14:11:53.1     341    212    145    402    428  58.1  19.9  34302  291.99 0854.44
2009/04/23 14:11:53.2     458    263    -11    529    530  60.1  -1.3  34260  291.28 0854.44
2009/04/23 14:11:53.3     510    445    105    678    686  48.9   8.8  34238  290.90 0854.44
2009/04/23 14:11:53.4     438    534     64    691    695  39.4   5.3  34284  291.68 0854.44
2009/04/23 14:11:53.5     483    302    137    570    587  58.0  13.6  34334  292.52 0854.44
2009/04/23 14:11:53.6     457    299     50    547    550  56.8   5.3  34294  291.86 0854.44
2009/04/23 14:11:53.7     304    344     -9    460    461  41.5  -1.2  34268  291.40 0854.44
2009/04/23 14:11:53.8     146    440     54    464    468  18.5   6.7  34228  290.71 0854.44
2009/04/23 14:11:53.9     256    374     97    454    465  34.4  12.1  34222  290.63 0854.44
2009/04/23 14:11:54.0     263    349     37    438    440  37.0   4.9  34218  290.55 0854.44
2009/04/23 14:11:54.1     295    345    173    455    486  40.6  22.0  34196  290.18 0854.44
2009/04/23 14:11:54.2      68    485    120    490    505   8.0  13.8  34200  290.25 0854.44
2009/04/23 14:11:54.3     156    425    121    453    469  20.2  15.0  34198  290.22 0854.47
2009/04/23 14:11:54.4     164    348    211    385    439  25.3  31.3  34188  290.05 0854.47
2009/04/23 14:11:54.5     158    483    176    509    539  18.2  19.1  34196  290.18 0854.47
2009/04/23 14:11:54.6     183    415     99    454    465  23.9  12.4  34202  290.29 0854.47
2009/04/23 14:11:54.7     200    442    -17    486    487  24.3  -2.1  34206  290.35 0854.47
2009/04/23 14:11:54.8      60    475     90    479    488   7.2  10.7  34204  290.32 0854.47
2009/04/23 14:11:54.9     167    449    105    480    492  20.5  12.4  34280  291.61 0854.47
2009/04/23 14:11:55.0     217    370    187    429    467  30.4  25.1  34312  292.15 0854.47
2009/04/23 14:11:55.1     262    229    183    349    394  48.9  30.1  34300  291.95 0854.47
2009/04/23 14:11:55.2     310    269    143    411    436  49.1  19.2  34340  292.64 0854.47
2009/04/23 14:11:55.3     326    222    139    395    419  55.7  19.4  34314  292.18 0854.49
2009/04/23 14:11:55.4     444    149    118    469    484  71.4  14.2  34294  291.85 0854.49
2009/04/23 14:11:55.5     300    118    120    323    344  68.5  21.3  34298  291.90 0854.49
2009/04/23 14:11:55.6     272    103    103    292    309  69.2  20.0  34264  291.34 0854.49
2009/04/23 14:11:55.7     215    172    111    276    297  51.3  23.0  34288  291.75 0854.49
2009/04/23 14:11:55.8     153    154     94    218    237  44.8  24.9  34310  292.12 0854.49
2009/04/23 14:11:55.9     126    125    -29    178    181  45.2  -9.3  34304  292.01 0854.49
2009/04/23 14:11:56.0     217    124     44    251    255  60.2  10.1  34306  292.04 0854.49
2009/04/23 14:11:56.1     243    144     66    283    291  59.3  13.1  34266  291.38 0854.49
2009/04/23 14:11:56.2     209    237     52    317    322  41.4   9.3  34258  291.24 0854.49
2009/04/23 14:11:56.3     323    328     48    461    464  44.5   6.0  34218  290.55 0854.49
2009/04/23 14:11:56.4     375    351      1    514    515  46.9   0.2  34228  290.71 0854.49
2009/04/23 14:11:56.5     387    210     30    441    442  61.5   3.9  34234  290.82 0854.49
2009/04/23 14:11:56.6     357    113     11    375    376  72.4   1.7  34258  291.23 0854.49
2009/04/23 14:11:56.7     398     60     40    403    405  81.4   5.7  34260  291.28 0854.49
2009/04/23 14:11:56.8     462     99    -26    473    474  77.9  -3.2  34212  290.45 0854.49
2009/04/23 14:11:56.9     364     45    -79    367    376  82.9 -12.2  34238  290.91 0854.49
2009/04/23 14:11:57.0     316    127     22    341    342  68.0   3.8  34246  291.03 0854.49
2009/04/23 14:11:57.1     475     55     30    479    480  83.3   3.6  34238  290.90 0854.49
2009/04/23 14:11:57.2     386     68    142    393    419  80.0  19.9  34262  291.31 0854.49
2009/04/23 14:11:57.3     364    157     66    397    403  66.7   9.4  34260  291.28 0854.50
2009/04/23 14:11:57.4     389     98     94    402    413  75.8  13.2  34298  291.92 0854.50
2009/04/23 14:11:57.5     399     42     85    402    412  83.9  12.0  34266  291.38 0854.50
2009/04/23 14:11:57.6     295    -15    163    296    337  93.0  31.3  34280  291.60 0854.50
2009/04/23 14:11:57.7     319     41    121    322    343  82.5  21.6  34270  291.45 0854.50
2009/04/23 14:11:57.8     345      4    136    346    371  89.3  22.9  34274  291.52 0854.50
2009/04/23 14:11:57.9     196   -127    133    234    269 123.1  32.1  34288  291.73 0854.50
2009/04/23 14:11:58.0      84   -238     86    253    268 160.4  18.9  34286  291.72 0854.50
2009/04/23 14:11:58.1      43   -243    124    247    276 169.8  28.5  34304  292.01 0854.50
2009/04/23 14:11:58.2      55   -270     99    276    293 168.4  20.7  34290  291.77 0854.50
2009/04/23 14:11:58.3      96   -219      9    240    241 156.3   2.3  34274  291.50 0854.50
2009/04/23 14:11:58.4      69   -209     71    221    233 161.5  17.9  34274  291.52 0854.50
2009/04/23 14:11:58.5      57   -208     79    216    229 164.6  20.9  34286  291.71 0854.50
2009/04/23 14:11:58.6      76   -205     78    219    232 159.5  20.2  34270  291.45 0854.50
2009/04/23 14:11:58.7     -43   -130    -11    137    138 198.3  -4.6  34276  291.55 0854.50
2009/04/23 14:11:58.8      59   -161    -52    172    180 159.7 -17.0  34266  291.37 0854.50
2009/04/23 14:11:58.9     184   -128    -40    225    229 124.9 -10.1  34262  291.32 0854.50
2009/04/23 14:11:59.0     215    -55    -72    223    234 104.4 -22.9  34264  291.33 0854.50
2009/04/23 14:11:59.1     199     13    -19    200    201  86.3  -5.6  34256  291.21 0854.50
2009/04/23 14:11:59.2     215     16     97    216    236  85.6  25.7  34264  291.35 0854.50
2009/04/23 14:11:59.3     137     10    113    138    178  85.6  43.7  34260  291.28 0854.48
2009/04/23 14:11:59.4     135    -69    132    152    201 117.1  45.8  34266  291.37 0854.48
2009/04/23 14:11:59.5     202   -175    148    268    306 130.9  31.4  34266  291.38 0854.48
2009/04/23 14:11:59.6     155   -194     77    249    261 141.3  17.3  34262  291.29 0854.48
2009/04/23 14:11:59.7      78   -269    102    281    298 163.9  20.9  34298  291.92 0854.48
2009/04/23 14:11:59.8      23   -281     55    283    289 175.1  11.1  34312  292.14 0854.48
2009/04/23 14:11:59.9     -34   -297     31    300    302 186.7   5.9  34264  291.33 0854.48
2009/04/23 14:12:00.0     185   -431    115    470    484 156.8  13.8  34242  290.95 0854.48
2009/04/23 14:12:00.1     284   -469    191    549    582 148.8  19.2  34240  290.92 0854.48
2009/04/23 14:12:00.2     229   -447    205    503    543 152.8  23.4  34218  290.55 0854.48
2009/04/23 14:12:00.3     187   -412    230    453    508 155.6  29.1  34218  290.57 0854.48
2009/04/23 14:12:00.4     165   -368    243    404    471 155.8  33.8  34212  290.44 0854.48
2009/04/23 14:12:00.5     247   -351    243    430    493 144.8  32.0  34220  290.59 0854.48
2009/04/23 14:12:00.6     153   -419    344    447    564 160.0  41.5  34274  291.50 0854.48
2009/04/23 14:12:00.7      -8   -507    320    508    600 181.0  35.5  34292  291.83 0854.48
2009/04/23 14:12:00.8     -74   -477    171    483    512 188.9  20.4  34288  291.76 0854.48
2009/04/23 14:12:00.9      -8   -561    209    562    599 180.9  21.4  34204  290.32 0854.48
2009/04/23 14:12:01.0      38   -497    298    499    581 175.5  33.6  34212  290.46 0854.48
2009/04/23 14:12:01.1     -68   -500    343    505    610 187.8  37.4  34250  291.09 0854.48
2009/04/23 14:12:01.2    -171   -318    257    362    443 208.3  38.8  34260  291.26 0854.48
2009/04/23 14:12:01.3     183     21    238    185    301  83.4  58.5  34256  291.21 0854.47
2009/04/23 14:12:01.4     153    -95    153    181    237 122.0  44.8  34294  291.86 0854.47
2009/04/23 14:12:01.5     116   -110    184    161    244 133.6  54.6  34284  291.69 0854.47
2009/04/23 14:12:01.6      92    -32    157     98    185 109.5  64.9  34272  291.47 0854.47
2009/04/23 14:12:01.7     257    127    165    287    331  63.6  32.6  34308  292.09 0854.47
2009/04/23 14:12:01.8     304     32    159    306    344  83.9  29.5  34260  291.27 0854.47
2009/04/23 14:12:01.9     209     23    170    211    270  83.6  43.3  34336  292.57 0854.47
2009/04/23 14:12:02.0     155     61     62    167    178  68.3  21.3  34352  292.85 0854.47
2009/04/23 14:12:02.1      81    -50    145     96    173 122.0  63.9  34324  292.37 0854.47
2009/04/23 14:12:02.2     125   -137    135    186    229 137.7  39.7  34262  291.32 0854.47
2009/04/23 14:12:02.3     120    -31    100    124    159 104.6  43.0  34264  291.35 0854.47
2009/04/23 14:12:02.4      73      6    102     74    126  84.8  60.5  34278  291.57 0854.47
2009/04/23 14:12:02.5       0     -7     60      8     60 182.7  90.0  34290  291.79 0854.47
2009/04/23 14:12:02.6      35     38     80     52     95  42.3  64.6  34290  291.77 0854.47
2009/04/23 14:12:02.7      33    -47    108     58    122 144.8  69.3  34292  291.83 0854.47
2009/04/23 14:12:02.8      39    -54    133     67    148 143.9  71.4  34264  291.35 0854.47
2009/04/23 14:12:02.9      20     27    108     34    113  36.1  81.2  34280  291.60 0854.47
2009/04/23 14:12:03.0     -12     60    131     62    144 348.4  72.9  34280  291.60 0854.47
2009/04/23 14:12:03.1     -28     13     97     31    101 295.2  81.2  34274  291.52 0854.47
2009/04/23 14:12:03.2       7     33    129     34    133  13.4  84.9  34264  291.33 0854.47
2009/04/23 14:12:03.3    -101     21     81    104    131 281.9  41.7  34262  291.32 0854.45
2009/04/23 14:12:03.4    -130   -107    102    169    197 230.5  33.7  34252  291.15 0854.45
2009/04/23 14:12:03.5    -159    143     91    215    233 312.0  24.1  34260  291.26 0854.45
2009/04/23 14:12:03.6    -141    203    112    248    272 325.3  26.2  34282  291.65 0854.45
2009/04/23 14:12:03.7     -49    -64    148     81    168 217.4  69.1  34294  291.84 0854.45
2009/04/23 14:12:03.8      54   -456    287    460    542 173.2  35.0  34236  290.86 0854.45
2009/04/23 14:12:03.9     451   -249     34    516    518 118.9   3.8  34248  291.05 0854.45
2009/04/23 14:12:04.0     285   -286    216    404    458 135.1  30.6  34216  290.51 0854.45
2009/04/23 14:12:04.1     146   -326    290    358    460 155.9  43.4  34222  290.63 0854.45
2009/04/23 14:12:04.2      90   -414    272    424    503 167.6  35.6  34234  290.83 0854.45
2009/04/23 14:12:04.3      88   -458    285    467    547 169.1  34.4  34230  290.77 0854.45
2009/04/23 14:12:04.4      83   -263    256    276    376 162.4  47.9  34230  290.77 0854.45
2009/04/23 14:12:04.5       0   -252    277    253    375 180.0  52.9  34234  290.83 0854.45
2009/04/23 14:12:04.6      76   -181    226    197    299 157.1  54.3  34250  291.09 0854.45
2009/04/23 14:12:04.7       0   -212    169    213    271 180.2  42.7  34248  291.07 0854.45
2009/04/23 14:12:04.8    -173   -304    144    350    378 209.7  23.5  34258  291.23 0854.45
2009/04/23 14:12:04.9    -131   -265     -3    296    297 206.3  -0.7  34298  291.90 0854.45
2009/04/23 14:12:05.0    -149   -166      3    224    225 221.9   1.0  34294  291.86 0854.45
2009/04/23 14:12:05.1    -149    -82     36    171    175 241.1  12.0  34316  292.23 0854.45
2009/04/23 14:12:05.2    -307    -33    -62    309    316 263.8 -11.3  34328  292.41 0854.45
2009/04/23 14:12:05.3    -219    -57     79    227    241 255.4  19.2  34340  292.64 0854.40
2009/04/23 14:12:05.4    -307      5     54    308    313 271.0  10.1  34364  293.03 0854.40
2009/04/23 14:12:05.5    -266     58     38    273    276 282.4   8.0  34334  292.53 0854.40
2009/04/23 14:12:05.6    -311     33     -1    313    314 276.2  -0.3  34330  292.47 0854.40
2009/04/23 14:12:05.7    -357     22     80    358    367 273.6  12.6  34308  292.08 0854.40
2009/04/23 14:12:05.8    -234     17    119    235    263 274.4  28.7  34304  292.02 0854.40
2009/04/23 14:12:05.9     -48      0    128     49    137 270.0  78.6  34312  292.17 0854.40
2009/04/23 14:12:06.0      13      5    116     14    116  68.3  90.0  34320  292.29 0854.40
2009/04/23 14:12:06.1      -4     57    132     58    144 355.5  74.9  34298  291.93 0854.40
2009/04/23 14:12:06.2     -22      0    114     23    116 270.8  89.1  34270  291.45 0854.40
2009/04/23 14:12:06.3      47     98    104    109    150  25.9  48.5  34250  291.11 0854.40
2009/04/23 14:12:06.4      71    148     88    165    187  25.6  30.3  34270  291.43 0854.40
2009/04/23 14:12:06.5     108    125     96    166    191  41.0  32.9  34266  291.37 0854.40
2009/04/23 14:12:06.6      96     90    123    132    180  46.9  47.9  34262  291.30 0854.40
2009/04/23 14:12:06.7     -12    185     77    186    201 356.2  23.6  34266  291.37 0854.40
2009/04/23 14:12:06.8       0    371     75    372    380 359.9  11.4  34248  291.05 0854.40
2009/04/23 14:12:06.9      82    319     -4    330    331  14.4  -0.7  34248  291.06 0854.40
2009/04/23 14:12:07.0     154    279    -44    319    323  28.9  -7.9  34254  291.16 0854.40
2009/04/23 14:12:07.1     111    169     80    203    218  33.4  22.8  34252  291.15 0854.40
2009/04/23 14:12:07.2     263    233     54    352    357  48.5   8.7  34288  291.76 0854.40
2009/04/23 14:12:07.4     285    225     73    364    372  51.7  11.4  34322  292.32 0854.39
2009/04/23 14:12:07.4     218    120    138    250    285  61.1  31.4  34368  293.10 0854.39
2009/04/23 14:12:07.5     151     82    214    173    275  61.4  56.9  34392  293.52 0854.39
2009/04/23 14:12:07.6     -85    -22    141     88    166 255.4  64.9  34382  293.36 0854.39
2009/04/23 14:12:07.7    -192     -8    162    193    251 267.4  44.3  34380  293.30 0854.39
2009/04/23 14:12:07.9       3    205    185    206    276   0.9  46.6  34340  292.62 0854.39
2009/04/23 14:12:08.0     -58    181    192    191    270 342.2  49.9  34338  292.60 0854.39
2009/04/23 14:12:08.1     -53    195    107    203    229 344.8  30.1  34320  292.30 0854.39
2009/04/23 14:12:08.1     -52    255    124    261    288 348.4  27.2  34262  291.29 0854.39
2009/04/23 14:12:08.3    -184    285     53    340    345 327.2   8.9  34312  292.15 0854.39
2009/04/23 14:12:08.4    -283    171   -104    331    346 301.2 -22.6  34290  291.78 0854.39
2009/04/23 14:12:08.5    -316     21   -102    317    333 273.9 -23.0  34288  291.75 0854.39
2009/04/23 14:12:08.6    -351   -190   -135    400    423 241.5 -18.7  34290  291.77 0854.39
2009/04/23 14:12:08.7    -557   -150   -115    578    590 254.9 -11.3  34280  291.60 0854.39
2009/04/23 14:12:08.8    -281   -171    148    330    361 238.7  25.8  34250  291.10 0854.39
2009/04/23 14:12:08.9    -336   -209    -43    396    399 238.1  -6.2  34262  291.32 0854.39
2009/04/23 14:12:09.0    -166     15    194    167    255 275.5  55.0  34274  291.52 0854.39
2009/04/23 14:12:09.1    -115    237      5    264    265 334.1   1.2  34272  291.48 0854.39
2009/04/23 14:12:09.2       3    235    -73    236    247   0.9 -22.1  34276  291.53 0854.39
2009/04/23 14:12:09.3      22    156   -112    158    193   8.1 -43.2  34272  291.49 0854.39
2009/04/23 14:12:09.4      54     25   -167     60    177  64.6 -84.1  34258  291.25 0854.41
2009/04/23 14:12:09.5      17     -5   -193     18    193 108.6 -90.0  34266  291.38 0854.41
2009/04/23 14:12:09.6     -27     31   -222     42    225 318.6 -90.0  34246  291.04 0854.41
2009/04/23 14:12:09.7      18    180   -282    182    335   6.0 -68.7  34226  290.70 0854.41
2009/04/23 14:12:09.8    -133    216   -410    254    482 328.3 -69.7  34220  290.60 0854.41
2009/04/23 14:12:09.9      59    316   -178    322    367  10.6 -35.8  34240  290.93 0854.41
2009/04/23 14:12:10.0      53    370   -199    374    423   8.2 -34.6  34254  291.16 0854.41
2009/04/23 14:12:10.1     -89     54   -222    105    245 301.1 -77.5  34236  290.87 0854.41
2009/04/23 14:12:10.2    -314    -44   -124    318    341 262.0 -26.9  34270  291.45 0854.41
2009/04/23 14:12:10.3    -192    -91   -204    213    294 244.5 -53.1  34292  291.82 0854.41
2009/04/23 14:12:10.4    -198   -239   -234    311    389 219.6 -45.2  34270  291.45 0854.41
2009/04/23 14:12:10.5    -336    -81   -259    346    432 256.3 -45.0  34300  291.96 0854.41
2009/04/23 14:12:10.6    -192      0   -230    193    300 270.0 -60.5  34304  292.02 0854.41
2009/04/23 14:12:10.7     -63     13   -119     65    135 282.4 -73.2  34296  291.88 0854.41
2009/04/23 14:12:10.8     -44     27    -88     52    102 301.5 -71.2  34274  291.50 0854.41
2009/04/23 14:12:10.9      86    178     33    198    201  25.9   9.5  34266  291.38 0854.41
2009/04/23 14:12:11.0      68    184     28    197    200  20.5   8.2  34260  291.28 0854.41
2009/04/23 14:12:11.1      16     78    -33     80     86  11.6 -27.4  34266  291.38 0854.41
2009/04/23 14:12:11.2      91     66    -96    113    148  54.0 -48.7  34256  291.21 0854.41
2009/04/23 14:12:11.3     150     20   -131    152    200  82.1 -49.8  34252  291.13 0854.41
2009/04/23 14:12:11.4     138    203   -230    246    336  34.3 -52.3  34214  290.48 0854.40
2009/04/23 14:12:11.5     119    272   -273    298    404  23.7 -51.5  34210  290.42 0854.40
2009/04/23 14:12:11.6     169    292   -126    338    360  30.1 -25.7  34214  290.49 0854.40
2009/04/23 14:12:11.7     177    335   -134    380    402  27.9 -24.5  34216  290.52 0854.40
2009/04/23 14:12:11.8     334    269   -102    429    441  51.2 -13.4  34230  290.77 0854.40
2009/04/23 14:12:11.9     414    215    -25    467    468  62.5  -3.1  34218  290.54 0854.40
2009/04/23 14:12:12.0     484    127    164    501    528  75.3  18.1  34212  290.47 0854.40
2009/04/23 14:12:12.1     210   -143      2    255    256 124.4   0.5  34236  290.85 0854.40
2009/04/23 14:12:12.2     243   -229   -184    334    381 133.3 -35.7  34232  290.79 0854.40
2009/04/23 14:12:12.3     170     65   -209    183    277  68.9 -58.7  34246  291.04 0854.40
2009/04/23 14:12:12.4     104     78   -145    130    194  53.1 -57.9  34240  290.94 0854.40
2009/04/23 14:12:12.5     188    -63    -87    199    217 108.6 -29.5  34248  291.06 0854.40
2009/04/23 14:12:12.6      92    158    -90    184    204  30.3 -32.4  34242  290.96 0854.40
2009/04/23 14:12:12.7     -25    199    -55    201    208 352.7 -20.0  34230  290.77 0854.40
2009/04/23 14:12:12.8      15    207    -37    208    212   4.4 -10.1  34236  290.86 0854.40
2009/04/23 14:12:12.9     -54     26     30     61     67 296.2  27.3  34238  290.91 0854.40
2009/04/23 14:12:13.0     -39    -42     50     58     76 223.2  44.8  34240  290.92 0854.40
2009/04/23 14:12:13.1      -4    -83     74     84    111 183.1  46.4  34238  290.89 0854.40
2009/04/23 14:12:13.2       8   -127     62    128    142 176.0  27.3  34236  290.86 0854.40
2009/04/23 14:12:13.3     -77   -172     75    189    203 204.1  22.8  34246  291.03 0854.40
2009/04/23 14:12:13.4     -70   -176     66    190    202 201.9  19.2  34236  290.87 0854.40
2009/04/23 14:12:13.5     -54   -184    100    192    216 196.5  29.5  34224  290.67 0854.40
2009/04/23 14:12:13.6     -87   -150     79    174    191 210.3  26.2  34220  290.58 0854.40
2009/04/23 14:12:13.7     -87    -28     -3     92     93 251.8  -2.2  34218  290.55 0854.40
2009/04/23 14:12:13.8      81   -222     64    237    246 160.0  15.3  34216  290.53 0854.40
2009/04/23 14:12:13.9      47   -143     95    151    178 161.7  35.5  34222  290.62 0854.40
2009/04/23 14:12:14.0     100   -256     74    275    286 158.6  15.2  34228  290.71 0854.40
2009/04/23 14:12:14.1     -55   -383    -49    388    392 188.3  -7.3  34218  290.54 0854.40
2009/04/23 14:12:14.2    -189   -138     32    235    238 233.8   7.8  34222  290.61 0854.40
2009/04/23 14:12:14.3      19   -352    239    353    426 176.8  37.4  34226  290.68 0854.40
2009/04/23 14:12:14.4      10   -326    248    327    410 178.2  40.9  34228  290.72 0854.40
2009/04/23 14:12:14.5     -23    -68    239     73    249 199.2  82.5  34238  290.89 0854.40
2009/04/23 14:12:14.6    -373   -167    206    409    457 245.8  28.7  34242  290.97 0854.40
2009/04/23 14:12:14.7    -320   -111    248    339    420 250.8  39.7  34244  291.00 0854.40
2009/04/23 14:12:14.8    -410   -115     44    426    429 254.3   5.9  34238  290.90 0854.40
2009/04/23 14:12:14.9    -382   -202     29    433    434 242.1   3.9  34242  290.97 0854.40
2009/04/23 14:12:15.0    -113   -178    199    212    290 212.5  48.0  34226  290.70 0854.40
2009/04/23 14:12:15.1    -146   -154    173    213    274 223.3  43.5  34226  290.70 0854.40
2009/04/23 14:12:15.2    -204   -236     77    313    323 220.8  13.9  34220  290.58 0854.40
2009/04/23 14:12:15.3    -215   -269     80    345    355 218.7  13.1  34216  290.52 0854.40
2009/04/23 14:12:15.4     -82   -260     48    273    278 197.6  10.1  34214  290.49 0854.40
2009/04/23 14:12:15.5    -125   -284     38    311    314 203.7   7.1  34226  290.70 0854.40
2009/04/23 14:12:15.6    -133   -134     34    190    194 224.8  10.3  34236  290.86 0854.40
2009/04/23 14:12:15.7    -121   -166    -65    206    217 216.1 -17.6  34242  290.98 0854.40
2009/04/23 14:12:15.8    -233    -83     -9    248    249 250.3  -2.2  34246  291.02 0854.40
2009/04/23 14:12:15.9    -154      7    -11    155    156 272.6  -4.1  34258  291.23 0854.40
2009/04/23 14:12:16.0    -184     62    -57    195    203 288.8 -21.5  34256  291.21 0854.40
2009/04/23 14:12:16.1    -212    -38    -98    216    237 259.6 -30.6  34254  291.18 0854.40
2009/04/23 14:12:16.2    -242   -144   -129    282    310 239.3 -30.8  34240  290.93 0854.40
2009/04/23 14:12:16.3    -471   -157   -164    497    523 251.6 -23.5  34208  290.39 0854.40
2009/04/23 14:12:16.4    -474   -301    -17    562    563 237.6  -1.8  34224  290.65 0854.41
2009/04/23 14:12:16.5    -416   -141     -8    440    441 251.3  -1.2  34240  290.94 0854.41
2009/04/23 14:12:16.6    -420   -383     48    569    572 227.7   4.9  34228  290.71 0854.41
2009/04/23 14:12:16.7    -464   -348   -216    581    619 233.1 -25.8  34202  290.29 0854.41
2009/04/23 14:12:16.8    -378   -149   -122    407    425 248.4 -16.7  34204  290.31 0854.41
2009/04/23 14:12:16.9    -578   -342    -29    672    673 239.4  -2.5  34216  290.51 0854.41
2009/04/23 14:12:17.0    -570   -414   -199    705    733 234.0 -15.8  34174  289.81 0854.41
2009/04/23 14:12:17.1    -611   -607   -215    862    889 225.2 -14.1  34172  289.79 0854.41
2009/04/23 14:12:17.2    -506   -574   -263    766    811 221.4 -19.0  34178  289.86 0854.41
2009/04/23 14:12:17.3    -315   -569   -185    651    676 209.0 -20.5  34182  289.93 0854.41
2009/04/23 14:12:17.4    -336   -440   -284    554    622 217.4 -33.7  34176  289.83 0854.41
2009/04/23 14:12:17.5    -364   -530   -339    644    727 214.5 -34.5  34186  290.01 0854.41
2009/04/23 14:12:17.6    -439   -467   -356    642    734 223.2 -35.8  34186  290.01 0854.41
2009/04/23 14:12:17.7    -291   -472   -219    555    596 211.6 -27.3  34186  290.00 0854.41
2009/04/23 14:12:17.8    -250   -418   -254    488    550 210.9 -34.2  34186  290.02 0854.41
2009/04/23 14:12:17.9    -428   -468   -209    635    668 222.4 -23.3  34174  289.80 0854.41
2009/04/23 14:12:18.0    -229   -430   -126    488    505 208.0 -14.5  34186  290.00 0854.41
2009/04/23 14:12:18.1    -154   -458   -159    484    509 198.6 -23.3  34182  289.96 0854.41
2009/04/23 14:12:18.2    -154   -444   -261    471    538 199.2 -35.8  34182  289.95 0854.41
2009/04/23 14:12:18.3     -31   -409   -212    411    462 184.4 -33.7  34188  290.04 0854.41
2009/04/23 14:12:18.4     -22   -416   -157    417    445 183.1 -25.9  34194  290.16 0854.42
2009/04/23 14:12:18.5    -316   -300   -207    436    482 226.5 -31.6  34192  290.10 0854.42
2009/04/23 14:12:18.6    -313   -256   -273    405    488 230.7 -41.6  34198  290.22 0854.42
2009/04/23 14:12:18.7    -287   -232   -228    370    434 231.0 -38.9  34194  290.14 0854.42
2009/04/23 14:12:18.8    -236   -321   -254    399    472 216.4 -39.9  34196  290.19 0854.42
2009/04/23 14:12:18.9    -174   -317   -193    362    410 208.9 -34.7  34190  290.08 0854.42
2009/04/23 14:12:19.0    -109   -257   -228    280    361 202.9 -47.9  34198  290.20 0854.42
2009/04/23 14:12:19.1    -145   -213   -160    258    303 214.3 -39.6  34192  290.12 0854.42
2009/04/23 14:12:19.2    -119   -289   -163    313    352 202.5 -34.0  34192  290.13 0854.42
2009/04/23 14:12:19.3     -79   -372   -108    381    396 192.0 -20.5  34184  289.99 0854.42
2009/04/23 14:12:19.4    -126   -335   -186    359    404 200.7 -33.8  34178  289.87 0854.42
2009/04/23 14:12:19.5    -159   -327   -173    364    403 206.0 -31.6  34186  290.01 0854.42
2009/04/23 14:12:19.6    -127   -304   -211    330    391 202.7 -40.0  34194  290.15 0854.42
2009/04/23 14:12:19.7     -87   -250   -147    265    303 199.2 -35.8  34194  290.14 0854.42
2009/04/23 14:12:19.8    -120   -203   -117    236    263 210.7 -32.6  34200  290.26 0854.42
2009/04/23 14:12:19.9      -3   -162   -106    163    194 181.4 -40.0  34208  290.38 0854.42
2009/04/23 14:12:20.0     -50   -196   -102    203    227 194.3 -32.9  34224  290.67 0854.42
2009/04/23 14:12:20.1     -41   -321   -156    324    359 187.3 -31.8  34196  290.18 0854.42
2009/04/23 14:12:20.2     -15   -412   -128    413    433 182.1 -17.3  34228  290.72 0854.42
2009/04/23 14:12:20.3     -29   -450   -153    451    476 183.7 -23.8  34238  290.88 0854.42
2009/04/23 14:12:20.4     -79   -327   -187    337    385 193.7 -35.8  34230  290.76 0854.40
2009/04/23 14:12:20.5    -176   -274    -70    326    334 212.7 -12.2  34242  290.98 0854.40
2009/04/23 14:12:20.6    -164   -346    -18    384    385 205.4  -2.8  34234  290.83 0854.40
2009/04/23 14:12:20.7    -105   -341     59    358    363 197.2   9.4  34238  290.91 0854.40
2009/04/23 14:12:20.8     -15   -339     12    340    341 182.6   2.1  34234  290.83 0854.40
2009/04/23 14:12:20.9      43   -317     -3    320    321 172.2  -0.6  34236  290.85 0854.40
2009/04/23 14:12:21.0     151   -229    -39    275    278 146.6  -8.2  34228  290.73 0854.40
2009/04/23 14:12:21.1      86   -216    -42    233    237 158.2 -10.3  34224  290.65 0854.40
2009/04/23 14:12:21.2      61   -205    -54    215    222 163.3 -14.3  34214  290.48 0854.40
2009/04/23 14:12:21.3     122   -141    -62    187    197 139.2 -23.6  34214  290.50 0854.40
2009/04/23 14:12:21.4     132    -44      0    140    141 108.6   0.2  34224  290.67 0854.40
2009/04/23 14:12:21.5     125    -53     37    136    142 113.1  15.3  34228  290.72 0854.40
2009/04/23 14:12:21.6      78    -47     89     92    128 121.1  49.4  34226  290.69 0854.40
2009/04/23 14:12:21.7     114    -45    179    123    217 111.8  62.4  34216  290.52 0854.40
2009/04/23 14:12:21.8     149    -65    131    163    209 113.5  43.3  34212  290.45 0854.40
2009/04/23 14:12:21.9     151     19     95    153    180  82.5  35.0  34214  290.48 0854.40
2009/04/23 14:12:22.0     200    -29    114    203    232  98.4  31.6  34222  290.64 0854.40
2009/04/23 14:12:22.1      90     25    180     94    203  74.1  70.4  34226  290.69 0854.40
2009/04/23 14:12:22.2     233     -1     62    234    243  90.4  15.0  34218  290.56 0854.40
2009/04/23 14:12:22.3     330     96    171    344    384  73.7  28.2  34234  290.84 0854.40
2009/04/23 14:12:22.4     378    105    209    393    445  74.5  30.3  34248  291.07 0854.42
2009/04/23 14:12:22.5     191    -31    252    194    318  99.5  58.6  34244  291.00 0854.42
2009/04/23 14:12:22.6      24    -96    181    100    206 165.7  68.9  34250  291.11 0854.42
2009/04/23 14:12:22.7      45   -183    176    189    258 166.2  47.9  34224  290.65 0854.42
2009/04/23 14:12:22.8       2    -94    146     95    174 178.2  64.4  34234  290.84 0854.42
2009/04/23 14:12:22.9      30   -212    108    215    240 171.9  28.5  34208  290.38 0854.42
2009/04/23 14:12:23.0      69   -281    103    290    308 166.2  19.6  34212  290.44 0854.42
2009/04/23 14:12:23.1      70   -254     77    264    276 164.6  16.3  34214  290.48 0854.42
2009/04/23 14:12:23.2      52   -256     74    262    273 168.5  15.8  34210  290.41 0854.42
2009/04/23 14:12:23.3     175   -153     63    233    242 131.1  15.3  34228  290.73 0854.42
2009/04/23 14:12:23.4     221   -159     55    273    279 125.7  11.6  34224  290.65 0854.42
2009/04/23 14:12:23.5     203   -223     47    302    306 137.7   8.9  34220  290.59 0854.42
2009/04/23 14:12:23.6     271   -275     41    387    390 135.5   6.1  34210  290.42 0854.42
2009/04/23 14:12:23.7     269   -200     40    336    339 126.6   6.9  34212  290.47 0854.42
2009/04/23 14:12:23.8     252   -218    102    334    350 130.9  17.0  34218  290.55 0854.42
2009/04/23 14:12:23.9     234   -214    149    318    351 132.4  27.0  34218  290.54 0854.42
2009/04/23 14:12:24.0     230   -217    138    317    345 133.3  25.0  34230  290.76 0854.42
2009/04/23 14:12:24.1     248   -226     58    336    342 132.3   9.9  34240  290.94 0854.42
2009/04/23 14:12:24.2     170   -307     11    352    353 151.0   1.8  34224  290.67 0854.42
2009/04/23 14:12:24.3     116   -337     78    357    366 161.0  12.4  34222  290.64 0854.42
2009/04/23 14:12:24.4     192   -300    123    357    378 147.4  19.1  34224  290.67 0854.43
2009/04/23 14:12:24.5     221   -346    120    411    429 147.4  16.3  34214  290.48 0854.43
2009/04/23 14:12:24.6     215   -361    140    421    444 149.3  18.5  34214  290.50 0854.43
2009/04/23 14:12:24.7     231   -297    142    377    402 142.2  21.6  34208  290.40 0854.43
2009/04/23 14:12:24.8     223   -247    182    333    379 137.9  31.3  34224  290.67 0854.43
2009/04/23 14:12:24.9     206   -178    167    273    320 130.9  34.4  34238  290.90 0854.43
2009/04/23 14:12:25.0      13   -287    153    288    326 177.4  30.2  34218  290.56 0854.43
2009/04/23 14:12:25.1      23   -391     97    392    404 176.5  13.9  34220  290.60 0854.43
2009/04/23 14:12:25.2      93   -304    164    319    358 163.0  29.3  34226  290.69 0854.43
2009/04/23 14:12:25.3      29   -262    163    264    310 173.5  35.0  34230  290.75 0854.43
2009/04/23 14:12:25.4     191    -88    196    211    287 114.8  47.9  34242  290.97 0854.43
2009/04/23 14:12:25.5     175    -32    158    178    238 100.6  46.4  34240  290.94 0854.43
2009/04/23 14:12:25.6      41     -7    132     42    138 100.6  81.8  34246  291.04 0854.43
2009/04/23 14:12:25.7      98     78    122    126    175  51.4  49.2  34238  290.91 0854.43
2009/04/23 14:12:25.8     -62   -112     56    129    140 208.9  25.1  34246  291.04 0854.43
2009/04/23 14:12:25.9    -115    -74    -41    137    143 237.1 -21.7  34246  291.04 0854.43
2009/04/23 14:12:26.0     -94     39     18    102    104 292.6  10.1  34242  290.96 0854.43
2009/04/23 14:12:26.1     -79    -34     32     87     92 246.5  20.4  34250  291.09 0854.43
2009/04/23 14:12:26.2    -127   -198    -10    236    237 212.6  -2.6  34252  291.14 0854.43
2009/04/23 14:12:26.3    -211      0    -54    212    219 270.0 -14.5  34256  291.20 0854.43
2009/04/23 14:12:26.4    -282   -125    -22    309    310 246.0  -4.1  34268  291.41 0854.43
2009/04/23 14:12:26.5    -161   -145    119    218    248 228.0  31.0  34264  291.34 0854.43
2009/04/23 14:12:26.6    -131    -41    -85    138    162 252.7 -38.8  34270  291.45 0854.43
2009/04/23 14:12:26.7     -21     49    -69     54     87 336.4 -62.3  34272  291.47 0854.43
2009/04/23 14:12:26.8     -26    130     18    133    135 348.5   8.0  34264  291.35 0854.43
2009/04/23 14:12:26.9    -196    196      2    278    279 315.0   0.5  34274  291.50 0854.43
2009/04/23 14:12:27.0    -300    120     34    324    326 291.8   6.1  34290  291.78 0854.43
2009/04/23 14:12:27.1    -323     94    -48    337    341 286.3  -8.2  34248  291.08 0854.43
2009/04/23 14:12:27.2    -388    117     30    406    408 286.8   4.3  34270  291.45 0854.43
2009/04/23 14:12:27.3    -379     41     85    382    392 276.3  12.6  34286  291.71 0854.43
2009/04/23 14:12:27.4    -231    -69     80    242    256 253.2  18.4  34260  291.27 0854.43
2009/04/23 14:12:27.5    -199   -160    -14    256    257 231.3  -3.3  34252  291.12 0854.43
2009/04/23 14:12:27.6    -167   -101    -57    196    204 238.7 -21.2  34260  291.26 0854.43
2009/04/23 14:12:27.7    -180   -149    -60    235    243 230.4 -14.5  34268  291.39 0854.43
2009/04/23 14:12:27.8    -231   -222    -41    321    324 226.2  -7.3  34272  291.46 0854.43
2009/04/23 14:12:27.9    -182   -109     10    213    214 239.1   2.9  34266  291.38 0854.43
2009/04/23 14:12:28.0    -337   -153    -26    371    372 245.5  -4.1  34268  291.39 0854.43
2009/04/23 14:12:28.1    -247    -53   -121    253    280 257.7 -31.7  34272  291.48 0854.43
2009/04/23 14:12:28.2    -226    -76    -49    239    245 251.4 -11.6  34272  291.46 0854.43
2009/04/23 14:12:28.3    -121     84    -41    148    154 304.6 -15.5  34258  291.25 0854.43
2009/04/23 14:12:28.4    -100    210     19    233    234 334.5   4.9  34258  291.24 0854.37
2009/04/23 14:12:28.5     -60    196     77    206    219 342.8  21.3  34264  291.35 0854.37
2009/04/23 14:12:28.6    -146    236    114    278    300 328.3  23.4  34266  291.36 0854.37
2009/04/23 14:12:28.7    -129    271     97    301    317 334.5  17.9  34258  291.22 0854.37
2009/04/23 14:12:28.8     -63    271    107    279    298 346.9  22.0  34258  291.24 0854.37
2009/04/23 14:12:28.9     -80    287    145    298    331 344.4  27.9  34262  291.29 0854.37
2009/04/23 14:12:29.0     -63    215     80    225    238 343.7  20.2  34274  291.50 0854.37
2009/04/23 14:12:29.1     -21     64     93     68    115 341.7  60.5  34268  291.42 0854.37
2009/04/23 14:12:29.2     -14    -82    111     84    139 190.2  59.4  34266  291.38 0854.37
2009/04/23 14:12:29.3      -2   -157     83    158    178 180.9  30.1  34264  291.33 0854.37
2009/04/23 14:12:29.4     -31   -165     71    168    182 190.7  24.1  34262  291.30 0854.37
2009/04/23 14:12:29.5     -12   -158     70    159    173 184.4  25.1  34262  291.32 0854.37
2009/04/23 14:12:29.6     101   -131     92    166    189 142.2  31.4  34262  291.32 0854.37
2009/04/23 14:12:29.7      45   -133    -27    141    144 161.3 -10.9  34254  291.16 0854.37
2009/04/23 14:12:29.8     146    -77    127    166    209 118.0  41.4  34254  291.18 0854.37
2009/04/23 14:12:29.9     167   -151    119    226    255 132.0  30.1  34264  291.33 0854.37
2009/04/23 14:12:30.0     179   -173    134    250    283 134.0  30.3  34240  290.92 0854.37
2009/04/23 14:12:30.1     296   -254    188    391    433 130.7  27.3  34236  290.85 0854.37
2009/04/23 14:12:30.2     390    -40    206    393    443  96.0  29.8  34248  291.06 0854.37
2009/04/23 14:12:30.3     371   -119    215    390    445 107.8  31.3  34266  291.36 0854.37
2009/04/23 14:12:30.4     489    -59    241    493    548  97.0  28.1  34252  291.14 0854.35
2009/04/23 14:12:30.5     245    -58    383    252    458 103.5  63.7  34264  291.35 0854.35
2009/04/23 14:12:30.6     329   -363    194    491    527 137.8  22.9  34228  290.73 0854.35
2009/04/23 14:12:30.7     179   -385    246    425    491 155.0  32.6  34226  290.69 0854.35
2009/04/23 14:12:30.8     259   -349    279    435    516 143.4  35.6  34228  290.73 0854.35
2009/04/23 14:12:30.9     297   -533    252    611    660 150.8  23.7  34206  290.35 0854.35
2009/04/23 14:12:31.0     319   -385    135    500    519 140.4  15.2  34196  290.17 0854.35
2009/04/23 14:12:31.1     127   -367    242    389    458 160.8  35.0  34206  290.34 0854.35
2009/04/23 14:12:31.2      88   -487    142    496    517 169.7  16.0  34212  290.47 0854.35
2009/04/23 14:12:31.3     -10   -421    120    422    439 181.4  15.9  34200  290.26 0854.35
2009/04/23 14:12:31.4      -3   -381    245    382    453 180.5  35.6  34214  290.50 0854.35
2009/04/23 14:12:31.5    -124   -390    264    410    487 197.7  35.7  34234  290.84 0854.35
2009/04/23 14:12:31.6     -77   -304    197    314    370 194.3  35.3  34220  290.59 0854.35
2009/04/23 14:12:31.7      81   -178    170    196    259 155.3  45.6  34214  290.49 0854.35
2009/04/23 14:12:31.8     140   -222    138    263    297 147.7  30.1  34224  290.65 0854.35
2009/04/23 14:12:31.9     143   -142    122    202    235 134.8  34.0  34226  290.69 0854.35
2009/04/23 14:12:32.0     257   -112     72    281    291 113.5  14.5  34232  290.78 0854.35
2009/04/23 14:12:32.1     227    -92     55    246    253 112.2  12.6  34232  290.80 0854.35
2009/04/23 14:12:32.2     158    -51     82    167    186 107.9  27.8  34236  290.86 0854.35
2009/04/23 14:12:32.3     125    -29     73    129    148 103.2  31.9  34236  290.86 0854.35
2009/04/23 14:12:32.4     117      8     17    118    120  85.7   8.5  34230  290.77 0854.32
2009/04/23 14:12:32.5      52      1    -37     53     64  88.3 -43.0  34234  290.82 0854.32
2009/04/23 14:12:32.6      27    -22     15     35     38 129.5  23.0  34236  290.87 0854.32
2009/04/23 14:12:32.7      19    -14     19     24     30 126.0  43.7  34246  291.04 0854.32
2009/04/23 14:12:32.8       8      6     24     11     26  50.5  75.0  34250  291.11 0854.32
2009/04/23 14:12:32.9      30     26     30     40     50  48.7  41.7  34256  291.21 0854.32
2009/04/23 14:12:33.0     -13     39     67     42     79 340.8  65.1  34252  291.15 0854.32
2009/04/23 14:12:33.1       1     77     59     78     97   0.9  41.2  34240  290.92 0854.32
2009/04/23 14:12:33.2       0     99      5    100    101 359.5   3.3  34236  290.87 0854.32
2009/04/23 14:12:33.3     -41    126     19    133    135 341.7   8.5  34236  290.86 0854.32
2009/04/23 14:12:33.4     -47    137     27    146    149 340.8  10.6  34232  290.81 0854.32
2009/04/23 14:12:33.5     -26    160     77    163    180 350.7  27.2  34230  290.75 0854.32
2009/04/23 14:12:33.6     -61    168    108    179    209 340.0  34.0  34226  290.70 0854.32
2009/04/23 14:12:33.7     -53    193    133    201    241 344.6  36.5  34230  290.77 0854.32
2009/04/23 14:12:33.8     -92    199    141    220    261 335.1  35.6  34226  290.70 0854.32
2009/04/23 14:12:33.9    -137    165     64    215    225 320.4  16.6  34228  290.72 0854.32
2009/04/23 14:12:34.1     -31    115     65    120    136 344.9  30.8  34240  290.92 0854.32
2009/04/23 14:12:34.2       6    196    -33    197    200   2.0  -9.8  34236  290.86 0854.32
2009/04/23 14:12:34.3     137    268    -51    302    307  27.2  -9.6  34292  291.82 0854.32
2009/04/23 14:12:34.4     228    284     38    365    368  38.7   6.0  34318  292.24 0854.32
2009/04/23 14:12:34.5     184    254     -1    314    315  36.0  -0.3  34318  292.24 0854.31
2009/04/23 14:12:34.6     187    161    -70    247    257  49.3 -16.0  34280  291.61 0854.31
2009/04/23 14:12:34.7     235    188    110    302    321  51.4  20.7  34344  292.69 0854.31
2009/04/23 14:12:34.8     223    174    183    283    337  52.0  35.9  34346  292.74 0854.31
2009/04/23 14:12:34.9     133    183    125    227    259  36.0  31.4  34328  292.41 0854.31
2009/04/23 14:12:35.0     242    114    178    268    321  64.6  36.7  34350  292.79 0854.31
2009/04/23 14:12:35.1     185    153    184    241    303  50.4  41.4  34348  292.77 0854.31
2009/04/23 14:12:35.2      54    200     67    208    219  15.1  17.9  34338  292.61 0854.31
2009/04/23 14:12:35.3     154    127     85    200    217  50.5  24.3  34360  292.98 0854.31
2009/04/23 14:12:35.4     127    140     46    190    196  42.3  13.7  34352  292.85 0854.31
2009/04/23 14:12:35.5     105    137     80    173    190  37.4  27.0  34344  292.71 0854.31
2009/04/23 14:12:35.6       1     97    132     98    164   0.9  59.8  34288  291.76 0854.31
2009/04/23 14:12:35.7      69     14    125     71    143  78.5  67.7  34336  292.56 0854.31
2009/04/23 14:12:35.8      50     41    144     65    157  50.4  74.5  34312  292.15 0854.31
2009/04/23 14:12:35.9      23     40    164     47    170  29.9  83.9  34312  292.17 0854.31
2009/04/23 14:12:36.0      48    -18    142     52    151 110.8  79.2  34324  292.37 0854.31
2009/04/23 14:12:36.1     112    -89    189    144    237 128.6  59.0  34330  292.47 0854.31
2009/04/23 14:12:36.2     -39     44    105     60    120 318.6  67.7  34310  292.13 0854.31
2009/04/23 14:12:36.3      59   -124    136    138    193 154.7  50.2  34282  291.64 0854.31
2009/04/23 14:12:36.4     118   -118    189    168    252 134.9  53.7  34272  291.49 0854.31
2009/04/23 14:12:36.5      95      0    167     96    192  90.0  67.5  34310  292.13 0854.33
2009/04/23 14:12:36.6      50    -41    129     65    144 129.6  71.0  34278  291.57 0854.33
2009/04/23 14:12:36.7      17    -27     95     33    100 147.4  80.7  34276  291.55 0854.33
2009/04/23 14:12:36.8      -2     27     85     28     89 355.5  80.7  34258  291.25 0854.33
2009/04/23 14:12:36.9      -2     -3     99      4     99 212.5  90.0  34258  291.25 0854.33
2009/04/23 14:12:37.0       7    -89    123     90    152 175.5  60.5  34252  291.15 0854.33
2009/04/23 14:12:37.1      38    -36    147     53    156 133.1  79.7  34250  291.11 0854.33
2009/04/23 14:12:37.2     115   -150    146    190    239 142.4  41.6  34232  290.79 0854.33
2009/04/23 14:12:37.3     116   -217    155    247    291 151.9  35.5  34230  290.75 0854.33
2009/04/23 14:12:37.4      85   -213    109    230    254 158.2  27.2  34228  290.73 0854.33
2009/04/23 14:12:37.5      26   -216     94    218    237 173.1  24.9  34228  290.74 0854.35
2009/04/23 14:12:37.6      37   -113    144    120    187 161.7  56.3  34236  290.87 0854.35
2009/04/23 14:12:37.7      65    -31    119     73    139 115.3  65.1  34238  290.89 0854.35
2009/04/23 14:12:37.8     172    -39     91    177    199 103.0  29.3  34232  290.79 0854.35
2009/04/23 14:12:37.9     100    -47    151    111    187 115.4  60.3  34256  291.20 0854.35
2009/04/23 14:12:38.0      49    -15    117     52    128 107.7  74.9  34268  291.42 0854.35
2009/04/23 14:12:38.1      13    -22     91     26     94 149.3  83.3  34270  291.43 0854.35
2009/04/23 14:12:38.2      22    -67    105     71    126 161.7  62.7  34264  291.35 0854.35
2009/04/23 14:12:38.3      84    -61     92    105    139 126.0  45.8  34268  291.42 0854.35
2009/04/23 14:12:38.4       0    -40    103     41    110 180.9  77.1  34266  291.37 0854.35
2009/04/23 14:12:38.5     -32    -84     54     91    105 200.9  34.0  34262  291.32 0854.35
2009/04/23 14:12:38.6    -172     33     18    176    178 281.0   6.1  34282  291.66 0854.35
2009/04/23 14:12:38.7    -130     61     12    144    145 295.4   4.9  34300  291.95 0854.35
2009/04/23 14:12:38.8     -87     68    -21    111    114 308.2 -10.9  34308  292.10 0854.35
2009/04/23 14:12:38.9     -33    115     56    120    132 344.0  27.1  34310  292.13 0854.35
2009/04/23 14:12:39.0     -86     94    174    128    216 317.7  60.3  34342  292.66 0854.35
2009/04/23 14:12:39.1    -136     -3    150    137    203 268.7  52.7  34330  292.46 0854.35
2009/04/23 14:12:39.2     -78    -98    134    126    183 218.3  52.0  34304  292.03 0854.35
2009/04/23 14:12:39.3    -121     57    142    135    195 295.4  51.6  34348  292.76 0854.35
2009/04/23 14:12:39.4    -125     41    137    132    190 288.2  50.9  34376  293.26 0854.35
2009/04/23 14:12:39.5     -84     63     99    106    145 306.9  48.0  34360  292.97 0854.36
2009/04/23 14:12:39.6      -9     16     57     19     60 331.0  81.0  34330  292.46 0854.36
2009/04/23 14:12:39.7    -105   -127    113    166    200 219.6  37.6  34272  291.47 0854.36
2009/04/23 14:12:39.8    -156    -93     62    182    193 239.1  18.9  34260  291.28 0854.36
2009/04/23 14:12:39.9    -180    -28     90    183    203 261.2  28.2  34276  291.54 0854.36
2009/04/23 14:12:40.0     -60     51     88     80    118 310.4  52.7  34304  292.01 0854.36
2009/04/23 14:12:40.1     -49    233    170    239    293 348.0  39.1  34348  292.76 0854.36
2009/04/23 14:12:40.2     -58    202    102    211    234 344.0  27.3  34336  292.58 0854.36
2009/04/23 14:12:40.3      26    116     95    120    153  12.9  43.3  34342  292.66 0854.36
2009/04/23 14:12:40.4      75     45    115     88    144  58.9  59.0  34334  292.52 0854.36
2009/04/23 14:12:40.5      -4      0    138      5    138 270.0  90.0  34322  292.34 0854.36
2009/04/23 14:12:40.6     -66    122     27    139    142 331.5  11.1  34322  292.34 0854.36
2009/04/23 14:12:40.7     -53    162     24    171    173 341.7   8.0  34314  292.20 0854.36
2009/04/23 14:12:40.8     -40    200     39    204    208 348.7  11.0  34318  292.25 0854.36
2009/04/23 14:12:40.9      20    148     79    150    169   8.0  29.8  34350  292.80 0854.36
2009/04/23 14:12:41.0      39    178    107    183    211  12.5  33.4  34362  293.00 0854.36
2009/04/23 14:12:41.1      78    150    127    170    212  27.6  40.4  34332  292.51 0854.36
2009/04/23 14:12:41.2      85     57    135    103    169  56.3  58.7  34284  291.69 0854.36
2009/04/23 14:12:41.3      45      7    106     46    115  80.3  75.0  34284  291.69 0854.36
2009/04/23 14:12:41.4     -27      5     90     28     94 281.5  81.2  34300  291.95 0854.36
2009/04/23 14:12:41.5       0     32     84     33     90 359.1  78.2  34282  291.66 0854.38
2009/04/23 14:12:41.6     -15     21     52     26     58 323.9  71.9  34284  291.69 0854.38
2009/04/23 14:12:41.7      11     56     82     58    100  11.5  61.1  34286  291.72 0854.38
2009/04/23 14:12:41.8      25     21    110     33    114  50.4  82.3  34286  291.71 0854.38
2009/04/23 14:12:41.9      25     36     74     45     86  35.2  65.7  34294  291.86 0854.38
2009/04/23 14:12:42.0      -7    112     79    113    137 356.4  38.6  34338  292.59 0854.38
2009/04/23 14:12:42.1      -5     67     49     68     83 355.6  39.7  34332  292.51 0854.38
2009/04/23 14:12:42.2      21     40     37     46     59  27.2  43.7  34302  292.00 0854.38
2009/04/23 14:12:42.3      71     23     72     75    103  71.8  49.0  34292  291.81 0854.38
2009/04/23 14:12:42.4      44     36     49     58     75  50.5  43.8  34296  291.89 0854.38
2009/04/23 14:12:42.5     102     57    146    118    187  60.7  56.6  34332  292.49 0854.38
2009/04/23 14:12:42.6      72     91     88    117    146  38.3  40.7  34326  292.40 0854.38
2009/04/23 14:12:42.7      68     48     48     84     96  54.9  32.9  34326  292.39 0854.38
2009/04/23 14:12:42.8      76     65     98    101    140  49.6  49.0  34356  292.90 0854.38
2009/04/23 14:12:42.9      47     74     74     88    114  32.6  43.8  34364  293.04 0854.38
2009/04/23 14:12:43.0      21    105     21    108    111  11.6  11.0  34354  292.86 0854.38
2009/04/23 14:12:43.1      80     79     22    113    116  45.4  11.1  34338  292.59 0854.38
2009/04/23 14:12:43.2      77     34     45     85     96  66.0  30.3  34330  292.47 0854.38
2009/04/23 14:12:43.3      36      0     63     37     73  90.0  66.8  34318  292.25 0854.38
2009/04/23 14:12:43.4       2    -32     30     33     44 175.5  47.9  34322  292.32 0854.38
2009/04/23 14:12:43.5      39      3     25     40     47  85.6  35.5  34304  292.03 0854.40
2009/04/23 14:12:43.6      78      6     48     79     92  85.6  34.4  34290  291.77 0854.40
2009/04/23 14:12:43.7      58    -15     37     61     71 105.0  35.5  34302  291.98 0854.40
2009/04/23 14:12:43.8      51    -28     20     59     63 118.9  19.2  34308  292.08 0854.40
2009/04/23 14:12:43.9      35     -9     54     37     65 105.1  62.6  34296  291.88 0854.40
2009/04/23 14:12:44.0      59      0     47     60     76  90.0  42.7  34276  291.55 0854.40
2009/04/23 14:12:44.1      47    -29     44     56     71 121.5  43.7  34282  291.64 0854.40
2009/04/23 14:12:44.2     -25    -51     70     57     90 206.3  56.4  34294  291.86 0854.40
2009/04/23 14:12:44.3      -3    -46     76     47     89 184.5  65.1  34280  291.62 0854.40
2009/04/23 14:12:44.4      43     18     56     47     73  66.5  56.3  34292  291.83 0854.40
2009/04/23 14:12:44.5      60    -16     38     63     73 105.1  34.4  34314  292.20 0854.40
2009/04/23 14:12:44.6       8      4      9     10     13  61.1  52.0  34328  292.42 0854.40
2009/04/23 14:12:44.7     -40     60      1     73     74 326.6   0.8  34354  292.88 0854.40
2009/04/23 14:12:44.8      -9     62      7     63     64 351.1   6.9  34344  292.71 0854.40
2009/04/23 14:12:44.9     -17     62     30     65     71 344.0  27.1  34330  292.46 0854.40
2009/04/23 14:12:45.0      50      9     29     51     58  79.4  33.5  34320  292.30 0854.40
2009/04/23 14:12:45.1     144     57     78    156    174  68.2  28.5  34326  292.39 0854.40
2009/04/23 14:12:45.2     141     58    102    153    183  67.4  36.5  34360  292.97 0854.40
2009/04/23 14:12:45.3     141    112    103    181    208  51.4  32.4  34368  293.12 0854.40
2009/04/23 14:12:45.4     133     93    115    163    199  54.9  38.8  34356  292.92 0854.40
2009/04/23 14:12:45.5      90     74    117    117    165  50.5  50.1  34344  292.69 0854.42
2009/04/23 14:12:45.6      76     71    135    105    171  46.8  57.9  34330  292.47 0854.42
2009/04/23 14:12:45.7      48     36     95     60    112  53.1  64.7  34316  292.23 0854.42
2009/04/23 14:12:45.8      39     61     96     73    120  32.6  59.0  34332  292.49 0854.42
2009/04/23 14:12:45.9      15     31     53     35     63  25.4  63.6  34334  292.54 0854.42
2009/04/23 14:12:46.0      35     37    -14     52     55  43.2 -15.5  34328  292.42 0854.42
2009/04/23 14:12:46.1      50    105     -6    117    118  25.3  -3.1  34334  292.54 0854.42
2009/04/23 14:12:46.2      60    118    -47    133    141  27.2 -24.8  34316  292.22 0854.42
2009/04/23 14:12:46.3      57     97    -58    113    127  30.3 -33.7  34310  292.12 0854.42
2009/04/23 14:12:46.4     109     34     55    115    127  72.3  27.2  34304  292.01 0854.42
2009/04/23 14:12:46.5     101     47     45    112    120  64.8  23.0  34296  291.89 0854.42
2009/04/23 14:12:46.6      28     37     49     47     67  37.0  50.1  34300  291.95 0854.42
2009/04/23 14:12:46.7       8     46     16     47     50  10.7  19.2  34300  291.96 0854.42
2009/04/23 14:12:46.8     -69     63     18     94     96 312.7  11.1  34314  292.20 0854.42
2009/04/23 14:12:46.9      21     33     25     40     47  32.5  35.5  34334  292.52 0854.42
2009/04/23 14:12:47.0      29      2     57     30     64  85.7  69.8  34352  292.83 0854.42
2009/04/23 14:12:47.1       4     -5     83      7     83 136.6  90.0  34362  293.00 0854.42
2009/04/23 14:12:47.2      -8     -8     32     12     34 226.9  81.2  34368  293.10 0854.42
2009/04/23 14:12:47.3      48      3     25     49     55  85.7  29.3  34370  293.14 0854.42
2009/04/23 14:12:47.4      37     55    108     67    127  34.3  64.7  34400  293.67 0854.42
2009/04/23 14:12:47.5      43     61     91     75    117  35.2  56.3  34428  294.15 0854.43
2009/04/23 14:12:47.6      49     90    126    103    162  28.5  56.6  34412  293.87 0854.43
2009/04/23 14:12:47.7     130     47    141    139    197  70.1  50.2  34426  294.09 0854.43
2009/04/23 14:12:47.8     150     70    164    166    233  64.7  50.0  34424  294.08 0854.43
2009/04/23 14:12:47.9     108     35    153    114    190  71.8  59.8  34418  293.96 0854.43
2009/04/23 14:12:48.0     128      3    173    129    215  88.3  59.8  34382  293.34 0854.43
2009/04/23 14:12:48.1     158     12    173    159    234  85.6  52.7  34302  291.98 0854.43
2009/04/23 14:12:48.2     204    143     90    250    265  54.9  20.4  34282  291.63 0854.43
2009/04/23 14:12:48.3     195     65    128    206    242  71.6  35.0  34290  291.77 0854.43
2009/04/23 14:12:48.4     126    -36    152    132    201 105.9  54.3  34348  292.76 0854.43
2009/04/23 14:12:48.5      14     20    105     25    107  36.1  86.9  34410  293.82 0854.43
2009/04/23 14:12:48.6      75     92    123    119    171  39.2  50.9  34358  292.95 0854.43
2009/04/23 14:12:48.7     181    122     18    219    220  56.0   4.9  34296  291.88 0854.43
2009/04/23 14:12:48.8      82     87     60    120    134  43.3  28.7  34286  291.71 0854.43
2009/04/23 14:12:48.9     -33    -19     81     39     89 239.3  72.8  34350  292.81 0854.43
2009/04/23 14:12:49.0      22     -1     88     23     90  94.4  85.9  34338  292.61 0854.43
2009/04/23 14:12:49.1     108     52    143    121    187  64.2  55.6  34306  292.06 0854.43
2009/04/23 14:12:49.2      71     26     83     76    112  69.2  52.2  34296  291.89 0854.43
2009/04/23 14:12:49.3      81    -15     62     83    103 100.6  40.7  34306  292.05 0854.43
2009/04/23 14:12:49.4      62    -91     67    111    129 145.7  34.0  34308  292.08 0854.43
2009/04/23 14:12:49.5     107    -68     84    128    153 122.5  35.6  34324  292.35 0854.43
2009/04/23 14:12:49.6      99    -29     38    104    110 106.4  21.0  34324  292.37 0854.43
2009/04/23 14:12:49.7      91    -30     37     97    103 108.6  21.5  34346  292.73 0854.43
2009/04/23 14:12:49.8     100    -47     85    111    139 115.3  41.6  34350  292.81 0854.43
2009/04/23 14:12:49.9      41    -64     88     77    116 147.5  54.3  34362  293.00 0854.43
2009/04/23 14:12:50.0       0    -31     62     32     69 180.9  70.8  34350  292.80 0854.43
2009/04/23 14:12:50.1      -1    -43    115     44    123 181.8  78.6  34330  292.47 0854.43
2009/04/23 14:12:50.2       6    -72     84     73    111 174.7  54.8  34334  292.52 0854.43
2009/04/23 14:12:50.3       7    -34     80     35     87 168.4  75.5  34334  292.52 0854.43
2009/04/23 14:12:50.4       5      9     89     11     89  32.5  90.0  34340  292.63 0854.43
2009/04/23 14:12:50.5      -6     17     81     19     83 341.3  86.9  34328  292.44 0854.43
2009/04/23 14:12:50.6      52      7     75     53     91  82.1  61.1  34308  292.08 0854.43
2009/04/23 14:12:50.7      42    -14     89     45     99 108.6  71.4  34320  292.29 0854.43
2009/04/23 14:12:50.8      96     15    110     98    147  80.8  53.7  34316  292.23 0854.43
2009/04/23 14:12:50.9      90     -6     87     91    125  94.4  49.0  34310  292.13 0854.43
2009/04/23 14:12:51.0       4    -44     39     45     59 173.8  45.8  34312  292.17 0854.43
2009/04/23 14:12:51.1     -27    -14     77     31     83 241.1  77.1  34326  292.40 0854.43
2009/04/23 14:12:51.2      93     44     87    103    134  64.7  44.3  34318  292.27 0854.43
2009/04/23 14:12:51.3      32      7     93     33     98  76.7  80.2  34336  292.56 0854.43
2009/04/23 14:12:51.4      -9     27     99     29    103 341.7  83.3  34344  292.71 0854.43
2009/04/23 14:12:51.5      61    -29     90     68    112 115.3  59.0  34338  292.59 0854.42
2009/04/23 14:12:51.6      84    -82     94    118    150 134.0  43.3  34326  292.39 0854.42
2009/04/23 14:12:51.7      83   -124     80    150    170 146.2  30.3  34298  291.93 0854.42
2009/04/23 14:12:51.8      56   -221    140    229    268 165.7  34.4  34246  291.02 0854.42
2009/04/23 14:12:51.9      94   -142    147    171    225 146.4  45.1  34254  291.16 0854.42
2009/04/23 14:12:52.0      21    -21    117     31    121 135.0  84.9  34284  291.67 0854.42
2009/04/23 14:12:52.1     107    -12    124    108    164  96.6  54.6  34262  291.32 0854.42
2009/04/23 14:12:52.2      49    -53    139     73    157 137.7  70.4  34260  291.28 0854.42
2009/04/23 14:12:52.3      33    -97    111    103    151 160.8  52.2  34254  291.18 0854.42
2009/04/23 14:12:52.4      -9    -14     93     17     94 212.5  90.0  34264  291.35 0854.42
2009/04/23 14:12:52.5      20    -90     77     93    120 167.5  43.8  34250  291.11 0854.42
2009/04/23 14:12:52.6       7      6     77     10     77  46.9  90.0  34278  291.57 0854.42
2009/04/23 14:12:52.7      -1    -40     66     41     77 182.7  64.7  34270  291.45 0854.42
2009/04/23 14:12:52.8     -10     -3     77     11     77 251.6  90.0  34286  291.72 0854.42
2009/04/23 14:12:52.9     -19    -31     49     37     61 212.5  59.4  34286  291.72 0854.42
2009/04/23 14:12:53.0      15     12     61     20     64  50.5  80.7  34294  291.84 0854.42
2009/04/23 14:12:53.1      -3      0     77      4     77 270.0  90.0  34294  291.86 0854.42
2009/04/23 14:12:53.2      22      0     53     23     57  90.0  75.0  34286  291.72 0854.42
2009/04/23 14:12:53.3       2      7     39      8     39  18.5  90.0  34288  291.74 0854.42
2009/04/23 14:12:53.4      46    -46     65     66     92 135.0  50.5  34280  291.62 0854.42
2009/04/23 14:12:53.5      87    -43     83     98    128 116.6  44.3  34258  291.23 0854.41
2009/04/23 14:12:53.6      27     29     98     40    105  43.4  77.0  34270  291.45 0854.41
2009/04/23 14:12:53.7     -24    -73     97     77    123 198.3  57.9  34274  291.50 0854.41
2009/04/23 14:12:53.8      54     -7     80     55     97  97.9  62.6  34264  291.35 0854.41
2009/04/23 14:12:53.9     101    -33    112    107    154 108.2  51.2  34256  291.20 0854.41
2009/04/23 14:12:54.0      89    -22    118     92    149 104.2  57.9  34262  291.32 0854.41
2009/04/23 14:12:54.1     164      0    143    165    218  90.0  45.6  34254  291.18 0854.41
2009/04/23 14:12:54.2     127    -42    169    135    216 108.6  57.1  34258  291.23 0854.41
2009/04/23 14:12:54.3      76    -39    125     86    151 117.1  62.6  34266  291.38 0854.41
2009/04/23 14:12:54.4      68    -64    122     94    154 133.6  58.5  34264  291.33 0854.41
2009/04/23 14:12:54.5      21    -13    107     25    109 122.4  87.5  34270  291.43 0854.41
2009/04/23 14:12:54.6      59     37    105     70    126  57.5  63.6  34276  291.54 0854.41
2009/04/23 14:12:54.7     -32    -43     73     54     90 217.0  60.0  34260  291.26 0854.41
2009/04/23 14:12:54.8       7    -27     96     29    100 164.9  82.8  34260  291.26 0854.41
2009/04/23 14:12:54.9      -6     -7     82     10     82 219.6  90.0  34272  291.49 0854.41
2009/04/23 14:12:55.0      -7    -54    138     55    148 188.0  77.1  34278  291.57 0854.41
2009/04/23 14:12:55.1      15     44    124     47    132  18.7  79.1  34292  291.81 0854.41
2009/04/23 14:12:55.2       3    -50     90     51    103 176.4  68.8  34286  291.71 0854.41
2009/04/23 14:12:55.3       4    -60    124     61    138 175.5  72.8  34278  291.57 0854.41
2009/04/23 14:12:55.4     -10     25     99     27    102 338.2  84.8  34292  291.83 0854.41
2009/04/23 14:12:55.5      44    -28     79     53     95 122.4  63.6  34282  291.66 0854.42
2009/04/23 14:12:55.6      86    -28    103     91    137 108.6  54.2  34268  291.42 0854.42
2009/04/23 14:12:55.7      10    -67     91     68    113 171.1  60.0  34264  291.35 0854.42
2009/04/23 14:12:55.9      30    -42     99     52    111 143.9  70.4  34262  291.32 0854.42
2009/04/23 14:12:55.9      23    -38    111     45    119 149.3  77.0  34270  291.45 0854.42
2009/04/23 14:12:56.0      34    -83     75     90    117 157.3  43.8  34270  291.45 0854.42
2009/04/23 14:12:56.1      18    -30     51     36     62 149.3  60.6  34272  291.49 0854.42
2009/04/23 14:12:56.2       7    -99    100    100    141 175.5  50.1  34272  291.47 0854.42
2009/04/23 14:12:56.3     -19   -136    124    138    185 188.0  46.6  34256  291.21 0854.42
2009/04/23 14:12:56.4     -72   -146    115    163    199 206.3  38.8  34256  291.21 0854.42
2009/04/23 14:12:56.5     -50   -106     88    118    147 205.3  40.7  34286  291.72 0854.42
2009/04/23 14:12:56.6     -51   -118    142    129    191 203.6  53.0  34266  291.38 0854.42
2009/04/23 14:12:56.7     -87   -199     73    218    231 203.7  18.6  34298  291.93 0854.42
2009/04/23 14:12:56.8       0   -204     93    205    225 180.0  26.4  34284  291.69 0854.42
2009/04/23 14:12:56.9      67   -189     96    201    222 160.4  27.2  34266  291.38 0854.42
2009/04/23 14:12:57.1      24   -244     85    246    261 174.2  19.2  34272  291.48 0854.42
2009/04/23 14:12:57.1     -33   -224    110    227    252 188.5  27.4  34272  291.46 0854.42
2009/04/23 14:12:57.2      15   -196     56    197    205 175.5  16.0  34268  291.40 0854.42
2009/04/23 14:12:57.3      23   -176     96    178    202 172.4  31.0  34262  291.32 0854.42
2009/04/23 14:12:57.4     -55   -190    151    198    249 196.3  41.2  34288  291.73 0854.42
2009/04/23 14:12:57.5     -51   -160    118    169    206 197.8  38.4  34286  291.71 0854.45
2009/04/23 14:12:57.6      -3   -119    128    120    175 181.8  52.1  34274  291.52 0854.45
2009/04/23 14:12:57.7      -5   -126     90    127    155 182.7  39.1  34270  291.43 0854.45
2009/04/23 14:12:57.8      14   -117    107    118    159 172.9  47.1  34272  291.49 0854.45
2009/04/23 14:12:57.9     -53   -165    157    174    234 197.8  46.9  34298  291.91 0854.45
2009/04/23 14:12:58.0     -39   -149    147    155    213 194.7  48.7  34298  291.91 0854.45
2009/04/23 14:12:58.1     -20   -112    138    114    178 190.2  56.4  34296  291.89 0854.45
2009/04/23 14:12:58.2     -58    -54    140     80    161 226.9  67.7  34328  292.44 0854.45
2009/04/23 14:12:58.3    -162    -73    117    179    213 245.6  36.0  34356  292.92 0854.45
2009/04/23 14:12:58.4    -180    -82    101    198    222 245.4  29.3  34364  293.04 0854.45
2009/04/23 14:12:58.5    -140   -139    109    198    226 225.3  31.3  34330  292.47 0854.45
2009/04/23 14:12:58.6     -59   -100    113    117    162 210.7  49.2  34296  291.88 0854.45
2009/04/23 14:12:58.7     -69    -69     92     98    134 225.0  48.5  34314  292.20 0854.45
2009/04/23 14:12:58.8    -152   -113      9    190    191 233.4   2.9  34330  292.47 0854.45
2009/04/23 14:12:58.9    -186    -71    -15    200    201 249.2  -4.4  34328  292.44 0854.45
2009/04/23 14:12:59.0    -187   -108    -12    217    218 240.0  -3.2  34328  292.44 0854.45
2009/04/23 14:12:59.1    -203   -128     -9    240    241 237.8  -2.2  34346  292.72 0854.45
2009/04/23 14:12:59.2     -95   -149     39    177    182 212.5  12.4  34314  292.20 0854.45
2009/04/23 14:12:59.3     -81    -64    107    104    149 231.8  50.7  34322  292.34 0854.45
2009/04/23 14:12:59.4     -44    -92     99    103    142 205.9  49.0  34310  292.12 0854.45
2009/04/23 14:12:59.5     -44    -76    113     89    143 210.3  57.9  34312  292.15 0854.45
2009/04/23 14:12:59.6     -53    -28     88     61    107 242.0  62.1  34324  292.35 0854.45
2009/04/23 14:12:59.7    -208    -99     90    231    247 244.5  22.3  34322  292.31 0854.45
2009/04/23 14:12:59.8       7    -99     46    100    110 175.5  27.1  34312  292.15 0854.45
2009/04/23 14:12:59.9      -2   -128    115    129    172 180.9  46.6  34304  292.03 0854.45
2009/04/23 14:13:00.0       5   -107    112    108    155 176.9  50.7  34316  292.22 0854.45
2009/04/23 14:13:00.1      -5    -80     77     81    111 184.0  48.5  34326  292.39 0854.45
2009/04/23 14:13:00.3     130    -10    160    131    206  94.4  56.4  34328  292.44 0854.45
2009/04/23 14:13:00.4      -6    -76    162     77    179 184.5  72.9  34300  291.95 0854.45
2009/04/23 14:13:00.4     -60    -50    136     79    157 230.4  67.5  34298  291.93 0854.45
2009/04/23 14:13:00.5     -47   -120    104    129    165 201.4  43.0  34280  291.60 0854.42
2009/04/23 14:13:00.7      -6   -153    144    154    210 182.6  48.0  34292  291.81 0854.42
2009/04/23 14:13:00.8       3   -190    151    191    243 179.0  42.4  34282  291.66 0854.42
2009/04/23 14:13:00.9      -9   -147    210    148    256 183.6  61.5  34288  291.76 0854.42
2009/04/23 14:13:01.0     -53   -167    168    176    243 197.6  49.0  34272  291.47 0854.42
2009/04/23 14:13:01.1       3   -177    201    178    268 178.9  54.0  34276  291.55 0854.42
2009/04/23 14:13:01.2      -5    -58    118     59    131 185.3  71.9  34272  291.47 0854.42
2009/04/23 14:13:01.3      18   -138    144    140    200 172.4  50.7  34260  291.28 0854.42
2009/04/23 14:13:01.4      10   -172    143    173    224 176.4  43.8  34254  291.18 0854.42
2009/04/23 14:13:01.5     -19   -189    112    191    221 186.0  33.4  34254  291.18 0854.42
2009/04/23 14:13:01.6      11   -145     94    146    173 175.5  35.6  34260  291.28 0854.42
2009/04/23 14:13:01.7     -56   -179    220    188    289 197.4  55.4  34282  291.65 0854.42
2009/04/23 14:13:01.8    -168   -188    207    253    326 221.7  43.6  34298  291.92 0854.42
2009/04/23 14:13:01.9    -226   -220     93    316    330 225.7  16.5  34290  291.78 0854.42
2009/04/23 14:13:02.0    -155   -127      7    201    202 230.5   2.1  34292  291.81 0854.42
2009/04/23 14:13:02.1    -192    -74    -50    206    212 248.9 -13.7  34276  291.55 0854.42
2009/04/23 14:13:02.2    -228   -102    -54    250    256 245.8 -12.4  34370  293.13 0854.42
2009/04/23 14:13:02.3    -154   -137    -40    207    211 228.2 -11.1  34368  293.10 0854.42
2009/04/23 14:13:02.4    -121   -136     62    183    194 221.7  18.9  34304  292.03 0854.42
2009/04/23 14:13:02.5    -145   -193    102    242    262 217.0  24.1  34280  291.60 0854.42
2009/04/23 14:13:02.6    -146   -176    137    229    266 219.6  33.7  34292  291.82 0854.42
2009/04/23 14:13:02.7    -123   -169     92    210    229 216.1  25.2  34300  291.96 0854.42
2009/04/23 14:13:02.8    -158   -181     52    241    247 221.2  12.2  34298  291.90 0854.42
2009/04/23 14:13:02.9    -226   -146     14    270    271 237.1   3.1  34366  293.08 0854.42
2009/04/23 14:13:03.0    -194   -124     30    231    233 237.4   7.5  34372  293.19 0854.42
2009/04/23 14:13:03.1     -77   -254    187    266    325 197.0  38.5  34278  291.58 0854.42
2009/04/23 14:13:03.2      10   -164    176    165    241 176.2  52.1  34276  291.55 0854.42
2009/04/23 14:13:03.3     -14     12     97     19     98 311.3  89.6  34286  291.71 0854.42
2009/04/23 14:13:03.4      -2   -121    168    122    207 181.4  60.5  34270  291.45 0854.42
2009/04/23 14:13:03.5     -88   -150     99    175    201 210.5  31.9  34272  291.47 0854.42
2009/04/23 14:13:03.6     -37   -261    192    264    326 188.1  39.7  34266  291.38 0854.42
2009/04/23 14:13:03.7    -139   -368    140    394    418 200.7  20.3  34270  291.45 0854.42
2009/04/23 14:13:03.8    -215   -244    162    326    364 221.4  28.4  34272  291.49 0854.42
2009/04/23 14:13:03.9    -182   -251    117    311    332 216.0  21.6  34272  291.46 0854.42
2009/04/23 14:13:04.0    -128   -339    154    363    394 200.7  24.3  34268  291.42 0854.42
2009/04/23 14:13:04.1    -214   -250    131    330    355 220.5  22.8  34282  291.64 0854.42
2009/04/23 14:13:04.2    -185   -200     13    273    274 222.8   2.8  34280  291.61 0854.42
2009/04/23 14:13:04.3     -77   -268     34    279    282 196.0   7.1  34276  291.53 0854.42
2009/04/23 14:13:04.4      39   -240    110    244    267 170.7  26.2  34290  291.78 0854.42
2009/04/23 14:13:04.5      57   -240    106    247    268 166.6  24.6  34280  291.61 0854.42
2009/04/23 14:13:04.6      18   -241    128    242    273 175.5  30.2  34274  291.51 0854.42
2009/04/23 14:13:04.7     -37   -295    169    298    342 187.2  32.0  34264  291.34 0854.42
2009/04/23 14:13:04.8     -16   -260    141    261    296 183.6  31.0  34266  291.36 0854.42
2009/04/23 14:13:04.9       0   -240     64    241    250 180.0  15.0  34266  291.36 0854.42
2009/04/23 14:13:05.0       8   -276    100    277    295 178.2  19.9  34270  291.43 0854.42
2009/04/23 14:13:05.1      24   -291     19    293    294 175.1   3.9  34264  291.33 0854.42
2009/04/23 14:13:05.2      13   -251     95    252    269 176.9  21.5  34262  291.29 0854.42
2009/04/23 14:13:05.3      18   -230     89    231    247 175.3  22.1  34258  291.22 0854.42
2009/04/23 14:13:05.4     -15   -235     48    236    241 183.8  11.6  34266  291.36 0854.42
2009/04/23 14:13:05.5     -25   -244     14    246    247 186.0   3.3  34264  291.34 0854.42
2009/04/23 14:13:05.6     -51   -243      3    249    250 192.0   0.7  34260  291.27 0854.42
2009/04/23 14:13:05.7     -19    -21   -107     29    110 221.4 -89.3  34262  291.30 0854.42
2009/04/23 14:13:05.8      63     58   -104     86    134  47.3 -60.7  34260  291.26 0854.42
2009/04/23 14:13:05.9     -76   -110     -5    135    136 214.7  -2.2  34260  291.26 0854.42
2009/04/23 14:13:06.0      97   -117     48    153    161 140.4  17.7  34260  291.28 0854.42
2009/04/23 14:13:06.1     114    -49     55    125    136 113.5  25.2  34262  291.32 0854.42
2009/04/23 14:13:06.2     140    -89     58    167    177 122.5  19.2  34274  291.50 0854.42
2009/04/23 14:13:06.3      54   -127    -11    139    140 156.8  -4.6  34268  291.42 0854.42
2009/04/23 14:13:06.4      16   -115     96    117    151 172.0  43.7  34258  291.23 0854.42
2009/04/23 14:13:06.5      -2     -7    115      8    115 198.5  90.0  34272  291.47 0854.42
2009/04/23 14:13:06.6     -76     15     62     78     99 281.5  42.7  34268  291.42 0854.38
2009/04/23 14:13:06.7     -87     55    -42    104    112 302.4 -27.4  34264  291.33 0854.38
2009/04/23 14:13:06.8     -72     -8    -63     73     96 263.0 -49.8  34268  291.40 0854.38
2009/04/23 14:13:06.9       0   -124    -78    125    147 180.0 -39.9  34260  291.28 0854.38
2009/04/23 14:13:07.0     -78   -186    -40    202    207 202.9 -11.3  34260  291.28 0854.38
2009/04/23 14:13:07.1    -143   -246   -105    285    303 210.1 -25.4  34246  291.02 0854.38
2009/04/23 14:13:07.2    -112   -228   -161    255    301 206.3 -39.9  34232  290.80 0854.38
2009/04/23 14:13:07.3    -138    -16   -188    140    234 263.0 -64.0  34254  291.18 0854.38
2009/04/23 14:13:07.4     -25      5   -174     26    175 281.5 -90.0  34258  291.25 0854.38
2009/04/23 14:13:07.5     -88   -161    -57    184    192 208.9 -22.5  34266  291.38 0854.38
2009/04/23 14:13:07.6    -108   -287    -87    307    320 200.7 -15.8  34260  291.26 0854.38
2009/04/23 14:13:07.7     -43   -278     37    282    285 188.9   7.5  34256  291.19 0854.38
2009/04/23 14:13:07.8    -244   -337    113    417    433 216.0  15.2  34256  291.21 0854.38
2009/04/23 14:13:07.9    -140   -391    186    416    455 199.8  25.7  34258  291.23 0854.38
2009/04/23 14:13:08.0     -95   -408    107    419    433 193.2  14.4  34254  291.16 0854.38
2009/04/23 14:13:08.1    -168   -205    302    266    402 219.4  54.3  34260  291.28 0854.38
2009/04/23 14:13:08.2    -265   -156    240    308    390 239.4  41.9  34258  291.23 0854.38
2009/04/23 14:13:08.3     -42   -173     62    179    190 193.8  19.2  34252  291.15 0854.38
2009/04/23 14:13:08.4    -105   -228    314    252    402 204.7  57.3  34274  291.51 0854.38
2009/04/23 14:13:08.5    -257   -360    360    443    570 215.5  43.3  34276  291.54 0854.38
2009/04/23 14:13:08.6    -270   -294    269    400    482 222.5  37.1  34272  291.48 0854.36
2009/04/23 14:13:08.7    -107   -245    264    268    376 203.7  49.9  34258  291.23 0854.36
2009/04/23 14:13:08.8     -85   -199    134    217    255 203.2  34.5  34260  291.26 0854.36
2009/04/23 14:13:08.9     -56   -278    160    284    325 191.6  32.0  34258  291.22 0854.36
2009/04/23 14:13:09.0    -120   -281    136    306    334 203.2  25.7  34262  291.31 0854.36
2009/04/23 14:13:09.1    -225   -440    -15    495    496 207.1  -1.8  34274  291.51 0854.36
2009/04/23 14:13:09.2    -188   -444     26    483    484 203.0   3.1  34264  291.34 0854.36
2009/04/23 14:13:09.3     -63   -339     74    345    354 190.6  12.2  34274  291.52 0854.36
2009/04/23 14:13:09.4     -49   -298     35    303    306 189.3   6.7  34272  291.48 0854.36
2009/04/23 14:13:09.5     -95   -287    -31    303    305 198.5  -6.0  34256  291.21 0854.36
2009/04/23 14:13:09.6    -257   -291   -112    389    404 221.5 -20.8  34238  290.88 0854.36
2009/04/23 14:13:09.7    -211   -505    -69    548    553 202.7  -7.2  34262  291.30 0854.36
2009/04/23 14:13:09.8    -291   -391     -9    488    489 216.7  -1.2  34262  291.29 0854.36
2009/04/23 14:13:09.9    -421   -380     63    568    572 228.0   6.4  34232  290.80 0854.36
2009/04/23 14:13:10.0    -441   -225     93    496    505 242.9  10.7  34282  291.66 0854.36
2009/04/23 14:13:10.1    -527    -77   -123    533    548 261.6 -13.0  34270  291.45 0854.36
2009/04/23 14:13:10.2    -388   -293   -135    487    506 232.9 -15.5  34268  291.41 0854.36
2009/04/23 14:13:10.3    -584   -254    -56    637    640 246.5  -5.1  34252  291.15 0854.36
2009/04/23 14:13:10.4    -524   -203   -108    563    574 248.8 -10.9  34244  291.00 0854.36
2009/04/23 14:13:10.5    -264   -299     -2    400    401 221.5  -0.4  34276  291.54 0854.36
2009/04/23 14:13:10.6    -285   -361    -25    461    462 218.3  -3.2  34304  292.01 0854.38
2009/04/23 14:13:10.7    -458   -312   -149    555    575 235.7 -15.1  34220  290.60 0854.38
2009/04/23 14:13:10.8    -429   -322   -174    537    564 233.1 -23.2  34228  290.74 0854.38
2009/04/23 14:13:10.9    -435   -362   -236    567    614 230.2 -28.3  34170  289.75 0854.38
2009/04/23 14:13:11.0    -370   -318   -203    488    528 229.3 -28.3  34182  289.95 0854.38
2009/04/23 14:13:11.1    -343   -249   -160    424    453 234.0 -26.1  34186  290.00 0854.38
2009/04/23 14:13:11.2    -254   -320    -80    409    417 218.5 -11.1  34212  290.44 0854.38
2009/04/23 14:13:11.3    -247   -318   -155    403    431 217.9 -26.6  34226  290.70 0854.38
2009/04/23 14:13:11.4    -298   -452   -124    542    557 213.4 -12.9  34206  290.36 0854.38
2009/04/23 14:13:11.5    -432   -188   -136    472    492 246.5 -16.1  34252  291.15 0854.38
2009/04/23 14:13:11.6    -257   -231   -119    346    365 228.0 -23.9  34256  291.20 0854.38
2009/04/23 14:13:11.7    -376   -263     14    460    461 235.0   1.8  34290  291.79 0854.38
2009/04/23 14:13:11.8    -362   -302   -149    472    495 230.2 -17.5  34264  291.34 0854.38
2009/04/23 14:13:11.9    -413   -153   -133    441    460 249.6 -21.7  34250  291.09 0854.38
2009/04/23 14:13:12.0    -212   -205   -104    295    312 226.0 -24.6  34242  290.95 0854.38
2009/04/23 14:13:12.1    -136   -183   -142    229    269 216.7 -39.4  34264  291.33 0854.38
2009/04/23 14:13:12.2       5    -75   -101     76    126 175.5 -63.8  34258  291.25 0854.38
2009/04/23 14:13:12.3     -24    -50    -87     56    103 206.3 -69.0  34260  291.28 0854.38
2009/04/23 14:13:12.4    -160    -15   -137    161    211 264.3 -49.2  34258  291.25 0854.38
2009/04/23 14:13:12.5       2    -48    -98     49    109 177.3 -76.3  34260  291.26 0854.38
2009/04/23 14:13:12.6     -66    -92   -112    114    159 216.0 -54.4  34254  291.16 0854.40
2009/04/23 14:13:12.7      30   -126    -79    130    152 166.6 -38.8  34256  291.20 0854.40
2009/04/23 14:13:12.8     112   -183    -77    215    228 148.6 -24.8  34252  291.15 0854.40
2009/04/23 14:13:12.9     173   -130   -104    217    240 126.9 -31.7  34254  291.17 0854.40
2009/04/23 14:13:13.0     191   -208    -97    283    299 137.5 -23.8  34240  290.93 0854.40
2009/04/23 14:13:13.1     255   -212    -35    332    334 129.7  -6.1  34240  290.94 0854.40
2009/04/23 14:13:13.2     322   -206    -71    383    390 122.6 -10.5  34242  290.96 0854.40
2009/04/23 14:13:13.3     314   -189    -60    367    372 121.1  -9.4  34244  291.00 0854.40
2009/04/23 14:13:13.4     396    -67    -51    402    406  99.7  -7.3  34226  290.68 0854.40
2009/04/23 14:13:13.5     389   -102    -48    403    406 104.8  -6.8  34232  290.78 0854.40
2009/04/23 14:13:13.6     383    -82    -36    392    394 102.2  -5.3  34236  290.86 0854.40
2009/04/23 14:13:13.7     421    -50   -134    424    445  96.8 -17.6  34228  290.72 0854.40
2009/04/23 14:13:13.8     473    -96    -79    483    490 101.6  -9.3  34206  290.34 0854.40
2009/04/23 14:13:13.9     447      0    -35    448    450  90.0  -4.6  34208  290.39 0854.40
2009/04/23 14:13:14.0     430    -58     72    434    440  97.7   9.5  34192  290.11 0854.40
2009/04/23 14:13:14.1     463    -24     70    464    470  93.0   8.6  34200  290.25 0854.40
2009/04/23 14:13:14.2     424     21     75    425    432  87.1  10.0  34210  290.43 0854.40
2009/04/23 14:13:14.3     391    111    -22    407    408  74.1  -3.1  34208  290.38 0854.40
2009/04/23 14:13:14.4     363     55    -84    368    378  81.3 -12.9  34224  290.66 0854.40
2009/04/23 14:13:14.5     294     26   -151    296    332  84.8 -33.6  34224  290.65 0854.40
2009/04/23 14:13:14.6     273     20   -146    274    310  85.6 -34.7  34214  290.48 0854.44
2009/04/23 14:13:14.7     283   -168   -100    330    346 120.7 -16.9  34218  290.55 0854.44
2009/04/23 14:13:14.8     357   -113     30    375    377 107.6   4.6  34218  290.55 0854.44
2009/04/23 14:13:14.9     227    -41     81    231    244 100.4  20.0  34212  290.46 0854.44
2009/04/23 14:13:15.0     208    -12    164    209    265  93.5  42.4  34216  290.51 0854.44
2009/04/23 14:13:15.1     149    -30    177    152    233 101.5  55.0  34222  290.62 0854.44
2009/04/23 14:13:15.2      58    -23    151     63    163 111.7  76.3  34234  290.84 0854.44
2009/04/23 14:13:15.3     -11    -56    170     58    179 191.6  81.0  34238  290.91 0854.44
2009/04/23 14:13:15.4       5     99    197    100    220   3.1  71.1  34242  290.96 0854.44
2009/04/23 14:13:15.5     177     89    138    199    242  63.1  38.0  34224  290.65 0854.44
2009/04/23 14:13:15.6     129    146     60    196    206  41.4  17.1  34224  290.67 0854.44
2009/04/23 14:13:15.7      39    -38    109     55    122 134.1  71.0  34242  290.98 0854.44
2009/04/23 14:13:15.8     -51   -117    183    128    223 203.6  61.8  34238  290.89 0854.44
2009/04/23 14:13:15.9     -31   -130    195    134    236 193.4  62.4  34234  290.82 0854.44
2009/04/23 14:13:16.0      18     15    169     24    170  48.7  90.0  34252  291.15 0854.44
2009/04/23 14:13:16.1     151     85    201    174    265  60.7  55.0  34248  291.05 0854.44
2009/04/23 14:13:16.2     195     70    187    208    279  70.3  46.6  34260  291.26 0854.44
2009/04/23 14:13:16.3     153     71    180    169    246  64.9  52.1  34252  291.13 0854.44
2009/04/23 14:13:16.4      46     72    198     86    215  32.5  75.0  34256  291.21 0854.44
2009/04/23 14:13:16.5      29     84    152     89    176  19.2  67.2  34252  291.13 0854.44
2009/04/23 14:13:16.6      42    300    208    304    368   8.1  37.6  34244  291.01 0854.44
2009/04/23 14:13:16.7      54    264    270    270    381  11.6  50.1  34258  291.22 0854.44
2009/04/23 14:13:16.8      13    289    218    290    362   2.7  40.8  34278  291.59 0854.44
2009/04/23 14:13:16.9      -7    468    160    469    496 359.1  18.9  34272  291.49 0854.44
2009/04/23 14:13:17.0     -57    606    211    609    645 354.6  19.2  34272  291.49 0854.44
2009/04/23 14:13:17.1    -102    535     40    545    547 349.2   4.2  34286  291.71 0854.44
2009/04/23 14:13:17.2     -36    576     37    578    580 356.4   3.7  34320  292.29 0854.44
2009/04/23 14:13:17.3      88    471    154    480    505  10.6  17.8  34394  293.54 0854.44
2009/04/23 14:13:17.4      42    548    158    550    573   4.5  16.0  34336  292.56 0854.44
2009/04/23 14:13:17.5     -79    521     54    528    531 351.3   5.9  34306  292.05 0854.44
2009/04/23 14:13:17.6    -247    455     44    518    521 331.5   4.9  34328  292.42 0854.44
2009/04/23 14:13:17.7    -200    362     73    414    421 331.0  10.1  34294  291.86 0854.44
2009/04/23 14:13:17.8     -92    364     19    376    377 345.7   3.0  34290  291.79 0854.44
2009/04/23 14:13:17.9      16    180    -49    181    188   5.1 -15.2  34234  290.82 0854.44
2009/04/23 14:13:18.0      54    165    -95    174    198  18.3 -35.4  34182  289.96 0854.44
2009/04/23 14:13:18.1     141    219    -87    261    276  32.7 -18.6  34226  290.68 0854.44
2009/04/23 14:13:18.2     233    192     94    303    318  50.5  17.3  34234  290.83 0854.44
2009/04/23 14:13:18.3     481    426     15    643    644  48.5   1.4  34312  292.15 0854.44
2009/04/23 14:13:18.4     516    160      2    541    542  72.7   0.2  34324  292.35 0854.44
2009/04/23 14:13:18.5     599    328     69    684    688  61.3   5.8  34318  292.25 0854.44
2009/04/23 14:13:18.6     575    294    -51    646    649  62.9  -4.6  34304  292.02 0854.50
2009/04/23 14:13:18.7     569    380    -10    685    686  56.3  -0.9  34306  292.06 0854.50
2009/04/23 14:13:18.8     769    389     49    862    864  63.2   3.3  34298  291.92 0854.50
2009/04/23 14:13:18.9     889    299     49    939    941  71.4   3.0  34292  291.82 0854.50
2009/04/23 14:13:19.0     589    347    246    684    726  59.5  20.7  34298  291.90 0854.50
2009/04/23 14:13:19.1     822    207    259    848    887  75.8  17.0  34298  291.90 0854.50
2009/04/23 14:13:19.2     766    264    238    811    846  71.0  16.4  34290  291.78 0854.50
2009/04/23 14:13:19.3     607    385    248    719    761  57.6  19.1  34292  291.81 0854.50
2009/04/23 14:13:19.4     484    260    228    550    595  61.7  23.9  34278  291.58 0854.50
2009/04/23 14:13:19.5     486    210    188    530    563  66.6  19.5  34294  291.86 0854.50
2009/04/23 14:13:19.6     826    227    -14    857    858  74.6  -1.0  34250  291.09 0854.50
2009/04/23 14:13:19.7     540    241     -2    592    593  65.9  -0.3  34228  290.73 0854.50
2009/04/23 14:13:19.8     521    170     77    549    555  71.9   8.0  34246  291.04 0854.50
2009/04/23 14:13:19.9     529     53    -68    532    537  84.2  -7.3  34282  291.64 0854.50
2009/04/23 14:13:20.0     647    -39    -49    649    651  93.5  -4.4  34254  291.18 0854.50
2009/04/23 14:13:20.1     836    211    158    863    878  75.8  10.4  34214  290.50 0854.50
2009/04/23 14:13:20.2     749    337    176    822    841  65.8  12.1  34204  290.33 0854.50
2009/04/23 14:13:20.3     734    380    299    827    880  62.6  19.9  34214  290.48 0854.50
2009/04/23 14:13:20.4     668   -115    144    679    695  99.8  12.0  34322  292.31 0854.50
2009/04/23 14:13:20.5     667     75    169    672    693  83.5  14.2  34256  291.21 0854.50
2009/04/23 14:13:20.6     534    473    284    714    768  48.5  23.0  34208  290.40 0854.49
2009/04/23 14:13:20.7     695    259    264    743    788  69.5  20.4  34266  291.37 0854.49
2009/04/23 14:13:20.8     783    212    166    812    830  74.9  11.6  34246  291.04 0854.49
2009/04/23 14:13:20.9     609    415    154    738    755  55.7  11.8  34242  290.97 0854.49
2009/04/23 14:13:21.0     598    428    216    736    768  54.4  16.4  34224  290.65 0854.49
2009/04/23 14:13:21.1     501    276    171    572    598  61.1  16.7  34224  290.66 0854.49
2009/04/23 14:13:21.2     656    249    154    702    719  69.2  12.4  34224  290.67 0854.49
2009/04/23 14:13:21.3     509    406    107    652    661  51.4   9.3  34266  291.36 0854.49
2009/04/23 14:13:21.4     344    608    387    699    798  29.5  31.4  34332  292.50 0854.49
2009/04/23 14:13:21.5     349    337    260    486    551  46.0  30.3  34320  292.28 0854.49
2009/04/23 14:13:21.6     177    106    386    207    438  59.1  69.7  34310  292.12 0854.47
2009/04/23 14:13:21.7     647    370    408    746    850  60.2  31.2  34294  291.84 0854.47
2009/04/23 14:13:21.8     496    416    470    648    800  50.0  39.7  34324  292.35 0854.47
2009/04/23 14:13:21.9     707    478    206    854    879  55.9  13.6  34326  292.39 0854.47
2009/04/23 14:13:22.0     518    411    -21    662    663  51.6  -1.9  34264  291.34 0854.47
2009/04/23 14:13:22.1     444    514    230    680    718  40.8  18.7  34292  291.83 0854.47
2009/04/23 14:13:22.2     412    400    130    575    590  45.9  12.8  34300  291.95 0854.47
2009/04/23 14:13:22.3     325    418     74    530    536  37.9   8.0  34304  292.03 0854.47
2009/04/23 14:13:22.4     385    194     53    432    436  63.2   7.1  34308  292.08 0854.47
2009/04/23 14:13:22.5     391    146    203    418    464  69.5  27.4  34308  292.08 0854.47
2009/04/23 14:13:22.6     504    168    181    532    563  71.6  18.8  34298  291.93 0854.47
2009/04/23 14:13:22.7     443    213    291    492    571  64.3  33.4  34344  292.69 0854.47
2009/04/23 14:13:22.8     484    345    336    595    683  54.5  31.9  34346  292.75 0854.47
2009/04/23 14:13:22.9     615    244    128    662    675  68.3  11.0  34262  291.31 0854.47
2009/04/23 14:13:23.0     504    146     99    525    535  73.8  10.7  34240  290.94 0854.47
2009/04/23 14:13:23.1     634    214    126    670    682  71.3  10.7  34252  291.14 0854.47
2009/04/23 14:13:23.2     764    207     70    792    796  74.8   5.1  34230  290.76 0854.47
2009/04/23 14:13:23.3     761    165    181    779    800  77.7  13.1  34256  291.19 0854.47
2009/04/23 14:13:23.4     686    212    260    719    764  72.8  20.8  34282  291.65 0854.47
2009/04/23 14:13:23.5     708    349     82    790    795  63.7   6.0  34246  291.02 0854.47
2009/04/23 14:13:23.6     528    286    116    601    613  61.5  11.0  34232  290.81 0854.45
2009/04/23 14:13:23.7     587    229    102    631    640  68.7   9.2  34266  291.37 0854.45
2009/04/23 14:13:23.8     535    333    147    631    648  58.1  13.1  34244  290.99 0854.45
2009/04/23 14:13:23.9     464    371     66    595    599  51.4   6.4  34272  291.48 0854.45
2009/04/23 14:13:24.0     352    231     90    422    432  56.7  12.1  34286  291.72 0854.45
2009/04/23 14:13:24.1     295    327    -73    441    448  42.1  -9.5  34240  290.92 0854.45
2009/04/23 14:13:24.2     220    266     41    346    349  39.6   6.9  34258  291.23 0854.45
2009/04/23 14:13:24.3     141    249     22    287    288  29.6   4.6  34246  291.02 0854.45
2009/04/23 14:13:24.4     105    164    -84    195    212  32.6 -29.3  34264  291.33 0854.45
2009/04/23 14:13:24.5       2    153    125    154    198   0.9  43.3  34258  291.23 0854.45
2009/04/23 14:13:24.6     295    111    202    316    375  69.4  35.6  34328  292.42 0854.45
2009/04/23 14:13:24.7     250     13    188    251    313  87.0  40.7  34332  292.48 0854.45
2009/04/23 14:13:24.8     198     77    151    213    261  68.7  38.8  34332  292.48 0854.45
2009/04/23 14:13:24.9     189     54     90    197    216  73.8  26.2  34326  292.40 0854.45
2009/04/23 14:13:25.0     253     63    202    261    330  75.8  41.7  34312  292.14 0854.45
2009/04/23 14:13:25.1      56    207    144    215    258  15.2  37.0  34326  292.40 0854.45
2009/04/23 14:13:25.2      21     87    123     90    152  13.8  60.5  34330  292.46 0854.45
2009/04/23 14:13:25.3     -23    201    108    203    229 353.3  30.3  34304  292.03 0854.45
2009/04/23 14:13:25.4      96    221    113    242    267  23.6  27.1  34312  292.14 0854.45
2009/04/23 14:13:25.5     115    163    198    200    281  35.4  50.0  34302  291.99 0854.45
2009/04/23 14:13:25.6     138    249    161    285    327  29.0  32.0  34268  291.39 0854.46
2009/04/23 14:13:25.7     234    249    134    343    368  43.2  22.4  34276  291.54 0854.46
2009/04/23 14:13:25.8     216    234    164    319    358  42.8  29.3  34274  291.51 0854.46
2009/04/23 14:13:25.9     286    269    177    393    431  46.8  25.9  34270  291.43 0854.46
2009/04/23 14:13:26.0     201    261    184    330    377  37.7  31.5  34274  291.52 0854.46
2009/04/23 14:13:26.1     225    178    162    288    330  51.6  32.0  34266  291.36 0854.46
2009/04/23 14:13:26.2     301    191    119    357    377  57.6  18.5  34264  291.35 0854.46
2009/04/23 14:13:26.3     313    174    167    359    395  61.0  26.6  34290  291.79 0854.46
2009/04/23 14:13:26.4     276    167    220    323    390  58.8  37.6  34318  292.24 0854.46
2009/04/23 14:13:26.6     364    273    191    455    493  53.1  24.2  34316  292.22 0854.46
2009/04/23 14:13:26.6     400    182    202    440    484  65.5  26.4  34340  292.62 0854.46
2009/04/23 14:13:26.8     273    242    261    365    448  48.4  39.2  34336  292.57 0854.46
2009/04/23 14:13:26.9     194    213    254    289    384  42.3  45.8  34348  292.77 0854.46
2009/04/23 14:13:26.9      19    305    275    306    411   3.6  46.6  34332  292.49 0854.46
2009/04/23 14:13:27.0      14    337    276    338    436   2.5  43.5  34330  292.47 0854.46
2009/04/23 14:13:27.2      35    340    284    342    444   6.0  43.8  34344  292.71 0854.46
2009/04/23 14:13:27.3     -26    342    279    343    442 355.6  43.5  34292  291.80 0854.46
2009/04/23 14:13:27.4     -24    236    220    238    324 354.0  47.7  34284  291.68 0854.46
2009/04/23 14:13:27.5    -105    181    228    210    309 329.9  52.2  34258  291.24 0854.46
2009/04/23 14:13:27.6     -32    138    -50    142    151 346.6 -19.7  34252  291.13 0854.46
2009/04/23 14:13:27.7     -16     78    -25     80     84 348.4 -17.6  34268  291.42 0854.45
2009/04/23 14:13:27.8    -156    156    111    221    247 314.9  28.7  34254  291.16 0854.45
2009/04/23 14:13:27.9    -199    177    130    267    296 311.8  27.8  34264  291.34 0854.45
2009/04/23 14:13:28.0     -66    198    136    209    249 341.5  36.0  34276  291.53 0854.45
2009/04/23 14:13:28.1      20    188     78    190    205   6.2  23.6  34270  291.43 0854.45
2009/04/23 14:13:28.2     -20    310    111    311    330 356.2  20.3  34264  291.34 0854.45
2009/04/23 14:13:28.3     -29    218     60    220    229 352.4  15.3  34266  291.37 0854.45
2009/04/23 14:13:28.4     -41    152     79    158    176 344.9  28.2  34268  291.42 0854.45
2009/04/23 14:13:28.5     -45    160     -6    167    168 344.2  -2.2  34278  291.57 0854.45
2009/04/23 14:13:28.6     -44     80     69     92    115 331.0  40.1  34302  291.98 0854.45
2009/04/23 14:13:28.7      92     35    162     99    189  68.7  65.7  34326  292.40 0854.45
2009/04/23 14:13:28.8      20     32    193     38    196  32.5  89.4  34348  292.76 0854.45
2009/04/23 14:13:28.9     213     38    112    217    244  79.9  29.3  34328  292.41 0854.45
2009/04/23 14:13:29.0     275    200    148    341    371  53.9  25.0  34342  292.66 0854.45
2009/04/23 14:13:29.1      43    129    175    137    222  18.5  58.2  34354  292.86 0854.45
2009/04/23 14:13:29.2     275    120    191    301    356  66.4  35.5  34354  292.88 0854.45
2009/04/23 14:13:29.3     214    171    181    275    329  51.4  36.4  34342  292.67 0854.45
2009/04/23 14:13:29.4     185     63    181    196    266  71.2  47.7  34310  292.13 0854.45
2009/04/23 14:13:29.5     237    -56    197    244    313 103.3  43.0  34298  291.92 0854.45
2009/04/23 14:13:29.6     273     46    184    277    332  80.4  36.7  34292  291.80 0854.45
2009/04/23 14:13:29.7     402    111    157    418    446  74.5  21.4  34308  292.08 0854.46
2009/04/23 14:13:29.8     367    145     82    395    404  68.3  11.8  34272  291.49 0854.46
2009/04/23 14:13:29.9     297    172     89    344    356  59.9  14.6  34280  291.62 0854.46
2009/04/23 14:13:30.0     216    128    100    252    271  59.3  23.0  34280  291.60 0854.46
2009/04/23 14:13:30.1     194    124    120    231    260  57.5  29.5  34276  291.53 0854.46
2009/04/23 14:13:30.2     282    156     80    323    333  61.1  13.9  34240  290.94 0854.46
2009/04/23 14:13:30.3     227    230      2    324    325  44.5   0.4  34242  290.95 0854.46
2009/04/23 14:13:30.4     169    122     20    209    211  54.1   5.7  34254  291.16 0854.46
2009/04/23 14:13:30.5     192    180    109    264    285  46.9  23.8  34248  291.07 0854.46
2009/04/23 14:13:30.6     197    180    147    268    305  47.6  31.3  34256  291.19 0854.46
2009/04/23 14:13:30.7     218    138    110    259    281  57.6  24.3  34296  291.89 0854.46
2009/04/23 14:13:30.8     273    134    156    305    342  63.8  29.2  34318  292.25 0854.46
2009/04/23 14:13:30.9      39    239    121    243    271   9.3  28.2  34276  291.53 0854.46
2009/04/23 14:13:31.0      23    218    122    220    251   6.3  31.6  34278  291.56 0854.46
2009/04/23 14:13:31.1     213    280    138    353    379  37.3  22.5  34304  292.02 0854.46
2009/04/23 14:13:31.2     187    190     96    267    283  44.5  20.4  34314  292.18 0854.46
2009/04/23 14:13:31.3     154    149    128    215    250  46.0  33.5  34326  292.38 0854.46
2009/04/23 14:13:31.4     234    146    140    277    310  58.0  28.7  34304  292.01 0854.46
2009/04/23 14:13:31.5     319    136     -7    347    348  66.9  -1.2  34292  291.81 0854.46
2009/04/23 14:13:31.6     216    138    -46    257    262  57.5 -10.3  34298  291.90 0854.46
2009/04/23 14:13:31.7     205    225    -56    305    311  42.4 -10.4  34294  291.85 0854.48
2009/04/23 14:13:31.8     226    144     47    269    274  57.4  10.0  34300  291.94 0854.48
2009/04/23 14:13:31.9      69    228    118    239    266  17.0  28.0  34260  291.26 0854.48
2009/04/23 14:13:32.0     143    152    109    209    235  43.3  29.5  34260  291.26 0854.48
2009/04/23 14:13:32.1     117     82    -23    144    146  54.9  -9.4  34288  291.76 0854.48
2009/04/23 14:13:32.2      34    -73    -31     81     86 154.5 -25.9  34318  292.25 0854.48
2009/04/23 14:13:32.3      71    -33     66     79    102 115.2  44.3  34296  291.89 0854.48
2009/04/23 14:13:32.4      13    -16     27     21     34 140.4  56.4  34288  291.76 0854.48
2009/04/23 14:13:32.5     -19    -54     -2     58     59 200.0  -2.2  34290  291.79 0854.48
2009/04/23 14:13:32.6     -59    -86    -81    105    132 214.3 -46.1  34292  291.83 0854.48
2009/04/23 14:13:32.7     -61    -73   -141     96    170 219.7 -67.0  34276  291.54 0854.48
2009/04/23 14:13:32.8      47    -44   -134     65    148 133.1 -77.2  34280  291.62 0854.48
2009/04/23 14:13:32.9     183    -71   -156    197    251 111.3 -47.1  34274  291.51 0854.48
2009/04/23 14:13:33.0     244    -64    -90    253    268 104.8 -24.4  34252  291.12 0854.48
2009/04/23 14:13:33.1     255     78     -5    267    268  72.9  -1.1  34264  291.33 0854.48
2009/04/23 14:13:33.2     322    115    -65    343    350  70.3 -10.8  34254  291.17 0854.48
2009/04/23 14:13:33.3     261    128    103    291    308  63.8  20.0  34278  291.58 0854.48
2009/04/23 14:13:33.4     230    127    180    263    318  61.1  37.7  34318  292.26 0854.48
2009/04/23 14:13:33.5     237     79    106    251    272  71.4  24.1  34304  292.01 0854.48
2009/04/23 14:13:33.6     185     -7    -22    186    188  92.4  -6.9  34262  291.30 0854.48
2009/04/23 14:13:33.7      84     75     55    114    126  48.2  27.3  34268  291.42 0854.52
2009/04/23 14:13:33.8     135     73     99    154    183  61.6  35.6  34286  291.71 0854.52
2009/04/23 14:13:33.9     112     62    124    129    178  61.1  49.0  34336  292.56 0854.52
2009/04/23 14:13:34.0     -25    150    173    153    230 350.2  54.2  34318  292.25 0854.52
2009/04/23 14:13:34.1     -45    180    181    186    259 345.7  49.2  34322  292.33 0854.52
2009/04/23 14:13:34.2     -15    205    142    206    250 355.6  37.8  34310  292.11 0854.52
2009/04/23 14:13:34.3     -56    157    136    167    215 340.2  43.7  34306  292.05 0854.52
2009/04/23 14:13:34.4      43    116     80    124    147  20.5  35.6  34344  292.71 0854.52
2009/04/23 14:13:34.5      73    146    126    164    206  26.7  41.7  34362  293.00 0854.52
2009/04/23 14:13:34.6     127     93    197    158    252  53.6  57.3  34376  293.24 0854.52
2009/04/23 14:13:34.7     118     90    140    149    204  52.7  48.2  34360  292.98 0854.52
2009/04/23 14:13:34.8      56    208    152    216    264  15.1  38.6  34318  292.26 0854.52
2009/04/23 14:13:34.9      11    287    211    288    357   2.2  39.8  34370  293.14 0854.52
2009/04/23 14:13:35.0       0    363    218    364    424 359.9  33.8  34340  292.62 0854.52
2009/04/23 14:13:35.1     -52    198    146    205    251 345.1  38.6  34338  292.59 0854.52
2009/04/23 14:13:35.2     -82    140    142    163    216 329.7  45.8  34332  292.51 0854.52
2009/04/23 14:13:35.3      91    145     90    172    194  32.3  30.1  34350  292.81 0854.52
2009/04/23 14:13:35.4      81     17    114     83    141  78.1  60.5  34358  292.93 0854.52
2009/04/23 14:13:35.5      30     93    139     98    170  18.3  61.5  34374  293.22 0854.52
2009/04/23 14:13:35.6      56     73     85     93    125  37.4  47.9  34370  293.15 0854.52
2009/04/23 14:13:35.7     231     74     47    243    248  72.1  11.0  34306  292.06 0854.48
2009/04/23 14:13:35.8     286     51     35    291    294  79.9   6.9  34304  292.02 0854.48
2009/04/23 14:13:35.9     366    198    120    417    435  61.6  16.1  34294  291.84 0854.48
2009/04/23 14:13:36.0     375    258     23    456    457  55.5   3.0  34268  291.41 0854.48
2009/04/23 14:13:36.1     311    154    234    348    419  63.6  37.2  34258  291.22 0854.48
2009/04/23 14:13:36.2     480    170     39    510    512  70.4   4.4  34250  291.10 0854.48
2009/04/23 14:13:36.3     398    242    -85    466    474  58.7 -10.4  34258  291.24 0854.48
2009/04/23 14:13:36.4     330    202    -49    388    392  58.5  -7.3  34288  291.76 0854.48
2009/04/23 14:13:36.5     334    184    132    382    405  61.2  19.1  34292  291.81 0854.48
2009/04/23 14:13:36.6     590    198    221    623    662  71.4  19.6  34272  291.49 0854.48
2009/04/23 14:13:36.7     447    206    139    493    513  65.3  15.8  34278  291.59 0854.48
2009/04/23 14:13:36.8     387    281    103    479    491  54.0  12.2  34292  291.81 0854.48
2009/04/23 14:13:36.9     407    258     94    482    492  57.6  11.1  34278  291.59 0854.48
2009/04/23 14:13:37.0     371    393     19    541    542  43.3   2.1  34270  291.45 0854.48
2009/04/23 14:13:37.1     340    301    140    455    477  48.4  17.1  34252  291.12 0854.48
2009/04/23 14:13:37.2     428     45    156    431    458  83.9  20.8  34280  291.60 0854.48
2009/04/23 14:13:37.3     329     13    111    330    349  87.7  18.6  34282  291.64 0854.48
2009/04/23 14:13:37.4     419    -36    114    421    437  95.0  15.1  34264  291.35 0854.48
2009/04/23 14:13:37.5     369    -56    103    374    389  98.7  15.4  34304  292.03 0854.48
2009/04/23 14:13:37.6     408    -54    148    412    437  97.6  20.7  34266  291.36 0854.48
2009/04/23 14:13:37.7     354    139     94    381    393  68.6  13.9  34262  291.32 0854.46
2009/04/23 14:13:37.8     343     86     69    354    361  75.9  11.1  34284  291.69 0854.46
2009/04/23 14:13:37.9     344     42     39    347    350  82.9   6.5  34268  291.40 0854.46
2009/04/23 14:13:38.0     294      7     63    295    302  88.5  12.2  34268  291.39 0854.46
2009/04/23 14:13:38.1     353    116     46    372    375  71.8   7.1  34326  292.39 0854.46
2009/04/23 14:13:38.2     337     40    145    340    369  83.1  24.6  34290  291.79 0854.46
2009/04/23 14:13:38.3     296     68     28    304    306  77.0   5.4  34290  291.77 0854.46
2009/04/23 14:13:38.4     280     24     37    282    285  85.0   7.5  34290  291.77 0854.46
2009/04/23 14:13:38.5     344    105     -1    360    361  73.0  -0.2  34282  291.66 0854.46
2009/04/23 14:13:38.6     262     19     74    263    274  85.7  15.8  34274  291.50 0854.46
2009/04/23 14:13:38.7     161      2     63    162    173  89.2  22.0  34266  291.38 0854.46
2009/04/23 14:13:38.8     181     -4    -41    182    187  91.5 -12.9  34258  291.25 0854.46
2009/04/23 14:13:38.9     243    -69    -38    253    256 105.9  -8.6  34262  291.29 0854.46
2009/04/23 14:13:39.0     207    -62     74    217    230 106.8  18.9  34282  291.66 0854.46
2009/04/23 14:13:39.1     169    -77     47    186    192 114.6  14.3  34294  291.84 0854.46
2009/04/23 14:13:39.2     138     21     73    140    157  81.2  29.5  34286  291.72 0854.46
2009/04/23 14:13:39.3     146    -29     59    149    160 101.5  22.8  34276  291.55 0854.46
2009/04/23 14:13:39.4     145   -114     81    185    201 128.2  25.1  34296  291.88 0854.46
2009/04/23 14:13:39.5     171   -151    111    229    254 131.4  27.8  34316  292.21 0854.46
2009/04/23 14:13:39.6     155   -126    138    201    243 129.1  37.6  34322  292.32 0854.46
2009/04/23 14:13:39.7     150   -124    180    195    265 129.5  47.7  34322  292.33 0854.44
2009/04/23 14:13:39.8     228    -70    140    239    276 107.1  33.1  34296  291.89 0854.44
2009/04/23 14:13:39.9     190    -37    149    194    244 101.2  41.6  34306  292.05 0854.44
2009/04/23 14:13:40.0     116    -36    167    122    206 107.3  60.3  34330  292.46 0854.44
2009/04/23 14:13:40.1     175      0    113    176    209  90.1  35.6  34310  292.13 0854.44
2009/04/23 14:13:40.2     161    -35    122    165    205 102.4  39.9  34322  292.32 0854.44
2009/04/23 14:13:40.3     130    -49    144    140    200 110.8  50.7  34322  292.32 0854.44
2009/04/23 14:13:40.4      28     33    157     44    163  40.5  84.1  34328  292.42 0854.44
2009/04/23 14:13:40.5      28     35    160     45    166  38.7  84.1  34314  292.20 0854.44
2009/04/23 14:13:40.6       8     50    139     51    148   9.8  79.2  34322  292.34 0854.44
2009/04/23 14:13:40.7     -29     30     73     43     84 315.9  66.2  34344  292.71 0854.44
2009/04/23 14:13:40.8     -15     45     65     48     80 341.3  60.0  34350  292.81 0854.44
2009/04/23 14:13:40.9     -22    134    115    136    178 350.7  44.5  34346  292.73 0854.44
2009/04/23 14:13:41.0     -72    151    206    168    265 334.6  56.4  34340  292.64 0854.44
2009/04/23 14:13:41.1     -53     44    141     69    156 309.6  72.1  34346  292.75 0854.44
2009/04/23 14:13:41.2     -74      1     65     75     99 270.9  45.4  34342  292.68 0854.44
2009/04/23 14:13:41.3     -30    -51    -19     60     62 210.7 -22.8  34338  292.59 0854.44
2009/04/23 14:13:41.4      17     84    -46     86     97  11.6 -34.7  34324  292.37 0854.44
2009/04/23 14:13:41.5     -52     26     50     59     77 297.1  43.8  34322  292.34 0854.44
2009/04/23 14:13:41.6       1     44     75     45     87   1.8  65.7  34330  292.47 0854.44
2009/04/23 14:13:41.7      48    -45     71     66     96 133.1  51.6  34338  292.61 0854.44
2009/04/23 14:13:41.8      59    -43     77     74    106 125.9  51.2  34344  292.69 0854.44
2009/04/23 14:13:41.9      87      0    114     88    144  90.0  58.5  34336  292.58 0854.44
2009/04/23 14:13:42.0      65     64    129     92    158  45.6  61.1  34336  292.56 0854.44
2009/04/23 14:13:42.1      84    145     87    168    189  30.3  29.5  34338  292.59 0854.44
2009/04/23 14:13:42.2      51    145     64    154    166  19.6  24.1  34352  292.83 0854.44
2009/04/23 14:13:42.3      24     62     28     67     72  21.9  23.1  34354  292.86 0854.44
2009/04/23 14:13:42.4      -1     56     79     57     97 358.2  60.5  34370  293.14 0854.44
2009/04/23 14:13:42.5       0     28     56     29     63   0.9  70.8  34376  293.26 0854.44
2009/04/23 14:13:42.6      20   -126    111    128    169 170.7  45.4  34334  292.54 0854.44
2009/04/23 14:13:42.7      -2   -126     95    127    158 181.0  40.7  34340  292.64 0854.43
2009/04/23 14:13:42.8      37    -74    118     83    144 153.3  61.5  34360  292.97 0854.43
2009/04/23 14:13:42.9     -49     43    108     66    126 311.3  65.1  34364  293.04 0854.43
2009/04/23 14:13:43.0     -67    -98    151    119    192 214.3  57.5  34368  293.10 0854.43
2009/04/23 14:13:43.1    -102   -123    214    161    267 219.6  59.4  34348  292.76 0854.43
2009/04/23 14:13:43.2     -68   -141    213    157    264 205.9  60.0  34358  292.93 0854.43
2009/04/23 14:13:43.3    -128   -166     83    210    225 217.6  23.0  34384  293.39 0854.43
2009/04/23 14:13:43.4    -146   -254    139    294    325 209.9  27.1  34370  293.15 0854.43
2009/04/23 14:13:43.5    -102   -207    239    231    332 206.3  51.1  34360  292.98 0854.43
2009/04/23 14:13:43.6     -29   -142    198    146    246 191.6  60.0  34350  292.80 0854.43
2009/04/23 14:13:43.7      24   -150    203    153    254 170.7  59.4  34358  292.95 0854.43
2009/04/23 14:13:43.8      29   -107    191    111    220 164.8  67.2  34344  292.71 0854.43
2009/04/23 14:13:43.9      13      8    135     16    135  57.6  90.0  34362  293.02 0854.43
2009/04/23 14:13:44.0      99     59    209    116    239  58.9  68.8  34360  292.98 0854.43
2009/04/23 14:13:44.1      23    -19    152     30    154 129.5  89.1  34360  292.97 0854.43
2009/04/23 14:13:44.2      51    -12    118     53    129 103.3  74.0  34364  293.05 0854.43
2009/04/23 14:13:44.3     -23     70    124     74    144 341.7  66.2  34376  293.24 0854.43
2009/04/23 14:13:44.4      35     49    137     61    149  35.2  74.5  34358  292.95 0854.43
2009/04/23 14:13:44.5      82     20    123     85    149  75.8  62.1  34364  293.05 0854.43
2009/04/23 14:13:44.6      29     45    172     54    180  32.5  81.8  34360  292.97 0854.43
2009/04/23 14:13:44.7      35    170    190    174    257  11.8  52.7  34362  292.99 0854.42
2009/04/23 14:13:44.8     -19    234     30    235    237 355.3   7.5  34354  292.86 0854.42
2009/04/23 14:13:44.9      51    172    105    180    208  16.7  33.1  34354  292.86 0854.42
2009/04/23 14:13:45.0     117     97    154    153    217  50.4  50.1  34370  293.15 0854.42
2009/04/23 14:13:45.1     163     43    191    169    255  75.2  54.0  34346  292.73 0854.42
2009/04/23 14:13:45.2      79     59    173     99    199  53.1  67.7  34374  293.21 0854.42
2009/04/23 14:13:45.3     114     88    270    145    306  52.3  69.6  34360  292.98 0854.42
2009/04/23 14:13:45.4     110    152    292    189    347  36.0  64.4  34362  292.99 0854.42
2009/04/23 14:13:45.5     161    252    205    300    363  32.6  37.6  34352  292.83 0854.42
2009/04/23 14:13:45.6     280    434    115    517    530  32.9  12.6  34324  292.35 0854.42
2009/04/23 14:13:45.7     300    494    214    579    617  31.3  21.1  34288  291.75 0854.42
2009/04/23 14:13:45.8     402    516    140    655    671  37.9  12.1  34322  292.31 0854.42
2009/04/23 14:13:45.9     389    583    108    702    711  33.7   8.8  34312  292.15 0854.42
2009/04/23 14:13:46.0     389    395    123    555    569  44.5  12.5  34344  292.71 0854.42
2009/04/23 14:13:46.1     404    338      6    527    528  50.1   0.7  34302  291.98 0854.42
2009/04/23 14:13:46.2     407    565    182    697    721  35.8  14.7  34272  291.49 0854.42
2009/04/23 14:13:46.3     440    388    160    587    609  48.6  15.3  34292  291.80 0854.42
2009/04/23 14:13:46.4     526    268    -23    591    592  63.0  -2.2  34286  291.70 0854.42
2009/04/23 14:13:46.5     545    307     -5    626    627  60.6  -0.5  34288  291.73 0854.42
2009/04/23 14:13:46.6     610    266     96    666    674  66.4   8.2  34296  291.87 0854.42
2009/04/23 14:13:46.7     481    348     47    594    596  54.1   4.6  34280  291.61 0854.44
2009/04/23 14:13:46.8     573    301    148    648    665  62.3  12.9  34294  291.85 0854.44
2009/04/23 14:13:46.9     634    334     85    717    723  62.2   6.8  34254  291.17 0854.44
2009/04/23 14:13:47.0     553    305    126    632    645  61.1  11.3  34250  291.10 0854.44
2009/04/23 14:13:47.1     468    297    201    555    591  57.6  19.9  34246  291.02 0854.44
2009/04/23 14:13:47.2     581    262    127    638    651  65.7  11.3  34254  291.16 0854.44
2009/04/23 14:13:47.3     425    209    170    474    503  63.7  20.4  34262  291.30 0854.44
2009/04/23 14:13:47.4     364    195    197    414    458  61.8  27.3  34256  291.19 0854.44
2009/04/23 14:13:47.5      96     50     56    109    122  62.5  29.3  34296  291.88 0854.44
2009/04/23 14:13:47.6     -15    -31    170     35    173 205.4  89.0  34308  292.08 0854.44
2009/04/23 14:13:47.7     189    -59    239    199    311 107.5  56.3  34312  292.16 0854.44
2009/04/23 14:13:47.8      61    -73    146     96    174 140.3  63.9  34324  292.37 0854.44
2009/04/23 14:13:47.9     178   -113    209    212    297 122.5  49.9  34326  292.38 0854.44
2009/04/23 14:13:48.0      81   -122    184    147    235 146.2  57.5  34320  292.29 0854.44
2009/04/23 14:13:48.1     249   -199     51    319    324 128.6   9.2  34308  292.09 0854.44
2009/04/23 14:13:48.2     207    -97     38    229    233 115.2   9.5  34296  291.89 0854.44
2009/04/23 14:13:48.3     219    -14    191    220    291  93.7  45.6  34334  292.52 0854.44
2009/04/23 14:13:48.4     283    -89    283    297    410 107.5  48.5  34324  292.36 0854.44
2009/04/23 14:13:48.5     292     78    223    303    376  75.0  39.9  34308  292.10 0854.44
2009/04/23 14:13:48.6     259    195    226    325    395  53.0  38.3  34248  291.06 0854.44
2009/04/23 14:13:48.7     209    271    170    343    382  37.6  28.2  34238  290.89 0854.46
2009/04/23 14:13:48.8     203    251    210    324    386  39.0  35.9  34278  291.56 0854.46
2009/04/23 14:13:48.9     250    155    164    295    337  58.2  31.4  34306  292.04 0854.46
2009/04/23 14:13:49.0     311    134     40    339    342  66.6   6.9  34314  292.20 0854.46
2009/04/23 14:13:49.1     192    204    104    281    299  43.3  21.0  34306  292.04 0854.46
2009/04/23 14:13:49.2     184    227     76    293    303  39.0  14.7  34288  291.75 0854.46
2009/04/23 14:13:49.3      51    149     95    158    184  19.2  34.0  34262  291.32 0854.46
2009/04/23 14:13:49.4      80    222    128    237    269  20.0  30.8  34268  291.39 0854.46
2009/04/23 14:13:49.5     -79    506    161    513    538 351.1  17.4  34266  291.37 0854.46
2009/04/23 14:13:49.6    -128    625     79    639    644 348.4   7.1  34272  291.49 0854.46
2009/04/23 14:13:49.7      18    553    108    554    565   1.9  11.1  34300  291.94 0854.46
2009/04/23 14:13:49.8      16    503    137    504    523   1.9  15.3  34296  291.87 0854.46
2009/04/23 14:13:49.9      70    517    139    522    541   7.8  14.9  34284  291.69 0854.46
2009/04/23 14:13:50.0     219    524    190    569    601  22.7  18.5  34290  291.78 0854.46
2009/04/23 14:13:50.1     339    438    152    554    575  37.8  15.4  34328  292.44 0854.46
2009/04/23 14:13:50.2     356    376    102    519    530  43.4  11.1  34324  292.35 0854.46
2009/04/23 14:13:50.3     249    441     53    507    510  29.5   6.0  34316  292.21 0854.46
2009/04/23 14:13:50.4     334    273    -24    432    433  50.7  -3.2  34314  292.20 0854.46
2009/04/23 14:13:50.5     313    213     60    379    384  55.8   9.0  34318  292.27 0854.46
2009/04/23 14:13:50.6     -47    445     88    448    457 353.9  11.1  34304  292.01 0854.46
2009/04/23 14:13:50.7     197    487     44    526    529  22.1   4.9  34238  290.89 0854.47
2009/04/23 14:13:50.8     318    507     72    599    604  32.1   6.9  34298  291.92 0854.47
2009/04/23 14:13:50.9     130    365     73    388    395  19.7  10.7  34260  291.28 0854.47
2009/04/23 14:13:51.0     235    383    -34    450    452  31.5  -4.4  34248  291.06 0854.47
2009/04/23 14:13:51.1     116    376    -35    394    396  17.2  -5.1  34232  290.81 0854.47
2009/04/23 14:13:51.2     371    251    -67    449    455  55.9  -8.6  34264  291.35 0854.47
2009/04/23 14:13:51.3     591    144    -41    609    611  76.3  -3.9  34274  291.51 0854.47
2009/04/23 14:13:51.4     510    147   -132    531    548  73.9 -14.0  34254  291.16 0854.47
2009/04/23 14:13:51.5     790    289    -32    842    843  69.9  -2.2  34248  291.07 0854.47
2009/04/23 14:13:51.6     818    166    -34    835    836  78.5  -2.4  34260  291.27 0854.47
2009/04/23 14:13:51.7     864    218    -75    891    895  75.8  -4.9  34232  290.81 0854.47
2009/04/23 14:13:51.8     800    162   -138    817    829  78.6  -9.6  34234  290.84 0854.47
2009/04/23 14:13:51.9     690    146    -27    706    707  78.0  -2.2  34228  290.71 0854.47
2009/04/23 14:13:52.0     337    450    -21    563    564  36.8  -2.2  34228  290.74 0854.47
2009/04/23 14:13:52.1     340    305     86    457    466  48.1  10.7  34230  290.77 0854.47
2009/04/23 14:13:52.2     365    230    255    432    501  57.8  33.4  34238  290.90 0854.47
2009/04/23 14:13:52.3     389    199     77    437    444  62.9  10.1  34216  290.51 0854.47
2009/04/23 14:13:52.4     337    120     61    358    364  70.3   9.7  34222  290.64 0854.47
2009/04/23 14:13:52.5     218    141    141    260    295  57.1  31.0  34220  290.58 0854.47
2009/04/23 14:13:52.6     499     78    134    506    524  81.1  14.9  34232  290.81 0854.47
2009/04/23 14:13:52.7     438     94    230    449    504  77.8  29.2  34246  291.03 0854.46
2009/04/23 14:13:52.9     285    117    372    309    483  67.6  56.3  34254  291.16 0854.46
2009/04/23 14:13:52.9     141     90    352    168    390  57.5  72.8  34250  291.11 0854.46
2009/04/23 14:13:53.0     297    136    336    327    468  65.4  50.8  34284  291.67 0854.46
2009/04/23 14:13:53.2     136    -49    302    145    335 110.0  72.8  34272  291.46 0854.46
2009/04/23 14:13:53.2     265   -179    206    321    381 124.1  35.6  34328  292.42 0854.46
2009/04/23 14:13:53.4     430   -201    150    475    499 115.1  17.5  34296  291.87 0854.46
2009/04/23 14:13:53.5     374    -28    126    375    396  94.4  18.6  34270  291.45 0854.46
2009/04/23 14:13:53.6     290   -125    118    316    337 113.3  21.5  34290  291.78 0854.46
2009/04/23 14:13:53.7     324   -255    143    413    438 128.3  19.1  34280  291.62 0854.46
2009/04/23 14:13:53.8     279   -189    432    338    548 124.1  58.2  34222  290.64 0854.46
2009/04/23 14:13:53.9     420    139    199    443    485  71.7  25.8  34242  290.98 0854.46
2009/04/23 14:13:54.0     335    -11    294    336    446  91.9  45.8  34260  291.26 0854.46
2009/04/23 14:13:54.1     275    122    411    301    509  66.0  60.3  34246  291.02 0854.46
2009/04/23 14:13:54.2     426    124    376    444    581  73.7  44.5  34258  291.23 0854.46
2009/04/23 14:13:54.3     109    -24    308    112    327 102.8  79.3  34300  291.94 0854.46
2009/04/23 14:13:54.4     102    -99    210    143    254 134.0  62.6  34324  292.37 0854.46
2009/04/23 14:13:54.5     205   -185    295    277    404 132.0  52.1  34342  292.66 0854.46
2009/04/23 14:13:54.6     143    -50    263    152    303 109.5  67.7  34324  292.35 0854.46
2009/04/23 14:13:54.7     163    -62    256    175    310 111.1  62.6  34314  292.19 0854.46
2009/04/23 14:13:54.8     310    -80    198    321    377 104.6  34.6  34240  290.94 0854.41
2009/04/23 14:13:54.9     320    -41    -34    323    325  97.5  -6.1  34242  290.95 0854.41
2009/04/23 14:13:55.0     267     75     33    278    281  74.3   6.9  34264  291.33 0854.41
2009/04/23 14:13:55.1     162    102    185    192    266  57.6  49.0  34262  291.31 0854.41
2009/04/23 14:13:55.2     162    128     24    207    209  51.8   6.7  34250  291.09 0854.41
2009/04/23 14:13:55.3     147     18    142    149    205  83.0  48.5  34260  291.28 0854.41
2009/04/23 14:13:55.4     183     83    234    202    309  65.6  55.0  34254  291.17 0854.41
2009/04/23 14:13:55.5      69     56    122     90    151  50.9  60.5  34258  291.25 0854.41
2009/04/23 14:13:55.6     -15     64    115     66    132 346.6  67.7  34268  291.40 0854.41
2009/04/23 14:13:55.7      -9    121    105    122    160 355.5  45.4  34258  291.23 0854.41
2009/04/23 14:13:55.8      41     62    146     75    164  33.4  70.8  34280  291.62 0854.41
2009/04/23 14:13:55.9      24     24    150     34    153  45.1  88.0  34286  291.71 0854.41
2009/04/23 14:13:56.0      99    106    109    146    182  43.2  40.4  34274  291.52 0854.41
2009/04/23 14:13:56.1     -20     51    183     56    191 338.2  82.5  34284  291.69 0854.41
2009/04/23 14:13:56.2       0     28    207     29    209   0.9  90.0  34320  292.29 0854.41
2009/04/23 14:13:56.3      36   -227    175    230    289 170.9  41.2  34326  292.40 0854.41
2009/04/23 14:13:56.4    -134   -236    270    272    383 209.6  50.0  34312  292.14 0854.41
2009/04/23 14:13:56.5     -59   -236    194    244    311 194.2  42.7  34324  292.35 0854.41
2009/04/23 14:13:56.6      27   -249    149    251    291 173.7  33.5  34330  292.45 0854.41
2009/04/23 14:13:56.7      12   -256     19    257    258 177.3   4.2  34316  292.23 0854.41
2009/04/23 14:13:56.8     -25   -141     97    144    173 190.2  36.7  34330  292.46 0854.42
2009/04/23 14:13:56.9      27    -82    118     87    146 161.7  60.5  34348  292.76 0854.42
2009/04/23 14:13:57.0     -47   -129    187    138    232 200.1  60.5  34334  292.52 0854.42
2009/04/23 14:13:57.1     -22   -108    149    111    185 191.6  59.4  34322  292.32 0854.42
2009/04/23 14:13:57.2     -43   -141    213    148    259 196.9  61.8  34298  291.91 0854.42
2009/04/23 14:13:57.3     -47   -170    229    177    289 195.6  58.5  34300  291.94 0854.42
2009/04/23 14:13:57.4     -26   -186    274    188    332 188.2  62.4  34272  291.48 0854.42
2009/04/23 14:13:57.5     -57   -283    291    289    410 191.5  50.1  34282  291.64 0854.42
2009/04/23 14:13:57.6     -69   -243    275    253    373 196.0  52.5  34298  291.91 0854.42
2009/04/23 14:13:57.7     -47   -142    241    150    283 198.5  65.1  34256  291.21 0854.42
2009/04/23 14:13:57.8      54    -37     78     66    102 125.1  55.4  34242  290.98 0854.42
2009/04/23 14:13:57.9     135    210    109    250    272  32.7  25.1  34254  291.16 0854.42
2009/04/23 14:13:58.0      93    270    111    286    306  19.1  22.3  34258  291.22 0854.42
2009/04/23 14:13:58.1      -7    233    125    234    265 358.2  30.3  34254  291.16 0854.42
2009/04/23 14:13:58.2     -99     26    178    103    205 285.1  67.2  34284  291.69 0854.42
2009/04/23 14:13:58.3    -158   -120    131    199    238 232.9  36.5  34262  291.30 0854.42
2009/04/23 14:13:58.4    -114   -147     36    187    191 217.8  11.0  34236  290.86 0854.42
2009/04/23 14:13:58.5     -67    175     58    188    197 338.8  17.3  34236  290.86 0854.42
2009/04/23 14:13:58.6    -119     76      7    142    143 302.4   2.9  34254  291.16 0854.42
2009/04/23 14:13:58.7     -39    195     39    199    203 348.5  11.1  34250  291.11 0854.42
2009/04/23 14:13:58.8    -144    163    -25    218    220 318.6  -6.7  34246  291.04 0854.43
2009/04/23 14:13:58.9     -73    181    -22    196    198 338.1  -6.5  34246  291.04 0854.43
2009/04/23 14:13:59.0      37    265     30    268    270   8.0   6.5  34258  291.24 0854.43
2009/04/23 14:13:59.1     -86    219     95    236    254 338.6  23.0  34266  291.38 0854.43
2009/04/23 14:13:59.2    -157    -85     61    179    190 241.6  18.9  34270  291.45 0854.43
2009/04/23 14:13:59.3     -92   -125    197    156    251 216.5  57.5  34258  291.23 0854.43
2009/04/23 14:13:59.4     -83   -107    173    136    220 217.8  57.9  34264  291.35 0854.43
2009/04/23 14:13:59.5    -173     25    122    175    213 278.4  38.0  34282  291.64 0854.43
2009/04/23 14:13:59.6    -199     14     39    200    204 274.1  11.1  34268  291.42 0854.43
2009/04/23 14:13:59.7     -86   -138    176    163    239 212.1  52.5  34256  291.21 0854.43
2009/04/23 14:13:59.8    -126   -143    179    191    261 221.4  48.0  34260  291.27 0854.43
2009/04/23 14:13:59.9     -84   -133    164    158    227 212.5  51.2  34264  291.35 0854.43
2009/04/23 14:14:00.0    -123   -123    193    175    260 225.1  53.2  34290  291.78 0854.43
2009/04/23 14:14:00.1    -131    -67    161    148    218 242.9  52.2  34282  291.64 0854.43
2009/04/23 14:14:00.2       0    -66    185     67    196 180.0  79.2  34294  291.84 0854.43
2009/04/23 14:14:00.3     -45    -78    220     91    238 210.3  76.3  34284  291.67 0854.43
2009/04/23 14:14:00.4     115   -114    167    163    233 134.8  50.4  34256  291.20 0854.43
2009/04/23 14:14:00.5      68    -92    119    115    165 143.5  50.9  34262  291.30 0854.43
2009/04/23 14:14:00.6      24   -175    152    177    233 172.0  45.1  34254  291.16 0854.43
2009/04/23 14:14:00.7     -19   -159    190    161    249 186.9  55.6  34266  291.37 0854.43
2009/04/23 14:14:00.8       9   -173    191    174    258 176.9  53.0  34266  291.38 0854.43
2009/04/23 14:14:00.9     102   -135    159    170    232 143.0  48.0  34258  291.23 0854.43
2009/04/23 14:14:01.0      83   -240    192    255    319 160.8  40.8  34268  291.39 0854.43
2009/04/23 14:14:01.1     140    -83    145    163    218 120.7  46.4  34274  291.52 0854.43
2009/04/23 14:14:01.2     139   -102    102    173    200 126.4  33.4  34274  291.52 0854.43
2009/04/23 14:14:01.3      67    -96     92    118    149 145.3  42.2  34266  291.37 0854.43
2009/04/23 14:14:01.4      68    -37    148     78    167 118.9  70.4  34296  291.88 0854.43
2009/04/23 14:14:01.5      46    -22     91     52    104 116.2  67.7  34298  291.93 0854.43
2009/04/23 14:14:01.6      99    -62    135    117    178 122.0  54.8  34302  291.98 0854.43
2009/04/23 14:14:01.7      47      0     87     48     99  90.0  68.8  34308  292.10 0854.43
2009/04/23 14:14:01.8       0     -5     49      6     49 182.7  90.0  34302  292.00 0854.43
2009/04/23 14:14:01.9       7    -34     82     35     89 168.4  76.1  34300  291.95 0854.43
2009/04/23 14:14:02.0      29    118     83    122    147  13.8  37.4  34280  291.62 0854.43
2009/04/23 14:14:02.1      11    177    181    178    253   3.6  50.4  34304  292.01 0854.43
2009/04/23 14:14:02.2      26    118    166    121    205  12.5  60.5  34266  291.38 0854.43
2009/04/23 14:14:02.3      85    187    196    206    284  24.5  48.7  34246  291.02 0854.43
2009/04/23 14:14:02.4     173    245    195    300    357  35.2  36.2  34238  290.89 0854.43
2009/04/23 14:14:02.5     164    253    166    302    344  33.0  31.3  34228  290.74 0854.43
2009/04/23 14:14:02.6      80    201    170    217    275  21.8  42.0  34282  291.63 0854.43
2009/04/23 14:14:02.7     125    201     72    237    248  31.9  17.1  34238  290.88 0854.43
2009/04/23 14:14:02.8     113    204     56    234    241  28.9  13.7  34246  291.02 0854.45
2009/04/23 14:14:02.9      42    140     55    147    156  17.0  21.5  34252  291.13 0854.45
2009/04/23 14:14:03.0      54     49     62     73     95  47.8  44.3  34284  291.69 0854.45
2009/04/23 14:14:03.1      16     26     71     31     77  32.5  75.0  34318  292.27 0854.45
2009/04/23 14:14:03.2       0    -16     37     17     40 182.7  74.0  34334  292.54 0854.45
2009/04/23 14:14:03.3     -63    -74     62     98    115 220.5  35.5  34314  292.18 0854.45
2009/04/23 14:14:03.4     -48    -88     63    101    119 208.5  35.5  34290  291.79 0854.45
2009/04/23 14:14:03.5     -90    -50     72    104    126 240.7  37.6  34306  292.05 0854.45
2009/04/23 14:14:03.6     -66    -36     90     76    117 241.1  55.4  34336  292.58 0854.45
2009/04/23 14:14:03.7     -79   -145     87    166    187 208.7  29.5  34316  292.22 0854.45
2009/04/23 14:14:03.8     -95   -215     96    236    254 203.8  23.4  34294  291.84 0854.46
2009/04/23 14:14:03.9     -43   -181     54    187    195 193.6  16.3  34272  291.49 0854.46
2009/04/23 14:14:04.0      54   -243     58    250    257 167.3  13.2  34272  291.46 0854.46
2009/04/23 14:14:04.1      52   -257     51    263    268 168.4  11.0  34252  291.14 0854.46
2009/04/23 14:14:04.2      18   -236     -1    237    238 175.6  -0.3  34266  291.36 0854.46
2009/04/23 14:14:04.3      37   -139    149    145    207 164.9  50.7  34298  291.93 0854.46
2009/04/23 14:14:04.4       0   -204     84    205    221 180.2  23.1  34256  291.21 0854.46
2009/04/23 14:14:04.5     -49   -262     22    267    269 190.7   4.9  34276  291.53 0854.46
2009/04/23 14:14:04.6     -18   -236     33    237    240 184.4   8.0  34256  291.21 0854.46
2009/04/23 14:14:04.7      45   -241     16    246    247 169.3   3.8  34246  291.04 0854.46
2009/04/23 14:14:04.8       0   -256     22    257    259 180.2   5.0  34244  290.99 0854.46
2009/04/23 14:14:04.9      95   -255     28    273    275 159.5   6.0  34260  291.26 0854.46
2009/04/23 14:14:05.0     132   -216     49    254    259 148.6  11.1  34246  291.02 0854.46
2009/04/23 14:14:05.1      52   -193     46    200    206 164.9  13.1  34248  291.08 0854.46
2009/04/23 14:14:05.2      96   -204     42    226    230 154.7  10.6  34244  291.01 0854.46
2009/04/23 14:14:05.3      92   -164     19    189    190 150.6   5.9  34240  290.94 0854.46
2009/04/23 14:14:05.4     103   -121     21    160    162 139.5   7.5  34224  290.67 0854.46
2009/04/23 14:14:05.5      91   -110     -2    144    145 140.4  -1.2  34238  290.89 0854.46
2009/04/23 14:14:05.6     -11   -157     29    158    161 184.0  10.6  34246  291.03 0854.46
2009/04/23 14:14:05.7     -22   -157     30    159    162 188.1  10.8  34244  290.99 0854.46
2009/04/23 14:14:05.8     -46   -137     86    145    168 198.7  33.5  34242  290.98 0854.46
2009/04/23 14:14:05.9      -8   -191    128    192    230 182.5  36.5  34250  291.09 0854.46
2009/04/23 14:14:06.0     -22   -203    114    205    234 186.2  31.4  34252  291.13 0854.46
2009/04/23 14:14:06.1    -127   -126     74    180    194 225.2  23.6  34256  291.21 0854.46
2009/04/23 14:14:06.2       1   -113     91    114    145 179.1  42.7  34268  291.40 0854.46
2009/04/23 14:14:06.3       0      0    115      0    115   0.0  90.0  34276  291.55 0854.46
2009/04/23 14:14:06.4       1    -18    117     19    118 175.6  90.0  34278  291.57 0854.46
2009/04/23 14:14:06.5     -50    -77     58     93    109 213.0  35.5  34270  291.43 0854.46
2009/04/23 14:14:06.6     -37    -32     65     50     82 228.7  58.5  34276  291.54 0854.46
2009/04/23 14:14:06.7     -43      8     19     44     47 281.5  24.1  34266  291.37 0854.46
2009/04/23 14:14:06.8     -12      4     21     13     24 288.2  64.7  34268  291.42 0854.46
2009/04/23 14:14:06.9      -3     50     29     51     58 355.5  33.5  34272  291.47 0854.46
2009/04/23 14:14:07.0      19     64     66     67     94  16.9  50.5  34280  291.60 0854.46
2009/04/23 14:14:07.1      22     47     77     53     93  25.4  62.6  34266  291.38 0854.46
2009/04/23 14:14:07.2     123     75      7    145    146  58.5   2.9  34266  291.38 0854.46
2009/04/23 14:14:07.3     120    180     29    217    219  33.8   7.8  34280  291.62 0854.46
2009/04/23 14:14:07.4     140    155      8    209    210  42.1   2.3  34300  291.96 0854.46
2009/04/23 14:14:07.5     107    139    -36    176    180  37.6 -11.6  34320  292.29 0854.46
2009/04/23 14:14:07.6     -31    177    -48    180    187 350.0 -15.2  34268  291.42 0854.46
2009/04/23 14:14:07.7      25    237     -9    239    240   6.2  -2.2  34344  292.70 0854.46
2009/04/23 14:14:07.8       9    232     -1    233    234   2.2  -0.3  34336  292.57 0854.47
2009/04/23 14:14:07.9     -59    206     -8    215    216 344.0  -2.3  34332  292.51 0854.47
2009/04/23 14:14:08.0     -10    198     38    199    203 356.9  11.0  34328  292.44 0854.47
2009/04/23 14:14:08.1      -8    196    102    197    221 357.5  29.3  34296  291.88 0854.47
2009/04/23 14:14:08.2      52    277    -21    282    283  10.7  -4.4  34288  291.73 0854.47
2009/04/23 14:14:08.3      72    223     81    235    249  18.0  19.2  34278  291.58 0854.47
2009/04/23 14:14:08.4      54    132     80    143    163  22.3  31.9  34292  291.81 0854.47
2009/04/23 14:14:08.5      48    144     97    152    180  18.5  35.5  34312  292.15 0854.47
2009/04/23 14:14:08.6     -12    121    161    122    202 354.2  59.0  34304  292.01 0854.47
2009/04/23 14:14:08.7     -77    130    180    152    235 329.3  55.4  34300  291.96 0854.47
2009/04/23 14:14:08.8     -82     59    152    102    183 305.9  63.2  34302  291.98 0854.47
2009/04/23 14:14:08.9     -70     10     89     71    113 278.8  56.9  34308  292.10 0854.47
2009/04/23 14:14:09.0    -116     29     65    120    136 284.2  30.8  34294  291.86 0854.47
2009/04/23 14:14:09.1    -131     68     34    148    152 297.5  13.1  34292  291.81 0854.47
2009/04/23 14:14:09.2    -132    109     47    172    179 309.5  15.3  34292  291.83 0854.47
2009/04/23 14:14:09.3    -141    128     94    191    212 312.4  28.0  34316  292.23 0854.47
2009/04/23 14:14:09.4    -115    170     96    206    227 325.9  27.1  34342  292.68 0854.47
2009/04/23 14:14:09.5    -136    105    102    172    199 307.8  33.5  34352  292.85 0854.47
2009/04/23 14:14:09.6     -27    143     98    146    175 349.3  36.7  34342  292.68 0854.47
2009/04/23 14:14:09.7      46     93    140    104    174  26.3  59.8  34338  292.61 0854.47
2009/04/23 14:14:09.8      94    197    131    219    255  25.5  33.5  34320  292.28 0854.49
2009/04/23 14:14:09.9      41    217     87    222    238  10.9  22.3  34322  292.31 0854.49
2009/04/23 14:14:10.0      82     71    148    109    183  49.1  60.5  34350  292.80 0854.49
2009/04/23 14:14:10.1     -20     32    138     39    143 327.5  84.4  34360  292.97 0854.49
2009/04/23 14:14:10.2      26     40    129     48    137  33.4  79.2  34344  292.69 0854.49
2009/04/23 14:14:10.3      19     54     89     58    106  19.2  64.6  34320  292.30 0854.49
2009/04/23 14:14:10.4      26     79     63     84    105  18.7  40.1  34304  292.03 0854.49
2009/04/23 14:14:10.5      75    118     30    140    144  32.5  12.2  34296  291.88 0854.49
2009/04/23 14:14:10.6      68    144     31    160    164  25.3  11.1  34296  291.88 0854.49
2009/04/23 14:14:10.7     189    123     61    226    235  56.9  15.3  34316  292.23 0854.49
2009/04/23 14:14:10.8     151     78     61    171    181  62.5  20.4  34328  292.44 0854.49
2009/04/23 14:14:10.9     141     72    111    159    193  62.9  38.4  34312  292.17 0854.49
2009/04/23 14:14:11.0     -13     17    107     22    109 322.2  89.1  34326  292.40 0854.49
2009/04/23 14:14:11.1     -18     15     90     24     93 309.5  84.9  34322  292.32 0854.49
2009/04/23 14:14:11.2      73     35    142     82    163  64.2  67.2  34320  292.29 0854.49
2009/04/23 14:14:11.3     117     51     62    128    142  66.4  27.3  34306  292.05 0854.49
2009/04/23 14:14:11.4     151     45     91    158    182  73.1  32.7  34302  292.00 0854.49
2009/04/23 14:14:11.5      51     60    156     79    174  40.5  71.4  34338  292.59 0854.49
2009/04/23 14:14:11.6     151     35    133    156    205  76.7  44.8  34336  292.56 0854.49
2009/04/23 14:14:11.7     107     25    152    110    187  76.7  60.5  34396  293.60 0854.49
2009/04/23 14:14:11.8     -41     83    174     93    197 333.3  69.6  34400  293.65 0854.49
2009/04/23 14:14:11.9     -26    103    210    107    235 345.7  71.1  34436  294.28 0854.49
2009/04/23 14:14:12.0      82     82    158    116    196  45.0  60.0  34436  294.26 0854.49
2009/04/23 14:14:12.1      37    134    240    140    277  15.6  67.0  34400  293.64 0854.49
2009/04/23 14:14:12.2     226    120    174    256    309  62.0  37.4  34336  292.55 0854.49
2009/04/23 14:14:12.3      47    129    148    138    202  20.1  52.1  34398  293.62 0854.49
2009/04/23 14:14:12.4     -14    172    186    173    254 355.1  52.2  34418  293.96 0854.49
2009/04/23 14:14:12.5      45    204    112    209    237  12.5  30.3  34390  293.48 0854.49
2009/04/23 14:14:12.6      34    103    125    109    165  18.7  54.6  34396  293.60 0854.49
2009/04/23 14:14:12.7     226    129    192    261    324  60.3  40.1  34348  292.77 0854.49
2009/04/23 14:14:12.8     181    150    218    236    321  50.4  47.7  34346  292.74 0854.49
2009/04/23 14:14:12.9     206    205    171    291    337  45.2  33.1  34328  292.41 0854.49
2009/04/23 14:14:13.0     424    165    180    456    490  68.7  22.9  34294  291.85 0854.49
2009/04/23 14:14:13.1     366    117    188    385    428  72.3  27.9  34294  291.86 0854.49
2009/04/23 14:14:13.2     315    237    144    395    420  53.0  20.8  34284  291.67 0854.49
2009/04/23 14:14:13.3     365    247    -17    441    442  55.9  -2.2  34302  291.98 0854.49
2009/04/23 14:14:13.4     150    211    -56    260    267  35.4 -12.2  34266  291.38 0854.49
2009/04/23 14:14:13.5      97    346     93    360    372  15.7  14.5  34296  291.88 0854.49
2009/04/23 14:14:13.6      14    522     -2    523    524   1.6  -0.3  34312  292.17 0854.49
2009/04/23 14:14:13.7      85    402     63    412    417  12.0   8.8  34342  292.67 0854.49
2009/04/23 14:14:13.8     120    254     75    281    291  25.3  15.0  34370  293.15 0854.48
2009/04/23 14:14:13.9     118    279     28    304    306  22.9   5.4  34384  293.37 0854.48
2009/04/23 14:14:14.0      23    243     45    245    250   5.6  10.6  34396  293.59 0854.48
2009/04/23 14:14:14.1      44    319    103    323    339   8.0  17.7  34372  293.16 0854.48
2009/04/23 14:14:14.2     166    287    181    332    378  30.0  31.0  34358  292.95 0854.48
2009/04/23 14:14:14.3     260    329     74    420    427  38.3  10.1  34346  292.74 0854.48
2009/04/23 14:14:14.4      58    461    128    465    483   7.2  15.4  34318  292.24 0854.48
2009/04/23 14:14:14.5      24    419    149    420    445   3.4  20.2  34314  292.18 0854.48
2009/04/23 14:14:14.6     256    152    126    298    323  59.3  24.5  34314  292.19 0854.48
2009/04/23 14:14:14.7     596    248      2    646    647  67.4   0.2  34358  292.93 0854.48
2009/04/23 14:14:14.8     314    335    240    460    518  43.2  29.8  34366  293.08 0854.48
2009/04/23 14:14:14.9     255    402    144    477    499  32.4  16.8  34358  292.94 0854.48
2009/04/23 14:14:15.0      55    372     97    377    390   8.5  14.5  34328  292.44 0854.48
2009/04/23 14:14:15.1     230    488     83    540    547  25.3   8.8  34294  291.84 0854.48
2009/04/23 14:14:15.2     225    452     39    506    508  26.5   4.5  34288  291.75 0854.48
2009/04/23 14:14:15.3     134    459      8    479    480  16.3   1.0  34302  291.97 0854.48
2009/04/23 14:14:15.4     182    364    -23    408    409  26.6  -3.3  34288  291.75 0854.48
2009/04/23 14:14:15.5     374    213    -79    431    439  60.3 -10.4  34280  291.62 0854.48
2009/04/23 14:14:15.6     368    242   -132    441    460  56.7 -21.7  34238  290.89 0854.48
2009/04/23 14:14:15.7     431    273   -135    511    529  57.6 -14.8  34254  291.18 0854.48
2009/04/23 14:14:15.8     581    157   -166    602    625  74.9 -15.4  34260  291.27 0854.48
2009/04/23 14:14:15.9     485    110     62    498    502  77.2   7.1  34278  291.58 0854.48
2009/04/23 14:14:16.0     441    259    114    512    525  59.6  12.6  34254  291.18 0854.48
2009/04/23 14:14:16.1     553    352    223    656    694  57.5  18.8  34298  291.92 0854.48
2009/04/23 14:14:16.2     490    127    323    507    601  75.4  35.6  34330  292.45 0854.48
2009/04/23 14:14:16.3     526    238    302    578    652  65.7  29.9  34346  292.75 0854.48
2009/04/23 14:14:16.4     382    195    213    429    478  62.9  28.4  34334  292.54 0854.48
2009/04/23 14:14:16.5     403     90    303    414    513  77.3  39.7  34372  293.18 0854.48
2009/04/23 14:14:16.6     317     76    240    327    405  76.5  39.9  34332  292.48 0854.48
2009/04/23 14:14:16.7     307      6    128    308    333  88.7  23.8  34356  292.89 0854.48
2009/04/23 14:14:16.8     416      5     83    417    426  89.2  11.3  34298  291.92 0854.48
2009/04/23 14:14:16.9     488    136     59    507    511  74.4   6.7  34238  290.91 0854.48
2009/04/23 14:14:17.0     556    306     66    635    639  61.2   6.0  34254  291.16 0854.48
2009/04/23 14:14:17.1     545    228     25    591    592  67.3   2.5  34302  291.99 0854.48
2009/04/23 14:14:17.2     397    160     18    429    430  68.0   2.5  34278  291.58 0854.48
2009/04/23 14:14:17.3     371    140     95    397    409  69.3  13.5  34266  291.36 0854.48
2009/04/23 14:14:17.4     416     84    205    425    471  78.6  27.7  34276  291.55 0854.48
2009/04/23 14:14:17.5     262    217     58    341    346  50.3   9.7  34272  291.49 0854.48
2009/04/23 14:14:17.6     362     34    148    364    392  84.5  23.4  34278  291.56 0854.48
2009/04/23 14:14:17.7     272    175    192    324    376  57.1  33.5  34258  291.25 0854.48
2009/04/23 14:14:17.8     174    163    109    239    262  46.9  26.2  34248  291.07 0854.49
2009/04/23 14:14:17.9      82    264    126    277    304  17.4  26.2  34256  291.19 0854.49
2009/04/23 14:14:18.0      73    102    202    126    238  35.6  65.1  34288  291.74 0854.49
2009/04/23 14:14:18.1     241     94    229    259    345  68.7  46.2  34262  291.31 0854.49
2009/04/23 14:14:18.2     583    282    123    648    660  64.1  10.8  34312  292.15 0854.49
2009/04/23 14:14:18.3     297    145   -173    331    373  64.0 -34.2  34186  290.01 0854.49
2009/04/23 14:14:18.4     178    156   -114    237    262  48.7 -31.7  34222  290.61 0854.49
2009/04/23 14:14:18.5     209    114    -34    239    242  61.4  -8.3  34254  291.16 0854.49
2009/04/23 14:14:18.6     334    128    138    358    383  69.0  22.3  34282  291.64 0854.49
2009/04/23 14:14:18.7     472     -6    255    473    537  90.8  30.8  34306  292.04 0854.49
2009/04/23 14:14:18.8     478     19    319    479    575  87.7  36.7  34322  292.34 0854.49
2009/04/23 14:14:18.9     618     13     46    619    621  88.8   4.3  34262  291.32 0854.49
2009/04/23 14:14:19.0     392   -100    105    405    419 104.4  14.6  34288  291.75 0854.49
2009/04/23 14:14:19.1     343     42    115    346    365  83.0  18.4  34294  291.85 0854.49
2009/04/23 14:14:19.2     417     56    274    421    502  82.3  36.0  34322  292.33 0854.49
2009/04/23 14:14:19.3     410     55    345    414    538  82.3  43.8  34298  291.92 0854.49
2009/04/23 14:14:19.4     464     35     26    466    467  85.6   3.3  34266  291.36 0854.49
2009/04/23 14:14:19.5     501     10    -73    502    508  88.8  -8.3  34258  291.22 0854.49
2009/04/23 14:14:19.6     479     74     74    485    491  81.2   8.7  34250  291.10 0854.49
2009/04/23 14:14:19.7     431    150    118    457    473  70.8  14.5  34256  291.19 0854.49
2009/04/23 14:14:19.8     323    186    137    373    397  60.1  21.0  34254  291.17 0854.50
2009/04/23 14:14:19.9     277    288    136    400    423  43.9  18.8  34252  291.12 0854.50
2009/04/23 14:14:20.0     138    189    143    235    275  36.1  34.2  34286  291.70 0854.50
2009/04/23 14:14:20.1      18    130     55    132    143   8.1  23.1  34284  291.67 0854.50
2009/04/23 14:14:20.2       0    146    -10    147    148   0.0  -4.1  34276  291.55 0854.50
2009/04/23 14:14:20.3     -77    116    -41    140    145 326.6 -21.2  34266  291.38 0854.50
2009/04/23 14:14:20.4     -50     96    -96    109    145 332.4 -50.3  34264  291.33 0854.50
2009/04/23 14:14:20.6     -38    150    -84    155    176 345.7 -35.2  34280  291.60 0854.50
2009/04/23 14:14:20.7    -109     79    -81    135    157 306.0 -38.4  34274  291.52 0854.50
2009/04/23 14:14:20.8    -146      2    -92    147    173 270.8 -39.9  34278  291.59 0854.50
2009/04/23 14:14:20.9    -243    -25   -134    245    279 263.9 -35.7  34268  291.39 0854.50
2009/04/23 14:14:21.0    -223   -144    -84    266    278 237.1 -22.8  34284  291.68 0854.50
2009/04/23 14:14:21.1    -142   -111    -29    181    184 231.8  -9.3  34282  291.64 0854.50
2009/04/23 14:14:21.2     -87    -75    -19    116    118 229.1  -9.4  34286  291.72 0854.50
2009/04/23 14:14:21.3    -175    -55     11    184    185 252.3   3.6  34282  291.64 0854.50
2009/04/23 14:14:21.4    -172    -93     23    196    198 241.6   6.9  34296  291.89 0854.50
2009/04/23 14:14:21.5    -136    -27     57    139    150 258.6  23.1  34280  291.60 0854.50
2009/04/23 14:14:21.6     -37    -17    -15     41     43 244.7 -24.4  34278  291.57 0854.50
2009/04/23 14:14:21.7      22    -52    -33     57     65 157.3 -37.9  34272  291.49 0854.50
2009/04/23 14:14:21.8      71    -38    -21     81     84 118.0 -14.5  34244  291.01 0854.50
2009/04/23 14:14:21.9     -61    -39     49     73     87 237.6  37.0  34278  291.59 0854.50
2009/04/23 14:14:22.0     -71    -84     72    111    132 220.1  35.6  34296  291.89 0854.50
2009/04/23 14:14:22.1     -47   -166     15    173    174 195.8   5.2  34274  291.50 0854.50
2009/04/23 14:14:22.2    -111   -201     41    230    234 208.9  10.3  34264  291.34 0854.50
2009/04/23 14:14:22.3     -84   -207     79    224    238 202.1  19.4  34256  291.19 0854.50
2009/04/23 14:14:22.4    -102   -177     10    205    206 209.9   2.8  34276  291.54 0854.50
2009/04/23 14:14:22.5     -54   -148     46    158    165 200.3  16.3  34244  290.99 0854.50
2009/04/23 14:14:22.6     -69   -192     38    205    209 200.0  10.6  34258  291.23 0854.50
2009/04/23 14:14:22.7     -76   -191     71    206    219 201.8  19.2  34268  291.40 0854.50
2009/04/23 14:14:22.8     -49   -173     51    181    189 196.0  15.8  34272  291.49 0854.50
2009/04/23 14:14:22.9    -142   -177     -8    228    229 218.7  -2.2  34266  291.38 0854.50
2009/04/23 14:14:23.0    -185   -147      2    237    238 231.6   0.5  34266  291.36 0854.50
2009/04/23 14:14:23.1    -134   -204     -7    245    246 213.4  -1.8  34270  291.43 0854.50
2009/04/23 14:14:23.2    -133   -170    -70    217    228 218.1 -23.3  34262  291.32 0854.50
2009/04/23 14:14:23.3    -103   -104    -54    147    156 224.9 -25.3  34268  291.40 0854.50
2009/04/23 14:14:23.4     -85   -163    -52    184    192 207.6 -15.8  34260  291.28 0854.50
2009/04/23 14:14:23.5    -191   -200    -18    277    278 223.7  -3.7  34274  291.51 0854.50
2009/04/23 14:14:23.6    -145   -155    -42    213    218 223.0 -11.3  34274  291.50 0854.50
2009/04/23 14:14:23.7    -200    -35    -89    204    222 259.9 -29.5  34290  291.79 0854.50
2009/04/23 14:14:23.8    -153      0   -137    154    206 270.0 -50.6  34294  291.84 0854.50
2009/04/23 14:14:23.9    -147     82    -70    169    182 299.3 -27.8  34290  291.79 0854.51
2009/04/23 14:14:24.0     -81    149   -119    170    207 331.5 -42.8  34298  291.93 0854.51
2009/04/23 14:14:24.1    -112    120   -188    165    250 316.8 -58.7  34296  291.88 0854.51
2009/04/23 14:14:24.2      -9    201   -173    202    265 357.3 -49.2  34286  291.72 0854.51
2009/04/23 14:14:24.3     -77    114   -130    138    189 325.7 -52.6  34276  291.55 0854.51
2009/04/23 14:14:24.4     -19     96    -64     99    117 348.4 -40.0  34274  291.52 0854.51
2009/04/23 14:14:24.5      52     25    -32     58     66  63.8 -35.8  34268  291.42 0854.51
2009/04/23 14:14:24.6      66    -39     41     77     87 120.7  30.3  34268  291.40 0854.51
2009/04/23 14:14:24.7      43   -132     64    140    153 161.7  27.1  34278  291.59 0854.51
2009/04/23 14:14:24.8     -49   -225     45    231    236 192.3  11.1  34276  291.53 0854.51
2009/04/23 14:14:24.9    -125   -173    103    214    237 216.0  27.3  34262  291.32 0854.52
2009/04/23 14:14:25.0     -99   -195     73    219    231 207.1  18.5  34280  291.60 0854.52
2009/04/23 14:14:25.1     -45   -203     37    208    212 192.5  10.1  34272  291.49 0854.52
2009/04/23 14:14:25.2     -88   -228     49    245    250 201.2  11.4  34284  291.68 0854.52
2009/04/23 14:14:25.3     -99   -251     79    270    282 201.6  16.4  34280  291.60 0854.52
2009/04/23 14:14:25.4     -50   -277    132    282    311 190.2  27.1  34266  291.38 0854.52
2009/04/23 14:14:25.5     -97   -323    117    338    358 196.7  19.2  34268  291.42 0854.52
2009/04/23 14:14:25.6     -89   -321    107    334    351 195.6  17.8  34268  291.42 0854.52
2009/04/23 14:14:25.7     -48   -310    103    314    331 188.9  18.2  34262  291.29 0854.52
2009/04/23 14:14:25.8     -61   -306     79    313    324 191.3  14.3  34260  291.27 0854.52
2009/04/23 14:14:25.9     -31   -217     73    220    232 188.1  18.5  34256  291.20 0854.52
2009/04/23 14:14:26.0       5   -291     30    292    294 179.0   6.0  34246  291.04 0854.52
2009/04/23 14:14:26.1      66   -457    -10    462    463 171.7  -1.3  34250  291.11 0854.52
2009/04/23 14:14:26.2       0   -317     30    318    320 180.0   5.5  34248  291.07 0854.52
2009/04/23 14:14:26.3      49   -234     -9    240    241 168.2  -2.2  34250  291.10 0854.52
2009/04/23 14:14:26.4      81   -203     46    219    224 158.1  12.0  34256  291.20 0854.52
2009/04/23 14:14:26.5     117   -305     46    327    331 159.0   8.1  34252  291.15 0854.52
2009/04/23 14:14:26.6     203   -295    214    359    417 145.4  33.6  34256  291.20 0854.52
2009/04/23 14:14:26.7     126   -232    260    265    371 151.5  49.8  34252  291.13 0854.52
2009/04/23 14:14:26.8     -42   -140    162    147    218 196.9  53.0  34270  291.45 0854.52
2009/04/23 14:14:26.9       4   -168    227    169    283 178.4  59.6  34278  291.56 0854.52
2009/04/23 14:14:27.0     -19   -233    248    234    340 184.9  52.0  34272  291.46 0854.52
2009/04/23 14:14:27.1    -294   -252    368    388    534 229.3  48.4  34266  291.37 0854.52
2009/04/23 14:14:27.2    -327   -254    273    415    496 232.2  36.5  34266  291.37 0854.52
2009/04/23 14:14:27.3    -181   -241    152    302    338 216.9  28.7  34276  291.55 0854.52
2009/04/23 14:14:27.4     -33   -105    196    111    225 197.8  68.5  34280  291.60 0854.52
2009/04/23 14:14:27.5    -148   -269    108    308    326 208.9  20.0  34274  291.50 0854.52
2009/04/23 14:14:27.6    -251   -410    263    481    548 211.5  31.0  34276  291.54 0854.52
2009/04/23 14:14:27.7    -335   -536    189    633    661 212.0  16.6  34284  291.69 0854.52
2009/04/23 14:14:27.8    -252   -574     60    628    631 203.7   5.5  34290  291.79 0854.52
2009/04/23 14:14:27.9    -309   -581     70    659    663 208.0   6.1  34278  291.58 0854.52
2009/04/23 14:14:28.0    -447   -550     12    709    710 219.1   1.0  34288  291.75 0854.52
2009/04/23 14:14:28.1    -491   -447     14    664    665 227.7   1.2  34288  291.74 0854.52
2009/04/23 14:14:28.2    -647   -315     21    720    721 244.0   1.7  34294  291.85 0854.52
2009/04/23 14:14:28.3    -662   -423     16    787    788 237.4   1.2  34282  291.63 0854.52
2009/04/23 14:14:28.4    -708   -362    103    796    803 242.9   7.4  34284  291.68 0854.52
2009/04/23 14:14:28.5    -603   -290     19    670    671 244.3   1.7  34264  291.33 0854.52
2009/04/23 14:14:28.6    -583   -113   -128    594    608 259.0 -12.2  34262  291.29 0854.52
2009/04/23 14:14:28.7    -383     49   -139    387    411 277.4 -25.0  34278  291.58 0854.52
2009/04/23 14:14:28.8    -447    174   -274    480    552 291.3 -36.7  34232  290.80 0854.52
2009/04/23 14:14:28.9    -374   -372     39    528    530 225.2   4.2  34270  291.43 0854.53
2009/04/23 14:14:29.0    -189   -414    111    456    470 204.6  13.7  34262  291.30 0854.53
2009/04/23 14:14:29.1    -257   -455     84    523    530 209.5   9.2  34262  291.30 0854.53
2009/04/23 14:14:29.2    -242   -422     26    487    488 209.9   3.1  34268  291.39 0854.53
2009/04/23 14:14:29.3    -292   -597    -78    665    670 206.1  -6.7  34256  291.19 0854.53
2009/04/23 14:14:29.4    -163   -505     -8    531    532 197.9  -0.9  34250  291.09 0854.53
2009/04/23 14:14:29.5    -225   -501    -43    550    552 204.2  -4.5  34244  290.99 0854.53
2009/04/23 14:14:29.6     -37   -591    -53    593    596 183.6  -5.2  34244  291.00 0854.53
2009/04/23 14:14:29.7     -84   -413     43    422    425 191.6   5.9  34250  291.09 0854.53
2009/04/23 14:14:29.8     -60   -641    202    645    677 185.4  17.4  34254  291.17 0854.53
2009/04/23 14:14:29.9    -243   -684     28    727    728 199.6   2.2  34252  291.12 0854.53
2009/04/23 14:14:30.0     142   -810   -118    823    832 170.0  -8.2  34246  291.03 0854.53
2009/04/23 14:14:30.1     188   -671   -102    697    705 164.3  -8.4  34242  290.95 0854.53
2009/04/23 14:14:30.2     224   -588     71    630    635 159.1   6.5  34248  291.08 0854.53
2009/04/23 14:14:30.3      37   -403    224    405    462 174.7  31.4  34260  291.26 0854.53
2009/04/23 14:14:30.4      44   -255    329    259    418 170.2  57.8  34248  291.06 0854.53
2009/04/23 14:14:30.5     211   -536    280    577    641 158.5  27.8  34234  290.82 0854.53
2009/04/23 14:14:30.6     218   -416    322    470    569 152.3  37.7  34244  290.99 0854.53
2009/04/23 14:14:30.7      43   -570    253    572    625 175.7  25.3  34240  290.92 0854.53
2009/04/23 14:14:30.8     119   -436    164    453    482 164.7  19.9  34226  290.68 0854.53
2009/04/23 14:14:30.9     112   -278    168    300    343 158.1  31.6  34234  290.83 0854.54
2009/04/23 14:14:31.0     123   -186    105    224    247 146.4  27.0  34234  290.82 0854.54
2009/04/23 14:14:31.1      21   -312     86    313    325 176.0  15.4  34232  290.78 0854.54
2009/04/23 14:14:31.2     -88   -266     54    281    287 198.5  11.0  34234  290.82 0854.54
2009/04/23 14:14:31.3    -144   -261    115    299    320 208.9  22.0  34218  290.56 0854.54
2009/04/23 14:14:31.4    -249   -291    146    384    410 220.5  21.8  34226  290.69 0854.54
2009/04/23 14:14:31.5    -275   -125     15    303    304 245.6   2.9  34246  291.04 0854.54
2009/04/23 14:14:31.6    -248   -196     86    317    329 231.6  15.3  34232  290.78 0854.54
2009/04/23 14:14:31.7    -370   -246     87    445    454 236.4  11.1  34238  290.90 0854.54
2009/04/23 14:14:31.8    -384     17    140    385    409 272.6  20.9  34254  291.18 0854.54
2009/04/23 14:14:31.9    -381    -28    206    382    434 265.7  30.7  34258  291.24 0854.54
2009/04/23 14:14:32.0    -476    -75     84    482    490 261.0   9.9  34268  291.41 0854.54
2009/04/23 14:14:32.1    -434   -113    -71    449    455 255.3  -9.0  34270  291.45 0854.54
2009/04/23 14:14:32.2    -282   -265    -49    388    392 226.8  -7.3  34272  291.47 0854.54
2009/04/23 14:14:32.3    -328   -340    293    473    556 223.9  34.8  34290  291.77 0854.54
2009/04/23 14:14:32.4    -174   -299    308    346    463 210.2  46.2  34280  291.62 0854.54
2009/04/23 14:14:32.5     -61   -412    326    417    529 188.5  41.9  34282  291.63 0854.54
2009/04/23 14:14:32.6    -172   -438    398    471    616 201.5  44.3  34286  291.72 0854.54
2009/04/23 14:14:32.7    -337   -348    306    485    573 224.1  35.3  34290  291.79 0854.54
2009/04/23 14:14:32.8    -215    110    304    242    388 297.1  57.5  34264  291.35 0854.54
2009/04/23 14:14:32.9    -131    403    243    424    488 342.0  32.4  34250  291.10 0854.56
2009/04/23 14:14:33.0     -77    373    331    381    504 348.3  45.4  34230  290.76 0854.56
2009/04/23 14:14:33.1      33    298    245    300    387   6.5  43.6  34206  290.35 0854.56
2009/04/23 14:14:33.2    -181    304    172    354    393 329.3  27.9  34230  290.77 0854.56
2009/04/23 14:14:33.3    -487     25    307    488    576 273.0  35.3  34232  290.80 0854.56
2009/04/23 14:14:33.4    -390   -280    255    481    544 234.3  30.2  34246  291.03 0854.56
2009/04/23 14:14:33.5    -173   -460    409    492    639 200.7  44.0  34248  291.07 0854.56
2009/04/23 14:14:33.6     -40    -84    195     94    216 205.3  72.8  34260  291.28 0854.56
2009/04/23 14:14:33.7     103    -80    223    131    258 127.8  67.0  34248  291.08 0854.56
2009/04/23 14:14:33.8       0   -246    230    247    337 180.2  47.9  34240  290.93 0854.56
2009/04/23 14:14:33.9      42   -423    303    426    522 174.3  39.0  34238  290.91 0854.56
2009/04/23 14:14:34.0     -11   -358    364    359    511 181.9  50.4  34252  291.15 0854.56
2009/04/23 14:14:34.1      48   -193    231    199    304 166.0  55.0  34262  291.29 0854.56
2009/04/23 14:14:34.2     189   -658    306    685    750 164.0  25.7  34254  291.17 0854.56
2009/04/23 14:14:34.3      80   -655    275    660    715 173.0  24.1  34244  291.00 0854.56
2009/04/23 14:14:34.4    -296   -566    115    639    650 207.6  10.2  34254  291.16 0854.56
2009/04/23 14:14:34.5    -145   -777    248    791    830 190.6  17.4  34248  291.06 0854.56
2009/04/23 14:14:34.6    -305   -694     34    759    760 203.7   2.6  34256  291.19 0854.56
2009/04/23 14:14:34.7    -171   -814    142    832    844 191.9   9.7  34250  291.09 0854.56
2009/04/23 14:14:34.8    -309   -759    -28    820    821 202.2  -2.0  34236  290.87 0854.56
2009/04/23 14:14:34.9    -290   -815    -39    866    867 199.6  -2.6  34222  290.63 0854.52
2009/04/23 14:14:35.0     -26  -1019    181   1020   1037 181.5  10.1  34260  291.27 0854.52
2009/04/23 14:14:35.1      91   -552    306    560    638 170.6  31.0  34220  290.58 0854.52
2009/04/23 14:14:35.2     -81   -852     54    857    859 185.5   3.6  34226  290.70 0854.52
2009/04/23 14:14:35.3    -134   -816   -104    828    835 189.4  -7.2  34252  291.15 0854.52
2009/04/23 14:14:35.4    -128   -751    488    762    904 189.7  35.6  34218  290.54 0854.52
2009/04/23 14:14:35.5    -136   -721    373    734    823 190.7  29.1  34242  290.97 0854.52
2009/04/23 14:14:35.6    -298   -569    383    643    748 207.7  33.5  34212  290.45 0854.52
2009/04/23 14:14:35.7    -279   -553     47    620    622 206.8   4.4  34248  291.05 0854.52
2009/04/23 14:14:35.8    -312   -527    117    613    625 210.7  10.8  34240  290.94 0854.52
2009/04/23 14:14:35.9    -280   -543    277    611    670 207.3  26.0  34232  290.81 0854.52
2009/04/23 14:14:36.0    -168   -520    264    547    607 197.9  27.4  34232  290.78 0854.52
2009/04/23 14:14:36.1    -342   -509    299    614    682 213.9  27.9  34218  290.56 0854.52
2009/04/23 14:14:36.2    -166   -494    426    522    673 198.6  43.4  34206  290.35 0854.52
2009/04/23 14:14:36.3    -180   -538    330    568    656 198.6  32.8  34210  290.42 0854.52
2009/04/23 14:14:36.4    -171   -513    234    541    589 198.5  25.0  34198  290.22 0854.52
2009/04/23 14:14:36.5    -224   -560    272    604    662 201.9  25.8  34210  290.42 0854.52
2009/04/23 14:14:36.6      12    -69    200     71    212 170.2  79.9  34242  290.96 0854.52
2009/04/23 14:14:36.7      85    -13     71     86    111  98.8  43.7  34248  291.08 0854.52
2009/04/23 14:14:36.8      59   -125     -4    139    140 154.5  -1.8  34238  290.91 0854.52
2009/04/23 14:14:36.9    -232   -101    187    254    315 246.5  40.0  34244  290.99 0854.51
2009/04/23 14:14:37.0    -159    -71    230    175    289 246.0  59.0  34256  291.21 0854.51
2009/04/23 14:14:37.1     -67    -27     77     73    106 248.2  51.6  34256  291.20 0854.51
2009/04/23 14:14:37.2     -35     55    -20     66     68 327.5 -22.8  34242  290.96 0854.51
2009/04/23 14:14:37.3    -129   -199    175    238    295 213.0  39.7  34238  290.90 0854.51
2009/04/23 14:14:37.4    -326   -188   -123    377    397 240.1 -18.2  34238  290.88 0854.51
2009/04/23 14:14:37.5    -303   -144    -43    336    339 244.6  -7.3  34232  290.81 0854.51
2009/04/23 14:14:37.6    -205   -247   -140    322    351 219.6 -29.5  34228  290.72 0854.51
2009/04/23 14:14:37.7     -62   -242     73    250    261 194.5  16.3  34232  290.80 0854.51
2009/04/23 14:14:37.8     -73   -303     79    312    323 193.6  14.3  34230  290.75 0854.51
2009/04/23 14:14:37.9    -105   -389     46    404    407 195.2   6.6  34214  290.48 0854.51
2009/04/23 14:14:38.0     -98   -343    145    357    385 196.1  23.2  34216  290.52 0854.51
2009/04/23 14:14:38.1     -77   -356     80    365    374 192.3  12.4  34214  290.50 0854.51
2009/04/23 14:14:38.2    -213   -176     63    277    285 230.5  12.9  34228  290.73 0854.51
2009/04/23 14:14:38.3     -82   -243     85    257    271 198.7  18.4  34220  290.58 0854.51
2009/04/23 14:14:38.4    -132   -223    -69    260    270 210.7 -15.0  34230  290.76 0854.51
2009/04/23 14:14:38.5     223   -224      3    317    318 135.2   0.7  34216  290.51 0854.51
2009/04/23 14:14:38.6      58   -276     51    283    288 168.0  10.3  34206  290.34 0854.51
2009/04/23 14:14:38.7     137   -190     83    235    250 144.2  19.4  34214  290.48 0854.51
2009/04/23 14:14:38.8      78   -397    372    405    549 168.8  47.3  34224  290.66 0854.51
2009/04/23 14:14:38.9      91   -467    292    476    558 168.9  34.4  34210  290.41 0854.44
2009/04/23 14:14:39.0     -23   -509    305    510    594 182.6  33.5  34214  290.50 0854.44
2009/04/23 14:14:39.1     105   -470     57    482    486 167.4   6.8  34212  290.44 0854.44
2009/04/23 14:14:39.2      45   -515    111    518    530 174.9  12.1  34212  290.46 0854.44
2009/04/23 14:14:39.3      -6   -401    172    402    437 181.0  24.6  34222  290.63 0854.44
2009/04/23 14:14:39.4    -182   -480     47    514    517 200.8   5.3  34272  291.49 0854.44
2009/04/23 14:14:39.5     -28   -339     10    341    342 184.9   1.8  34230  290.76 0854.44
2009/04/23 14:14:39.6      81   -392     62    401    406 168.2   8.8  34216  290.51 0854.44
2009/04/23 14:14:39.7     105   -552    239    562    610 169.2  24.5  34238  290.88 0854.44
2009/04/23 14:14:39.8      36   -434    187    436    474 175.1  24.6  34234  290.82 0854.44
2009/04/23 14:14:39.9     178   -397    247    436    501 155.8  32.0  34208  290.40 0854.44
2009/04/23 14:14:40.0     172   -467    383    498    628 159.7  41.4  34230  290.75 0854.44
2009/04/23 14:14:40.1    -154   -628    391    647    755 193.8  34.0  34262  291.30 0854.44
2009/04/23 14:14:40.2    -147   -462    386    485    619 197.7  42.7  34270  291.43 0854.44
2009/04/23 14:14:40.3    -303   -517    127    600    614 210.4  12.0  34272  291.46 0854.44
2009/04/23 14:14:40.4    -395   -360    189    535    567 227.7  20.2  34284  291.69 0854.44
2009/04/23 14:14:40.5    -154   -456    233    482    535 198.7  27.7  34248  291.08 0854.44
2009/04/23 14:14:40.6     -27   -601    193    602    633 182.6  17.8  34222  290.62 0854.44
2009/04/23 14:14:40.7     114   -561    269    573    633 168.5  27.0  34220  290.59 0854.44
2009/04/23 14:14:40.8     -33   -427    329    429    540 184.5  41.4  34242  290.95 0854.44
2009/04/23 14:14:40.9    -118   -383    338    401    524 197.2  44.3  34238  290.91 0854.44
2009/04/23 14:14:41.0    -144   -231    213    273    346 211.9  42.0  34256  291.19 0854.44
2009/04/23 14:14:41.1      59   -381    187    386    428 171.2  27.7  34232  290.78 0854.44
2009/04/23 14:14:41.2    -158   -241    305    289    420 213.4  52.0  34244  291.01 0854.44
2009/04/23 14:14:41.3     147   -149    337    210    397 135.5  65.3  34244  291.00 0854.44
2009/04/23 14:14:41.4    -128   -481    530    498    727 194.9  52.1  34226  290.70 0854.44
2009/04/23 14:14:41.5     -79   -414    447    422    614 190.8  52.1  34218  290.55 0854.44
2009/04/23 14:14:41.6    -392   -311    210    501    543 231.5  24.1  34248  291.06 0854.44
2009/04/23 14:14:41.7    -217   -262    370    341    503 219.6  52.7  34260  291.26 0854.44
2009/04/23 14:14:41.8    -107   -451    488    464    673 193.4  51.6  34230  290.76 0854.44
2009/04/23 14:14:41.9    -239   -227    385    330    507 226.4  55.3  34254  291.18 0854.44
2009/04/23 14:14:42.0      77   -201    204    216    297 159.1  48.0  34238  290.88 0854.44
2009/04/23 14:14:42.1    -158   -266    250    310    398 210.8  43.0  34226  290.69 0854.44
2009/04/23 14:14:42.2    -506   -321    128    600    614 237.6  12.1  34276  291.55 0854.44
2009/04/23 14:14:42.3    -474   -534    154    715    732 221.6  12.2  34210  290.42 0854.44
2009/04/23 14:14:42.4     -89   -383    316    394    505 193.2  42.9  34208  290.40 0854.44
2009/04/23 14:14:42.5      46   -268    298    273    404 170.2  53.0  34216  290.52 0854.44
2009/04/23 14:14:42.6      86   -334    314    346    467 165.5  47.0  34220  290.60 0854.44
2009/04/23 14:14:42.7      24   -302    245    304    390 175.3  43.0  34212  290.47 0854.44
2009/04/23 14:14:42.8     -79   -219    226    234    325 200.0  49.1  34212  290.46 0854.44
2009/04/23 14:14:42.9    -287   -226    209    366    421 231.8  32.3  34216  290.53 0854.49
2009/04/23 14:14:43.0    -173   -143    248    225    334 230.5  53.3  34218  290.54 0854.49
2009/04/23 14:14:43.1    -260    -20    225    261    344 265.4  45.1  34222  290.61 0854.49
2009/04/23 14:14:43.2    -243    -18    243    244    344 265.7  50.1  34236  290.85 0854.49
2009/04/23 14:14:43.3    -196   -158     68    252    262 231.1  15.2  34218  290.54 0854.49
2009/04/23 14:14:43.4    -120     82    -83    146    167 304.6 -36.5  34214  290.50 0854.49
2009/04/23 14:14:43.5    -594    -71     59    599    602 263.1   5.7  34210  290.42 0854.49
2009/04/23 14:14:43.6    -677   -166   -192    698    725 256.2 -15.4  34208  290.39 0854.49
2009/04/23 14:14:43.7    -673     14   -236    674    715 271.3 -19.3  34200  290.25 0854.49
2009/04/23 14:14:43.8    -647     -8   -184    648    674 269.3 -15.9  34188  290.05 0854.49
2009/04/23 14:14:43.9    -521   -135   -192    539    572 255.5 -24.8  34188  290.04 0854.49
2009/04/23 14:14:44.0    -403     -6   -187    404    445 269.1 -31.0  34196  290.17 0854.49
2009/04/23 14:14:44.1    -237   -196    -22    308    309 230.4  -4.1  34220  290.58 0854.49
2009/04/23 14:14:44.2    -717   -455   -270    850    891 237.6 -22.8  34198  290.22 0854.49
2009/04/23 14:14:44.3    -415   -247   -218    483    529 239.3 -30.3  34212  290.44 0854.49
2009/04/23 14:14:44.4    -476   -304   -180    566    593 237.4 -22.8  34224  290.66 0854.49
2009/04/23 14:14:44.5    -630   -141    -13    646    647 257.3  -1.2  34230  290.77 0854.49
2009/04/23 14:14:44.6    -502    273     66    572    576 298.5   6.6  34222  290.64 0854.49
2009/04/23 14:14:44.7    -358    326    132    485    503 312.3  15.3  34228  290.73 0854.49
2009/04/23 14:14:44.8     -96    284     25    300    302 341.3   4.9  34226  290.68 0854.49
2009/04/23 14:14:44.9     112    129    181    172    249  41.0  51.4  34202  290.30 0854.50
2009/04/23 14:14:45.0     136    -14    271    137    303  96.1  71.1  34228  290.71 0854.50
2009/04/23 14:14:45.1     248     40    295    252    387  80.8  55.5  34224  290.66 0854.50
2009/04/23 14:14:45.2     310   -128    210    336    396 112.4  35.0  34210  290.43 0854.50
2009/04/23 14:14:45.3      -7   -461    214    462    509 180.9  26.6  34222  290.61 0854.50
2009/04/23 14:14:45.4     -36   -361    278    363    457 185.8  41.4  34220  290.58 0854.50
2009/04/23 14:14:45.5     116   -296    243    318    400 158.6  41.3  34220  290.59 0854.50
2009/04/23 14:14:45.6     116   -493    139    507    526 166.7  15.4  34212  290.45 0854.50
2009/04/23 14:14:45.7      42   -553    118    555    568 175.6  12.0  34214  290.48 0854.50
2009/04/23 14:14:45.8     102   -592    317    601    679 170.2  30.0  34210  290.43 0854.50
2009/04/23 14:14:45.9      30   -707    344    708    787 177.5  27.9  34210  290.43 0854.47
2009/04/23 14:14:46.0    -313   -651    284    723    776 205.7  22.7  34218  290.55 0854.47
2009/04/23 14:14:46.1    -147   -551    211    571    608 195.0  21.3  34230  290.76 0854.47
2009/04/23 14:14:46.2    -333   -540    251    635    682 211.7  22.9  34228  290.72 0854.47
2009/04/23 14:14:46.3    -232   -677    281    716    769 199.0  22.7  34238  290.91 0854.47
2009/04/23 14:14:46.4    -309   -679     75    747    751 204.5   5.8  34222  290.63 0854.47
2009/04/23 14:14:46.5    -203   -404    204    453    496 206.7  25.9  34210  290.42 0854.47
2009/04/23 14:14:46.6     -99   -377    199    390    437 194.8  29.2  34220  290.58 0854.47
2009/04/23 14:14:46.7     -59   -426    354    430    556 187.9  43.7  34216  290.52 0854.47
2009/04/23 14:14:46.8     134   -384    221    407    463 160.7  31.0  34214  290.48 0854.47
2009/04/23 14:14:46.9       9   -547    107    548    559 179.0  11.1  34206  290.36 0854.47
2009/04/23 14:14:47.0      65   -605    237    609    653 173.8  22.4  34204  290.32 0854.47
2009/04/23 14:14:47.1     -53   -551    257    554    610 185.6  26.7  34204  290.32 0854.47
2009/04/23 14:14:47.2     -89   -516    174    524    553 189.8  18.4  34208  290.38 0854.47
2009/04/23 14:14:47.3     -96   -663    -57    670    673 188.3  -4.9  34208  290.38 0854.47
2009/04/23 14:14:47.4    -285   -594    -58    659    662 205.7  -5.1  34218  290.55 0854.47
2009/04/23 14:14:47.5    -310   -658   -112    728    737 205.2  -8.8  34194  290.16 0854.47
2009/04/23 14:14:47.6    -548   -554   -300    780    835 224.7 -26.5  34188  290.04 0854.47
2009/04/23 14:14:47.8    -554   -587   -306    808    864 223.3 -26.2  34200  290.26 0854.47
2009/04/23 14:14:47.8    -517   -312   -286    605    669 238.9 -31.5  34204  290.32 0854.47
2009/04/23 14:14:47.9    -486   -196   -151    525    547 248.0 -16.1  34206  290.35 0854.46
2009/04/23 14:14:48.0    -339   -197   -173    393    429 239.9 -29.6  34212  290.44 0854.46
2009/04/23 14:14:48.1    -310   -386   -137    496    514 218.8 -20.2  34228  290.73 0854.46
2009/04/23 14:14:48.2    -126   -237    -54    269    275 208.0 -11.3  34234  290.83 0854.46
2009/04/23 14:14:48.4     -84   -137   -101    162    190 211.6 -39.6  34240  290.92 0854.46
2009/04/23 14:14:48.5    -112    -26     -7    116    117 256.7  -3.7  34232  290.79 0854.46
2009/04/23 14:14:48.6     -73   -108    230    131    264 214.3  68.1  34262  291.30 0854.46
2009/04/23 14:14:48.7      40   -122     75    129    149 161.7  33.4  34248  291.08 0854.46
2009/04/23 14:14:48.8     -84   -261      8    275    276 197.9   1.8  34236  290.87 0854.46
2009/04/23 14:14:48.9    -220   -426     19    480    481 207.4   2.3  34224  290.66 0854.46
2009/04/23 14:14:49.0    -293   -402     40    498    500 216.1   4.7  34216  290.51 0854.46
2009/04/23 14:14:49.1    -262   -411    -95    488    498 212.5 -11.1  34216  290.52 0854.46
2009/04/23 14:14:49.2    -241   -403    161    470    497 210.9  18.9  34218  290.54 0854.46
2009/04/23 14:14:49.3    -220   -445    178    497    527 206.3  20.4  34216  290.52 0854.46
2009/04/23 14:14:49.4    -390   -518    243    649    693 217.0  21.6  34228  290.72 0854.46
2009/04/23 14:14:49.5    -518   -501   -170    721    741 226.0 -13.3  34220  290.60 0854.46
2009/04/23 14:14:49.6    -339   -532     33    632    633 212.5   3.0  34228  290.71 0854.46
2009/04/23 14:14:49.7    -392   -466     24    610    611 220.1   2.3  34238  290.88 0854.46
2009/04/23 14:14:49.8    -218   -437    -74    489    495 206.5  -8.7  34226  290.68 0854.46
2009/04/23 14:14:49.9    -347   -246    -30    426    428 234.6  -4.1  34244  291.01 0854.46
2009/04/23 14:14:50.0    -316   -270     88    416    426 229.5  12.0  34232  290.78 0854.47
2009/04/23 14:14:50.1    -330   -159    133    367    391 244.3  19.9  34228  290.74 0854.47
2009/04/23 14:14:50.2    -306   -312    128    438    457 224.4  16.3  34236  290.87 0854.47
2009/04/23 14:14:50.3     -45   -413      5    416    417 186.2   0.8  34226  290.68 0854.47
2009/04/23 14:14:50.4     -99   -304     73    320    329 198.0  12.9  34222  290.61 0854.47
2009/04/23 14:14:50.5    -190   -364    230    411    470 207.6  31.7  34214  290.50 0854.47
2009/04/23 14:14:50.6    -104   -475    268    487    555 192.4  31.3  34214  290.50 0854.47
2009/04/23 14:14:50.7    -134   -505    332    523    619 194.9  35.5  34224  290.66 0854.47
2009/04/23 14:14:50.8    -177   -754    182    775    797 193.3  13.2  34218  290.56 0854.47
2009/04/23 14:14:50.9    -158   -735     24    752    753 192.2   1.9  34206  290.35 0854.47
2009/04/23 14:14:51.0    -142   -719    -12    734    735 191.2  -1.0  34216  290.52 0854.47
2009/04/23 14:14:51.1    -353   -925    107    991    997 200.9   6.2  34206  290.36 0854.47
2009/04/23 14:14:51.2    -209  -1045     70   1066   1069 191.3   3.8  34238  290.91 0854.47
2009/04/23 14:14:51.3     -71  -1025   -148   1028   1039 184.0  -8.2  34216  290.52 0854.47
2009/04/23 14:14:51.4    -151  -1075     -4   1086   1087 188.0  -0.2  34222  290.62 0854.47
2009/04/23 14:14:51.5    -157  -1053     27   1065   1066 188.5   1.5  34226  290.69 0854.47
2009/04/23 14:14:51.6     -35   -965    153    966    979 182.1   9.0  34224  290.67 0854.47
2009/04/23 14:14:51.7     177   -957    187    974    992 169.5  10.9  34216  290.53 0854.47
2009/04/23 14:14:51.8     279   -947    204    988   1010 163.6  11.7  34216  290.51 0854.47
2009/04/23 14:14:51.9     523   -755    198    919    941 145.3  12.2  34222  290.64 0854.47
2009/04/23 14:14:52.0     179   -723    203    745    773 166.1  15.3  34216  290.53 0854.48
2009/04/23 14:14:52.1     215   -903    200    929    951 166.6  12.2  34222  290.64 0854.48
2009/04/23 14:14:52.2     133   -749    278    761    810 169.9  21.0  34196  290.17 0854.48
2009/04/23 14:14:52.3     228   -644    252    684    728 160.5  21.1  34210  290.42 0854.48
2009/04/23 14:14:52.4     372   -571    240    682    722 146.9  20.2  34206  290.35 0854.48
2009/04/23 14:14:52.5     157   -494    521    519    735 162.3  50.1  34210  290.41 0854.48
2009/04/23 14:14:52.6       0   -483    507    484    700 179.9  51.5  34218  290.57 0854.48
2009/04/23 14:14:52.7      82   -233    397    248    468 160.6  65.1  34212  290.44 0854.48
2009/04/23 14:14:52.8     102   -123    387    160    418 140.3  76.6  34210  290.43 0854.48
2009/04/23 14:14:52.9     -43   -425    604    428    740 185.8  61.4  34214  290.48 0854.48
2009/04/23 14:14:53.0     -11   -560    634    561    846 181.2  54.2  34214  290.50 0854.48
2009/04/23 14:14:53.1     -91   -675    588    682    900 187.7  45.2  34232  290.81 0854.48
2009/04/23 14:14:53.2    -216   -754    444    785    901 196.0  32.0  34240  290.92 0854.48
2009/04/23 14:14:53.3    -151   -584    550    604    816 194.5  47.0  34210  290.43 0854.48
2009/04/23 14:14:53.4      23   -780    402    781    878 178.3  29.3  34192  290.10 0854.48
2009/04/23 14:14:53.5     -78   -662    446    667    802 186.8  37.0  34214  290.50 0854.48
2009/04/23 14:14:53.6     104   -711    358    719    803 171.7  28.5  34212  290.46 0854.48
2009/04/23 14:14:53.7     100   -507    260    517    578 168.8  28.7  34210  290.43 0854.48
2009/04/23 14:14:53.8     102   -483    245    494    551 168.0  28.2  34214  290.48 0854.48
2009/04/23 14:14:53.9     109   -593    177    604    630 169.5  16.4  34222  290.62 0854.48
2009/04/23 14:14:54.0     227   -735    291    770    823 162.8  21.7  34198  290.21 0854.50
2009/04/23 14:14:54.1     289   -701    357    759    838 157.6  27.1  34194  290.16 0854.50
2009/04/23 14:14:54.2     330   -530    219    625    663 148.1  19.3  34218  290.55 0854.50
2009/04/23 14:14:54.3     392   -552    129    678    691 144.6  10.8  34206  290.36 0854.50
2009/04/23 14:14:54.4     347   -594    223    689    725 149.7  17.9  34190  290.08 0854.50
2009/04/23 14:14:54.5     309   -657    263    727    774 154.8  19.9  34190  290.07 0854.50
2009/04/23 14:14:54.6     112   -523    125    535    550 167.9  13.2  34194  290.16 0854.50
2009/04/23 14:14:54.7     248   -476    222    537    581 152.5  23.7  34198  290.21 0854.50
2009/04/23 14:14:54.8     287   -602    182    667    692 154.5  15.3  34196  290.19 0854.50
2009/04/23 14:14:54.9     228   -503    197    553    587 155.6  20.4  34196  290.17 0854.50
2009/04/23 14:14:55.0     138   -512    260    531    591 164.9  28.1  34204  290.32 0854.50
2009/04/23 14:14:55.1      94   -606    197    614    645 171.1  17.8  34202  290.30 0854.50
2009/04/23 14:14:55.2     319   -342    -35    469    471 137.0  -4.4  34208  290.39 0854.50
2009/04/23 14:14:55.3     255   -347    -16    431    432 143.7  -2.2  34204  290.33 0854.50
2009/04/23 14:14:55.4     -37   -398     36    400    402 185.3   5.2  34202  290.30 0854.50
2009/04/23 14:14:55.5    -109   -568    163    579    602 190.9  15.8  34198  290.20 0854.50
2009/04/23 14:14:55.6    -129   -480    203    497    536 195.1  23.5  34210  290.41 0854.50
2009/04/23 14:14:55.7     -37   -487    151    489    512 184.4  17.2  34210  290.42 0854.50
2009/04/23 14:14:55.8      55   -396    190    401    443 172.0  27.1  34214  290.50 0854.50
2009/04/23 14:14:55.9       0   -378     73    379    387 179.9  11.0  34212  290.47 0854.50
2009/04/23 14:14:56.0      73   -329     99    338    353 167.4  16.3  34212  290.45 0854.48
2009/04/23 14:14:56.1     164   -242     57    293    299 145.9  11.0  34214  290.48 0854.48
2009/04/23 14:14:56.2      98   -191     19    215    216 152.8   5.2  34214  290.48 0854.48
2009/04/23 14:14:56.3      59   -148     -8    160    161 158.1  -3.1  34216  290.53 0854.48
2009/04/23 14:14:56.4      52   -177    -35    185    189 163.5 -10.9  34212  290.45 0854.48
2009/04/23 14:14:56.5     113   -177    -38    211    215 147.5 -10.3  34214  290.50 0854.48
2009/04/23 14:14:56.6      70   -212     10    224    225 161.7   2.8  34210  290.41 0854.48
2009/04/23 14:14:56.7       0   -204      6    205    206 180.2   1.8  34214  290.48 0854.48
2009/04/23 14:14:56.8     175   -225    126    286    312 142.2  25.2  34210  290.42 0854.48
2009/04/23 14:14:56.9      -4   -273    -70    274    283 180.9 -14.5  34218  290.56 0854.48
2009/04/23 14:14:57.0     109   -231    -51    256    262 154.8 -11.3  34218  290.56 0854.48
2009/04/23 14:14:57.1      97   -207     11    229    230 154.7   2.8  34220  290.60 0854.48
2009/04/23 14:14:57.2     109   -162    112    196    225 145.9  32.1  34222  290.62 0854.48
2009/04/23 14:14:57.3     159   -121     82    201    217 127.3  23.1  34216  290.53 0854.48
2009/04/23 14:14:57.4     128   -133    195    185    268 136.1  51.6  34224  290.66 0854.48
2009/04/23 14:14:57.5      35   -281     28    284    286 172.9   5.7  34220  290.59 0854.48
2009/04/23 14:14:57.6       8   -173    121    174    211 177.3  37.8  34222  290.64 0854.48
2009/04/23 14:14:57.7      33   -200    196    203    282 170.4  49.0  34224  290.65 0854.48
2009/04/23 14:14:57.8      19   -141    210    143    254 172.0  62.6  34226  290.70 0854.48
2009/04/23 14:14:57.9     -40   -213    301    217    371 190.7  60.7  34216  290.51 0854.48
2009/04/23 14:14:58.0     -72   -234    271    245    365 197.2  53.4  34214  290.50 0854.48
2009/04/23 14:14:58.1      44   -200    237    205    313 167.5  54.8  34234  290.82 0854.48
2009/04/23 14:14:58.2      43   -178     93    184    206 166.2  28.7  34232  290.81 0854.48
2009/04/23 14:14:58.3      88    -35    107     95    143 111.7  53.7  34248  291.08 0854.48
2009/04/23 14:14:58.4     -54      6     19     55     59 277.0  18.9  34252  291.15 0854.48
2009/04/23 14:14:58.5    -206     48     13    212    213 283.3   3.6  34234  290.82 0854.48
2009/04/23 14:14:58.6    -243      1    104    244    265 270.4  24.6  34208  290.39 0854.48
2009/04/23 14:14:58.7    -390    107    -77    405    413 285.4 -10.8  34216  290.53 0854.48
2009/04/23 14:14:58.8    -421     99   -105    433    446 283.3 -13.7  34190  290.07 0854.48
2009/04/23 14:14:58.9    -260    114     57    284    290 293.7  11.4  34212  290.46 0854.48
2009/04/23 14:14:59.0    -252    101     96    272    289 291.8  19.4  34228  290.73 0854.48
2009/04/23 14:14:59.1    -280   -132    103    310    327 244.8  18.5  34226  290.68 0854.48
2009/04/23 14:14:59.2    -279   -177     25    331    332 237.6   4.4  34220  290.59 0854.48
2009/04/23 14:14:59.3    -397    -87    144    407    431 257.6  20.3  34226  290.70 0854.48
2009/04/23 14:14:59.4    -362    -67    200    369    419 259.4  30.9  34228  290.72 0854.48
2009/04/23 14:14:59.5    -521    -53     21    524    525 264.1   2.4  34212  290.46 0854.48
2009/04/23 14:14:59.6    -384    212     13    439    440 298.9   1.7  34218  290.56 0854.48
2009/04/23 14:14:59.7    -528    127    -59    544    548 283.5  -6.3  34212  290.46 0854.48
2009/04/23 14:14:59.8    -599    108    -58    609    612 280.2  -5.5  34222  290.61 0854.48
2009/04/23 14:14:59.9    -482    143      1    503    504 286.5   0.2  34238  290.88 0854.48
2009/04/23 14:15:00.0    -336   -234    181    410    448 235.2  25.2  34224  290.67 0854.49
2009/04/23 14:15:00.1    -487     44    -40    490    492 275.2  -4.7  34202  290.30 0854.49
2009/04/23 14:15:00.2    -308   -146      4    341    342 244.6   0.7  34228  290.72 0854.49
2009/04/23 14:15:00.3    -300    -98    -15    316    317 251.8  -2.8  34240  290.93 0854.49
2009/04/23 14:15:00.4    -513   -193    139    549    567 249.3  14.3  34236  290.87 0854.49
2009/04/23 14:15:00.5    -294    -26     59    296    302 264.8  11.4  34240  290.92 0854.49
2009/04/23 14:15:00.6    -298    -87     -2    311    312 253.6  -0.5  34250  291.10 0854.49
2009/04/23 14:15:00.7    -505   -184    -21    538    539 250.0  -2.2  34248  291.08 0854.49
2009/04/23 14:15:00.8    -256   -147   -100    296    313 240.2 -18.7  34248  291.07 0854.49
2009/04/23 14:15:00.9    -163   -154   -120    225    255 226.8 -34.7  34236  290.87 0854.49
2009/04/23 14:15:01.0    -283   -360    -92    459    469 218.2 -11.3  34232  290.78 0854.49
2009/04/23 14:15:01.1    -371   -264   -116    456    471 234.5 -14.3  34214  290.49 0854.49
2009/04/23 14:15:01.2    -228   -136   -158    266    309 239.3 -37.9  34210  290.41 0854.49
2009/04/23 14:15:01.3    -311   -268   -136    411    433 229.2 -18.3  34200  290.24 0854.49
2009/04/23 14:15:01.4    -278   -142   -137    313    341 243.0 -29.6  34208  290.38 0854.49
2009/04/23 14:15:01.5    -276   -112   -151    299    334 247.8 -33.1  34220  290.58 0854.49
2009/04/23 14:15:01.6    -309    -52   -145    314    345 260.3 -31.0  34206  290.35 0854.49
2009/04/23 14:15:01.7    -317   -118   -138    339    366 249.5 -27.8  34254  291.18 0854.49
2009/04/23 14:15:01.8    -286    -31      6    288    289 263.8   1.2  34250  291.09 0854.49
2009/04/23 14:15:01.9    -275    -69   -104    284    302 255.9 -25.4  34246  291.02 0854.49
2009/04/23 14:15:02.0    -290    -36    -41    293    296 262.9  -8.0  34250  291.10 0854.49
2009/04/23 14:15:02.1    -297    -80    -27    308    310 254.9  -5.1  34244  290.99 0854.49
2009/04/23 14:15:02.2    -229    -32    -16    232    233 262.0  -4.1  34246  291.04 0854.49
2009/04/23 14:15:02.3    -184    -15    -64    185    195 265.2 -23.8  34252  291.13 0854.49
2009/04/23 14:15:02.4    -154    -16    -86    155    177 263.9 -35.8  34254  291.18 0854.49
2009/04/23 14:15:02.5    -276     18   -161    277    320 273.7 -37.3  34238  290.88 0854.49
2009/04/23 14:15:02.6    -242     18    -78    243    255 274.3 -22.9  34240  290.92 0854.49
2009/04/23 14:15:02.7    -187    -31     75    190    204 260.5  22.5  34254  291.16 0854.49
2009/04/23 14:15:02.8    -118    -84    189    145    238 234.5  58.7  34254  291.16 0854.49
2009/04/23 14:15:02.9     -87     18    211     89    229 281.9  75.9  34260  291.26 0854.49
2009/04/23 14:15:03.0     -33    -50    154     60    165 213.4  77.8  34266  291.38 0854.49
2009/04/23 14:15:03.1     -50   -106    139    118    182 205.5  55.4  34260  291.26 0854.49
2009/04/23 14:15:03.2      34    -58    101     68    121 149.3  62.7  34250  291.09 0854.49
2009/04/23 14:15:03.3     272    -86    151    286    323 107.7  30.0  34226  290.68 0854.49
2009/04/23 14:15:03.4     297    -89    240    311    392 106.8  41.6  34230  290.77 0854.49
2009/04/23 14:15:03.5     336    -66    106    343    360 101.1  17.2  34220  290.60 0854.49
2009/04/23 14:15:03.6     323    -50    252    328    413  98.9  41.5  34218  290.55 0854.49
2009/04/23 14:15:03.7     174    -35    257    178    312 101.5  62.1  34242  290.95 0854.49
2009/04/23 14:15:03.8       9     25    206     27    207  20.0  90.0  34244  290.99 0854.49
2009/04/23 14:15:03.9      -8   -114    201    115    231 184.5  67.5  34240  290.94 0854.49
2009/04/23 14:15:04.0     -32   -225    225    228    320 188.1  49.9  34224  290.66 0854.50
2009/04/23 14:15:04.1       9   -259    203    260    329 178.0  42.1  34230  290.75 0854.50
2009/04/23 14:15:04.2      29   -280    176    282    332 174.0  35.1  34230  290.76 0854.50
2009/04/23 14:15:04.3     131   -228     48    264    269 150.1  10.3  34230  290.75 0854.50
2009/04/23 14:15:04.4      47   -198    107    204    230 166.4  29.8  34232  290.81 0854.50
2009/04/23 14:15:04.5      41   -193     80    198    213 168.0  23.0  34224  290.67 0854.50
2009/04/23 14:15:04.6      -1   -168     73    169    184 180.5  24.9  34224  290.67 0854.50
2009/04/23 14:15:04.7      42   -186     48    191    198 167.1  14.3  34224  290.65 0854.50
2009/04/23 14:15:04.8      98   -183     74    208    220 151.9  20.2  34214  290.50 0854.50
2009/04/23 14:15:04.9      98   -264     96    282    299 159.5  18.9  34202  290.29 0854.50
2009/04/23 14:15:05.0     120   -254     94    281    297 154.7  18.6  34202  290.27 0854.50
2009/04/23 14:15:05.1      91   -218    164    237    288 157.3  37.8  34204  290.32 0854.50
2009/04/23 14:15:05.2     128   -156    148    203    251 140.6  39.7  34216  290.51 0854.50
2009/04/23 14:15:05.3      37   -137     44    142    149 164.8  17.4  34212  290.47 0854.50
2009/04/23 14:15:05.4     -32   -136      0    140    141 193.3   0.2  34218  290.57 0854.50
2009/04/23 14:15:05.5     -33   -100    -33    106    111 198.3 -22.3  34214  290.48 0854.50
2009/04/23 14:15:05.6     -58    -84     28    103    107 214.7  15.3  34222  290.62 0854.50
2009/04/23 14:15:05.7     -30    -45    -17     55     58 214.3 -17.6  34232  290.81 0854.50
2009/04/23 14:15:05.9      86     -9     59     87    105  96.6  37.0  34232  290.81 0854.50
2009/04/23 14:15:06.0     103     50     32    115    120  63.8  15.8  34226  290.69 0854.50
2009/04/23 14:15:06.0     159    -93    123    185    222 120.2  36.7  34218  290.55 0854.50
2009/04/23 14:15:06.1     173   -200    117    265    289 139.2  25.2  34210  290.42 0854.50
2009/04/23 14:15:06.2     106   -249    172    271    320 156.8  35.5  34204  290.32 0854.50
2009/04/23 14:15:06.3      74   -316    231    325    398 166.7  38.8  34208  290.38 0854.50
2009/04/23 14:15:06.4     -50   -347    243    351    426 188.3  38.0  34222  290.63 0854.50
2009/04/23 14:15:06.5     -59   -332    188    338    386 190.2  31.4  34212  290.47 0854.50
2009/04/23 14:15:06.6     -17   -379    216    380    437 182.6  32.3  34208  290.38 0854.50
2009/04/23 14:15:06.7     -56   -350    206    355    410 189.1  32.8  34212  290.47 0854.50
2009/04/23 14:15:06.8       6   -401    175    402    438 179.0  25.1  34210  290.41 0854.50
2009/04/23 14:15:06.9       7   -373    111    374    391 178.9  16.6  34210  290.42 0854.50
2009/04/23 14:15:07.0      32   -384    186    386    428 175.2  27.4  34206  290.36 0854.50
2009/04/23 14:15:07.1     -24   -365    142    366    392 183.9  22.3  34212  290.47 0854.50
2009/04/23 14:15:07.2      42   -391    157    394    424 173.8  23.0  34220  290.60 0854.50
2009/04/23 14:15:07.3     -45   -349    153    352    383 187.4  25.1  34216  290.52 0854.50
2009/04/23 14:15:07.4      43   -282    172    286    333 171.3  33.8  34216  290.51 0854.50
2009/04/23 14:15:07.5    -146   -337     95    368    381 203.5  14.5  34224  290.67 0854.50
2009/04/23 14:15:07.6    -144   -361    173    390    426 201.8  25.6  34234  290.82 0854.50
2009/04/23 14:15:07.7    -115   -337    174    357    397 198.8  28.0  34218  290.55 0854.50
2009/04/23 14:15:07.8     -67   -234    181    244    303 196.0  40.1  34216  290.53 0854.50
2009/04/23 14:15:07.9      11   -223    139    224    263 177.1  35.0  34218  290.54 0854.50
2009/04/23 14:15:08.0     -59   -330    180    336    381 190.3  30.6  34216  290.52 0854.48
2009/04/23 14:15:08.1    -141   -303    135    335    361 205.0  23.1  34220  290.59 0854.48
2009/04/23 14:15:08.2    -102   -226     87    249    264 204.3  19.4  34226  290.68 0854.48
2009/04/23 14:15:08.3     -24   -255    186    257    317 185.6  39.5  34224  290.65 0854.48
2009/04/23 14:15:08.4     -46   -408    202    411    457 186.5  28.1  34232  290.78 0854.48
2009/04/23 14:15:08.5     -78   -388    158    396    426 191.4  23.0  34228  290.73 0854.48
2009/04/23 14:15:08.6      27   -495    210    496    538 176.9  24.5  34222  290.62 0854.48
2009/04/23 14:15:08.7     126   -481    205    498    538 165.3  23.6  34222  290.62 0854.48
2009/04/23 14:15:08.8      51   -469     95    472    482 173.7  11.4  34218  290.54 0854.48
2009/04/23 14:15:08.9     -53   -489     14    492    493 186.2   1.7  34212  290.44 0854.48
2009/04/23 14:15:09.0     -50   -424     82    427    435 186.8  11.0  34222  290.61 0854.48
2009/04/23 14:15:09.1    -211   -383     22    438    439 208.9   2.9  34220  290.58 0854.48
2009/04/23 14:15:09.2    -214   -336     19    399    400 212.5   2.8  34214  290.50 0854.48
2009/04/23 14:15:09.3     -87   -327     98    339    353 195.0  16.1  34222  290.62 0854.48
2009/04/23 14:15:09.4    -145   -388     31    415    417 200.5   4.3  34222  290.61 0854.48
2009/04/23 14:15:09.5     -36   -259    123    262    289 188.1  27.1  34212  290.44 0854.48
2009/04/23 14:15:09.6     -42   -354    234    357    426 186.9  36.3  34216  290.53 0854.48
2009/04/23 14:15:09.7     -74   -295    159    305    343 194.2  29.6  34214  290.50 0854.48
2009/04/23 14:15:09.8       0   -278     83    279    292 180.0  16.6  34216  290.51 0854.48
2009/04/23 14:15:09.9      95   -219    157    239    285 156.6  36.5  34214  290.49 0854.48
2009/04/23 14:15:10.0      72   -302     60    311    317 166.4  11.0  34220  290.58 0854.48
2009/04/23 14:15:10.1      50   -193    109    200    227 165.3  31.3  34220  290.60 0854.48
2009/04/23 14:15:10.2      42   -115    131    123    179 160.0  52.0  34208  290.40 0854.48
2009/04/23 14:15:10.3     -79    110     53    136    145 324.0  22.5  34206  290.35 0854.48
2009/04/23 14:15:10.4      70     88     97    113    148  38.3  44.8  34200  290.26 0854.48
2009/04/23 14:15:10.5      62     41    119     75    140  56.7  64.7  34214  290.50 0854.48
2009/04/23 14:15:10.6      45      3    105     46    114  85.6  75.0  34228  290.74 0854.48
2009/04/23 14:15:10.7     -27   -132    129    135    186 191.6  48.7  34200  290.25 0854.48
2009/04/23 14:15:10.8     -68   -172     88    185    204 201.6  27.2  34206  290.36 0854.48
2009/04/23 14:15:10.9      -3   -146     65    147    160 181.4  25.3  34214  290.50 0854.48
2009/04/23 14:15:11.0     -11   -253     54    254    260 182.7  12.2  34218  290.56 0854.49
2009/04/23 14:15:11.1       7   -245     70    246    256 178.2  16.0  34214  290.49 0854.49
2009/04/23 14:15:11.2      36   -469    136    471    491 175.5  16.1  34218  290.54 0854.49
2009/04/23 14:15:11.3    -125   -441     57    459    463 195.9   7.1  34214  290.50 0854.49
2009/04/23 14:15:11.4    -156   -388    114    419    435 201.9  15.3  34218  290.55 0854.49
2009/04/23 14:15:11.5    -196   -385     -5    433    434 207.0  -0.7  34214  290.48 0854.49
2009/04/23 14:15:11.6     -38   -273     97    276    293 188.0  19.4  34210  290.41 0854.49
2009/04/23 14:15:11.7      -7   -255     98    256    274 181.8  22.0  34216  290.53 0854.49
2009/04/23 14:15:11.8      10   -214    113    215    242 177.1  30.2  34214  290.49 0854.49
2009/04/23 14:15:11.9    -136   -204     90    246    261 213.6  21.0  34216  290.53 0854.49
2009/04/23 14:15:12.0    -142   -216     75    259    270 213.4  16.3  34214  290.48 0854.49
2009/04/23 14:15:12.1    -101   -291    139    309    338 199.2  25.9  34218  290.54 0854.49
2009/04/23 14:15:12.2     -32   -302    176    304    351 186.2  32.8  34220  290.60 0854.49
2009/04/23 14:15:12.3      -9   -609    261    610    663 180.9  24.6  34224  290.65 0854.49
2009/04/23 14:15:12.4      29   -648    194    649    678 177.4  16.7  34196  290.17 0854.49
2009/04/23 14:15:12.5     292   -675    291    736    791 156.6  22.8  34202  290.29 0854.49
2009/04/23 14:15:12.6     192   -649    137    677    691 163.5  11.5  34184  289.97 0854.49
2009/04/23 14:15:12.7     111   -825    295    833    883 172.3  20.3  34192  290.10 0854.49
2009/04/23 14:15:12.8      13   -605    186    606    634 178.7  17.1  34172  289.76 0854.49
2009/04/23 14:15:12.9      69   -505     37    510    512 172.2   4.2  34194  290.15 0854.49
2009/04/23 14:15:13.0      -4   -226    -88    227    243 181.1 -26.4  34190  290.07 0854.47
2009/04/23 14:15:13.1    -230   -397     -1    459    460 210.1  -0.2  34200  290.26 0854.47
2009/04/23 14:15:13.2    -150   -323    -43    357    360 204.9  -6.9  34196  290.18 0854.47
2009/04/23 14:15:13.3      51   -369     11    373    374 172.0   1.8  34188  290.04 0854.47
2009/04/23 14:15:13.4       4   -364    202    365    417 179.3  31.4  34182  289.96 0854.47
2009/04/23 14:15:13.5      27   -343    248    345    424 175.4  39.3  34198  290.20 0854.47
2009/04/23 14:15:13.6      56   -332    151    337    369 170.3  25.8  34202  290.27 0854.47
2009/04/23 14:15:13.7     -64   -449    208    454    499 188.2  26.4  34192  290.12 0854.47
2009/04/23 14:15:13.8      10   -374    283    375    469 178.4  40.8  34194  290.16 0854.47
2009/04/23 14:15:13.9    -119   -348    210    368    423 199.0  32.3  34188  290.05 0854.47
2009/04/23 14:15:14.0     -31   -349    220    351    414 185.2  35.1  34188  290.06 0854.47
2009/04/23 14:15:14.1    -127   -540    288    555    625 193.3  29.5  34188  290.05 0854.47
2009/04/23 14:15:14.2      -6   -517    -28    518    519 180.7  -3.2  34198  290.22 0854.47
2009/04/23 14:15:14.3     120   -324     76    346    355 159.7  12.5  34194  290.16 0854.47
2009/04/23 14:15:14.4    -133   -297      0    326    327 204.1   0.1  34190  290.09 0854.47
2009/04/23 14:15:14.5    -172    -93    -15    196    197 241.6  -4.6  34198  290.21 0854.47
2009/04/23 14:15:14.6     -93      0    100     94    137 270.0  52.1  34212  290.47 0854.47
2009/04/23 14:15:14.7     -63      0     82     64    104 270.8  57.9  34212  290.45 0854.47
2009/04/23 14:15:14.8     -23     68    147     73    164 340.8  71.7  34214  290.48 0854.47
2009/04/23 14:15:14.9      -6      6    191      9    191 313.3  90.0  34212  290.47 0854.47
2009/04/23 14:15:15.1       4   -131    182    132    224 178.2  60.5  34198  290.23 0854.47
2009/04/23 14:15:15.1     -85   -195    176    213    276 203.7  43.8  34192  290.12 0854.47
2009/04/23 14:15:15.2    -243   -117     30    270    272 244.2   6.5  34182  289.93 0854.47
2009/04/23 14:15:15.3      51    -10    231     53    237 101.5  87.3  34206  290.35 0854.47
2009/04/23 14:15:15.4      52    -52    213     74    225 134.9  81.0  34208  290.40 0854.47
2009/04/23 14:15:15.5      80     52    245     96    263  57.1  77.6  34214  290.48 0854.47
2009/04/23 14:15:15.6      35    -54    285     65    292 146.6  87.3  34212  290.46 0854.47
2009/04/23 14:15:15.7       4   -314    305    315    438 179.1  49.1  34202  290.27 0854.47
2009/04/23 14:15:15.8     351   -577    270    676    727 148.7  23.0  34166  289.67 0854.47
2009/04/23 14:15:15.9     439   -465    252    640    687 136.7  22.8  34158  289.53 0854.47
2009/04/23 14:15:16.0     400   -461    299    611    680 139.1  28.0  34154  289.48 0854.47
2009/04/23 14:15:16.2     198   -595    227    628    667 161.6  20.8  34154  289.47 0854.47
2009/04/23 14:15:16.3     111   -567    193    578    610 168.9  18.5  34166  289.68 0854.47
2009/04/23 14:15:16.4     159   -622    227    643    681 165.6  20.3  34156  289.51 0854.47
2009/04/23 14:15:16.5     287   -515    222    590    630 150.8  21.6  34152  289.43 0854.47
2009/04/23 14:15:16.6     298   -501    203    584    619 149.3  19.2  34150  289.41 0854.47
2009/04/23 14:15:16.7      48   -615    264    618    672 175.5  24.6  34164  289.64 0854.47
2009/04/23 14:15:16.8     -15   -564    356    565    667 181.6  35.2  34162  289.59 0854.47
2009/04/23 14:15:16.9      40   -494    424    496    652 175.3  44.9  34166  289.66 0854.47
2009/04/23 14:15:17.0      24   -314    259    316    408 175.5  43.7  34158  289.55 0854.47
2009/04/23 14:15:17.1     -10   -227    183    228    292 182.7  42.8  34174  289.81 0854.46
2009/04/23 14:15:17.2    -295   -509    182    589    617 210.1  17.2  34162  289.61 0854.46
2009/04/23 14:15:17.3    -135   -487    231    506    556 195.6  26.2  34182  289.94 0854.46
2009/04/23 14:15:17.4    -134   -418     71    439    445 197.8   9.2  34180  289.90 0854.46
2009/04/23 14:15:17.5    -113   -297    248    319    404 200.9  41.9  34172  289.79 0854.46
2009/04/23 14:15:17.6    -314    -77    -51    324    329 256.1  -9.0  34174  289.81 0854.46
2009/04/23 14:15:17.7    -160    132     72    208    221 309.5  19.2  34182  289.94 0854.46
2009/04/23 14:15:17.8    -116    290    -12    313    314 338.2  -2.2  34178  289.86 0854.46
2009/04/23 14:15:17.9    -104    264    247    284    376 338.4  45.6  34174  289.82 0854.46
2009/04/23 14:15:18.0     -57    520    -95    524    533 353.7 -10.3  34184  289.97 0854.46
2009/04/23 14:15:18.1    -185    548    205    579    615 341.3  19.5  34178  289.88 0854.46
2009/04/23 14:15:18.2    -363    259     13    447    448 305.5   1.7  34178  289.87 0854.46
2009/04/23 14:15:18.3    -139    549    121    567    580 345.7  12.1  34206  290.34 0854.46
2009/04/23 14:15:18.4    -238    427     98    490    500 330.8  11.3  34208  290.37 0854.46
2009/04/23 14:15:18.5    -220    262     -4    343    344 319.9  -0.7  34198  290.20 0854.46
2009/04/23 14:15:18.6    -383    219     -8    442    443 299.8  -1.2  34198  290.22 0854.46
2009/04/23 14:15:18.7    -404    133    -93    426    437 288.3 -12.4  34212  290.44 0854.46
2009/04/23 14:15:18.8    -163     57    -57    173    182 289.3 -23.8  34224  290.67 0854.46
2009/04/23 14:15:18.9    -293    224   -131    369    391 307.4 -24.7  34216  290.52 0854.46
2009/04/23 14:15:19.0    -273    205   -114    342    360 306.9 -23.6  34202  290.30 0854.46
2009/04/23 14:15:19.1    -196    212   -154    289    327 317.2 -34.7  34204  290.31 0854.46
2009/04/23 14:15:19.2    -214    228   -223    313    384 316.8 -43.5  34222  290.62 0854.46
2009/04/23 14:15:19.3    -370    148   -207    399    449 291.8 -33.9  34236  290.87 0854.46
2009/04/23 14:15:19.4    -214    316    -79    382    391 325.8 -11.8  34218  290.54 0854.46
2009/04/23 14:15:19.5    -363    -15    -88    364    375 267.6 -13.7  34224  290.67 0854.46
2009/04/23 14:15:19.6    -216     30   -148    219    264 277.9 -41.7  34228  290.73 0854.46
2009/04/23 14:15:19.7    -316    -85     51    328    333 254.9   8.9  34236  290.86 0854.46
2009/04/23 14:15:19.8    -249   -137    -98    285    301 241.1 -23.6  34236  290.85 0854.46
2009/04/23 14:15:19.9    -336    -97    -62    350    356 253.8 -10.1  34246  291.03 0854.46
2009/04/23 14:15:20.0    -285    -44    -51    289    294 261.2 -10.1  34238  290.90 0854.46
2009/04/23 14:15:20.1    -368     43      7    371    372 276.7   1.1  34224  290.67 0854.46
2009/04/23 14:15:20.2    -433    244     24    498    499 299.4   2.8  34216  290.52 0854.46
2009/04/23 14:15:20.3    -451    151    -26    476    477 288.6  -3.2  34218  290.54 0854.46
2009/04/23 14:15:20.4    -256   -173     99    310    326 235.9  17.8  34246  291.02 0854.46
2009/04/23 14:15:20.5    -225   -106     47    249    254 244.8  10.8  34246  291.04 0854.46
2009/04/23 14:15:20.6    -204    -60    123    213    245 253.4  32.7  34248  291.05 0854.46
2009/04/23 14:15:20.7    -385      0     61    386    391 270.0   9.0  34232  290.81 0854.46
2009/04/23 14:15:20.8    -375    206     94    428    439 298.8  12.5  34248  291.07 0854.46
2009/04/23 14:15:20.9    -586    195     19    618    619 288.4   1.8  34222  290.64 0854.46
2009/04/23 14:15:21.0    -436    231     -9    494    495 297.9  -1.2  34222  290.64 0854.46
2009/04/23 14:15:21.1    -339    128     20    363    364 290.7   3.3  34226  290.69 0854.44
2009/04/23 14:15:21.2    -210    173     76    273    284 309.5  15.6  34258  291.22 0854.44
2009/04/23 14:15:21.3    -201   -104    149    227    271 242.7  36.3  34254  291.16 0854.44
2009/04/23 14:15:21.4    -252   -124     44    281    285 243.8   8.9  34278  291.58 0854.44
2009/04/23 14:15:21.5    -278   -262    -42    383    386 226.7  -6.3  34268  291.42 0854.44
2009/04/23 14:15:21.6    -251   -419     33    489    491 210.9   3.9  34268  291.41 0854.44
2009/04/23 14:15:21.7     -23   -495     47    496    499 182.7   5.4  34200  290.25 0854.44
2009/04/23 14:15:21.8      63   -633     95    637    645 174.3   8.5  34196  290.18 0854.44
2009/04/23 14:15:21.9     185   -569    187    599    628 162.0  17.4  34192  290.13 0854.44
2009/04/23 14:15:22.0     215   -552    163    593    616 158.7  15.4  34188  290.05 0854.44
2009/04/23 14:15:22.1      94   -521    124    530    545 169.8  13.2  34184  289.99 0854.44
2009/04/23 14:15:22.2    -158   -543    263    566    624 196.3  26.6  34198  290.22 0854.44
2009/04/23 14:15:22.3     -96   -431    295    442    531 192.6  37.0  34198  290.20 0854.44
2009/04/23 14:15:22.4      42   -457    340    460    572 174.7  40.1  34198  290.23 0854.44
2009/04/23 14:15:22.5     -86   -271    330    285    436 197.6  54.8  34206  290.35 0854.44
2009/04/23 14:15:22.6    -146   -229    234    272    358 212.6  45.2  34212  290.47 0854.44
2009/04/23 14:15:22.7    -175   -335    208    379    432 207.6  31.3  34202  290.29 0854.44
2009/04/23 14:15:22.8     -83   -373    328    383    504 192.6  44.9  34212  290.44 0854.44
2009/04/23 14:15:22.9       7   -143    231    144    272 176.9  64.7  34218  290.54 0854.44
2009/04/23 14:15:23.0      11    -58    167     60    177 169.3  79.7  34234  290.82 0854.44
2009/04/23 14:15:23.1     -36    -46    145     59    156 217.8  76.6  34240  290.94 0854.41
2009/04/23 14:15:23.2     -85     10      4     86     87 277.0   2.9  34238  290.89 0854.41
2009/04/23 14:15:23.3    -199    -96     61    221    230 244.2  15.6  34222  290.62 0854.41
2009/04/23 14:15:23.4    -128    -97     36    161    166 232.7  12.6  34228  290.72 0854.41
2009/04/23 14:15:23.5     -39    -79     31     89     95 206.3  19.4  34232  290.81 0854.41
2009/04/23 14:15:23.6      31    -92    142     98    172 161.3  62.4  34228  290.74 0854.41
2009/04/23 14:15:23.7      -7   -195    135    196    237 182.2  37.8  34224  290.65 0854.41
2009/04/23 14:15:23.8     -66   -159     65    173    184 202.5  21.3  34224  290.65 0854.41
2009/04/23 14:15:23.9      21   -149     25    151    154 172.0   9.5  34212  290.47 0854.41
2009/04/23 14:15:24.0    -119    -54    106    131    168 245.6  43.3  34218  290.57 0854.41
2009/04/23 14:15:24.1     -80   -144    -74    166    181 209.2 -30.1  34216  290.53 0854.41
2009/04/23 14:15:24.2      -5    -54     70     55     89 186.2  57.5  34216  290.53 0854.41
2009/04/23 14:15:24.3      -6    -33    110     34    115 191.6  81.2  34240  290.94 0854.41
2009/04/23 14:15:24.4       2   -126     99    127    161 179.0  42.0  34228  290.74 0854.41
2009/04/23 14:15:24.5      80   -223    135    238    273 160.2  32.1  34218  290.54 0854.41
2009/04/23 14:15:24.6      98   -307    104    323    340 162.2  17.8  34214  290.49 0854.41
2009/04/23 14:15:24.7     -52   -258    118    264    289 191.6  25.9  34222  290.61 0854.41
2009/04/23 14:15:24.8     -50   -208    201    214    293 193.6  48.0  34230  290.76 0854.41
2009/04/23 14:15:24.9    -164   -172    156    238    284 223.7  36.5  34226  290.70 0854.41
2009/04/23 14:15:25.0    -161   -126    110    205    232 231.8  30.8  34224  290.67 0854.41
2009/04/23 14:15:25.1     -98    -99    103    140    173 224.5  39.9  34222  290.62 0854.40
2009/04/23 14:15:25.2     -10   -163    160    164    229 183.6  49.8  34226  290.69 0854.40
2009/04/23 14:15:25.3      -1   -123    169    124    209 180.5  60.3  34230  290.77 0854.40
2009/04/23 14:15:25.4     -44     11    113     46    122 285.1  77.1  34240  290.92 0854.40
2009/04/23 14:15:25.5     -79    -11    122     80    145 262.1  64.1  34244  291.01 0854.40
2009/04/23 14:15:25.6      14    -59    158     61    169 166.6  78.2  34248  291.08 0854.40
2009/04/23 14:15:25.7    -142   -352    205    380    431 202.1  30.6  34232  290.80 0854.40
2009/04/23 14:15:25.8    -240   -442    224    503    550 208.5  25.6  34268  291.40 0854.40
2009/04/23 14:15:25.9    -123   -324    243    347    423 200.9  38.5  34228  290.71 0854.40
2009/04/23 14:15:26.0    -138   -309    334    339    475 204.1  49.8  34224  290.67 0854.40
2009/04/23 14:15:26.1     -67   -483    314    488    580 187.9  35.6  34218  290.55 0854.40
2009/04/23 14:15:26.2     -28   -463    283    464    543 183.5  34.3  34212  290.47 0854.40
2009/04/23 14:15:26.3    -122   -346    279    368    461 199.5  41.1  34210  290.43 0854.40
2009/04/23 14:15:26.4     -29   -318    211    320    383 185.4  36.4  34208  290.37 0854.40
2009/04/23 14:15:26.5     -18   -359    197    360    410 182.9  31.3  34198  290.23 0854.40
2009/04/23 14:15:26.6     -37   -374    211    376    431 185.8  31.6  34200  290.24 0854.40
2009/04/23 14:15:26.7       0   -351    348    352    494 180.1  49.9  34218  290.55 0854.40
2009/04/23 14:15:26.8     -30    -80    305     86    316 200.9  84.1  34250  291.09 0854.40
2009/04/23 14:15:26.9     -82   -324    357    335    489 194.3  52.1  34232  290.80 0854.40
2009/04/23 14:15:27.0     -87    144    220    169    277 329.0  58.5  34230  290.76 0854.40
2009/04/23 14:15:27.1      93   -120    219    153    267 142.2  61.7  34236  290.87 0854.42
2009/04/23 14:15:27.2     102    -32    233    108    256 107.7  73.5  34242  290.98 0854.42
2009/04/23 14:15:27.3      10   -244    261    245    357 177.5  52.1  34218  290.54 0854.42
2009/04/23 14:15:27.4    -124   -183    125    222    254 214.1  31.6  34212  290.46 0854.42
2009/04/23 14:15:27.5    -240   -127    130    272    301 242.0  27.3  34222  290.61 0854.42
2009/04/23 14:15:27.6    -298    -90     81    312    323 253.2  14.6  34246  291.04 0854.42
2009/04/23 14:15:27.7    -146    -89    -41    172    177 238.5 -13.7  34246  291.03 0854.42
2009/04/23 14:15:27.8    -106    -42    -10    115    116 248.3  -5.2  34246  291.03 0854.42
2009/04/23 14:15:27.9     -82    -14    146     84    168 260.3  67.5  34234  290.84 0854.42
2009/04/23 14:15:28.0     -49    -59    176     77    192 219.6  75.0  34244  291.01 0854.42
2009/04/23 14:15:28.1     -82   -167    211    187    281 206.1  54.0  34220  290.59 0854.42
2009/04/23 14:15:28.2    -307   -348    175    465    496 221.5  21.6  34218  290.54 0854.42
2009/04/23 14:15:28.3    -352   -281    209    451    497 231.4  26.7  34228  290.73 0854.42
2009/04/23 14:15:28.4    -427   -219    262    481    547 242.8  30.9  34238  290.91 0854.42
2009/04/23 14:15:28.5    -312   -280    201    420    465 228.1  27.3  34242  290.97 0854.42
2009/04/23 14:15:28.6    -208   -334    222    394    452 212.0  31.9  34228  290.72 0854.42
2009/04/23 14:15:28.7    -200   -265    193    333    384 217.1  32.8  34224  290.67 0854.42
2009/04/23 14:15:28.8    -147   -465    241    488    544 197.6  28.2  34218  290.57 0854.42
2009/04/23 14:15:28.9    -240   -453    146    513    534 207.9  15.9  34224  290.67 0854.42
2009/04/23 14:15:29.0    -199   -509     96    547    556 201.4  10.0  34214  290.48 0854.42
2009/04/23 14:15:29.1    -121   -404    177    422    457 196.8  24.1  34224  290.67 0854.43
2009/04/23 14:15:29.2     -97   -339    139    353    379 196.0  22.8  34218  290.55 0854.43
2009/04/23 14:15:29.3     -58   -285    171    292    338 191.6  33.0  34232  290.80 0854.43
2009/04/23 14:15:29.4     -59   -289    191    296    352 191.6  35.9  34252  291.15 0854.43
2009/04/23 14:15:29.5     -22   -157    158    159    224 188.0  50.0  34258  291.25 0854.43
2009/04/23 14:15:29.6       4   -277    144    278    313 179.1  29.5  34238  290.90 0854.43
2009/04/23 14:15:29.7      74   -259    146    270    306 164.0  31.0  34234  290.83 0854.43
2009/04/23 14:15:29.8     123   -102     46    161    168 129.6  16.0  34228  290.74 0854.43
2009/04/23 14:15:29.9      53   -170     65    179    190 162.6  20.4  34226  290.69 0854.43
2009/04/23 14:15:30.0      -3   -321      9    322    323 180.7   1.6  34222  290.61 0854.43
2009/04/23 14:15:30.1    -123   -162     24    204    206 217.4   6.9  34222  290.64 0854.44
2009/04/23 14:15:30.2    -205    -21     82    207    222 263.9  23.0  34224  290.65 0854.44
2009/04/23 14:15:30.3    -227    -86     84    243    258 249.2  19.2  34228  290.71 0854.44
2009/04/23 14:15:30.4    -250    -35     35    253    256 262.0   8.0  34224  290.65 0854.44
2009/04/23 14:15:30.5     -83   -182    227    201    303 204.5  54.2  34224  290.65 0854.44
2009/04/23 14:15:30.6     -39   -222     11    226    227 190.0   2.8  34220  290.58 0854.44
2009/04/23 14:15:30.7     -49   -289    200    294    355 189.6  37.6  34220  290.59 0854.44
2009/04/23 14:15:30.8     -37   -162    130    167    211 192.9  42.0  34224  290.65 0854.44
2009/04/23 14:15:30.9       0   -102    163    103    192 180.4  64.7  34228  290.74 0854.44
2009/04/23 14:15:31.0    -133   -316     75    343    352 202.8  12.4  34222  290.62 0854.44
2009/04/23 14:15:31.1    -248   -168     84    300    312 235.9  15.8  34218  290.54 0854.44
2009/04/23 14:15:31.2      -7    -21    214     23    215 200.0  90.0  34248  291.08 0854.44
2009/04/23 14:15:31.3     188     71    233    202    308  69.2  54.8  34226  290.68 0854.44
2009/04/23 14:15:31.4     261    114    274    285    395  66.4  49.0  34228  290.72 0854.44
2009/04/23 14:15:31.5     168     81    324    187    374  64.2  67.5  34230  290.75 0854.44
2009/04/23 14:15:31.6     121    137    143    183    232  41.4  42.0  34234  290.84 0854.44
2009/04/23 14:15:31.7     204    158    172    259    310  52.2  36.5  34242  290.95 0854.44
2009/04/23 14:15:31.8     362    196    137    412    435  61.5  18.5  34254  291.16 0854.44
2009/04/23 14:15:31.9     260    128    133    290    319  63.8  26.3  34270  291.44 0854.44
2009/04/23 14:15:32.0     267     14     69    268    277  87.0  14.5  34276  291.55 0854.44
2009/04/23 14:15:32.1     168   -168    161    238    287 135.0  37.4  34230  290.76 0854.45
2009/04/23 14:15:32.2     121    -62    156    137    207 117.1  54.3  34236  290.86 0854.45
2009/04/23 14:15:32.3     -40     63    164     75    180 327.5  73.8  34238  290.89 0854.45
2009/04/23 14:15:32.4      -9     76    175     77    191 352.9  74.8  34244  290.99 0854.45
2009/04/23 14:15:32.5    -140     35    179    145    230 284.2  56.4  34240  290.92 0854.45
2009/04/23 14:15:32.6     -47     55    103     73    126 319.5  61.1  34242  290.98 0854.45
2009/04/23 14:15:32.7    -122     75    105    144    178 301.5  39.7  34240  290.92 0854.45
2009/04/23 14:15:32.8    -116    223    155    252    295 332.4  34.5  34238  290.90 0854.45
2009/04/23 14:15:32.9    -142    204    145    249    288 325.0  33.1  34240  290.93 0854.45
2009/04/23 14:15:33.0     -32    260     14    263    264 352.9   3.1  34232  290.78 0854.45
2009/04/23 14:15:33.1       0    252     37    253    256   0.0   8.5  34214  290.48 0854.45
2009/04/23 14:15:33.2      -7    188    137    189    233 357.8  39.5  34224  290.67 0854.45
2009/04/23 14:15:33.3      12    121     75    122    143   5.8  35.0  34230  290.75 0854.45
2009/04/23 14:15:33.4      66     93     53    115    126  35.6  26.6  34238  290.89 0854.45
2009/04/23 14:15:33.5    -104     86     81    136    158 309.5  33.5  34236  290.86 0854.45
2009/04/23 14:15:33.6    -151     16     66    152    165 276.2  24.9  34232  290.81 0854.45
2009/04/23 14:15:33.7    -302    -27    -72    304    313 264.8 -13.4  34228  290.71 0854.45
2009/04/23 14:15:33.8    -315   -229    103    390    404 234.0  14.9  34228  290.74 0854.45
2009/04/23 14:15:33.9    -337   -134     79    363    372 248.3  12.3  34238  290.89 0854.45
2009/04/23 14:15:34.0    -279   -222    125    357    379 231.5  19.4  34222  290.62 0854.45
2009/04/23 14:15:34.1     -73   -480    127    486    503 188.7  14.7  34204  290.32 0854.45
2009/04/23 14:15:34.2    -161   -511    187    536    568 197.5  19.3  34220  290.58 0854.45
2009/04/23 14:15:34.3    -142   -393    186    419    458 199.9  25.3  34208  290.39 0854.45
2009/04/23 14:15:34.4       7   -544    200    545    580 179.2  21.0  34212  290.46 0854.45
2009/04/23 14:15:34.5    -369   -611   -186    714    738 211.1 -14.6  34172  289.79 0854.45
2009/04/23 14:15:34.6    -287   -420     56    510    514 214.4   6.4  34182  289.93 0854.45
2009/04/23 14:15:34.7    -380   -527   -107    650    659 215.8  -9.4  34178  289.86 0854.45
2009/04/23 14:15:34.8     -80   -344    414    354    544 193.1  55.3  34214  290.49 0854.45
2009/04/23 14:15:34.9      35   -171    376    175    414 168.4  73.4  34236  290.86 0854.45
2009/04/23 14:15:35.0      38   -237    301    241    385 170.9  57.3  34238  290.91 0854.45
2009/04/23 14:15:35.1      61   -314    242    321    402 168.9  40.8  34214  290.50 0854.45
2009/04/23 14:15:35.2    -131   -360    107    384    399 200.1  15.6  34208  290.40 0854.45
2009/04/23 14:15:35.3     -41   -195     60    200    209 192.0  16.8  34218  290.57 0854.45
2009/04/23 14:15:35.4    -361   -135   -114    386    403 249.4 -16.5  34206  290.35 0854.45
2009/04/23 14:15:35.5    -318     54    -23    323    324 279.7  -4.2  34198  290.20 0854.45
2009/04/23 14:15:35.6    -294    -53    -37    299    302 259.6  -7.2  34228  290.71 0854.45
2009/04/23 14:15:35.7    -339     27   -102    341    357 274.7 -16.7  34208  290.37 0854.45
2009/04/23 14:15:35.8    -536    -16     -6    537    538 268.3  -0.7  34222  290.62 0854.45
2009/04/23 14:15:35.9    -451   -205     76    496    502 245.6   8.7  34200  290.25 0854.45
2009/04/23 14:15:36.0    -965   -261   -180   1000   1017 254.9 -10.2  34188  290.06 0854.45
2009/04/23 14:15:36.1   -1007   -272   -279   1044   1081 254.9 -15.0  34162  289.62 0854.44
2009/04/23 14:15:36.2    -927   -399   -146   1010   1021 246.7  -8.2  34218  290.57 0854.44
2009/04/23 14:15:36.3    -704   -356   -122    789    799 243.2  -8.8  34200  290.24 0854.44
2009/04/23 14:15:36.4    -644   -397   -117    757    766 238.4  -8.8  34220  290.58 0854.44
2009/04/23 14:15:36.5   -1001    -72   -380   1004   1073 265.9 -26.2  34174  289.82 0854.44
2009/04/23 14:15:36.6    -824    280   -252    871    906 288.8 -20.9  34176  289.84 0854.44
2009/04/23 14:15:36.7    -863     30   -222    864    893 272.0 -14.4  34174  289.81 0854.44
2009/04/23 14:15:36.8    -763    -46   -187    765    788 266.5 -13.8  34188  290.03 0854.44
2009/04/23 14:15:36.9    -728   -251      9    771    772 250.9   0.7  34220  290.58 0854.44
2009/04/23 14:15:37.0    -387   -299    -19    490    491 232.3  -2.2  34252  291.15 0854.44
2009/04/23 14:15:37.1    -144   -476   -104    498    509 196.9 -11.9  34236  290.86 0854.44
2009/04/23 14:15:37.2     -50   -688    -71    690    694 184.2  -5.9  34218  290.56 0854.44
2009/04/23 14:15:37.3      83   -882    -11    887    888 174.6  -0.7  34208  290.40 0854.44
2009/04/23 14:15:37.4    -236   -730     38    768    769 197.9   2.9  34218  290.55 0854.44
2009/04/23 14:15:37.5     -93   -787    -57    793    795 186.8  -4.1  34180  289.90 0854.44
2009/04/23 14:15:37.6    -251   -660   -213    707    739 200.8 -16.8  34152  289.44 0854.44
2009/04/23 14:15:37.7    -266   -887   -128    927    936 196.7  -7.9  34200  290.24 0854.44
2009/04/23 14:15:37.8       6  -1136   -239   1137   1162 179.7 -11.9  34188  290.06 0854.44
2009/04/23 14:15:37.9     -51  -1007    -24   1009   1010 182.9  -1.4  34190  290.09 0854.44
2009/04/23 14:15:38.0     197   -662    -38    691    693 163.4  -3.2  34164  289.65 0854.44
2009/04/23 14:15:38.1     370   -783    168    867    884 154.7  11.0  34190  290.08 0854.41
2009/04/23 14:15:38.2      11   -929    105    930    936 179.3   6.5  34198  290.20 0854.41
2009/04/23 14:15:38.3     172   -696    269    717    765 166.1  21.6  34206  290.35 0854.41
2009/04/23 14:15:38.4      84   -692    323    698    769 173.0  26.6  34214  290.48 0854.41
2009/04/23 14:15:38.5     -32   -473    384    475    610 183.9  43.1  34216  290.53 0854.41
2009/04/23 14:15:38.6     -42   -293    135    297    326 188.2  26.2  34210  290.42 0854.41
2009/04/23 14:15:38.8     -57   -450     88    454    463 187.3  11.0  34224  290.65 0854.41
2009/04/23 14:15:38.8      60   -438     25    443    444 172.2   3.3  34218  290.56 0854.41
2009/04/23 14:15:38.9     109   -105    102    152    183 134.0  37.0  34212  290.47 0854.41
2009/04/23 14:15:39.0    -112   -162     40    198    203 214.7  11.6  34232  290.79 0854.41
2009/04/23 14:15:39.1     -52   -168     79    177    193 197.4  25.9  34222  290.62 0854.41
2009/04/23 14:15:39.2     -78    -96    112    124    167 219.2  46.9  34222  290.62 0854.41
2009/04/23 14:15:39.3      32    -35    161     48    168 137.7  83.1  34204  290.33 0854.41
2009/04/23 14:15:39.4     -29   -271    338    273    434 186.3  57.0  34194  290.16 0854.41
2009/04/23 14:15:39.5    -117   -113    253    164    301 226.0  64.6  34204  290.31 0854.41
2009/04/23 14:15:39.6    -284   -294    233    409    470 224.0  32.3  34212  290.44 0854.41
2009/04/23 14:15:39.7    -381   -242    130    452    471 237.5  16.0  34196  290.18 0854.41
2009/04/23 14:15:39.8    -448   -163   -105    478    490 250.0 -12.4  34208  290.39 0854.41
2009/04/23 14:15:39.9    -441    -46    139    444    466 263.9  17.4  34220  290.60 0854.41
2009/04/23 14:15:40.0    -637   -183    -28    663    664 254.0  -2.5  34240  290.94 0854.41
2009/04/23 14:15:40.1    -585   -192     19    616    617 251.8   1.8  34202  290.28 0854.43
2009/04/23 14:15:40.2    -683     35     41    684    686 273.0   3.5  34232  290.78 0854.43
2009/04/23 14:15:40.3    -528    138     41    546    548 284.7   4.4  34226  290.70 0854.43
2009/04/23 14:15:40.4    -521    265    100    585    594 297.0   9.7  34208  290.39 0854.43
2009/04/23 14:15:40.5    -535    348    244    639    684 303.1  22.0  34232  290.78 0854.43
2009/04/23 14:15:40.6    -578    272    176    639    663 295.2  15.4  34238  290.91 0854.43
2009/04/23 14:15:40.7    -505    284    273    580    641 299.4  27.1  34220  290.60 0854.43
2009/04/23 14:15:40.8    -562    223    195    605    636 291.7  17.9  34222  290.62 0854.43
2009/04/23 14:15:40.9    -674    -34    144    675    691 267.1  12.1  34244  291.00 0854.43
2009/04/23 14:15:41.0    -899   -420   -218    993   1017 245.0 -12.4  34176  289.83 0854.43
2009/04/23 14:15:41.1    -499   -533   -105    731    739 223.1  -8.2  34214  290.48 0854.43
2009/04/23 14:15:41.2    -324   -190    -62    376    382 239.6  -9.4  34198  290.21 0854.43
2009/04/23 14:15:41.3    -818    -85    -35    823    824 264.0  -2.5  34240  290.93 0854.43
2009/04/23 14:15:41.4    -993   -262   -112   1027   1034 255.2  -6.3  34220  290.60 0854.43
2009/04/23 14:15:41.5    -632   -284   -218    693    727 245.8 -17.5  34172  289.76 0854.43
2009/04/23 14:15:41.6    -781   -256   -152    822    836 251.8 -10.5  34250  291.10 0854.43
2009/04/23 14:15:41.7    -671   -298   -257    735    779 246.0 -19.3  34242  290.97 0854.43
2009/04/23 14:15:41.8    -596   -447   -226    745    779 233.1 -16.9  34210  290.41 0854.43
2009/04/23 14:15:41.9    -864   -582    -88   1042   1047 236.0  -4.9  34226  290.68 0854.43
2009/04/23 14:15:42.0    -772   -164   -129    790    801 258.0  -9.3  34218  290.56 0854.43
2009/04/23 14:15:42.1    -645    -49   -152    647    665 265.6 -13.3  34216  290.53 0854.45
2009/04/23 14:15:42.2   -1197   -398   -371   1262   1316 251.6 -16.4  34198  290.23 0854.45
2009/04/23 14:15:42.4    -897   -673   -317   1122   1165 233.1 -20.4  34210  290.42 0854.45
2009/04/23 14:15:42.4    -996   -289   -381   1037   1104 253.8 -25.5  34182  289.93 0854.45
2009/04/23 14:15:42.5    -791    -16   -235    792    826 268.8 -21.4  34224  290.65 0854.45
2009/04/23 14:15:42.6    -379    -28   -161    380    412 265.7 -28.6  34188  290.05 0854.45
2009/04/23 14:15:42.7    -538      8   -231    539    586 270.9 -29.0  34202  290.27 0854.45
2009/04/23 14:15:42.8    -602   -118   -302    614    684 258.9 -32.5  34174  289.82 0854.45
2009/04/23 14:15:43.0    -622   -165   -188    644    670 255.1 -21.1  34172  289.77 0854.45
2009/04/23 14:15:43.1    -451      9   -165    452    481 271.2 -25.3  34206  290.35 0854.45
2009/04/23 14:15:43.2    -673   -137   -217    688    722 258.4 -17.5  34202  290.27 0854.45
2009/04/23 14:15:43.3    -236   -541   -101    591    600 203.6  -9.7  34232  290.80 0854.45
2009/04/23 14:15:43.4    -121   -509   -110    524    536 193.4 -11.9  34228  290.72 0854.45
2009/04/23 14:15:43.5    -194   -418    -44    462    465 204.9  -5.5  34218  290.55 0854.45
2009/04/23 14:15:43.6    -222   -179     40    286    289 231.1   8.0  34220  290.59 0854.45
2009/04/23 14:15:43.7    -249   -143     -1    288    289 240.2  -0.3  34222  290.63 0854.45
2009/04/23 14:15:43.8     -61   -395   -113    400    415 188.9 -20.5  34208  290.38 0854.45
2009/04/23 14:15:43.9    -207   -422    -31    471    473 206.2  -3.8  34218  290.56 0854.45
2009/04/23 14:15:44.0     -46   -542    -30    545    546 184.9  -3.2  34220  290.60 0854.45
2009/04/23 14:15:44.1    -226   -479    -29    530    531 205.3  -3.2  34222  290.63 0854.45
2009/04/23 14:15:44.2    -122   -739     66    750    754 189.4   5.1  34210  290.43 0854.48
2009/04/23 14:15:44.3      22   -567    229    568    612 177.8  23.1  34202  290.27 0854.48
2009/04/23 14:15:44.4      19   -418    210    419    468 177.3  28.6  34206  290.34 0854.48
2009/04/23 14:15:44.5    -112   -596    268    607    663 190.7  25.3  34208  290.38 0854.48
2009/04/23 14:15:44.6    -309   -551    271    632    687 209.3  24.8  34210  290.43 0854.48
2009/04/23 14:15:44.7     -66   -659    313    663    733 185.8  27.1  34192  290.10 0854.48
2009/04/23 14:15:44.8     -83   -735    268    740    788 186.5  19.9  34202  290.29 0854.48
2009/04/23 14:15:44.9    -192   -749    275    774    821 194.4  20.4  34214  290.48 0854.48
2009/04/23 14:15:45.0     -65   -877    344    880    944 184.3  22.4  34218  290.56 0854.48
2009/04/23 14:15:45.1    -219   -683    119    718    728 197.8   9.5  34224  290.66 0854.48
2009/04/23 14:15:45.2     -71   -562    115    567    579 187.2  11.5  34200  290.25 0854.48
2009/04/23 14:15:45.3      32   -644     91    645    652 177.1   8.1  34192  290.11 0854.48
2009/04/23 14:15:45.4    -234   -768    161    804    821 197.0  11.3  34208  290.38 0854.48
2009/04/23 14:15:45.5     -27   -328     86    330    342 184.9  14.7  34194  290.15 0854.48
2009/04/23 14:15:45.6       0   -375    195    376    423 180.0  29.4  34208  290.38 0854.48
2009/04/23 14:15:45.7    -254   -452   -161    519    543 209.4 -22.3  34192  290.11 0854.48
2009/04/23 14:15:45.8    -389   -331    -49    512    515 229.6  -5.5  34206  290.35 0854.48
2009/04/23 14:15:45.9    -170   -512     23    540    541 198.4   2.5  34214  290.48 0854.48
2009/04/23 14:15:46.0    -110   -544    -13    555    556 191.5  -1.4  34208  290.40 0854.48
2009/04/23 14:15:46.1    -115   -594      3    606    607 191.0   0.4  34200  290.24 0854.48
2009/04/23 14:15:46.2      41   -532   -124    534    549 175.5 -13.1  34192  290.13 0854.46
2009/04/23 14:15:46.3      56   -166      1    176    177 161.3   0.5  34196  290.19 0854.46
2009/04/23 14:15:46.4     -63    -63     91     90    127 225.0  50.1  34202  290.28 0854.46
2009/04/23 14:15:46.5    -269   -245    189    365    411 227.7  29.5  34194  290.16 0854.46
2009/04/23 14:15:46.6    -519   -329    -64    615    619 237.6  -6.0  34202  290.30 0854.46
2009/04/23 14:15:46.7    -593   -303      0    667    668 242.9   0.0  34204  290.33 0854.46
2009/04/23 14:15:46.8    -532   -532    -18    753    754 225.0  -1.4  34200  290.24 0854.46
2009/04/23 14:15:46.9    -626   -360    -20    723    724 240.1  -1.6  34232  290.81 0854.46
2009/04/23 14:15:47.0    -715   -367   -108    804    812 242.8  -7.7  34234  290.82 0854.46
2009/04/23 14:15:47.1    -712   -343   -273    791    837 244.3 -19.1  34230  290.77 0854.46
2009/04/23 14:15:47.2    -386   -413   -102    566    576 223.0 -10.3  34204  290.31 0854.46
2009/04/23 14:15:47.3    -687   -387    -91    789    795 240.6  -6.6  34212  290.46 0854.46
2009/04/23 14:15:47.4    -737   -313   -138    801    814 247.0  -9.8  34228  290.74 0854.46
2009/04/23 14:15:47.5    -537   -499   -164    734    753 227.1 -12.6  34204  290.33 0854.46
2009/04/23 14:15:47.6    -353   -240     71    427    433 235.8   9.4  34206  290.36 0854.46
2009/04/23 14:15:47.7    -356   -295    -25    463    464 230.3  -3.1  34208  290.38 0854.46
2009/04/23 14:15:47.8    -645   -458    142    792    805 234.6  10.2  34204  290.32 0854.46
2009/04/23 14:15:47.9    -690   -267    162    741    759 248.8  12.4  34202  290.29 0854.46
2009/04/23 14:15:48.0    -530   -500   -227    729    764 226.7 -17.3  34206  290.35 0854.46
2009/04/23 14:15:48.1    -621   -395   -204    737    764 237.5 -20.0  34226  290.70 0854.46
2009/04/23 14:15:48.2    -711   -239    -86    751    756 251.4  -6.6  34200  290.24 0854.45
2009/04/23 14:15:48.3    -740   -219   -111    772    781 253.5  -8.2  34204  290.32 0854.45
2009/04/23 14:15:48.4    -751   -230   -109    786    794 252.9  -7.9  34198  290.22 0854.45
2009/04/23 14:15:48.5    -749   -251     16    791    792 251.4   1.2  34222  290.61 0854.45
2009/04/23 14:15:48.6    -168   -322   -108    364    379 207.5 -21.6  34226  290.69 0854.45
2009/04/23 14:15:48.7    -440   -390     12    589    590 228.5   1.2  34170  289.75 0854.45
2009/04/23 14:15:48.8    -415   -644    -56    767    770 212.8  -4.2  34200  290.26 0854.45
2009/04/23 14:15:48.9    -174   -612    -44    637    639 195.9  -4.0  34210  290.42 0854.45
2009/04/23 14:15:49.0    -131   -770    -12    782    783 189.7  -0.9  34212  290.47 0854.45
2009/04/23 14:15:49.1     111   -792    -49    800    802 172.0  -3.5  34208  290.37 0854.45
2009/04/23 14:15:49.2     216   -614    -53    651    654 160.6  -4.7  34208  290.40 0854.45
2009/04/23 14:15:49.3     172   -541     89    568    576 162.3   8.9  34198  290.20 0854.45
2009/04/23 14:15:49.4     -28   -569    -11    570    571 182.9  -1.1  34200  290.24 0854.45
2009/04/23 14:15:49.5     128   -639   -120    652    664 168.7 -10.5  34194  290.16 0854.45
2009/04/23 14:15:49.6     506   -637    169    814    832 141.5  11.8  34188  290.06 0854.45
2009/04/23 14:15:49.7     458   -527    -19    699    700 139.0  -1.6  34178  289.89 0854.45
2009/04/23 14:15:49.8     210   -715    136    746    759 163.6  10.3  34200  290.26 0854.45
2009/04/23 14:15:49.9     263   -748    154    794    809 160.6  11.0  34192  290.13 0854.45
2009/04/23 14:15:50.0     222   -941    273    967   1005 166.7  15.8  34198  290.20 0854.45
2009/04/23 14:15:50.1     115   -840    305    848    901 172.2  20.8  34182  289.94 0854.45
2009/04/23 14:15:50.2     -35   -656    351    658    745 183.1  30.3  34188  290.06 0854.44
2009/04/23 14:15:50.3     -66   -297    381    305    488 192.7  57.3  34200  290.24 0854.44
2009/04/23 14:15:50.4      -6   -434    247    435    500 180.9  32.0  34188  290.05 0854.44
2009/04/23 14:15:50.5     100   -368    342    382    512 164.7  46.4  34186  290.00 0854.44
2009/04/23 14:15:50.6      17   -380    244    381    452 177.4  35.6  34182  289.94 0854.44
2009/04/23 14:15:50.7    -109   -653    120    663    674 189.5  10.3  34194  290.14 0854.44
2009/04/23 14:15:50.8    -221   -649    143    686    701 198.8  11.8  34192  290.10 0854.44
2009/04/23 14:15:50.9    -117   -550    329    563    652 192.1  33.0  34192  290.13 0854.44
2009/04/23 14:15:51.0      91   -736    405    742    845 172.9  31.0  34174  289.81 0854.44
2009/04/23 14:15:51.1      37   -816    428    817    922 177.4  29.9  34190  290.08 0854.44
2009/04/23 14:15:51.2    -319   -625    186    702    727 207.1  14.9  34196  290.17 0854.43
2009/04/23 14:15:51.3    -296   -518     92    597    605 209.8   8.8  34190  290.08 0854.43
2009/04/23 14:15:51.4    -266   -645    171    698    719 202.4  13.8  34186  290.01 0854.43
2009/04/23 14:15:51.5    -417   -610     17    740    741 214.4   1.4  34184  289.97 0854.43
2009/04/23 14:15:51.6    -250   -872     14    908    909 196.0   0.9  34178  289.89 0854.43
2009/04/23 14:15:51.7    -134   -724    -11    737    738 190.5  -0.9  34182  289.95 0854.43
2009/04/23 14:15:51.8    -275   -480   -201    554    589 209.8 -25.3  34184  289.97 0854.43
2009/04/23 14:15:51.9    -247   -116   -129    273    301 244.8 -31.6  34198  290.20 0854.43
2009/04/23 14:15:52.0    -234   -529     -7    579    580 203.9  -0.7  34198  290.20 0854.43
2009/04/23 14:15:52.1    -510   -829    -95    974    979 211.6  -5.6  34204  290.33 0854.43
2009/04/23 14:15:52.2    -453   -714   -267    846    888 212.4 -17.5  34202  290.30 0854.43
2009/04/23 14:15:52.3    -395   -725   -275    826    870 208.6 -23.6  34184  289.98 0854.43
2009/04/23 14:15:52.4    -343   -581   -198    675    703 210.6 -21.1  34176  289.83 0854.43
2009/04/23 14:15:52.5    -345   -730   -148    808    822 205.3 -10.4  34174  289.81 0854.43
2009/04/23 14:15:52.6    -354   -766   -229    844    875 204.8 -15.2  34176  289.83 0854.43
2009/04/23 14:15:52.7    -338   -710    -79    787    792 205.5  -5.8  34176  289.83 0854.43
2009/04/23 14:15:52.8    -315   -626    -68    701    705 206.7  -5.6  34186  290.00 0854.43
2009/04/23 14:15:52.9    -188   -537   -195    570    603 199.3 -18.9  34178  289.88 0854.43
2009/04/23 14:15:53.0    -150   -539   -273    560    623 195.6 -32.2  34178  289.88 0854.43
2009/04/23 14:15:53.1    -287   -616   -198    680    708 205.0 -21.0  34174  289.81 0854.43
2009/04/23 14:15:53.2    -242   -551   -256    602    654 203.7 -28.9  34184  289.99 0854.38
2009/04/23 14:15:53.3    -105   -547   -257    558    614 190.9 -30.8  34172  289.78 0854.38
2009/04/23 14:15:53.4     139   -421   -148    444    468 161.7 -23.6  34184  289.99 0854.38
2009/04/23 14:15:53.5     107   -467   -171    480    510 167.1 -19.7  34176  289.84 0854.38
2009/04/23 14:15:53.6      67   -484   -150    489    511 172.1 -21.9  34178  289.89 0854.38
2009/04/23 14:15:53.7      -6   -541   -145    542    562 180.7 -15.1  34178  289.89 0854.38
2009/04/23 14:15:53.8     -76   -437    -68    444    450 189.9  -8.8  34172  289.77 0854.38
2009/04/23 14:15:53.9      73   -421   -130    428    447 170.1 -21.8  34174  289.80 0854.38
2009/04/23 14:15:54.0     161   -369    -34    403    405 156.4  -4.9  34166  289.66 0854.38
2009/04/23 14:15:54.1       6   -402    108    403    418 179.1  15.0  34174  289.82 0854.38
2009/04/23 14:15:54.2    -119   -444   -109    460    473 195.1 -13.4  34180  289.91 0854.38
2009/04/23 14:15:54.3      53   -459   -139    463    484 173.4 -16.8  34176  289.83 0854.38
2009/04/23 14:15:54.4     269   -374    -88    461    470 144.3 -10.9  34166  289.67 0854.38
2009/04/23 14:15:54.5     250   -366    -77    444    451 145.7  -9.9  34166  289.68 0854.38
2009/04/23 14:15:54.6     256   -384    -70    462    468 146.3  -8.7  34170  289.74 0854.38
2009/04/23 14:15:54.7     263   -338    -50    429    432 142.1  -6.7  34170  289.73 0854.38
2009/04/23 14:15:54.8     118   -431     -9    448    449 164.6  -1.2  34182  289.95 0854.38
2009/04/23 14:15:54.9     125   -374    -63    395    401 161.5  -9.1  34178  289.87 0854.38
2009/04/23 14:15:55.0     202   -292     24    356    357 145.3   4.0  34178  289.86 0854.38
2009/04/23 14:15:55.1     131   -364     29    387    389 160.2   4.4  34186  290.01 0854.38
2009/04/23 14:15:55.2     137   -340     40    367    370 158.1   6.4  34182  289.93 0854.36
2009/04/23 14:15:55.3      97   -323     92    338    351 163.3  15.3  34176  289.84 0854.36
2009/04/23 14:15:55.4     -51   -276    195    281    342 190.6  38.3  34184  289.98 0854.36
2009/04/23 14:15:55.5     -43   -286    254    290    385 188.7  45.8  34180  289.91 0854.36
2009/04/23 14:15:55.6    -435   -277    146    516    537 237.5  15.8  34200  290.26 0854.36
2009/04/23 14:15:55.7    -319   -340    229    467    520 223.1  28.1  34192  290.13 0854.36
2009/04/23 14:15:55.8    -240   -322    239    402    467 216.8  33.5  34180  289.92 0854.36
2009/04/23 14:15:55.9    -280   -298    245    409    476 223.2  33.8  34178  289.88 0854.36
2009/04/23 14:15:56.0    -393   -212    256    447    515 241.6  32.4  34198  290.23 0854.36
2009/04/23 14:15:56.1    -595    100    172    604    629 279.6  15.9  34194  290.16 0854.36
2009/04/23 14:15:56.2    -592    -53      7    595    596 264.8   0.7  34180  289.91 0854.36
2009/04/23 14:15:56.3    -412   -131     33    433    435 252.3   4.4  34186  290.02 0854.36
2009/04/23 14:15:56.4    -433   -180   -108    470    483 247.4 -13.0  34182  289.95 0854.36
2009/04/23 14:15:56.5    -206   -325   -116    386    403 212.4 -21.7  34176  289.84 0854.36
2009/04/23 14:15:56.6    -439     10   -131    440    460 271.4 -16.6  34166  289.68 0854.36
2009/04/23 14:15:56.7    -371     28    -87    372    383 274.4 -13.3  34160  289.57 0854.36
2009/04/23 14:15:56.8    -352     88      2    363    364 284.2   0.4  34168  289.71 0854.36
2009/04/23 14:15:56.9    -317     24    -22    318    319 274.4  -4.1  34166  289.68 0854.36
2009/04/23 14:15:57.0    -204      3    -42    205    210 270.9 -11.6  34164  289.65 0854.36
2009/04/23 14:15:57.1    -251    -64     41    260    264 255.6   9.0  34170  289.73 0854.36
2009/04/23 14:15:57.2    -190   -157    -73    247    258 230.5 -16.5  34182  289.95 0854.40
2009/04/23 14:15:57.3    -129    -79    -74    152    169 238.5 -32.2  34172  289.79 0854.40
2009/04/23 14:15:57.4    -110     29    -45    114    122 285.1 -26.9  34164  289.63 0854.40
2009/04/23 14:15:57.5    -228    -49     61    234    242 257.8  14.7  34174  289.81 0854.40
2009/04/23 14:15:57.6    -276    -66    -66    284    292 256.5 -13.2  34154  289.47 0854.40
2009/04/23 14:15:57.7    -269     -3    -96    270    286 269.2 -24.6  34168  289.70 0854.40
2009/04/23 14:15:57.8    -284    -59   -146    291    325 258.1 -32.9  34168  289.71 0854.40
2009/04/23 14:15:57.9    -316    -64   -165    323    362 258.6 -33.6  34170  289.74 0854.40
2009/04/23 14:15:58.0    -273    -59   -151    280    318 257.7 -35.1  34172  289.76 0854.40
2009/04/23 14:15:58.1    -145    -20   -175    147    228 262.1 -60.7  34172  289.77 0854.40
2009/04/23 14:15:58.2    -219    -72   -218    231    317 251.6 -52.8  34190  290.09 0854.40
2009/04/23 14:15:58.3    -252   -386   -133    462    480 213.2 -20.8  34188  290.05 0854.40
2009/04/23 14:15:58.4    -206   -430   -143    477    499 205.7 -16.7  34192  290.13 0854.40
2009/04/23 14:15:58.5     -83   -397   -145    406    432 191.9 -19.7  34180  289.92 0854.40
2009/04/23 14:15:58.6      46   -229   -159    234    282 168.4 -41.8  34202  290.29 0854.40
2009/04/23 14:15:58.7     -37   -168    -23    173    175 192.5  -7.7  34198  290.21 0854.40
2009/04/23 14:15:58.8      10   -280   -102    281    298 177.8 -25.3  34200  290.24 0854.40
2009/04/23 14:15:58.9      -9   -384    -55    385    390 181.4  -8.2  34188  290.04 0854.40
2009/04/23 14:15:59.0      -8   -467    -26    468    469 181.0  -3.2  34188  290.05 0854.40
2009/04/23 14:15:59.1      -2   -597    -70    598    603 180.3  -6.7  34182  289.93 0854.40
2009/04/23 14:15:59.2     -13   -555   -186    556    587 181.4 -18.6  34190  290.07 0854.40
2009/04/23 14:15:59.3      69   -600   -138    604    620 173.4 -12.9  34190  290.08 0854.40
2009/04/23 14:15:59.4      57   -526    -87    530    538 173.8  -9.4  34184  289.99 0854.40
2009/04/23 14:15:59.5      80   -423    -36    431    433 169.3  -4.9  34180  289.92 0854.40
2009/04/23 14:15:59.6      34   -518     26    520    521 176.2   2.9  34200  290.24 0854.40
2009/04/23 14:15:59.7     -88   -545     78    553    559 189.2   8.1  34204  290.31 0854.40
2009/04/23 14:15:59.8     -73   -549    -45    554    556 187.6  -4.7  34190  290.09 0854.40
2009/04/23 14:15:59.9    -196   -616   -205    647    679 197.7 -17.6  34174  289.82 0854.40
2009/04/23 14:16:00.0    -188   -252   -184    315    364 216.7 -37.4  34192  290.13 0854.40
2009/04/23 14:16:00.1    -564   -246    -13    616    617 246.4  -1.3  34192  290.11 0854.40
2009/04/23 14:16:00.2    -502   -401   -112    643    653 231.4  -9.9  34194  290.15 0854.40
2009/04/23 14:16:00.3    -289   -453     -3    538    539 212.6  -0.4  34190  290.09 0854.40
2009/04/23 14:16:00.4    -226   -462    -14    515    516 206.1  -1.6  34178  289.88 0854.40
2009/04/23 14:16:00.5    -164   -390     64    424    429 202.8   8.7  34194  290.14 0854.40
2009/04/23 14:16:00.6    -269   -457     63    531    535 210.5   6.9  34194  290.16 0854.40
2009/04/23 14:16:00.7    -295   -538    124    614    627 208.8  11.4  34206  290.35 0854.40
2009/04/23 14:16:00.8    -400   -527    -79    662    667 217.2  -6.9  34192  290.12 0854.40
2009/04/23 14:16:00.9    -277   -463   -109    540    551 210.9 -11.5  34186  290.01 0854.40
2009/04/23 14:16:01.0    -533   -429   -108    685    694 231.1  -9.0  34192  290.10 0854.40
2009/04/23 14:16:01.1    -487   -463    125    673    685 226.5  10.6  34180  289.92 0854.40
2009/04/23 14:16:01.2    -388   -335     39    513    515 229.2   4.4  34194  290.15 0854.31
2009/04/23 14:16:01.3    -540   -245    -36    594    596 245.6  -3.5  34202  290.27 0854.31
2009/04/23 14:16:01.4    -344   -337     -9    482    483 225.6  -1.2  34184  289.98 0854.31
2009/04/23 14:16:01.5    -255   -284    218    382    439 221.9  32.3  34190  290.09 0854.31
2009/04/23 14:16:01.6    -216   -242    226    325    395 221.7  38.3  34194  290.15 0854.31
2009/04/23 14:16:01.7      71   -393    170    400    434 169.8  24.5  34210  290.41 0854.31
2009/04/23 14:16:01.8     -94   -427    -32    438    440 192.5  -4.2  34200  290.26 0854.31
2009/04/23 14:16:01.9     -43   -599     75    601    606 184.1   7.2  34208  290.39 0854.31
2009/04/23 14:16:02.0     236   -564     52    612    615 157.3   4.9  34194  290.14 0854.31
2009/04/23 14:16:02.1      56   -514    -27    518    519 173.8  -3.0  34198  290.23 0854.31
2009/04/23 14:16:02.2     212   -199    -98    292    309 133.2 -18.6  34198  290.20 0854.31
2009/04/23 14:16:02.3     286   -240     81    374    383 130.1  12.3  34188  290.04 0854.31
2009/04/23 14:16:02.4     285   -156    216    326    391 118.8  36.6  34192  290.10 0854.31
2009/04/23 14:16:02.5     200   -205    143    287    320 135.7  28.5  34188  290.03 0854.31
2009/04/23 14:16:02.6     139   -172    252    222    335 141.0  54.2  34202  290.27 0854.31
2009/04/23 14:16:02.7     -14    -32    108     35    113 203.6  80.7  34204  290.33 0854.31
2009/04/23 14:16:02.8     -55   -250    291    257    388 192.4  54.2  34196  290.18 0854.31
2009/04/23 14:16:02.9    -134   -362    235    387    452 200.3  34.2  34188  290.04 0854.31
2009/04/23 14:16:03.0       6   -384    139    385    410 179.0  19.9  34202  290.28 0854.31
2009/04/23 14:16:03.1    -225   -432    167    488    516 207.5  18.9  34202  290.29 0854.31
2009/04/23 14:16:03.2     -91   -533    105    541    552 189.7  11.0  34214  290.48 0854.28
2009/04/23 14:16:03.3    -201   -642    130    673    686 197.4  11.0  34210  290.43 0854.28
2009/04/23 14:16:03.4    -113   -556    110    568    579 191.6  11.0  34204  290.31 0854.28
2009/04/23 14:16:03.5    -119   -500    -59    515    519 193.4  -6.6  34208  290.37 0854.28
2009/04/23 14:16:03.6    -281   -586    -62    651    655 205.7  -5.5  34200  290.25 0854.28
2009/04/23 14:16:03.7    -231   -696    101    734    741 198.4   7.9  34212  290.46 0854.28
2009/04/23 14:16:03.8    -223   -548    104    592    602 202.2  10.0  34210  290.42 0854.28
2009/04/23 14:16:03.9    -212   -534    105    575    585 201.7  10.4  34220  290.59 0854.28
2009/04/23 14:16:04.0    -327   -488     93    588    596 213.9   9.0  34218  290.54 0854.28
2009/04/23 14:16:04.1    -383   -502    159    632    652 217.3  14.2  34210  290.43 0854.28
2009/04/23 14:16:04.2    -278   -518    268    588    646 208.2  26.3  34216  290.52 0854.28
2009/04/23 14:16:04.3    -317   -446    165    548    573 215.4  16.8  34204  290.31 0854.28
2009/04/23 14:16:04.4    -289   -300    -49    417    420 223.9  -6.8  34214  290.50 0854.28
2009/04/23 14:16:04.5    -373   -338   -263    504    568 227.8 -34.2  34206  290.36 0854.28
2009/04/23 14:16:04.6    -361   -367   -209    515    555 224.5 -27.8  34212  290.45 0854.28
2009/04/23 14:16:04.7    -293   -431   -119    522    536 214.2 -12.9  34218  290.55 0854.28
2009/04/23 14:16:04.8    -253   -372    -34    451    453 214.3  -4.4  34218  290.56 0854.28
2009/04/23 14:16:04.9    -177   -224   -146    286    321 218.3 -33.7  34218  290.54 0854.28
2009/04/23 14:16:05.0    -318   -232   -119    394    412 233.9 -16.8  34220  290.60 0854.28
2009/04/23 14:16:05.1    -241   -298   -131    384    406 219.0 -18.9  34248  291.06 0854.28
2009/04/23 14:16:05.2    -370   -307   -231    481    533 230.3 -31.7  34212  290.47 0854.29
2009/04/23 14:16:05.3    -251   -392   -154    466    490 212.7 -23.5  34212  290.44 0854.29
2009/04/23 14:16:05.4     -93   -162   -140    187    233 209.9 -44.8  34218  290.57 0854.29
2009/04/23 14:16:05.5     -85   -231    -22    247    249 200.3  -5.2  34208  290.39 0854.29
2009/04/23 14:16:05.6     -81   -253    -24    266    268 197.8  -5.2  34204  290.31 0854.29
2009/04/23 14:16:05.7      20   -296    114    297    318 176.0  22.0  34200  290.26 0854.29
2009/04/23 14:16:05.8    -123   -459    211    476    520 195.0  25.6  34212  290.45 0854.29
2009/04/23 14:16:05.9    -182   -485    102    519    530 200.6  11.1  34208  290.38 0854.29
2009/04/23 14:16:06.0    -245   -522    101    577    587 205.2  10.0  34206  290.36 0854.29
2009/04/23 14:16:06.1    -159   -683     78    702    707 193.1   6.4  34210  290.42 0854.29
2009/04/23 14:16:06.2    -368   -671     -9    766    767 208.8  -0.7  34200  290.26 0854.29
2009/04/23 14:16:06.3    -342   -504    -66    610    614 214.2  -6.2  34196  290.17 0854.29
2009/04/23 14:16:06.4     -76   -614    -34    619    620 187.1  -3.2  34184  289.98 0854.29
2009/04/23 14:16:06.5     -94   -665     38    672    674 188.1   3.2  34192  290.10 0854.29
2009/04/23 14:16:06.6    -115   -681     45    691    693 189.6   3.7  34186  290.02 0854.29
2009/04/23 14:16:06.7    -172   -549     59    576    580 197.4   5.9  34186  290.02 0854.29
2009/04/23 14:16:06.8    -180   -545    -22    574    575 198.3  -2.2  34192  290.10 0854.29
2009/04/23 14:16:06.9    -267   -411   -115    491    505 213.0 -13.3  34198  290.20 0854.29
2009/04/23 14:16:07.0    -183   -607    -46    634    636 196.8  -4.2  34198  290.21 0854.29
2009/04/23 14:16:07.1    -208   -649   -176    682    705 197.8 -14.5  34200  290.25 0854.29
2009/04/23 14:16:07.2    -140   -624   -197    640    670 192.7 -17.2  34192  290.12 0854.35
2009/04/23 14:16:07.3    -173   -602   -151    627    645 196.0 -13.6  34198  290.21 0854.35
2009/04/23 14:16:07.4    -237   -540   -199    590    624 203.7 -18.7  34196  290.19 0854.35
2009/04/23 14:16:07.6    -323   -478    -26    578    579 214.1  -2.6  34192  290.10 0854.35
2009/04/23 14:16:07.6    -227   -494    -86    544    551 204.7  -9.0  34204  290.31 0854.35
2009/04/23 14:16:07.7    -105   -513   -166    524    550 191.6 -17.6  34202  290.30 0854.35
2009/04/23 14:16:07.8     -45   -584    -57    586    589 184.5  -5.6  34198  290.22 0854.35
2009/04/23 14:16:07.9      20   -450     22    451    452 177.4   2.9  34196  290.19 0854.35
2009/04/23 14:16:08.0     -67   -563     59    568    572 186.9   6.0  34200  290.24 0854.35
2009/04/23 14:16:08.1     -90   -482     84    491    499 190.6   9.7  34200  290.25 0854.35
2009/04/23 14:16:08.2    -246   -452    -16    515    516 208.6  -1.8  34206  290.35 0854.35
2009/04/23 14:16:08.3     -68   -530    156    535    558 187.3  16.3  34208  290.40 0854.35
2009/04/23 14:16:08.4    -131   -478    -21    496    497 195.4  -2.5  34214  290.49 0854.35
2009/04/23 14:16:08.5       7   -475     29    476    477 179.1   3.5  34214  290.49 0854.35
2009/04/23 14:16:08.6      42   -378    172    381    418 173.5  26.0  34204  290.33 0854.35
2009/04/23 14:16:08.7     166   -368    141    404    429 155.7  19.3  34212  290.46 0854.35
2009/04/23 14:16:08.8      90   -373    117    384    402 166.4  17.0  34204  290.33 0854.35
2009/04/23 14:16:09.0     284   -429    142    515    535 146.5  15.4  34202  290.30 0854.35
2009/04/23 14:16:09.1     227   -369    154    434    460 148.4  20.3  34212  290.44 0854.35
2009/04/23 14:16:09.1     225   -415      6    473    474 151.5   0.8  34208  290.39 0854.35
2009/04/23 14:16:09.3     162   -332     24    370    371 154.0   3.8  34210  290.43 0854.42
2009/04/23 14:16:09.4     136   -329     65    357    363 157.5  10.4  34210  290.42 0854.42
2009/04/23 14:16:09.5      60   -295    104    302    320 168.4  19.1  34208  290.39 0854.42
2009/04/23 14:16:09.6       7   -390    148    391    418 178.9  21.7  34226  290.70 0854.42
2009/04/23 14:16:09.7      71   -325     38    333    336 167.6   6.6  34224  290.67 0854.42
2009/04/23 14:16:09.8     105   -204    196    230    302 152.6  44.9  34210  290.42 0854.42
2009/04/23 14:16:09.9       0   -198     92    199    219 180.0  26.6  34214  290.50 0854.42
2009/04/23 14:16:10.0      38    -46    136     60    148 140.4  74.9  34214  290.50 0854.42
2009/04/23 14:16:10.1     174   -185    159    255    300 136.7  35.5  34238  290.88 0854.42
2009/04/23 14:16:10.2      60   -165    184    176    254 160.0  51.4  34230  290.77 0854.42
2009/04/23 14:16:10.3      30   -202    194    205    282 171.5  48.2  34234  290.83 0854.38
2009/04/23 14:16:10.4     -15   -187    197    188    272 184.9  51.4  34220  290.59 0854.38
2009/04/23 14:16:10.5     -70   -190    122    203    236 200.3  33.7  34218  290.55 0854.38
2009/04/23 14:16:10.6    -196   -139    135    241    276 234.7  31.6  34254  291.17 0854.38
2009/04/23 14:16:10.7    -190   -170    118    256    281 228.2  26.4  34252  291.14 0854.38
2009/04/23 14:16:10.8    -121   -179     98    217    238 214.2  25.9  34238  290.89 0854.38
2009/04/23 14:16:10.9     -17   -228    224    229    320 184.4  49.7  34240  290.92 0854.38
2009/04/23 14:16:11.0     -12   -255    168    256    306 182.7  36.3  34230  290.75 0854.38
2009/04/23 14:16:11.1    -245   -211    123    324    346 229.3  21.8  34224  290.67 0854.38
2009/04/23 14:16:11.2      -9   -129     92    130    159 184.0  38.8  34226  290.70 0854.38
2009/04/23 14:16:11.3      67   -148    107    163    194 155.5  36.0  34228  290.72 0854.38
2009/04/23 14:16:11.4       5    -80    148     81    168 176.4  69.1  34232  290.79 0854.38
2009/04/23 14:16:11.5     -24   -214    250    216    330 186.5  54.8  34254  291.17 0854.38
2009/04/23 14:16:11.6     -79   -213    265    228    349 200.5  55.0  34246  291.02 0854.38
2009/04/23 14:16:11.7    -165   -235    286    288    405 215.0  50.0  34250  291.11 0854.38
2009/04/23 14:16:11.8     -45   -217    281    222    358 191.8  57.9  34246  291.04 0854.38
2009/04/23 14:16:11.9     -39   -129    167    135    214 196.9  56.6  34226  290.69 0854.38
2009/04/23 14:16:12.0      31    -69     98     76    124 155.5  58.5  34232  290.79 0854.38
2009/04/23 14:16:12.1     -42   -209     18    214    215 191.6   4.9  34214  290.48 0854.38
2009/04/23 14:16:12.2     -86    -71     53    112    123 230.5  27.1  34218  290.57 0854.38
2009/04/23 14:16:12.3      38    -95    174    103    202 158.1  66.8  34228  290.72 0854.44
2009/04/23 14:16:12.4    -289   -348    206    453    497 219.7  26.2  34252  291.12 0854.44
2009/04/23 14:16:12.5    -154   -321    203    357    410 205.7  32.1  34226  290.69 0854.44
2009/04/23 14:16:12.6    -129   -338    137    363    387 201.0  21.6  34214  290.49 0854.44
2009/04/23 14:16:12.7    -210   -181     45    278    282 229.3   9.3  34202  290.29 0854.44
2009/04/23 14:16:12.8    -264   -317    113    413    429 219.8  15.3  34208  290.39 0854.44
2009/04/23 14:16:12.9    -348   -326     48    478    481 226.9   5.8  34216  290.52 0854.44
2009/04/23 14:16:13.0    -265   -313     77    411    419 220.2  10.7  34216  290.51 0854.44
2009/04/23 14:16:13.1    -331   -253     81    417    425 232.6  11.0  34220  290.60 0854.44
2009/04/23 14:16:13.2    -229   -208    161    310    349 227.8  29.5  34222  290.64 0854.44
2009/04/23 14:16:13.3    -138   -346    124    373    394 201.9  18.4  34220  290.59 0854.44
2009/04/23 14:16:13.4     -47   -232     81    237    251 191.6  18.9  34226  290.68 0854.44
2009/04/23 14:16:13.5      28   -105     67    109    127 164.9  35.0  34226  290.69 0854.44
2009/04/23 14:16:13.6     -58    -91    107    108    152 212.5  50.0  34234  290.84 0854.44
2009/04/23 14:16:13.7    -226    -24     52    228    234 263.9  12.9  34232  290.79 0854.44
2009/04/23 14:16:13.8    -165    -12     43    166    172 265.6  14.7  34226  290.70 0854.44
2009/04/23 14:16:13.9    -149     31     36    153    158 281.9  13.2  34234  290.84 0854.44
2009/04/23 14:16:14.0     -81    -39    103     90    136 244.2  54.3  34240  290.94 0854.44
2009/04/23 14:16:14.1    -103   -150    111    183    214 214.5  34.4  34234  290.82 0854.44
2009/04/23 14:16:14.2    -168   -251    124    303    327 213.8  23.5  34230  290.75 0854.44
2009/04/23 14:16:14.3    -215   -172   -127    276    303 231.4 -31.0  34202  290.29 0854.38
2009/04/23 14:16:14.4    -260   -218   -193    340    390 230.1 -36.7  34194  290.16 0854.38
2009/04/23 14:16:14.5    -182    209     -3    278    279 319.0  -0.7  34198  290.22 0854.38
2009/04/23 14:16:14.6    -348    153    -41    381    384 293.7  -6.3  34222  290.62 0854.38
2009/04/23 14:16:14.7     -99    130     23    164    166 322.6   8.0  34226  290.69 0854.38
2009/04/23 14:16:14.8    -209    221    135    305    333 316.7  25.6  34256  291.19 0854.38
2009/04/23 14:16:14.9     -30     89    123     94    154 341.3  58.5  34256  291.21 0854.38
2009/04/23 14:16:15.0    -196   -125    121    233    262 237.5  29.8  34254  291.16 0854.38
2009/04/23 14:16:15.1    -239    -48    153    244    288 258.5  35.5  34238  290.88 0854.38
2009/04/23 14:16:15.2    -302     -6     19    303    304 268.7   3.6  34226  290.70 0854.38
2009/04/23 14:16:15.3    -349    -59    115    355    374 260.3  17.9  34220  290.59 0854.38
2009/04/23 14:16:15.4    -250    -91     50    267    272 250.0  10.6  34208  290.37 0854.38
2009/04/23 14:16:15.5    -263    104     34    284    287 291.7   6.9  34232  290.78 0854.38
2009/04/23 14:16:15.6     -56     52     64     77    100 313.1  43.8  34228  290.72 0854.38
2009/04/23 14:16:15.7    -156   -196    137    251    285 218.5  31.3  34202  290.29 0854.38
2009/04/23 14:16:15.8    -142   -255    105    293    311 209.2  20.2  34192  290.12 0854.38
2009/04/23 14:16:15.9    -116   -220     88    250    266 207.9  19.4  34196  290.19 0854.38
2009/04/23 14:16:16.0      -2   -163    116    164    200 180.9  38.8  34218  290.55 0854.38
2009/04/23 14:16:16.1      10   -173    107    174    204 176.6  34.8  34212  290.47 0854.38
2009/04/23 14:16:16.2      96   -140     42    171    177 145.5  13.9  34222  290.64 0854.38
2009/04/23 14:16:16.3      -2   -156    -47    157    164 180.9 -16.8  34200  290.25 0854.25
2009/04/23 14:16:16.4      67     84    -75    108    131  38.7 -42.4  34210  290.43 0854.25
2009/04/23 14:16:16.5     133    128     89    185    205  46.0  27.3  34238  290.91 0854.25
2009/04/23 14:16:16.6      91    119    210    151    258  37.4  60.6  34250  291.09 0854.25
2009/04/23 14:16:16.7      18     31     92     37     99  30.7  77.1  34224  290.67 0854.25
2009/04/23 14:16:16.8     -19   -136    121    138    183 188.0  46.2  34218  290.57 0854.25
2009/04/23 14:16:16.9      87   -131    125    158    201 146.2  42.4  34228  290.74 0854.25
2009/04/23 14:16:17.0      22   -110     74    113    135 168.4  35.6  34214  290.50 0854.25
2009/04/23 14:16:17.1     170    -83    165    190    251 116.2  45.6  34210  290.41 0854.25
2009/04/23 14:16:17.2      67   -106    203    126    238 147.4  65.4  34208  290.38 0854.25
2009/04/23 14:16:17.3     259    -96    197    277    339 110.4  39.0  34194  290.14 0854.25
2009/04/23 14:16:17.4     222   -231    140    321    350 136.1  25.1  34194  290.16 0854.25
2009/04/23 14:16:17.5       1   -203    217    204    297 179.5  52.1  34220  290.58 0854.25
2009/04/23 14:16:17.6     137   -182    194    228    299 143.0  44.8  34202  290.29 0854.25
2009/04/23 14:16:17.7     254   -120    228    282    362 115.4  43.3  34198  290.23 0854.25
2009/04/23 14:16:17.8     358   -227    173    424    457 122.4  23.2  34192  290.12 0854.25
2009/04/23 14:16:17.9     283   -155    112    323    343 118.8  19.2  34194  290.16 0854.25
2009/04/23 14:16:18.0     263   -189    130    324    349 125.7  23.0  34192  290.13 0854.25
2009/04/23 14:16:18.1     264   -154     99    306    322 120.2  18.0  34194  290.14 0854.25
2009/04/23 14:16:18.2     176   -218     33    281    284 141.0   6.9  34196  290.19 0854.25
2009/04/23 14:16:18.3     184   -280     30    336    338 146.7   5.2  34192  290.11 0854.24
2009/04/23 14:16:18.4      63   -276     97    284    301 167.1  18.9  34194  290.14 0854.24
2009/04/23 14:16:18.5      22   -318    163    319    358 176.0  29.2  34196  290.18 0854.24
2009/04/23 14:16:18.6      14   -285    215    286    357 177.1  40.7  34198  290.20 0854.24
2009/04/23 14:16:18.7     -47   -394    304    397    500 186.9  41.3  34202  290.30 0854.24
2009/04/23 14:16:18.8     -57   -367    125    372    393 188.9  18.6  34200  290.25 0854.24
2009/04/23 14:16:18.9    -131   -329     96    355    368 201.7  15.2  34202  290.27 0854.24
2009/04/23 14:16:19.0     -51   -370     -5    374    375 187.9  -0.9  34202  290.28 0854.24
2009/04/23 14:16:19.1     -58   -333     -4    339    340 190.0  -0.7  34198  290.21 0854.24
2009/04/23 14:16:19.2     -22   -318     -9    319    320 184.0  -1.7  34192  290.12 0854.24
2009/04/23 14:16:19.3     -41   -308     38    311    314 187.6   7.1  34196  290.17 0854.24
2009/04/23 14:16:19.4     -98   -310     82    326    337 197.6  14.2  34198  290.21 0854.24
2009/04/23 14:16:19.5    -178   -408     30    446    447 203.6   3.9  34200  290.26 0854.24
2009/04/23 14:16:19.6    -158   -469     47    496    499 198.7   5.4  34196  290.18 0854.24
2009/04/23 14:16:19.7     -97   -418    148    430    455 193.2  19.1  34192  290.11 0854.24
2009/04/23 14:16:19.8     -49   -399    107    403    418 187.1  14.9  34198  290.21 0854.24
2009/04/23 14:16:19.9     -80   -382     76    391    399 191.9  11.0  34198  290.21 0854.24
2009/04/23 14:16:20.0     -57   -386    136    391    415 188.5  19.2  34198  290.21 0854.24
2009/04/23 14:16:20.1    -186   -316    232    367    434 210.5  35.5  34192  290.12 0854.24
2009/04/23 14:16:20.2    -213   -268    359    343    496 218.5  51.5  34200  290.24 0854.24
2009/04/23 14:16:20.3     -30    -67    204     74    217 204.5  79.2  34216  290.52 0854.24
2009/04/23 14:16:20.4      60   -179    161    190    249 161.3  44.5  34204  290.33 0854.24
2009/04/23 14:16:20.5     135   -146    227    200    302 137.2  54.2  34210  290.41 0854.24
2009/04/23 14:16:20.6      -2    -38    214     39    217 184.4  90.0  34218  290.57 0854.24
2009/04/23 14:16:20.7       0   -246    231    247    338 180.0  48.0  34200  290.24 0854.24
2009/04/23 14:16:20.8      -9   -296    214    297    366 181.8  39.3  34194  290.16 0854.24
2009/04/23 14:16:20.9     107   -446    232    459    514 166.5  28.9  34188  290.06 0854.24
2009/04/23 14:16:21.0       0   -545    300    546    622 180.0  31.3  34194  290.15 0854.24
2009/04/23 14:16:21.1     -43   -554    235    556    603 184.5  24.3  34192  290.12 0854.24
2009/04/23 14:16:21.2     -78   -524    265    530    592 188.5  28.7  34194  290.14 0854.24
2009/04/23 14:16:21.3     -25   -558    348    559    658 182.6  34.9  34196  290.18 0854.24
2009/04/23 14:16:21.4     149   -535    391    556    679 164.4  38.5  34204  290.32 0854.24
2009/04/23 14:16:21.5      80   -400    345    408    534 168.7  44.4  34192  290.10 0854.24
2009/04/23 14:16:21.6      81   -488    201    495    534 170.6  23.4  34212  290.45 0854.24
2009/04/23 14:16:21.7      -5   -548     35    549    551 180.6   3.7  34188  290.06 0854.24
2009/04/23 14:16:21.8    -112   -564     86    576    583 191.2   8.5  34186  290.02 0854.24
2009/04/23 14:16:21.9      25   -493    -39    494    496 177.1  -4.6  34192  290.10 0854.24
2009/04/23 14:16:22.0     150   -383     52    412    416 158.6   7.2  34196  290.17 0854.24
2009/04/23 14:16:22.1     167   -326    152    367    397 152.9  23.8  34194  290.15 0854.24
2009/04/23 14:16:22.2      37   -271    223    274    353 172.2  43.4  34182  289.94 0854.24
2009/04/23 14:16:22.3     155   -280    194    321    375 151.0  34.0  34200  290.25 0854.30
2009/04/23 14:16:22.4      84   -227    145    243    282 159.5  33.5  34196  290.17 0854.30
2009/04/23 14:16:22.5      -3   -209    104    210    234 181.0  28.2  34190  290.09 0854.30
2009/04/23 14:16:22.6      32   -163    -69    167    180 168.7 -28.0  34190  290.08 0854.30
2009/04/23 14:16:22.7     -36    -88     26     96    100 202.3  15.3  34190  290.08 0854.30
2009/04/23 14:16:22.8    -111    -72     47    133    142 237.1  19.4  34192  290.11 0854.30
2009/04/23 14:16:22.9     -65   -138   -143    153    209 205.5 -52.4  34198  290.21 0854.30
2009/04/23 14:16:23.0     -61    -47   -156     78    174 232.2 -76.1  34202  290.28 0854.30
2009/04/23 14:16:23.1     -81    262     97    275    292 342.8  19.4  34198  290.20 0854.30
2009/04/23 14:16:23.2    -100    229    104    250    270 336.4  24.1  34210  290.42 0854.30
2009/04/23 14:16:23.3     -48    235    -74    240    252 348.4 -17.3  34208  290.39 0854.30
2009/04/23 14:16:23.4     -18    184   -127    185    224 354.2 -42.0  34214  290.48 0854.30
2009/04/23 14:16:23.5     -14    131     92    132    160 353.8  38.4  34216  290.52 0854.30
2009/04/23 14:16:23.6    -149      2    136    150    202 270.9  47.1  34208  290.40 0854.30
2009/04/23 14:16:23.7    -123   -156     22    199    201 218.3   6.5  34202  290.28 0854.30
2009/04/23 14:16:23.8     -84   -239    105    254    274 199.4  23.8  34194  290.14 0854.30
2009/04/23 14:16:23.9     -34   -149    103    153    184 192.9  37.0  34192  290.11 0854.30
2009/04/23 14:16:24.0      85    -54    171    101    198 122.4  66.8  34214  290.48 0854.30
2009/04/23 14:16:24.1     -35     55    198     66    208 327.5  81.0  34222  290.64 0854.30
2009/04/23 14:16:24.2      48      5    163     49    170  83.9  82.5  34216  290.53 0854.30
2009/04/23 14:16:24.3     -18   -120    104    122    160 188.5  45.1  34202  290.30 0854.32
2009/04/23 14:16:24.4       5    -98     42     99    107 176.9  23.6  34200  290.25 0854.32
2009/04/23 14:16:24.5      57    -15     45     60     75 105.1  39.7  34206  290.36 0854.32
2009/04/23 14:16:24.6     117     16     58    119    132  82.0  27.3  34200  290.26 0854.32
2009/04/23 14:16:24.7     170      0    156    171    231  90.0  47.5  34196  290.19 0854.32
2009/04/23 14:16:24.8     127    -21    120    129    176  99.7  47.9  34196  290.19 0854.32
2009/04/23 14:16:24.9     252     -7    222    253    336  91.7  45.8  34194  290.15 0854.32
2009/04/23 14:16:25.0     180      1    228    181    291  89.4  57.5  34200  290.24 0854.32
2009/04/23 14:16:25.1     193   -130    221    233    321 124.0  48.5  34206  290.34 0854.32
2009/04/23 14:16:25.2     204   -182    211    274    345 131.8  41.4  34190  290.09 0854.32
2009/04/23 14:16:25.3     324   -139    289    353    456 113.3  43.7  34196  290.17 0854.32
2009/04/23 14:16:25.4     274   -149    190    313    366 118.6  34.1  34194  290.15 0854.32
2009/04/23 14:16:25.5     383   -178    118    423    440 115.0  15.6  34182  289.95 0854.32
2009/04/23 14:16:25.6     390   -247     39    462    464 122.4   4.9  34176  289.83 0854.32
2009/04/23 14:16:25.7     329   -384    118    506    520 139.4  13.1  34176  289.84 0854.32
2009/04/23 14:16:25.8     384   -333    -65    509    514 130.9  -7.3  34178  289.89 0854.32
2009/04/23 14:16:25.9     303   -348     73    462    468 139.0   9.0  34178  289.86 0854.32
2009/04/23 14:16:26.0     279   -299     63    409    414 137.0   8.8  34168  289.72 0854.32
2009/04/23 14:16:26.1     218   -331    133    397    419 146.6  18.6  34174  289.82 0854.32
2009/04/23 14:16:26.2      95   -412    140    423    446 167.0  18.4  34182  289.94 0854.32
2009/04/23 14:16:26.3      30   -399     46    401    404 175.7   6.6  34188  290.04 0854.33
2009/04/23 14:16:26.4     207   -219    -38    302    305 136.7  -7.2  34174  289.81 0854.33
2009/04/23 14:16:26.5     305     36   -109    308    326  83.2 -24.5  34178  289.88 0854.33
2009/04/23 14:16:26.6     219     71    -73    231    243  72.1 -17.5  34176  289.83 0854.33
2009/04/23 14:16:26.7     124     80    -94    148    175  57.1 -39.9  34184  289.97 0854.33
2009/04/23 14:16:26.8      59     -7     -5     60     61  97.0  -5.2  34188  290.06 0854.33
2009/04/23 14:16:26.9      13    -33    -12     36     37 158.2 -23.6  34190  290.09 0854.33
2009/04/23 14:16:27.0    -134     27   -129    137    188 281.4 -52.6  34190  290.08 0854.33
2009/04/23 14:16:27.1    -144      3    -56    145    155 271.3 -25.9  34196  290.18 0854.33
2009/04/23 14:16:27.2    -229     40    -45    233    238 279.9 -11.1  34196  290.17 0854.33
2009/04/23 14:16:27.3    -105     74    -87    129    155 305.5 -41.4  34204  290.31 0854.35
2009/04/23 14:16:27.4      44     79    -87     91    125  29.4 -53.4  34198  290.23 0854.35
2009/04/23 14:16:27.5      15     29    -79     33     85  27.2 -80.5  34206  290.36 0854.35
2009/04/23 14:16:27.6      32     15    -22     36     42  64.7 -38.8  34200  290.26 0854.35
2009/04/23 14:16:27.7     -56     62    -24     84     88 318.1 -16.0  34198  290.23 0854.35
2009/04/23 14:16:27.8     -28     87    -44     92    101 341.7 -31.6  34198  290.23 0854.35
2009/04/23 14:16:27.9     -45     85    -11     97     98 331.9  -6.7  34194  290.16 0854.35
2009/04/23 14:16:28.0      -8     70     55     71     89 352.9  42.2  34208  290.40 0854.35
2009/04/23 14:16:28.1     -63     25     88     68    111 291.8  57.9  34224  290.67 0854.35
2009/04/23 14:16:28.2     -69     23    131     73    149 288.6  68.8  34238  290.89 0854.35
2009/04/23 14:16:28.3     -90     42    216    100    238 295.3  73.5  34242  290.98 0854.35
2009/04/23 14:16:28.4    -304    -23    147    305    338 265.7  27.7  34248  291.07 0854.35
2009/04/23 14:16:28.5    -302   -126    228    328    399 247.4  38.3  34240  290.94 0854.35
2009/04/23 14:16:28.6    -126   -227    282    260    383 209.0  52.5  34206  290.35 0854.35
2009/04/23 14:16:28.7    -109   -251    280    274    391 203.6  50.8  34220  290.59 0854.35
2009/04/23 14:16:28.8     -80   -249    197    262    327 197.9  40.8  34196  290.17 0854.35
2009/04/23 14:16:28.9    -107   -318    223    336    403 198.7  36.6  34194  290.15 0854.35
2009/04/23 14:16:29.0     -11   -192    213    193    287 183.4  53.3  34204  290.31 0854.35
2009/04/23 14:16:29.1      59    -16    175     62    185 105.1  80.5  34226  290.70 0854.35
2009/04/23 14:16:29.2     153    -69    169    169    239 114.4  50.1  34214  290.50 0854.35
2009/04/23 14:16:29.3      58    -54    149     80    169 133.1  69.6  34218  290.57 0854.37
2009/04/23 14:16:29.4       2    -31    161     32    164 175.5  89.6  34214  290.50 0854.37
2009/04/23 14:16:29.5       8   -237    250    238    345 178.0  51.6  34204  290.32 0854.37
2009/04/23 14:16:29.6      68   -358    283    365    461 169.1  41.7  34204  290.33 0854.37
2009/04/23 14:16:29.7     207   -458    209    503    544 155.6  23.9  34198  290.21 0854.37
2009/04/23 14:16:29.8     107   -381    168    396    430 164.2  24.5  34190  290.09 0854.37
2009/04/23 14:16:29.9       8   -386    133    387    410 178.8  19.1  34190  290.08 0854.37
2009/04/23 14:16:30.0     -12   -388    122    389    408 181.9  17.5  34192  290.10 0854.37
2009/04/23 14:16:30.1      27   -355    211    356    413 175.6  33.5  34192  290.11 0854.37
2009/04/23 14:16:30.2      68   -288    153    297    334 166.6  29.4  34188  290.05 0854.37
2009/04/23 14:16:30.3      67   -248     98    257    275 164.9  22.0  34188  290.05 0854.37
2009/04/23 14:16:30.4     -12   -240    154    241    286 182.9  35.6  34196  290.17 0854.37
2009/04/23 14:16:30.5      98   -181    131    207    244 151.5  35.5  34196  290.17 0854.37
2009/04/23 14:16:30.6      84   -194    115    212    241 156.4  30.8  34192  290.13 0854.37
2009/04/23 14:16:30.7      67   -165     45    179    185 157.7  14.3  34194  290.14 0854.37
2009/04/23 14:16:30.8      14   -181     65    182    193 175.5  20.0  34192  290.11 0854.37
2009/04/23 14:16:30.9    -134   -190    -63    233    242 215.2 -15.2  34190  290.07 0854.37
2009/04/23 14:16:31.0    -136   -177     26    224    226 217.6   6.7  34194  290.16 0854.37
2009/04/23 14:16:31.1     -53   -256    121    262    288 191.8  26.6  34196  290.19 0854.37
2009/04/23 14:16:31.2     -84   -277     -1    290    291 196.9  -0.3  34196  290.17 0854.37
2009/04/23 14:16:31.3    -130   -288    -74    317    326 204.3 -13.3  34198  290.20 0854.43
2009/04/23 14:16:31.4       3   -145    185    146    235 178.6  57.7  34216  290.52 0854.43
2009/04/23 14:16:31.5     146    -64    252    160    298 113.6  64.7  34204  290.31 0854.43
2009/04/23 14:16:31.6     105    -67    177    125    216 122.5  61.3  34212  290.47 0854.43
2009/04/23 14:16:31.7      28   -133    172    136    219 168.0  57.7  34204  290.31 0854.43
2009/04/23 14:16:31.8     212    -56    225    220    314 105.0  50.7  34214  290.48 0854.43
2009/04/23 14:16:31.9     206    -56    117    214    243 105.3  31.3  34204  290.32 0854.43
2009/04/23 14:16:32.0     189   -107    144    218    261 119.5  36.5  34202  290.29 0854.43
2009/04/23 14:16:32.1     119   -323    -82    345    355 159.7 -13.4  34204  290.33 0854.43
2009/04/23 14:16:32.2     198   -314     34    372    374 147.8   5.3  34202  290.30 0854.43
2009/04/23 14:16:32.3     188   -342    109    391    406 151.2  15.6  34206  290.35 0854.43
2009/04/23 14:16:32.4     183   -349     84    395    404 152.3  12.0  34202  290.30 0854.43
2009/04/23 14:16:32.5      62   -328    155    334    368 169.2  26.9  34198  290.21 0854.43
2009/04/23 14:16:32.6      87   -423    221    433    486 168.3  29.2  34192  290.12 0854.43
2009/04/23 14:16:32.7     141   -554    249    572    623 165.7  25.0  34194  290.14 0854.43
2009/04/23 14:16:32.8     189   -771    280    794    841 166.2  20.3  34188  290.06 0854.43
2009/04/23 14:16:32.9     247   -742    338    783    852 161.5  24.9  34182  289.96 0854.43
2009/04/23 14:16:33.0     326   -715    344    786    857 155.5  25.2  34186  290.01 0854.43
2009/04/23 14:16:33.1     322   -837     11    897    898 158.9   0.7  34188  290.03 0854.43
2009/04/23 14:16:33.2     211   -737     46    767    769 164.0   3.5  34176  289.85 0854.43
2009/04/23 14:16:33.3     294   -664     22    727    728 156.1   1.8  34176  289.84 0854.46
2009/04/23 14:16:33.4     182   -523    111    554    566 160.8  11.3  34178  289.87 0854.46
2009/04/23 14:16:33.5     -58   -458    220    462    511 187.3  27.3  34186  290.01 0854.46
2009/04/23 14:16:33.6    -143   -563    247    582    632 194.3  24.3  34188  290.03 0854.46
2009/04/23 14:16:33.7    -345   -731    144    809    822 205.3  10.1  34182  289.94 0854.46
2009/04/23 14:16:33.8    -646   -624   -160    899    914 226.0 -10.1  34158  289.53 0854.46
2009/04/23 14:16:33.9    -598   -594    -44    844    846 225.2  -3.0  34154  289.46 0854.46
2009/04/23 14:16:34.0    -474   -393   -152    616    635 230.4 -13.9  34162  289.60 0854.46
2009/04/23 14:16:34.1    -266   -432    -19    508    509 211.6  -2.2  34182  289.96 0854.46
2009/04/23 14:16:34.2    -419   -546   -101    689    697 217.5  -8.4  34210  290.43 0854.46
2009/04/23 14:16:34.3    -437   -500   -140    665    680 221.2 -11.9  34178  289.87 0854.46
2009/04/23 14:16:34.4    -500   -429   -189    659    686 229.4 -16.0  34188  290.05 0854.46
2009/04/23 14:16:34.5    -337   -424   -118    542    555 218.5 -12.4  34174  289.82 0854.46
2009/04/23 14:16:34.6    -285   -369   -153    467    491 217.8 -23.3  34184  289.98 0854.46
2009/04/23 14:16:34.7    -317   -402   -182    513    545 218.3 -19.6  34190  290.07 0854.46
2009/04/23 14:16:34.8    -276   -638   -146    696    712 203.4 -11.9  34166  289.66 0854.46
2009/04/23 14:16:34.9    -212   -461    -98    508    518 204.7 -11.0  34172  289.79 0854.46
2009/04/23 14:16:35.1     -74   -203   -134    217    255 200.0 -38.9  34148  289.36 0854.46
2009/04/23 14:16:35.1      53   -120    -36    132    138 155.9 -15.5  34176  289.85 0854.46
2009/04/23 14:16:35.3     139   -250     88    287    301 151.0  17.1  34168  289.70 0854.46
2009/04/23 14:16:35.3    -124   -358     82    380    389 199.2  12.3  34162  289.62 0854.52
2009/04/23 14:16:35.5    -105   -423     91    436    446 194.0  11.8  34162  289.60 0854.52
2009/04/23 14:16:35.6     -94   -464    -44    474    477 191.5  -5.4  34154  289.47 0854.52
2009/04/23 14:16:35.7      33   -433    111    435    450 175.6  14.4  34158  289.53 0854.52
2009/04/23 14:16:35.8     -32   -353    182    355    398 185.3  29.3  34158  289.55 0854.52
2009/04/23 14:16:35.9      -7   -365    247    366    441 181.2  37.4  34154  289.48 0854.52
2009/04/23 14:16:36.0     -68   -354    326    361    486 190.9  46.8  34166  289.66 0854.52
2009/04/23 14:16:36.1       0   -416    310    417    519 180.0  40.2  34162  289.61 0854.52
2009/04/23 14:16:36.2    -116   -563    247    576    626 191.7  24.6  34162  289.59 0854.52
2009/04/23 14:16:36.3     -98   -439    252    451    516 192.7  31.7  34160  289.57 0854.52
2009/04/23 14:16:36.4    -150   -539    197    560    594 195.6  19.4  34160  289.58 0854.52
2009/04/23 14:16:36.5      56   -594    160    597    618 174.6  15.0  34154  289.46 0854.52
2009/04/23 14:16:36.6       4   -803    199    804    829 179.7  13.9  34152  289.43 0854.52
2009/04/23 14:16:36.7     -87   -732    169    738    758 186.8  12.9  34150  289.41 0854.52
2009/04/23 14:16:36.8      34   -609    135    610    625 176.8  12.5  34148  289.37 0854.52
2009/04/23 14:16:36.9     156   -584    399    605    724 165.0  36.5  34150  289.41 0854.52
2009/04/23 14:16:37.0     110   -638    340    648    731 170.2  30.0  34154  289.47 0854.52
2009/04/23 14:16:37.1       4   -159    -70    160    174 178.4 -29.7  34150  289.41 0854.52
2009/04/23 14:16:37.2       0   -451      6    452    453 180.0   0.8  34160  289.56 0854.52
2009/04/23 14:16:37.3    -265   -738    229    785    818 199.8  16.3  34166  289.67 0854.52
2009/04/23 14:16:37.4    -331   -673    -66    751    755 206.2  -5.1  34160  289.58 0854.50
2009/04/23 14:16:37.5    -231   -644   -131    685    698 199.8 -10.9  34148  289.38 0854.50
2009/04/23 14:16:37.6    -303   -624    -22    694    695 205.9  -1.9  34156  289.51 0854.50
2009/04/23 14:16:37.7    -330   -671    147    748    763 206.2  11.1  34154  289.48 0854.50
2009/04/23 14:16:37.8    -360   -604     61    704    707 210.8   5.0  34156  289.49 0854.50
2009/04/23 14:16:37.9    -304   -662    -61    729    732 204.7  -4.8  34156  289.52 0854.50
2009/04/23 14:16:38.0    -328   -494      2    594    595 213.6   0.2  34156  289.49 0854.50
2009/04/23 14:16:38.1    -259   -457    -63    526    530 209.5  -6.9  34168  289.70 0854.50
2009/04/23 14:16:38.2     -37   -426    -33    428    430 185.0  -4.5  34160  289.58 0854.50
2009/04/23 14:16:38.3     -18   -392    -15    393    394 182.7  -2.2  34156  289.52 0854.50
2009/04/23 14:16:38.4    -184   -574    -53    603    606 197.8  -5.1  34156  289.52 0854.50
2009/04/23 14:16:38.5     -52   -569   -128    572    587 185.3 -12.6  34158  289.54 0854.50
2009/04/23 14:16:38.6      20   -528      2    529    530 177.8   0.2  34154  289.48 0854.50
2009/04/23 14:16:38.7     -58   -575      2    579    580 185.8   0.2  34164  289.63 0854.50
2009/04/23 14:16:38.8     -46   -589   -151    591    611 184.5 -14.4  34156  289.49 0854.50
2009/04/23 14:16:38.9     -31   -603   -198    604    636 183.0 -18.2  34152  289.42 0854.50
2009/04/23 14:16:39.0    -105   -565   -110    575    586 190.6 -10.9  34152  289.42 0854.50
2009/04/23 14:16:39.1    -123   -331   -135    354    378 200.4 -26.2  34148  289.38 0854.50
2009/04/23 14:16:39.2    -154   -268    -94    310    325 209.9 -16.9  34152  289.44 0854.50
2009/04/23 14:16:39.3    -174   -197   -113    264    287 221.4 -29.0  34158  289.54 0854.50
2009/04/23 14:16:39.4    -166   -166   -140    236    274 225.0 -37.8  34164  289.64 0854.49
2009/04/23 14:16:39.5     -45   -180    -55    186    193 194.3 -21.5  34166  289.67 0854.49
2009/04/23 14:16:39.6    -188   -395     46    438    441 205.5   6.1  34166  289.68 0854.49
2009/04/23 14:16:39.7    -215   -388     22    444    445 209.0   2.9  34166  289.68 0854.49
2009/04/23 14:16:39.8    -134   -305     62    334    340 203.7  10.6  34158  289.55 0854.49
2009/04/23 14:16:39.9    -190   -192    -15    271    272 224.8  -3.3  34172  289.78 0854.49
2009/04/23 14:16:40.0     -40   -286    114    289    310 188.0  23.0  34168  289.70 0854.49
2009/04/23 14:16:40.1      36   -357     99    359    373 174.1  15.4  34160  289.57 0854.49
2009/04/23 14:16:40.2     -23   -297    124    298    322 184.5  23.9  34160  289.58 0854.49
2009/04/23 14:16:40.3      15   -251     69    252    262 176.5  15.3  34164  289.63 0854.49
2009/04/23 14:16:40.4      66   -279    112    287    308 166.6  22.5  34164  289.63 0854.49
2009/04/23 14:16:40.5     -39   -257    -35    260    263 188.7  -7.7  34156  289.51 0854.49
2009/04/23 14:16:40.6     -76   -153      2    171    172 206.5   1.0  34162  289.62 0854.49
2009/04/23 14:16:40.7     -78   -174    -54    191    199 204.1 -16.0  34162  289.62 0854.49
2009/04/23 14:16:40.8     -73   -101   -118    125    171 216.0 -52.9  34164  289.63 0854.49
2009/04/23 14:16:40.9     -11    -74   -118     75    139 188.9 -69.1  34170  289.75 0854.49
2009/04/23 14:16:41.0      26    -59   -116     65    132 156.4 -73.2  34172  289.79 0854.49
2009/04/23 14:16:41.1      35    -18    -45     40     60 117.1 -57.7  34186  290.01 0854.49
2009/04/23 14:16:41.2      27    -22      1     35     36 129.5   2.9  34190  290.09 0854.49
2009/04/23 14:16:41.3      -1    -16     50     17     52 184.4  81.0  34194  290.16 0854.49
2009/04/23 14:16:41.4     -25    -21     -6     33     34 230.4 -11.3  34190  290.09 0854.43
2009/04/23 14:16:41.5     -25     -5    -22     26     34 256.7 -50.2  34186  290.02 0854.43
2009/04/23 14:16:41.6       3      0      4      4      5  90.0  50.1  34186  290.02 0854.43
2009/04/23 14:16:41.7     -52    -24     78     58     97 244.7  59.4  34194  290.14 0854.43
2009/04/23 14:16:41.8    -121   -106    138    162    212 228.7  44.8  34194  290.14 0854.43
2009/04/23 14:16:41.9    -160    -88    115    183    216 241.1  35.5  34210  290.43 0854.43
2009/04/23 14:16:42.0     -70   -157    198    173    262 204.1  54.3  34204  290.32 0854.43
2009/04/23 14:16:42.1    -140   -118    137    184    229 230.0  40.1  34192  290.13 0854.43
2009/04/23 14:16:42.2       5     -6    121      8    121 140.4  90.0  34210  290.43 0854.43
2009/04/23 14:16:42.3      77    -56     98     96    137 126.4  50.1  34220  290.58 0854.43
2009/04/23 14:16:42.4      44   -131     83    139    161 161.3  33.7  34196  290.18 0854.43
2009/04/23 14:16:42.5      -2   -161     71    162    176 180.9  25.1  34184  289.97 0854.43
2009/04/23 14:16:42.6      39   -145     35    151    156 164.9  13.2  34188  290.04 0854.43
2009/04/23 14:16:42.7      23   -168     -6    170    171 172.2  -2.1  34184  289.97 0854.43
2009/04/23 14:16:42.8      14   -175     14    176    177 175.1   4.6  34184  289.97 0854.43
2009/04/23 14:16:42.9      16   -227     58    228    236 175.8  14.3  34178  289.86 0854.43
2009/04/23 14:16:43.0      86   -229     82    245    259 159.3  18.5  34172  289.78 0854.43
2009/04/23 14:16:43.1     105   -245    128    267    296 156.8  27.3  34172  289.78 0854.43
2009/04/23 14:16:43.2     137   -248     21    284    285 151.0   4.4  34168  289.71 0854.43
2009/04/23 14:16:43.3     186   -267     -2    326    327 145.0  -0.4  34170  289.75 0854.43
2009/04/23 14:16:43.4      73   -273    -11    283    284 164.9  -2.2  34170  289.75 0854.45
2009/04/23 14:16:43.5      45   -378     31    381    383 173.1   4.7  34174  289.82 0854.45
2009/04/23 14:16:43.6     111   -426     46    441    444 165.4   6.0  34182  289.94 0854.45
2009/04/23 14:16:43.7      82   -430     72    438    445 169.2   9.4  34184  289.99 0854.45
2009/04/23 14:16:43.8      69   -442    122    448    465 171.1  15.3  34180  289.92 0854.45
2009/04/23 14:16:43.9      81   -498     25    505    506 170.7   2.9  34176  289.84 0854.45
2009/04/23 14:16:44.0     174   -583    104    609    618 163.3   9.7  34174  289.81 0854.45
2009/04/23 14:16:44.1     170   -506    -49    534    537 161.4  -5.3  34180  289.90 0854.45
2009/04/23 14:16:44.2     120   -437     64    454    459 164.6   8.1  34190  290.07 0854.45
2009/04/23 14:16:44.3     168   -519     17    546    547 162.1   1.8  34172  289.77 0854.45
2009/04/23 14:16:44.4     156   -512    -98    536    545 163.0 -10.4  34180  289.90 0854.45
2009/04/23 14:16:44.5     103   -510   -177    521    550 168.5 -23.9  34170  289.75 0854.45
2009/04/23 14:16:44.6     -86   -382     33    392    394 192.7   4.9  34172  289.77 0854.45
2009/04/23 14:16:44.7      -2   -483    -18    484    485 180.3  -2.2  34174  289.81 0854.45
2009/04/23 14:16:44.8     217   -583     10    623    624 159.5   1.0  34204  290.32 0854.45
2009/04/23 14:16:44.9     280   -550     77    618    623 153.0   7.1  34198  290.23 0854.45
2009/04/23 14:16:45.0     -46   -425    228    428    484 186.2  30.3  34194  290.15 0854.45
2009/04/23 14:16:45.1      45   -469    202    472    513 174.4  24.6  34188  290.05 0854.45
2009/04/23 14:16:45.2       0   -513    129    514    531 180.0  14.2  34184  289.99 0854.45
2009/04/23 14:16:45.3      59   -539    181    543    573 173.7  18.5  34188  290.04 0854.45
2009/04/23 14:16:45.4      74   -471    297    477    561 171.0  34.9  34188  290.06 0854.33
2009/04/23 14:16:45.5    -165   -412    212    444    492 201.9  27.3  34198  290.23 0854.33
2009/04/23 14:16:45.6    -125   -467    262    484    550 195.1  30.8  34184  289.99 0854.33
2009/04/23 14:16:45.7    -138   -424    263    446    517 198.0  33.4  34182  289.96 0854.33
2009/04/23 14:16:45.8     -65   -442    280    447    527 188.5  35.1  34186  290.01 0854.33
2009/04/23 14:16:45.9    -126   -513    298    529    607 193.8  31.9  34184  289.97 0854.33
2009/04/23 14:16:46.0    -147   -602    362    620    717 193.8  33.0  34190  290.07 0854.33
2009/04/23 14:16:46.1     -94   -573    217    581    620 189.3  21.5  34190  290.08 0854.33
2009/04/23 14:16:46.2       6   -511     85    512    520 179.3   9.4  34192  290.13 0854.33
2009/04/23 14:16:46.3      23   -509     -2    510    511 177.3  -0.3  34202  290.29 0854.33
2009/04/23 14:16:46.4      71   -453    -36    459    461 171.0  -4.6  34186  290.00 0854.33
2009/04/23 14:16:46.5      47   -362    -87    366    377 172.6 -13.4  34190  290.08 0854.33
2009/04/23 14:16:46.6      69   -359   -142    366    392 169.1 -26.7  34182  289.96 0854.33
2009/04/23 14:16:46.7      52   -374   -117    378    395 172.1 -22.2  34182  289.93 0854.33
2009/04/23 14:16:46.8     -84   -449   -193    457    496 190.6 -28.6  34188  290.05 0854.33
2009/04/23 14:16:46.9    -127   -500   -213    517    559 194.3 -28.2  34176  289.85 0854.33
2009/04/23 14:16:47.0     -92   -537   -160    546    570 189.8 -16.4  34176  289.85 0854.33
2009/04/23 14:16:47.1      13   -479   -191    480    516 178.4 -27.4  34178  289.89 0854.33
2009/04/23 14:16:47.2      55   -505   -150    509    530 173.7 -21.2  34180  289.92 0854.33
2009/04/23 14:16:47.3      68   -403    -22    409    410 170.4  -3.1  34182  289.95 0854.33
2009/04/23 14:16:47.4      75   -397    -88    405    415 169.3 -12.4  34180  289.90 0854.31
2009/04/23 14:16:47.5      31   -388   -113    390    407 175.3 -16.2  34180  289.91 0854.31
2009/04/23 14:16:47.6      55   -346   -111    351    369 170.9 -17.6  34178  289.89 0854.31
2009/04/23 14:16:47.7      68   -428    -23    434    435 170.9  -3.1  34184  289.99 0854.31
2009/04/23 14:16:47.8    -171   -426   -119    460    476 201.9 -14.5  34208  290.37 0854.31
2009/04/23 14:16:47.9     -23   -373   -128    374    395 183.6 -24.0  34198  290.20 0854.31
2009/04/23 14:16:48.0      91   -265     15    281    282 160.9   3.1  34190  290.07 0854.31
2009/04/23 14:16:48.1     -49   -429   -103    432    445 186.6 -13.4  34196  290.19 0854.31
2009/04/23 14:16:48.2     -36   -468   -147    470    492 184.5 -22.3  34190  290.08 0854.31
2009/04/23 14:16:48.3      50   -415   -143    419    444 173.0 -18.9  34196  290.17 0854.31
2009/04/23 14:16:48.4       0   -502   -141    503    523 180.1 -15.7  34188  290.03 0854.37
2009/04/23 14:16:48.5       7   -580    -74    581    586 179.3  -7.3  34182  289.93 0854.37
2009/04/23 14:16:48.6     123   -690    -67    701    705 169.9  -5.5  34172  289.79 0854.37
2009/04/23 14:16:48.7     158   -698   -168    716    736 167.2 -13.3  34176  289.83 0854.37
2009/04/23 14:16:48.8     244   -517     37    572    574 154.7   3.8  34186  290.00 0854.37
2009/04/23 14:16:48.9     135   -404     77    427    434 161.4  10.2  34174  289.80 0854.37
2009/04/23 14:16:49.0      61   -390    162    395    426 171.1  23.5  34178  289.87 0854.37
2009/04/23 14:16:49.1    -333   -380    -12    506    507 221.3  -1.4  34170  289.73 0854.37
2009/04/23 14:16:49.2    -327   -542   -107    634    644 211.1  -9.6  34178  289.87 0854.37
2009/04/23 14:16:49.3    -236   -690     37    730    731 198.9   2.9  34182  289.96 0854.37
2009/04/23 14:16:49.4    -205   -537   -102    576    586 200.9 -10.1  34180  289.90 0854.37
2009/04/23 14:16:49.5    -147   -488     96    510    520 196.8  10.7  34182  289.95 0854.37
2009/04/23 14:16:49.6    -188   -543     -2    575    576 199.2  -0.3  34188  290.03 0854.37
2009/04/23 14:16:49.7    -162   -582    -79    605    611 195.6  -7.5  34186  290.00 0854.37
2009/04/23 14:16:49.8    -237   -436   -174    497    526 208.5 -24.4  34176  289.83 0854.37
2009/04/23 14:16:49.9    -238   -344   -198    419    463 214.8 -31.5  34192  290.11 0854.37
2009/04/23 14:16:50.0    -189   -243   -144    309    340 217.9 -31.3  34192  290.10 0854.37
2009/04/23 14:16:50.1    -238   -317   -127    397    416 217.0 -22.9  34196  290.17 0854.37
2009/04/23 14:16:50.2    -112   -370   -207    387    438 196.9 -34.9  34186  290.02 0854.37
2009/04/23 14:16:50.3      -9   -463    -41    464    466 181.1  -5.1  34186  290.01 0854.37
2009/04/23 14:16:50.4      42   -486    -94    488    498 175.0 -10.9  34182  289.95 0854.39
2009/04/23 14:16:50.5    -135   -531    -90    549    557 194.3  -9.3  34186  290.02 0854.39
2009/04/23 14:16:50.7     -60   -496     65    500    505 187.0   7.5  34188  290.05 0854.39
2009/04/23 14:16:50.7     -35   -647     25    649    650 183.1   2.2  34182  289.96 0854.39
2009/04/23 14:16:50.8    -102   -769    -59    776    779 187.6  -4.4  34182  289.96 0854.39
2009/04/23 14:16:50.9    -138   -733    -81    747    752 190.7  -6.3  34178  289.89 0854.39
2009/04/23 14:16:51.0     -97   -693    -93    701    708 188.0  -7.6  34202  290.28 0854.39
2009/04/23 14:16:51.1     110   -786    -87    794    799 172.0  -6.3  34180  289.90 0854.39
2009/04/23 14:16:51.2     270   -782    176    828    847 160.9  12.0  34180  289.90 0854.39
2009/04/23 14:16:51.3     193   -715    133    741    754 164.9  10.2  34180  289.90 0854.39
2009/04/23 14:16:51.4     -59   -659    -93    662    669 185.2  -8.0  34182  289.95 0854.39
2009/04/23 14:16:51.5    -192   -814   -109    837    845 193.3  -7.5  34192  290.12 0854.39
2009/04/23 14:16:51.6     -15   -758   -270    759    806 181.2 -19.6  34174  289.80 0854.39
2009/04/23 14:16:51.7     -22   -803   -181    804    825 181.6 -12.7  34178  289.86 0854.39
2009/04/23 14:16:51.8      76   -691    157    696    714 173.7  12.8  34190  290.08 0854.39
2009/04/23 14:16:51.9     -18   -587    160    588    610 181.8  15.3  34170  289.73 0854.39
2009/04/23 14:16:52.0    -194   -420     22    463    464 204.8   2.8  34162  289.61 0854.39
2009/04/23 14:16:52.1    -244   -412     63    480    485 210.7   7.5  34178  289.88 0854.39
2009/04/23 14:16:52.2    -205   -351     30    407    409 210.3   4.3  34184  289.97 0854.39
2009/04/23 14:16:52.3    -227   -274     30    356    358 219.6   4.9  34196  290.18 0854.39
2009/04/23 14:16:52.4    -175    -68   -147    188    238 248.7 -46.4  34184  289.97 0854.38
2009/04/23 14:16:52.5    -133    -31    -30    137    141 256.8 -12.4  34182  289.96 0854.38
2009/04/23 14:16:52.6    -163      0      4    164    165 270.1   1.6  34186  290.01 0854.38
2009/04/23 14:16:52.7      60   -165     45    176    182 160.0  14.5  34188  290.04 0854.38
2009/04/23 14:16:52.8      72   -194    111    208    235 159.5  30.3  34184  289.97 0854.38
2009/04/23 14:16:52.9     153   -349    172    382    418 156.3  26.0  34176  289.85 0854.38
2009/04/23 14:16:53.0      52   -343    122    347    367 171.3  20.0  34178  289.89 0854.38
2009/04/23 14:16:53.1     -97   -390     38    403    405 194.1   5.4  34174  289.82 0854.38
2009/04/23 14:16:53.2     125    -80    189    149    240 122.5  57.7  34190  290.08 0854.38
2009/04/23 14:16:53.3     288   -301    354    417    546 136.3  44.8  34188  290.05 0854.38
2009/04/23 14:16:53.4     347   -177     22    390    391 117.1   3.2  34178  289.86 0854.38
2009/04/23 14:16:53.5     341   -287     28    447    448 130.1   3.6  34180  289.92 0854.38
2009/04/23 14:16:53.6     259   -313    -23    407    408 140.3  -3.3  34184  289.97 0854.38
2009/04/23 14:16:53.7     279   -264   -109    385    401 133.5 -15.9  34178  289.86 0854.38
2009/04/23 14:16:53.8     182   -280    -35    335    337 147.0  -6.1  34182  289.96 0854.38
2009/04/23 14:16:53.9     103   -325      0    341    342 162.4   0.1  34178  289.89 0854.38
2009/04/23 14:16:54.0      71   -287      4    296    297 166.0   0.8  34182  289.93 0854.38
2009/04/23 14:16:54.1     -16   -263     44    264    268 183.6   9.5  34178  289.88 0854.38
2009/04/23 14:16:54.2     -23   -294     75    295    305 184.5  14.3  34182  289.95 0854.38
2009/04/23 14:16:54.3     -37   -205     33    209    212 190.2   9.0  34180  289.91 0854.38
2009/04/23 14:16:54.4     -66    -77    -50    102    113 220.5 -32.2  34188  290.04 0854.38
2009/04/23 14:16:54.5     -53    -68    -93     87    127 217.8 -56.5  34188  290.06 0854.38
2009/04/23 14:16:54.6    -138    -70   -126    155    199 243.0 -47.9  34184  289.97 0854.38
2009/04/23 14:16:54.7    -202    -60   -111    211    238 253.4 -34.5  34186  290.01 0854.38
2009/04/23 14:16:54.8    -242    -67   -137    252    286 254.5 -35.4  34190  290.07 0854.38
2009/04/23 14:16:54.9    -249    -70   -145    259    296 254.1 -35.8  34188  290.05 0854.38
2009/04/23 14:16:55.0    -332     42   -172    335    376 277.4 -33.7  34188  290.06 0854.38
2009/04/23 14:16:55.1     -22    130   -107    132    169 350.2 -47.9  34184  289.97 0854.38
2009/04/23 14:16:55.2     287    367   -156    467    492  38.0 -23.6  34188  290.05 0854.38
2009/04/23 14:16:55.3     268    242   -173    362    401  48.0 -31.7  34198  290.20 0854.38
2009/04/23 14:16:55.4     247     67    -89    257    271  74.7 -23.8  34192  290.10 0854.38
2009/04/23 14:16:55.5     192   -110    -76    222    234 119.8 -24.0  34196  290.18 0854.38
2009/04/23 14:16:55.6     304   -152    -62    340    346 116.6 -10.4  34192  290.10 0854.38
2009/04/23 14:16:55.7     230    -17     79    231    245  94.4  18.9  34190  290.09 0854.38
2009/04/23 14:16:55.8     267     26    122    269    295  84.3  26.2  34192  290.12 0854.38
2009/04/23 14:16:55.9     135     26    178    138    225  79.0  58.4  34194  290.16 0854.38
2009/04/23 14:16:56.0     -72    -36    125     81    148 242.9  64.6  34220  290.60 0854.38
2009/04/23 14:16:56.1     -37    -72     72     82    109 207.2  46.4  34204  290.33 0854.38
2009/04/23 14:16:56.2     -78    -96     61    124    138 219.2  27.3  34200  290.25 0854.38
2009/04/23 14:16:56.3     -21   -150     68    152    166 188.0  25.9  34196  290.18 0854.38
2009/04/23 14:16:56.4     -15   -177     29    178    181 184.9   9.5  34196  290.19 0854.43
2009/04/23 14:16:56.5    -108   -230    112    255    278 205.2  25.2  34204  290.31 0854.43
2009/04/23 14:16:56.6     -48   -258    124    263    290 190.6  27.1  34202  290.29 0854.43
2009/04/23 14:16:56.7      16   -370    145    371    398 177.4  22.4  34196  290.18 0854.43
2009/04/23 14:16:56.8      81   -403    215    412    464 168.6  29.6  34208  290.39 0854.43
2009/04/23 14:16:56.9     193   -302    -46    359    362 147.4  -7.3  34202  290.27 0854.43
2009/04/23 14:16:57.0     199   -191    -35    276    279 133.8  -7.3  34206  290.34 0854.43
2009/04/23 14:16:57.1     302    -66     75    310    319 102.4  13.7  34230  290.75 0854.43
2009/04/23 14:16:57.2     255    -31    157    257    301  97.0  34.4  34230  290.75 0854.43
2009/04/23 14:16:57.3     170    -78    136    188    232 114.6  39.5  34214  290.50 0854.43
2009/04/23 14:16:57.4     109   -237     71    261    271 155.3  15.3  34214  290.49 0854.43
2009/04/23 14:16:57.5     -76   -211     43    225    230 200.0  11.0  34218  290.55 0854.43
2009/04/23 14:16:57.6    -154   -152    140    217    258 225.3  35.7  34216  290.51 0854.43
2009/04/23 14:16:57.7    -210   -288    109    357    374 216.1  17.0  34200  290.25 0854.43
2009/04/23 14:16:57.8    -228   -233     80    327    337 224.3  13.8  34204  290.33 0854.43
2009/04/23 14:16:57.9    -169   -298    120    343    364 209.6  19.3  34208  290.40 0854.43
2009/04/23 14:16:58.0    -196   -191    186    274    331 225.8  37.4  34250  291.10 0854.43
2009/04/23 14:16:58.1    -152   -191    139    245    281 218.5  32.3  34258  291.24 0854.43
2009/04/23 14:16:58.2      -6   -128     42    129    136 182.7  18.4  34248  291.06 0854.43
2009/04/23 14:16:58.3      12    -82     21     83     86 171.5  14.7  34254  291.18 0854.43
2009/04/23 14:16:58.4    -171     43     73    177    191 284.2  23.6  34248  291.08 0854.50
2009/04/23 14:16:58.5    -293     82     87    305    318 285.7  16.0  34254  291.16 0854.50
2009/04/23 14:16:58.6    -266     27     68    268    277 275.9  14.3  34254  291.16 0854.50
2009/04/23 14:16:58.7    -358     47    121    362    382 277.6  18.6  34260  291.27 0854.50
2009/04/23 14:16:58.8    -139   -180    112    228    254 217.6  28.2  34244  290.99 0854.50
2009/04/23 14:16:58.9    -160   -254    268    301    403 212.3  46.3  34212  290.45 0854.50
2009/04/23 14:16:59.0    -240   -206    162    317    355 229.5  29.2  34212  290.45 0854.50
2009/04/23 14:16:59.1    -137   -214    214    255    332 212.6  44.2  34210  290.42 0854.50
2009/04/23 14:16:59.2    -240    -99    207    260    332 247.4  42.6  34224  290.66 0854.50
2009/04/23 14:16:59.3    -190   -182    193    264    327 226.2  39.8  34236  290.87 0854.50
2009/04/23 14:16:59.4    -355    -18    110    356    373 267.0  17.3  34276  291.54 0854.50
2009/04/23 14:16:59.5    -281   -156     72    322    331 240.9  12.6  34266  291.36 0854.50
2009/04/23 14:16:59.6    -128   -124     19    179    181 226.0   6.1  34264  291.33 0854.50
2009/04/23 14:16:59.7    -176   -226    -10    287    288 217.9  -2.1  34260  291.26 0854.50
2009/04/23 14:16:59.8    -196   -130     52    236    242 236.5  12.6  34266  291.38 0854.50
2009/04/23 14:16:59.9    -186   -154     75    242    254 230.4  17.3  34248  291.07 0854.50
2009/04/23 14:17:00.0    -151    -65    -96    165    190 246.5 -37.3  34274  291.50 0854.50
2009/04/23 14:17:00.1     -89     12    -52     90    103 277.9 -37.3  34244  290.99 0854.50
2009/04/23 14:17:00.2      43      5    -15     44     47  83.0 -18.7  34242  290.98 0854.50
2009/04/23 14:17:00.3     136     90    -45    164    171  56.5 -15.4  34252  291.13 0854.50
2009/04/23 14:17:00.4     148     25    -55    151    160  80.4 -25.1  34244  291.01 0854.53
2009/04/23 14:17:00.5     156     85     53    178    186  61.4  16.8  34234  290.82 0854.53
2009/04/23 14:17:00.7      53     88     85    104    134  31.2  43.7  34238  290.89 0854.53
2009/04/23 14:17:00.7      58     55     -7     81     82  46.7  -5.6  34238  290.91 0854.53
2009/04/23 14:17:00.8     132    -10     -5    133    134  94.4  -2.2  34236  290.86 0854.53
2009/04/23 14:17:00.9     162    -42     94    168    192 104.8  31.9  34242  290.96 0854.53
2009/04/23 14:17:01.0     118    -55     50    131    140 115.2  21.5  34238  290.89 0854.53
2009/04/23 14:17:01.1     229     27     71    231    242  83.2  17.1  34242  290.97 0854.53
2009/04/23 14:17:01.2     354     90    126    366    388  75.7  19.1  34240  290.94 0854.53
2009/04/23 14:17:01.4     338     51    283    342    443  81.3  43.8  34244  290.99 0854.53
2009/04/23 14:17:01.4     293     13    239    294    378  87.4  43.4  34250  291.10 0854.53
2009/04/23 14:17:01.5     237     -7    296    238    379  91.9  57.0  34240  290.94 0854.53
2009/04/23 14:17:01.6     272    -21    249    273    369  94.6  47.1  34234  290.83 0854.53
2009/04/23 14:17:01.7     248     -7    313    249    399  91.7  57.5  34244  291.00 0854.53
2009/04/23 14:17:01.9     346     64    308    352    467  79.4  45.8  34220  290.60 0854.53
2009/04/23 14:17:02.0     283     43    272    287    395  81.2  48.4  34228  290.71 0854.53
2009/04/23 14:17:02.0     242     18    221    243    328  85.7  47.1  34240  290.93 0854.53
2009/04/23 14:17:02.2     221     84    210    237    316  69.2  46.2  34248  291.05 0854.53
2009/04/23 14:17:02.3     169     35    248    173    302  78.1  61.8  34248  291.07 0854.53
2009/04/23 14:17:02.4      93      0    206     94    226  90.0  73.8  34258  291.23 0854.53
2009/04/23 14:17:02.5     149    -27    227    152    273 100.6  63.6  34264  291.34 0854.52
2009/04/23 14:17:02.6     360   -235    338    431    547 123.2  42.2  34318  292.26 0854.52
2009/04/23 14:17:02.7     168   -306    167    350    387 151.3  27.3  34294  291.85 0854.52
2009/04/23 14:17:02.8      32   -415     27    417    418 175.5   3.8  34300  291.94 0854.52
2009/04/23 14:17:02.9     -61   -488    183    492    524 187.2  21.3  34316  292.21 0854.52
2009/04/23 14:17:03.0     -91   -584     78    592    598 188.9   7.6  34280  291.61 0854.52
2009/04/23 14:17:03.1     -22   -640     20    641    642 182.0   1.8  34266  291.37 0854.52
2009/04/23 14:17:03.2       7   -607    204    608    642 179.3  18.6  34302  292.00 0854.52
2009/04/23 14:17:03.3     -76   -563    241    569    617 187.7  24.5  34272  291.46 0854.52
2009/04/23 14:17:03.4     -28   -517    217    518    561 183.2  24.1  34258  291.23 0854.52
2009/04/23 14:17:03.5     -95   -460    207    470    513 191.7  25.2  34242  290.98 0854.52
2009/04/23 14:17:03.6    -129   -563    214    578    616 192.9  21.3  34228  290.71 0854.52
2009/04/23 14:17:03.7    -155   -540    202    562    597 196.1  20.6  34232  290.81 0854.52
2009/04/23 14:17:03.8    -192   -422    120    464    480 204.5  14.5  34262  291.29 0854.52
2009/04/23 14:17:03.9    -342   -197    158    395    425 240.0  23.0  34264  291.35 0854.52
2009/04/23 14:17:04.0    -230      7    -64    231    240 271.9 -15.5  34214  290.48 0854.52
2009/04/23 14:17:04.1     -27   -296     -1    298    299 185.3  -0.3  34260  291.26 0854.52
2009/04/23 14:17:04.2      73   -328    -15    337    338 167.4  -2.7  34246  291.03 0854.52
2009/04/23 14:17:04.3     135   -282    -82    313    324 154.4 -14.8  34234  290.82 0854.52
2009/04/23 14:17:04.4      59   -290      5    297    298 168.4   1.0  34238  290.88 0854.52
2009/04/23 14:17:04.5      73   -223     24    235    237 161.7   5.9  34234  290.83 0854.51
2009/04/23 14:17:04.6       8   -187     73    188    201 177.3  22.3  34234  290.82 0854.51
2009/04/23 14:17:04.7      -9   -133     36    134    139 184.0  15.3  34236  290.86 0854.51
2009/04/23 14:17:04.8      26   -191    100    193    217 172.0  29.5  34230  290.75 0854.51
2009/04/23 14:17:04.9      87   -252    173    267    318 160.8  36.2  34228  290.73 0854.51
2009/04/23 14:17:05.0      35   -153    191    157    247 167.1  56.4  34230  290.77 0854.51
2009/04/23 14:17:05.1       5    -75    203     76    216 175.6  78.6  34242  290.98 0854.51
2009/04/23 14:17:05.2     -50   -151    230    160    280 198.3  62.1  34232  290.78 0854.51
2009/04/23 14:17:05.3    -151   -138    170    205    266 227.6  43.8  34226  290.70 0854.51
2009/04/23 14:17:05.4    -307     69    149    315    348 282.8  27.2  34312  292.14 0854.51
2009/04/23 14:17:05.5    -339     22    150    340    371 273.7  25.2  34314  292.19 0854.51
2009/04/23 14:17:05.6    -371     13    147    372    399 272.0  22.7  34302  291.97 0854.51
2009/04/23 14:17:05.7    -286     75    176    296    344 284.8  33.6  34284  291.69 0854.51
2009/04/23 14:17:05.8    -197   -139    -49    242    248 234.7 -11.6  34266  291.36 0854.51
2009/04/23 14:17:05.9    -160    -84   -142    181    230 242.2 -46.6  34234  290.84 0854.51
2009/04/23 14:17:06.0     -72      0    -63     73     96 270.0 -49.8  34232  290.79 0854.51
2009/04/23 14:17:06.1    -173    -65    -23    185    187 249.4  -7.2  34236  290.86 0854.51
2009/04/23 14:17:06.2    -205     -7    -49    206    212 267.9 -13.4  34222  290.62 0854.51
2009/04/23 14:17:06.3    -395     79     -8    403    404 281.4  -1.2  34250  291.11 0854.51
2009/04/23 14:17:06.4    -326     17    -31    327    329 273.0  -5.5  34242  290.97 0854.51
2009/04/23 14:17:06.5    -288    114     22    310    311 291.7   4.2  34260  291.26 0854.55
2009/04/23 14:17:06.6    -191     72     57    205    213 290.8  15.6  34246  291.04 0854.55
2009/04/23 14:17:06.7    -202     56     16    210    211 285.5   4.6  34238  290.89 0854.55
2009/04/23 14:17:06.8     -96    -38     36    104    111 248.3  19.4  34236  290.87 0854.55
2009/04/23 14:17:06.9    -127   -104     10    165    166 230.5   3.8  34232  290.81 0854.55
2009/04/23 14:17:07.0    -183   -103    -59    211    219 240.5 -20.2  34270  291.43 0854.55
2009/04/23 14:17:07.1    -172    -39     18    177    178 257.0   5.9  34254  291.16 0854.55
2009/04/23 14:17:07.2    -295   -265     58    397    402 228.1   8.3  34248  291.08 0854.55
2009/04/23 14:17:07.3    -407    -42   -121    410    428 264.0 -16.5  34264  291.33 0854.55
2009/04/23 14:17:07.4    -364   -102    -83    379    389 254.3 -12.4  34270  291.45 0854.55
2009/04/23 14:17:07.5    -250   -328     33    413    415 217.3   4.6  34242  290.95 0854.55
2009/04/23 14:17:07.6    -135   -212     39    252    256 212.5   8.9  34242  290.95 0854.55
2009/04/23 14:17:07.7     -59   -290     63    297    304 191.6  12.0  34222  290.61 0854.55
2009/04/23 14:17:07.8     -17   -323    104    324    341 183.1  17.9  34218  290.54 0854.55
2009/04/23 14:17:07.9    -102   -281    140    300    331 200.1  26.9  34220  290.59 0854.55
2009/04/23 14:17:08.0    -135   -215     66    254    263 212.1  14.7  34228  290.73 0854.55
2009/04/23 14:17:08.1    -134   -339    104    365    380 201.6  16.0  34218  290.57 0854.55
2009/04/23 14:17:08.2     -70   -446     54    452    456 189.0   6.9  34212  290.46 0854.55
2009/04/23 14:17:08.3     -78   -443     47    450    453 190.0   6.0  34198  290.21 0854.55
2009/04/23 14:17:08.4      47   -426    155    429    457 173.7  19.9  34214  290.50 0854.55
2009/04/23 14:17:08.5      41   -465     91    467    477 174.9  11.1  34222  290.61 0854.42
2009/04/23 14:17:08.6      21   -450     75    451    458 177.3   9.4  34224  290.65 0854.42
2009/04/23 14:17:08.7     -49   -330    149    334    365 188.6  25.7  34214  290.50 0854.42
2009/04/23 14:17:08.8     -29   -350     32    352    354 184.9   5.3  34220  290.59 0854.42
2009/04/23 14:17:08.9    -147   -292     55    327    332 206.7   9.7  34218  290.57 0854.42
2009/04/23 14:17:09.0     -47   -342     94    346    359 187.9  15.3  34220  290.59 0854.42
2009/04/23 14:17:09.1     -56   -480     -6    484    485 186.7  -0.7  34224  290.66 0854.42
2009/04/23 14:17:09.2     -41   -497    -54    499    503 184.8  -6.3  34226  290.68 0854.42
2009/04/23 14:17:09.3      85   -357     -8    367    368 166.6  -1.3  34220  290.60 0854.42
2009/04/23 14:17:09.4     186   -390     46    433    436 154.5   6.1  34216  290.53 0854.42
2009/04/23 14:17:09.5      -5   -365    151    366    395 180.9  23.7  34218  290.55 0854.40
2009/04/23 14:17:09.6     -28   -324     86    326    338 185.1  14.9  34218  290.55 0854.40
2009/04/23 14:17:09.7     -88   -275    136    289    319 197.9  27.0  34220  290.58 0854.40
2009/04/23 14:17:09.8    -159   -298    106    338    355 208.1  17.4  34228  290.72 0854.40
2009/04/23 14:17:09.9    -100   -251     53    271    277 201.8  11.1  34232  290.80 0854.40
2009/04/23 14:17:10.0     -36   -119     53    125    135 197.0  24.6  34238  290.91 0854.40
2009/04/23 14:17:10.1    -111   -196     19    226    227 209.4   4.9  34236  290.87 0854.40
2009/04/23 14:17:10.2    -192   -188     37    269    272 225.6   8.0  34260  291.27 0854.40
2009/04/23 14:17:10.3    -234   -107    -52    258    264 245.4 -11.5  34240  290.92 0854.40
2009/04/23 14:17:10.4    -316    -13     30    317    319 267.5   5.4  34234  290.83 0854.40
2009/04/23 14:17:10.5    -335   -141    -13    364    365 247.2  -2.1  34242  290.96 0854.40
2009/04/23 14:17:10.6    -317   -200    -75    375    383 237.7 -11.3  34252  291.15 0854.40
2009/04/23 14:17:10.7    -366   -187   -115    412    428 242.9 -15.7  34262  291.31 0854.40
2009/04/23 14:17:10.8    -416   -294   -107    510    522 234.8 -11.9  34252  291.12 0854.40
2009/04/23 14:17:10.9    -452   -331   -177    561    589 233.8 -17.5  34286  291.70 0854.40
2009/04/23 14:17:11.0    -376   -323   -148    496    518 229.4 -16.6  34288  291.76 0854.40
2009/04/23 14:17:11.1    -287   -418   -154    508    532 214.5 -16.9  34288  291.76 0854.40
2009/04/23 14:17:11.2    -293   -370   -133    473    491 218.4 -20.3  34282  291.63 0854.40
2009/04/23 14:17:11.3    -214   -426    -36    478    480 206.7  -4.4  34262  291.29 0854.40
2009/04/23 14:17:11.4    -143   -359     98    387    400 201.8  14.3  34268  291.39 0854.40
2009/04/23 14:17:11.5    -295   -449    125    538    553 213.4  13.1  34264  291.35 0854.38
2009/04/23 14:17:11.6    -242   -260     -6    356    357 222.9  -1.1  34248  291.05 0854.38
2009/04/23 14:17:11.7    -290   -355    -35    459    461 219.2  -4.4  34278  291.57 0854.38
2009/04/23 14:17:11.8    -231   -298   -104    378    393 217.8 -15.4  34278  291.59 0854.38
2009/04/23 14:17:11.9    -398   -194   -141    443    464 244.0 -22.8  34280  291.60 0854.38
2009/04/23 14:17:12.0    -380   -232   -152    446    472 238.6 -18.9  34280  291.60 0854.38
2009/04/23 14:17:12.1    -251   -119    182    278    332 244.6  36.3  34270  291.44 0854.38
2009/04/23 14:17:12.2     -67   -148    168    163    234 204.5  50.7  34268  291.42 0854.38
2009/04/23 14:17:12.3      10   -232    126    233    264 177.3  30.6  34262  291.31 0854.38
2009/04/23 14:17:12.4     -19   -305    155    306    343 183.6  28.7  34248  291.06 0854.38
2009/04/23 14:17:12.5     -76   -333    178    342    385 193.0  29.6  34242  290.96 0854.38
2009/04/23 14:17:12.6    -193   -498    114    535    548 201.2  12.1  34240  290.94 0854.38
2009/04/23 14:17:12.7    -191   -500    105    536    547 201.0  11.1  34230  290.75 0854.38
2009/04/23 14:17:12.8    -207   -498     95    540    549 202.6  10.0  34230  290.75 0854.38
2009/04/23 14:17:12.9    -196   -506    -38    543    545 201.2  -4.0  34228  290.74 0854.38
2009/04/23 14:17:13.0    -130   -442    -11    461    462 196.4  -1.4  34218  290.56 0854.38
2009/04/23 14:17:13.1    -145   -384     -1    411    412 200.8  -0.3  34228  290.72 0854.38
2009/04/23 14:17:13.2     -58   -557     52    561    564 186.0   5.3  34232  290.79 0854.38
2009/04/23 14:17:13.3    -184   -461    141    497    517 201.8  15.9  34232  290.78 0854.38
2009/04/23 14:17:13.4    -133   -436     99    456    467 197.0  12.3  34220  290.58 0854.38
2009/04/23 14:17:13.5    -103   -306    281    324    428 198.7  45.4  34254  291.18 0854.23
2009/04/23 14:17:13.6    -110   -253    214    277    350 203.6  41.7  34244  290.99 0854.23
2009/04/23 14:17:13.7    -208   -345    -46    403    406 211.1  -6.6  34244  290.99 0854.23
2009/04/23 14:17:13.8    -328   -330    -56    466    470 224.8  -6.9  34236  290.85 0854.23
2009/04/23 14:17:13.9    -295   -257   -154    392    421 229.0 -27.2  34236  290.87 0854.23
2009/04/23 14:17:14.0       0   -256    -46    257    262 180.0 -10.3  34226  290.68 0854.23
2009/04/23 14:17:14.1    -130   -296   -106    324    342 203.7 -18.2  34234  290.83 0854.23
2009/04/23 14:17:14.2    -112   -473     23    487    488 193.4   2.8  34242  290.95 0854.23
2009/04/23 14:17:14.3     -78   -393     58    401    406 191.3   8.3  34228  290.72 0854.23
2009/04/23 14:17:14.4     -84   -483     56    491    495 189.9   6.6  34238  290.90 0854.23
2009/04/23 14:17:14.5     -60   -471     66    475    480 187.3   8.0  34234  290.83 0854.23
2009/04/23 14:17:14.6       8   -484    180    485    517 179.0  21.1  34236  290.85 0854.23
2009/04/23 14:17:14.7      49   -353    187    357    403 172.0  29.8  34228  290.74 0854.23
2009/04/23 14:17:14.8      -5   -373    261    374    456 180.8  38.5  34242  290.95 0854.23
2009/04/23 14:17:14.9     -17   -515    135    516    534 181.9  14.7  34248  291.06 0854.23
2009/04/23 14:17:15.0      34   -448    258    450    518 175.7  32.4  34246  291.02 0854.23
2009/04/23 14:17:15.1      49   -492    149    495    518 174.2  16.8  34238  290.90 0854.23
2009/04/23 14:17:15.2      36   -425    100    427    439 175.0  13.2  34246  291.02 0854.23
2009/04/23 14:17:15.3      43   -395    105    398    412 173.7  14.9  34238  290.90 0854.23
2009/04/23 14:17:15.4     -58   -290    231    296    375 191.5  41.9  34256  291.20 0854.23
2009/04/23 14:17:15.5    -133   -462    103    481    493 196.1  12.2  34244  291.00 0854.19
2009/04/23 14:17:15.6    -177   -275    210    328    389 212.7  35.6  34262  291.30 0854.19
2009/04/23 14:17:15.7    -214   -347    237    408    471 211.7  32.8  34256  291.19 0854.19
2009/04/23 14:17:15.8     -94   -177    212    201    292 207.9  51.6  34250  291.09 0854.19
2009/04/23 14:17:15.9     -32     55     71     64     95 329.3  53.3  34274  291.50 0854.19
2009/04/23 14:17:16.0      22    157     77    159    176   8.0  27.4  34266  291.38 0854.19
2009/04/23 14:17:16.1      33    170    106    174    203  11.1  34.4  34262  291.32 0854.19
2009/04/23 14:17:16.2      77   -120    133    143    195 147.4  47.9  34250  291.11 0854.19
2009/04/23 14:17:16.3      57   -260     95    267    284 167.6  19.6  34248  291.07 0854.19
2009/04/23 14:17:16.4      36   -138    142    143    201 165.3  50.0  34246  291.04 0854.19
2009/04/23 14:17:16.5     106   -166    148    198    247 147.4  40.7  34246  291.03 0854.19
2009/04/23 14:17:16.6       0   -195    183    196    268 180.2  47.9  34264  291.33 0854.19
2009/04/23 14:17:16.7     -46   -203     73    209    222 192.9  19.4  34248  291.08 0854.19
2009/04/23 14:17:16.8     -12   -133     49    134    142 185.3  20.9  34252  291.15 0854.19
2009/04/23 14:17:16.9     -76    -39     64     86    107 242.9  40.1  34262  291.30 0854.19
2009/04/23 14:17:17.0      27    -52     44     59     73 151.9  40.7  34268  291.40 0854.19
2009/04/23 14:17:17.1     -20    -66    -19     70     73 196.9 -15.4  34258  291.25 0854.19
2009/04/23 14:17:17.2      57   -147    -20    158    160 158.6  -7.2  34258  291.23 0854.19
2009/04/23 14:17:17.3     -83    -27     25     88     92 251.6  16.3  34260  291.26 0854.19
2009/04/23 14:17:17.4    -125    -40    -57    132    143 252.3 -29.0  34292  291.81 0854.19
2009/04/23 14:17:17.5     -68   -194    -17    206    207 199.4  -4.9  34282  291.66 0854.29
2009/04/23 14:17:17.6     -58   -149    -76    161    178 201.4 -31.5  34292  291.83 0854.29
2009/04/23 14:17:17.7      -7   -179    -93    180    202 182.5 -33.7  34292  291.83 0854.29
2009/04/23 14:17:17.8      93   -191    -72    213    224 153.9 -23.3  34262  291.30 0854.29
2009/04/23 14:17:17.9      41   -152   -109    158    191 164.8 -42.2  34236  290.86 0854.29
2009/04/23 14:17:18.0       0   -187   -105    188    215 180.0 -35.8  34272  291.49 0854.29
2009/04/23 14:17:18.1     204   -106     -9    230    231 117.5  -2.2  34228  290.74 0854.29
2009/04/23 14:17:18.2     239    -15    113    240    265  93.7  27.1  34230  290.75 0854.29
2009/04/23 14:17:18.3     146    -26    100    149    179 100.1  37.0  34252  291.13 0854.29
2009/04/23 14:17:18.4      26     26     70     37     79  45.0  69.8  34248  291.06 0854.29
2009/04/23 14:17:18.5    -147     48    102    155    185 288.2  36.3  34252  291.15 0854.29
2009/04/23 14:17:18.6    -140     88     63    166    177 302.2  21.7  34236  290.87 0854.29
2009/04/23 14:17:18.7    -221    184    114    288    309 309.8  23.0  34234  290.83 0854.29
2009/04/23 14:17:18.8    -236    211    112    317    337 311.8  19.6  34238  290.91 0854.29
2009/04/23 14:17:18.9    -355    254    136    437    458 305.6  17.3  34244  290.99 0854.29
2009/04/23 14:17:19.0    -509    166     95    536    545 288.1  10.1  34246  291.04 0854.29
2009/04/23 14:17:19.1    -621    198    217    652    688 287.7  18.5  34236  290.87 0854.29
2009/04/23 14:17:19.2    -761    278    102    811    818 290.1   7.2  34226  290.69 0854.29
2009/04/23 14:17:19.3    -682    227    107    719    727 288.4   8.5  34234  290.84 0854.29
2009/04/23 14:17:19.4    -627    426    169    759    778 304.2  12.6  34216  290.51 0854.29
2009/04/23 14:17:19.5    -560    222     30    603    604 291.7   2.9  34246  291.02 0854.29
2009/04/23 14:17:19.6    -127   -386    336    407    527 198.3  43.7  34222  290.62 0854.29
2009/04/23 14:17:19.7    -295   -518     41    597    599 209.6   4.0  34222  290.63 0854.29
2009/04/23 14:17:19.8    -256   -538     24    596    597 205.5   2.3  34260  291.26 0854.29
2009/04/23 14:17:19.9    -330   -273    -36    429    431 230.3  -4.9  34264  291.33 0854.29
2009/04/23 14:17:20.0    -369   -306   -133    480    499 230.4 -15.5  34282  291.64 0854.29
2009/04/23 14:17:20.1    -594   -238     42    641    643 248.2   3.8  34256  291.20 0854.29
2009/04/23 14:17:20.2    -626   -315    -42    701    703 243.3  -3.5  34238  290.91 0854.29
2009/04/23 14:17:20.3    -559    -82    -40    565    567 261.6  -4.1  34262  291.31 0854.29
2009/04/23 14:17:20.4    -541   -240     40    592    594 246.1   3.9  34270  291.43 0854.29
2009/04/23 14:17:20.5    -581   -178     18    608    609 252.9   1.7  34284  291.68 0854.29
2009/04/23 14:17:20.6    -472   -266    -35    543    545 240.6  -3.7  34262  291.30 0854.29
2009/04/23 14:17:20.7    -391   -207     14    443    444 242.1   1.9  34272  291.46 0854.29
2009/04/23 14:17:20.8    -437   -111     53    451    455 255.7   6.8  34262  291.29 0854.29
2009/04/23 14:17:20.9    -499   -131    144    517    537 255.2  15.6  34282  291.65 0854.29
2009/04/23 14:17:21.0    -150   -221     52    268    274 214.1  11.0  34242  290.97 0854.29
2009/04/23 14:17:21.1    -390    -12    -49    391    395 268.1  -7.2  34246  291.03 0854.29
2009/04/23 14:17:21.2    -302    -63    -94    309    324 258.1 -16.9  34270  291.43 0854.29
2009/04/23 14:17:21.3    -308    -67    -66    316    323 257.6 -11.9  34266  291.36 0854.29
2009/04/23 14:17:21.4    -359    -10    -33    360    362 268.4  -5.4  34268  291.39 0854.29
2009/04/23 14:17:21.5    -143   -175    -96    227    246 219.2 -28.6  34262  291.31 0854.33
2009/04/23 14:17:21.6    -164   -208   -164    265    311 218.3 -39.6  34254  291.17 0854.33
2009/04/23 14:17:21.7       0   -319      2    320    321 179.9   0.5  34246  291.04 0854.33
2009/04/23 14:17:21.8      17   -275    -45    276    280 176.4  -9.3  34246  291.02 0854.33
2009/04/23 14:17:21.9     -63   -234    -45    243    248 195.1 -10.5  34242  290.95 0854.33
2009/04/23 14:17:22.0    -189   -246    -52    311    316 217.6  -9.6  34232  290.80 0854.33
2009/04/23 14:17:22.1    -206   -223    -84    304    316 222.8 -15.5  34236  290.87 0854.33
2009/04/23 14:17:22.2    -205   -211   -136    295    324 224.1 -30.9  34230  290.76 0854.33
2009/04/23 14:17:22.3    -311   -273   -164    414    445 228.7 -27.4  34242  290.95 0854.33
2009/04/23 14:17:22.4    -554   -364   -189    664    691 236.7 -15.9  34266  291.36 0854.33
2009/04/23 14:17:22.5    -481   -316   -158    576    598 236.7 -15.4  34238  290.90 0854.33
2009/04/23 14:17:22.6    -242   -309   -116    393    409 218.1 -21.2  34258  291.23 0854.33
2009/04/23 14:17:22.7    -123   -329   -138    352    378 200.5 -27.1  34248  291.08 0854.33
2009/04/23 14:17:22.8     114   -382   -135    399    422 163.3 -18.7  34232  290.78 0854.33
2009/04/23 14:17:22.9     107   -395    -48    410    413 164.9  -6.7  34220  290.60 0854.33
2009/04/23 14:17:23.0     -35   -469     23    471    472 184.4   2.9  34232  290.78 0854.33
2009/04/23 14:17:23.1     -19   -496    -85    497    505 182.3  -9.7  34230  290.76 0854.33
2009/04/23 14:17:23.2     -17   -231   -137    232    269 184.4 -37.8  34238  290.90 0854.33
2009/04/23 14:17:23.3     -15   -300    -14    301    302 182.9  -2.8  34224  290.66 0854.33
2009/04/23 14:17:23.4      57   -336    111    341    359 170.3  18.1  34230  290.77 0854.33
2009/04/23 14:17:23.5     -33   -310    108    312    331 186.2  19.2  34230  290.76 0854.39
2009/04/23 14:17:23.6    -127   -281     92    309    323 204.3  16.6  34228  290.71 0854.39
2009/04/23 14:17:23.7    -150   -291     45    328    332 207.4   7.9  34232  290.81 0854.39
2009/04/23 14:17:23.8     -76   -283     40    294    297 195.1   7.8  34230  290.76 0854.39
2009/04/23 14:17:23.9     -42   -238    125    242    272 190.0  29.3  34232  290.80 0854.39
2009/04/23 14:17:24.0    -123   -241     24    271    273 207.2   5.2  34232  290.78 0854.39
2009/04/23 14:17:24.1     -86   -327    -13    339    340 194.8  -2.3  34230  290.76 0854.39
2009/04/23 14:17:24.2    -116   -310      4    332    333 200.6   0.7  34234  290.84 0854.39
2009/04/23 14:17:24.3     -49   -332     17    336    337 188.5   2.9  34218  290.54 0854.39
2009/04/23 14:17:24.4     -41   -335     66    338    345 187.0  11.1  34214  290.50 0854.39
2009/04/23 14:17:24.5    -148   -178    -56    232    239 219.6 -13.7  34222  290.63 0854.39
2009/04/23 14:17:24.6    -169   -204    -24    266    268 219.6  -5.2  34232  290.80 0854.39
2009/04/23 14:17:24.7    -233   -318   -124    395    415 216.3 -17.5  34186  290.02 0854.39
2009/04/23 14:17:24.8    -232   -387   -148    452    475 211.0 -23.3  34174  289.81 0854.39
2009/04/23 14:17:24.9    -135   -435    -24    456    457 197.3  -3.1  34202  290.28 0854.39
2009/04/23 14:17:25.0     -83   -273     95    286    302 196.9  18.5  34210  290.42 0854.39
2009/04/23 14:17:25.1     -24   -315    126    316    340 184.4  23.0  34228  290.74 0854.39
2009/04/23 14:17:25.2      19   -257    117    258    283 175.6  26.2  34226  290.70 0854.39
2009/04/23 14:17:25.3    -134   -283     84    314    326 205.3  15.0  34226  290.70 0854.39
2009/04/23 14:17:25.4    -146   -347    116    377    395 202.8  17.2  34226  290.69 0854.39
2009/04/23 14:17:25.5    -124   -366     83    387    396 198.7  12.2  34238  290.91 0854.39
2009/04/23 14:17:25.6    -169   -352     61    391    396 205.7   8.9  34238  290.89 0854.39
2009/04/23 14:17:25.7     -51   -278    206    283    350 190.5  39.7  34232  290.81 0854.39
2009/04/23 14:17:25.8     -19   -412    199    413    458 182.7  27.3  34228  290.73 0854.39
2009/04/23 14:17:25.9      68   -339    137    346    372 168.6  23.0  34232  290.79 0854.39
2009/04/23 14:17:26.0      69   -315    122    323    345 167.5  21.6  34234  290.83 0854.39
2009/04/23 14:17:26.1     112   -220    128    247    278 153.0  29.3  34226  290.70 0854.39
2009/04/23 14:17:26.2     119   -164    109    203    230 144.0  30.8  34220  290.58 0854.39
2009/04/23 14:17:26.3     123   -101     28    160    163 129.5  10.1  34204  290.31 0854.39
2009/04/23 14:17:26.4      34    -97    104    104    147 160.4  50.1  34206  290.35 0854.39
2009/04/23 14:17:26.5     -65   -140    108    155    188 204.9  38.4  34214  290.48 0854.39
2009/04/23 14:17:26.6     -55   -116    140    129    190 205.4  52.5  34226  290.69 0854.39
2009/04/23 14:17:26.7       6   -109    132    110    171 176.9  56.1  34212  290.47 0854.39
2009/04/23 14:17:26.8      49   -252     95    257    273 168.9  21.0  34186  290.02 0854.39
2009/04/23 14:17:26.9      45   -222    179    227    289 168.4  42.4  34192  290.10 0854.39
2009/04/23 14:17:27.0     183   -252    209    312    375 143.9  37.0  34204  290.33 0854.39
2009/04/23 14:17:27.1      50   -123    206    134    245 157.7  64.1  34198  290.21 0854.39
2009/04/23 14:17:27.2      18    -45    171     49    177 158.2  83.9  34196  290.19 0854.39
2009/04/23 14:17:27.3      16      1    164     17    164  85.7  90.0  34218  290.57 0854.39
2009/04/23 14:17:27.4      -4      3    134      6    134 309.5  90.0  34224  290.65 0854.39
2009/04/23 14:17:27.5     -85   -178    242    198    312 205.5  56.6  34212  290.44 0854.44
2009/04/23 14:17:27.6     -91   -112    165    145    219 219.2  54.3  34228  290.72 0854.44
2009/04/23 14:17:27.7    -182    -40     87    187    206 257.6  27.0  34224  290.67 0854.44
2009/04/23 14:17:27.8     -83    113     83    141    163 323.9  33.5  34224  290.67 0854.44
2009/04/23 14:17:27.9    -174   -104     77    203    217 239.1  22.0  34244  291.01 0854.44
2009/04/23 14:17:28.0    -357     41    124    360    381 276.6  19.1  34244  291.01 0854.44
2009/04/23 14:17:28.1    -248    -81    147    261    299 251.8  31.6  34234  290.82 0854.44
2009/04/23 14:17:28.3    -197   -258     70    325    333 217.3  12.3  34218  290.57 0854.44
2009/04/23 14:17:28.4     -79   -245    125    258    286 198.0  27.3  34222  290.63 0854.44
2009/04/23 14:17:28.5     -51   -251    198    257    324 191.5  41.5  34210  290.41 0854.44
2009/04/23 14:17:28.6     -26   -247    182    249    308 186.2  39.7  34214  290.49 0854.44
2009/04/23 14:17:28.7     -15   -268    178    269    322 183.4  36.5  34230  290.75 0854.44
2009/04/23 14:17:28.8      87   -136    165    162    231 147.5  50.4  34222  290.64 0854.44
2009/04/23 14:17:28.9     158   -221    151    273    311 144.4  31.5  34212  290.44 0854.44
2009/04/23 14:17:29.0     275   -278    214    392    446 135.4  31.3  34206  290.34 0854.44
2009/04/23 14:17:29.1     302   -148    129    337    360 116.2  22.0  34202  290.27 0854.44
2009/04/23 14:17:29.2     260    -81    285    273    394 107.3  51.3  34218  290.55 0854.44
2009/04/23 14:17:29.3     338    -75    265    347    436 102.6  41.3  34210  290.43 0854.44
2009/04/23 14:17:29.4     264    -62    193    272    333 103.3  39.0  34208  290.37 0854.44
2009/04/23 14:17:29.5     366     74    266    374    458  78.4  39.0  34288  291.75 0854.44
2009/04/23 14:17:29.6     337     44    251    340    422  82.5  40.1  34302  291.97 0854.45
2009/04/23 14:17:29.7     279    -75    348    289    452 105.1  56.3  34246  291.04 0854.45
2009/04/23 14:17:29.8     244     -8    313    245    397  91.9  58.2  34252  291.13 0854.45
2009/04/23 14:17:29.9     301   -124    352    326    479 112.4  52.6  34250  291.11 0854.45
2009/04/23 14:17:30.0     393   -142    293    418    510 109.9  38.5  34272  291.46 0854.45
2009/04/23 14:17:30.1     331    168    280    372    465  63.1  40.7  34256  291.21 0854.45
2009/04/23 14:17:30.2     311    173    372    356    514  60.9  51.4  34262  291.32 0854.45
2009/04/23 14:17:30.3     126     80    377    150    405  57.6  77.3  34268  291.40 0854.45
2009/04/23 14:17:30.4      79    -84    222    116    250 136.7  70.4  34242  290.96 0854.45
2009/04/23 14:17:30.5     205   -159    206    260    331 127.7  42.4  34164  289.64 0854.45
2009/04/23 14:17:30.6     234   -115    209    261    334 116.2  42.9  34170  289.75 0854.40
2009/04/23 14:17:30.7     180   -103    214    208    298 119.8  50.9  34170  289.75 0854.40
2009/04/23 14:17:30.8      30    -90    148     95    175 161.5  64.6  34176  289.84 0854.40
2009/04/23 14:17:30.9       2   -180    234    181    295 179.3  58.5  34182  289.93 0854.40
2009/04/23 14:17:31.0      53   -312    230    317    391 170.2  39.7  34184  289.98 0854.40
2009/04/23 14:17:31.1       8   -354    271    355    446 178.6  41.3  34188  290.05 0854.40
2009/04/23 14:17:31.2      72   -390    270    397    480 169.5  37.6  34190  290.09 0854.40
2009/04/23 14:17:31.3     -72   -309    220    318    386 193.1  38.0  34188  290.06 0854.40
2009/04/23 14:17:31.4     -42   -250    296    254    390 189.7  55.0  34202  290.28 0854.40
2009/04/23 14:17:31.5     153   -168    241    228    331 137.7  51.9  34206  290.36 0854.40
2009/04/23 14:17:31.6     190   -207    182    282    335 137.5  35.9  34202  290.27 0854.40
2009/04/23 14:17:31.7     144   -254    149    293    328 150.4  29.1  34200  290.24 0854.40
2009/04/23 14:17:31.8       4   -281    209    282    351 179.1  40.1  34202  290.28 0854.40
2009/04/23 14:17:31.9      -4   -256    219    257    337 181.0  44.8  34204  290.31 0854.40
2009/04/23 14:17:32.0      14    -89    163     91    186 171.1  68.8  34206  290.36 0854.40
2009/04/23 14:17:32.1      13    -28    109     32    113 154.7  83.3  34222  290.64 0854.40
2009/04/23 14:17:32.2     -15    -63    183     65    194 193.4  80.2  34218  290.55 0854.40
2009/04/23 14:17:32.3      51    -12    118     53    129 104.2  74.0  34214  290.50 0854.40
2009/04/23 14:17:32.4     128    -12     90    129    157  95.7  38.6  34202  290.28 0854.40
2009/04/23 14:17:32.5      20    -37    129     43    135 151.0  81.0  34212  290.47 0854.40
2009/04/23 14:17:32.6      50    -88     96    102    140 150.1  48.0  34214  290.48 0854.35
2009/04/23 14:17:32.7      23   -171     61    173    184 172.2  19.6  34202  290.28 0854.35
2009/04/23 14:17:32.8     134   -145    104    198    223 137.2  30.1  34210  290.41 0854.35
2009/04/23 14:17:32.9     210   -133    102    249    269 122.4  23.1  34210  290.42 0854.35
2009/04/23 14:17:33.0      98    -97     79    139    159 134.8  32.1  34216  290.52 0854.35
2009/04/23 14:17:33.1     102   -108     52    149    159 136.7  19.4  34212  290.47 0854.35
2009/04/23 14:17:33.2     135   -212      7    252    253 147.4   1.6  34210  290.41 0854.35
2009/04/23 14:17:33.3      65   -222    117    232    259 163.7  28.7  34196  290.19 0854.35
2009/04/23 14:17:33.4     -53   -423     29    427    428 187.2   3.9  34198  290.21 0854.35
2009/04/23 14:17:33.5     -98   -327     -1    342    343 196.7  -0.3  34194  290.15 0854.35
2009/04/23 14:17:33.6    -109   -194     93    223    241 209.4  24.1  34200  290.26 0854.35
2009/04/23 14:17:33.7     -56   -252    239    259    352 192.5  47.6  34192  290.10 0854.35
2009/04/23 14:17:33.8     -40   -246    237    250    344 189.3  48.4  34206  290.36 0854.35
2009/04/23 14:17:33.9     -61   -176    152    187    240 199.2  43.3  34210  290.43 0854.35
2009/04/23 14:17:34.0      63    -63    186     90    206 135.0  72.8  34200  290.25 0854.35
2009/04/23 14:17:34.1      28    -23    168     37    172 129.5  88.2  34206  290.36 0854.35
2009/04/23 14:17:34.2     120   -106    116    161    198 131.3  39.5  34196  290.19 0854.35
2009/04/23 14:17:34.3     126    -63     81    141    162 116.6  32.7  34200  290.26 0854.35
2009/04/23 14:17:34.4      17   -242     -4    243    244 176.0  -1.1  34204  290.32 0854.35
2009/04/23 14:17:34.5     -21   -225    -12    227    228 185.3  -3.2  34194  290.16 0854.35
2009/04/23 14:17:34.6     -45   -199     10    205    206 192.9   2.8  34198  290.23 0854.35
2009/04/23 14:17:34.7     -53   -207    -19    214    215 194.5  -5.2  34196  290.19 0854.35
2009/04/23 14:17:34.8       7   -153     17    154    155 177.3   6.5  34200  290.26 0854.35
2009/04/23 14:17:34.9      16   -137     51    138    147 173.3  20.9  34206  290.35 0854.35
2009/04/23 14:17:35.0     -51    -42     52     67     84 230.5  41.7  34210  290.41 0854.35
2009/04/23 14:17:35.1     -93     -5      5     94     95 266.5   3.3  34208  290.40 0854.35
2009/04/23 14:17:35.2     -79     81     13    114    115 315.9   6.9  34204  290.33 0854.35
2009/04/23 14:17:35.3     -46     78     22     91     94 329.3  13.7  34202  290.30 0854.35
2009/04/23 14:17:35.4    -172     57     99    182    207 288.6  31.0  34216  290.52 0854.35
2009/04/23 14:17:35.5    -204    110     56    232    239 298.4  13.7  34226  290.70 0854.35
2009/04/23 14:17:35.6    -328    168    -62    369    375 297.1  -9.6  34248  291.05 0854.35
2009/04/23 14:17:35.7    -252    -69     12    262    263 254.7   2.8  34244  291.00 0854.35
2009/04/23 14:17:35.8    -238   -132     53    273    279 240.9  11.1  34222  290.61 0854.35
2009/04/23 14:17:35.9    -366    -83    153    376    405 257.2  23.4  34228  290.72 0854.35
2009/04/23 14:17:36.0    -362    -71    -91    369    381 258.9 -13.9  34198  290.21 0854.35
2009/04/23 14:17:36.1    -223    -10    -62    224    233 267.2 -15.5  34212  290.47 0854.35
2009/04/23 14:17:36.2       6   -113    -61    114    129 176.9 -34.7  34220  290.60 0854.35
2009/04/23 14:17:36.3      12      0    -32     13     34  85.6 -83.6  34208  290.38 0854.35
2009/04/23 14:17:36.4     -65    196    -70    207    218 341.5 -23.3  34222  290.64 0854.35
2009/04/23 14:17:36.5    -155    139    -65    209    218 312.0 -22.3  34230  290.77 0854.35
2009/04/23 14:17:36.6     -95    375     10    387    388 345.7   1.5  34230  290.77 0854.39
2009/04/23 14:17:36.7       7    442    171    443    474   1.0  22.2  34222  290.61 0854.39
2009/04/23 14:17:36.8     -74    502    242    508    562 351.5  27.3  34216  290.53 0854.39
2009/04/23 14:17:36.9      11    533    378    534    654   1.3  38.7  34232  290.81 0854.39
2009/04/23 14:17:37.0     -95    396    291    408    501 346.4  39.1  34222  290.61 0854.39
2009/04/23 14:17:37.1    -156    552    196    574    607 344.2  18.9  34212  290.44 0854.39
2009/04/23 14:17:37.2    -218    598     12    637    638 340.0   1.1  34220  290.59 0854.39
2009/04/23 14:17:37.3    -137    656     -4    671    672 348.2  -0.4  34222  290.61 0854.39
2009/04/23 14:17:37.4    -279    543     29    611    612 332.8   2.8  34218  290.54 0854.39
2009/04/23 14:17:37.5      42    670     63    672    676   3.6   5.4  34242  290.95 0854.39
2009/04/23 14:17:37.6    -145    493    -28    514    515 343.6  -3.1  34220  290.59 0854.39
2009/04/23 14:17:37.7    -172    407    -66    442    448 337.1  -8.6  34224  290.65 0854.39
2009/04/23 14:17:37.8    -108    424    -80    438    446 345.6 -10.4  34216  290.51 0854.39
2009/04/23 14:17:37.9     -10    626    111    627    637 359.0  10.1  34244  290.99 0854.39
2009/04/23 14:17:38.0      20    644     72    645    650   1.8   6.4  34244  291.01 0854.39
2009/04/23 14:17:38.1     -36    641    175    643    667 356.8  15.3  34232  290.80 0854.39
2009/04/23 14:17:38.2    -167    507    185    534    566 341.7  19.2  34248  291.08 0854.39
2009/04/23 14:17:38.3    -326    426    135    537    554 322.6  14.2  34260  291.28 0854.39
2009/04/23 14:17:38.4    -469    399     35    616    617 310.4   3.3  34248  291.06 0854.39
2009/04/23 14:17:38.5    -424    332     46    539    542 308.1   5.0  34242  290.97 0854.39
2009/04/23 14:17:38.6    -243    346     28    423    424 324.9   3.8  34232  290.80 0854.43
2009/04/23 14:17:38.7    -185    389     17    432    433 334.5   2.3  34236  290.87 0854.43
2009/04/23 14:17:38.8    -259    413     67    488    493 327.9   7.9  34226  290.68 0854.43
2009/04/23 14:17:38.9    -274    248    161    370    403 312.1  25.1  34226  290.69 0854.43
2009/04/23 14:17:39.0    -165     99    212    193    286 301.1  53.2  34236  290.87 0854.43
2009/04/23 14:17:39.1     -36     15    120     40    126 293.5  81.0  34238  290.91 0854.43
2009/04/23 14:17:39.2    -249    -62     86    257    272 255.9  18.5  34218  290.56 0854.43
2009/04/23 14:17:39.3    -200   -132      6    240    241 236.5   1.6  34230  290.75 0854.43
2009/04/23 14:17:39.4     -82   -157   -158    178    238 207.6 -50.8  34244  291.01 0854.43
2009/04/23 14:17:39.5     114   -115   -220    163    273 135.2 -64.2  34224  290.66 0854.43
2009/04/23 14:17:39.6     241   -164   -208    292    358 124.2 -43.5  34230  290.76 0854.43
2009/04/23 14:17:39.7     350    -91    -89    362    373 104.6 -13.9  34228  290.71 0854.43
2009/04/23 14:17:39.8     363     30   -100    365    379  85.1 -15.4  34224  290.66 0854.43
2009/04/23 14:17:39.9     310    310   -314    439    539  45.0 -43.6  34226  290.68 0854.43
2009/04/23 14:17:40.0     412    111   -317    427    531  74.9 -44.6  34222  290.64 0854.43
2009/04/23 14:17:40.1     415    228   -267    474    544  61.1 -36.3  34230  290.75 0854.43
2009/04/23 14:17:40.2     398    361   -114    538    551  47.8 -12.0  34214  290.48 0854.43
2009/04/23 14:17:40.3      55    474    181    478    511   6.7  21.7  34216  290.51 0854.43
2009/04/23 14:17:40.4     -48    468    240    471    528 354.1  29.2  34210  290.42 0854.43
2009/04/23 14:17:40.5    -261    474    301    542    619 331.1  31.4  34198  290.22 0854.43
2009/04/23 14:17:40.6    -523    102    236    534    583 281.1  25.6  34206  290.35 0854.47
2009/04/23 14:17:40.7    -447    201     55    491    495 294.2   6.5  34212  290.44 0854.47
2009/04/23 14:17:40.8    -356    317     -2    477    478 311.7  -0.3  34216  290.51 0854.47
2009/04/23 14:17:40.9    -344    343    207    487    529 314.9  24.5  34212  290.47 0854.47
2009/04/23 14:17:41.0    -305    -82    173    316    360 254.9  31.3  34228  290.71 0854.47
2009/04/23 14:17:41.1    -327    -69    187    335    383 258.1  31.5  34228  290.71 0854.47
2009/04/23 14:17:41.2    -308      4    105    309    327 270.9  18.8  34230  290.75 0854.47
2009/04/23 14:17:41.3     -34     20    -13     40     42 301.5 -22.8  34232  290.79 0854.47
2009/04/23 14:17:41.4     -53   -124    -37    136    142 203.2 -15.4  34246  291.04 0854.47
2009/04/23 14:17:41.5     -18   -104     55    106    119 189.8  29.3  34252  291.13 0854.47
2009/04/23 14:17:41.6     -50      0    112     51    123 270.0  74.5  34248  291.08 0854.47
2009/04/23 14:17:41.7    -269   -108    105    291    309 248.0  20.7  34252  291.12 0854.47
2009/04/23 14:17:41.8    -369     -4     71    370    377 269.3  11.0  34222  290.62 0854.47
2009/04/23 14:17:41.9    -236    -85    -41    252    256 250.1  -9.3  34224  290.65 0854.47
2009/04/23 14:17:42.0    -244     52   -148    250    290 282.2 -37.9  34230  290.76 0854.47
2009/04/23 14:17:42.1    -428   -171    -79    462    469 248.2  -9.7  34202  290.30 0854.47
2009/04/23 14:17:42.2    -534   -237    -96    585    593 246.0  -9.3  34206  290.36 0854.47
2009/04/23 14:17:42.3    -419   -270     31    499    501 237.2   3.6  34208  290.39 0854.47
2009/04/23 14:17:42.4    -519   -230    193    568    601 246.1  18.8  34212  290.46 0854.47
2009/04/23 14:17:42.5    -241    -14    138    242    278 266.5  32.3  34208  290.39 0854.47
2009/04/23 14:17:42.6    -342    -84    122    353    374 256.2  19.2  34220  290.59 0854.47
2009/04/23 14:17:42.7    -419     84      9    428    429 281.4   1.2  34208  290.39 0854.47
2009/04/23 14:17:42.8    -407    -59    -74    412    419 261.6 -10.3  34204  290.31 0854.47
2009/04/23 14:17:42.9    -358   -168    -83    396    405 244.8 -11.9  34228  290.74 0854.47
2009/04/23 14:17:43.0    -289   -245     35    380    382 229.7   5.3  34242  290.98 0854.47
2009/04/23 14:17:43.1     -72   -310    -37    319    322 193.1  -6.7  34230  290.75 0854.47
2009/04/23 14:17:43.2    -160   -181     84    242    257 221.4  19.2  34250  291.10 0854.47
2009/04/23 14:17:43.3     -25   -230      2    232    233 186.2   0.7  34226  290.70 0854.47
2009/04/23 14:17:43.4    -209   -327     31    389    391 212.6   4.7  34220  290.59 0854.47
2009/04/23 14:17:43.5    -224   -256    117    341    361 221.2  18.9  34226  290.69 0854.47
2009/04/23 14:17:43.6    -491   -198    -80    530    537 248.0  -8.6  34204  290.33 0854.47
2009/04/23 14:17:43.7      51   -396     17    400    401 172.6   2.5  34208  290.40 0854.47
2009/04/23 14:17:43.8     -97   -399    105    411    425 193.7  14.4  34208  290.38 0854.47
2009/04/23 14:17:43.9    -135   -208    132    249    281 213.0  30.3  34206  290.36 0854.47
2009/04/23 14:17:44.0       6   -500     70    501    507 179.3   8.0  34204  290.32 0854.47
2009/04/23 14:17:44.1     -56   -482    142    486    507 186.7  16.3  34210  290.42 0854.47
2009/04/23 14:17:44.2     -97   -435    116    446    461 192.7  14.7  34224  290.65 0854.47
2009/04/23 14:17:44.3     -57   -405     39    410    412 188.1   5.5  34218  290.56 0854.47
2009/04/23 14:17:44.4     -46   -463   -109    466    479 185.7 -13.2  34202  290.30 0854.47
2009/04/23 14:17:44.5    -190   -466     -2    504    505 202.2  -0.3  34222  290.64 0854.47
2009/04/23 14:17:44.6     -91   -401    -21    412    413 192.8  -3.0  34218  290.55 0854.48
2009/04/23 14:17:44.7    -130   -342    -33    367    369 200.9  -5.2  34216  290.52 0854.48
2009/04/23 14:17:44.8       6   -408    -49    409    412 179.1  -6.9  34222  290.63 0854.48
2009/04/23 14:17:44.9       4   -291    -39    292    295 179.1  -7.7  34224  290.66 0854.48
2009/04/23 14:17:45.0      38   -344    -53    347    352 173.7  -8.8  34228  290.72 0854.48
2009/04/23 14:17:45.1     -33   -209    257    212    333 189.1  56.4  34252  291.12 0854.48
2009/04/23 14:17:45.2     -23   -166    209    168    268 188.0  57.1  34246  291.04 0854.48
2009/04/23 14:17:45.3    -149   -221    169    267    315 214.1  35.3  34254  291.17 0854.48
2009/04/23 14:17:45.4    -109   -163     38    197    201 213.8  11.1  34240  290.92 0854.48
2009/04/23 14:17:45.5    -113   -257    -54    281    287 203.8 -10.9  34218  290.54 0854.48
2009/04/23 14:17:45.6    -125   -312    -53    337    342 201.9  -9.0  34214  290.49 0854.48
2009/04/23 14:17:45.7    -192   -284    -96    343    356 214.1 -20.2  34218  290.54 0854.48
2009/04/23 14:17:45.8    -188   -233    -94    300    315 219.0 -17.5  34214  290.49 0854.48
2009/04/23 14:17:45.9    -189   -308    -97    362    375 211.6 -15.0  34212  290.47 0854.48
2009/04/23 14:17:46.0     -79   -272   -101    284    302 196.3 -19.7  34216  290.53 0854.48
2009/04/23 14:17:46.1    -126   -404    -24    424    425 197.4  -3.3  34234  290.82 0854.48
2009/04/23 14:17:46.2    -267   -251    -85    367    377 226.8 -13.1  34206  290.35 0854.48
2009/04/23 14:17:46.3     -91   -225    -40    243    247 202.1  -9.3  34224  290.65 0854.48
2009/04/23 14:17:46.4    -192   -124   -104    229    251 237.1 -30.6  34204  290.31 0854.48
2009/04/23 14:17:46.5     -89    -19    -74     92    118 257.6 -48.1  34194  290.14 0854.48
2009/04/23 14:17:46.6     112     55    -66    125    141  63.8 -34.2  34210  290.41 0854.49
2009/04/23 14:17:46.7     124    -49     11    134    135 111.8   4.9  34200  290.26 0854.49
2009/04/23 14:17:46.8      18    -96     51     98    110 169.3  29.3  34216  290.52 0854.49
2009/04/23 14:17:46.9      26    -12     66     29     72 115.3  75.0  34230  290.77 0854.49
2009/04/23 14:17:47.0     213    -41    188    217    287 101.0  45.6  34224  290.65 0854.49
2009/04/23 14:17:47.1     314   -161    204    353    407 117.2  32.7  34218  290.57 0854.49
2009/04/23 14:17:47.2     186   -264    240    324    403 144.8  40.4  34228  290.72 0854.49
2009/04/23 14:17:47.3     157   -261    224    305    378 149.0  39.8  34228  290.74 0854.49
2009/04/23 14:17:47.4     199   -164    202    259    328 129.5  42.0  34222  290.61 0854.49
2009/04/23 14:17:47.5     157   -202    211    257    332 142.1  43.7  34236  290.87 0854.49
2009/04/23 14:17:47.6     190   -284    238    342    416 146.2  38.4  34244  291.01 0854.49
2009/04/23 14:17:47.7     260   -208    289    334    441 128.7  45.4  34228  290.72 0854.49
2009/04/23 14:17:47.8     105     -9    235    106    257  95.2  74.2  34234  290.84 0854.49
2009/04/23 14:17:47.9       5    -95    159     96    185 176.9  66.0  34232  290.81 0854.49
2009/04/23 14:17:48.0     283   -183    307    338    456 122.9  47.0  34234  290.84 0854.49
2009/04/23 14:17:48.1     374   -190    198    420    464 117.0  27.1  34216  290.53 0854.49
2009/04/23 14:17:48.2     391    -52    176    395    432  97.6  25.6  34242  290.95 0854.49
2009/04/23 14:17:48.3     223    -33    222    226    316  98.6  49.7  34226  290.68 0854.49
2009/04/23 14:17:48.4     213    -59    224    222    315 105.5  50.1  34234  290.83 0854.49
2009/04/23 14:17:48.5      11    -95    227     96    246 173.3  76.0  34246  291.04 0854.49
2009/04/23 14:17:48.6     -52     -8    246     53    251 261.2  88.5  34262  291.30 0854.53
2009/04/23 14:17:48.7     -76     24    186     80    202 288.2  75.3  34262  291.30 0854.53
2009/04/23 14:17:48.8      83     17    201     85    218  78.1  76.1  34260  291.26 0854.53
2009/04/23 14:17:48.9     -67    -10    164     68    177 261.2  76.6  34252  291.13 0854.53
2009/04/23 14:17:49.0      28   -214    239    216    322 172.4  53.4  34246  291.04 0854.53
2009/04/23 14:17:49.1      13    -58    206     60    214 166.6  83.1  34242  290.96 0854.53
2009/04/23 14:17:49.2       6      7    166     10    166  39.6  90.0  34250  291.11 0854.53
2009/04/23 14:17:49.3      87     72    183    114    215  50.4  64.9  34254  291.16 0854.53
2009/04/23 14:17:49.4      57    118    151    132    200  25.9  54.3  34242  290.96 0854.53
2009/04/23 14:17:49.5     117     63    156    133    205  61.6  55.4  34244  290.99 0854.53
2009/04/23 14:17:49.6     197     64    213    208    297  71.8  50.7  34246  291.02 0854.53
2009/04/23 14:17:49.7     166    119    209    205    292  54.3  50.4  34250  291.09 0854.53
2009/04/23 14:17:49.8     243    186    226    307    381  52.5  39.9  34198  290.20 0854.53
2009/04/23 14:17:49.9     218    214    229    306    382  45.6  40.6  34204  290.32 0854.53
2009/04/23 14:17:50.0     290    123    255    316    406  66.9  43.0  34214  290.50 0854.53
2009/04/23 14:17:50.1     235    165    237    288    372  54.9  43.7  34218  290.54 0854.53
2009/04/23 14:17:50.2     236    262    122    353    374  42.0  19.2  34218  290.55 0854.53
2009/04/23 14:17:50.3     258    169    219    309    378  56.7  38.8  34218  290.57 0854.53
2009/04/23 14:17:50.4     530    109    196    542    577  78.3  19.9  34228  290.74 0854.53
2009/04/23 14:17:50.5     355    126    144    377    403  70.4  22.0  34214  290.50 0854.53
2009/04/23 14:17:50.6     223    226    163    318    357  44.5  29.3  34214  290.49 0854.51
2009/04/23 14:17:50.7     349    349    189    494    528  45.0  22.1  34248  291.07 0854.51
2009/04/23 14:17:50.8     315    412     68    519    524  37.4   7.5  34268  291.42 0854.51
2009/04/23 14:17:50.9     249    265     79    364    373  43.2  12.4  34224  290.67 0854.51
2009/04/23 14:17:51.0     214    194     62    289    296  47.8  12.1  34212  290.44 0854.51
2009/04/23 14:17:51.1     158    158    -80    224    237  45.1 -24.8  34218  290.54 0854.51
2009/04/23 14:17:51.2      91    156    -60    181    190  30.3 -23.8  34248  291.08 0854.51
2009/04/23 14:17:51.3     -58    185    -59    195    203 342.4 -21.8  34246  291.04 0854.51
2009/04/23 14:17:51.4    -113    219    -44    247    252 332.6 -10.3  34226  290.68 0854.51
2009/04/23 14:17:51.5     -44    111    -60    120    134 338.2 -33.1  34204  290.33 0854.51
2009/04/23 14:17:51.6      60     18    -67     63     91  73.2 -56.0  34210  290.41 0854.49
2009/04/23 14:17:51.7      60    117    -65    132    147  27.1 -31.7  34218  290.55 0854.49
2009/04/23 14:17:51.8     117    134   -120    179    215  41.2 -41.4  34210  290.43 0854.49
2009/04/23 14:17:51.9     180     82   -139    198    241  65.4 -42.9  34248  291.08 0854.49
2009/04/23 14:17:52.0     256    136   -140    290    322  62.0 -32.1  34256  291.19 0854.49
2009/04/23 14:17:52.1     407    135   -103    429    442  71.6 -13.6  34242  290.97 0854.49
2009/04/23 14:17:52.2     602    106    -32    612    613  80.0  -3.0  34230  290.76 0854.49
2009/04/23 14:17:52.3     502    123    177    517    547  76.2  18.9  34224  290.67 0854.49
2009/04/23 14:17:52.4     387    340     52    516    519  48.7   5.8  34212  290.44 0854.49
2009/04/23 14:17:52.5     390    416     46    571    574  43.2   4.7  34240  290.92 0854.49
2009/04/23 14:17:52.6     111    250    142    274    308  24.1  29.3  34246  291.04 0854.49
2009/04/23 14:17:52.7     231    187     55    298    304  51.1  10.6  34244  291.00 0854.49
2009/04/23 14:17:52.8     239    106    -34    262    265  66.0  -7.5  34246  291.02 0854.49
2009/04/23 14:17:52.9     174    191   -100    259    277  42.4 -26.5  34252  291.14 0854.49
2009/04/23 14:17:53.0      40    194    -74    199    212  11.8 -25.4  34262  291.30 0854.49
2009/04/23 14:17:53.1     238     75   -163    250    298  72.3 -40.4  34246  291.04 0854.49
2009/04/23 14:17:53.2     261    160      6    307    308  58.5   1.2  34244  290.99 0854.49
2009/04/23 14:17:53.3     300     90    182    314    362  73.2  32.8  34248  291.06 0854.49
2009/04/23 14:17:53.4     244    120     47    272    277  63.8   9.9  34250  291.09 0854.49
2009/04/23 14:17:53.5     252    183     25    312    314  54.0   4.6  34244  290.99 0854.49
2009/04/23 14:17:53.6     351    189     36    399    401  61.7   5.2  34248  291.06 0854.47
2009/04/23 14:17:53.7     353    148     87    384    394  67.2  12.9  34246  291.03 0854.47
2009/04/23 14:17:53.8     391    284    165    484    512  54.0  18.9  34218  290.54 0854.47
2009/04/23 14:17:53.9     219    484     14    532    533  24.3   1.6  34212  290.46 0854.47
2009/04/23 14:17:54.0      84    244    208    259    332  19.1  42.9  34242  290.95 0854.47
2009/04/23 14:17:54.1     -94    325     13    339    340 343.9   2.3  34238  290.88 0854.47
2009/04/23 14:17:54.2      91    411   -200    422    466  12.5 -31.6  34242  290.95 0854.47
2009/04/23 14:17:54.3     202    252   -248    323    407  38.7 -45.8  34232  290.81 0854.47
2009/04/23 14:17:54.4      -8     70   -238     71    248 352.9 -87.2  34224  290.65 0854.47
2009/04/23 14:17:54.5     -88      1   -282     89    295 270.8 -86.4  34238  290.90 0854.47
2009/04/23 14:17:54.6     -30     42   -249     52    254 323.9 -90.0  34228  290.74 0854.47
2009/04/23 14:17:54.7      -6    -93   -235     94    253 184.0 -81.5  34238  290.91 0854.47
2009/04/23 14:17:54.8      -4      8   -197     10    197 331.0 -90.0  34238  290.91 0854.47
2009/04/23 14:17:54.9     118     60   -198    133    238  62.9 -67.2  34232  290.79 0854.47
2009/04/23 14:17:55.0     -74     24   -194     78    209 288.2 -81.5  34244  291.01 0854.47
2009/04/23 14:17:55.1       2     10   -181     11    181  15.1 -90.0  34252  291.13 0854.47
2009/04/23 14:17:55.2      96     62   -134    115    176  57.1 -59.4  34256  291.20 0854.47
2009/04/23 14:17:55.3     138    -18   -209    140    251  97.5 -67.8  34250  291.11 0854.47
2009/04/23 14:17:55.4     256    161   -256    303    396  57.8 -48.9  34230  290.77 0854.47
2009/04/23 14:17:55.5      70    224    -78    235    247  17.6 -23.8  34224  290.65 0854.47
2009/04/23 14:17:55.6      78   -131    122    153    195 149.3  42.7  34218  290.57 0854.47
2009/04/23 14:17:55.7    -105   -351    125    367    388 196.7  18.8  34212  290.47 0854.47
2009/04/23 14:17:55.8    -146   -449    251    473    535 198.0  30.3  34210  290.42 0854.47
2009/04/23 14:17:55.9    -211   -475     94    520    529 204.0  10.3  34220  290.58 0854.47
2009/04/23 14:17:56.0      78   -337    107    346    363 166.9  17.3  34210  290.42 0854.47
2009/04/23 14:17:56.2     128   -377    133    399    421 161.2  18.5  34218  290.55 0854.47
2009/04/23 14:17:56.3       6   -385     27    386    387 179.0   4.0  34214  290.50 0854.47
2009/04/23 14:17:56.4    -154   -467    125    492    508 198.3  14.3  34212  290.44 0854.47
2009/04/23 14:17:56.5     -79   -401    169    409    442 191.2  23.8  34222  290.61 0854.47
2009/04/23 14:17:56.6    -186   -442     45    480    483 202.8   5.5  34214  290.49 0854.47
2009/04/23 14:17:56.7     -74   -355    -25    363    364 191.8  -4.0  34224  290.67 0854.47
2009/04/23 14:17:56.8     -44   -111     36    120    126 201.8  16.8  34226  290.70 0854.47
2009/04/23 14:17:56.9     142   -130    127    193    231 132.4  36.0  34222  290.64 0854.47
2009/04/23 14:17:57.0     129   -218    137    254    288 149.3  30.6  34220  290.59 0854.47
2009/04/23 14:17:57.1     185    -60    135    195    237 107.9  38.0  34224  290.65 0854.47
2009/04/23 14:17:57.2     -54     88    265    104    284 328.4  77.6  34230  290.75 0854.47
2009/04/23 14:17:57.3     363     24    251    364    442  86.1  37.9  34220  290.58 0854.47
2009/04/23 14:17:57.4     339    -86    172    350    389 104.3  28.0  34220  290.60 0854.47
2009/04/23 14:17:57.5     283   -216    192    357    405 127.4  30.6  34214  290.49 0854.47
2009/04/23 14:17:57.6     196   -172    172    261    312 131.3  36.5  34218  290.54 0854.47
2009/04/23 14:17:57.7     133    -96    230    165    283 125.9  60.8  34230  290.76 0854.47
2009/04/23 14:17:57.8      60    -74    146     96    174 141.3  63.9  34236  290.87 0854.47
2009/04/23 14:17:57.9     143    -98    146    174    227 124.4  44.1  34236  290.87 0854.47
2009/04/23 14:17:58.0     -12     54    130     56    141 347.5  75.0  34228  290.74 0854.47
2009/04/23 14:17:58.1     207    226    132    307    334  42.4  24.8  34232  290.78 0854.47
2009/04/23 14:17:58.2     247    210     69    325    333  49.6  12.0  34226  290.69 0854.47
2009/04/23 14:17:58.3     320     93    206    334    392  73.7  34.4  34228  290.72 0854.47
2009/04/23 14:17:58.4     298    153     30    336    338  62.8   5.2  34228  290.71 0854.47
2009/04/23 14:17:58.5     244    215     30    326    328  48.7   5.4  34228  290.71 0854.47
2009/04/23 14:17:58.6     268    233     58    356    361  49.0   9.3  34228  290.72 0854.47
2009/04/23 14:17:58.7     309     65   -134    316    343  78.1 -28.7  34232  290.79 0854.47
2009/04/23 14:17:58.8     421    122     94    439    450  73.8  12.1  34222  290.63 0854.47
2009/04/23 14:17:58.9     536    224     50    582    585  67.3   5.0  34220  290.59 0854.47
2009/04/23 14:17:59.0     601    207    297    636    701  70.9  26.9  34218  290.56 0854.47
2009/04/23 14:17:59.1     520    192    179    555    584  69.7  17.9  34224  290.66 0854.47
2009/04/23 14:17:59.2     512    184    200    545    580  70.2  21.0  34216  290.53 0854.47
2009/04/23 14:17:59.3     489     22    203    490    530  87.4  23.7  34228  290.71 0854.47
2009/04/23 14:17:59.4     568     56    130    571    586  84.3  12.9  34220  290.59 0854.47
2009/04/23 14:17:59.5     577     48    305    580    655  85.2  30.0  34230  290.76 0854.47
2009/04/23 14:17:59.6     484    -78    200    491    530  99.2  23.4  34232  290.79 0854.47
2009/04/23 14:17:59.7     524     83    188    531    564  81.0  19.6  34224  290.65 0854.49
2009/04/23 14:17:59.8     416    179    109    454    467  66.7  13.5  34220  290.58 0854.49
2009/04/23 14:17:59.9     358    -10     68    359    366  91.6  10.8  34220  290.59 0854.49
2009/04/23 14:18:00.0     151    159     49    220    226  43.4  12.6  34224  290.67 0854.49
2009/04/23 14:18:00.1     272    214    -30    347    349  51.8  -5.1  34212  290.45 0854.49
2009/04/23 14:18:00.2     490   -127     21    507    508 104.6   2.4  34218  290.56 0854.49
2009/04/23 14:18:00.3     467    174    239    499    553  69.5  27.3  34214  290.48 0854.49
2009/04/23 14:18:00.4     462    142    143    484    505  72.9  16.5  34218  290.54 0854.49
2009/04/23 14:18:00.5     445    222    -69    498    503  63.5  -7.9  34212  290.44 0854.49
2009/04/23 14:18:00.6     356    206   -122    412    430  59.9 -16.5  34204  290.31 0854.49
2009/04/23 14:18:00.7     469    249     80    532    539  62.0   8.6  34218  290.55 0854.49
2009/04/23 14:18:00.8     463    294     92    549    557  57.6   9.6  34224  290.67 0854.49
2009/04/23 14:18:00.9     409    181     63    448    453  66.1   8.0  34218  290.55 0854.49
2009/04/23 14:18:01.0     367    188    115    413    429  62.8  15.6  34226  290.68 0854.49
2009/04/23 14:18:01.1     307    178     69    356    363  59.9  11.1  34220  290.59 0854.49
2009/04/23 14:18:01.2     346    151     61    378    383  66.4   9.2  34224  290.67 0854.49
2009/04/23 14:18:01.3     316    182    -10    365    366  60.1  -1.6  34228  290.74 0854.49
2009/04/23 14:18:01.4     288    236     53    373    377  50.6   8.1  34224  290.67 0854.49
2009/04/23 14:18:01.5     329    210    117    391    409  57.5  16.7  34238  290.89 0854.49
2009/04/23 14:18:01.6     356    293    163    462    489  50.5  20.2  34242  290.96 0854.49
2009/04/23 14:18:01.7     444    142    162    467    495  72.2  19.2  34248  291.05 0854.46
2009/04/23 14:18:01.8     542    -11    293    543    617  91.3  30.8  34288  291.73 0854.46
2009/04/23 14:18:01.9     369   -140    259    395    472 110.8  36.5  34298  291.92 0854.46
2009/04/23 14:18:02.0     314    -43    242    317    398  97.9  41.2  34282  291.66 0854.46
2009/04/23 14:18:02.1     312     -9    254    313    403  91.7  43.3  34280  291.61 0854.46
2009/04/23 14:18:02.2     341     83    159    352    386  76.2  26.0  34282  291.64 0854.46
2009/04/23 14:18:02.3     202    -68    192    214    287 108.6  46.6  34306  292.06 0854.46
2009/04/23 14:18:02.4     149   -248     24    290    292 149.0   4.9  34296  291.87 0854.46
2009/04/23 14:18:02.5     -23   -302    -61    304    311 184.5 -11.3  34288  291.75 0854.46
2009/04/23 14:18:02.6     -99   -422     72    434    440 193.3   9.5  34282  291.63 0854.46
2009/04/23 14:18:02.7     -80   -387    106    396    410 191.7  15.0  34278  291.58 0854.46
2009/04/23 14:18:02.8     -40   -323    131    326    351 187.2  23.0  34284  291.69 0854.46
2009/04/23 14:18:02.9      57   -403    216    408    461 171.9  30.2  34278  291.58 0854.46
2009/04/23 14:18:03.0     -65   -337    185    344    390 191.0  30.6  34278  291.59 0854.46
2009/04/23 14:18:03.1    -130   -296     51    324    329 203.7   9.0  34276  291.53 0854.46
2009/04/23 14:18:03.2    -125   -351     71    373    380 199.7  10.8  34278  291.59 0854.46
2009/04/23 14:18:03.3     -64   -345    155    351    383 190.6  25.3  34308  292.10 0854.46
2009/04/23 14:18:03.4      -8   -254    126    255    284 182.0  28.2  34306  292.04 0854.46
2009/04/23 14:18:03.5       0   -232      2    233    234 180.0   0.7  34280  291.61 0854.46
2009/04/23 14:18:03.6     -48   -246    -48    251    256 191.1 -10.9  34266  291.38 0854.46
2009/04/23 14:18:03.7     -84   -281     19    294    295 196.7   3.8  34268  291.41 0854.48
2009/04/23 14:18:03.8     -48   -224     43    230    234 192.3  10.6  34266  291.38 0854.48
2009/04/23 14:18:03.9     -46   -140     34    148    152 198.3  13.1  34264  291.35 0854.48
2009/04/23 14:18:04.0    -111   -125     32    168    172 221.4  10.8  34268  291.40 0854.48
2009/04/23 14:18:04.1    -162   -214     97    269    285 217.2  20.7  34270  291.43 0854.48
2009/04/23 14:18:04.2     -94   -232     68    251    261 202.1  15.3  34270  291.44 0854.48
2009/04/23 14:18:04.3    -136   -230    101    268    286 210.7  21.5  34280  291.60 0854.48
2009/04/23 14:18:04.4     -93   -239    -32    257    260 201.4  -7.2  34276  291.55 0854.48
2009/04/23 14:18:04.5       0   -296     22    297    298 180.0   4.4  34262  291.31 0854.48
2009/04/23 14:18:04.6     -10   -329     38    330    333 181.9   6.6  34256  291.20 0854.48
2009/04/23 14:18:04.7      25   -330     34    332    334 175.5   6.0  34258  291.25 0854.48
2009/04/23 14:18:04.8       0   -346    239    347    421 179.9  37.9  34246  291.03 0854.48
2009/04/23 14:18:04.9     -81   -303    168    314    356 195.1  30.6  34240  290.93 0854.48
2009/04/23 14:18:05.0     -47   -279     94    284    300 189.7  18.4  34242  290.97 0854.48
2009/04/23 14:18:05.1     -52   -362      5    366    367 188.2   0.8  34240  290.93 0854.48
2009/04/23 14:18:05.2    -106   -316     -6    334    335 198.6  -1.1  34242  290.98 0854.48
2009/04/23 14:18:05.3    -113   -239    -80    265    276 205.3 -21.7  34246  291.04 0854.48
2009/04/23 14:18:05.4     -75   -275   -132    286    314 195.4 -30.9  34246  291.04 0854.48
2009/04/23 14:18:05.5     -53   -305   -111    310    330 190.0 -19.7  34240  290.93 0854.48
2009/04/23 14:18:05.6     -31   -340    -74    342    351 185.3 -12.3  34238  290.89 0854.48
2009/04/23 14:18:05.7     -84   -292    -72    304    313 196.1 -13.4  34248  291.05 0854.48
2009/04/23 14:18:05.8      61   -258    -64    266    274 166.6 -13.7  34244  290.99 0854.48
2009/04/23 14:18:05.9      27   -195    -96    197    219 172.0 -32.2  34246  291.03 0854.48
2009/04/23 14:18:06.0      76   -232   -103    245    265 161.7 -28.6  34238  290.90 0854.48
2009/04/23 14:18:06.1      81   -235   -102    249    269 160.8 -27.5  34238  290.88 0854.48
2009/04/23 14:18:06.2      94   -200    -62    222    230 154.7 -20.2  34240  290.94 0854.48
2009/04/23 14:18:06.3      82   -223    -31    238    241 159.7  -7.5  34252  291.12 0854.48
2009/04/23 14:18:06.4     137   -184    -22    230    232 143.3  -5.6  34254  291.16 0854.48
2009/04/23 14:18:06.5     102   -237     26    259    261 156.6   5.9  34240  290.92 0854.48
2009/04/23 14:18:06.6      80   -312     60    323    329 165.5  10.6  34250  291.09 0854.48
2009/04/23 14:18:06.7      44   -289     85    293    306 171.3  16.3  34248  291.07 0854.48
2009/04/23 14:18:06.8      47   -254    161    259    304 169.4  35.2  34252  291.14 0854.48
2009/04/23 14:18:06.9      12   -247    136    248    282 177.1  31.3  34258  291.22 0854.48
2009/04/23 14:18:07.0     -59   -317    131    323    348 190.6  23.2  34250  291.10 0854.48
2009/04/23 14:18:07.1    -177   -185    135    257    290 223.7  29.8  34246  291.02 0854.48
2009/04/23 14:18:07.2    -167   -188     86    252    267 221.7  18.9  34248  291.07 0854.48
2009/04/23 14:18:07.3    -263   -216    131    341    365 230.5  22.0  34262  291.32 0854.48
2009/04/23 14:18:07.4    -107    -91    181    141    229 229.6  58.2  34278  291.59 0854.48
2009/04/23 14:18:07.5     -74    -62    178     97    202 230.0  68.9  34268  291.40 0854.48
2009/04/23 14:18:07.6     -18   -136    176    138    223 187.6  58.2  34256  291.21 0854.48
2009/04/23 14:18:07.7     -81   -135    140    158    211 211.2  46.2  34248  291.08 0854.47
2009/04/23 14:18:07.8     -98   -118     46    154    161 219.7  16.8  34244  291.01 0854.47
2009/04/23 14:18:07.9     -31    -95     19    101    103 198.3  11.1  34248  291.06 0854.47
2009/04/23 14:18:08.0       8    -50     12     51     53 170.2  13.2  34250  291.11 0854.47
2009/04/23 14:18:08.1       0    -75     57     76     95 180.0  40.7  34248  291.08 0854.47
2009/04/23 14:18:08.2     -18   -115     32    117    122 189.3  15.3  34246  291.03 0854.47
2009/04/23 14:18:08.3     -65    -97     36    117    123 213.8  17.3  34240  290.94 0854.47
2009/04/23 14:18:08.4    -189    -33    -45    192    198 259.9 -13.4  34252  291.15 0854.47
2009/04/23 14:18:08.5    -279     48   -102    284    301 279.9 -24.8  34250  291.09 0854.47
2009/04/23 14:18:08.6    -160    140    -11    213    214 311.3  -3.1  34246  291.04 0854.47
2009/04/23 14:18:08.7    -147    214    -96    260    277 325.5 -25.4  34256  291.19 0854.47
2009/04/23 14:18:08.8    -285    206     19    352    353 305.9   3.2  34260  291.27 0854.47
2009/04/23 14:18:08.9    -230    127    110    263    285 298.9  24.1  34270  291.43 0854.47
2009/04/23 14:18:09.0    -186    175    179    256    312 313.1  38.4  34260  291.27 0854.47
2009/04/23 14:18:09.1    -135    199    210    241    319 325.8  45.6  34256  291.21 0854.47
2009/04/23 14:18:09.2      -8     47    130     48    138 349.3  79.1  34266  291.38 0854.47
2009/04/23 14:18:09.3     -40     -4     41     41     57 263.9  50.1  34272  291.47 0854.47
2009/04/23 14:18:09.4       8    102     42    103    111   4.5  23.1  34260  291.26 0854.47
2009/04/23 14:18:09.5     -59     91     75    109    132 326.6  37.6  34254  291.16 0854.47
2009/04/23 14:18:09.6    -189    136     34    233    236 305.7   8.5  34250  291.10 0854.47
2009/04/23 14:18:09.7    -192    139    -27    238    240 305.9  -6.7  34272  291.48 0854.46
2009/04/23 14:18:09.8    -280    127    119    308    330 294.4  22.0  34274  291.50 0854.46
2009/04/23 14:18:09.9    -483     17    -18    484    485 272.1  -2.2  34296  291.87 0854.46
2009/04/23 14:18:10.0    -412     41   -114    415    431 275.7 -15.4  34300  291.94 0854.46
2009/04/23 14:18:10.1    -188     51   -140    195    240 285.3 -43.7  34286  291.72 0854.46
2009/04/23 14:18:10.2     -36      2   -207     37    210 274.3 -90.0  34288  291.74 0854.46
2009/04/23 14:18:10.3       8     45   -163     46    169  10.7 -88.5  34278  291.57 0854.46
2009/04/23 14:18:10.4     231    -46    -66    236    246 101.5 -15.8  34270  291.44 0854.46
2009/04/23 14:18:10.5     257    -69    -85    267    280 105.1 -22.8  34262  291.29 0854.46
2009/04/23 14:18:10.6     268   -127    -50    297    302 115.4  -9.6  34258  291.24 0854.46
2009/04/23 14:18:10.7     342    -89   -101    354    368 104.7 -20.7  34250  291.11 0854.46
2009/04/23 14:18:10.8     370    -36    -75    372    380  95.7 -11.5  34248  291.08 0854.46
2009/04/23 14:18:10.9     323    -14   -134    324    350  92.6 -28.1  34248  291.08 0854.46
2009/04/23 14:18:11.0     164      2   -123    165    205  89.2 -45.1  34248  291.06 0854.46
2009/04/23 14:18:11.1       7    -52   -152     53    160 172.0 -84.9  34250  291.11 0854.46
2009/04/23 14:18:11.2     -52    -33   -116     62    131 237.5 -74.2  34260  291.28 0854.46
2009/04/23 14:18:11.3      23   -189    -68    191    202 172.9 -24.6  34252  291.13 0854.46
2009/04/23 14:18:11.4      39   -245    -89    249    265 170.9 -19.7  34256  291.21 0854.46
2009/04/23 14:18:11.5      54   -243     -9    250    251 167.3  -2.3  34244  290.99 0854.46
2009/04/23 14:18:11.6     183   -144     41    234    238 128.2  10.1  34240  290.93 0854.46
2009/04/23 14:18:11.7     201   -201    104    285    303 135.0  20.9  34242  290.95 0854.45
2009/04/23 14:18:11.8     200   -265      0    333    334 143.0   0.1  34244  291.00 0854.45
2009/04/23 14:18:11.9     161   -173     76    237    250 137.0  17.9  34242  290.95 0854.45
2009/04/23 14:18:12.0      96   -159    130    187    227 148.8  38.0  34244  291.01 0854.45
2009/04/23 14:18:12.1     -54   -228    142    235    274 193.4  34.0  34248  291.05 0854.45
2009/04/23 14:18:12.2     -66   -317    134    324    350 191.8  23.7  34250  291.11 0854.45
2009/04/23 14:18:12.3    -206   -362    147    417    442 209.6  20.2  34250  291.09 0854.45
2009/04/23 14:18:12.4    -186   -432    127    471    489 203.3  15.1  34274  291.51 0854.45
2009/04/23 14:18:12.5    -294   -294    180    417    454 225.0  25.0  34266  291.36 0854.45
2009/04/23 14:18:12.6    -252   -223    137    337    363 228.4  23.4  34268  291.40 0854.45
2009/04/23 14:18:12.7    -240   -368    -24    440    441 213.2  -3.2  34264  291.35 0854.43
2009/04/23 14:18:12.8     -87   -367    156    378    408 193.4  23.7  34248  291.06 0854.43
2009/04/23 14:18:12.9      90   -385    224    396    454 166.7  32.0  34252  291.12 0854.43
2009/04/23 14:18:13.0     186   -341    259    389    467 151.3  36.7  34252  291.14 0854.43
2009/04/23 14:18:13.1     207   -348    156    406    434 149.3  22.1  34224  290.67 0854.43
2009/04/23 14:18:13.2     135   -375    -50    399    403 160.1  -7.2  34238  290.89 0854.43
2009/04/23 14:18:13.3     223   -435    -30    490    491 152.8  -3.5  34222  290.64 0854.43
2009/04/23 14:18:13.4     229   -413    -44    473    476 151.0  -5.3  34218  290.57 0854.43
2009/04/23 14:18:13.5     219   -397    -23    454    455 151.1  -3.0  34208  290.39 0854.43
2009/04/23 14:18:13.6     111   -386     66    402    408 164.0   9.4  34226  290.70 0854.43
2009/04/23 14:18:13.7      94   -413     74    424    431 167.1   9.9  34232  290.78 0854.43
2009/04/23 14:18:13.8     101   -393     27    406    407 165.5   3.9  34232  290.78 0854.43
2009/04/23 14:18:13.9     118   -382     45    400    403 162.8   6.5  34228  290.71 0854.43
2009/04/23 14:18:14.0      56   -398     12    403    404 171.9   1.7  34234  290.82 0854.43
2009/04/23 14:18:14.1     115   -324     26    344    345 160.4   4.4  34216  290.52 0854.43
2009/04/23 14:18:14.2     139   -291     67    323    331 154.5  11.8  34204  290.31 0854.43
2009/04/23 14:18:14.3     147   -327    172    359    398 155.8  27.3  34202  290.27 0854.43
2009/04/23 14:18:14.4     111   -306    186    326    375 160.0  32.3  34194  290.16 0854.43
2009/04/23 14:18:14.5      88   -266    234    281    365 161.5  44.0  34212  290.45 0854.43
2009/04/23 14:18:14.6      19   -275    275    276    389 176.0  50.1  34212  290.45 0854.43
2009/04/23 14:18:14.7      -3   -207    249    208    324 180.9  56.1  34224  290.65 0854.44
2009/04/23 14:18:14.8      36   -101    168    108    199 160.4  64.4  34232  290.81 0854.44
2009/04/23 14:18:14.9       1    -64    206     65    216 179.1  81.8  34232  290.81 0854.44
2009/04/23 14:18:15.0     150   -114    119    189    223 127.3  35.5  34228  290.72 0854.44
2009/04/23 14:18:15.1      13   -112     74    113    135 173.3  35.6  34224  290.65 0854.44
2009/04/23 14:18:15.2       1   -106    151    107    185 179.1  61.3  34240  290.94 0854.44
2009/04/23 14:18:15.3     -62   -182    135    193    235 198.9  38.6  34230  290.75 0854.44
2009/04/23 14:18:15.4    -136   -312    131    341    365 203.6  22.0  34228  290.71 0854.44
2009/04/23 14:18:15.5    -100   -244    115    264    287 202.3  25.1  34232  290.78 0854.44
2009/04/23 14:18:15.6     -25   -319    159    321    358 184.5  28.4  34224  290.67 0854.44
2009/04/23 14:18:15.7     -33   -170    247    174    302 191.1  61.5  34242  290.97 0854.44
2009/04/23 14:18:15.8      33     11    138     35    142  71.6  85.4  34254  291.18 0854.44
2009/04/23 14:18:15.9      -2     27    172     28    174 355.5  90.0  34256  291.20 0854.44
2009/04/23 14:18:16.0      26    -25    163     37    167 133.3  87.7  34256  291.21 0854.44
2009/04/23 14:18:16.1      25     87    138     91    165  16.5  63.9  34252  291.15 0854.44
2009/04/23 14:18:16.2      78     21    227     81    241  74.5  79.9  34246  291.03 0854.44
2009/04/23 14:18:16.3      28    -43    168     52    175 146.6  81.8  34248  291.08 0854.44
2009/04/23 14:18:16.4      23    -49    215     55    221 154.6  85.4  34260  291.28 0854.44
2009/04/23 14:18:16.5     158    -19    226    160    276  97.0  61.3  34254  291.16 0854.44
2009/04/23 14:18:16.6      95      0    201     96    222  90.0  72.9  34262  291.30 0854.44
2009/04/23 14:18:16.7      97     44    222    107    246  65.2  72.8  34248  291.08 0854.45
2009/04/23 14:18:16.8      26    -52    142     59    153 152.8  77.0  34254  291.16 0854.45
2009/04/23 14:18:16.9     -24    -73    108     78    133 198.5  60.6  34250  291.11 0854.45
2009/04/23 14:18:17.0     -30     15    111     34    116 297.1  82.3  34270  291.45 0854.45
2009/04/23 14:18:17.1      -8     12    114     15    114 327.5  90.0  34270  291.43 0854.45
2009/04/23 14:18:17.2     -17     36    114     40    120 334.5  80.2  34278  291.57 0854.45
2009/04/23 14:18:17.3     -45     58    124     74    144 322.2  66.2  34272  291.47 0854.45
2009/04/23 14:18:17.4       0    117    138    118    181   0.0  55.0  34266  291.38 0854.45
2009/04/23 14:18:17.5     175     54    183    184    259  72.9  50.0  34244  290.99 0854.45
2009/04/23 14:18:17.6     193     33    135    196    237  80.1  37.8  34284  291.67 0854.45
2009/04/23 14:18:17.7     109    132    189    172    255  39.6  53.2  34358  292.93 0854.45
2009/04/23 14:18:17.8     125    185    181    224    287  34.1  43.3  34386  293.40 0854.45
2009/04/23 14:18:17.9     148    164    174    222    282  42.1  41.7  34386  293.40 0854.45
2009/04/23 14:18:18.0     191     74    214    206    297  68.7  51.2  34370  293.13 0854.45
2009/04/23 14:18:18.1     117     79    166    142    218  55.9  55.4  34364  293.05 0854.45
2009/04/23 14:18:18.2      87     63    156    108    189  54.1  62.1  34370  293.14 0854.45
2009/04/23 14:18:18.3     111     81    181    138    227  54.0  59.0  34384  293.39 0854.45
2009/04/23 14:18:18.4     249    139    206    286    352  60.7  39.5  34418  293.96 0854.45
2009/04/23 14:18:18.5     241    154    207    287    353  57.4  39.5  34400  293.65 0854.45
2009/04/23 14:18:18.6     234    145    195    276    337  58.2  38.8  34380  293.32 0854.45
2009/04/23 14:18:18.7     205    182    209    275    345  48.4  41.1  34384  293.37 0854.43
2009/04/23 14:18:18.8     267    206    209    338    397  52.4  34.6  34352  292.82 0854.43
2009/04/23 14:18:18.9     -12     -4    151     13    151 251.8  90.0  34314  292.20 0854.43
2009/04/23 14:18:19.0      40    -40    206     57    213 134.9  84.4  34246  291.03 0854.43
2009/04/23 14:18:19.1     197    -69    229    209    310 109.5  53.0  34242  290.95 0854.43
2009/04/23 14:18:19.2     132   -105    199    169    261 128.6  55.4  34222  290.63 0854.43
2009/04/23 14:18:19.3      41    -50    129     65    144 140.3  71.0  34222  290.62 0854.43
2009/04/23 14:18:19.4      -6    -18    198     19    198 198.5  90.0  34216  290.52 0854.43
2009/04/23 14:18:19.5      76    -46    187     89    207 121.1  72.9  34232  290.79 0854.43
2009/04/23 14:18:19.6     134    -66    158    150    217 116.2  52.0  34244  290.99 0854.43
2009/04/23 14:18:19.7      34   -126    227    131    262 164.9  67.5  34234  290.84 0854.43
2009/04/23 14:18:19.8     -51   -257    261    263    370 191.3  50.0  34232  290.81 0854.43
2009/04/23 14:18:19.9      77   -176    128    193    231 156.4  36.3  34230  290.77 0854.43
2009/04/23 14:18:20.0     -15   -228    234    229    327 183.8  50.7  34210  290.41 0854.43
2009/04/23 14:18:20.1     -89   -206    207    225    305 203.4  47.7  34212  290.44 0854.43
2009/04/23 14:18:20.2       0    -87    101     88    133 180.5  54.3  34220  290.58 0854.43
2009/04/23 14:18:20.3     134    -41     49    141    150 106.9  19.2  34208  290.38 0854.43
2009/04/23 14:18:20.4      68    -49    148     84    170 125.9  68.1  34218  290.57 0854.43
2009/04/23 14:18:20.5      80    -35    123     88    151 114.0  60.6  34240  290.92 0854.43
2009/04/23 14:18:20.6      30     89     41     94    102  18.7  24.6  34238  290.89 0854.43
2009/04/23 14:18:20.7      18    129     35    131    136   8.0  15.3  34238  290.89 0854.40
2009/04/23 14:18:20.8      44     98     24    108    111  24.1  12.6  34246  291.03 0854.40
2009/04/23 14:18:20.9      76     39     21     86     89  62.9  14.3  34242  290.98 0854.40
2009/04/23 14:18:21.0      63   -125     60    141    153 153.3  24.1  34230  290.75 0854.40
2009/04/23 14:18:21.1      66   -222    166    232    285 163.3  39.3  34222  290.63 0854.40
2009/04/23 14:18:21.2     -38   -247    266    251    365 188.9  52.1  34202  290.28 0854.40
2009/04/23 14:18:21.3     -18    -29    192     35    195 212.6  90.0  34198  290.23 0854.40
2009/04/23 14:18:21.4     139   -294    221    326    393 154.7  37.4  34212  290.45 0854.40
2009/04/23 14:18:21.5     -83   -249    180    263    318 198.5  37.7  34204  290.31 0854.40
2009/04/23 14:18:21.6      38    -87    140     96    169 156.4  62.4  34242  290.98 0854.40
2009/04/23 14:18:21.7     -28   -211    198    213    290 187.6  47.9  34222  290.61 0854.40
2009/04/23 14:18:21.8      10   -278     22    279    280 177.8   4.6  34220  290.58 0854.40
2009/04/23 14:18:21.9     181   -341     18    387    388 152.0   2.8  34198  290.20 0854.40
2009/04/23 14:18:22.0     108   -349     56    366    371 162.8   8.8  34194  290.16 0854.40
2009/04/23 14:18:22.1     131   -352    115    376    394 159.5  17.1  34198  290.20 0854.40
2009/04/23 14:18:22.2     -34   -279    272    282    391 187.1  49.0  34210  290.43 0854.40
2009/04/23 14:18:22.3     -39   -271    271    274    385 188.2  49.9  34218  290.55 0854.40
2009/04/23 14:18:22.4     -27   -249    254    251    357 186.2  50.2  34208  290.39 0854.40
2009/04/23 14:18:22.5     -37   -318    229    321    394 186.7  39.0  34198  290.23 0854.40
2009/04/23 14:18:22.6      54   -378    196    382    429 171.8  29.3  34198  290.21 0854.40
2009/04/23 14:18:22.7     151   -240    235    284    368 147.7  43.8  34204  290.32 0854.36
2009/04/23 14:18:22.8      92   -354    214    366    423 165.3  33.0  34196  290.17 0854.36
2009/04/23 14:18:22.9     -34   -271    215    274    348 187.3  42.2  34194  290.15 0854.36
2009/04/23 14:18:23.0     -30   -198    276    201    341 188.7  60.5  34200  290.24 0854.36
2009/04/23 14:18:23.1      96   -143    164    173    238 146.2  48.5  34200  290.26 0854.36
2009/04/23 14:18:23.2       3   -223    213    224    309 179.0  48.5  34200  290.26 0854.36
2009/04/23 14:18:23.3     -35   -229    213    232    314 188.7  47.3  34194  290.14 0854.36
2009/04/23 14:18:23.4    -122   -260    209    288    355 205.2  39.5  34198  290.20 0854.36
2009/04/23 14:18:23.5      17   -174    242    175    298 174.4  60.6  34200  290.26 0854.36
2009/04/23 14:18:23.6     -10   -184    238    185    301 183.4  58.5  34204  290.31 0854.36
2009/04/23 14:18:23.7      69   -192    176    205    270 160.2  44.9  34202  290.27 0854.36
2009/04/23 14:18:23.8      54   -185    209    193    284 163.5  52.5  34210  290.41 0854.36
2009/04/23 14:18:24.0     169   -279    243    327    407 148.8  40.4  34206  290.35 0854.36
2009/04/23 14:18:24.1      43   -250    216    254    333 170.2  44.7  34196  290.19 0854.36
2009/04/23 14:18:24.2     -19   -252    243    253    350 184.4  48.8  34218  290.54 0854.36
2009/04/23 14:18:24.3     -80   -270    244    282    372 196.5  45.4  34218  290.55 0854.36
2009/04/23 14:18:24.4     -25   -287    171    289    335 185.1  33.5  34204  290.31 0854.36
2009/04/23 14:18:24.5       0   -251    227    252    339 180.2  46.8  34208  290.37 0854.36
2009/04/23 14:18:24.6     -73   -202    228    215    313 200.0  52.0  34212  290.46 0854.36
2009/04/23 14:18:24.7     -55   -182    267    191    328 196.9  61.1  34218  290.56 0854.36
2009/04/23 14:18:24.8     -67   -177    218    190    289 200.9  54.3  34232  290.80 0854.35
2009/04/23 14:18:24.9      23    -68    171     72    185 161.3  76.3  34232  290.79 0854.35
2009/04/23 14:18:25.0     -22   -169    200    171    263 187.6  55.4  34216  290.51 0854.35
2009/04/23 14:18:25.1      -6   -167    170    168    239 182.2  50.1  34212  290.45 0854.35
2009/04/23 14:18:25.2     159    -77    147    177    230 116.0  43.8  34216  290.53 0854.35
2009/04/23 14:18:25.3     160     12    140    161    213  85.6  45.8  34216  290.53 0854.35
2009/04/23 14:18:25.4      26    -36    140     45    147 143.9  80.7  34226  290.69 0854.35
2009/04/23 14:18:25.5      40    -33    107     53    119 129.5  71.4  34228  290.72 0854.35
2009/04/23 14:18:25.6      35    -78    102     86    133 155.9  55.8  34228  290.72 0854.35
2009/04/23 14:18:25.7      51   -175    131    183    225 163.7  39.5  34250  291.11 0854.35
2009/04/23 14:18:25.8      -1    -52    127     53    137 181.8  76.6  34244  291.01 0854.35
2009/04/23 14:18:25.9     -31   -192    201    195    280 189.3  50.7  34230  290.75 0854.35
2009/04/23 14:18:26.0      53   -100    122    114    166 151.9  52.2  34248  291.08 0854.35
2009/04/23 14:18:26.1     -40   -190    137    195    238 192.0  38.6  34246  291.04 0854.35
2009/04/23 14:18:26.2       0   -163    139    164    214 180.0  44.5  34246  291.04 0854.35
2009/04/23 14:18:26.3      14   -189    140    190    236 175.6  40.4  34244  291.01 0854.35
2009/04/23 14:18:26.4       6   -220    161    221    273 178.4  39.7  34260  291.27 0854.35
2009/04/23 14:18:26.5    -118   -337    126    358    380 199.4  19.4  34274  291.52 0854.35
2009/04/23 14:18:26.6    -103   -337    194    353    402 197.0  31.3  34244  291.00 0854.35
2009/04/23 14:18:26.7     -49   -354    214    358    417 187.9  33.6  34224  290.67 0854.35
2009/04/23 14:18:26.8     -37   -348    303    351    463 186.2  45.2  34244  290.99 0854.33
2009/04/23 14:18:26.9    -158   -324    251    361    439 206.0  38.3  34298  291.92 0854.33
2009/04/23 14:18:27.0    -228   -308    193    384    429 216.5  28.7  34294  291.84 0854.33
2009/04/23 14:18:27.1    -118   -373     31    392    394 197.6   4.6  34304  292.03 0854.33
2009/04/23 14:18:27.2    -330   -388    159    510    535 220.4  17.3  34300  291.96 0854.33
2009/04/23 14:18:27.3    -214   -315    155    381    411 214.2  23.4  34282  291.66 0854.33
2009/04/23 14:18:27.4    -262   -321    179    415    451 219.3  24.9  34266  291.36 0854.33
2009/04/23 14:18:27.5    -220   -260     90    341    353 220.3  14.9  34280  291.62 0854.33
2009/04/23 14:18:27.6    -270   -206      1    340    341 232.6   0.2  34298  291.90 0854.33
2009/04/23 14:18:27.7    -119   -194     90    228    245 211.6  23.0  34268  291.39 0854.33
2009/04/23 14:18:27.8    -121   -189    114    225    252 212.7  29.1  34250  291.09 0854.33
2009/04/23 14:18:27.9    -131   -166    153    212    261 218.3  39.5  34242  290.97 0854.33
2009/04/23 14:18:28.0    -282   -258    170    383    419 227.6  25.6  34238  290.89 0854.33
2009/04/23 14:18:28.1    -201   -214     73    295    304 223.2  13.9  34250  291.09 0854.33
2009/04/23 14:18:28.2    -170   -187    -78    253    264 222.3 -22.3  34260  291.26 0854.33
2009/04/23 14:18:28.3     -79   -210    -80    225    238 200.7 -24.6  34252  291.14 0854.33
2009/04/23 14:18:28.4    -110   -242    -19    267    268 204.5  -4.1  34254  291.16 0854.33
2009/04/23 14:18:28.5    -193   -258    -15    323    324 216.7  -2.7  34260  291.27 0854.33
2009/04/23 14:18:28.6    -263   -304    -73    403    410 220.9 -10.4  34244  290.99 0854.33
2009/04/23 14:18:28.7    -288   -298   -115    415    431 224.0 -15.5  34240  290.94 0854.33
2009/04/23 14:18:28.8    -285   -208    -90    353    365 233.9 -14.3  34244  291.00 0854.30
2009/04/23 14:18:28.9    -116   -349     31    369    371 198.5   4.9  34218  290.57 0854.30
2009/04/23 14:18:29.0     -66   -282     59    290    297 193.3  11.6  34220  290.58 0854.30
2009/04/23 14:18:29.1    -116   -309     -2    331    332 200.6  -0.4  34220  290.59 0854.30
2009/04/23 14:18:29.2    -109   -318     24    337    338 198.9   4.2  34212  290.47 0854.30
2009/04/23 14:18:29.3     -28   -336     68    338    345 184.9  11.5  34220  290.59 0854.30
2009/04/23 14:18:29.4     -21   -286     66    287    295 184.4  13.1  34216  290.53 0854.30
2009/04/23 14:18:29.5     -23   -284     88    285    299 184.7  17.3  34220  290.58 0854.30
2009/04/23 14:18:29.6     -13   -291     26    292    294 182.7   5.2  34224  290.65 0854.30
2009/04/23 14:18:29.7     -83   -325     17    336    337 194.4   2.9  34228  290.71 0854.30
2009/04/23 14:18:29.8     -50   -248     16    254    255 191.6   3.8  34222  290.63 0854.30
2009/04/23 14:18:29.9      27   -191      0    193    194 171.9  -0.3  34220  290.60 0854.30
2009/04/23 14:18:30.0     -11   -159     55    160    170 184.2  18.9  34214  290.48 0854.30
2009/04/23 14:18:30.1     -33    -19     68     39     78 239.3  67.7  34232  290.81 0854.30
2009/04/23 14:18:30.2      48     -7     90     49    102  98.8  68.9  34230  290.77 0854.30
2009/04/23 14:18:30.3      -5    -84    106     85    135 183.6  56.9  34224  290.67 0854.30
2009/04/23 14:18:30.4     -56    -37    104     68    124 236.7  64.1  34232  290.79 0854.30
2009/04/23 14:18:30.5     -53     16     39     56     68 286.8  38.6  34226  290.70 0854.30
2009/04/23 14:18:30.6     -16     48     82     51     96 341.7  64.7  34228  290.72 0854.30
2009/04/23 14:18:30.7      48     58     34     76     83  39.6  25.7  34228  290.72 0854.30
2009/04/23 14:18:30.8      -1     60    -24     61     65 358.2 -27.4  34228  290.72 0854.32
2009/04/23 14:18:30.9     -27     17     -9     32     34 302.4 -15.5  34228  290.74 0854.32
2009/04/23 14:18:31.0     -11    -33    -25     35     43 198.5 -44.1  34230  290.77 0854.32
2009/04/23 14:18:31.1     -27    -68    -37     74     82 201.8 -32.6  34228  290.72 0854.32
2009/04/23 14:18:31.2     -24    -64    -74     69    101 200.9 -56.6  34240  290.92 0854.32
2009/04/23 14:18:31.3     -52    -56    -55     77     94 223.2 -43.5  34240  290.92 0854.32
2009/04/23 14:18:31.4     -29    -92    -30     97    101 197.4 -22.3  34234  290.82 0854.32
2009/04/23 14:18:31.5      -4    -86    -32     87     92 182.7 -24.8  34230  290.75 0854.32
2009/04/23 14:18:31.6      13    -63    -40     65     76 168.4 -39.9  34230  290.75 0854.32
2009/04/23 14:18:31.7     -10    -11    -50     16     52 223.4 -85.1  34236  290.86 0854.32
2009/04/23 14:18:31.8       0    -15    -67     16     68 179.1 -90.0  34248  291.08 0854.32
2009/04/23 14:18:31.9       7    -22    -80     24     83 161.7 -86.7  34240  290.94 0854.32
2009/04/23 14:18:32.0      57    -68    -91     89    127 139.9 -54.6  34222  290.64 0854.32
2009/04/23 14:18:32.1      12    -25    -79     28     83 154.6 -85.1  34238  290.91 0854.32
2009/04/23 14:18:32.2      20      7    -78     22     81  70.0 -88.3  34242  290.96 0854.32
2009/04/23 14:18:32.3       2     46    -86     47     98   2.7 -73.7  34236  290.86 0854.32
2009/04/23 14:18:32.4      30     54    -59     62     85  29.0 -53.4  34232  290.81 0854.32
2009/04/23 14:18:32.5     -30     89    -58     94    110 341.3 -39.9  34226  290.69 0854.32
2009/04/23 14:18:32.6    -138    139   -112    197    226 315.2 -36.5  34242  290.96 0854.32
2009/04/23 14:18:32.7    -260     70    -85    270    283 285.1 -22.5  34244  290.99 0854.32
2009/04/23 14:18:32.8    -300    126   -236    326    402 292.8 -44.1  34196  290.18 0854.31
2009/04/23 14:18:32.9    -320     93   -280    334    435 286.3 -48.6  34204  290.31 0854.31
2009/04/23 14:18:33.0    -210     21   -271    212    344 275.9 -62.4  34196  290.19 0854.31
2009/04/23 14:18:33.1    -274    -20   -193    275    335 265.7 -43.0  34232  290.78 0854.31
2009/04/23 14:18:33.2    -275     69   -115    284    306 284.2 -27.5  34238  290.88 0854.31
2009/04/23 14:18:33.3    -391    -32   -121    393    411 265.2 -22.2  34240  290.94 0854.31
2009/04/23 14:18:33.4    -318    -18   -141    319    348 266.7 -30.0  34228  290.72 0854.31
2009/04/23 14:18:33.5    -268    -37   -139    271    304 262.1 -33.6  34208  290.37 0854.31
2009/04/23 14:18:33.6    -444    -27   -198    445    487 266.5 -30.1  34252  291.12 0854.31
2009/04/23 14:18:33.7    -475    -20   -221    476    524 267.5 -31.0  34236  290.86 0854.31
2009/04/23 14:18:33.8    -367     -5    -47    368    372 269.2  -7.3  34236  290.86 0854.31
2009/04/23 14:18:33.9    -412   -105   -108    426    440 255.7 -14.3  34238  290.89 0854.31
2009/04/23 14:18:34.0    -164    -95      9    190    191 239.8   2.9  34234  290.84 0854.31
2009/04/23 14:18:34.1    -119   -151     73    193    206 218.3  21.7  34242  290.96 0854.31
2009/04/23 14:18:34.2    -143    -79     23    164    166 241.2   8.0  34234  290.84 0854.31
2009/04/23 14:18:34.3    -165    -87    -18    187    188 242.0  -5.6  34236  290.87 0854.31
2009/04/23 14:18:34.4    -241   -114    -77    267    277 244.6 -20.8  34236  290.85 0854.31
2009/04/23 14:18:34.5    -187     -1   -101    188    213 269.4 -35.0  34238  290.91 0854.31
2009/04/23 14:18:34.6    -242    -53    -98    248    266 257.6 -27.4  34226  290.68 0854.31
2009/04/23 14:18:34.7    -271    -33    -59    274    281 262.9 -12.2  34224  290.65 0854.31
2009/04/23 14:18:34.8    -305    -82   -121    317    339 254.9 -26.2  34234  290.83 0854.31
2009/04/23 14:18:34.9    -232    -93   -101    251    270 248.0 -27.5  34232  290.80 0854.31
2009/04/23 14:18:35.0    -340   -167    -76    379    387 243.8 -11.3  34230  290.77 0854.31
2009/04/23 14:18:35.1    -296   -108    -80    316    327 250.0 -14.3  34230  290.75 0854.31
2009/04/23 14:18:35.2    -325   -145    -19    357    358 245.9  -3.2  34230  290.76 0854.31
2009/04/23 14:18:35.3    -361     -5      4    362    363 269.1   0.7  34236  290.86 0854.31
2009/04/23 14:18:35.4    -350     22    -31    351    353 273.6  -5.1  34232  290.81 0854.31
2009/04/23 14:18:35.5    -401     30    -35    403    405 274.4  -5.1  34228  290.73 0854.31
2009/04/23 14:18:35.6    -361     43     17    364    365 276.8   2.8  34226  290.69 0854.31
2009/04/23 14:18:35.7    -316     74     32    325    327 283.2   5.7  34226  290.70 0854.31
2009/04/23 14:18:35.8    -293     51     25    298    300 279.9   5.0  34222  290.61 0854.34
2009/04/23 14:18:35.9    -190    -55     -4    198    199 253.8  -1.2  34222  290.64 0854.34
2009/04/23 14:18:36.0    -216   -154    -20    266    267 234.5  -4.4  34224  290.66 0854.34
2009/04/23 14:18:36.1    -249   -109     38    272    275 246.3   8.0  34222  290.63 0854.34
2009/04/23 14:18:36.2    -181   -152     51    237    243 230.0  12.2  34218  290.56 0854.34
2009/04/23 14:18:36.3    -150   -126    151    197    248 230.0  41.6  34218  290.57 0854.34
2009/04/23 14:18:36.4    -309    -98     -9    325    326 252.3  -1.6  34232  290.80 0854.34
2009/04/23 14:18:36.5    -248      7     -5    249    250 271.7  -1.2  34242  290.97 0854.34
2009/04/23 14:18:36.6    -288    -12    102    289    307 267.6  19.6  34248  291.05 0854.34
2009/04/23 14:18:36.7    -131    147    160    197    253 318.3  43.5  34242  290.95 0854.34
2009/04/23 14:18:36.8    -120    188    114    224    251 327.5  29.1  34240  290.92 0854.34
2009/04/23 14:18:36.9     -90    272     70    287    296 341.7  13.7  34236  290.87 0854.34
2009/04/23 14:18:37.0    -165    153    108    226    250 312.9  27.3  34238  290.88 0854.34
2009/04/23 14:18:37.1    -245    304     92    391    402 321.2  13.3  34232  290.79 0854.34
2009/04/23 14:18:37.2    -320    249     41    406    409 307.9   5.8  34232  290.80 0854.34
2009/04/23 14:18:37.3    -271    176     30    324    326 303.0   5.4  34236  290.85 0854.34
2009/04/23 14:18:37.4    -252    214     60    331    337 310.4  10.4  34234  290.83 0854.34
2009/04/23 14:18:37.5    -265    212     80    340    350 308.8  13.3  34238  290.88 0854.34
2009/04/23 14:18:37.6    -227    149     -1    272    273 303.3  -0.3  34236  290.87 0854.34
2009/04/23 14:18:37.7    -202    123    -40    237    241 301.5  -9.8  34248  291.05 0854.34
2009/04/23 14:18:37.8    -137    267     35    301    304 332.8   6.7  34250  291.10 0854.30
2009/04/23 14:18:37.9    -216    342    166    405    437 327.7  23.5  34254  291.16 0854.30
2009/04/23 14:18:38.0    -249    284    142    378    403 318.7  21.6  34274  291.52 0854.30
2009/04/23 14:18:38.1    -181    275    203    330    387 326.6  34.6  34248  291.06 0854.30
2009/04/23 14:18:38.2    -269    293    168    398    432 317.5  24.2  34256  291.19 0854.30
2009/04/23 14:18:38.3    -371    247    148    446    470 303.7  18.4  34252  291.12 0854.30
2009/04/23 14:18:38.4    -252    -33    184    255    314 262.5  39.5  34234  290.82 0854.30
2009/04/23 14:18:38.5    -209   -132     97    248    266 237.6  22.5  34236  290.87 0854.30
2009/04/23 14:18:38.6    -169   -287    159    334    369 210.5  27.2  34250  291.11 0854.30
2009/04/23 14:18:38.7    -126   -276    208    304    368 204.5  37.6  34248  291.08 0854.30
2009/04/23 14:18:38.8      38   -280    256    283    381 172.2  46.8  34242  290.96 0854.30
2009/04/23 14:18:38.9      59   -269    267    276    384 167.5  49.1  34242  290.98 0854.30
2009/04/23 14:18:39.0       3   -199    236    200    309 179.1  55.6  34236  290.87 0854.30
2009/04/23 14:18:39.1     -26   -240    263    242    357 186.2  52.6  34236  290.87 0854.30
2009/04/23 14:18:39.2    -121   -279    222    305    377 203.4  39.7  34232  290.79 0854.30
2009/04/23 14:18:39.3     -59   -149    156    161    224 201.9  49.4  34236  290.86 0854.30
2009/04/23 14:18:39.4     -49   -284    215    289    360 189.8  40.2  34216  290.52 0854.30
2009/04/23 14:18:39.5    -106   -311    235    329    404 198.8  39.1  34222  290.64 0854.30
2009/04/23 14:18:39.6     -40   -238    221    242    327 189.6  47.1  34222  290.63 0854.30
2009/04/23 14:18:39.7      30    -55    164     63    175 151.0  78.2  34234  290.84 0854.30
2009/04/23 14:18:39.8     -43      1    128     44    135 272.6  81.2  34236  290.86 0854.32
2009/04/23 14:18:39.9     -52   -282    245    287    377 190.6  44.8  34224  290.66 0854.32
2009/04/23 14:18:40.0    -205   -303    155    367    398 214.1  24.2  34220  290.59 0854.32
2009/04/23 14:18:40.1    -326   -161    -19    364    365 243.6  -3.1  34254  291.17 0854.32
2009/04/23 14:18:40.2    -196   -196     95    278    294 225.1  18.9  34224  290.65 0854.32
2009/04/23 14:18:40.3    -284    -95    156    300    338 251.4  29.6  34242  290.97 0854.32
2009/04/23 14:18:40.4    -387   -230     -9    451    452 239.3  -1.3  34278  291.57 0854.32
2009/04/23 14:18:40.5    -441   -217    -76    492    498 243.8  -8.8  34276  291.54 0854.32
2009/04/23 14:18:40.6    -332   -328      5    467    468 225.4   0.7  34284  291.68 0854.32
2009/04/23 14:18:40.7    -485   -277    -21    559    560 240.3  -2.2  34268  291.42 0854.32
2009/04/23 14:18:40.8    -524   -114    174    537    565 257.7  18.0  34290  291.77 0854.32
2009/04/23 14:18:40.9    -273   -164    198    319    375 238.9  34.9  34238  290.91 0854.32
2009/04/23 14:18:41.0    -164    -67     61    178    189 247.6  18.9  34244  290.99 0854.32
2009/04/23 14:18:41.1      -9   -164    115    165    201 183.4  38.4  34208  290.38 0854.32
2009/04/23 14:18:41.2    -120   -233    229    263    348 207.2  45.5  34208  290.37 0854.32
2009/04/23 14:18:41.3    -136   -255    158    290    330 208.1  31.0  34206  290.34 0854.32
2009/04/23 14:18:41.4    -114   -398    118    415    432 196.0  15.9  34204  290.33 0854.32
2009/04/23 14:18:41.5    -164   -430     77    461    468 200.9   9.5  34210  290.42 0854.32
2009/04/23 14:18:41.6    -136   -423    105    445    458 197.9  13.3  34212  290.44 0854.32
2009/04/23 14:18:41.7    -179   -385     65    425    430 205.0   8.7  34208  290.39 0854.32
2009/04/23 14:18:41.8    -148   -299    136    334    360 206.4  23.4  34204  290.33 0854.39
2009/04/23 14:18:41.9    -162   -162    108    230    254 225.1  27.1  34224  290.65 0854.39
2009/04/23 14:18:42.0     -82   -206     77    222    236 201.9  19.2  34230  290.75 0854.39
2009/04/23 14:18:42.1      66    -58     74     88    114 131.3  43.8  34242  290.96 0854.39
2009/04/23 14:18:42.2    -186    -32    123    189    225 260.1  35.7  34256  291.20 0854.39
2009/04/23 14:18:42.3    -213     14      6    214    215 273.9   1.8  34268  291.40 0854.39
2009/04/23 14:18:42.4     -82   -133     11    157    158 211.6   4.2  34252  291.13 0854.39
2009/04/23 14:18:42.5    -115   -274      9    298    299 202.8   1.8  34208  290.39 0854.39
2009/04/23 14:18:42.6     -95   -286    157    302    340 198.5  29.8  34210  290.42 0854.39
2009/04/23 14:18:42.7     -31   -343    162    345    381 185.3  27.1  34222  290.64 0854.39
2009/04/23 14:18:42.8     -22   -283    173    284    332 184.5  34.2  34226  290.70 0854.39
2009/04/23 14:18:42.9     -33   -221    110    224    249 188.7  28.2  34224  290.65 0854.39
2009/04/23 14:18:43.0      83   -290    164    302    343 164.0  30.9  34230  290.76 0854.39
2009/04/23 14:18:43.1     -61   -228    142    237    276 195.1  33.5  34218  290.56 0854.39
2009/04/23 14:18:43.2      59   -319    179    325    371 169.5  31.4  34222  290.62 0854.39
2009/04/23 14:18:43.3     -46   -245    104    250    270 190.7  24.1  34226  290.70 0854.39
2009/04/23 14:18:43.4     -28   -288    183    290    342 185.6  35.5  34226  290.70 0854.39
2009/04/23 14:18:43.5     -76   -360    183    369    411 192.0  28.2  34230  290.76 0854.39
2009/04/23 14:18:43.6    -230   -460     13    515    516 206.6   1.5  34230  290.76 0854.39
2009/04/23 14:18:43.7    -284   -393    132    486    504 215.9  15.3  34228  290.74 0854.39
2009/04/23 14:18:43.8    -317   -452     62    553    557 215.1   6.5  34226  290.69 0854.45
2009/04/23 14:18:43.9    -293   -284     76    409    417 225.9  10.6  34224  290.65 0854.45
2009/04/23 14:18:44.0     -41   -375     -7    378    379 186.3  -1.1  34230  290.77 0854.45
2009/04/23 14:18:44.1     -53   -527     55    530    533 185.8   6.0  34230  290.77 0854.45
2009/04/23 14:18:44.2     102   -340     53    356    360 163.2   8.5  34224  290.66 0854.45
2009/04/23 14:18:44.3     165   -413    214    445    493 158.2  27.4  34236  290.85 0854.45
2009/04/23 14:18:44.4     120   -442     71    459    465 164.8   8.8  34234  290.82 0854.45
2009/04/23 14:18:44.5     247   -304    127    393    413 140.9  17.9  34238  290.89 0854.45
2009/04/23 14:18:44.6     150   -170     99    227    247 138.6  25.1  34236  290.87 0854.45
2009/04/23 14:18:44.7     121   -198    112    233    258 148.6  27.3  34238  290.88 0854.45
2009/04/23 14:18:44.8      84   -274     61    287    294 162.8  12.1  34248  291.07 0854.45
2009/04/23 14:18:44.9      41   -267    141    271    305 171.1  29.5  34254  291.16 0854.45
2009/04/23 14:18:45.0     -26   -269    122    271    297 185.6  25.9  34244  290.99 0854.45
2009/04/23 14:18:45.1      52   -426    134    430    451 173.0  17.3  34246  291.04 0854.45
2009/04/23 14:18:45.2     -80   -601    -66    607    611 187.6  -6.3  34236  290.85 0854.45
2009/04/23 14:18:45.3    -129   -435    -41    454    456 196.5  -5.2  34242  290.95 0854.45
2009/04/23 14:18:45.4    -116   -442     59    458    462 194.8   7.4  34234  290.84 0854.45
2009/04/23 14:18:45.5      -8   -433    163    434    463 181.2  21.5  34222  290.63 0854.45
2009/04/23 14:18:45.6      60   -557    191    561    593 173.8  18.8  34232  290.78 0854.45
2009/04/23 14:18:45.7     151   -479    168    503    531 162.5  18.5  34228  290.74 0854.45
2009/04/23 14:18:45.8     117   -532    163    545    569 167.5  16.7  34228  290.74 0854.48
2009/04/23 14:18:45.9      62   -441    109    446    460 172.0  13.8  34226  290.68 0854.48
2009/04/23 14:18:46.0     253   -396    273    471    544 147.4  32.9  34224  290.67 0854.48
2009/04/23 14:18:46.1     187   -437     -2    476    477 156.8  -0.3  34226  290.68 0854.48
2009/04/23 14:18:46.2     111   -507     85    520    528 167.6   9.3  34222  290.62 0854.48
2009/04/23 14:18:46.3     241   -747     -3    786    787 162.1  -0.3  34216  290.51 0854.48
2009/04/23 14:18:46.4     305   -748    -78    808    812 157.8  -5.6  34224  290.65 0854.48
2009/04/23 14:18:46.5     279   -606   -186    668    693 155.3 -20.2  34224  290.66 0854.48
2009/04/23 14:18:46.6     121   -597   -179    609    634 168.5 -21.2  34218  290.55 0854.48
2009/04/23 14:18:46.7     126   -613   -226    627    666 168.3 -25.2  34230  290.76 0854.48
2009/04/23 14:18:46.8       8   -524   -187    525    558 179.1 -19.7  34230  290.77 0854.48
2009/04/23 14:18:46.9     -70   -749    -70    753    757 185.4  -5.4  34212  290.45 0854.48
2009/04/23 14:18:47.0    -253   -631    -66    681    685 201.9  -5.6  34232  290.80 0854.48
2009/04/23 14:18:47.1     -36   -799    -15    800    801 182.6  -1.1  34210  290.42 0854.48
2009/04/23 14:18:47.2      -7   -866    -49    867    869 180.5  -3.3  34228  290.71 0854.48
2009/04/23 14:18:47.3      -1   -913   -117    914    922 180.1  -7.3  34218  290.55 0854.48
2009/04/23 14:18:47.4      61   -752    -78    755    759 175.3  -5.9  34208  290.38 0854.48
2009/04/23 14:18:47.5     123   -565      2    579    580 167.7   0.2  34198  290.22 0854.48
2009/04/23 14:18:47.6      85   -408    135    417    439 168.1  18.0  34206  290.36 0854.48
2009/04/23 14:18:47.7    -146   -480     -6    502    503 196.9  -0.7  34212  290.45 0854.48
2009/04/23 14:18:47.8    -147   -594    -22    612    613 193.9  -2.1  34212  290.44 0854.46
2009/04/23 14:18:47.9     -39   -566    -44    568    570 184.0  -4.5  34214  290.49 0854.46
2009/04/23 14:18:48.0     -81   -451     67    459    464 190.2   8.3  34212  290.46 0854.46
2009/04/23 14:18:48.1    -226   -372     22    436    437 211.3   2.9  34208  290.38 0854.46
2009/04/23 14:18:48.2    -375   -500    -18    625    626 216.9  -1.7  34230  290.77 0854.46
2009/04/23 14:18:48.3    -184   -291    144    345    373 212.4  23.8  34214  290.50 0854.46
2009/04/23 14:18:48.4     -76   -111    138    135    193 214.3  50.4  34216  290.52 0854.46
2009/04/23 14:18:48.5    -127   -151     93    198    218 219.9  27.1  34204  290.31 0854.46
2009/04/23 14:18:48.6    -135   -225     82    263    276 211.0  17.3  34206  290.36 0854.46
2009/04/23 14:18:48.7    -116   -218    123    248    276 208.1  28.2  34204  290.31 0854.46
2009/04/23 14:18:48.8     -91   -341    247    354    431 195.1  38.5  34202  290.28 0854.46
2009/04/23 14:18:48.9     -32   -324    174    326    369 185.8  30.5  34208  290.37 0854.46
2009/04/23 14:18:49.0     -77   -236     50    249    255 198.0  11.4  34202  290.27 0854.46
2009/04/23 14:18:49.1    -238   -433     88    495    503 208.8  10.1  34198  290.23 0854.46
2009/04/23 14:18:49.2    -188   -593    245    623    669 197.6  22.7  34198  290.23 0854.46
2009/04/23 14:18:49.3    -244   -530    159    584    606 204.7  15.3  34204  290.31 0854.46
2009/04/23 14:18:49.4    -204   -587     57    622    625 199.2   5.3  34202  290.30 0854.46
2009/04/23 14:18:49.5    -406   -430    -42    592    594 223.3  -4.1  34200  290.25 0854.46
2009/04/23 14:18:49.6     -36   -505    102    507    518 184.1  11.4  34202  290.29 0854.46
2009/04/23 14:18:49.7    -152   -666     81    684    689 192.9   6.8  34200  290.24 0854.46
2009/04/23 14:18:49.8     -67   -538    225    543    587 187.1  23.9  34198  290.20 0854.48
2009/04/23 14:18:49.9     -34   -546    183    548    578 183.6  18.5  34194  290.14 0854.48
2009/04/23 14:18:50.0      29   -744    166    745    764 177.8  12.6  34190  290.09 0854.48
2009/04/23 14:18:50.1     116   -645    204    656    687 169.8  17.3  34194  290.16 0854.48
2009/04/23 14:18:50.2     140   -517    254    536    593 164.9  27.2  34186  290.02 0854.48
2009/04/23 14:18:50.3     217   -526    259    570    626 157.5  26.0  34188  290.05 0854.48
2009/04/23 14:18:50.4     393   -426    205    580    616 137.3  19.5  34194  290.15 0854.48
2009/04/23 14:18:50.5     274   -320   -108    422    436 139.5 -14.4  34198  290.22 0854.48
2009/04/23 14:18:50.6       1   -265    140    266    300 179.8  30.2  34200  290.26 0854.48
2009/04/23 14:18:50.7    -131   -641    177    655    679 191.6  15.1  34214  290.49 0854.48
2009/04/23 14:18:50.8    -300   -409    -18    508    509 216.2  -2.1  34210  290.42 0854.48
2009/04/23 14:18:50.9    -168   -331    280    372    465 207.0  40.7  34202  290.29 0854.48
2009/04/23 14:18:51.0      24     -4     89     25     92  99.7  83.9  34218  290.55 0854.48
2009/04/23 14:18:51.1      51    -83    -35     98    105 148.4 -19.7  34216  290.52 0854.48
2009/04/23 14:18:51.2     -31   -208    -58    211    220 188.5 -15.5  34214  290.50 0854.48
2009/04/23 14:18:51.4       8   -401     20    402    403 178.8   2.9  34208  290.40 0854.48
2009/04/23 14:18:51.5    -211   -537   -190    578    609 201.5 -18.2  34222  290.64 0854.48
2009/04/23 14:18:51.6    -168   -541   -147    567    586 197.3 -14.6  34216  290.51 0854.48
2009/04/23 14:18:51.7    -253   -433    -82    502    509 210.3  -9.3  34216  290.52 0854.48
2009/04/23 14:18:51.8    -233   -342   -260    415    489 214.3 -39.4  34218  290.57 0854.48
2009/04/23 14:18:51.9    -248    -82   -207    262    333 251.6 -46.7  34214  290.48 0854.53
2009/04/23 14:18:52.0    -245    191     19    311    312 308.0   3.6  34202  290.29 0854.53
2009/04/23 14:18:52.1    -285     17     -5    286    287 273.5  -1.2  34222  290.61 0854.53
2009/04/23 14:18:52.2    -207    154    122    259    286 306.6  27.1  34224  290.65 0854.53
2009/04/23 14:18:52.3    -292    319     67    433    439 317.6   8.9  34226  290.68 0854.53
2009/04/23 14:18:52.4     -68    226     42    237    241 343.1  10.1  34232  290.78 0854.53
2009/04/23 14:18:52.5      73   -113    143    135    196 147.0  52.0  34234  290.84 0854.53
2009/04/23 14:18:52.6     -54   -149    -13    159    160 200.0  -4.9  34230  290.75 0854.53
2009/04/23 14:18:52.7      80   -171    -27    190    193 154.8  -8.2  34236  290.86 0854.53
2009/04/23 14:18:52.8     119   -125    -48    173    180 136.3 -15.5  34228  290.74 0854.53
2009/04/23 14:18:52.9     333   -132      5    359    360 111.6   0.8  34228  290.74 0854.53
2009/04/23 14:18:53.0     292    -59     30    298    300 101.5   5.9  34226  290.70 0854.53
2009/04/23 14:18:53.1     310    -26     87    312    324  94.8  15.6  34224  290.65 0854.53
2009/04/23 14:18:53.2     370    -92    136    382    406 104.1  19.6  34214  290.50 0854.53
2009/04/23 14:18:53.3     333    -82    154    344    376 103.9  25.7  34212  290.45 0854.53
2009/04/23 14:18:53.4     202    -55    205    210    293 105.3  49.4  34220  290.58 0854.53
2009/04/23 14:18:53.5     248    -80    221    261    341 107.9  44.4  34226  290.70 0854.53
2009/04/23 14:18:53.6     333   -101    187    349    395 107.0  30.5  34226  290.69 0854.53
2009/04/23 14:18:53.7     360   -113     26    378    379 107.4   4.0  34220  290.59 0854.53
2009/04/23 14:18:53.8     237    -97    -71    257    267 112.2 -15.5  34224  290.66 0854.53
2009/04/23 14:18:53.9     275   -271     38    387    389 134.6   5.7  34218  290.57 0854.54
2009/04/23 14:18:54.0     337   -301      5    452    453 131.8   0.7  34206  290.36 0854.54
2009/04/23 14:18:54.1    -151   -245     78    288    299 211.7  15.3  34206  290.34 0854.54
2009/04/23 14:18:54.2    -134   -319    302    347    460 202.8  45.6  34206  290.34 0854.54
2009/04/23 14:18:54.3    -181   -419    284    457    538 203.4  35.0  34192  290.13 0854.54
2009/04/23 14:18:54.4     100   -243    294    264    395 157.5  53.5  34202  290.27 0854.54
2009/04/23 14:18:54.5     125   -383    340    403    527 161.9  44.3  34212  290.44 0854.54
2009/04/23 14:18:54.6     -19   -169    253    171    305 186.5  62.7  34216  290.53 0854.54
2009/04/23 14:18:54.7     -28   -461      6    462    463 183.5   0.8  34216  290.53 0854.54
2009/04/23 14:18:54.8    -143   -195    -57    243    250 216.3 -13.4  34206  290.34 0854.54
2009/04/23 14:18:54.9    -573   -390    253    694    738 235.7  20.9  34226  290.69 0854.52
2009/04/23 14:18:55.0    -596   -262     43    652    654 246.3   3.8  34244  290.99 0854.52
2009/04/23 14:18:55.1    -409   -622    331    745    815 213.4  25.7  34212  290.47 0854.52
2009/04/23 14:18:55.2    -306   -465    251    558    611 213.4  25.9  34212  290.44 0854.52
2009/04/23 14:18:55.3    -118   -259    236    285    370 204.5  43.8  34240  290.93 0854.52
2009/04/23 14:18:55.4     -65   -120    347    137    373 208.5  77.3  34252  291.14 0854.52
2009/04/23 14:18:55.5     -36   -406    432    408    594 185.1  52.0  34230  290.77 0854.52
2009/04/23 14:18:55.6     -49   -459    379    462    597 186.2  43.7  34230  290.75 0854.52
2009/04/23 14:18:55.7    -145   -486    406    508    650 196.6  42.7  34228  290.73 0854.52
2009/04/23 14:18:55.8    -197   -395    399    442    595 206.6  46.8  34208  290.40 0854.52
2009/04/23 14:18:55.9    -406   -267    171    487    517 236.6  19.4  34208  290.37 0854.52
2009/04/23 14:18:56.0    -411   -124    359    430    560 253.2  44.0  34222  290.63 0854.52
2009/04/23 14:18:56.1    -445    -27     -2    446    447 266.5  -0.3  34224  290.65 0854.52
2009/04/23 14:18:56.2    -586   -262    -14    642    643 245.9  -1.3  34238  290.89 0854.52
2009/04/23 14:18:56.3    -459   -154     36    485    487 251.4   4.3  34238  290.91 0854.52
2009/04/23 14:18:56.4    -423   -282    119    509    523 236.3  13.2  34232  290.78 0854.52
2009/04/23 14:18:56.5    -324   -431    -11    540    541 217.0  -1.3  34232  290.79 0854.52
2009/04/23 14:18:56.6    -217    -64     46    227    232 253.6  11.4  34226  290.70 0854.52
2009/04/23 14:18:56.7    -252     73     72    263    273 286.2  15.3  34244  291.00 0854.52
2009/04/23 14:18:56.8    -216    190     14    288    289 311.3   2.9  34248  291.07 0854.52
2009/04/23 14:18:56.9    -226    223     81    318    329 314.6  14.4  34254  291.16 0854.51
2009/04/23 14:18:57.0    -336    244    187    416    456 306.0  25.8  34262  291.31 0854.51
2009/04/23 14:18:57.1    -312    203    105    373    388 303.1  15.8  34254  291.17 0854.51
2009/04/23 14:18:57.2    -527    118     22    541    542 282.7   2.4  34276  291.54 0854.51
2009/04/23 14:18:57.3    -652    101     32    660    661 278.8   2.8  34276  291.55 0854.51
2009/04/23 14:18:57.4    -555    -65    -22    559    560 263.3  -2.3  34266  291.37 0854.51
2009/04/23 14:18:57.5    -394    -99   -113    407    423 255.9 -15.5  34258  291.24 0854.51
2009/04/23 14:18:57.6    -236   -150   -131    280    309 237.6 -31.5  34252  291.14 0854.51
2009/04/23 14:18:57.7    -321   -154    -16    357    358 244.3  -2.6  34246  291.03 0854.51
2009/04/23 14:18:57.8    -359     -3    -86    360    371 269.4 -13.4  34212  290.45 0854.51
2009/04/23 14:18:57.9    -404    -68     20    410    411 260.4   2.9  34234  290.82 0854.51
2009/04/23 14:18:58.0    -339   -235     58    413    418 235.2   8.0  34246  291.04 0854.51
2009/04/23 14:18:58.1    -365   -208   -121    421    439 240.3 -16.0  34226  290.68 0854.51
2009/04/23 14:18:58.2    -238   -256   -119    350    369 222.9 -23.6  34218  290.57 0854.51
2009/04/23 14:18:58.3     -79   -230   -107    244    266 198.9 -29.6  34224  290.65 0854.51
2009/04/23 14:18:58.4     -15   -248    -27    249    251 183.6  -6.2  34240  290.92 0854.51
2009/04/23 14:18:58.5       0   -217     25    218    220 180.2   6.7  34246  291.03 0854.51
2009/04/23 14:18:58.6     155   -272     61    314    321 150.2  11.1  34214  290.49 0854.51
2009/04/23 14:18:58.7     121   -296     62    320    326 157.7  11.0  34204  290.32 0854.51
2009/04/23 14:18:58.8     128   -304    -93    330    344 157.2 -15.8  34218  290.54 0854.51
2009/04/23 14:18:58.9      66   -283    -48    291    295 166.7  -9.4  34224  290.65 0854.51
2009/04/23 14:18:59.0     155   -345     40    379    382 155.8   6.1  34214  290.49 0854.51
2009/04/23 14:18:59.1      68   -270     28    279    281 165.7   5.9  34224  290.66 0854.51
2009/04/23 14:18:59.2     109   -282    -28    303    305 158.8  -5.4  34224  290.66 0854.51
2009/04/23 14:18:59.3     127   -259    210    289    357 153.7  39.7  34220  290.60 0854.51
2009/04/23 14:18:59.4      -4    -78    197     79    212 183.6  77.1  34230  290.75 0854.51
2009/04/23 14:18:59.5      -4     88     96     89    130 357.3  52.2  34226  290.70 0854.51
2009/04/23 14:18:59.6      10   -131    151    132    200 175.5  54.3  34216  290.53 0854.51
2009/04/23 14:18:59.7     -16   -209    173    210    272 184.5  43.7  34208  290.39 0854.51
2009/04/23 14:18:59.8      -2    -68     90     69    113 181.8  58.5  34196  290.18 0854.51
2009/04/23 14:18:59.9     127    -38    195    133    236 106.9  62.6  34222  290.64 0854.51
2009/04/23 14:19:00.0      95    -17    222     97    242 100.1  75.0  34224  290.65 0854.51
2009/04/23 14:19:00.1      81     34    206     89    224  66.9  75.3  34216  290.52 0854.51
2009/04/23 14:19:00.2      33    164    199    168    260  11.6  55.6  34198  290.20 0854.51
2009/04/23 14:19:00.3    -102    344    208    359    414 343.4  32.7  34206  290.35 0854.51
2009/04/23 14:19:00.4    -113    365    160    383    415 342.8  24.1  34212  290.46 0854.51
2009/04/23 14:19:00.5     -87    283    103    297    314 342.8  20.0  34216  290.53 0854.51
2009/04/23 14:19:00.6    -258    373   -184    454    489 325.3 -27.8  34188  290.06 0854.51
2009/04/23 14:19:00.7    -122    161   -281    203    346 322.8 -65.0  34186  290.02 0854.51
2009/04/23 14:19:00.8      39     99   -165    107    196  21.9 -68.5  34188  290.06 0854.51
2009/04/23 14:19:00.9     -40    290    -58    293    299 352.0 -11.3  34198  290.22 0854.51
2009/04/23 14:19:01.0    -223    316   -216    387    443 324.8 -35.9  34200  290.24 0854.51
2009/04/23 14:19:01.1     148    277    -37    315    318  28.1  -6.7  34190  290.07 0854.51
2009/04/23 14:19:01.2      91    239     21    256    258  20.9   4.9  34190  290.09 0854.51
2009/04/23 14:19:01.3    -207    282    145    351    379 323.7  23.7  34198  290.20 0854.51
2009/04/23 14:19:01.4    -213    293    194    363    411 324.0  30.3  34208  290.38 0854.51
2009/04/23 14:19:01.5     -10    159    217    160    269 356.4  60.3  34210  290.42 0854.51
2009/04/23 14:19:01.6    -231    250    126    341    363 317.2  21.1  34224  290.67 0854.51
2009/04/23 14:19:01.7    -247    360    197    437    479 325.5  26.0  34242  290.96 0854.51
2009/04/23 14:19:01.8    -224    296    347    372    508 322.8  47.9  34218  290.56 0854.51
2009/04/23 14:19:01.9    -168    193    261    257    366 319.0  50.2  34224  290.67 0854.51
2009/04/23 14:19:02.0    -161    280    233    324    399 330.1  39.2  34230  290.77 0854.51
2009/04/23 14:19:02.1    -249    274    242    371    442 317.7  36.2  34250  291.11 0854.51
2009/04/23 14:19:02.2    -209    288    189    357    403 324.0  30.2  34242  290.98 0854.51
2009/04/23 14:19:02.3    -253    291    155    387    416 319.0  23.0  34230  290.77 0854.51
2009/04/23 14:19:02.4    -350    309     53    467    471 311.4   6.5  34242  290.96 0854.51
2009/04/23 14:19:02.5      26    344    178    345    388   4.4  29.3  34216  290.52 0854.51
2009/04/23 14:19:02.6      11    373    140    374    399   1.7  21.5  34202  290.30 0854.51
2009/04/23 14:19:02.7     -76    485    114    492    506 351.1  13.1  34198  290.23 0854.51
2009/04/23 14:19:02.8      -6    434    179    435    470 359.1  23.7  34196  290.19 0854.51
2009/04/23 14:19:02.9     345    218    315    409    516  57.7  41.6  34210  290.42 0854.50
2009/04/23 14:19:03.0     327    135    142    354    381  67.6  23.1  34210  290.43 0854.50
2009/04/23 14:19:03.1     295    187    225    350    416  57.6  35.6  34210  290.42 0854.50
2009/04/23 14:19:03.2     194    306    266    363    450  32.5  39.7  34212  290.46 0854.50
2009/04/23 14:19:03.3     337    295    195    449    489  48.8  25.1  34214  290.49 0854.50
2009/04/23 14:19:03.4     291    -20    402    292    496  94.1  60.6  34228  290.73 0854.50
2009/04/23 14:19:03.5     221    -21    425    223    479  95.5  70.3  34204  290.33 0854.50
2009/04/23 14:19:03.6      -2   -150    298    151    334 181.0  71.3  34218  290.56 0854.50
2009/04/23 14:19:03.7      19    -89    190     92    211 167.5  72.7  34208  290.38 0854.50
2009/04/23 14:19:03.8     151   -161    140    221    261 136.8  35.5  34210  290.41 0854.50
2009/04/23 14:19:03.9      52   -256    136    262    295 168.4  29.3  34198  290.22 0854.50
2009/04/23 14:19:04.0     129   -196    229    235    328 146.6  49.4  34210  290.41 0854.50
2009/04/23 14:19:04.1      -5    -16    214     17    214 198.7  90.0  34244  291.01 0854.50
2009/04/23 14:19:04.2      38    -38    275     55    280 135.0  89.1  34226  290.70 0854.50
2009/04/23 14:19:04.3     101     82    351    131    374  50.9  78.8  34214  290.48 0854.50
2009/04/23 14:19:04.4     -25    -82    324     86    335 197.4  85.1  34234  290.83 0854.50
2009/04/23 14:19:04.5     174   -136    313    222    383 128.0  61.3  34228  290.71 0854.50
2009/04/23 14:19:04.6      98   -118    295    154    332 140.4  70.4  34244  290.99 0854.50
2009/04/23 14:19:04.7     -49    -67    267     84    279 216.5  82.0  34242  290.97 0854.50
2009/04/23 14:19:04.8      31   -146    277    150    315 168.0  69.5  34236  290.87 0854.50
2009/04/23 14:19:04.9     -57     44    309     73    317 307.8  86.8  34240  290.93 0854.47
2009/04/23 14:19:05.0     267    -44    320    271    419  99.5  55.5  34238  290.88 0854.47
2009/04/23 14:19:05.1     105      6    288    106    306  86.5  79.1  34240  290.93 0854.47
2009/04/23 14:19:05.2     -32     17    219     37    222 298.9  90.0  34242  290.96 0854.47
2009/04/23 14:19:05.3       0    111    261    112    284   0.5  75.0  34240  290.93 0854.47
2009/04/23 14:19:05.4      38    -54    266     67    274 144.8  86.0  34236  290.86 0854.47
2009/04/23 14:19:05.5      31    -55    306     64    312 151.0  88.8  34238  290.88 0854.47
2009/04/23 14:19:05.6       3   -231    380    232    445 179.1  65.7  34232  290.79 0854.47
2009/04/23 14:19:05.7      44    -28    239     53    244 122.4  88.0  34212  290.45 0854.47
2009/04/23 14:19:05.8      38    -89    245     97    263 156.8  77.4  34228  290.72 0854.47
2009/04/23 14:19:05.9    -113    -87    207    143    251 232.3  62.4  34228  290.74 0854.47
2009/04/23 14:19:06.0     -10    -94    166     95    191 186.2  68.1  34234  290.82 0854.47
2009/04/23 14:19:06.1    -145   -355    345    384    516 202.3  46.5  34212  290.45 0854.47
2009/04/23 14:19:06.2    -258   -476    428    542    690 208.5  42.3  34212  290.47 0854.47
2009/04/23 14:19:06.3    -172   -189    401    256    475 222.4  64.6  34236  290.87 0854.47
2009/04/23 14:19:06.4    -345      0    234    346    417 270.0  37.3  34230  290.76 0854.47
2009/04/23 14:19:06.5    -278    -21    253    279    376 265.6  47.0  34234  290.83 0854.47
2009/04/23 14:19:06.6    -555    188    126    587    601 288.7  12.2  34250  291.10 0854.47
2009/04/23 14:19:06.7    -737    182    -54    760    762 283.9  -4.1  34162  289.60 0854.47
2009/04/23 14:19:06.8    -691    103   -192    699    726 278.5 -15.4  34126  289.01 0854.47
2009/04/23 14:19:06.9    -674     49   -251    676    721 274.2 -25.8  34162  289.62 0854.39
2009/04/23 14:19:07.0    -705    176   -246    727    768 284.0 -18.7  34166  289.67 0854.39
2009/04/23 14:19:07.1    -488    -44    -58    491    495 264.8  -6.8  34166  289.69 0854.39
2009/04/23 14:19:07.2    -506    165    -10    533    534 288.1  -1.2  34210  290.41 0854.39
2009/04/23 14:19:07.3    -519    461     46    695    697 311.6   3.8  34176  289.85 0854.39
2009/04/23 14:19:07.4    -347    220     36    412    414 302.4   5.1  34220  290.58 0854.39
2009/04/23 14:19:07.5    -391    241    -65    460    465 301.7  -8.1  34228  290.73 0854.39
2009/04/23 14:19:07.6    -432    269    -73    509    515 301.9  -8.2  34228  290.74 0854.39
2009/04/23 14:19:07.7    -487    245    -44    546    548 296.8  -4.7  34198  290.21 0854.39
2009/04/23 14:19:07.8    -266    246     18    363    364 312.7   2.9  34192  290.11 0854.39
2009/04/23 14:19:07.9    -270    207   -127    341    363 307.4 -25.8  34172  289.79 0854.39
2009/04/23 14:19:08.0    -426    235   -160    487    513 298.9 -18.2  34172  289.76 0854.39
2009/04/23 14:19:08.1    -254    111    -35    278    281 293.7  -7.3  34180  289.90 0854.39
2009/04/23 14:19:08.2    -205    279    124    347    368 323.6  20.4  34242  290.98 0854.39
2009/04/23 14:19:08.3    -206    117     79    238    251 299.7  18.4  34218  290.54 0854.39
2009/04/23 14:19:08.4    -247    -15    -37    248    251 266.5  -8.6  34184  289.97 0854.39
2009/04/23 14:19:08.5    -260    236    -55    352    357 312.2  -9.0  34182  289.94 0854.39
2009/04/23 14:19:08.6    -374    160   -122    408    426 293.2 -16.7  34194  290.16 0854.39
2009/04/23 14:19:08.7    -182     19    -51    184    190 276.1 -20.0  34206  290.36 0854.39
2009/04/23 14:19:08.8    -193    -91     14    214    215 244.6   3.8  34212  290.47 0854.39
2009/04/23 14:19:08.9    -281     57   -153    287    325 281.5 -34.9  34206  290.34 0854.35
2009/04/23 14:19:09.0    -119    108   -126    161    204 312.2 -46.1  34206  290.35 0854.35
2009/04/23 14:19:09.1    -310     -4    -91    311    324 269.2 -21.2  34204  290.32 0854.35
2009/04/23 14:19:09.2    -273     40     55    276    282 278.4  11.4  34212  290.44 0854.35
2009/04/23 14:19:09.3    -411     17   -173    412    446 272.4 -28.5  34212  290.44 0854.35
2009/04/23 14:19:09.4    -242    123    -82    272    284 297.1 -21.7  34210  290.42 0854.35
2009/04/23 14:19:09.5     -59    155   -157    166    228 339.1 -52.6  34212  290.47 0854.35
2009/04/23 14:19:09.6    -399   -316   -127    510    526 231.6 -14.0  34224  290.67 0854.35
2009/04/23 14:19:09.7    -256   -240   -133    352    376 226.8 -26.0  34222  290.64 0854.35
2009/04/23 14:19:09.8      32   -294    -83    296    308 173.8 -15.8  34218  290.54 0854.35
2009/04/23 14:19:09.9     137   -170    111    219    245 141.0  28.7  34206  290.36 0854.35
2009/04/23 14:19:10.0     166   -166     58    235    243 135.0  13.9  34210  290.42 0854.35
2009/04/23 14:19:10.1     236     16     62    237    245  86.1  14.7  34210  290.42 0854.35
2009/04/23 14:19:10.2     206    -12     97    207    228  93.5  27.1  34208  290.40 0854.35
2009/04/23 14:19:10.3     170   -203     10    265    266 140.1   2.3  34210  290.42 0854.35
2009/04/23 14:19:10.4     120   -104     65    159    171 130.9  23.6  34212  290.47 0854.35
2009/04/23 14:19:10.5      73    -17    -13     75     77 103.3 -10.3  34208  290.38 0854.35
2009/04/23 14:19:10.6      47    -24    -25     53     58 117.1 -31.5  34208  290.38 0854.35
2009/04/23 14:19:10.7       3    -44    -10     45     47 175.5 -12.4  34210  290.43 0854.35
2009/04/23 14:19:10.8     -20   -131     74    133    152 188.9  31.4  34210  290.43 0854.35
2009/04/23 14:19:10.9     -41   -169    129    175    217 193.8  39.9  34210  290.43 0854.36
2009/04/23 14:19:11.0     -61   -183     82    193    209 198.5  24.6  34208  290.40 0854.36
2009/04/23 14:19:11.1     -40   -291     63    294    301 188.0  12.1  34220  290.59 0854.36
2009/04/23 14:19:11.2      -8   -325    -13    326    327 181.5  -2.3  34206  290.34 0854.36
2009/04/23 14:19:11.3     -27   -283    -41    285    289 185.6  -8.2  34208  290.39 0854.36
2009/04/23 14:19:11.4    -173   -411   -128    446    464 202.8 -20.8  34208  290.38 0854.36
2009/04/23 14:19:11.5     -80   -358   -111    367    383 192.7 -21.7  34208  290.37 0854.36
2009/04/23 14:19:11.6     -59   -474    -54    478    482 187.1  -6.5  34208  290.40 0854.36
2009/04/23 14:19:11.7    -148   -531   -123    552    566 195.6 -12.6  34198  290.23 0854.36
2009/04/23 14:19:11.8    -129   -543    -31    559    560 193.4  -3.2  34198  290.21 0854.36
2009/04/23 14:19:11.9    -217   -628    -62    665    669 199.1  -5.4  34204  290.33 0854.36
2009/04/23 14:19:12.0    -300   -681     20    745    746 203.8   1.6  34210  290.43 0854.36
2009/04/23 14:19:12.1    -269   -409    146    490    512 213.4  16.6  34210  290.42 0854.36
2009/04/23 14:19:12.2    -363   -295     58    468    472 230.9   7.1  34212  290.44 0854.36
2009/04/23 14:19:12.3    -409   -463     47    619    621 221.5   4.4  34212  290.47 0854.36
2009/04/23 14:19:12.4    -369   -372    -61    525    529 224.8  -6.7  34200  290.24 0854.36
2009/04/23 14:19:12.5    -315   -312    -16    444    445 225.3  -2.1  34218  290.55 0854.36
2009/04/23 14:19:12.6    -205   -396     61    446    451 207.4   7.8  34198  290.22 0854.36
2009/04/23 14:19:12.7     -68   -351    -57    358    363 191.0  -9.1  34208  290.38 0854.36
2009/04/23 14:19:12.8    -223   -522     22    568    569 203.2   2.2  34202  290.29 0854.36
2009/04/23 14:19:12.9     -97   -440     29    451    452 192.5   3.8  34202  290.29 0854.40
2009/04/23 14:19:13.0     -92   -424     67    435    441 192.3   8.8  34210  290.41 0854.40
2009/04/23 14:19:13.1    -231   -278    -55    362    367 219.7  -8.7  34198  290.21 0854.40
2009/04/23 14:19:13.2      15   -261   -113    262    285 176.6 -29.5  34194  290.15 0854.40
2009/04/23 14:19:13.3     -41   -328      2    331    332 187.2   0.5  34202  290.28 0854.40
2009/04/23 14:19:13.4     -54   -503   -156    507    531 186.2 -17.2  34204  290.31 0854.40
2009/04/23 14:19:13.5     -22   -444    -90    445    454 182.9 -11.5  34202  290.29 0854.40
2009/04/23 14:19:13.6    -158   -385    -98    417    429 202.3 -13.3  34210  290.41 0854.40
2009/04/23 14:19:13.7      88   -452    -92    461    471 168.9 -11.3  34210  290.42 0854.40
2009/04/23 14:19:13.8      56   -532   -156    536    558 173.9 -21.0  34220  290.60 0854.40
2009/04/23 14:19:13.9     251   -480   -113    542    554 152.4 -11.8  34200  290.26 0854.40
2009/04/23 14:19:14.0     284   -446    -51    529    532 147.5  -5.6  34202  290.30 0854.40
2009/04/23 14:19:14.1     283   -485     10    562    563 149.7   1.1  34224  290.65 0854.40
2009/04/23 14:19:14.2     323   -387    -41    505    507 140.2  -4.7  34218  290.56 0854.40
2009/04/23 14:19:14.3     489   -355     62    605    609 126.0   5.9  34212  290.46 0854.40
2009/04/23 14:19:14.4     472   -325     54    574    577 124.6   5.4  34204  290.31 0854.40
2009/04/23 14:19:14.5     398   -366     34    541    543 132.6   3.6  34212  290.46 0854.40
2009/04/23 14:19:14.6     432   -358    120    562    575 129.6  12.1  34214  290.49 0854.40
2009/04/23 14:19:14.7     389   -319    225    504    551 129.4  25.7  34204  290.33 0854.40
2009/04/23 14:19:14.8     377   -386    233    540    588 135.7  25.0  34192  290.10 0854.40
2009/04/23 14:19:14.9     322   -405    198    518    554 141.5  22.0  34206  290.35 0854.41
2009/04/23 14:19:15.0     251   -445    235    511    562 150.6  26.4  34204  290.33 0854.41
2009/04/23 14:19:15.1     198   -578    301    612    682 161.1  28.1  34180  289.90 0854.41
2009/04/23 14:19:15.2     198   -483    354    523    631 157.7  37.3  34206  290.36 0854.41
2009/04/23 14:19:15.3     283   -573    314    640    712 153.7  28.1  34208  290.38 0854.41
2009/04/23 14:19:15.4     193   -626    235    656    696 162.8  20.6  34206  290.34 0854.41
2009/04/23 14:19:15.5     335   -547   -124    642    654 148.5 -11.0  34210  290.42 0854.41
2009/04/23 14:19:15.6     135   -743     21    756    757 169.7   1.6  34198  290.21 0854.41
2009/04/23 14:19:15.7     137   -735      9    748    749 169.4   0.7  34208  290.40 0854.41
2009/04/23 14:19:15.8     154   -698     20    716    717 167.5   1.6  34208  290.39 0854.41
2009/04/23 14:19:15.9      94   -701    180    708    731 172.3  14.3  34202  290.30 0854.44
2009/04/23 14:19:16.0     114   -563    113    575    587 168.5  11.1  34204  290.31 0854.44
2009/04/23 14:19:16.1     173   -480    264    511    575 160.2  29.4  34206  290.36 0854.44
2009/04/23 14:19:16.2     282   -563    171    630    653 153.4  15.2  34196  290.18 0854.44
2009/04/23 14:19:16.3     150   -585    212    604    641 165.6  19.4  34196  290.18 0854.44
2009/04/23 14:19:16.4     126   -468    259    485    549 164.9  30.3  34210  290.43 0854.44
2009/04/23 14:19:16.5      89   -471    234    480    534 169.3  27.9  34202  290.27 0854.44
2009/04/23 14:19:16.6     108   -529     84    541    548 168.4   8.9  34202  290.28 0854.44
2009/04/23 14:19:16.7     209   -574     71    612    617 160.0   6.7  34184  289.99 0854.44
2009/04/23 14:19:16.8     185   -558    110    588    599 161.6  10.6  34186  290.02 0854.44
2009/04/23 14:19:16.9     113   -471     88    485    494 166.4  10.3  34182  289.93 0854.44
2009/04/23 14:19:17.0     133   -435     99    455    466 163.0  12.3  34200  290.26 0854.44
2009/04/23 14:19:17.2      83   -353     17    363    364 166.8   2.8  34198  290.21 0854.44
2009/04/23 14:19:17.2      12   -229     17    230    231 176.9   4.4  34196  290.18 0854.44
2009/04/23 14:19:17.4      13   -176     -7    177    178 175.6  -2.3  34196  290.19 0854.44
2009/04/23 14:19:17.4     -32   -139      7    143    144 193.3   2.9  34198  290.21 0854.44
2009/04/23 14:19:17.6     -62   -176     28    187    190 199.4   8.5  34202  290.28 0854.44
2009/04/23 14:19:17.7    -104   -204    -38    230    234 207.1  -9.4  34202  290.28 0854.44
2009/04/23 14:19:17.8    -120   -299     -2    323    324 201.8  -0.4  34198  290.20 0854.44
2009/04/23 14:19:17.9    -107   -259     35    281    284 202.5   7.1  34218  290.54 0854.44
2009/04/23 14:19:18.0    -170   -202     67    265    274 220.1  14.3  34238  290.88 0854.47
2009/04/23 14:19:18.1    -146   -110    137    184    229 232.9  40.1  34238  290.91 0854.47
2009/04/23 14:19:18.2     -46   -156    111    163    197 196.7  37.6  34244  290.99 0854.47
2009/04/23 14:19:18.3     -86    -84    178    121    215 225.6  62.6  34254  291.16 0854.47
2009/04/23 14:19:18.4     -27    -92    205     96    226 196.5  73.1  34246  291.04 0854.47
2009/04/23 14:19:18.5     -93   -181    264    204    333 207.2  58.5  34224  290.66 0854.47
2009/04/23 14:19:18.6     278   -231    179    362    403 129.8  28.2  34230  290.77 0854.47
2009/04/23 14:19:18.7     163   -345    300    382    485 154.7  42.2  34200  290.24 0854.47
2009/04/23 14:19:18.8     129   -383    273    405    488 161.3  37.2  34208  290.38 0854.47
2009/04/23 14:19:18.9      88   -405    159    415    444 167.6  22.0  34210  290.41 0854.47
2009/04/23 14:19:19.0     195   -270    155    334    368 144.2  26.9  34210  290.42 0854.47
2009/04/23 14:19:19.1     100   -429    158    441    468 166.8  20.4  34198  290.21 0854.47
2009/04/23 14:19:19.2     150   -539    173    560    587 164.4  17.2  34200  290.24 0854.47
2009/04/23 14:19:19.3     221   -606    150    646    664 160.0  13.1  34206  290.36 0854.47
2009/04/23 14:19:19.4     173   -430    345    464    578 158.1  40.2  34190  290.09 0854.47
2009/04/23 14:19:19.5     164   -408    328    440    548 158.1  40.6  34212  290.47 0854.47
2009/04/23 14:19:19.6      70   -431    159    437    465 170.8  20.9  34194  290.16 0854.47
2009/04/23 14:19:19.7     -33   -358    315    360    478 185.4  45.6  34194  290.14 0854.47
2009/04/23 14:19:19.8    -151   -594    236    614    657 194.3  22.2  34208  290.38 0854.47
2009/04/23 14:19:19.9    -192   -204     77    281    292 223.3  15.3  34230  290.75 0854.47
2009/04/23 14:19:20.0     -83    -88     19    121    123 223.3   8.9  34226  290.69 0854.44
2009/04/23 14:19:20.1    -164     19     81    166    184 276.8  27.8  34236  290.87 0854.44
2009/04/23 14:19:20.2     -39      3    101     40    108 274.4  77.1  34244  290.99 0854.44
2009/04/23 14:19:20.3      88     40     30     97    102  65.6  17.3  34244  290.99 0854.44
2009/04/23 14:19:20.4     129      8     40    130    137  86.1  17.3  34222  290.64 0854.44
2009/04/23 14:19:20.5     148     37     -8    153    154  75.8  -3.1  34222  290.62 0854.44
2009/04/23 14:19:20.6     103    -23      5    106    107 102.8   2.9  34210  290.41 0854.44
2009/04/23 14:19:20.7     172    -14     97    173    198  94.8  31.6  34206  290.36 0854.44
2009/04/23 14:19:20.8     278   -125    139    305    335 114.2  26.3  34200  290.24 0854.44
2009/04/23 14:19:20.9     216   -128     75    252    263 120.7  16.6  34212  290.44 0854.44
2009/04/23 14:19:21.0     192   -106     42    220    225 118.9  11.0  34206  290.35 0854.44
2009/04/23 14:19:21.1      46   -207     10    213    214 167.3   2.9  34214  290.50 0854.44
2009/04/23 14:19:21.2     -63   -119     80    135    156 208.1  33.1  34218  290.57 0854.44
2009/04/23 14:19:21.3     -88    -63      8    109    110 234.1   4.4  34220  290.60 0854.44
2009/04/23 14:19:21.4    -114   -117    117    164    201 224.3  39.1  34208  290.38 0854.44
2009/04/23 14:19:21.5    -198   -211     61    290    297 223.2  12.0  34214  290.48 0854.44
2009/04/23 14:19:21.6     -97   -286     91    303    317 198.7  16.8  34212  290.46 0854.44
2009/04/23 14:19:21.7      -2   -169     57    170    180 180.7  18.6  34218  290.55 0854.44
2009/04/23 14:19:21.8    -122    -81    -60    147    158 236.3 -27.8  34218  290.55 0854.44
2009/04/23 14:19:21.9    -153    -46    -69    160    174 253.2 -29.0  34228  290.74 0854.44
2009/04/23 14:19:22.0    -182   -116    -71    216    227 237.5 -23.8  34224  290.67 0854.45
2009/04/23 14:19:22.1    -115   -153   -128    192    230 217.0 -40.9  34222  290.62 0854.45
2009/04/23 14:19:22.2    -141   -186   -107    234    257 217.2 -30.6  34212  290.46 0854.45
2009/04/23 14:19:22.3    -152   -144   -109    210    236 226.4 -33.7  34214  290.50 0854.45
2009/04/23 14:19:22.4    -255    -90    -83    271    283 250.5 -22.1  34214  290.48 0854.45
2009/04/23 14:19:22.5    -356   -272   -147    449    473 232.6 -18.2  34202  290.27 0854.45
2009/04/23 14:19:22.6    -373   -430   -171    570    596 220.9 -16.7  34204  290.32 0854.45
2009/04/23 14:19:22.7    -296   -296     40    419    421 225.0   5.5  34224  290.65 0854.45
2009/04/23 14:19:22.8    -311   -311   -122    440    457 225.0 -15.5  34212  290.44 0854.45
2009/04/23 14:19:22.9    -448   -229      0    504    505 242.9   0.0  34208  290.37 0854.45
2009/04/23 14:19:23.0    -478   -381   -153    612    631 231.4 -14.1  34190  290.08 0854.45
2009/04/23 14:19:23.1    -394   -515   -106    649    658 217.4  -9.3  34198  290.20 0854.45
2009/04/23 14:19:23.2    -651   -445   -192    789    812 235.6 -13.7  34176  289.84 0854.45
2009/04/23 14:19:23.3    -530   -296   -254    608    658 240.8 -28.5  34174  289.82 0854.45
2009/04/23 14:19:23.4    -553   -382   -197    673    701 235.4 -21.1  34210  290.43 0854.45
2009/04/23 14:19:23.5    -365   -389    -99    534    544 223.2 -10.5  34232  290.80 0854.45
2009/04/23 14:19:23.6    -432   -336    -99    548    557 232.2 -10.3  34192  290.11 0854.45
2009/04/23 14:19:23.7    -308   -188   -165    362    397 238.6 -30.6  34194  290.15 0854.45
2009/04/23 14:19:23.8    -368   -437    -87    572    579 220.1  -8.7  34192  290.10 0854.45
2009/04/23 14:19:23.9    -576   -210   -144    614    631 250.0 -13.3  34164  289.64 0854.45
2009/04/23 14:19:24.0    -546   -165    -91    571    579 253.2  -9.1  34174  289.80 0854.38
2009/04/23 14:19:24.1    -556    -46   -127    558    573 265.2 -12.9  34172  289.77 0854.38
2009/04/23 14:19:24.2    -498   -125   -153    514    537 255.9 -16.6  34172  289.77 0854.38
2009/04/23 14:19:24.3    -465   -120    -83    481    489 255.5  -9.9  34176  289.83 0854.38
2009/04/23 14:19:24.4    -566     25   -157    567    588 272.6 -20.2  34172  289.76 0854.38
2009/04/23 14:19:24.5    -537      7   -171    538    564 270.8 -22.8  34156  289.51 0854.38
2009/04/23 14:19:24.6    -454     92   -242    464    523 281.5 -34.2  34166  289.69 0854.38
2009/04/23 14:19:24.7    -408    135   -207    430    477 288.3 -32.1  34168  289.70 0854.38
2009/04/23 14:19:24.8    -412    177   -205    449    493 293.3 -30.6  34176  289.83 0854.38
2009/04/23 14:19:24.9    -428    188   -197    468    507 293.7 -28.6  34178  289.86 0854.38
2009/04/23 14:19:25.0    -417    171   -194    451    490 292.3 -29.0  34176  289.83 0854.38
2009/04/23 14:19:25.1    -359    168   -217    397    452 295.1 -35.7  34176  289.85 0854.38
2009/04/23 14:19:25.2    -303    141   -152    335    367 295.0 -30.6  34178  289.89 0854.38
2009/04/23 14:19:25.3    -369    170   -171    407    441 294.7 -28.6  34174  289.80 0854.38
2009/04/23 14:19:25.4    -313    279   -201    420    465 311.8 -31.7  34174  289.80 0854.38
2009/04/23 14:19:25.5    -268    313   -179    413    450 319.5 -29.5  34174  289.82 0854.38
2009/04/23 14:19:25.6    -323    140   -106    353    369 293.5 -16.8  34182  289.93 0854.38
2009/04/23 14:19:25.7    -267     -6    -70    268    278 268.5 -14.7  34190  290.07 0854.38
2009/04/23 14:19:25.8    -303    275   -273    410    492 312.2 -41.3  34188  290.03 0854.38
2009/04/23 14:19:25.9    -259     59   -174    266    317 283.0 -40.8  34184  289.97 0854.38
2009/04/23 14:19:26.0    -271    -35   -156    274    315 262.5 -36.7  34190  290.09 0854.37
2009/04/23 14:19:26.1    -186    -60    -20    196    198 252.1  -6.0  34190  290.08 0854.37
2009/04/23 14:19:26.2    -205   -113    -34    235    238 241.1  -8.3  34186  290.02 0854.37
2009/04/23 14:19:26.3    -128    -65   -199    144    245 243.0 -64.9  34198  290.23 0854.37
2009/04/23 14:19:26.4    -269   -293   -169    398    432 222.6 -28.7  34186  290.00 0854.37
2009/04/23 14:19:26.5    -339   -222   -197    406    451 236.7 -32.2  34188  290.04 0854.37
2009/04/23 14:19:26.6    -259   -131   -192    291    348 243.1 -40.8  34194  290.16 0854.37
2009/04/23 14:19:26.7    -120   -243   -262    272    377 206.3 -53.4  34194  290.16 0854.37
2009/04/23 14:19:26.8    -128   -287   -253    315    404 204.1 -47.4  34196  290.18 0854.37
2009/04/23 14:19:26.9    -331   -278    -55    433    437 230.0  -7.3  34194  290.14 0854.37
2009/04/23 14:19:27.0    -366   -564   -121    673    684 213.0 -10.2  34184  289.99 0854.37
2009/04/23 14:19:27.1    -352   -402     80    535    542 221.2   8.6  34184  289.99 0854.37
2009/04/23 14:19:27.2    -202   -477    134    519    537 202.9  14.5  34180  289.92 0854.37
2009/04/23 14:19:27.3    -216   -430     84    482    490 206.7   9.9  34192  290.13 0854.37
2009/04/23 14:19:27.4    -277   -371     60    464    468 216.8   7.5  34192  290.12 0854.37
2009/04/23 14:19:27.5    -147   -287     59    323    329 207.1  10.4  34190  290.09 0854.37
2009/04/23 14:19:27.6    -103   -258     54    278    284 201.8  11.1  34194  290.15 0854.37
2009/04/23 14:19:27.7    -100   -187     25    213    215 208.3   6.9  34194  290.16 0854.37
2009/04/23 14:19:27.8    -120   -202      5    236    237 210.8   1.2  34192  290.12 0854.37
2009/04/23 14:19:27.9       9   -202     15    203    204 177.3   4.2  34192  290.13 0854.37
2009/04/23 14:19:28.0     -46   -204     29    210    213 192.7   8.0  34194  290.16 0854.37
2009/04/23 14:19:28.1     -40   -205     47    209    215 191.1  12.9  34196  290.18 0854.37
2009/04/23 14:19:28.2     -58   -173     60    183    193 198.7  18.4  34194  290.16 0854.37
2009/04/23 14:19:28.3    -138    -37      3    144    145 254.9   1.2  34198  290.23 0854.37
2009/04/23 14:19:28.4     -51    -24     37     57     67 244.6  35.6  34202  290.28 0854.37
2009/04/23 14:19:28.5     -58    -91     55    109    122 212.5  29.2  34210  290.41 0854.37
2009/04/23 14:19:28.6     -91   -149    -32    175    178 211.4 -10.5  34220  290.58 0854.37
2009/04/23 14:19:28.7    -148   -241     25    284    286 211.6   5.2  34222  290.63 0854.37
2009/04/23 14:19:28.8    -147   -322     37    355    357 204.6   6.0  34224  290.66 0854.37
2009/04/23 14:19:28.9    -281   -346     78    447    454 219.1  10.0  34234  290.82 0854.37
2009/04/23 14:19:29.0    -382   -292      2    482    483 232.6   0.3  34250  291.10 0854.37
2009/04/23 14:19:29.1    -440   -161   -145    469    491 249.9 -17.2  34238  290.90 0854.37
2009/04/23 14:19:29.2    -239   -218     78    324    334 227.6  13.6  34244  291.00 0854.37
2009/04/23 14:19:29.3    -238   -235    -30    335    337 225.3  -5.2  34230  290.76 0854.37
2009/04/23 14:19:29.4    -240   -265   -102    358    373 222.2 -15.9  34226  290.69 0854.37
2009/04/23 14:19:29.5    -133   -408    -12    430    431 198.1  -1.6  34194  290.16 0854.37
2009/04/23 14:19:29.6      21   -400    -83    401    410 177.0 -11.8  34194  290.14 0854.37
2009/04/23 14:19:29.7      44   -315     50    319    324 172.0   9.0  34194  290.15 0854.37
2009/04/23 14:19:29.8     -31   -326    149    328    360 185.6  26.0  34198  290.20 0854.37
2009/04/23 14:19:29.9      32   -384    145    386    412 175.1  21.7  34200  290.24 0854.37
2009/04/23 14:19:30.0     -82   -281    249    293    384 196.3  44.5  34204  290.32 0854.38
2009/04/23 14:19:30.1    -177   -357    238    399    464 206.4  33.5  34200  290.24 0854.38
2009/04/23 14:19:30.2     -95   -201    189    223    292 205.5  44.5  34204  290.31 0854.38
2009/04/23 14:19:30.3      -2   -143    108    144    180 180.9  40.7  34212  290.45 0854.38
2009/04/23 14:19:30.4       7    -83     21     84     87 175.1  14.3  34212  290.47 0854.38
2009/04/23 14:19:30.5      74     -1    140     75    158  90.8  69.6  34216  290.53 0854.38
2009/04/23 14:19:30.6      24     54    139     60    151  23.6  75.0  34216  290.53 0854.38
2009/04/23 14:19:30.7      -4     43     98     44    107 354.7  74.0  34224  290.65 0854.38
2009/04/23 14:19:30.8    -104    -41     -2    113    114 248.3  -1.2  34216  290.53 0854.38
2009/04/23 14:19:30.9    -101     24   -107    104    149 283.7 -55.1  34202  290.30 0854.38
2009/04/23 14:19:31.0    -195     77     63    210    220 291.7  16.8  34212  290.47 0854.38
2009/04/23 14:19:31.1    -144    -79    134    165    212 241.2  43.7  34220  290.58 0854.38
2009/04/23 14:19:31.2    -189     -2    -20    190    192 269.2  -6.2  34214  290.48 0854.38
2009/04/23 14:19:31.3    -138     69    -53    155    164 296.6 -18.9  34216  290.53 0854.38
2009/04/23 14:19:31.4    -290     57    -54    296    301 281.2 -10.4  34234  290.82 0854.38
2009/04/23 14:19:31.5    -482    143    121    503    518 286.5  13.6  34216  290.51 0854.38
2009/04/23 14:19:31.6    -533     55    -49    536    539 275.9  -5.3  34228  290.72 0854.38
2009/04/23 14:19:31.7    -919    -52   -266    921    958 266.7 -20.8  34206  290.35 0854.38
2009/04/23 14:19:31.8    -598   -283   -172    662    685 244.6 -14.6  34208  290.39 0854.38
2009/04/23 14:19:31.9    -747   -244     24    786    787 251.9   1.8  34200  290.25 0854.38
2009/04/23 14:19:32.0    -684     17    111    685    695 271.5   9.2  34194  290.14 0854.41
2009/04/23 14:19:32.1    -790     55    -30    792    793 274.0  -2.2  34202  290.29 0854.41
2009/04/23 14:19:32.2    -546    102     27    556    557 280.6   2.8  34194  290.14 0854.41
2009/04/23 14:19:32.3    -391     23     -8    392    393 273.5  -1.3  34188  290.04 0854.41
2009/04/23 14:19:32.4    -429     84    219    438    489 281.1  28.6  34206  290.35 0854.41
2009/04/23 14:19:32.5    -382    -53    255    386    462 262.1  36.5  34216  290.53 0854.41
2009/04/23 14:19:32.6    -305    -29    247    307    394 264.5  42.9  34210  290.43 0854.41
2009/04/23 14:19:32.7       0     88    190     89    209   0.0  73.1  34194  290.16 0854.41
2009/04/23 14:19:32.8    -167    488    222    516    561 341.1  24.8  34202  290.28 0854.41
2009/04/23 14:19:32.9    -284    313    305    423    521 317.8  39.5  34206  290.34 0854.41
2009/04/23 14:19:33.0    -154    165    280    227    360 317.0  56.9  34212  290.44 0854.41
2009/04/23 14:19:33.1    -227    207    216    308    376 312.4  38.6  34206  290.35 0854.41
2009/04/23 14:19:33.2    -177    229     45    290    294 322.4   8.9  34208  290.37 0854.41
2009/04/23 14:19:33.3    -122    295   -114    320    339 337.5 -24.7  34188  290.03 0854.41
2009/04/23 14:19:33.4    -285    344    -17    447    448 320.4  -2.2  34194  290.16 0854.41
2009/04/23 14:19:33.5    -302    322     53    442    446 316.9   6.9  34192  290.12 0854.41
2009/04/23 14:19:33.6    -261    251      0    363    364 313.9   0.1  34198  290.23 0854.41
2009/04/23 14:19:33.7    -431    144   -125    455    473 288.5 -15.4  34198  290.23 0854.41
2009/04/23 14:19:33.8    -391    155    -18    421    422 291.7  -2.5  34188  290.05 0854.41
2009/04/23 14:19:33.9    -255    270     70    372    379 316.6  10.7  34194  290.16 0854.41
2009/04/23 14:19:34.0     -90    252      2    268    269 340.2   0.5  34192  290.10 0854.43
2009/04/23 14:19:34.1      44    125     -2    133    134  19.6  -1.3  34196  290.19 0854.43
2009/04/23 14:19:34.2     -16     42     80     45     91 339.1  68.3  34204  290.31 0854.43
2009/04/23 14:19:34.3     -22     39    117     45    125 330.1  78.2  34218  290.55 0854.43
2009/04/23 14:19:34.4     -85     64     74    107    130 306.9  37.6  34206  290.36 0854.43
2009/04/23 14:19:34.5     -37     51     -2     64     65 324.0  -2.2  34210  290.41 0854.43
2009/04/23 14:19:34.6     -79    -87     -3    118    119 222.3  -1.8  34212  290.47 0854.43
2009/04/23 14:19:34.7     -15    -91    -29     93     97 189.8 -23.3  34218  290.57 0854.43
2009/04/23 14:19:34.8     -15   -186    136    187    231 184.9  39.7  34206  290.35 0854.43
2009/04/23 14:19:34.9     -75    -59    128     96    160 231.4  59.4  34230  290.77 0854.43
2009/04/23 14:19:35.0     -54    -98    170    113    204 209.0  63.4  34234  290.82 0854.43
2009/04/23 14:19:35.1      51   -114    104    125    162 155.9  44.3  34226  290.69 0854.43
2009/04/23 14:19:35.2      23   -162     78    164    181 171.8  27.2  34214  290.48 0854.43
2009/04/23 14:19:35.3     -48   -178     93    185    207 195.1  28.5  34208  290.40 0854.43
2009/04/23 14:19:35.4     -58   -172    105    182    210 198.7  32.7  34216  290.52 0854.43
2009/04/23 14:19:35.5       2   -138    116    139    181 179.0  44.1  34216  290.53 0854.43
2009/04/23 14:19:35.6     107   -161     37    194    198 146.2  10.8  34214  290.48 0854.43
2009/04/23 14:19:35.7     106   -177     48    207    213 149.0  13.2  34204  290.31 0854.43
2009/04/23 14:19:35.8     196   -124    -16    233    234 122.4  -4.1  34204  290.31 0854.43
2009/04/23 14:19:35.9     162    -77     28    180    183 115.5   8.8  34208  290.38 0854.43
2009/04/23 14:19:36.0      -2   -289     90    290    304 180.5  17.3  34174  289.81 0854.42
2009/04/23 14:19:36.1      25   -263    253    265    366 174.6  48.6  34190  290.08 0854.42
2009/04/23 14:19:36.2     -16   -277    264    278    383 183.5  48.4  34188  290.06 0854.42
2009/04/23 14:19:36.3     -53   -262    239    268    359 191.5  46.3  34188  290.03 0854.42
2009/04/23 14:19:36.4      -8   -274    193    275    335 181.8  38.6  34176  289.83 0854.42
2009/04/23 14:19:36.5     -58   -184    196    194    275 197.6  50.1  34180  289.90 0854.42
2009/04/23 14:19:36.6      -3    -83    118     84    144 182.7  60.6  34190  290.09 0854.42
2009/04/23 14:19:36.7       0   -107     91    108    141 180.0  44.3  34198  290.21 0854.42
2009/04/23 14:19:36.8     -21   -149    163    151    222 188.0  52.2  34214  290.48 0854.42
2009/04/23 14:19:36.9      87    -42    164     97    190 116.2  66.8  34212  290.47 0854.42
2009/04/23 14:19:37.0     231    -22    102    233    254  95.5  25.1  34206  290.34 0854.42
2009/04/23 14:19:37.1     249     25    184    251    311  84.1  39.7  34190  290.07 0854.42
2009/04/23 14:19:37.2      84     27     -1     89     90  72.3  -0.7  34210  290.41 0854.42
2009/04/23 14:19:37.3    -108     43    -85    117    144 291.7 -44.1  34206  290.36 0854.42
2009/04/23 14:19:37.4    -108     36    -18    115    117 288.6  -9.3  34192  290.13 0854.42
2009/04/23 14:19:37.5    -157   -284    126    325    348 209.0  22.3  34172  289.77 0854.42
2009/04/23 14:19:37.6    -111   -235    119    261    286 205.3  26.2  34168  289.71 0854.42
2009/04/23 14:19:37.7     -24   -216     55    218    225 186.5  14.3  34170  289.75 0854.42
2009/04/23 14:19:37.8       0   -252    -54    253    259 180.0 -12.2  34172  289.76 0854.42
2009/04/23 14:19:37.9    -105   -320   -134    337    362 198.3 -27.3  34184  289.98 0854.42
2009/04/23 14:19:38.0     -82   -139   -173    162    237 210.7 -56.6  34202  290.30 0854.42
2009/04/23 14:19:38.1     125    -65     63    142    155 117.5  25.2  34194  290.16 0854.42
2009/04/23 14:19:38.2      10    118     81    119    143   4.9  37.6  34200  290.25 0854.42
2009/04/23 14:19:38.3    -123    306    -30    330    332 338.1  -5.3  34188  290.04 0854.42
2009/04/23 14:19:38.4       1    418    103    419    432   0.3  13.9  34172  289.77 0854.42
2009/04/23 14:19:38.5    -148    405     -8    432    433 339.9  -1.2  34182  289.95 0854.42
2009/04/23 14:19:38.6    -112    237    113    263    286 334.7  25.1  34188  290.05 0854.42
2009/04/23 14:19:38.7     -27     86    164     91    187 342.2  68.8  34198  290.23 0854.42
2009/04/23 14:19:38.8      -8   -110     51    111    122 184.4  26.2  34216  290.52 0854.42
2009/04/23 14:19:38.9    -146   -109    -10    183    184 233.4  -3.1  34206  290.35 0854.42
2009/04/23 14:19:39.0     -70   -131   -153    149    213 208.1 -54.8  34194  290.14 0854.42
2009/04/23 14:19:39.1     157   -364     34    397    399 156.6   5.0  34184  289.99 0854.42
2009/04/23 14:19:39.2    -100   -355     31    369    371 195.8   4.9  34186  290.01 0854.42
2009/04/23 14:19:39.3    -162   -377     66    411    417 203.3   9.2  34206  290.34 0854.42
2009/04/23 14:19:39.4     -16   -405     20    406    407 182.3   2.9  34216  290.51 0854.42
2009/04/23 14:19:39.5    -124   -342    134    364    387 200.0  21.0  34234  290.84 0854.42
2009/04/23 14:19:39.6    -244   -333    143    413    438 216.2  19.1  34238  290.89 0854.42
2009/04/23 14:19:39.7    -241   -266    177    360    401 222.2  28.1  34238  290.88 0854.42
2009/04/23 14:19:39.8    -493   -154     81    517    524 252.6   8.9  34276  291.55 0854.42
2009/04/23 14:19:39.9    -410   -193     40    454    456 244.8   5.1  34256  291.19 0854.42
2009/04/23 14:19:40.0      26   -390    260    391    469 176.1  36.7  34182  289.95 0854.42
2009/04/23 14:19:40.1      54   -406    199    410    455 172.4  27.8  34202  290.29 0854.42
2009/04/23 14:19:40.2     165   -316    -61    357    363 152.4  -9.8  34204  290.32 0854.42
2009/04/23 14:19:40.3     167   -305    -13    348    349 151.3  -2.2  34202  290.28 0854.42
2009/04/23 14:19:40.4     -99   -339    132    354    377 196.4  21.4  34196  290.18 0854.42
2009/04/23 14:19:40.5    -190   -417    208    459    503 204.5  26.2  34178  289.88 0854.42
2009/04/23 14:19:40.6    -301   -428    123    524    539 215.1  13.2  34202  290.30 0854.42
2009/04/23 14:19:40.7    -329   -392    182    513    544 220.0  20.3  34222  290.62 0854.42
2009/04/23 14:19:40.8    -448   -319    -20    551    552 234.5  -2.1  34240  290.92 0854.42
2009/04/23 14:19:40.9    -747   -535     28    919    920 234.4   1.8  34246  291.04 0854.42
2009/04/23 14:19:41.0    -762   -359     88    843    848 244.8   6.0  34242  290.97 0854.43
2009/04/23 14:19:41.1    -848      5    148    849    862 270.4   9.9  34236  290.87 0854.43
2009/04/23 14:19:41.2    -563    -29    220    564    605 267.0  22.5  34246  291.02 0854.43
2009/04/23 14:19:41.3    -406   -251    365    478    601 238.3  41.2  34232  290.80 0854.43
2009/04/23 14:19:41.4    -233    423    214    483    528 331.1  25.6  34218  290.56 0854.43
2009/04/23 14:19:41.5    -183    427    251    465    528 336.8  30.8  34216  290.51 0854.43
2009/04/23 14:19:41.6    -310    543    145    626    643 330.2  13.1  34214  290.50 0854.43
2009/04/23 14:19:41.7    -198    542    134    578    594 339.9  13.1  34212  290.47 0854.43
2009/04/23 14:19:41.8     -25    557    131    558    574 357.4  13.2  34210  290.43 0854.43
2009/04/23 14:19:41.9     -66    596    161    600    622 353.7  15.0  34226  290.69 0854.43
2009/04/23 14:19:42.0    -165    509    108    536    547 342.0  11.5  34240  290.94 0854.43
2009/04/23 14:19:42.1      57    398    180    403    441   8.2  25.7  34216  290.51 0854.43
2009/04/23 14:19:42.2       0    517    189    518    551   0.1  21.0  34222  290.63 0854.43
2009/04/23 14:19:42.3      71    360    197    368    417  11.2  30.5  34220  290.60 0854.43
2009/04/23 14:19:42.4     -31    468    219    470    518 356.2  26.9  34222  290.61 0854.43
2009/04/23 14:19:42.5     -98    421    211    433    481 346.9  27.9  34222  290.64 0854.43
2009/04/23 14:19:42.6    -115    335    254    355    436 341.0  39.2  34228  290.72 0854.43
2009/04/23 14:19:42.7    -236    291    172    375    412 320.9  26.3  34230  290.76 0854.43
2009/04/23 14:19:42.8    -120    -76    202    143    247 237.6  61.5  34242  290.96 0854.43
2009/04/23 14:19:43.0      31    -94    225    100    246 161.7  74.5  34260  291.28 0854.43
2009/04/23 14:19:43.0     141     27    156    144    212  79.0  52.2  34244  291.01 0854.42
2009/04/23 14:19:43.1     131    204    160    243    290  32.7  36.3  34244  290.99 0854.42
2009/04/23 14:19:43.2     106    126    132    165    211  40.1  43.0  34250  291.09 0854.42
2009/04/23 14:19:43.3     246     29    291    248    382  83.2  55.6  34248  291.08 0854.42
2009/04/23 14:19:43.4     297    -21    234    298    378  94.1  42.1  34244  291.00 0854.42
2009/04/23 14:19:43.5     288     82    266    300    400  74.1  46.2  34254  291.17 0854.42
2009/04/23 14:19:43.6     229    257    217    345    407  41.7  35.5  34270  291.45 0854.42
2009/04/23 14:19:43.7     290    210    249    359    436  54.0  38.3  34254  291.16 0854.42
2009/04/23 14:19:43.8     281    243    314    372    486  49.1  44.4  34286  291.70 0854.42
2009/04/23 14:19:43.9     286    329    271    437    514  41.0  34.9  34242  290.96 0854.42
2009/04/23 14:19:44.1     339    290    317    447    547  49.5  38.8  34256  291.20 0854.42
2009/04/23 14:19:44.1     248    206     66    323    330  50.4  11.6  34262  291.29 0854.42
2009/04/23 14:19:44.3     360    245    -61    436    441  55.8  -8.0  34290  291.77 0854.42
2009/04/23 14:19:44.4     542    511    -36    746    747  46.7  -2.8  34284  291.67 0854.42
2009/04/23 14:19:44.5     502    459   -136    681    695  47.6 -11.3  34266  291.38 0854.42
2009/04/23 14:19:44.6     651    506   -142    825    838  52.2  -9.8  34212  290.45 0854.42
2009/04/23 14:19:44.7     768    423   -226    877    906  61.1 -14.5  34308  292.10 0854.42
2009/04/23 14:19:44.8     675    489   -284    834    881  54.1 -23.9  34244  291.00 0854.42
2009/04/23 14:19:44.9     465    414   -180    623    649  48.3 -16.2  34232  290.79 0854.42
2009/04/23 14:19:45.0     312    180   -443    361    571  60.1 -61.2  34248  291.07 0854.42
2009/04/23 14:19:45.1     632    142   -280    648    705  77.3 -29.3  34262  291.31 0854.44
2009/04/23 14:19:45.2     313    373   -116    488    502  40.0 -13.4  34222  290.61 0854.44
2009/04/23 14:19:45.3     124    366   -334    387    511  18.7 -49.8  34230  290.76 0854.44
2009/04/23 14:19:45.4     141    121     65    186    198  49.3  19.2  34208  290.40 0854.44
2009/04/23 14:19:45.5     -96    150    135    179    224 327.3  40.7  34232  290.79 0854.44
2009/04/23 14:19:45.6     221    112     48    248    253  63.1  11.0  34230  290.76 0854.44
2009/04/23 14:19:45.7     402   -133      0    424    425 108.3   0.1  34202  290.28 0854.44
2009/04/23 14:19:45.8     387      0     55    388    392  90.1   8.1  34198  290.21 0854.44
2009/04/23 14:19:45.9     448   -159    154    476    501 109.6  17.9  34206  290.34 0854.44
2009/04/23 14:19:46.0     580   -135    152    596    616 103.2  14.3  34210  290.41 0854.44
2009/04/23 14:19:46.1     750    -32    291    751    805  92.5  22.3  34218  290.56 0854.44
2009/04/23 14:19:46.2     274     -8    206    275    343  91.7  40.7  34246  291.02 0854.44
2009/04/23 14:19:46.3     -20   -206    253    208    327 185.6  56.4  34254  291.17 0854.44
2009/04/23 14:19:46.4     310   -471     74    565    570 146.6   7.5  34230  290.75 0854.44
2009/04/23 14:19:46.5     464   -320    225    564    607 124.6  23.0  34220  290.59 0854.44
2009/04/23 14:19:46.6     379    169    357    416    548  65.9  45.0  34234  290.83 0854.44
2009/04/23 14:19:46.7     450    212    346    498    606  64.8  38.3  34194  290.15 0854.44
2009/04/23 14:19:46.8     553     98    138    562    579  79.9  13.8  34206  290.36 0854.44
2009/04/23 14:19:46.9      62    160    290    172    337  21.2  66.8  34234  290.83 0854.44
2009/04/23 14:19:47.0      17     78    266     80    277  12.5  82.8  34258  291.23 0854.44
2009/04/23 14:19:47.1    -123     37    141    129    191 286.9  52.7  34266  291.37 0854.44
2009/04/23 14:19:47.2    -205   -263    237    334    409 218.0  38.8  34242  290.98 0854.44
2009/04/23 14:19:47.3    -117   -420    111    437    451 195.6  14.3  34220  290.58 0854.44
2009/04/23 14:19:47.4    -224   -378    112    440    455 210.7  14.3  34216  290.53 0854.44
2009/04/23 14:19:47.5    -200   -102    195    225    297 242.9  45.6  34250  291.09 0854.44
2009/04/23 14:19:47.6    -338     96    307    352    467 285.9  45.6  34236  290.85 0854.44
2009/04/23 14:19:47.7    -362    -63    166    368    403 260.0  26.2  34238  290.88 0854.44
2009/04/23 14:19:47.8    -261   -166    122    310    333 237.4  22.8  34242  290.97 0854.44
2009/04/23 14:19:47.9    -244   -232     42    337    340 226.4   7.1  34238  290.91 0854.44
2009/04/23 14:19:48.0    -398   -178      7    437    438 245.9   1.0  34252  291.12 0854.44
2009/04/23 14:19:48.1    -221   -346    -16    411    412 212.6  -2.2  34246  291.02 0854.44
2009/04/23 14:19:48.2    -157   -223   -154    273    313 215.2 -36.3  34220  290.59 0854.44
2009/04/23 14:19:48.3     -85   -120    -53    148    158 215.2 -19.7  34226  290.70 0854.44
2009/04/23 14:19:48.4     -93   -233     22    252    254 201.9   5.2  34234  290.82 0854.44
2009/04/23 14:19:48.5     -42   -125    -51    132    141 198.7 -26.9  34254  291.16 0854.44
2009/04/23 14:19:48.6    -264   -282     75    387    395 223.0  11.0  34258  291.22 0854.44
2009/04/23 14:19:48.7    -445   -162   -136    474    494 250.0 -16.0  34232  290.81 0854.44
2009/04/23 14:19:48.8    -346      7   -125    347    368 271.2 -25.1  34234  290.84 0854.44
2009/04/23 14:19:48.9    -513   -294      3    592    593 240.2   0.4  34258  291.24 0854.44
2009/04/23 14:19:49.0    -494   -330    -76    595    600 236.3  -7.4  34276  291.55 0854.44
2009/04/23 14:19:49.1    -342   -160    -45    378    381 244.9  -6.9  34262  291.32 0854.44
2009/04/23 14:19:49.2    -372   -193    -80    420    428 242.6 -10.9  34254  291.18 0854.44
2009/04/23 14:19:49.3    -627   -298   -208    695    726 244.6 -16.7  34242  290.96 0854.44
2009/04/23 14:19:49.4    -538   -390     96    665    672 234.0   8.2  34260  291.26 0854.44
2009/04/23 14:19:49.5    -702     54    -82    705    710 274.5  -6.7  34206  290.35 0854.44
2009/04/23 14:19:49.6    -421    -51   -123    425    442 263.0 -20.9  34234  290.82 0854.44
2009/04/23 14:19:49.7    -266    -47   -115    271    294 259.9 -28.7  34242  290.95 0854.44
2009/04/23 14:19:49.8    -335   -208    -14    395    396 238.2  -2.1  34280  291.62 0854.44
2009/04/23 14:19:49.9    -374   -206     37    427    429 241.1   5.0  34284  291.69 0854.44
2009/04/23 14:19:50.0    -159   -233     29    283    285 214.3   5.9  34282  291.65 0854.44
2009/04/23 14:19:50.1    -309   -236     -4    389    390 232.6  -0.7  34262  291.30 0854.44
2009/04/23 14:19:50.2    -485     89     -9    494    495 280.5  -1.1  34246  291.02 0854.44
2009/04/23 14:19:50.3    -102   -161     93    191    212 212.5  27.8  34252  291.13 0854.44
2009/04/23 14:19:50.4    -157   -260     31    305    307 211.2   5.9  34244  291.00 0854.44
2009/04/23 14:19:50.5     -47    -51    -60     70     92 223.2 -49.8  34240  290.92 0854.44
2009/04/23 14:19:50.6    -130    -23    -49    133    141 259.9 -25.4  34236  290.87 0854.44
2009/04/23 14:19:50.7    -445     82   -102    453    465 280.5 -12.7  34252  291.12 0854.44
2009/04/23 14:19:50.8    -238    -65    -16    247    248 254.7  -3.7  34252  291.12 0854.44
2009/04/23 14:19:50.9    -322   -109     25    341    342 251.3   4.2  34258  291.25 0854.44
2009/04/23 14:19:51.0    -328   -148    -52    360    364 245.7  -8.2  34248  291.05 0854.44
2009/04/23 14:19:51.1    -442    -70   -145    448    470 260.9 -23.0  34210  290.43 0854.45
2009/04/23 14:19:51.2    -367    -97   -113    380    397 255.1 -16.6  34224  290.67 0854.45
2009/04/23 14:19:51.3    -249   -118    121    276    301 244.5  25.1  34246  291.02 0854.45
2009/04/23 14:19:51.4    -128    -52     91    139    166 247.8  36.3  34244  291.01 0854.45
2009/04/23 14:19:51.5     -97   -176     55    202    210 208.9  15.3  34242  290.96 0854.45
2009/04/23 14:19:51.6    -143   -142    -29    202    205 225.3  -8.2  34240  290.94 0854.45
2009/04/23 14:19:51.7    -134   -134    -35    190    194 225.0 -10.5  34240  290.92 0854.45
2009/04/23 14:19:51.8     -96   -116    -19    151    153 219.7  -7.2  34238  290.89 0854.45
2009/04/23 14:19:51.9    -102   -137      5    172    173 216.7   1.8  34238  290.91 0854.45
2009/04/23 14:19:52.0    -112   -154     35    191    195 216.1  10.6  34228  290.74 0854.45
2009/04/23 14:19:52.1     -53   -228     32    235    238 193.3   7.8  34238  290.88 0854.45
2009/04/23 14:19:52.2     -36   -116    -42    122    129 197.4 -23.3  34234  290.84 0854.45
2009/04/23 14:19:52.3     -54   -109     90    122    151 206.3  39.7  34238  290.89 0854.45
2009/04/23 14:19:52.4     -68   -143    114    159    195 205.5  39.3  34236  290.86 0854.45
2009/04/23 14:19:52.5    -155   -146     40    214    218 226.7  10.6  34242  290.98 0854.45
2009/04/23 14:19:52.6    -221   -128     55    256    262 239.8  12.2  34260  291.26 0854.45
2009/04/23 14:19:52.7    -249   -100     78    269    281 248.0  16.3  34274  291.51 0854.45
2009/04/23 14:19:52.8    -394   -147     -6    421    422 249.4  -0.9  34272  291.48 0854.45
2009/04/23 14:19:52.9    -433   -131   -152    453    479 253.1 -18.6  34248  291.07 0854.45
2009/04/23 14:19:53.0    -381   -193   -129    428    447 243.2 -16.8  34258  291.23 0854.45
2009/04/23 14:19:53.1    -371   -139   -182    397    436 249.4 -30.7  34244  290.99 0854.45
2009/04/23 14:19:53.2    -302    -23    -74    303    312 265.6 -13.8  34282  291.65 0854.45
2009/04/23 14:19:53.3    -300   -100    -82    317    328 251.6 -14.6  34294  291.84 0854.45
2009/04/23 14:19:53.4    -275    -95    -93    292    307 250.9 -17.7  34284  291.68 0854.45
2009/04/23 14:19:53.5    -330   -206    -75    390    398 238.0 -11.0  34280  291.62 0854.45
2009/04/23 14:19:53.6    -217   -169     18    276    277 232.2   3.8  34270  291.43 0854.45
2009/04/23 14:19:53.7    -187   -105     31    215    218 240.5   8.2  34262  291.32 0854.45
2009/04/23 14:19:53.8    -217   -225    -92    313    326 223.9 -21.2  34252  291.14 0854.45
2009/04/23 14:19:53.9    -190   -134    -75    233    245 234.7 -17.9  34256  291.19 0854.45
2009/04/23 14:19:54.0     -95    -95    -27    135    138 225.1 -11.3  34256  291.20 0854.45
2009/04/23 14:19:54.1     -14   -104      5    106    107 188.1   2.9  34244  291.01 0854.45
2009/04/23 14:19:54.2      18   -236     -2    237    238 175.5  -0.5  34230  290.75 0854.45
2009/04/23 14:19:54.3      32   -255      7    258    259 172.8   1.7  34230  290.75 0854.45
2009/04/23 14:19:54.4      42   -285     14    289    290 171.5   2.9  34224  290.65 0854.45
2009/04/23 14:19:54.5     109   -171      9    203    204 147.5   2.8  34230  290.75 0854.45
2009/04/23 14:19:54.6      67    -98     87    119    147 145.7  39.7  34234  290.82 0854.45
2009/04/23 14:19:54.7       0    -44    107     45    116 180.9  76.1  34244  290.99 0854.45
2009/04/23 14:19:54.8      16    -21     61     27     66 142.2  75.0  34252  291.15 0854.45
2009/04/23 14:19:54.9      69    -22     40     73     83 108.2  30.8  34246  291.04 0854.45
2009/04/23 14:19:55.0     -19   -164    137    166    215 186.7  43.7  34246  291.04 0854.45
2009/04/23 14:19:55.1     -80   -134     59    157    167 210.8  21.5  34248  291.06 0854.45
2009/04/23 14:19:55.2     -67    -89    -35    112    117 217.0 -22.3  34244  291.01 0854.45
2009/04/23 14:19:55.3    -192    -87     15    211    212 245.6   4.2  34252  291.13 0854.45
2009/04/23 14:19:55.4    -106   -175    -45    205    210 211.2 -12.4  34260  291.28 0854.45
2009/04/23 14:19:55.5     -62   -206     37    216    220 196.7   9.9  34258  291.23 0854.45
2009/04/23 14:19:55.6    -124     63     -5    140    141 297.1  -2.2  34258  291.25 0854.45
2009/04/23 14:19:55.7    -113     62    -25    130    133 298.8 -10.9  34258  291.23 0854.45
2009/04/23 14:19:55.8     -73     35    108     82    135 295.8  58.5  34260  291.28 0854.45
2009/04/23 14:19:55.9      48    -80     84     94    126 149.3  46.9  34258  291.23 0854.45
2009/04/23 14:19:56.0      25   -232    158    234    282 173.8  37.4  34226  290.70 0854.45
2009/04/23 14:19:56.1     -55   -268    279    274    391 191.8  50.4  34232  290.81 0854.45
2009/04/23 14:19:56.2     -97   -296    219    312    381 198.3  38.5  34232  290.79 0854.45
2009/04/23 14:19:56.3     -98   -327     62    342    348 196.7  10.3  34242  290.98 0854.45
2009/04/23 14:19:56.4     -60   -341     88    347    359 190.1  14.3  34222  290.64 0854.45
2009/04/23 14:19:56.5    -168   -328    189    369    414 207.2  29.3  34234  290.84 0854.45
2009/04/23 14:19:56.6    -184   -251    190    312    365 216.3  34.3  34220  290.60 0854.45
2009/04/23 14:19:56.7    -200   -307    149    367    396 213.1  23.4  34216  290.52 0854.45
2009/04/23 14:19:56.8    -236   -249    103    344    360 223.4  16.6  34214  290.49 0854.45
2009/04/23 14:19:56.9     -94   -100     84    138    161 223.2  34.2  34214  290.48 0854.45
2009/04/23 14:19:57.0    -104    -83    127    134    184 231.4  48.5  34242  290.96 0854.45
2009/04/23 14:19:57.1    -236    -99     50    257    262 247.2  11.1  34232  290.80 0854.45
2009/04/23 14:19:57.2    -169   -158     55    232    239 226.9  13.5  34226  290.68 0854.45
2009/04/23 14:19:57.3    -144   -160    -27    216    218 222.1  -7.2  34218  290.57 0854.45
2009/04/23 14:19:57.4    -318   -210    -45    382    385 236.6  -6.8  34228  290.71 0854.45
2009/04/23 14:19:57.5    -280   -279     21    396    397 225.2   3.1  34240  290.94 0854.45
2009/04/23 14:19:57.6    -288   -228     67    368    375 231.6  10.3  34254  291.18 0854.45
2009/04/23 14:19:57.7    -434   -349     78    558    564 231.2   8.0  34246  291.04 0854.45
2009/04/23 14:19:57.8    -488   -100    -96    499    509 258.3 -10.9  34258  291.24 0854.45
2009/04/23 14:19:57.9    -697    -57   -128    700    712 265.3 -10.4  34248  291.07 0854.45
2009/04/23 14:19:58.0    -462   -210   -161    508    533 245.6 -17.6  34258  291.25 0854.45
2009/04/23 14:19:58.1    -502   -320    161    596    618 237.5  15.2  34232  290.81 0854.46
2009/04/23 14:19:58.2    -569     -8   -124    570    584 269.1 -12.3  34188  290.05 0854.46
2009/04/23 14:19:58.3    -572     90   -160    580    602 279.0 -15.5  34192  290.10 0854.46
2009/04/23 14:19:58.4    -446    105   -190    459    496 283.3 -28.1  34220  290.59 0854.46
2009/04/23 14:19:58.5    -545     84   -206    552    589 278.8 -25.9  34230  290.75 0854.46
2009/04/23 14:19:58.6    -562    139   -173    579    605 283.9 -16.6  34206  290.36 0854.46
2009/04/23 14:19:58.7    -578    109    -43    589    591 280.7  -4.2  34198  290.20 0854.46
2009/04/23 14:19:58.8    -437    186    -68    475    480 293.1  -8.2  34208  290.40 0854.46
2009/04/23 14:19:58.9    -516     35   -151    518    539 273.9 -21.1  34202  290.28 0854.46
2009/04/23 14:19:59.0    -448    -42   -250    451    515 264.5 -35.8  34180  289.91 0854.46
2009/04/23 14:19:59.1    -516    -94   -329    525    619 259.6 -39.6  34180  289.91 0854.46
2009/04/23 14:19:59.2    -522    -84   -240    529    580 260.8 -30.6  34220  290.60 0854.46
2009/04/23 14:19:59.3    -425    -50   -224    429    483 263.2 -34.2  34178  289.88 0854.46
2009/04/23 14:19:59.4    -402    -50   -242    406    472 262.8 -38.0  34174  289.82 0854.46
2009/04/23 14:19:59.5    -258   -250   -261    360    444 226.0 -43.9  34186  290.00 0854.46
2009/04/23 14:19:59.6    -266   -208   -265    338    429 232.0 -46.4  34178  289.89 0854.46
2009/04/23 14:19:59.7    -315   -219   -221    384    443 235.1 -37.0  34190  290.07 0854.46
2009/04/23 14:19:59.8    -364   -195   -152    414    441 241.8 -25.4  34192  290.12 0854.46
2009/04/23 14:19:59.9    -236   -155   -209    283    351 236.7 -44.5  34184  289.98 0854.46
2009/04/23 14:20:00.0    -338   -175   -247    381    454 242.6 -40.4  34188  290.05 0854.46
2009/04/23 14:20:00.1    -318   -145   -302    350    462 245.5 -49.5  34186  290.02 0854.44
2009/04/23 14:20:00.2    -313   -121   -246    336    416 248.8 -44.2  34186  290.01 0854.44
2009/04/23 14:20:00.3    -318   -158   -282    356    454 243.5 -46.8  34172  289.77 0854.44
2009/04/23 14:20:00.4    -626   -127   -413    639    760 258.5 -40.3  34188  290.03 0854.44
2009/04/23 14:20:00.5    -554   -176   -406    582    709 252.3 -42.8  34186  290.00 0854.44
2009/04/23 14:20:00.6    -584    -49   -422    587    722 265.2 -43.7  34190  290.09 0854.44
2009/04/23 14:20:00.7    -434   -136   -461    455    647 252.6 -54.9  34210  290.41 0854.44
2009/04/23 14:20:00.8    -551    -76   -368    557    667 262.1 -41.1  34210  290.42 0854.44
2009/04/23 14:20:00.9    -324   -153   -226    359    424 244.7 -39.9  34204  290.33 0854.44
2009/04/23 14:20:01.0    -532   -186   -368    564    673 250.7 -40.6  34206  290.35 0854.44
2009/04/23 14:20:01.1    -551    -96      7    560    561 260.1   0.8  34208  290.38 0854.44
2009/04/23 14:20:01.2    -437   -423    -43    609    611 226.0  -4.1  34200  290.24 0854.44
2009/04/23 14:20:01.3    -296   -465    -15    552    553 212.5  -1.6  34220  290.58 0854.44
2009/04/23 14:20:01.4    -273   -451     26    528    529 211.2   2.9  34186  290.02 0854.44
2009/04/23 14:20:01.5     -99   -139   -226    171    283 215.6 -63.8  34208  290.39 0854.44
2009/04/23 14:20:01.6    -136      0   -152    137    204 270.0 -57.9  34212  290.47 0854.44
2009/04/23 14:20:01.7    -142   -112    -62    182    192 231.8 -23.3  34218  290.57 0854.44
2009/04/23 14:20:01.8    -129   -166     -2    211    212 217.8  -0.7  34216  290.53 0854.44
2009/04/23 14:20:01.9    -308   -320     61    445    450 223.9   7.8  34218  290.56 0854.44
2009/04/23 14:20:02.0    -166   -387     93    422    433 203.2  12.5  34226  290.68 0854.44
2009/04/23 14:20:02.1    -272   -374    126    463    480 216.1  15.3  34206  290.35 0854.43
2009/04/23 14:20:02.2    -241   -281    236    371    439 220.6  35.5  34220  290.60 0854.43
2009/04/23 14:20:02.3    -203   -230    156    307    344 221.4  28.9  34230  290.76 0854.43
2009/04/23 14:20:02.4    -284   -139     98    317    332 243.8  17.2  34242  290.97 0854.43
2009/04/23 14:20:02.5    -268   -321    147    419    445 219.9  19.3  34208  290.38 0854.43
2009/04/23 14:20:02.6    -278   -335     84    436    445 219.7  11.0  34202  290.28 0854.43
2009/04/23 14:20:02.7    -287   -256    191    385    429 228.2  28.4  34204  290.31 0854.43
2009/04/23 14:20:02.8    -443   -414    151    607    626 226.9  14.0  34230  290.76 0854.43
2009/04/23 14:20:02.9    -455   -303     91    547    555 236.3   9.5  34228  290.74 0854.43
2009/04/23 14:20:03.0    -445   -355     13    570    571 231.4   1.4  34232  290.78 0854.43
2009/04/23 14:20:03.1    -293   -364    234    468    523 218.8  28.7  34202  290.27 0854.43
2009/04/23 14:20:03.2    -457   -163     41    486    488 250.3   4.9  34238  290.90 0854.43
2009/04/23 14:20:03.3    -372   -332     73    499    505 228.2   8.3  34222  290.64 0854.43
2009/04/23 14:20:03.4    -198   -493     99    532    542 201.9  10.6  34198  290.21 0854.43
2009/04/23 14:20:03.5    -257   -460     65    527    532 209.2   7.1  34206  290.35 0854.43
2009/04/23 14:20:03.6    -403   -298     52    502    505 233.5   6.0  34198  290.23 0854.43
2009/04/23 14:20:03.7    -344   -439    216    558    598 218.1  22.3  34208  290.37 0854.43
2009/04/23 14:20:03.8    -237   -530    108    581    591 204.1  10.6  34210  290.41 0854.43
2009/04/23 14:20:03.9    -329   -570     33    659    660 210.0   2.9  34210  290.41 0854.43
2009/04/23 14:20:04.0    -475   -375   -164    606    628 231.7 -15.2  34224  290.67 0854.43
2009/04/23 14:20:04.1    -227   -417    130    475    493 208.6  15.3  34198  290.20 0854.45
2009/04/23 14:20:04.2    -291   -482    154    564    585 211.1  15.3  34200  290.25 0854.45
2009/04/23 14:20:04.3    -435   -317     57    539    543 233.9   6.1  34200  290.26 0854.45
2009/04/23 14:20:04.4    -261   -315    123    410    429 219.7  16.7  34202  290.29 0854.45
2009/04/23 14:20:04.5    -223   -153    -29    271    273 235.6  -6.2  34214  290.49 0854.45
2009/04/23 14:20:04.6     -61   -331    103    337    353 190.5  17.1  34188  290.06 0854.45
2009/04/23 14:20:04.7    -304   -510    216    594    632 210.8  20.9  34210  290.43 0854.45
2009/04/23 14:20:04.8    -366   -441    146    574    593 219.7  14.3  34210  290.41 0854.45
2009/04/23 14:20:04.9    -378   -349    196    515    551 227.3  22.0  34208  290.38 0854.45
2009/04/23 14:20:05.0    -416   -302    179    515    546 234.0  19.2  34202  290.28 0854.45
2009/04/23 14:20:05.1    -392      2   -103    393    407 270.4 -14.7  34202  290.30 0854.45
2009/04/23 14:20:05.2    -322   -303    144    443    466 226.8  18.0  34212  290.46 0854.45
2009/04/23 14:20:05.3    -512   -344    -89    618    625 236.1  -8.2  34188  290.03 0854.45
2009/04/23 14:20:05.4    -283   -562     65    630    634 206.7   5.9  34202  290.28 0854.45
2009/04/23 14:20:05.5    -283   -554     80    623    629 207.1   7.3  34204  290.33 0854.45
2009/04/23 14:20:05.6    -432   -317    101    537    547 233.7  10.7  34226  290.70 0854.45
2009/04/23 14:20:05.7    -540    -41   -149    542    563 265.6 -15.4  34220  290.58 0854.45
2009/04/23 14:20:05.8    -412   -259   -130    487    505 237.9 -15.0  34216  290.52 0854.45
2009/04/23 14:20:05.9    -231   -247    -51    339    343 223.0  -8.6  34208  290.38 0854.45
2009/04/23 14:20:06.0    -318   -106    -88    336    348 251.6 -14.7  34214  290.50 0854.45
2009/04/23 14:20:06.1    -267   -139    -43    302    306 242.5  -8.2  34212  290.44 0854.46
2009/04/23 14:20:06.2    -423    -43   -111    426    441 264.1 -14.6  34210  290.41 0854.46
2009/04/23 14:20:06.3    -381    -42   -116    384    401 263.6 -21.8  34202  290.30 0854.46
2009/04/23 14:20:06.4    -240   -187   -156    305    342 232.2 -33.6  34210  290.42 0854.46
2009/04/23 14:20:06.5    -209   -184    -12    279    280 228.6  -2.6  34220  290.58 0854.46
2009/04/23 14:20:06.6    -207   -278    -44    347    350 216.7  -7.3  34214  290.49 0854.46
2009/04/23 14:20:06.7    -430   -239    -71    493    499 240.9  -8.2  34212  290.47 0854.46
2009/04/23 14:20:06.8    -582   -220   -186    623    650 249.3 -21.4  34206  290.35 0854.46
2009/04/23 14:20:06.9    -231   -312   -114    389    405 216.6 -21.2  34210  290.43 0854.46
2009/04/23 14:20:07.0    -213   -247   -202    327    384 220.8 -39.3  34208  290.37 0854.46
2009/04/23 14:20:07.1    -371     50   -370    375    526 277.7 -54.3  34224  290.66 0854.46
2009/04/23 14:20:07.2    -359    108   -231    375    440 286.8 -39.0  34214  290.50 0854.46
2009/04/23 14:20:07.3    -560     56    -30    563    564 275.8  -3.1  34214  290.50 0854.46
2009/04/23 14:20:07.4    -544   -164    -51    569    572 253.2  -5.2  34212  290.46 0854.46
2009/04/23 14:20:07.5    -639   -182   -119    665    676 254.1 -10.2  34214  290.49 0854.46
2009/04/23 14:20:07.6    -377   -303     82    484    491 231.2   9.7  34214  290.49 0854.46
2009/04/23 14:20:07.7    -377   -226     22    440    441 239.1   2.9  34214  290.48 0854.46
2009/04/23 14:20:07.8    -229   -102    108    251    273 246.0  24.6  34210  290.41 0854.46
2009/04/23 14:20:07.9    -280   -235    157    366    398 230.0  24.8  34208  290.38 0854.46
2009/04/23 14:20:08.0    -333   -238    -68    410    416 234.5  -9.5  34222  290.61 0854.46
2009/04/23 14:20:08.1    -377    -76   -245    385    456 258.5 -39.9  34198  290.22 0854.43
2009/04/23 14:20:08.2    -279   -270    -59    389    394 226.0  -8.7  34202  290.28 0854.43
2009/04/23 14:20:08.3    -149   -473    -91    497    506 197.5 -10.4  34224  290.66 0854.43
2009/04/23 14:20:08.4    -507   -555   -172    753    773 222.4 -12.9  34226  290.70 0854.43
2009/04/23 14:20:08.5    -579   -508   -288    771    823 228.7 -25.9  34222  290.62 0854.43
2009/04/23 14:20:08.6    -547   -420   -324    690    762 232.5 -31.5  34222  290.63 0854.43
2009/04/23 14:20:08.7    -577   -366   -305    684    748 237.6 -30.0  34208  290.40 0854.43
2009/04/23 14:20:08.8    -551   -402   -194    683    710 233.9 -20.7  34202  290.28 0854.43
2009/04/23 14:20:08.9    -310   -415   -144    519    538 216.8 -20.1  34212  290.45 0854.43
2009/04/23 14:20:09.0     -89   -568     -7    576    577 188.9  -0.7  34218  290.56 0854.43
2009/04/23 14:20:09.1    -143   -532     41    551    553 195.1   4.3  34216  290.53 0854.43
2009/04/23 14:20:09.2    -135   -581     78    597    602 193.1   7.5  34210  290.41 0854.43
2009/04/23 14:20:09.3    -271   -548    -27    612    613 206.3  -2.6  34208  290.39 0854.43
2009/04/23 14:20:09.4    -132   -659    106    673    682 191.4   9.0  34208  290.38 0854.43
2009/04/23 14:20:09.5      81   -428   -147    436    461 169.3 -18.7  34222  290.61 0854.43
2009/04/23 14:20:09.6      57   -356   -122    361    381 170.9 -23.5  34230  290.76 0854.43
2009/04/23 14:20:09.7      85   -265    -93    279    295 162.2 -18.6  34234  290.82 0854.43
2009/04/23 14:20:09.9      -6   -330    -99    331    346 181.2 -16.6  34232  290.79 0854.43
2009/04/23 14:20:09.9     104   -290     90    309    322 160.2  16.3  34216  290.53 0854.43
2009/04/23 14:20:10.0     -65   -180    117    192    224 199.8  34.4  34226  290.70 0854.43
2009/04/23 14:20:10.1    -175   -218    141    280    313 218.7  28.7  34222  290.61 0854.45
2009/04/23 14:20:10.2    -136   -447    162    468    496 197.0  19.2  34218  290.57 0854.45
2009/04/23 14:20:10.4     -17   -397    273    398    482 182.5  37.7  34228  290.72 0854.45
2009/04/23 14:20:10.4      10   -296    234    297    378 178.0  42.2  34224  290.67 0854.45
2009/04/23 14:20:10.6    -120   -328    324    350    476 200.2  47.7  34218  290.56 0854.45
2009/04/23 14:20:10.7     -90   -372    299    383    485 193.7  42.0  34218  290.55 0854.45
2009/04/23 14:20:10.8     -77   -451    166    458    488 189.7  19.9  34218  290.57 0854.45
2009/04/23 14:20:10.9      16   -408    254    409    481 177.7  34.9  34226  290.68 0854.45
2009/04/23 14:20:11.0     -17   -572    216    573    612 181.8  21.7  34218  290.56 0854.45
2009/04/23 14:20:11.1    -110   -586     78    597    603 190.7   7.5  34216  290.53 0854.45
2009/04/23 14:20:11.2     -14   -475    185    476    510 181.8  22.4  34216  290.52 0854.45
2009/04/23 14:20:11.3      38   -482    196    484    522 175.4  23.2  34216  290.52 0854.45
2009/04/23 14:20:11.4      23   -437    200    438    481 176.9  26.3  34212  290.45 0854.45
2009/04/23 14:20:11.5       7   -488    152    489    513 179.1  17.3  34216  290.52 0854.45
2009/04/23 14:20:11.6      44   -415    222    418    473 173.9  30.3  34220  290.60 0854.45
2009/04/23 14:20:11.7      -8   -332    234    333    406 181.4  38.5  34222  290.62 0854.45
2009/04/23 14:20:11.8      40   -478    164    480    508 175.2  18.9  34218  290.54 0854.45
2009/04/23 14:20:11.9     -29   -284    239    286    372 186.0  44.0  34218  290.54 0854.45
2009/04/23 14:20:12.0     -53   -224    280    231    362 193.4  56.4  34232  290.80 0854.45
2009/04/23 14:20:12.1      50   -100    172    113    205 153.3  63.9  34240  290.92 0854.45
2009/04/23 14:20:12.2     -35   -310    233    313    390 186.5  40.4  34224  290.67 0854.48
2009/04/23 14:20:12.3      -4   -267    247    268    364 180.9  47.5  34232  290.79 0854.48
2009/04/23 14:20:12.4    -122   -279    232    305    383 203.6  41.2  34228  290.71 0854.48
2009/04/23 14:20:12.5    -134   -284    233    315    391 205.3  40.2  34220  290.59 0854.48
2009/04/23 14:20:12.6    -165   -280    206    325    384 210.5  35.5  34222  290.64 0854.48
2009/04/23 14:20:12.7    -162   -285    198    328    383 209.6  34.1  34234  290.84 0854.48
2009/04/23 14:20:12.8     -83   -159    272    180    326 207.6  63.5  34262  291.31 0854.48
2009/04/23 14:20:12.9      20   -201    270    203    337 174.2  59.4  34264  291.33 0854.48
2009/04/23 14:20:13.0     -65   -315    272    322    421 191.8  44.4  34244  291.00 0854.48
2009/04/23 14:20:13.1    -121   -277    235    303    383 203.7  41.7  34226  290.69 0854.48
2009/04/23 14:20:13.2      -3   -253    219    254    335 180.9  45.2  34222  290.63 0854.48
2009/04/23 14:20:13.3      -3   -244    219    245    328 180.9  46.4  34226  290.68 0854.48
2009/04/23 14:20:13.4    -110   -230     89    256    272 205.6  19.2  34216  290.51 0854.48
2009/04/23 14:20:13.5     -82    -52    149     98    178 237.6  63.9  34246  291.03 0854.48
2009/04/23 14:20:13.6    -214    -13    159    215    267 266.5  40.1  34270  291.44 0854.48
2009/04/23 14:20:13.7    -146    -36    119    151    192 255.8  42.7  34266  291.38 0854.48
2009/04/23 14:20:13.8    -123    -58     91    137    164 244.7  36.7  34276  291.55 0854.48
2009/04/23 14:20:13.9     -98   -123     57    158    167 218.7  20.4  34258  291.23 0854.48
2009/04/23 14:20:14.0    -129   -176     68    219    230 216.1  17.3  34246  291.03 0854.48
2009/04/23 14:20:14.1     -55   -218     75    226    239 194.3  18.4  34230  290.76 0854.48
2009/04/23 14:20:14.2     -79   -143    121    164    203 209.2  39.9  34226  290.69 0854.49
2009/04/23 14:20:14.3    -103   -146    214    179    278 215.2  56.1  34244  291.00 0854.49
2009/04/23 14:20:14.4    -120   -299    246    323    406 201.8  41.2  34234  290.83 0854.49
2009/04/23 14:20:14.5    -155   -351    175    384    421 203.9  26.3  34252  291.12 0854.49
2009/04/23 14:20:14.6    -174   -400    141    437    460 203.5  17.9  34272  291.46 0854.49
2009/04/23 14:20:14.7     -94   -477    214    487    531 191.2  25.2  34272  291.46 0854.49
2009/04/23 14:20:14.8    -125   -441    198    459    499 195.9  24.9  34248  291.05 0854.49
2009/04/23 14:20:14.9     -95   -608    219    616    653 188.9  20.3  34238  290.89 0854.49
2009/04/23 14:20:15.0    -155   -541    182    563    592 196.0  17.9  34228  290.73 0854.49
2009/04/23 14:20:15.1     -40   -583    237    585    631 184.0  23.4  34230  290.77 0854.49
2009/04/23 14:20:15.2     -31   -453    174    455    487 184.0  22.0  34236  290.85 0854.49
2009/04/23 14:20:15.3      58   -408    147    413    439 171.9  19.6  34234  290.82 0854.49
2009/04/23 14:20:15.4     -16   -426    142    427    451 182.3  18.5  34230  290.75 0854.49
2009/04/23 14:20:15.5     -43   -401    154    404    432 186.2  22.0  34230  290.75 0854.49
2009/04/23 14:20:15.6     -93   -388     30    400    402 193.6   4.3  34220  290.59 0854.49
2009/04/23 14:20:15.7     -49   -453      6    456    457 186.2   0.8  34220  290.58 0854.49
2009/04/23 14:20:15.8     -70   -430     -9    436    437 189.3  -1.3  34224  290.67 0854.49
2009/04/23 14:20:15.9      39   -488    158    490    515 175.4  17.9  34232  290.81 0854.49
2009/04/23 14:20:16.0     -23   -331    299    332    446 184.1  46.8  34240  290.92 0854.49
2009/04/23 14:20:16.1      83   -278    197    291    351 163.3  37.4  34230  290.76 0854.49
2009/04/23 14:20:16.2    -115   -427    116    443    458 195.1  14.7  34242  290.97 0854.51
2009/04/23 14:20:16.3     -19   -500     47    501    504 182.3   5.4  34222  290.62 0854.51
2009/04/23 14:20:16.4    -111   -465     -9    479    480 193.5  -1.2  34226  290.68 0854.51
2009/04/23 14:20:16.5     -85   -437    -32    446    448 191.0  -4.1  34222  290.63 0854.51
2009/04/23 14:20:16.6      59   -427    -68    432    438 172.1  -9.0  34214  290.48 0854.51
2009/04/23 14:20:16.7      68   -313     43    321    324 167.7   7.8  34218  290.54 0854.51
2009/04/23 14:20:16.8     -13   -260     22    261    263 182.9   4.9  34218  290.54 0854.51
2009/04/23 14:20:16.9      79   -246     59    259    266 162.2  12.9  34218  290.56 0854.51
2009/04/23 14:20:17.0      45   -220     50    225    231 168.4  12.6  34212  290.45 0854.51
2009/04/23 14:20:17.1      15   -260    137    261    294 176.6  29.8  34218  290.56 0854.51
2009/04/23 14:20:17.2     -92   -263     87    279    293 199.4  17.4  34224  290.65 0854.51
2009/04/23 14:20:17.3    -155   -323     79    359    368 205.7  12.5  34222  290.64 0854.51
2009/04/23 14:20:17.4    -199   -340     37    395    397 210.4   5.5  34222  290.64 0854.51
2009/04/23 14:20:17.5    -195   -449     93    490    499 203.5  10.8  34232  290.79 0854.51
2009/04/23 14:20:17.6    -217   -300     44    371    374 216.0   6.9  34234  290.84 0854.51
2009/04/23 14:20:17.7    -160   -235     29    285    287 214.2   5.9  34238  290.90 0854.51
2009/04/23 14:20:17.8    -201   -224     65    302    310 221.9  12.2  34246  291.04 0854.51
2009/04/23 14:20:17.9    -182   -151     -1    237    238 230.2  -0.3  34260  291.27 0854.51
2009/04/23 14:20:18.0    -122   -114     20    168    170 226.9   6.9  34264  291.33 0854.51
2009/04/23 14:20:18.1       0   -117     68    118    136 180.0  33.4  34228  290.74 0854.51
2009/04/23 14:20:18.2      20   -162    102    164    193 172.9  35.5  34218  290.55 0854.54
2009/04/23 14:20:18.3      36   -177     35    181    185 168.2  11.0  34218  290.57 0854.54
2009/04/23 14:20:18.4     103    -78     80    130    152 127.3  35.5  34222  290.64 0854.54
2009/04/23 14:20:18.5     104   -139     19    174    176 143.3   6.5  34224  290.65 0854.54
2009/04/23 14:20:18.6     179    -73     49    194    201 112.4  14.3  34222  290.64 0854.54
2009/04/23 14:20:18.7     186    -13    108    187    215  94.1  32.4  34222  290.64 0854.54
2009/04/23 14:20:18.8     112     16     73    114    135  81.6  35.6  34222  290.64 0854.54
2009/04/23 14:20:18.9     141     14     79    142    162  84.3  31.4  34222  290.62 0854.54
2009/04/23 14:20:19.0      68    -49     29     85     91 126.0  19.2  34228  290.72 0854.54
2009/04/23 14:20:19.1       7    -21     48     23     53 161.5  72.9  34228  290.72 0854.54
2009/04/23 14:20:19.2     -38    -70     74     80    108 208.9  47.9  34228  290.72 0854.50
2009/04/23 14:20:19.3    -142   -104     70    177    190 233.8  22.8  34222  290.64 0854.50
2009/04/23 14:20:19.4    -208    -97    -42    230    234 244.9 -10.4  34232  290.80 0854.50
2009/04/23 14:20:19.5    -124   -119     53    172    181 226.2  17.3  34226  290.69 0854.50
2009/04/23 14:20:19.6    -203    -32     74    206    218 261.0  20.7  34230  290.75 0854.50
2009/04/23 14:20:19.7    -159   -212    126    266    294 216.9  27.2  34222  290.63 0854.50
2009/04/23 14:20:19.8    -223   -351      5    417    418 212.5   0.8  34226  290.70 0854.50
2009/04/23 14:20:19.9    -180   -429     78    466    473 202.8   9.6  34226  290.69 0854.50
2009/04/23 14:20:20.0    -139   -498     12    518    519 195.6   1.4  34222  290.62 0854.50
2009/04/23 14:20:20.1    -241   -506     -8    561    562 205.5  -0.9  34224  290.65 0854.50
2009/04/23 14:20:20.2    -318   -497    -47    591    593 212.6  -4.6  34232  290.78 0854.50
2009/04/23 14:20:20.3    -248   -472    -20    534    535 207.7  -2.2  34226  290.70 0854.50
2009/04/23 14:20:20.4    -227   -402     49    462    465 209.5   6.1  34222  290.63 0854.50
2009/04/23 14:20:20.5    -251   -382    121    458    474 213.4  14.9  34228  290.73 0854.50
2009/04/23 14:20:20.6    -214   -336    125    399    419 212.5  17.4  34238  290.90 0854.50
2009/04/23 14:20:20.7    -116   -365    182    384    424 197.7  27.2  34234  290.82 0854.50
2009/04/23 14:20:20.8      11   -535    265    536    597 178.7  28.2  34236  290.85 0854.50
2009/04/23 14:20:20.9      80   -538    301    544    621 171.5  31.4  34226  290.70 0854.50
2009/04/23 14:20:21.0     119   -362    277    382    471 161.7  39.7  34242  290.95 0854.50
2009/04/23 14:20:21.1      69   -408     80    414    422 170.3  11.0  34216  290.53 0854.50
2009/04/23 14:20:21.2      70   -361     27    368    369 168.9   4.3  34220  290.60 0854.50
2009/04/23 14:20:21.3     239   -445    114    506    519 151.7  12.8  34216  290.52 0854.50
2009/04/23 14:20:21.4     304   -447     82    541    548 145.7   8.7  34212  290.46 0854.50
2009/04/23 14:20:21.5     219   -344    163    409    440 147.5  23.0  34218  290.55 0854.50
2009/04/23 14:20:21.6      95   -327    186    341    388 163.7  31.0  34210  290.43 0854.50
2009/04/23 14:20:21.7       6   -421    157    422    450 179.1  21.4  34212  290.44 0854.50
2009/04/23 14:20:21.8      31   -499    181    501    532 176.4  20.8  34214  290.48 0854.50
2009/04/23 14:20:21.9      12   -365     83    366    376 178.1  12.8  34222  290.62 0854.50
2009/04/23 14:20:22.0     -37   -363     93    365    377 185.9  14.3  34220  290.60 0854.50
2009/04/23 14:20:22.1     -40   -358      4    361    362 186.5   0.7  34230  290.76 0854.50
2009/04/23 14:20:22.2      27   -285     34    287    290 174.6   6.9  34234  290.83 0854.50
2009/04/23 14:20:22.3      24   -336     43    337    340 175.8   7.4  34240  290.94 0854.50
2009/04/23 14:20:22.4      61   -391    -70    396    403 171.1 -10.1  34242  290.98 0854.50
2009/04/23 14:20:22.5      78   -302   -110    312    332 165.5 -19.5  34230  290.75 0854.50
2009/04/23 14:20:22.6      91   -410     57    421    425 167.5   7.8  34210  290.41 0854.50
2009/04/23 14:20:22.7     -25   -385     61    386    391 183.8   9.0  34210  290.42 0854.50
2009/04/23 14:20:22.8     -39   -246    111    250    273 189.1  25.3  34194  290.14 0854.50
2009/04/23 14:20:22.9      -5   -163     95    164    189 182.0  32.7  34214  290.48 0854.50
2009/04/23 14:20:23.0     -82   -106   -100    135    168 217.8 -44.5  34238  290.89 0854.50
2009/04/23 14:20:23.1      55   -197    -14    205    206 164.2  -3.9  34232  290.81 0854.50
2009/04/23 14:20:23.2      -6   -135    -51    136    145 182.6 -25.4  34230  290.77 0854.46
2009/04/23 14:20:23.3     -15   -124   -138    125    186 187.1 -57.7  34254  291.18 0854.46
2009/04/23 14:20:23.4      43   -301   -108    305    324 171.9 -19.5  34262  291.31 0854.46
2009/04/23 14:20:23.5     105   -345    -80    361    370 163.1 -12.6  34254  291.17 0854.46
2009/04/23 14:20:23.6      27   -328   -100    330    346 175.1 -16.9  34242  290.96 0854.46
2009/04/23 14:20:23.7     -20   -341    -36    342    344 183.5  -6.1  34234  290.83 0854.46
2009/04/23 14:20:23.8     -41   -363     -7    366    367 186.6  -1.2  34232  290.79 0854.46
2009/04/23 14:20:23.9      58   -417    -54    422    426 172.0  -7.3  34230  290.77 0854.46
2009/04/23 14:20:24.0      38   -306    -47    309    313 172.9  -8.8  34226  290.68 0854.46
2009/04/23 14:20:24.1     -78   -252    -34    264    267 197.2  -7.5  34224  290.65 0854.46
2009/04/23 14:20:24.2     -52   -309    -41    314    317 189.7  -7.6  34226  290.70 0854.46
2009/04/23 14:20:24.3     115   -390     79    407    415 163.5  11.1  34220  290.60 0854.46
2009/04/23 14:20:24.4     167   -441    -44    472    475 159.2  -5.4  34216  290.51 0854.46
2009/04/23 14:20:24.5     164   -555      0    579    580 163.5   0.0  34212  290.46 0854.46
2009/04/23 14:20:24.6     117   -566     -2    579    580 168.3  -0.3  34212  290.46 0854.46
2009/04/23 14:20:24.7      97   -503    -69    513    518 169.0  -7.7  34212  290.44 0854.46
2009/04/23 14:20:24.8     111   -467   -104    481    493 166.6 -12.3  34212  290.47 0854.46
2009/04/23 14:20:24.9     111   -411    -85    426    435 164.9 -11.3  34212  290.46 0854.46
2009/04/23 14:20:25.0      14   -383   -106    384    399 177.8 -15.5  34208  290.40 0854.46
2009/04/23 14:20:25.1       3   -358    -88    359    370 179.4 -13.8  34210  290.43 0854.46
2009/04/23 14:20:25.2     -26   -360   -131    361    384 184.3 -25.3  34214  290.49 0854.50
2009/04/23 14:20:25.3      52   -350   -193    354    403 171.4 -35.3  34210  290.43 0854.50
2009/04/23 14:20:25.4      75   -337   -159    346    380 167.4 -30.9  34218  290.54 0854.50
2009/04/23 14:20:25.5      40   -261   -130    265    295 171.1 -32.4  34232  290.80 0854.50
2009/04/23 14:20:25.6    -118   -273    -95    298    312 203.4 -22.8  34274  291.50 0854.50
2009/04/23 14:20:25.7     -41   -254   -125    258    286 189.3 -31.7  34280  291.60 0854.50
2009/04/23 14:20:25.8    -103   -305   -141    323    352 198.7 -29.5  34252  291.15 0854.50
2009/04/23 14:20:25.9     -36   -301   -107    304    322 186.9 -24.4  34264  291.34 0854.50
2009/04/23 14:20:26.0     -61   -259    -85    267    280 193.3 -22.8  34260  291.26 0854.50
2009/04/23 14:20:26.1     -87   -159   -110    182    212 208.7 -38.6  34256  291.21 0854.50
2009/04/23 14:20:26.2    -169   -111   -119    203    235 236.7 -37.3  34250  291.09 0854.50
2009/04/23 14:20:26.3    -122   -130   -158    179    238 223.0 -50.6  34240  290.92 0854.50
2009/04/23 14:20:26.4    -134    -72   -143    153    209 241.6 -52.4  34238  290.89 0854.50
2009/04/23 14:20:26.5     -97     48   -109    109    154 296.6 -54.5  34232  290.81 0854.50
2009/04/23 14:20:26.6    -100     63   -119    119    168 302.5 -54.5  34236  290.86 0854.50
2009/04/23 14:20:26.7     -86     80   -116    118    165 312.7 -54.6  34230  290.75 0854.50
2009/04/23 14:20:26.8     -73    -24    -78     78    110 251.4 -54.5  34234  290.82 0854.50
2009/04/23 14:20:26.9     -96    -57    -69    112    131 239.3 -39.4  34236  290.87 0854.50
2009/04/23 14:20:27.0    -124     33   -130    129    183 285.1 -54.3  34222  290.64 0854.50
2009/04/23 14:20:27.1    -115     47   -126    125    177 292.2 -54.5  34224  290.65 0854.50
2009/04/23 14:20:27.2     -73     30   -106     80    132 292.6 -62.9  34220  290.60 0854.51
2009/04/23 14:20:27.3       9     27    -74     29     79  20.0 -82.6  34228  290.72 0854.51
2009/04/23 14:20:27.4      38      2    -68     39     78  85.6 -72.1  34230  290.75 0854.51
2009/04/23 14:20:27.5       3     33    -29     34     44   6.2 -50.2  34224  290.67 0854.51
2009/04/23 14:20:27.6      26      2     -8     27     29  85.6 -17.6  34224  290.65 0854.51
2009/04/23 14:20:27.7      17    -54    -17     57     59 161.7 -21.7  34218  290.57 0854.51
2009/04/23 14:20:27.8      30    -63    -62     70     93 154.5 -50.8  34214  290.50 0854.51
2009/04/23 14:20:27.9      14    -83    -43     85     95 170.2 -33.1  34222  290.64 0854.51
2009/04/23 14:20:28.0      23    -49    -14     55     57 154.7 -14.5  34226  290.69 0854.51
2009/04/23 14:20:28.1      56     39    -13     69     71  54.9 -11.3  34226  290.70 0854.51
2009/04/23 14:20:28.2      73     62    -12     97     98  49.6  -7.3  34220  290.58 0854.51
2009/04/23 14:20:28.3     135     22     -4    137    138  80.4  -1.8  34218  290.57 0854.51
2009/04/23 14:20:28.4     142     -6     26    143    146  92.6  10.6  34218  290.55 0854.51
2009/04/23 14:20:28.5     196     64     18    207    208  71.8   5.2  34218  290.55 0854.51
2009/04/23 14:20:28.6     234     87    -22    250    252  69.6  -5.2  34222  290.63 0854.51
2009/04/23 14:20:28.7     213    135     12    253    254  57.6   2.9  34220  290.58 0854.51
2009/04/23 14:20:28.8     173    108    -56    204    212  58.0 -15.5  34228  290.72 0854.51
2009/04/23 14:20:28.9     136     87    -45    162    168  57.4 -20.2  34230  290.75 0854.51
2009/04/23 14:20:29.0     159     67      8    173    174  66.9   2.8  34242  290.98 0854.51
2009/04/23 14:20:29.1     241     91     27    258    260  69.2   6.1  34264  291.33 0854.51
2009/04/23 14:20:29.2     224    122     47    256    261  61.4  10.6  34268  291.39 0854.53
2009/04/23 14:20:29.3     277    109     39    298    301  68.5   7.5  34256  291.19 0854.53
2009/04/23 14:20:29.4     282     64     -5    290    291  77.2  -1.2  34252  291.12 0854.53
2009/04/23 14:20:29.5     183    117    -59    218    226  57.5 -15.2  34240  290.92 0854.53
2009/04/23 14:20:29.6     155     20     -9    157    158  82.5  -3.3  34238  290.91 0854.53
2009/04/23 14:20:29.7     122     -4     53    123    133  92.1  25.1  34250  291.11 0854.53
2009/04/23 14:20:29.8     148     71     10    165    166  64.2   3.8  34250  291.09 0854.53
2009/04/23 14:20:29.9     188     26    -10    190    191  82.1  -3.1  34256  291.21 0854.53
2009/04/23 14:20:30.0     169     98    -66    196    206  59.8 -23.3  34260  291.26 0854.53
2009/04/23 14:20:30.1     217      5     36    218    222  88.5   9.5  34274  291.52 0854.53
2009/04/23 14:20:30.2     196     29    -39    199    203  81.4 -11.1  34270  291.43 0854.53
2009/04/23 14:20:30.3     358    127    -34    381    383  70.4  -5.2  34258  291.22 0854.53
2009/04/23 14:20:30.4     349    149   -121    380    399  66.8 -17.7  34252  291.15 0854.53
2009/04/23 14:20:30.5     251    162    106    299    317  57.1  20.2  34242  290.97 0854.53
2009/04/23 14:20:30.6     292     88    170    306    350  73.2  31.5  34272  291.47 0854.53
2009/04/23 14:20:30.7     272     89    186    287    342  71.8  35.9  34276  291.55 0854.53
2009/04/23 14:20:30.8     397    128    222    418    473  72.1  30.3  34270  291.45 0854.53
2009/04/23 14:20:30.9     347    190    261    396    474  61.2  36.5  34288  291.75 0854.53
2009/04/23 14:20:31.0     368    163    142    403    428  66.1  19.5  34252  291.14 0854.53
2009/04/23 14:20:31.1     326    146    237    358    429  65.9  36.6  34268  291.40 0854.53
2009/04/23 14:20:31.2     303    101    197    320    375  71.4  34.6  34250  291.10 0854.50
2009/04/23 14:20:31.3     220     44    188    225    293  78.6  43.8  34266  291.36 0854.50
2009/04/23 14:20:31.4     202    -63    106    212    237 107.5  28.7  34242  290.98 0854.50
2009/04/23 14:20:31.5     219   -184     56    287    293 130.0  11.1  34244  291.00 0854.50
2009/04/23 14:20:31.6     299   -182     24    351    352 121.3   4.0  34246  291.03 0854.50
2009/04/23 14:20:31.7     249    -46     62    254    262 100.6  13.9  34236  290.85 0854.50
2009/04/23 14:20:31.8     200   -102     34    225    228 117.1   8.8  34248  291.08 0854.50
2009/04/23 14:20:31.9     209   -130      4    247    248 122.0   1.0  34250  291.10 0854.50
2009/04/23 14:20:32.0     148   -296      7    331    332 153.4   1.2  34258  291.23 0854.50
2009/04/23 14:20:32.1       3   -302    -42    303    307 179.3  -8.0  34250  291.09 0854.50
2009/04/23 14:20:32.2      82   -236      7    250    251 160.8   1.6  34250  291.09 0854.50
2009/04/23 14:20:32.3      86   -276     45    290    294 162.6   8.8  34242  290.95 0854.50
2009/04/23 14:20:32.4     235   -227     65    327    334 134.0  11.3  34250  291.10 0854.50
2009/04/23 14:20:32.5     175   -249     64    305    312 144.9  12.0  34236  290.87 0854.50
2009/04/23 14:20:32.6      98   -288     59    305    311 161.1  11.0  34240  290.92 0854.50
2009/04/23 14:20:32.7      68   -328    116    336    356 168.2  19.1  34232  290.81 0854.50
2009/04/23 14:20:32.8     108   -248    217    271    347 156.3  43.0  34244  291.00 0854.50
2009/04/23 14:20:32.9     111     39    168    118    205  70.5  61.3  34230  290.77 0854.50
2009/04/23 14:20:33.0      32     68     56     76     94  25.5  40.1  34228  290.72 0854.50
2009/04/23 14:20:33.1     -73      6     28     74     79 275.2  21.5  34232  290.81 0854.50
2009/04/23 14:20:33.2     -96   -156     29    184    187 211.6   9.0  34242  290.98 0854.48
2009/04/23 14:20:33.3     -86   -226     66    242    251 200.9  15.3  34282  291.65 0854.48
2009/04/23 14:20:33.4     -66   -206    102    217    239 197.8  27.0  34286  291.71 0854.48
2009/04/23 14:20:33.5      61   -177    141    188    235 160.8  40.7  34256  291.21 0854.48
2009/04/23 14:20:33.6       7   -280    230    281    363 178.4  43.6  34238  290.88 0854.48
2009/04/23 14:20:33.7     170   -187    141    254    290 137.7  31.4  34238  290.88 0854.48
2009/04/23 14:20:33.8      61   -303    182    310    359 168.5  33.3  34232  290.81 0854.48
2009/04/23 14:20:33.9      14   -324    171    325    367 177.5  30.0  34238  290.88 0854.48
2009/04/23 14:20:34.0     -23   -382    181    383    423 183.5  27.1  34236  290.85 0854.48
2009/04/23 14:20:34.1     -27   -355    196    356    406 184.4  31.3  34236  290.86 0854.48
2009/04/23 14:20:34.2      -5   -304    173    305    350 181.1  32.1  34230  290.76 0854.48
2009/04/23 14:20:34.3      44   -264    125    268    295 170.4  27.0  34238  290.88 0854.48
2009/04/23 14:20:34.4       4   -274    210    275    346 179.0  41.2  34230  290.76 0854.48
2009/04/23 14:20:34.5       8   -264    138    265    298 178.2  29.5  34232  290.78 0854.48
2009/04/23 14:20:34.6      -7   -242    135    243    277 181.8  31.4  34232  290.80 0854.48
2009/04/23 14:20:34.7    -102   -204    116    229    256 206.7  28.7  34234  290.82 0854.48
2009/04/23 14:20:34.8       1    -74    159     75    175 179.1  73.1  34240  290.92 0854.48
2009/04/23 14:20:34.9     -27   -134    136    137    193 191.6  50.2  34250  291.11 0854.48
2009/04/23 14:20:35.0     -44   -131    107    139    175 198.7  41.7  34252  291.13 0854.48
2009/04/23 14:20:35.1       3   -104     93    105    140 178.2  45.9  34250  291.09 0854.48
2009/04/23 14:20:35.2      -5    -67     96     68    117 184.5  60.6  34254  291.16 0854.45
2009/04/23 14:20:35.3      -3    -14     62     15     63 195.1  85.9  34260  291.28 0854.45
2009/04/23 14:20:35.4      46      3     57     47     73  85.6  56.3  34258  291.25 0854.45
2009/04/23 14:20:35.5      97    -20    107    100    146 101.9  52.1  34254  291.18 0854.45
2009/04/23 14:20:35.6      37    -42     85     57    102 138.6  63.2  34254  291.18 0854.45
2009/04/23 14:20:35.7      54   -175    137    184    229 162.8  40.1  34244  290.99 0854.45
2009/04/23 14:20:35.8      21   -198    118    200    232 173.8  33.5  34246  291.04 0854.45
2009/04/23 14:20:35.9       9   -230    118    231    259 177.8  29.2  34244  291.00 0854.45
2009/04/23 14:20:36.0     112   -236    135    262    294 154.7  29.3  34244  291.00 0854.45
2009/04/23 14:20:36.1      45   -202    105    208    233 167.3  28.7  34244  291.01 0854.45
2009/04/23 14:20:36.2     135   -212    210    252    328 147.5  44.1  34248  291.05 0854.45
2009/04/23 14:20:36.4     102   -313    251    330    414 162.0  40.9  34238  290.88 0854.45
2009/04/23 14:20:36.4       9   -381    247    382    454 178.5  35.7  34234  290.82 0854.45
2009/04/23 14:20:36.5     -23   -351    196    352    402 183.9  31.5  34228  290.74 0854.45
2009/04/23 14:20:36.6     -65   -474    203    479    520 187.8  24.5  34228  290.74 0854.45
2009/04/23 14:20:36.8       0   -355    247    356    433 180.0  38.0  34234  290.82 0854.45
2009/04/23 14:20:36.8      50   -487    272    490    560 174.0  31.4  34226  290.69 0854.45
2009/04/23 14:20:37.0     147   -379    191    407    449 158.7  27.1  34224  290.65 0854.45
2009/04/23 14:20:37.1      39   -419    226    421    477 174.6  30.6  34226  290.70 0854.45
2009/04/23 14:20:37.2      55   -393    213    397    450 172.0  30.6  34224  290.65 0854.45
2009/04/23 14:20:37.3      36   -478    327    480    580 175.6  37.6  34228  290.72 0854.43
2009/04/23 14:20:37.4     127   -607    340    621    707 168.1  31.0  34232  290.78 0854.43
2009/04/23 14:20:37.5     144   -474    156    496    521 163.1  17.5  34228  290.71 0854.43
2009/04/23 14:20:37.6     346   -294     86    455    464 130.4  10.7  34234  290.82 0854.43
2009/04/23 14:20:37.7     335   -226     45    405    408 124.0   6.4  34232  290.78 0854.43
2009/04/23 14:20:37.8     295   -331    -20    444    445 138.3  -2.6  34230  290.75 0854.43
2009/04/23 14:20:37.9     338   -396     68    521    526 139.5   7.5  34216  290.53 0854.43
2009/04/23 14:20:38.0     229   -538     30    585    586 156.9   3.0  34220  290.59 0854.43
2009/04/23 14:20:38.1     261   -390   -154    470    495 146.2 -18.2  34212  290.45 0854.43
2009/04/23 14:20:38.2     207   -335    115    395    412 148.3  16.3  34214  290.50 0854.43
2009/04/23 14:20:38.3     177   -261    245    316    399 145.7  41.6  34208  290.37 0854.43
2009/04/23 14:20:38.4      16   -305    228    306    381 176.9  40.4  34228  290.72 0854.43
2009/04/23 14:20:38.5      42   -155    155    161    223 164.9  49.2  34244  291.01 0854.43
2009/04/23 14:20:38.6     -94   -248     23    266    268 200.9   5.0  34224  290.65 0854.43
2009/04/23 14:20:38.7    -116   -230     60    258    266 206.7  13.2  34226  290.70 0854.43
2009/04/23 14:20:38.8      32   -239     66    242    251 172.2  15.3  34226  290.70 0854.43
2009/04/23 14:20:38.9     132   -362     90    386    397 160.0  13.2  34224  290.67 0854.43
2009/04/23 14:20:39.0     276   -356      0    451    452 142.2   0.1  34224  290.65 0854.43
2009/04/23 14:20:39.1     117   -423    150    439    465 164.5  18.9  34220  290.60 0854.43
2009/04/23 14:20:39.2      22   -429    321    430    536 177.0  40.4  34212  290.47 0854.43
2009/04/23 14:20:39.3     -29   -339    160    341    376 185.0  27.1  34212  290.47 0854.41
2009/04/23 14:20:39.4      22   -508     56    509    513 177.5   6.4  34220  290.59 0854.41
2009/04/23 14:20:39.5      33   -361    129    363    386 174.7  19.6  34222  290.62 0854.41
2009/04/23 14:20:39.6     179   -377    131    418    439 154.5  17.4  34214  290.48 0854.41
2009/04/23 14:20:39.7      51   -366    227    370    434 172.0  34.4  34202  290.29 0854.41
2009/04/23 14:20:39.8     -18   -465    153    466    491 182.3  18.2  34206  290.34 0854.41
2009/04/23 14:20:39.9     -52   -409    112    413    428 187.3  15.2  34206  290.34 0854.41
2009/04/23 14:20:40.0      -7   -450    108    451    464 180.9  13.5  34204  290.33 0854.41
2009/04/23 14:20:40.1     -24   -448    -53    449    453 183.2  -6.8  34206  290.36 0854.41
2009/04/23 14:20:40.2    -150   -399   -123    427    444 200.7 -20.9  34234  290.82 0854.41
2009/04/23 14:20:40.3    -141   -407   -147    431    455 199.2 -23.8  34248  291.06 0854.40
2009/04/23 14:20:40.4    -237   -373   -144    443    465 212.5 -23.3  34252  291.14 0854.40
2009/04/23 14:20:40.5    -316   -376   -159    492    517 220.1 -23.0  34252  291.15 0854.40
2009/04/23 14:20:40.6    -140   -361   -165    388    421 201.2 -28.7  34248  291.07 0854.40
2009/04/23 14:20:40.7     -61   -267   -115    274    297 192.9 -28.5  34252  291.12 0854.40
2009/04/23 14:20:40.8     129   -272    128    302    328 154.5  24.3  34242  290.97 0854.40
2009/04/23 14:20:40.9      84   -237    174    252    306 160.4  37.8  34232  290.80 0854.40
2009/04/23 14:20:41.0      90   -102    204    137    245 138.5  62.8  34232  290.81 0854.40
2009/04/23 14:20:41.1      -6   -363    314    364    480 181.0  45.2  34214  290.48 0854.40
2009/04/23 14:20:41.2    -155   -342    242    376    447 204.5  35.6  34210  290.43 0854.40
2009/04/23 14:20:41.3    -276   -286    -15    398    399 223.9  -2.3  34212  290.47 0854.40
2009/04/23 14:20:41.4     -50   -133    196    143    242 200.5  60.5  34218  290.55 0854.40
2009/04/23 14:20:41.5      51   -263    187    269    327 168.9  38.3  34220  290.59 0854.40
2009/04/23 14:20:41.6      -9   -356    240    357    430 181.5  37.3  34232  290.80 0854.40
2009/04/23 14:20:41.7      -1   -273    295    274    402 180.2  52.3  34236  290.86 0854.40
2009/04/23 14:20:41.8     213   -162    240    268    359 127.3  46.5  34258  291.25 0854.40
2009/04/23 14:20:41.9      38   -284    237    287    372 172.2  43.7  34262  291.30 0854.40
2009/04/23 14:20:42.0      70   -182    212    196    288 158.8  52.2  34258  291.24 0854.40
2009/04/23 14:20:42.1      -4   -257    185    258    317 180.9  39.2  34244  291.00 0854.40
2009/04/23 14:20:42.2    -110   -186    167    217    273 210.7  41.6  34234  290.83 0854.40
2009/04/23 14:20:42.3     -50   -116     84    127    152 203.2  36.0  34224  290.67 0854.40
2009/04/23 14:20:42.4      30    -45    271     55    276 145.7  89.0  34266  291.38 0854.40
2009/04/23 14:20:42.5     -86   -162    274    184    330 207.9  63.2  34238  290.90 0854.40
2009/04/23 14:20:42.6     -66   -218    -82    229    243 197.0 -24.6  34236  290.87 0854.40
2009/04/23 14:20:42.7    -284   -128   -174    312    357 245.6 -36.0  34218  290.54 0854.40
2009/04/23 14:20:42.8    -370   -328   -210    495    537 228.5 -28.9  34222  290.63 0854.40
2009/04/23 14:20:42.9    -227   -396   -139    457    477 209.9 -21.8  34226  290.68 0854.40
2009/04/23 14:20:43.0    -293   -285   -120    409    426 225.8 -21.2  34224  290.65 0854.40
2009/04/23 14:20:43.1    -132   -179    213    223    308 216.5  48.7  34232  290.80 0854.40
2009/04/23 14:20:43.2    -121   -100     66    158    171 230.4  24.1  34234  290.82 0854.40
2009/04/23 14:20:43.3    -128    -21    143    130    193 260.4  52.7  34246  291.04 0854.40
2009/04/23 14:20:43.4     -47   -100    178    111    209 205.5  64.9  34252  291.15 0854.40
2009/04/23 14:20:43.5     122    -38    162    128    206 107.3  57.5  34252  291.15 0854.40
2009/04/23 14:20:43.6     166    -64    189    179    260 111.3  52.0  34266  291.38 0854.40
2009/04/23 14:20:43.7     113   -134    145    176    228 139.9  43.7  34242  290.96 0854.40
2009/04/23 14:20:43.8     -18   -191     76    192    206 185.6  23.0  34238  290.89 0854.40
2009/04/23 14:20:43.9     -41   -124    -38    131    136 198.7 -21.2  34242  290.98 0854.40
2009/04/23 14:20:44.0     -49     61     41     79     89 321.3  29.8  34250  291.09 0854.40
2009/04/23 14:20:44.1    -102     64     33    121    126 302.4  15.2  34252  291.15 0854.40
2009/04/23 14:20:44.2     -87    -36     74     95    120 247.4  41.7  34244  291.01 0854.40
2009/04/23 14:20:44.3     -81    -13    109     83    137 260.8  58.5  34242  290.98 0854.39
2009/04/23 14:20:44.4     106      0     93    107    141  90.0  45.8  34252  291.13 0854.39
2009/04/23 14:20:44.5      49    -94    213    107    238 152.4  71.4  34256  291.20 0854.39
2009/04/23 14:20:44.6     -10   -104    189    105    216 185.8  68.8  34262  291.30 0854.39
2009/04/23 14:20:44.7    -206   -131     61    245    253 237.5  14.2  34254  291.17 0854.39
2009/04/23 14:20:44.8    -349   -221    129    414    434 237.6  17.4  34264  291.33 0854.39
2009/04/23 14:20:44.9    -322    104     82    339    349 287.9  13.7  34274  291.51 0854.39
2009/04/23 14:20:45.0    -354    144     96    383    395 292.2  14.2  34252  291.13 0854.39
2009/04/23 14:20:45.1    -243   -217    201    326    382 228.2  34.6  34254  291.18 0854.39
2009/04/23 14:20:45.2    -426     43    140    429    452 275.8  18.1  34260  291.26 0854.39
2009/04/23 14:20:45.3    -238    -82     87    252    267 250.9  19.2  34244  290.99 0854.39
2009/04/23 14:20:45.4    -213   -135     78    253    265 237.5  17.3  34232  290.80 0854.39
2009/04/23 14:20:45.5    -139   -179    192    227    297 217.9  44.5  34234  290.82 0854.39
2009/04/23 14:20:45.6    -131   -134    186    188    264 224.3  50.0  34238  290.88 0854.39
2009/04/23 14:20:45.7    -159     -2    123    160    201 269.2  41.6  34250  291.09 0854.39
2009/04/23 14:20:45.8    -300    -29    122    302    325 264.3  23.4  34246  291.04 0854.39
2009/04/23 14:20:45.9    -154     41     90    160    183 285.1  31.9  34252  291.13 0854.39
2009/04/23 14:20:46.0    -188    136    161    233    283 306.0  37.8  34278  291.56 0854.39
2009/04/23 14:20:46.1     -59    -56    147     82    168 226.4  68.5  34260  291.26 0854.39
2009/04/23 14:20:46.2    -165    -76     47    182    188 245.2  14.5  34264  291.33 0854.39
2009/04/23 14:20:46.3    -300    -90    123    314    337 253.2  22.5  34264  291.35 0854.39
2009/04/23 14:20:46.4    -211     97    -26    233    235 294.6  -6.5  34274  291.50 0854.39
2009/04/23 14:20:46.5      -4    133     91    134    161 358.2  37.6  34268  291.40 0854.39
2009/04/23 14:20:46.6    -132   -119    154    178    235 228.0  45.4  34278  291.57 0854.39
2009/04/23 14:20:46.7    -146    -64     -3    160    161 246.4  -1.3  34264  291.33 0854.39
2009/04/23 14:20:46.8    -249    -27    -62    251    259 263.6 -13.9  34250  291.09 0854.39
2009/04/23 14:20:46.9    -179   -332    -27    378    379 208.4  -4.2  34228  290.71 0854.39
2009/04/23 14:20:47.0    -237   -171    -48    293    297 234.1  -9.4  34232  290.78 0854.39
2009/04/23 14:20:47.1    -127   -155    -36    201    205 219.4 -10.3  34246  291.03 0854.39
2009/04/23 14:20:47.2    -145    -69    -27    161    164 244.2  -9.8  34238  290.91 0854.39
2009/04/23 14:20:47.3    -174     58    -33    184    188 288.6 -10.3  34240  290.92 0854.39
2009/04/23 14:20:47.4     -85     14     30     87     93 279.7  19.4  34246  291.03 0854.39
2009/04/23 14:20:47.5     -38    -96     20    104    107 201.8  11.1  34248  291.06 0854.39
2009/04/23 14:20:47.6     -52   -131     40    142    148 201.9  15.8  34246  291.03 0854.39
2009/04/23 14:20:47.7     -60    -76     93     98    135 218.3  49.0  34240  290.92 0854.39
2009/04/23 14:20:47.8    -142    129    134    193    234 312.2  38.0  34250  291.11 0854.39
2009/04/23 14:20:47.9    -205    -83     76    222    235 248.0  18.9  34252  291.15 0854.39
2009/04/23 14:20:48.0    -189    -72    102    203    227 248.9  28.5  34256  291.21 0854.39
2009/04/23 14:20:48.1    -112     -8     83    113    140 265.7  39.7  34262  291.30 0854.39
2009/04/23 14:20:48.2    -269    -69     -6    278    279 255.6  -1.3  34262  291.31 0854.39
2009/04/23 14:20:48.3    -267     84    -11    280    281 287.5  -2.3  34262  291.29 0854.37
2009/04/23 14:20:48.4    -248    147    -37    289    292 300.6  -7.5  34258  291.24 0854.37
2009/04/23 14:20:48.5    -198    114    -20    229    230 300.0  -5.1  34254  291.18 0854.37
2009/04/23 14:20:48.6    -359    142    190    387    431 291.7  28.2  34256  291.21 0854.37
2009/04/23 14:20:48.7    -277    146    111    314    333 297.9  20.2  34258  291.24 0854.37
2009/04/23 14:20:48.8    -225     -8    170    226    282 267.9  40.7  34248  291.07 0854.37
2009/04/23 14:20:48.9    -198    -40    131    202    240 258.6  36.0  34258  291.23 0854.37
2009/04/23 14:20:49.0    -265     13    184    266    323 273.0  38.3  34244  290.99 0854.37
2009/04/23 14:20:49.1    -266    -21    200    267    333 265.4  40.6  34260  291.26 0854.37
2009/04/23 14:20:49.2     -87    -84    206    121    238 226.0  67.0  34296  291.89 0854.37
2009/04/23 14:20:49.3    -146   -138    205    202    287 226.7  50.2  34306  292.04 0854.37
2009/04/23 14:20:49.4      -9    -25    106     27    109 200.0  85.4  34312  292.17 0854.37
2009/04/23 14:20:49.5     -50    -88     90    102    136 209.4  45.9  34306  292.05 0854.37
2009/04/23 14:20:49.6    -154    -98    156    183    240 237.4  44.8  34332  292.51 0854.37
2009/04/23 14:20:49.7    -294   -246    167    384    418 230.1  25.1  34324  292.37 0854.37
2009/04/23 14:20:49.8    -278   -272    205    390    440 225.6  30.0  34282  291.65 0854.37
2009/04/23 14:20:49.9    -210   -223    181    307    356 223.2  33.4  34264  291.35 0854.37
2009/04/23 14:20:50.0    -292   -291    196    413    457 225.1  27.2  34286  291.72 0854.37
2009/04/23 14:20:50.1    -319   -329    151    459    484 224.1  18.2  34328  292.41 0854.37
2009/04/23 14:20:50.2    -314   -271    213    416    467 229.2  29.2  34322  292.32 0854.37
2009/04/23 14:20:50.3    -477   -346    111    590    601 234.1  10.7  34314  292.18 0854.38
2009/04/23 14:20:50.4    -318   -317    146    450    474 225.1  18.0  34302  291.97 0854.38
2009/04/23 14:20:50.5    -420   -262    111    496    509 238.0  12.6  34334  292.53 0854.38
2009/04/23 14:20:50.6    -487   -207     30    530    531 246.9   3.3  34336  292.57 0854.38
2009/04/23 14:20:50.7    -430   -137    -40    452    454 252.3  -5.1  34310  292.11 0854.38
2009/04/23 14:20:50.8    -451     52    -87    455    464 276.6 -10.8  34258  291.23 0854.38
2009/04/23 14:20:50.9    -299    -83     77    311    321 254.5  13.9  34278  291.58 0854.38
2009/04/23 14:20:51.0    -385   -277     93    475    485 234.3  11.1  34296  291.88 0854.38
2009/04/23 14:20:51.1    -289   -159    -86    330    342 241.1 -14.6  34276  291.54 0854.38
2009/04/23 14:20:51.2    -378    -64    163    384    417 260.3  24.2  34312  292.15 0854.38
2009/04/23 14:20:51.3    -359   -256    159    442    469 234.5  20.6  34298  291.92 0854.38
2009/04/23 14:20:51.4    -385   -129     69    407    413 251.4   9.7  34292  291.80 0854.38
2009/04/23 14:20:51.5    -369   -220     37    430    432 239.2   5.0  34284  291.67 0854.38
2009/04/23 14:20:51.6    -279      4    -25    280    282 271.0  -5.2  34292  291.80 0854.38
2009/04/23 14:20:51.7    -322    213    -66    387    393 303.5  -9.7  34284  291.68 0854.38
2009/04/23 14:20:51.8    -460     45     26    463    464 275.7   3.2  34268  291.41 0854.38
2009/04/23 14:20:51.9    -499   -135    -24    518    519 254.9  -2.7  34258  291.25 0854.38
2009/04/23 14:20:52.0    -208    -82    -41    224    228 248.3 -10.5  34256  291.21 0854.38
2009/04/23 14:20:52.1    -161    -22     -6    163    164 262.1  -2.3  34272  291.47 0854.38
2009/04/23 14:20:52.2    -102    -64    178    121    215 237.6  62.6  34284  291.67 0854.38
2009/04/23 14:20:52.3     -13   -101    163    102    192 187.6  64.7  34282  291.64 0854.38
2009/04/23 14:20:52.4     -12    -82    139     83    161 188.5  66.4  34278  291.57 0854.38
2009/04/23 14:20:52.5       4   -289      2    290    291 179.1   0.5  34234  290.83 0854.38
2009/04/23 14:20:52.6      14   -334     10    335    336 177.5   1.8  34260  291.27 0854.38
2009/04/23 14:20:52.7    -104   -323    140    340    367 197.9  23.6  34264  291.34 0854.38
2009/04/23 14:20:52.8     -47   -249    117    254    279 190.7  26.4  34258  291.22 0854.38
2009/04/23 14:20:52.9      99   -218     27    240    242 155.5   6.5  34236  290.85 0854.38
2009/04/23 14:20:53.0     108   -169     77    201    215 147.3  21.7  34232  290.81 0854.38
2009/04/23 14:20:53.1     138    -71     85    156    177 117.1  31.0  34212  290.47 0854.38
2009/04/23 14:20:53.2     172   -118     56    209    217 124.4  15.2  34218  290.57 0854.38
2009/04/23 14:20:53.3     148      0    116    149    188  90.0  42.0  34220  290.60 0854.38
2009/04/23 14:20:53.4     145     34     73    149    165  76.7  28.0  34224  290.65 0854.38
2009/04/23 14:20:53.5     169     -1     88    170    191  90.6  29.5  34216  290.53 0854.38
2009/04/23 14:20:53.6      51    -92    124    106    163 151.0  54.8  34224  290.65 0854.38
2009/04/23 14:20:53.7     125   -103     56    163    173 129.5  19.2  34206  290.36 0854.38
2009/04/23 14:20:53.8      83    -41      8     93     94 116.2   5.4  34210  290.41 0854.38
2009/04/23 14:20:53.9      54      2      7     55     56  87.4   8.0  34208  290.40 0854.38
2009/04/23 14:20:54.0     102     30    -44    107    115  73.6 -27.5  34208  290.40 0854.38
2009/04/23 14:20:54.1     194     65    -34    205    208  71.4  -9.6  34204  290.31 0854.38
2009/04/23 14:20:54.2     204    147    -57    252    259  54.3 -12.9  34196  290.19 0854.38
2009/04/23 14:20:54.3     179    113     16    212    213  57.6   4.6  34198  290.21 0854.37
2009/04/23 14:20:54.4     151     74     17    169    170  63.8   6.1  34202  290.28 0854.37
2009/04/23 14:20:54.5     181     60    205    191    280  71.4  52.2  34200  290.26 0854.37
2009/04/23 14:20:54.6     206    139     81    249    263  56.0  18.1  34196  290.17 0854.37
2009/04/23 14:20:54.7     398     56    213    403    455  82.0  30.2  34236  290.87 0854.37
2009/04/23 14:20:54.8     339    112    174    358    398  71.7  27.9  34248  291.06 0854.37
2009/04/23 14:20:54.9     327    112    182    346    390  71.0  30.1  34248  291.06 0854.37
2009/04/23 14:20:55.0     311    118    416    333    532  69.2  57.3  34258  291.24 0854.37
2009/04/23 14:20:55.1     271    192    382    333    506  54.7  54.4  34224  290.65 0854.37
2009/04/23 14:20:55.2     228    310    254    386    462  36.4  36.5  34222  290.61 0854.37
2009/04/23 14:20:55.3     246    184    314    308    439  53.2  50.4  34220  290.59 0854.37
2009/04/23 14:20:55.4     232    282    281    366    461  39.5  41.5  34236  290.85 0854.37
2009/04/23 14:20:55.5     107    320    194    338    389  18.5  32.4  34238  290.88 0854.37
2009/04/23 14:20:55.6     257     81    385    270    470  72.5  61.7  34234  290.82 0854.37
2009/04/23 14:20:55.7     179    -25    241    181    301  98.1  59.6  34226  290.70 0854.37
2009/04/23 14:20:55.8     133     18    196    135    237  82.0  62.4  34246  291.04 0854.37
2009/04/23 14:20:55.9      33     26    115     43    122  51.4  79.1  34258  291.23 0854.37
2009/04/23 14:20:56.0      21    -88     78     91    119 166.6  45.4  34254  291.18 0854.37
2009/04/23 14:20:56.1      27     40     47     49     67  34.3  50.0  34256  291.21 0854.37
2009/04/23 14:20:56.2     109     60    122    125    174  61.1  49.8  34236  290.87 0854.37
2009/04/23 14:20:56.3     165    -58    197    176    264 109.5  53.7  34234  290.82 0854.37
2009/04/23 14:20:56.4     320    150    159    354    388  64.8  25.9  34224  290.66 0854.37
2009/04/23 14:20:56.5     111    153     87    190    208  36.1  26.4  34232  290.79 0854.37
2009/04/23 14:20:56.6      -9    114    -31    115    120 355.1 -15.4  34238  290.89 0854.37
2009/04/23 14:20:56.7     -28     71    -28     77     81 338.2 -24.8  34244  290.99 0854.37
2009/04/23 14:20:56.8       9     12    -54     16     56  36.1 -86.2  34242  290.98 0854.37
2009/04/23 14:20:56.9      -1     69    -45     70     83 359.1 -40.4  34238  290.91 0854.37
2009/04/23 14:20:57.0      63     93    -23    113    116  34.3 -11.9  34242  290.98 0854.37
2009/04/23 14:20:57.1     -24     36    -85     44     95 325.7 -75.2  34246  291.03 0854.37
2009/04/23 14:20:57.2     -41    -22   -120     47    128 241.1 -82.0  34248  291.08 0854.37
2009/04/23 14:20:57.3      35   -104    -53    110    122 161.3 -31.7  34250  291.09 0854.37
2009/04/23 14:20:57.4      56   -217    -12    225    226 165.5  -3.3  34244  291.01 0854.37
2009/04/23 14:20:57.5     121   -120     49    171    178 134.7  16.0  34246  291.03 0854.37
2009/04/23 14:20:57.6      47    -13    157     49    164 105.9  81.8  34260  291.26 0854.37
2009/04/23 14:20:57.7      -8      8    106     12    106 313.1  90.0  34270  291.43 0854.37
2009/04/23 14:20:57.8     -43     -8     19     44     47 258.5  24.1  34264  291.35 0854.37
2009/04/23 14:20:57.9    -112    -30    -39    116    122 255.0 -23.6  34256  291.21 0854.37
2009/04/23 14:20:58.0    -164   -112    -80    199    214 235.6 -27.4  34258  291.25 0854.37
2009/04/23 14:20:58.1    -175    -51   -127    183    222 253.6 -42.4  34262  291.30 0854.37
2009/04/23 14:20:58.2    -214    155    -65    265    274 305.9 -13.9  34262  291.29 0854.37
2009/04/23 14:20:58.3    -231    108   -167    256    305 295.1 -40.4  34260  291.27 0854.40
2009/04/23 14:20:58.4    -268     47     11    273    274 280.1   2.5  34264  291.34 0854.40
2009/04/23 14:20:58.5    -271     29    100    273    290 276.2  20.9  34260  291.26 0854.40
2009/04/23 14:20:58.6    -387    166    -61    422    427 293.2  -8.3  34250  291.09 0854.40
2009/04/23 14:20:58.7    -385     83   -134    395    418 282.3 -18.8  34216  290.51 0854.40
2009/04/23 14:20:58.8    -617    150   -170    635    658 283.7 -15.1  34244  290.99 0854.40
2009/04/23 14:20:58.9    -479     66     86    484    492 277.9  10.1  34252  291.15 0854.40
2009/04/23 14:20:59.0    -428     -6    -23    429    430 269.2  -3.2  34244  290.99 0854.40
2009/04/23 14:20:59.1    -490    -33    -79    492    499 266.1  -9.1  34188  290.06 0854.40
2009/04/23 14:20:59.2    -411     15    -22    412    413 272.1  -3.1  34172  289.78 0854.40
2009/04/23 14:20:59.3    -563     74    -13    568    569 277.6  -1.4  34176  289.83 0854.40
2009/04/23 14:20:59.4    -523    -51     15    526    527 264.4   1.7  34182  289.94 0854.40
2009/04/23 14:20:59.5    -456     27    -25    457    458 273.4  -3.2  34176  289.85 0854.40
2009/04/23 14:20:59.6    -361   -157    -49    394    398 246.5  -7.2  34198  290.21 0854.40
2009/04/23 14:20:59.7    -306   -219     47    377    381 234.4   7.2  34192  290.10 0854.40
2009/04/23 14:20:59.8    -417   -287    -37    507    509 235.4  -4.2  34206  290.35 0854.40
2009/04/23 14:20:59.9    -213   -393   -123    448    465 208.5 -15.4  34200  290.24 0854.40
2009/04/23 14:21:00.0     -61   -298   -117    305    326 191.6 -26.4  34210  290.41 0854.40
2009/04/23 14:21:00.1     -22   -341   -155    342    375 183.8 -30.4  34218  290.54 0854.40
2009/04/23 14:21:00.2      26   -350   -166    351    388 175.6 -31.5  34216  290.52 0854.40
2009/04/23 14:21:00.3     133   -311   -186    339    386 156.8 -35.7  34218  290.55 0854.32
2009/04/23 14:21:00.4       0   -348    -52    349    353 180.1  -8.6  34202  290.27 0854.32
2009/04/23 14:21:00.5     -12   -404    -62    405    410 181.7  -8.7  34220  290.58 0854.32
2009/04/23 14:21:00.6     -23   -387   -115    388    405 183.4 -16.5  34214  290.50 0854.32
2009/04/23 14:21:00.7     100   -378   -140    392    417 165.1 -19.7  34190  290.09 0854.32
2009/04/23 14:21:00.8     152   -379   -130    409    430 158.1 -17.7  34190  290.07 0854.32
2009/04/23 14:21:00.9     190   -365    -76    412    419 152.5 -10.5  34200  290.26 0854.32
2009/04/23 14:21:01.0     213   -259    -79    336    346 140.5 -13.3  34198  290.20 0854.32
2009/04/23 14:21:01.1     211   -231    -77    313    323 137.6 -13.9  34204  290.32 0854.32
2009/04/23 14:21:01.2     164   -281    -14    326    327 149.7  -2.6  34200  290.24 0854.32
2009/04/23 14:21:01.3     145   -361     49    390    394 158.1   7.2  34208  290.40 0854.35
2009/04/23 14:21:01.4       3   -383     66    384    390 179.5   9.9  34216  290.52 0854.35
2009/04/23 14:21:01.5     190   -242     97    308    323 141.9  17.5  34206  290.36 0854.35
2009/04/23 14:21:01.6     191   -321     19    374    375 149.3   2.9  34202  290.28 0854.35
2009/04/23 14:21:01.7      12   -367     16    368    369 178.1   2.5  34218  290.57 0854.35
2009/04/23 14:21:01.8     -70   -351    -37    358    360 191.3  -6.0  34238  290.88 0854.35
2009/04/23 14:21:01.9      18   -224     80    225    239 175.3  19.6  34232  290.78 0854.35
2009/04/23 14:21:02.0     -46   -330      6    334    335 188.0   1.1  34240  290.94 0854.35
2009/04/23 14:21:02.1     -43   -249     21    253    254 190.0   4.9  34234  290.83 0854.35
2009/04/23 14:21:02.2    -113   -274     25    297    299 202.5   4.9  34256  291.21 0854.35
2009/04/23 14:21:02.3    -125   -259      5    288    289 205.9   1.0  34258  291.22 0854.35
2009/04/23 14:21:02.4     -84   -362     98    372    385 193.1  14.9  34224  290.67 0854.35
2009/04/23 14:21:02.5     -83   -319     90    330    343 194.6  15.3  34228  290.72 0854.35
2009/04/23 14:21:02.6      12   -352    143    353    380 177.9  23.2  34252  291.13 0854.35
2009/04/23 14:21:02.7      26   -353     89    354    366 175.8  14.2  34248  291.05 0854.35
2009/04/23 14:21:02.8      22   -297      4    298    299 175.6   0.8  34198  290.20 0854.35
2009/04/23 14:21:02.9     -82   -423   -154    431    458 191.0 -19.7  34208  290.39 0854.35
2009/04/23 14:21:03.0     -83   -479    -65    487    492 189.9  -7.7  34208  290.39 0854.35
2009/04/23 14:21:03.1     -36   -463   -167    465    495 184.5 -19.8  34192  290.10 0854.35
2009/04/23 14:21:03.2    -117   -286    -87    310    323 202.3 -15.8  34190  290.09 0854.35
2009/04/23 14:21:03.3    -150   -326    204    359    412 204.7  32.0  34206  290.35 0854.40
2009/04/23 14:21:03.5    -192   -347    135    397    420 209.0  18.8  34214  290.50 0854.40
2009/04/23 14:21:03.5    -272   -197     53    337    342 234.0   9.0  34198  290.20 0854.40
2009/04/23 14:21:03.6    -194   -186     55    270    276 226.2  11.6  34188  290.03 0854.40
2009/04/23 14:21:03.7    -124   -161    119    204    236 217.6  32.9  34196  290.18 0854.40
2009/04/23 14:21:03.9      29   -358    210    360    416 175.3  32.9  34220  290.59 0854.40
2009/04/23 14:21:04.0     129   -451    -60    470    474 164.0  -7.3  34198  290.20 0854.40
2009/04/23 14:21:04.1      89   -443   -125    452    470 168.5 -15.5  34190  290.09 0854.40
2009/04/23 14:21:04.2     106   -382   -110    397    413 164.4 -15.5  34190  290.09 0854.40
2009/04/23 14:21:04.3       5   -377   -119    378    397 179.1 -17.5  34190  290.08 0854.40
2009/04/23 14:21:04.4      44   -422   -118    425    442 174.0 -15.5  34192  290.11 0854.40
2009/04/23 14:21:04.5      32   -419   -137    421    443 175.6 -18.1  34192  290.12 0854.40
2009/04/23 14:21:04.6      34   -444   -116    446    461 175.5 -14.7  34192  290.11 0854.40
2009/04/23 14:21:04.7      47   -418     17    421    422 173.5   2.3  34190  290.07 0854.40
2009/04/23 14:21:04.8      56   -278   -190    284    341 168.4 -41.3  34202  290.29 0854.40
2009/04/23 14:21:04.9      33   -433   -226    435    490 175.5 -34.0  34208  290.39 0854.40
2009/04/23 14:21:05.0      48   -510   -183    513    544 174.6 -24.8  34204  290.31 0854.40
2009/04/23 14:21:05.1     101   -480   -149    491    513 168.1 -21.7  34208  290.40 0854.40
2009/04/23 14:21:05.2     207   -455   -263    500    564 155.5 -34.5  34210  290.43 0854.40
2009/04/23 14:21:05.3     218   -575   -180    616    641 159.2 -21.1  34204  290.32 0854.40
2009/04/23 14:21:05.4     419   -307    -14    520    521 126.2  -1.6  34200  290.24 0854.46
2009/04/23 14:21:05.5     462   -346     65    578    582 126.9   6.5  34204  290.32 0854.46
2009/04/23 14:21:05.6     307   -337    110    457    471 137.7  13.6  34208  290.37 0854.46
2009/04/23 14:21:05.7     294   -323    171    437    469 137.7  22.5  34214  290.48 0854.46
2009/04/23 14:21:05.8     213   -268    114    343    362 141.6  18.5  34206  290.35 0854.46
2009/04/23 14:21:05.9     119   -225    229    255    342 152.0  46.6  34220  290.59 0854.46
2009/04/23 14:21:06.0       4   -140    306    141    336 178.2  73.8  34228  290.71 0854.46
2009/04/23 14:21:06.1     -57    -81    201    100    224 215.2  71.7  34234  290.82 0854.46
2009/04/23 14:21:06.2     -47   -177    210    184    279 195.1  54.3  34212  290.46 0854.46
2009/04/23 14:21:06.3      15    -12    202     20    202 129.5  90.0  34226  290.70 0854.46
2009/04/23 14:21:06.4    -115     85    264    144    300 306.4  68.9  34226  290.70 0854.46
2009/04/23 14:21:06.5    -311     62    166    318    358 281.4  29.6  34224  290.67 0854.46
2009/04/23 14:21:06.6    -284    170     30    332    334 300.9   5.3  34222  290.62 0854.46
2009/04/23 14:21:06.7    -345    111    -32    363    365 287.9  -5.2  34228  290.71 0854.46
2009/04/23 14:21:06.8    -230    243    125    335    357 316.6  21.4  34220  290.60 0854.46
2009/04/23 14:21:06.9    -336     90     57    348    353 285.1   9.3  34228  290.71 0854.46
2009/04/23 14:21:07.0    -331    288     94    440    451 311.0  12.1  34212  290.44 0854.46
2009/04/23 14:21:07.1    -382    292     93    481    490 307.4  11.0  34218  290.54 0854.46
2009/04/23 14:21:07.2    -315    357     50    477    480 318.6   6.1  34222  290.61 0854.46
2009/04/23 14:21:07.3    -220    462    -29    512    513 334.5  -3.3  34238  290.90 0854.46
2009/04/23 14:21:07.4    -310    320   -132    446    466 315.9 -16.5  34232  290.80 0854.37
2009/04/23 14:21:07.5    -339   -148    132    371    393 246.4  20.4  34220  290.60 0854.37
2009/04/23 14:21:07.6    -366   -107    176    382    420 253.6  26.5  34242  290.95 0854.37
2009/04/23 14:21:07.7    -398   -130     27    419    420 251.8   3.7  34240  290.94 0854.37
2009/04/23 14:21:07.8    -167   -243    277    295    404 214.5  48.0  34232  290.79 0854.37
2009/04/23 14:21:07.9    -175   -211    266    275    382 219.6  49.0  34244  291.01 0854.37
2009/04/23 14:21:08.0    -261   -203     99    331    346 232.1  16.7  34234  290.83 0854.37
2009/04/23 14:21:08.1    -326   -202    -91    384    395 238.1 -13.4  34260  291.28 0854.37
2009/04/23 14:21:08.2    -408   -276    -66    493    498 235.9  -7.7  34262  291.29 0854.37
2009/04/23 14:21:08.3    -311   -321     53    448    452 224.1   6.8  34254  291.16 0854.37
2009/04/23 14:21:08.4    -188   -249     20    313    314 217.0   3.7  34280  291.60 0854.37
2009/04/23 14:21:08.5    -217   -238    114    323    342 222.3  20.0  34252  291.13 0854.37
2009/04/23 14:21:08.6    -248   -322    112    407    423 217.6  15.4  34244  290.99 0854.37
2009/04/23 14:21:08.7    -383   -215    -13    440    441 240.7  -1.8  34278  291.57 0854.37
2009/04/23 14:21:08.8    -372   -160     41    406    409 246.7   5.8  34288  291.74 0854.37
2009/04/23 14:21:08.9    -199   -230     91    305    319 220.8  16.6  34256  291.19 0854.37
2009/04/23 14:21:09.0    -233   -233     21    330    331 225.0   3.8  34268  291.40 0854.37
2009/04/23 14:21:09.1    -326   -176    134    371    395 241.6  19.9  34262  291.32 0854.37
2009/04/23 14:21:09.2    -332   -235     46    408    411 234.7   6.5  34276  291.55 0854.37
2009/04/23 14:21:09.3    -404   -265      0    484    485 236.7   0.1  34264  291.34 0854.37
2009/04/23 14:21:09.4    -404   -378    -17    554    555 226.9  -1.8  34264  291.35 0854.36
2009/04/23 14:21:09.5    -408   -353    -68    540    545 229.1  -7.2  34280  291.62 0854.36
2009/04/23 14:21:09.6    -314   -435    102    537    547 215.9  10.8  34280  291.62 0854.36
2009/04/23 14:21:09.7    -341   -319    -48    468    471 226.9  -5.9  34238  290.88 0854.36
2009/04/23 14:21:09.8    -220   -324    105    392    406 214.2  15.0  34250  291.10 0854.36
2009/04/23 14:21:09.9    -177   -287    165    338    376 211.6  27.9  34280  291.61 0854.36
2009/04/23 14:21:10.0    -270   -300    210    404    455 222.0  29.6  34278  291.58 0854.36
2009/04/23 14:21:10.1    -162   -326    146    365    393 206.5  23.0  34270  291.44 0854.36
2009/04/23 14:21:10.2    -252   -278    188    376    420 222.2  28.5  34248  291.07 0854.36
2009/04/23 14:21:10.3    -107   -151     86    186    204 215.2  27.0  34258  291.23 0854.36
2009/04/23 14:21:10.4       9   -150    124    151    195 176.4  43.7  34240  290.92 0854.36
2009/04/23 14:21:10.5      87   -183    217    203    297 154.4  52.1  34240  290.93 0854.36
2009/04/23 14:21:10.6     -13    -13    211     19    211 223.4  90.0  34254  291.16 0854.36
2009/04/23 14:21:10.7    -123    -45    246    132    279 250.0  69.6  34254  291.16 0854.36
2009/04/23 14:21:10.8    -244     78    189    257    319 287.7  40.0  34262  291.31 0854.36
2009/04/23 14:21:10.9    -319     74     77    328    337 283.2  13.2  34282  291.66 0854.36
2009/04/23 14:21:11.0    -152     51    118    161    199 288.6  39.7  34284  291.69 0854.36
2009/04/23 14:21:11.1    -264     54    103    270    288 281.7  21.7  34264  291.34 0854.36
2009/04/23 14:21:11.2    -222    146     51    266    271 303.3  11.0  34274  291.50 0854.36
2009/04/23 14:21:11.3     -78    -10    108     79    133 262.1  60.5  34260  291.28 0854.36
2009/04/23 14:21:11.4      74    -44    109     87    139 120.7  56.9  34246  291.04 0854.39
2009/04/23 14:21:11.5      92     90    154    130    201  45.6  55.6  34242  290.98 0854.39
2009/04/23 14:21:11.6      42    -34     57     55     79 129.5  50.7  34244  291.01 0854.39
2009/04/23 14:21:11.7      -8     61     -2     62     63 352.0  -2.2  34246  291.04 0854.39
2009/04/23 14:21:11.8    -108    103    -24    150    153 313.6  -9.3  34242  290.96 0854.39
2009/04/23 14:21:11.9    -258    149     35    298    301 300.0   6.9  34232  290.80 0854.39
2009/04/23 14:21:12.0    -339    151    -97    372    385 294.0 -14.7  34224  290.66 0854.39
2009/04/23 14:21:12.1    -346    -40    113    349    367 263.3  18.0  34240  290.94 0854.39
2009/04/23 14:21:12.2    -331   -218    132    397    419 236.6  18.5  34248  291.07 0854.39
2009/04/23 14:21:12.3    -361   -167     -8    398    399 245.2  -1.3  34226  290.69 0854.39
2009/04/23 14:21:12.4    -169   -199    153    262    303 220.3  33.1  34230  290.76 0854.39
2009/04/23 14:21:12.5    -103   -262    222    282    358 201.6  42.2  34234  290.84 0854.39
2009/04/23 14:21:12.6    -183   -338    181    385    425 208.4  27.1  34224  290.65 0854.39
2009/04/23 14:21:12.7    -147   -390    216    418    470 200.7  29.5  34226  290.70 0854.39
2009/04/23 14:21:12.8    -240   -293    190    379    423 219.3  28.5  34226  290.68 0854.39
2009/04/23 14:21:12.9    -193   -273    219    335    400 215.2  36.3  34224  290.67 0854.39
2009/04/23 14:21:13.0    -338   -205    164    396    428 238.8  23.8  34232  290.80 0854.39
2009/04/23 14:21:13.1    -166   -148     85    223    238 228.2  22.0  34232  290.78 0854.39
2009/04/23 14:21:13.2    -126   -177     30    218    221 215.6   7.8  34230  290.75 0854.39
2009/04/23 14:21:13.3    -147   -262     47    301    305 209.4   9.0  34232  290.80 0854.39
2009/04/23 14:21:13.4    -157   -231     18    280    281 214.3   3.8  34238  290.88 0854.38
2009/04/23 14:21:13.5     -77   -450      7    457    458 189.8   0.9  34194  290.16 0854.38
2009/04/23 14:21:13.6    -147   -502    -44    524    527 196.4  -4.9  34236  290.87 0854.38
2009/04/23 14:21:13.7     -67   -477     -9    482    483 188.1  -1.1  34212  290.44 0854.38
2009/04/23 14:21:13.8     -49   -451    -25    454    455 186.2  -3.2  34204  290.33 0854.38
2009/04/23 14:21:13.9     -76   -509     21    515    516 188.5   2.3  34208  290.40 0854.38
2009/04/23 14:21:14.0       9   -589     24    590    591 179.1   2.3  34214  290.49 0854.38
2009/04/23 14:21:14.1      -9   -552    177    553    581 181.0  17.8  34216  290.53 0854.38
2009/04/23 14:21:14.2     -75   -545     16    551    552 187.9   1.7  34214  290.50 0854.38
2009/04/23 14:21:14.3    -121   -448     99    465    476 195.2  12.0  34218  290.57 0854.38
2009/04/23 14:21:14.4    -155   -467    -23    493    494 198.4  -2.7  34228  290.71 0854.38
2009/04/23 14:21:14.5     -64   -217    138    227    265 196.5  34.4  34244  290.99 0854.38
2009/04/23 14:21:14.6     216   -128    192    252    316 120.7  41.2  34230  290.76 0854.38
2009/04/23 14:21:14.7     -31   -426     77    428    435 184.3  10.2  34222  290.63 0854.38
2009/04/23 14:21:14.8     -11   -558    105    559    569 181.2  10.7  34204  290.31 0854.38
2009/04/23 14:21:14.9       8   -331    305    332    450 178.5  47.5  34216  290.51 0854.38
2009/04/23 14:21:15.0     -50   -245    276    251    373 191.6  53.0  34226  290.69 0854.38
2009/04/23 14:21:15.1      12   -111    243    112    267 173.8  73.8  34238  290.91 0854.38
2009/04/23 14:21:15.2     -67    -67    234     95    252 225.0  77.0  34244  291.01 0854.38
2009/04/23 14:21:15.3     -68     32    113     76    136 295.4  63.2  34244  291.01 0854.38
2009/04/23 14:21:15.4    -101     73    132    125    181 306.0  52.0  34254  291.16 0854.35
2009/04/23 14:21:15.5     -33     54     82     64    104 328.4  57.9  34242  290.96 0854.35
2009/04/23 14:21:15.6      -1    103     82    104    132 359.1  42.7  34238  290.89 0854.35
2009/04/23 14:21:15.7     -92     68     84    115    142 306.4  39.7  34250  291.09 0854.35
2009/04/23 14:21:15.8    -164     46     98    171    197 285.7  32.4  34248  291.06 0854.35
2009/04/23 14:21:15.9    -221      8     93    222    240 272.1  24.1  34256  291.21 0854.35
2009/04/23 14:21:16.0    -198   -125    173    235    291 237.6  39.9  34262  291.29 0854.35
2009/04/23 14:21:16.1    -167    -61    165    179    243 249.8  47.9  34268  291.42 0854.35
2009/04/23 14:21:16.2    -197      0    170    198    260 270.0  45.1  34246  291.04 0854.35
2009/04/23 14:21:16.3    -133    -44    197    141    242 251.8  61.1  34264  291.33 0854.35
2009/04/23 14:21:16.4    -148     39    131    154    202 285.1  44.8  34264  291.33 0854.35
2009/04/23 14:21:16.5    -188      3     86    189    207 271.0  26.2  34264  291.35 0854.35
2009/04/23 14:21:16.6    -117    -96     50    152    161 230.5  18.4  34264  291.33 0854.35
2009/04/23 14:21:16.7     -63    -86      5    107    108 216.1   2.9  34258  291.23 0854.35
2009/04/23 14:21:16.8     121     48     70    131    148  68.2  30.8  34244  291.01 0854.35
2009/04/23 14:21:16.9      -3     23     63     24     67 352.0  79.2  34256  291.21 0854.35
2009/04/23 14:21:17.0     -25    -22   -107     34    112 228.7 -85.6  34260  291.26 0854.35
2009/04/23 14:21:17.1     -12    -47   -135     49    143 195.1 -83.6  34272  291.49 0854.35
2009/04/23 14:21:17.2      21      1   -144     22    145  85.6 -90.0  34278  291.59 0854.35
2009/04/23 14:21:17.3      59    136   -154    149    214  23.7 -55.1  34274  291.50 0854.35
2009/04/23 14:21:17.4      96     27    -65    100    119  74.1 -40.4  34268  291.40 0854.34
2009/04/23 14:21:17.5     112    -19     -2    114    115  99.7  -1.3  34264  291.33 0854.34
2009/04/23 14:21:17.6      67   -200     -4    212    213 161.3  -1.2  34262  291.32 0854.34
2009/04/23 14:21:17.7     -43   -125    -43    133    140 199.2 -18.1  34264  291.33 0854.34
2009/04/23 14:21:17.8     -30   -141    -40    145    151 192.0 -15.5  34264  291.33 0854.34
2009/04/23 14:21:17.9    -106   -318   -103    336    351 198.5 -21.9  34260  291.27 0854.34
2009/04/23 14:21:18.0      82   -401    -60    410    415 168.3  -8.4  34278  291.57 0854.34
2009/04/23 14:21:18.1     101   -379    -41    393    396 165.1  -6.1  34276  291.54 0854.34
2009/04/23 14:21:18.2     -63   -268    -90    276    290 193.3 -23.6  34266  291.36 0854.34
2009/04/23 14:21:18.3     -12   -391    -99    392    405 181.9 -14.3  34266  291.37 0854.34
2009/04/23 14:21:18.4      86   -461    -26    469    470 169.4  -3.2  34260  291.27 0854.34
2009/04/23 14:21:18.5     113   -482     34    496    498 166.8   4.0  34258  291.25 0854.34
2009/04/23 14:21:18.6      38   -484    125    486    502 175.4  14.5  34264  291.34 0854.34
2009/04/23 14:21:18.7      89   -560    166    568    592 170.9  16.3  34284  291.68 0854.34
2009/04/23 14:21:18.8     138   -544    292    562    633 165.7  29.6  34274  291.51 0854.34
2009/04/23 14:21:18.9     129   -630    296    644    708 168.4  26.4  34280  291.62 0854.34
2009/04/23 14:21:19.0      91   -640    275    647    703 171.9  24.5  34270  291.43 0854.34
2009/04/23 14:21:19.1    -136   -541    193    558    591 194.2  19.1  34262  291.31 0854.34
2009/04/23 14:21:19.2      41   -585    316    587    666 176.0  30.7  34258  291.22 0854.34
2009/04/23 14:21:19.3      51   -461    379    464    599 173.7  43.5  34246  291.03 0854.34
2009/04/23 14:21:19.4     146   -489    479    511    700 163.3  48.0  34214  290.50 0854.33
2009/04/23 14:21:19.5     -61   -710    393    713    814 185.0  31.3  34252  291.15 0854.33
2009/04/23 14:21:19.6     -44   -631    427    633    763 184.0  37.4  34242  290.95 0854.33
2009/04/23 14:21:19.7       8   -528    323    529    619 179.1  34.4  34242  290.95 0854.33
2009/04/23 14:21:19.8       0   -456    438    457    633 179.9  48.7  34214  290.49 0854.33
2009/04/23 14:21:19.9     -26   -476    514    477    701 183.1  52.5  34192  290.11 0854.33
2009/04/23 14:21:20.0    -224   -493    611    542    816 204.5  54.0  34236  290.87 0854.33
2009/04/23 14:21:20.1    -378   -559    597    676    901 214.1  45.9  34256  291.21 0854.33
2009/04/23 14:21:20.2    -560   -569    624    799   1013 224.5  41.9  34252  291.12 0854.33
2009/04/23 14:21:20.3    -499   -513    428    716    834 224.2  33.6  34262  291.31 0854.33
2009/04/23 14:21:20.4    -631   -515    334    815    880 230.8  23.6  34264  291.33 0854.33
2009/04/23 14:21:20.5    -864   -569     88   1035   1040 236.6   4.9  34268  291.41 0854.33
2009/04/23 14:21:20.6    -860   -610    159   1055   1067 234.6   8.6  34246  291.02 0854.33
2009/04/23 14:21:20.7    -767   -575     78    959    963 233.1   4.7  34254  291.18 0854.33
2009/04/23 14:21:20.8    -477   -526   -221    711    745 222.2 -17.3  34258  291.24 0854.33
2009/04/23 14:21:20.9    -852   -639   -136   1066   1075 233.1  -7.3  34266  291.37 0854.33
2009/04/23 14:21:21.0    -829   -422   -411    931   1017 243.0 -29.7  34200  290.24 0854.33
2009/04/23 14:21:21.1    -907   -390   -295    988   1031 246.7 -21.5  34198  290.21 0854.33
2009/04/23 14:21:21.2    -803   -334   -294    870    919 247.4 -18.7  34218  290.55 0854.33
2009/04/23 14:21:21.3    -843   -289   -334    892    952 251.1 -25.9  34230  290.76 0854.33
2009/04/23 14:21:21.4    -700   -311   -271    766    813 246.0 -19.5  34206  290.36 0854.35
2009/04/23 14:21:21.5    -707   -231   -227    744    778 251.9 -17.0  34202  290.28 0854.35
2009/04/23 14:21:21.6    -819   -146   -160    832    848 259.9 -10.9  34224  290.66 0854.35
2009/04/23 14:21:21.7    -659   -146    -80    676    681 257.5  -6.8  34222  290.63 0854.35
2009/04/23 14:21:21.8    -628   -131   -203    642    673 258.2 -22.6  34210  290.43 0854.35
2009/04/23 14:21:21.9    -576    -43   -188    578    608 265.7 -18.0  34218  290.56 0854.35
2009/04/23 14:21:22.0    -809    -45    -72    811    815 266.8  -5.1  34250  291.11 0854.35
2009/04/23 14:21:22.1    -437    166    -80    468    475 290.8  -9.7  34236  290.85 0854.35
2009/04/23 14:21:22.2    -369     28    -83    371    381 274.5 -12.7  34244  291.00 0854.35
2009/04/23 14:21:22.3    -247     85   -104    262    281 289.1 -27.4  34224  290.65 0854.35
2009/04/23 14:21:22.4    -312   -274   -231    416    475 228.7 -35.9  34230  290.77 0854.35
2009/04/23 14:21:22.5    -528     82   -154    535    557 278.9 -16.1  34230  290.75 0854.35
2009/04/23 14:21:22.6    -399     -8   -111    400    415 268.8 -20.1  34250  291.11 0854.35
2009/04/23 14:21:22.7    -358   -140    -98    385    398 248.6 -14.4  34252  291.13 0854.35
2009/04/23 14:21:22.8    -127   -444   -165    462    491 196.0 -19.7  34256  291.19 0854.35
2009/04/23 14:21:22.9     -44   -370   -106    373    387 186.9 -20.5  34252  291.15 0854.35
2009/04/23 14:21:23.0    -161   -121   -105    202    227 233.1 -33.9  34220  290.60 0854.35
2009/04/23 14:21:23.1    -187   -179   -115    260    284 226.2 -29.7  34218  290.54 0854.35
2009/04/23 14:21:23.2    -409   -225   -161    467    495 241.1 -19.1  34228  290.71 0854.35
2009/04/23 14:21:23.3    -446   -304   -246    540    593 235.7 -30.6  34212  290.46 0854.35
2009/04/23 14:21:23.4    -553   -281   -202    621    654 243.0 -18.0  34210  290.43 0854.38
2009/04/23 14:21:23.5    -489   -249   -170    549    575 243.0 -17.3  34186  290.01 0854.38
2009/04/23 14:21:23.6    -603   -200   -270    636    690 251.6 -28.8  34196  290.17 0854.38
2009/04/23 14:21:23.7    -438    -75   -349    445    565 260.3 -46.6  34208  290.38 0854.38
2009/04/23 14:21:23.8    -466     17   -335    467    574 272.1 -43.6  34218  290.55 0854.38
2009/04/23 14:21:23.9    -447   -105   -271    460    533 256.7 -37.7  34204  290.32 0854.38
2009/04/23 14:21:24.0    -486   -286   -242    565    614 239.5 -29.0  34222  290.61 0854.38
2009/04/23 14:21:24.1    -259   -105   -153    280    319 247.8 -35.3  34220  290.58 0854.38
2009/04/23 14:21:24.2    -108   -251   -128    274    302 203.4 -31.5  34216  290.53 0854.38
2009/04/23 14:21:24.3    -150    -90    -64    176    187 238.9 -25.1  34220  290.60 0854.38
2009/04/23 14:21:24.4      57   -164    -28    174    177 160.8  -9.3  34216  290.53 0854.40
2009/04/23 14:21:24.5       0   -355    -46    356    359 180.0  -7.5  34208  290.40 0854.40
2009/04/23 14:21:24.6     -76   -539     18    545    546 188.1   1.9  34220  290.58 0854.40
2009/04/23 14:21:24.7     -22   -566    139    567    584 182.2  13.8  34224  290.66 0854.40
2009/04/23 14:21:24.8     -17   -561    166    562    587 181.8  16.5  34212  290.46 0854.40
2009/04/23 14:21:24.9     -40   -543    -23    545    546 184.2  -2.5  34230  290.77 0854.40
2009/04/23 14:21:25.0      31   -454     55    456    460 176.0   6.9  34228  290.72 0854.40
2009/04/23 14:21:25.1     -36   -460     65    462    467 184.5   8.0  34230  290.76 0854.40
2009/04/23 14:21:25.2      -6   -343    118    344    364 181.2  19.1  34234  290.84 0854.40
2009/04/23 14:21:25.3       9   -328    258    329    418 178.3  42.1  34232  290.79 0854.40
2009/04/23 14:21:25.4     -12   -173    182    174    251 184.0  51.2  34226  290.70 0854.40
2009/04/23 14:21:25.5     -35   -249    190    252    315 188.1  40.8  34226  290.68 0854.40
2009/04/23 14:21:25.6     -45   -349    163    352    387 187.4  26.9  34224  290.67 0854.40
2009/04/23 14:21:25.7      55   -259    162    265    310 168.0  34.5  34224  290.66 0854.40
2009/04/23 14:21:25.8    -135   -284    152    315    349 205.5  27.3  34222  290.62 0854.40
2009/04/23 14:21:25.9     -85   -170    158    191    247 206.5  43.7  34220  290.60 0854.40
2009/04/23 14:21:26.0     -79   -218    140    233    271 200.1  34.2  34222  290.61 0854.40
2009/04/23 14:21:26.1     -52   -244    187    250    312 192.0  40.4  34218  290.56 0854.40
2009/04/23 14:21:26.2      77   -320    128    330    353 166.5  22.4  34218  290.57 0854.40
2009/04/23 14:21:26.3      42   -343     66    346    353 172.9  10.8  34214  290.49 0854.40
2009/04/23 14:21:26.4      40   -387     85    390    400 174.0  12.3  34230  290.76 0854.39
2009/04/23 14:21:26.5       5   -332     13    333    334 179.1   2.2  34232  290.79 0854.39
2009/04/23 14:21:26.6     -44   -404     -2    407    408 186.3  -0.4  34226  290.68 0854.39
2009/04/23 14:21:26.7      43   -484     63    486    491 174.8   7.5  34232  290.78 0854.39
2009/04/23 14:21:26.8      91   -523    100    531    541 170.1  10.7  34236  290.86 0854.39
2009/04/23 14:21:26.9      53   -469    172    473    503 173.5  20.9  34236  290.85 0854.39
2009/04/23 14:21:27.0      32   -452    218    454    503 175.9  27.3  34234  290.83 0854.39
2009/04/23 14:21:27.1       4   -317    246    318    402 179.1  41.7  34234  290.83 0854.39
2009/04/23 14:21:27.2     -20   -297    233    298    378 184.0  42.0  34248  291.08 0854.39
2009/04/23 14:21:27.3    -138   -417    217    440    490 198.3  28.2  34240  290.93 0854.39
2009/04/23 14:21:27.4     -24   -264    284    266    389 185.3  52.1  34232  290.81 0854.39
2009/04/23 14:21:27.5     -89   -293    186    307    358 197.0  34.1  34238  290.89 0854.39
2009/04/23 14:21:27.6    -161   -355    170    390    425 204.4  25.1  34238  290.89 0854.39
2009/04/23 14:21:27.7    -267   -347    -80    439    447 217.6 -10.4  34250  291.09 0854.39
2009/04/23 14:21:27.8     -90   -386     46    397    400 193.1   6.7  34234  290.84 0854.39
2009/04/23 14:21:27.9    -243   -408   -169    475    505 210.8 -19.6  34232  290.79 0854.39
2009/04/23 14:21:28.0    -317     24     71    318    326 274.4  12.6  34242  290.95 0854.39
2009/04/23 14:21:28.1    -205   -133     44    245    250 236.9  10.3  34238  290.90 0854.39
2009/04/23 14:21:28.2      11   -250     72    251    262 177.4  16.0  34244  291.00 0854.39
2009/04/23 14:21:28.3     -48   -261    110    266    287 190.6  23.8  34242  290.97 0854.39
2009/04/23 14:21:28.4     -27   -296     96    298    314 185.4  17.9  34250  291.10 0854.31
2009/04/23 14:21:28.5      61   -317   -111    323    342 169.1 -19.1  34244  291.01 0854.31
2009/04/23 14:21:28.6     101   -369    -93    383    395 164.7 -13.7  34248  291.06 0854.31
2009/04/23 14:21:28.7    -183   -282   -115    337    356 213.0 -23.9  34246  291.03 0854.31
2009/04/23 14:21:28.8    -209   -307    -73    372    380 214.3 -11.1  34240  290.93 0854.31
2009/04/23 14:21:28.9    -152   -173      3    231    232 221.2   0.8  34248  291.08 0854.31
2009/04/23 14:21:29.0    -102   -137     44    172    178 216.7  14.5  34254  291.16 0854.31
2009/04/23 14:21:29.1     -88   -161     71    184    197 208.9  22.3  34258  291.25 0854.31
2009/04/23 14:21:29.2     -32   -229     63    232    241 188.1  15.2  34264  291.34 0854.31
2009/04/23 14:21:29.3     -48   -341     53    345    350 188.0   8.8  34254  291.17 0854.31
2009/04/23 14:21:29.4      -7   -473     12    474    475 180.9   1.5  34244  291.00 0854.31
2009/04/23 14:21:29.5      56   -409    -22    413    414 172.2  -3.1  34244  290.99 0854.31
2009/04/23 14:21:29.6    -192   -430     27    471    472 204.1   3.3  34252  291.12 0854.31
2009/04/23 14:21:29.7    -165   -333     46    372    375 206.4   7.1  34248  291.08 0854.31
2009/04/23 14:21:29.8    -105   -324     79    341    351 198.0  13.1  34238  290.88 0854.31
2009/04/23 14:21:29.9     -98   -217     83    239    254 204.3  19.2  34242  290.97 0854.31
2009/04/23 14:21:30.0     -23   -309    127    310    335 184.4  23.5  34248  291.07 0854.31
2009/04/23 14:21:30.1    -125   -140     66    188    200 221.7  19.4  34242  290.98 0854.31
2009/04/23 14:21:30.2     -61   -227    -78    236    249 195.1 -18.3  34244  290.99 0854.31
2009/04/23 14:21:30.3      24   -210     -8    212    213 173.3  -2.2  34248  291.08 0854.31
2009/04/23 14:21:30.4     -30   -147    -62    151    163 191.6 -27.8  34248  291.08 0854.29
2009/04/23 14:21:30.5      26   -242    -70    244    253 173.8 -20.8  34244  291.00 0854.29
2009/04/23 14:21:30.6      79   -293   -100    304    321 164.8 -18.3  34242  290.97 0854.29
2009/04/23 14:21:30.7      56   -412    -29    416    418 172.2  -4.0  34238  290.90 0854.29
2009/04/23 14:21:30.8     145   -419    -90    444    453 160.8 -11.5  34238  290.89 0854.29
2009/04/23 14:21:30.9     252   -279    -32    376    378 137.9  -4.9  34224  290.66 0854.29
2009/04/23 14:21:31.0     167   -186     26    250    252 138.1   6.1  34228  290.71 0854.29
2009/04/23 14:21:31.1     183   -151     34    238    241 129.6   8.2  34234  290.82 0854.29
2009/04/23 14:21:31.2      12   -109    102    110    150 173.3  47.9  34236  290.87 0854.29
2009/04/23 14:21:31.3     -80   -135     79    158    176 210.7  28.2  34238  290.91 0854.29
2009/04/23 14:21:31.4     -68   -174    143    187    235 201.4  41.4  34234  290.84 0854.29
2009/04/23 14:21:31.5     169   -231    203    287    351 143.9  38.7  34228  290.74 0854.29
2009/04/23 14:21:31.7     128   -327    221    352    415 158.6  35.2  34224  290.67 0854.29
2009/04/23 14:21:31.8     125   -425    335    443    555 163.6  40.8  34216  290.52 0854.29
2009/04/23 14:21:31.9      46   -354    242    357    431 172.6  37.4  34220  290.60 0854.29
2009/04/23 14:21:32.0      53   -281    196    287    347 169.3  37.6  34228  290.71 0854.29
2009/04/23 14:21:32.1     140   -367    277    393    480 159.1  38.6  34234  290.84 0854.29
2009/04/23 14:21:32.2     164   -375    271    410    491 156.3  36.5  34228  290.74 0854.29
2009/04/23 14:21:32.3     173   -502    249    532    587 160.9  27.0  34210  290.41 0854.29
2009/04/23 14:21:32.4     330   -445     73    555    560 143.5   7.6  34222  290.63 0854.29
2009/04/23 14:21:32.5      68   -505    243    510    564 172.3  27.3  34210  290.41 0854.32
2009/04/23 14:21:32.6       0   -435    152    436    461 180.1  20.0  34210  290.43 0854.32
2009/04/23 14:21:32.7     137   -397     59    421    426 161.0   8.0  34216  290.51 0854.32
2009/04/23 14:21:32.8     131   -405     45    426    429 162.1   6.1  34212  290.44 0854.32
2009/04/23 14:21:32.9     179   -474      7    507    508 159.3   0.8  34218  290.57 0854.32
2009/04/23 14:21:33.0      87   -384     -8    394    395 167.1  -1.3  34218  290.55 0854.32
2009/04/23 14:21:33.1     104   -398     27    412    413 165.3   3.8  34224  290.65 0854.32
2009/04/23 14:21:33.2      32   -395    -89    397    407 175.3 -12.7  34234  290.82 0854.32
2009/04/23 14:21:33.3      94   -320   -128    334    357 163.5 -26.4  34214  290.50 0854.32
2009/04/23 14:21:33.4      -3   -284    -21    285    286 180.7  -4.4  34214  290.49 0854.32
2009/04/23 14:21:33.5      15   -487    176    488    518 178.2  20.8  34218  290.54 0854.32
2009/04/23 14:21:33.6      77   -407    246    415    482 169.2  33.5  34230  290.75 0854.32
2009/04/23 14:21:33.7     121   -400    236    419    480 163.1  31.9  34228  290.73 0854.32
2009/04/23 14:21:33.8     113   -670     50    680    682 170.4   4.2  34236  290.87 0854.32
2009/04/23 14:21:33.9     264   -651    -97    703    710 157.9  -7.9  34230  290.76 0854.32
2009/04/23 14:21:34.0     169   -674   -130    695    707 165.9 -10.6  34226  290.69 0854.32
2009/04/23 14:21:34.1     168   -566   -112    591    602 163.5 -10.8  34222  290.64 0854.32
2009/04/23 14:21:34.2     183   -701    -50    725    727 165.3  -4.0  34210  290.42 0854.32
2009/04/23 14:21:34.3     117   -722    -49    732    734 170.8  -3.9  34208  290.40 0854.32
2009/04/23 14:21:34.4     127   -598   -126    612    626 168.0 -11.7  34204  290.32 0854.32
2009/04/23 14:21:34.5     219   -577    -79    618    624 159.2  -7.3  34200  290.26 0854.37
2009/04/23 14:21:34.6      64   -677   -112    681    691 174.6  -9.4  34222  290.63 0854.37
2009/04/23 14:21:34.7     130   -499   -123    516    531 165.4 -13.4  34216  290.52 0854.37
2009/04/23 14:21:34.8      93   -451   -137    461    480 168.3 -21.5  34226  290.68 0854.37
2009/04/23 14:21:34.9     173   -487   -176    517    546 160.4 -23.9  34228  290.74 0854.37
2009/04/23 14:21:35.0    -120   -410   -136    428    450 196.4 -17.7  34250  291.11 0854.37
2009/04/23 14:21:35.1    -172   -582   -167    608    631 196.5 -15.4  34234  290.82 0854.37
2009/04/23 14:21:35.2    -208   -437    -87    485    493 205.5 -10.2  34246  291.02 0854.37
2009/04/23 14:21:35.3     -32   -432   -111    434    449 184.2 -14.4  34250  291.09 0854.37
2009/04/23 14:21:35.4     110   -496   -111    509    522 167.5 -12.4  34246  291.02 0854.37
2009/04/23 14:21:35.5      15   -485   -155    486    511 178.2 -17.7  34246  291.02 0854.37
2009/04/23 14:21:35.6      34   -492   -175    494    525 176.0 -19.6  34246  291.02 0854.37
2009/04/23 14:21:35.7     -57   -458   -147    462    485 187.1 -17.7  34240  290.93 0854.37
2009/04/23 14:21:35.8     -37   -527    -95    529    538 184.0 -10.3  34244  290.99 0854.37
2009/04/23 14:21:35.9     -33   -660    -61    661    665 182.9  -5.3  34242  290.97 0854.37
2009/04/23 14:21:36.0      -7   -495    -84    496    504 180.9  -9.7  34236  290.86 0854.37
2009/04/23 14:21:36.1      36   -517    -88    519    527 176.0  -9.7  34236  290.87 0854.37
2009/04/23 14:21:36.2      36   -472    -20    474    475 175.5  -2.5  34228  290.71 0854.37
2009/04/23 14:21:36.3    -129   -449    -56    468    472 196.1  -6.9  34236  290.85 0854.37
2009/04/23 14:21:36.4    -154   -458    -52    484    487 198.6  -6.2  34246  291.02 0854.37
2009/04/23 14:21:36.5    -244   -460   -104    521    532 208.0 -11.3  34260  291.26 0854.36
2009/04/23 14:21:36.6     -28   -378   -135    379    403 184.3 -19.7  34242  290.98 0854.36
2009/04/23 14:21:36.7     -92   -381   -117    392    410 193.6 -16.7  34232  290.78 0854.36
2009/04/23 14:21:36.8     -51   -363   -117    367    385 188.0 -22.9  34232  290.81 0854.36
2009/04/23 14:21:36.9      93   -385   -146    397    422 166.3 -25.4  34230  290.77 0854.36
2009/04/23 14:21:37.0       7   -410    -71    411    418 178.9  -9.8  34236  290.85 0854.36
2009/04/23 14:21:37.1       8   -523    -54    524    527 179.1  -5.9  34236  290.87 0854.36
2009/04/23 14:21:37.2     -11   -652    -28    653    654 181.0  -2.5  34238  290.88 0854.36
2009/04/23 14:21:37.3      81   -604    -20    610    611 172.3  -1.9  34226  290.70 0854.36
2009/04/23 14:21:37.4     169   -649    -39    671    673 165.4  -3.4  34224  290.66 0854.36
2009/04/23 14:21:37.5      95   -492    -30    502    503 169.0  -3.5  34234  290.83 0854.36
2009/04/23 14:21:37.6     146   -435    -46    460    463 161.4  -5.8  34230  290.75 0854.36
2009/04/23 14:21:37.7      -8   -569    -22    570    571 180.9  -2.2  34230  290.75 0854.36
2009/04/23 14:21:37.8      65   -602    103    606    615 173.8   9.7  34226  290.70 0854.36
2009/04/23 14:21:37.9      22   -541    139    542    560 177.7  14.4  34224  290.67 0854.36
2009/04/23 14:21:38.0      62   -494     78    498    505 172.8   9.0  34236  290.85 0854.36
2009/04/23 14:21:38.1      -3   -460      0    461    462 180.5   0.0  34218  290.55 0854.36
2009/04/23 14:21:38.2    -180   -511    -48    542    545 199.4  -5.1  34224  290.67 0854.36
2009/04/23 14:21:38.3    -196   -370    -77    419    427 208.0 -10.5  34230  290.75 0854.36
2009/04/23 14:21:38.4    -288   -348    -78    452    459 219.6  -9.9  34220  290.60 0854.36
2009/04/23 14:21:38.5    -249   -331   -120    415    433 217.0 -16.2  34222  290.63 0854.37
2009/04/23 14:21:38.6    -179   -361    -61    404    409 206.4  -8.6  34220  290.60 0854.37
2009/04/23 14:21:38.7     -74   -334   -101    343    358 192.6 -16.5  34218  290.54 0854.37
2009/04/23 14:21:38.8     -15   -390   -115    391    408 182.3 -16.4  34234  290.83 0854.37
2009/04/23 14:21:38.9       8   -332    -34    333    335 178.6  -6.0  34228  290.74 0854.37
2009/04/23 14:21:39.0     -37   -332    -39    335    338 186.5  -6.7  34234  290.83 0854.37
2009/04/23 14:21:39.1     -40   -348    -56    351    356 186.7  -9.1  34246  291.03 0854.37
2009/04/23 14:21:39.2     -39   -277    -88    280    294 188.1 -17.5  34248  291.05 0854.37
2009/04/23 14:21:39.3     -74   -303    -52    312    317 193.8  -9.5  34258  291.22 0854.37
2009/04/23 14:21:39.4     -98   -102    -82    142    163 223.7 -37.3  34260  291.26 0854.37
2009/04/23 14:21:39.5    -160      1   -117    161    199 270.4 -44.1  34256  291.20 0854.37
2009/04/23 14:21:39.6    -111     29   -133    115    175 284.6 -59.2  34252  291.13 0854.37
2009/04/23 14:21:39.7     -18    -49   -125     53    135 200.0 -79.9  34238  290.89 0854.37
2009/04/23 14:21:39.8      58    -72    -74     93    118 141.3 -46.6  34232  290.79 0854.37
2009/04/23 14:21:39.9     206   -154     65    258    267 126.8  14.3  34242  290.95 0854.37
2009/04/23 14:21:40.0     150   -168    -17    226    227 138.3  -4.4  34230  290.77 0854.37
2009/04/23 14:21:40.1     128   -151    115    198    228 139.7  32.9  34238  290.89 0854.37
2009/04/23 14:21:40.2      69    -71     92    100    135 135.9  47.9  34240  290.94 0854.37
2009/04/23 14:21:40.3      27    -64     47     70     84 157.3  36.5  34248  291.06 0854.37
2009/04/23 14:21:40.4     -60   -267   -113    274    296 192.7 -28.0  34236  290.87 0854.37
2009/04/23 14:21:40.5     131   -168    -38    214    218 142.2 -10.1  34234  290.82 0854.38
2009/04/23 14:21:40.6     131   -230      8    265    266 150.4   1.8  34226  290.70 0854.38
2009/04/23 14:21:40.7     132    -14    149    133    199  96.1  53.7  34228  290.72 0854.38
2009/04/23 14:21:40.8      18   -100    148    102    179 169.3  62.1  34236  290.86 0854.38
2009/04/23 14:21:40.9      85   -110    136    140    195 142.2  49.8  34240  290.92 0854.38
2009/04/23 14:21:41.0     177   -277    179    330    375 147.4  30.9  34218  290.55 0854.38
2009/04/23 14:21:41.1     193   -325    173    379    416 149.3  26.3  34222  290.61 0854.38
2009/04/23 14:21:41.2     145   -306    248    339    420 154.6  39.7  34230  290.77 0854.38
2009/04/23 14:21:41.3      34   -277    246    280    372 172.9  45.8  34230  290.77 0854.38
2009/04/23 14:21:41.4     109   -207    224    235    324 152.1  48.6  34228  290.71 0854.38
2009/04/23 14:21:41.5      46   -312    250    316    402 171.5  42.6  34232  290.81 0854.38
2009/04/23 14:21:41.6      44   -215    214    220    306 168.4  49.2  34240  290.92 0854.38
2009/04/23 14:21:41.7      41    -41    175     59    184 135.0  81.2  34254  291.16 0854.38
2009/04/23 14:21:41.8      -2     38    189     39    192 355.6  89.0  34266  291.37 0854.38
2009/04/23 14:21:41.9     -27    -83    232     88    248 198.5  78.4  34250  291.11 0854.38
2009/04/23 14:21:42.0     -12     59    203     61    211 348.5  82.8  34260  291.28 0854.38
2009/04/23 14:21:42.1      31     18    197     37    200  59.3  90.0  34262  291.32 0854.38
2009/04/23 14:21:42.2      40     40    147     57    157  45.0  77.8  34254  291.16 0854.38
2009/04/23 14:21:42.3     -11   -150    177    151    232 184.4  55.4  34256  291.20 0854.38
2009/04/23 14:21:42.4     -57    -86    117    104    156 213.8  53.7  34258  291.25 0854.38
2009/04/23 14:21:42.5      73     14     51     75     90  78.5  37.6  34260  291.28 0854.40
2009/04/23 14:21:42.6     -36     15     32     40     51 292.6  43.7  34270  291.45 0854.40
2009/04/23 14:21:42.7     -78     23     65     82    104 286.4  42.7  34266  291.37 0854.40
2009/04/23 14:21:42.8     -72     72     88    102    134 315.0  45.4  34268  291.42 0854.40
2009/04/23 14:21:42.9     -59    124    102    138    171 334.7  40.4  34264  291.33 0854.40
2009/04/23 14:21:43.0     -62    163    105    175    204 339.1  34.0  34268  291.40 0854.40
2009/04/23 14:21:43.1    -120    153    -32    195    198 321.7  -9.4  34268  291.42 0854.40
2009/04/23 14:21:43.2      26    200     10    202    203   7.6   2.9  34232  290.81 0854.40
2009/04/23 14:21:43.3     -75    147     51    166    174 332.8  17.1  34246  291.03 0854.40
2009/04/23 14:21:43.4    -165    -54      7    174    175 251.6   2.5  34238  290.91 0854.40
2009/04/23 14:21:43.5    -279     76    127    290    316 285.3  25.1  34256  291.19 0854.40
2009/04/23 14:21:43.6    -283     99     97    300    316 289.3  17.9  34256  291.21 0854.40
2009/04/23 14:21:43.7    -146   -219    118    264    289 213.8  25.9  34266  291.38 0854.40
2009/04/23 14:21:43.8     -22   -207    174    209    271 186.2  43.8  34252  291.14 0854.40
2009/04/23 14:21:43.9     -25   -204    271    206    340 187.1  59.2  34256  291.19 0854.40
2009/04/23 14:21:44.0    -150   -250    214    292    362 211.0  39.9  34266  291.37 0854.40
2009/04/23 14:21:44.1    -169   -168    139    239    276 225.3  32.9  34256  291.19 0854.40
2009/04/23 14:21:44.2    -186   -225    204    293    357 219.6  38.3  34246  291.03 0854.40
2009/04/23 14:21:44.3    -267    -11    145    268    304 267.6  30.8  34284  291.67 0854.40
2009/04/23 14:21:44.4    -121    162     55    203    211 323.3  15.2  34276  291.54 0854.40
2009/04/23 14:21:44.5    -123     91    195    154    248 306.4  57.7  34272  291.47 0854.43
2009/04/23 14:21:44.6    -148    353    163    383    416 337.2  24.3  34270  291.43 0854.43
2009/04/23 14:21:44.7    -182    257     77    316    326 324.6  13.8  34266  291.38 0854.43
2009/04/23 14:21:44.8     -96    179    115    204    234 331.9  31.9  34270  291.43 0854.43
2009/04/23 14:21:44.9      27    119     -4    123    124  12.9  -2.2  34270  291.45 0854.43
2009/04/23 14:21:45.0    -103    174     65    203    214 329.3  17.7  34270  291.45 0854.43
2009/04/23 14:21:45.1     -33    161    -10    165    166 348.2  -3.7  34280  291.62 0854.43
2009/04/23 14:21:45.2      38    113     49    120    129  18.7  23.0  34276  291.54 0854.43
2009/04/23 14:21:45.3      64    134     29    149    152  25.5  11.1  34280  291.60 0854.43
2009/04/23 14:21:45.4      44    128     65    136    150  19.2  27.2  34288  291.74 0854.43
2009/04/23 14:21:45.5      27    135     48    138    147  11.5  19.2  34308  292.08 0854.42
2009/04/23 14:21:45.6     -66     67     14     95     97 315.3   8.5  34310  292.13 0854.42
2009/04/23 14:21:45.7    -162     75     21    179    181 295.1   6.9  34292  291.83 0854.42
2009/04/23 14:21:45.8    -268    132     25    299    301 296.2   4.9  34298  291.92 0854.42
2009/04/23 14:21:45.9    -157    236     61    284    291 326.4  12.2  34290  291.77 0854.42
2009/04/23 14:21:46.0    -216    209    150    301    336 314.0  28.5  34284  291.68 0854.42
2009/04/23 14:21:46.1    -311     39    169    314    356 277.2  30.7  34264  291.35 0854.42
2009/04/23 14:21:46.2    -361      7     72    362    370 271.2  11.3  34268  291.39 0854.42
2009/04/23 14:21:46.3     -60   -239    324    247    407 194.3  59.0  34258  291.25 0854.42
2009/04/23 14:21:46.4    -151   -285    278    323    426 207.9  45.1  34234  290.83 0854.42
2009/04/23 14:21:46.5     -23   -198    191    200    276 186.7  48.7  34238  290.90 0854.42
2009/04/23 14:21:46.6    -139   -368    132    394    416 200.8  18.6  34226  290.70 0854.42
2009/04/23 14:21:46.7     -93   -274    103    290    307 198.9  20.2  34226  290.70 0854.42
2009/04/23 14:21:46.8    -160   -181     18    242    243 221.5   4.4  34232  290.80 0854.42
2009/04/23 14:21:46.9     111   -125    239    168    292 138.6  61.7  34236  290.85 0854.42
2009/04/23 14:21:47.0     119   -154    223    195    296 142.4  54.3  34244  291.00 0854.42
2009/04/23 14:21:47.1     123   -167    118    208    239 143.5  32.3  34252  291.15 0854.42
2009/04/23 14:21:47.2      32   -137     51    141    149 166.6  20.4  34250  291.11 0854.42
2009/04/23 14:21:47.3     -22   -186     -7    188    189 186.9  -2.2  34238  290.89 0854.42
2009/04/23 14:21:47.4     -49   -259    -43    264    268 190.9  -9.4  34230  290.76 0854.42
2009/04/23 14:21:47.5      26   -257    -81    259    271 174.2 -22.8  34228  290.71 0854.42
2009/04/23 14:21:47.6     -79   -171   -123    189    225 204.9 -40.1  34234  290.82 0854.42
2009/04/23 14:21:47.7    -135   -199   -113    241    266 214.1 -31.5  34236  290.87 0854.42
2009/04/23 14:21:47.8     -85    -43   -102     96    140 242.9 -56.5  34240  290.94 0854.42
2009/04/23 14:21:47.9     -65     51    -45     83     94 308.2 -35.8  34238  290.91 0854.42
2009/04/23 14:21:48.0      71     62     54     95    109  49.1  31.9  34246  291.03 0854.42
2009/04/23 14:21:48.1     162    -29    139    165    215 100.4  44.3  34244  291.01 0854.42
2009/04/23 14:21:48.2      31   -156    107    160    192 168.5  36.5  34246  291.03 0854.42
2009/04/23 14:21:48.3     -62   -131    -10    146    147 205.5  -4.1  34248  291.08 0854.42
2009/04/23 14:21:48.4     111     26    -42    115    122  76.7 -25.3  34246  291.03 0854.42
2009/04/23 14:21:48.5     242     70     86    252    267  73.8  18.9  34242  290.97 0854.42
2009/04/23 14:21:48.6     146     53    181    156    238  70.0  55.0  34250  291.11 0854.42
2009/04/23 14:21:48.7       8    -36    128     38    133 166.6  82.8  34266  291.38 0854.42
2009/04/23 14:21:48.8     -34    -80    155     88    178 203.2  68.3  34260  291.26 0854.42
2009/04/23 14:21:48.9      48     -6    191     49    197  97.9  85.6  34256  291.20 0854.42
2009/04/23 14:21:49.0      29   -301    241    303    387 174.4  42.7  34230  290.76 0854.42
2009/04/23 14:21:49.1     160   -225    174    277    327 144.6  35.2  34230  290.75 0854.42
2009/04/23 14:21:49.2     296   -111    209    317    379 110.6  36.4  34228  290.74 0854.42
2009/04/23 14:21:49.3     191   -373    329    420    533 152.8  42.0  34230  290.76 0854.42
2009/04/23 14:21:49.4      24   -312    164    314    354 175.5  29.6  34224  290.66 0854.42
2009/04/23 14:21:49.5     -96   -314     75    329    338 197.0  12.9  34232  290.79 0854.43
2009/04/23 14:21:49.6     -37   -221    -90    225    242 189.6 -27.4  34228  290.73 0854.43
2009/04/23 14:21:49.7      34   -278   -164    281    325 172.9 -37.4  34238  290.90 0854.43
2009/04/23 14:21:49.8     170   -219    -81    278    289 142.1 -21.2  34234  290.82 0854.43
2009/04/23 14:21:49.9     273   -213     -2    347    348 128.0  -0.5  34228  290.74 0854.43
2009/04/23 14:21:50.0     228   -126     57    261    268 118.9  12.4  34228  290.73 0854.43
2009/04/23 14:21:50.1     215   -136    149    255    295 122.4  33.1  34230  290.76 0854.43
2009/04/23 14:21:50.2     126    -97    116    160    197 127.7  39.7  34234  290.82 0854.43
2009/04/23 14:21:50.3     135   -104    165    171    237 127.5  49.0  34230  290.77 0854.43
2009/04/23 14:21:50.4      43   -162    133    168    214 165.1  42.4  34230  290.75 0854.43
2009/04/23 14:21:50.6      46   -271     96    276    293 170.2  19.2  34228  290.73 0854.43
2009/04/23 14:21:50.7      52   -239    153    245    288 167.6  35.2  34228  290.71 0854.43
2009/04/23 14:21:50.7     -37   -266    152    269    308 188.1  31.9  34222  290.63 0854.43
2009/04/23 14:21:50.8     101   -314    174    331    373 162.1  30.0  34222  290.64 0854.43
2009/04/23 14:21:50.9     112   -190    135    221    258 149.5  34.4  34220  290.58 0854.43
2009/04/23 14:21:51.0     207   -202     86    290    303 134.2  16.6  34212  290.46 0854.43
2009/04/23 14:21:51.1     276    -90     65    291    299 108.2  12.6  34226  290.68 0854.43
2009/04/23 14:21:51.2     133   -261    192    294    351 152.9  36.3  34220  290.59 0854.43
2009/04/23 14:21:51.3     101   -401    205    414    461 165.8  28.2  34222  290.63 0854.43
2009/04/23 14:21:51.4     115   -388    203    405    453 163.5  28.6  34224  290.65 0854.43
2009/04/23 14:21:51.5     182   -436     93    473    483 157.3  11.1  34226  290.69 0854.44
2009/04/23 14:21:51.6     145   -353     32    382    384 157.7   4.9  34228  290.72 0854.44
2009/04/23 14:21:51.7      76   -369     38    377    379 168.3   5.8  34224  290.67 0854.44
2009/04/23 14:21:51.8     -11   -255     60    256    263 182.5  13.2  34228  290.71 0854.44
2009/04/23 14:21:52.0     115   -251    -79    277    289 155.3 -16.0  34226  290.70 0854.44
2009/04/23 14:21:52.0     -78   -244    110    257    279 197.8  24.6  34230  290.75 0854.44
2009/04/23 14:21:52.1    -102   -225    164    248    297 204.5  36.5  34234  290.83 0854.44
2009/04/23 14:21:52.2      22   -259    182    261    318 175.1  38.4  34226  290.68 0854.44
2009/04/23 14:21:52.3     -14   -333    179    334    378 182.5  30.6  34222  290.62 0854.44
2009/04/23 14:21:52.4    -162   -534     59    559    563 196.9   6.1  34230  290.77 0854.44
2009/04/23 14:21:52.5     -10   -579    -22    580    581 181.0  -2.2  34232  290.81 0854.44
2009/04/23 14:21:52.6     -25   -412    100    413    426 183.5  13.7  34234  290.84 0854.44
2009/04/23 14:21:52.7       5   -378     66    379    385 179.1   9.9  34238  290.89 0854.44
2009/04/23 14:21:52.8      32   -406     49    408    411 175.4   6.9  34236  290.87 0854.44
2009/04/23 14:21:52.9     -75   -443     63    450    455 189.6   8.0  34222  290.63 0854.44
2009/04/23 14:21:53.0      22   -442     78    443    450 177.1  10.0  34220  290.60 0854.44
2009/04/23 14:21:53.1     -76   -521     23    527    528 188.4   2.5  34228  290.72 0854.44
2009/04/23 14:21:53.2      50   -401     -3    405    406 172.8  -0.5  34230  290.77 0854.44
2009/04/23 14:21:53.3      88   -359    -29    370    372 166.1  -4.6  34230  290.77 0854.44
2009/04/23 14:21:53.4     140   -292    -22    324    325 154.4  -4.0  34224  290.66 0854.44
2009/04/23 14:21:53.5     181   -309      3    359    360 149.7   0.5  34226  290.69 0854.45
2009/04/23 14:21:53.6     -22   -361     -4    362    363 183.5  -0.7  34228  290.74 0854.45
2009/04/23 14:21:53.7    -216   -440     -9    491    492 206.2  -1.2  34232  290.79 0854.45
2009/04/23 14:21:53.8    -180   -530    -21    561    562 198.8  -2.2  34222  290.63 0854.45
2009/04/23 14:21:53.9    -218   -457    -97    507    517 205.5 -10.9  34238  290.88 0854.45
2009/04/23 14:21:54.0    -438   -361   -163    568    592 230.5 -16.0  34246  291.04 0854.45
2009/04/23 14:21:54.1    -361   -246   -142    437    460 235.7 -18.1  34242  290.95 0854.45
2009/04/23 14:21:54.2    -294   -138   -138    325    353 244.8 -28.7  34232  290.81 0854.45
2009/04/23 14:21:54.3     -10   -341    -67    342    349 181.8 -11.1  34232  290.79 0854.45
2009/04/23 14:21:54.4    -139    -50      7    148    149 250.1   2.9  34242  290.96 0854.45
2009/04/23 14:21:54.5    -166    -89     20    189    191 241.6   6.1  34240  290.94 0854.45
2009/04/23 14:21:54.6    -224   -363   -124    427    445 211.6 -16.2  34244  290.99 0854.45
2009/04/23 14:21:54.7    -264   -304   -171    403    437 221.0 -28.7  34256  291.19 0854.45
2009/04/23 14:21:54.8    -595   -363      6    698    699 238.6   0.5  34234  290.83 0854.45
2009/04/23 14:21:54.9    -324   -193     -3    378    379 239.3  -0.6  34240  290.93 0854.45
2009/04/23 14:21:55.0    -189   -120    109    225    250 237.5  27.4  34246  291.02 0854.45
2009/04/23 14:21:55.1     -58   -161    157    172    232 200.0  47.5  34238  290.91 0854.45
2009/04/23 14:21:55.2     -24   -263     42    265    269 185.3   9.0  34232  290.80 0854.45
2009/04/23 14:21:55.3    -149   -363     11    393    394 202.4   1.7  34240  290.94 0854.45
2009/04/23 14:21:55.4     -15   -349     74    350    358 182.6  12.0  34238  290.88 0854.45
2009/04/23 14:21:55.5      26   -413   -108    414    428 176.4 -14.7  34226  290.70 0854.45
2009/04/23 14:21:55.6     125   -437   -105    455    467 164.0 -13.0  34228  290.72 0854.45
2009/04/23 14:21:55.7     149   -404    -29    431    432 159.7  -3.9  34230  290.77 0854.45
2009/04/23 14:21:55.8     119   -296    -12    320    321 158.1  -2.2  34218  290.54 0854.45
2009/04/23 14:21:55.9      74   -244    102    256    275 163.1  23.0  34234  290.82 0854.45
2009/04/23 14:21:56.0      91   -302    -93    316    330 163.1 -16.4  34232  290.80 0854.45
2009/04/23 14:21:56.1      20   -320   -105    321    338 176.3 -18.2  34228  290.71 0854.45
2009/04/23 14:21:56.2      79   -357    151    366    395 167.5  23.7  34224  290.67 0854.45
2009/04/23 14:21:56.3     242   -429     32    493    495 150.5   3.8  34232  290.78 0854.45
2009/04/23 14:21:56.4     233   -365     43    434    437 147.5   5.7  34224  290.67 0854.45
2009/04/23 14:21:56.5     226   -326    168    397    431 145.3  24.3  34222  290.63 0854.45
2009/04/23 14:21:56.6     296   -376     98    479    490 141.8  11.6  34224  290.66 0854.45
2009/04/23 14:21:56.7     240   -246    132    344    368 135.7  22.0  34220  290.59 0854.45
2009/04/23 14:21:56.8     366   -252    170    445    476 124.5  22.0  34230  290.76 0854.45
2009/04/23 14:21:56.9     375   -240    195    446    486 122.6  25.1  34232  290.79 0854.45
2009/04/23 14:21:57.0     318   -172    221    362    424 118.4  34.4  34246  291.04 0854.45
2009/04/23 14:21:57.1     360   -134    181    385    425 110.5  27.1  34238  290.90 0854.45
2009/04/23 14:21:57.2     341    -53     94    346    359  98.8  15.2  34228  290.72 0854.45
2009/04/23 14:21:57.3     414   -163    162    446    474 111.5  20.9  34230  290.76 0854.45
2009/04/23 14:21:57.4     331   -103    -13    347    348 107.3  -2.2  34230  290.76 0854.45
2009/04/23 14:21:57.5     171   -108    127    203    239 122.2  35.0  34228  290.72 0854.47
2009/04/23 14:21:57.6     351   -220    130    415    435 122.1  17.4  34232  290.78 0854.47
2009/04/23 14:21:57.7     324    -61    214    330    393 100.8  36.2  34242  290.98 0854.47
2009/04/23 14:21:57.8     289   -111    148    310    343 111.1  27.3  34236  290.86 0854.47
2009/04/23 14:21:57.9     132   -123     92    181    203 133.1  29.2  34228  290.74 0854.47
2009/04/23 14:21:58.0      42    -64     78     77    109 146.6  49.7  34236  290.87 0854.47
2009/04/23 14:21:58.1      80     -9     82     81    115  97.0  49.1  34242  290.98 0854.47
2009/04/23 14:21:58.2      75    -16     80     77    111 102.4  51.2  34244  290.99 0854.47
2009/04/23 14:21:58.3      20     -2    100     21    102  97.9  89.0  34252  291.15 0854.47
2009/04/23 14:21:58.4      72      0     97     73    121  90.0  59.0  34248  291.06 0854.47
2009/04/23 14:21:58.5      42     11     76     44     87  74.9  67.2  34262  291.30 0854.47
2009/04/23 14:21:58.6     121    -32    130    126    181 105.0  50.9  34264  291.35 0854.47
2009/04/23 14:21:58.7     -10     37    100     39    107 344.9  78.2  34278  291.59 0854.47
2009/04/23 14:21:58.8       0     54    112     55    124 359.1  71.9  34268  291.42 0854.47
2009/04/23 14:21:58.9      13      5    123     15    123  68.3  90.0  34262  291.32 0854.47
2009/04/23 14:21:59.0      23    -38     97     45    106 149.3  73.5  34248  291.06 0854.47
2009/04/23 14:21:59.1     -93   -159    150    185    238 210.3  43.0  34228  290.72 0854.47
2009/04/23 14:21:59.2     -11    -58    138     60    150 191.5  75.0  34234  290.82 0854.47
2009/04/23 14:21:59.3     115    255    179    280    332  24.3  35.6  34232  290.80 0854.47
2009/04/23 14:21:59.4     -50     13     97     52    110 285.1  69.3  34250  291.11 0854.47
2009/04/23 14:21:59.6     -18   -132    233    134    268 188.1  67.7  34252  291.14 0854.46
2009/04/23 14:21:59.7     -20   -130    273    132    303 188.9  72.8  34254  291.17 0854.46
2009/04/23 14:21:59.8    -173   -256     74    310    319 214.1  13.5  34234  290.82 0854.46
2009/04/23 14:21:59.9     -81   -264     15    277    278 197.2   3.3  34232  290.78 0854.46
2009/04/23 14:22:00.0     -36   -319    113    322    342 186.6  19.4  34234  290.83 0854.46
2009/04/23 14:22:00.1       4   -309    198    310    367 179.1  35.6  34238  290.89 0854.46
2009/04/23 14:22:00.2     -41   -355    124    358    380 186.6  19.2  34230  290.76 0854.46
2009/04/23 14:22:00.3      -7   -456    144    457    480 180.9  17.5  34232  290.78 0854.46
2009/04/23 14:22:00.4      31   -411    111    413    428 175.6  15.1  34228  290.72 0854.46
2009/04/23 14:22:00.5      60   -454    110    458    472 172.4  13.6  34232  290.78 0854.46
2009/04/23 14:22:00.6       6   -483     30    484    485 179.2   3.6  34232  290.79 0854.46
2009/04/23 14:22:00.7      57   -456      6    460    461 172.8   0.8  34230  290.75 0854.46
2009/04/23 14:22:00.8      16   -433     72    434    440 177.8   9.4  34234  290.82 0854.46
2009/04/23 14:22:00.9      15   -430     93    431    442 178.0  12.3  34240  290.92 0854.46
2009/04/23 14:22:01.0     -45   -417     17    420    421 186.3   2.4  34242  290.97 0854.46
2009/04/23 14:22:01.1     -74   -390      4    398    399 190.8   0.7  34248  291.06 0854.46
2009/04/23 14:22:01.2    -115   -376    -17    394    395 197.0  -2.6  34254  291.18 0854.46
2009/04/23 14:22:01.3     -98   -413     53    425    429 193.4   7.1  34260  291.28 0854.46
2009/04/23 14:22:01.4    -127   -358     42    381    384 199.6   6.4  34264  291.34 0854.46
2009/04/23 14:22:01.5    -152   -310     15    346    347 206.1   2.5  34248  291.06 0854.46
2009/04/23 14:22:01.6    -128   -437    -19    456    457 196.4  -2.5  34258  291.23 0854.47
2009/04/23 14:22:01.7    -104   -333    -86    350    361 197.4 -13.9  34258  291.23 0854.47
2009/04/23 14:22:01.8     -57   -458     77    462    469 187.2   9.5  34274  291.51 0854.47
2009/04/23 14:22:01.9     -66   -466     65    471    476 188.1   7.9  34268  291.42 0854.47
2009/04/23 14:22:02.0    -295   -289   -166    414    446 225.6 -27.4  34260  291.26 0854.47
2009/04/23 14:22:02.1      -6   -385     95    386    398 180.9  13.9  34264  291.34 0854.47
2009/04/23 14:22:02.2     -92   -351     85    363    373 194.7  13.2  34278  291.57 0854.47
2009/04/23 14:22:02.3    -142   -342    203    371    422 202.6  31.3  34258  291.24 0854.47
2009/04/23 14:22:02.4    -120   -275    169    301    345 203.6  31.7  34262  291.30 0854.47
2009/04/23 14:22:02.5    -176   -274    126    326    349 212.8  22.2  34262  291.32 0854.47
2009/04/23 14:22:02.6    -175   -303    101    351    366 210.0  16.1  34298  291.93 0854.47
2009/04/23 14:22:02.7    -113   -277    109    300    319 202.3  20.7  34264  291.34 0854.47
2009/04/23 14:22:02.8     -84   -211    102    228    249 201.9  25.9  34264  291.34 0854.47
2009/04/23 14:22:02.9    -141   -292     95    325    339 205.9  16.3  34266  291.37 0854.47
2009/04/23 14:22:03.0    -148   -278     57    316    322 208.1  10.4  34272  291.48 0854.47
2009/04/23 14:22:03.1    -140   -242    111    280    301 210.1  23.0  34266  291.38 0854.47
2009/04/23 14:22:03.2    -146   -239     96    281    298 211.4  18.9  34268  291.41 0854.47
2009/04/23 14:22:03.3    -136   -255    131    290    318 208.1  25.9  34280  291.61 0854.47
2009/04/23 14:22:03.4     -97   -250    132    269    299 201.2  28.0  34290  291.78 0854.47
2009/04/23 14:22:03.5     -81   -207     81    223    237 201.6  21.0  34288  291.73 0854.47
2009/04/23 14:22:03.6    -152   -175    210    233    313 221.0  46.8  34316  292.21 0854.47
2009/04/23 14:22:03.7    -218   -131    139    255    290 239.1  31.3  34326  292.38 0854.47
2009/04/23 14:22:03.8    -200   -156     88    254    270 232.0  19.2  34322  292.31 0854.47
2009/04/23 14:22:03.9    -263   -154     55    305    311 239.6  10.3  34322  292.31 0854.47
2009/04/23 14:22:04.0    -225   -199     37    301    304 228.6   7.1  34322  292.33 0854.47
2009/04/23 14:22:04.1    -255   -125    147    285    320 243.8  29.5  34316  292.23 0854.47
2009/04/23 14:22:04.2    -278   -165     78    324    334 239.3  13.7  34298  291.90 0854.47
2009/04/23 14:22:04.3    -194   -173     -7    261    262 228.2  -1.6  34276  291.53 0854.47
2009/04/23 14:22:04.4    -173   -168    -11    242    243 225.8  -2.6  34276  291.55 0854.47
2009/04/23 14:22:04.5    -218   -141    -14    260    261 237.1  -3.3  34292  291.80 0854.47
2009/04/23 14:22:04.6    -227   -120    -10    257    258 242.1  -2.2  34300  291.96 0854.47
2009/04/23 14:22:04.7    -186   -158    144    245    284 229.6  33.4  34300  291.96 0854.47
2009/04/23 14:22:04.8    -245   -104     36    267    270 246.9   7.8  34308  292.07 0854.47
2009/04/23 14:22:04.9    -188    -14     74    189    202 265.7  22.3  34322  292.32 0854.47
2009/04/23 14:22:05.0    -182    -45     32    188    191 256.1   9.9  34316  292.23 0854.47
2009/04/23 14:22:05.1    -204   -125     -5    240    241 238.5  -1.3  34310  292.13 0854.47
2009/04/23 14:22:05.2    -105   -221    -37    245    248 205.5  -8.8  34294  291.85 0854.47
2009/04/23 14:22:05.3     -47   -148    -51    156    165 197.8 -18.1  34278  291.57 0854.47
2009/04/23 14:22:05.4    -105   -306     65    324    331 199.0  11.3  34240  290.94 0854.47
2009/04/23 14:22:05.5    -167   -237    -36    291    294 215.2  -7.2  34254  291.17 0854.47
2009/04/23 14:22:05.6    -150   -190    -57    243    250 218.3 -13.4  34248  291.07 0854.47
2009/04/23 14:22:05.7    -192   -159    -79    250    263 230.4 -17.6  34254  291.16 0854.47
2009/04/23 14:22:05.8    -160   -214    -64    268    276 216.7 -13.4  34258  291.24 0854.47
2009/04/23 14:22:05.9    -137   -233    -91    271    287 210.5 -18.7  34252  291.14 0854.47
2009/04/23 14:22:06.0     -54   -292     -6    297    298 190.5  -1.2  34270  291.43 0854.47
2009/04/23 14:22:06.1     -75   -258    -10    269    270 196.3  -2.2  34266  291.38 0854.47
2009/04/23 14:22:06.2    -108   -142     77    179    194 217.2  24.9  34268  291.42 0854.47
2009/04/23 14:22:06.3    -132   -257    122    289    313 207.2  24.2  34270  291.43 0854.47
2009/04/23 14:22:06.4    -103   -174    134    203    243 210.5  36.5  34268  291.42 0854.47
2009/04/23 14:22:06.5     -76   -190    134    205    244 201.8  36.3  34270  291.44 0854.47
2009/04/23 14:22:06.6     -37   -151    121    156    197 193.8  41.7  34266  291.37 0854.48
2009/04/23 14:22:06.7      16   -203     96    204    225 175.3  27.1  34282  291.64 0854.48
2009/04/23 14:22:06.8      31   -163     64    167    178 169.1  22.0  34276  291.54 0854.48
2009/04/23 14:22:06.9      28   -139     65    142    156 168.5  26.6  34264  291.35 0854.48
2009/04/23 14:22:07.0      54   -136     30    147    151 158.2  11.6  34260  291.28 0854.48
2009/04/23 14:22:07.1      26    -82     18     87     90 162.2  12.2  34266  291.37 0854.48
2009/04/23 14:22:07.2     -42    -55     41     70     81 217.0  32.9  34274  291.50 0854.48
2009/04/23 14:22:07.3    -115    -23    -15    118    119 258.5  -7.3  34278  291.59 0854.48
2009/04/23 14:22:07.4    -147    -13    -48    148    156 264.8 -18.3  34270  291.45 0854.48
2009/04/23 14:22:07.5    -115    -39    -15    122    124 250.9  -7.3  34272  291.47 0854.48
2009/04/23 14:22:07.6     -74    -74    -37    105    112 225.1 -19.7  34274  291.52 0854.48
2009/04/23 14:22:07.7     -65    -84    -39    107    113 217.8 -24.4  34274  291.52 0854.48
2009/04/23 14:22:07.8     -87    -64    -15    109    111 233.6  -8.2  34280  291.60 0854.48
2009/04/23 14:22:07.9     -81    -77    -91    112    144 226.4 -48.1  34262  291.30 0854.48
2009/04/23 14:22:08.0    -183   -116    -12    217    218 237.6  -3.2  34254  291.18 0854.48
2009/04/23 14:22:08.1    -234    -53    -57    240    247 257.2 -13.4  34254  291.16 0854.48
2009/04/23 14:22:08.2    -412    -27   -137    413    435 266.2 -23.7  34236  290.85 0854.48
2009/04/23 14:22:08.3    -260   -123    -62    288    295 244.6 -12.2  34248  291.07 0854.48
2009/04/23 14:22:08.4    -209    -70    -65    221    231 251.4 -16.5  34242  290.96 0854.48
2009/04/23 14:22:08.5    -166    -91     59    190    199 241.1  17.3  34276  291.55 0854.48
2009/04/23 14:22:08.6    -135   -105     32    172    175 232.2  10.6  34288  291.76 0854.47
2009/04/23 14:22:08.7    -130   -113    -23    173    175 229.1  -7.7  34290  291.77 0854.47
2009/04/23 14:22:08.8    -130   -203    -16    242    243 212.6  -3.9  34298  291.92 0854.47
2009/04/23 14:22:08.9    -116   -234      4    262    263 206.3   1.0  34318  292.24 0854.47
2009/04/23 14:22:09.0    -129   -299      9    326    327 203.4   1.6  34324  292.35 0854.47
2009/04/23 14:22:09.1    -113   -340      5    359    360 198.4   0.8  34324  292.37 0854.47
2009/04/23 14:22:09.2    -109   -328    -39    346    349 198.4  -6.5  34322  292.31 0854.47
2009/04/23 14:22:09.3     -93   -376    -37    388    390 194.0  -5.6  34300  291.95 0854.47
2009/04/23 14:22:09.4     -19   -380    -50    381    385 182.9  -7.5  34242  290.96 0854.47
2009/04/23 14:22:09.5     -24   -341     -4    342    343 184.1  -0.7  34250  291.10 0854.47
2009/04/23 14:22:09.6    -143   -241    -46    281    285 210.8  -9.4  34340  292.64 0854.47
2009/04/23 14:22:09.7     -79   -200    -69    216    227 201.6 -17.9  34312  292.17 0854.47
2009/04/23 14:22:09.8       7   -215    -28    216    218 178.0  -7.5  34250  291.09 0854.47
2009/04/23 14:22:09.9      42   -227    -64    231    240 169.5 -15.5  34258  291.24 0854.47
2009/04/23 14:22:10.0      31   -249    -77    251    262 172.8 -22.1  34280  291.60 0854.47
2009/04/23 14:22:10.1     -29   -333    -61    335    341 185.1 -10.4  34270  291.45 0854.47
2009/04/23 14:22:10.2     -59   -339    -39    345    348 189.9  -6.6  34264  291.34 0854.47
2009/04/23 14:22:10.3       0   -361    -30    362    364 180.0  -4.8  34270  291.45 0854.47
2009/04/23 14:22:10.4      -4   -341    -33    342    344 180.8  -5.6  34278  291.59 0854.47
2009/04/23 14:22:10.5      21   -299     -6    300    301 176.0  -1.2  34268  291.41 0854.47
2009/04/23 14:22:10.6      90   -365     45    377    380 166.1   6.9  34244  291.00 0854.45
2009/04/23 14:22:10.7     125   -380     46    401    404 161.7   6.6  34244  290.99 0854.45
2009/04/23 14:22:10.8     117   -357     33    376    378 161.9   5.1  34248  291.08 0854.45
2009/04/23 14:22:10.9     108   -379    -15    395    396 164.1  -2.2  34254  291.18 0854.45
2009/04/23 14:22:11.0      66   -470     -9    475    476 171.9  -1.2  34248  291.08 0854.45
2009/04/23 14:22:11.1     -12   -492     24    493    494 181.5   2.8  34258  291.22 0854.45
2009/04/23 14:22:11.2      24   -424     95    425    436 176.8  12.6  34260  291.26 0854.45
2009/04/23 14:22:11.3      15   -503    219    504    549 178.2  25.1  34258  291.23 0854.45
2009/04/23 14:22:11.4     127   -379    236    400    464 161.4  33.4  34282  291.65 0854.45
2009/04/23 14:22:11.5     168   -328    248    369    444 152.9  37.2  34266  291.38 0854.45
2009/04/23 14:22:11.6     153   -144    212    211    299 133.2  50.1  34274  291.50 0854.45
2009/04/23 14:22:11.7     130   -254    162    286    328 152.8  32.1  34270  291.44 0854.45
2009/04/23 14:22:11.8      77   -280    141    291    323 164.6  27.8  34244  291.00 0854.45
2009/04/23 14:22:11.9      57   -263    192    270    331 167.7  39.0  34246  291.02 0854.45
2009/04/23 14:22:12.0     155   -172     91    232    249 137.9  22.3  34240  290.92 0854.45
2009/04/23 14:22:12.1     146   -366    232    395    458 158.2  33.3  34230  290.77 0854.45
2009/04/23 14:22:12.2       1   -419    285    420    507 179.8  37.4  34242  290.96 0854.45
2009/04/23 14:22:12.3      16   -431    269    432    508 177.8  34.9  34242  290.95 0854.45
2009/04/23 14:22:12.4      15   -385    207    386    438 177.7  30.5  34240  290.92 0854.45
2009/04/23 14:22:12.5     -15   -327    264    328    421 182.8  43.0  34238  290.91 0854.45
2009/04/23 14:22:12.6     -37   -333    242    336    414 186.5  39.5  34238  290.88 0854.44
2009/04/23 14:22:12.7     -13   -293    190    294    350 182.7  35.6  34222  290.62 0854.44
2009/04/23 14:22:12.8     -16   -215    220    216    308 184.4  50.2  34246  291.02 0854.44
2009/04/23 14:22:12.9      18   -124    156    126    200 171.5  56.9  34254  291.16 0854.44
2009/04/23 14:22:13.0      -6   -140     81    141    162 182.7  32.7  34248  291.08 0854.44
2009/04/23 14:22:13.1     -49    -99    -31    111    115 206.7 -20.2  34244  291.01 0854.44
2009/04/23 14:22:13.2     -16   -195     46    196    202 184.9  13.2  34256  291.20 0854.44
2009/04/23 14:22:13.3    -138   -311    189    341    389 203.9  31.5  34254  291.17 0854.44
2009/04/23 14:22:13.4      -6   -245    238    246    342 181.6  49.0  34264  291.34 0854.44
2009/04/23 14:22:13.5      87   -355    272    366    456 166.2  40.2  34268  291.40 0854.44
2009/04/23 14:22:13.6      22   -287    280    288    401 175.5  49.1  34274  291.52 0854.44
2009/04/23 14:22:13.7      18    -68    154     71    169 164.9  73.5  34274  291.52 0854.44
2009/04/23 14:22:13.8     187   -165     85    250    265 131.4  18.9  34268  291.39 0854.44
2009/04/23 14:22:13.9     148   -370   -133    399    420 158.1 -23.6  34262  291.29 0854.44
2009/04/23 14:22:14.0      14   -250   -154    251    294 176.6 -38.8  34258  291.24 0854.44
2009/04/23 14:22:14.1     -62   -101   -161    119    200 211.6 -64.4  34266  291.38 0854.44
2009/04/23 14:22:14.2    -108     33   -128    114    171 287.3 -58.1  34260  291.28 0854.44
2009/04/23 14:22:14.3     -80     20    -37     83     90 284.6 -30.6  34260  291.26 0854.44
2009/04/23 14:22:14.4      34    -62     75     71    103 151.1  51.6  34262  291.30 0854.44
2009/04/23 14:22:14.5      68   -270     60    279    286 165.8  12.1  34254  291.17 0854.44
2009/04/23 14:22:14.6       2   -221     67    222    232 179.3  16.8  34252  291.13 0854.46
2009/04/23 14:22:14.7      74   -156    112    173    206 154.4  35.7  34258  291.23 0854.46
2009/04/23 14:22:14.8      17    -83    148     85    170 168.0  67.7  34264  291.33 0854.46
2009/04/23 14:22:14.9     -57     30     43     65     77 298.0  35.6  34264  291.33 0854.46
2009/04/23 14:22:15.0     -92     17     93     94    132 281.0  50.0  34260  291.28 0854.46
2009/04/23 14:22:15.1      37     88    189     96    211  23.2  71.1  34248  291.06 0854.46
2009/04/23 14:22:15.2     -62     67    169     92    192 316.8  68.9  34266  291.37 0854.46
2009/04/23 14:22:15.3     -19    -39    146     44    152 206.3  82.7  34264  291.35 0854.46
2009/04/23 14:22:15.4     -67    -20    107     70    127 253.2  64.1  34266  291.38 0854.46
2009/04/23 14:22:15.5     -31     75    113     82    139 337.7  60.5  34268  291.40 0854.46
2009/04/23 14:22:15.6     -26     -4     46     27     53 260.3  66.8  34260  291.28 0854.46
2009/04/23 14:22:15.7      24    -47    -18     53     55 152.8 -23.6  34254  291.18 0854.46
2009/04/23 14:22:15.8      42    -66   -118     79    142 147.4 -67.6  34256  291.20 0854.46
2009/04/23 14:22:15.9      32    -51   -154     61    165 147.5 -82.0  34248  291.08 0854.46
2009/04/23 14:22:16.0      64    -65   -180     92    202 135.3 -75.2  34246  291.04 0854.46
2009/04/23 14:22:16.1       6    -28    -92     29     96 166.6 -85.6  34246  291.03 0854.46
2009/04/23 14:22:16.2    -111     82   -171    139    220 306.4 -60.8  34246  291.04 0854.46
2009/04/23 14:22:16.3    -166    -73    -43    182    188 246.0 -13.4  34246  291.03 0854.46
2009/04/23 14:22:16.4    -193     -3   -147    194    243 269.1 -45.1  34246  291.03 0854.46
2009/04/23 14:22:16.5    -133     65     -1    149    150 296.2  -0.7  34240  290.92 0854.46
2009/04/23 14:22:16.6    -133     27     53    136    145 281.5  22.5  34242  290.98 0854.42
2009/04/23 14:22:16.7     -96   -109     85    146    168 221.4  32.9  34240  290.92 0854.42
2009/04/23 14:22:16.8     -67     15     33     69     76 283.3  27.2  34260  291.26 0854.42
2009/04/23 14:22:16.9      38    -38     48     54     72 134.9  46.9  34252  291.13 0854.42
2009/04/23 14:22:17.0      55   -204    117    212    242 164.9  31.4  34230  290.76 0854.42
2009/04/23 14:22:17.1     -62   -264    173    272    322 193.3  35.5  34230  290.76 0854.42
2009/04/23 14:22:17.2      38   -458    182    460    494 175.2  22.8  34218  290.54 0854.42
2009/04/23 14:22:17.3     186   -468     90    504    513 158.3  10.1  34220  290.59 0854.42
2009/04/23 14:22:17.4     234   -475     35    530    532 153.7   3.8  34218  290.55 0854.42
2009/04/23 14:22:17.5     242   -433     20    497    498 150.8   2.3  34228  290.71 0854.42
2009/04/23 14:22:17.6     122   -468    -53    484    487 165.3  -6.3  34222  290.64 0854.42
2009/04/23 14:22:17.7     165   -452     44    482    485 159.9   5.3  34212  290.47 0854.42
2009/04/23 14:22:17.8     121   -410    129    428    447 163.5  16.8  34206  290.36 0854.42
2009/04/23 14:22:17.9     113   -452    178    466    498 165.9  22.0  34208  290.37 0854.42
2009/04/23 14:22:18.0      85   -491     50    499    502 170.1   5.8  34208  290.37 0854.42
2009/04/23 14:22:18.1      97   -547     36    556    558 169.9   3.8  34196  290.18 0854.42
2009/04/23 14:22:18.2     137   -500     49    519    522 164.6   5.5  34188  290.06 0854.42
2009/04/23 14:22:18.3     110   -516     63    528    532 167.9   6.9  34188  290.06 0854.42
2009/04/23 14:22:18.4     132   -539     28    555    556 166.2   2.9  34184  289.97 0854.42
2009/04/23 14:22:18.5     121   -557     17    571    572 167.7   1.7  34186  290.00 0854.42
2009/04/23 14:22:18.6     176   -553     28    581    582 162.3   2.8  34184  289.97 0854.41
2009/04/23 14:22:18.7     255   -516     81    576    582 153.7   8.0  34202  290.29 0854.41
2009/04/23 14:22:18.8     315   -468    121    565    578 146.1  12.1  34198  290.20 0854.41
2009/04/23 14:22:18.9     330   -392    148    513    534 139.9  16.1  34176  289.85 0854.41
2009/04/23 14:22:19.0     149   -478     98    501    511 162.6  11.1  34178  289.89 0854.41
2009/04/23 14:22:19.1     160   -383    170    416    449 157.3  23.5  34180  289.92 0854.41
2009/04/23 14:22:19.2     123   -404      6    423    424 163.0   0.8  34206  290.34 0854.41
2009/04/23 14:22:19.3     185   -364    -56    409    413 153.0  -7.9  34216  290.53 0854.41
2009/04/23 14:22:19.4     220   -298     72    371    378 143.5  11.0  34216  290.52 0854.41
2009/04/23 14:22:19.5     178   -187     84    259    273 136.3  18.1  34194  290.14 0854.41
2009/04/23 14:22:19.6     239   -178     -8    299    300 126.8  -1.6  34220  290.58 0854.41
2009/04/23 14:22:19.7     215   -141    -19    258    259 123.3  -4.4  34224  290.66 0854.41
2009/04/23 14:22:19.8     196   -148      7    246    247 127.1   1.8  34230  290.75 0854.41
2009/04/23 14:22:19.9     120   -121    133    171    216 135.1  42.0  34216  290.53 0854.41
2009/04/23 14:22:20.0     138   -126    150    188    240 132.4  42.7  34224  290.65 0854.41
2009/04/23 14:22:20.1     116   -175     71    211    223 146.4  18.6  34220  290.58 0854.41
2009/04/23 14:22:20.2     -83   -167    -60    187    196 206.5 -22.8  34210  290.43 0854.41
2009/04/23 14:22:20.3      57   -163      8    173    174 160.6   2.9  34212  290.45 0854.41
2009/04/23 14:22:20.4     -10   -133   -105    134    170 184.5 -46.6  34212  290.45 0854.41
2009/04/23 14:22:20.5     -62   -209   -126    219    252 196.5 -37.1  34214  290.48 0854.41
2009/04/23 14:22:20.6     -78   -180    -88    197    215 203.4 -30.1  34206  290.36 0854.42
2009/04/23 14:22:20.7     -84   -244   -144    259    296 199.1 -35.8  34200  290.24 0854.42
2009/04/23 14:22:20.8    -189   -221   -155    291    329 220.5 -34.7  34212  290.46 0854.42
2009/04/23 14:22:20.9     -49   -202   -199    209    288 193.8 -53.1  34216  290.51 0854.42
2009/04/23 14:22:21.0    -144   -142   -200    203    284 225.3 -54.3  34214  290.49 0854.42
2009/04/23 14:22:21.1    -106   -127   -143    166    219 219.9 -49.5  34214  290.50 0854.42
2009/04/23 14:22:21.2     -71     -9   -175     72    189 262.1 -81.2  34218  290.55 0854.42
2009/04/23 14:22:21.3       4    -14   -137     15    137 161.5 -90.0  34230  290.77 0854.42
2009/04/23 14:22:21.4      36     -7   -122     37    127 101.4 -87.1  34250  291.11 0854.42
2009/04/23 14:22:21.5     -31    -69   -153     76    170 204.5 -76.3  34232  290.79 0854.42
2009/04/23 14:22:21.6       2    -79   -170     80    187 178.2 -77.5  34232  290.81 0854.42
2009/04/23 14:22:21.7     -80     11   -166     81    184 278.0 -76.8  34242  290.98 0854.42
2009/04/23 14:22:21.8      12    -20   -123     24    125 147.5 -90.0  34246  291.04 0854.42
2009/04/23 14:22:21.9      12     60    -98     62    115  11.6 -69.1  34246  291.04 0854.42
2009/04/23 14:22:22.0      65     72   -115     98    151  41.9 -60.2  34244  291.01 0854.42
2009/04/23 14:22:22.1      23     68   -110     73    132  19.2 -68.0  34236  290.87 0854.42
2009/04/23 14:22:22.2     -42    113    -66    121    137 339.5 -35.7  34238  290.89 0854.42
2009/04/23 14:22:22.3     -96    134    -57    165    174 324.4 -23.6  34236  290.86 0854.42
2009/04/23 14:22:22.4     -71     16   -126     73    145 283.3 -71.6  34240  290.94 0854.42
2009/04/23 14:22:22.5     -72    100    -11    124    125 324.0  -5.1  34242  290.98 0854.42
2009/04/23 14:22:22.6     -97    103    -60    142    154 316.7 -28.5  34258  291.25 0854.41
2009/04/23 14:22:22.7     -75    146    -92    165    188 332.8 -35.8  34250  291.11 0854.41
2009/04/23 14:22:22.8      50    153   -113    162    197  18.3 -42.8  34250  291.11 0854.41
2009/04/23 14:22:22.9       0    146   -137    147    200 359.6 -52.3  34230  290.77 0854.41
2009/04/23 14:22:23.0     -12    160   -103    161    191 355.6 -40.0  34224  290.65 0854.41
2009/04/23 14:22:23.1     -94    -34    -56    101    115 250.0 -35.8  34240  290.94 0854.41
2009/04/23 14:22:23.2     -97   -148   -138    178    225 213.2 -46.1  34254  291.18 0854.41
2009/04/23 14:22:23.3      47   -218    -76    224    236 167.7 -23.8  34250  291.11 0854.41
2009/04/23 14:22:23.4      10   -215    160    216    268 177.3  40.1  34244  291.00 0854.41
2009/04/23 14:22:23.5     -79   -218    184    233    296 200.1  42.2  34246  291.04 0854.41
2009/04/23 14:22:23.6     -33   -143    146    147    207 193.3  50.0  34244  291.01 0854.41
2009/04/23 14:22:23.7     -91     71    169    116    204 307.8  62.6  34246  291.03 0854.41
2009/04/23 14:22:23.8    -159     34    109    163    196 282.4  37.4  34242  290.98 0854.41
2009/04/23 14:22:23.9    -250    110    154    274    314 293.7  31.7  34244  290.99 0854.41
2009/04/23 14:22:24.0    -268     65    100    276    293 283.7  20.9  34250  291.09 0854.41
2009/04/23 14:22:24.1    -266     74     61    277    284 285.5  12.6  34240  290.93 0854.41
2009/04/23 14:22:24.2    -228     71     39    239    243 287.3   9.3  34234  290.82 0854.41
2009/04/23 14:22:24.3    -252     15    -22    253    255 273.5  -5.1  34230  290.75 0854.41
2009/04/23 14:22:24.4    -164   -181    -21    245    247 222.3  -5.1  34240  290.93 0854.41
2009/04/23 14:22:24.5    -189   -228     10    297    298 219.6   2.1  34236  290.85 0854.41
2009/04/23 14:22:24.6    -260   -171     -9    312    313 236.7  -1.8  34236  290.87 0854.37
2009/04/23 14:22:24.7    -235   -250     57    344    349 223.3   9.5  34232  290.81 0854.37
2009/04/23 14:22:24.8    -289   -150   -125    326    349 242.5 -26.4  34234  290.83 0854.37
2009/04/23 14:22:24.9    -222   -166   -239    278    366 233.1 -49.5  34238  290.89 0854.37
2009/04/23 14:22:25.0    -175   -227   -160    287    328 217.6 -36.0  34252  291.12 0854.37
2009/04/23 14:22:25.1    -228   -121   -227    259    344 242.0 -50.1  34258  291.22 0854.37
2009/04/23 14:22:25.2    -206    -78   -253    221    335 249.2 -58.8  34248  291.07 0854.37
2009/04/23 14:22:25.3     -94    -56   -242    110    265 238.9 -78.4  34252  291.13 0854.37
2009/04/23 14:22:25.4     -24    -42   -182     49    188 209.9 -89.3  34250  291.09 0854.37
2009/04/23 14:22:25.5      49   -100   -147    112    184 153.7 -63.6  34248  291.06 0854.37
2009/04/23 14:22:25.6     122   -178   -176    216    278 145.5 -47.9  34216  290.53 0854.37
2009/04/23 14:22:25.7     117   -246   -126    273    300 154.5 -30.8  34220  290.58 0854.37
2009/04/23 14:22:25.8      15   -203    -41    204    209 175.8 -11.3  34234  290.82 0854.37
2009/04/23 14:22:26.0     224   -114     -4    252    253 117.0  -1.1  34226  290.68 0854.37
2009/04/23 14:22:26.1     174   -132    -36    219    222 127.1  -9.3  34218  290.55 0854.37
2009/04/23 14:22:26.1     154   -201     12    254    255 142.6   2.9  34220  290.58 0854.37
2009/04/23 14:22:26.3     147   -223     41    268    272 146.6   8.8  34222  290.61 0854.37
2009/04/23 14:22:26.4     156   -254     -8    299    300 148.4  -1.6  34226  290.68 0854.37
2009/04/23 14:22:26.5      57   -318    -72    324    333 169.8 -12.6  34222  290.62 0854.37
2009/04/23 14:22:26.6      74   -255    -44    266    270 163.7  -9.4  34224  290.66 0854.37
2009/04/23 14:22:26.7     108   -294    -29    314    316 159.7  -5.4  34224  290.65 0854.39
2009/04/23 14:22:26.8      86   -284     -2    297    298 163.1  -0.5  34222  290.63 0854.39
2009/04/23 14:22:26.9       5   -223     19    224    225 178.6   4.9  34228  290.72 0854.39
2009/04/23 14:22:27.0       0   -267      8    268    269 179.9   1.7  34228  290.71 0854.39
2009/04/23 14:22:27.1     -41   -365    -46    368    371 186.5  -7.2  34248  291.05 0854.39
2009/04/23 14:22:27.2     -22   -371     53    372    376 183.4   8.2  34248  291.08 0854.39
2009/04/23 14:22:27.3      65   -324     64    331    338 168.6  11.0  34238  290.88 0854.39
2009/04/23 14:22:27.4       7   -356     54    357    362 178.8   8.7  34232  290.81 0854.39
2009/04/23 14:22:27.5     -29   -306    107    308    327 185.6  19.2  34230  290.76 0854.39
2009/04/23 14:22:27.6     -23   -260    163    262    308 185.1  35.2  34222  290.61 0854.39
2009/04/23 14:22:27.7     -81   -397    119    406    424 191.6  16.4  34230  290.75 0854.39
2009/04/23 14:22:27.8    -146   -404    163    430    459 199.9  21.8  34232  290.78 0854.39
2009/04/23 14:22:27.9    -136   -388    181    412    450 199.4  25.2  34228  290.73 0854.39
2009/04/23 14:22:28.0    -124   -296    123    322    344 202.7  21.8  34228  290.71 0854.39
2009/04/23 14:22:28.1     -94   -309    143    324    354 196.9  25.2  34246  291.03 0854.39
2009/04/23 14:22:28.2    -138   -470    170    490    519 196.4  19.2  34238  290.90 0854.39
2009/04/23 14:22:28.3    -144   -361     95    390    402 201.8  13.8  34230  290.77 0854.39
2009/04/23 14:22:28.4    -213   -303    124    371    392 215.2  18.6  34252  291.15 0854.39
2009/04/23 14:22:28.5    -153   -405    259    434    505 200.7  33.6  34246  291.03 0854.39
2009/04/23 14:22:28.6      46   -605    281    607    668 175.6  26.6  34236  290.86 0854.39
2009/04/23 14:22:28.7      57   -623     97    626    634 174.7   8.8  34240  290.94 0854.40
2009/04/23 14:22:28.8     158   -621    145    641    658 165.7  12.8  34226  290.69 0854.40
2009/04/23 14:22:28.9     194   -525    163    560    584 159.7  16.3  34230  290.76 0854.40
2009/04/23 14:22:29.0     144   -558    113    577    589 165.5  11.1  34238  290.90 0854.40
2009/04/23 14:22:29.1      16   -549     43    550    552 178.3   4.5  34228  290.72 0854.40
2009/04/23 14:22:29.2     171   -519    -51    547    550 161.7  -5.4  34234  290.84 0854.40
2009/04/23 14:22:29.3      60   -635    -21    639    640 174.6  -1.9  34220  290.59 0854.40
2009/04/23 14:22:29.4     133   -578    104    594    604 167.0  10.0  34218  290.56 0854.40
2009/04/23 14:22:29.5     107   -651     50    660    662 170.7   4.4  34212  290.44 0854.40
2009/04/23 14:22:29.6      41   -611    -27    613    614 176.1  -2.6  34204  290.32 0854.40
2009/04/23 14:22:29.7       0   -717    116    718    728 180.0   9.2  34204  290.32 0854.41
2009/04/23 14:22:29.8      49   -640    101    642    651 175.6   9.0  34194  290.16 0854.41
2009/04/23 14:22:29.9      -9   -528     22    529    530 181.0   2.4  34190  290.09 0854.41
2009/04/23 14:22:30.0      81   -505     80    512    519 170.9   8.9  34192  290.10 0854.41
2009/04/23 14:22:30.1     150   -441    291    466    549 161.2  34.9  34198  290.23 0854.41
2009/04/23 14:22:30.2     -57   -444    149    448    473 187.3  18.4  34198  290.20 0854.41
2009/04/23 14:22:30.3    -170   -534    114    561    573 197.7  11.6  34206  290.34 0854.41
2009/04/23 14:22:30.4    -139   -496    140    516    535 195.7  15.2  34198  290.21 0854.41
2009/04/23 14:22:30.5    -204   -498      7    539    540 202.3   0.8  34218  290.57 0854.41
2009/04/23 14:22:30.6    -194   -461    -19    501    502 202.8  -2.2  34232  290.79 0854.41
2009/04/23 14:22:30.7    -162   -369    -73    404    411 203.7 -10.3  34220  290.60 0854.41
2009/04/23 14:22:30.8    -231   -319   -111    395    410 216.0 -20.5  34230  290.75 0854.41
2009/04/23 14:22:30.9    -215   -343   -132    405    426 212.1 -18.1  34236  290.87 0854.41
2009/04/23 14:22:31.0    -148   -372   -126    401    421 201.7 -17.5  34232  290.80 0854.41
2009/04/23 14:22:31.1    -101   -306    -93    323    336 198.3 -20.7  34246  291.03 0854.41
2009/04/23 14:22:31.2    -136   -304    -89    334    346 204.1 -15.0  34214  290.49 0854.41
2009/04/23 14:22:31.3    -110   -360    -83    377    387 197.0 -12.5  34228  290.74 0854.41
2009/04/23 14:22:31.4     -47   -327   -117    331    352 188.3 -19.6  34230  290.77 0854.41
2009/04/23 14:22:31.5      32   -181   -113    184    215 169.8 -38.8  34208  290.38 0854.41
2009/04/23 14:22:31.6      -2   -142   -103    143    176 181.0 -44.1  34216  290.53 0854.41
2009/04/23 14:22:31.7     -13   -129    -46    130    139 185.8 -19.7  34238  290.91 0854.40
2009/04/23 14:22:31.8     -34   -124    -44    129    137 195.6 -19.1  34232  290.79 0854.40
2009/04/23 14:22:31.9      68    -86    -43    110    118 141.7 -26.9  34218  290.55 0854.40
2009/04/23 14:22:32.0      83    -45    -27     95     99 118.4 -16.0  34206  290.36 0854.40
2009/04/23 14:22:32.1      94    -43    -35    104    110 114.8 -18.7  34210  290.41 0854.40
2009/04/23 14:22:32.2      81    -67    -44    106    114 129.5 -28.0  34210  290.43 0854.40
2009/04/23 14:22:32.3      42    -64    -43     77     88 146.6 -35.8  34220  290.60 0854.40
2009/04/23 14:22:32.4      34   -105    -32    111    115 161.7 -20.7  34216  290.52 0854.40
2009/04/23 14:22:32.5     141   -186    -95    234    252 142.8 -27.5  34218  290.54 0854.40
2009/04/23 14:22:32.6     153   -192   -106    246    267 141.5 -29.3  34216  290.51 0854.40
2009/04/23 14:22:32.7     186   -193    -89    269    283 136.1 -23.8  34214  290.48 0854.40
2009/04/23 14:22:32.8     263   -208      4    336    337 128.4   0.7  34202  290.30 0854.40
2009/04/23 14:22:32.9     251   -240     19    348    349 133.7   3.1  34200  290.25 0854.40
2009/04/23 14:22:33.0     240   -269     34    361    363 138.2   5.4  34202  290.27 0854.40
2009/04/23 14:22:33.1     203   -230     26    307    309 138.6   4.9  34200  290.26 0854.40
2009/04/23 14:22:33.2     217   -210     28    303    305 134.0   5.4  34204  290.31 0854.40
2009/04/23 14:22:33.3     170   -140     71    221    233 129.6  17.9  34206  290.35 0854.40
2009/04/23 14:22:33.4     110   -167    119    201    233 146.6  33.5  34206  290.35 0854.40
2009/04/23 14:22:33.5      95   -183    144    207    252 152.6  38.0  34202  290.29 0854.40
2009/04/23 14:22:33.6      77   -193    169    209    268 158.2  43.5  34212  290.44 0854.40
2009/04/23 14:22:33.7      40   -252    129    256    286 170.9  28.7  34204  290.32 0854.38
2009/04/23 14:22:33.8       8   -287    105    288    306 178.2  20.9  34210  290.41 0854.38
2009/04/23 14:22:33.9      -4   -316     82    317    328 180.9  14.6  34206  290.34 0854.38
2009/04/23 14:22:34.0       5   -302     76    303    313 178.9  14.2  34200  290.26 0854.38
2009/04/23 14:22:34.1      37   -292    101    295    312 172.7  18.9  34208  290.37 0854.38
2009/04/23 14:22:34.2      17   -229    154    230    276 175.6  37.3  34204  290.31 0854.38
2009/04/23 14:22:34.3     -85   -253    230    268    353 198.7  45.1  34222  290.61 0854.38
2009/04/23 14:22:34.4    -188   -352    212    400    452 208.1  30.2  34216  290.53 0854.38
2009/04/23 14:22:34.5    -278   -382    -66    473    478 216.1  -8.0  34220  290.59 0854.38
2009/04/23 14:22:34.6    -154   -408   -117    437    453 200.7 -15.0  34210  290.41 0854.38
2009/04/23 14:22:34.7    -230   -412    -54    472    476 209.2  -6.6  34212  290.44 0854.38
2009/04/23 14:22:34.8    -204   -390    -75    441    448 207.6  -9.7  34210  290.43 0854.38
2009/04/23 14:22:34.9    -211   -204    -99    294    310 226.0 -23.3  34216  290.51 0854.38
2009/04/23 14:22:35.0    -207   -259    222    332    399 218.7  36.9  34218  290.54 0854.38
2009/04/23 14:22:35.1    -360   -401    118    539    552 221.9  12.4  34218  290.57 0854.38
2009/04/23 14:22:35.2    -301   -175    -36    349    351 239.8  -5.9  34224  290.66 0854.38
2009/04/23 14:22:35.3    -465   -155     87    491    499 251.5  10.1  34222  290.62 0854.38
2009/04/23 14:22:35.4    -464   -261     55    533    536 240.6   5.9  34222  290.62 0854.38
2009/04/23 14:22:35.5    -621   -211   -153    657    675 251.2 -13.2  34218  290.56 0854.38
2009/04/23 14:22:35.6    -687   -359   -143    776    790 242.4 -10.5  34226  290.68 0854.38
2009/04/23 14:22:35.7    -494    -92    -77    503    509 259.4  -8.8  34232  290.81 0854.37
2009/04/23 14:22:35.8    -546   -169   -206    572    609 252.8 -19.8  34230  290.75 0854.37
2009/04/23 14:22:35.9    -523    -35   -148    525    545 266.1 -20.5  34238  290.89 0854.37
2009/04/23 14:22:36.0    -283   -177   -119    334    354 238.0 -24.8  34238  290.89 0854.37
2009/04/23 14:22:36.1    -424   -159   -134    453    473 249.4 -16.5  34244  291.00 0854.37
2009/04/23 14:22:36.2    -360   -198     -1    411    412 241.2  -0.3  34252  291.12 0854.37
2009/04/23 14:22:36.3    -472   -130     -9    490    491 254.6  -1.2  34278  291.56 0854.37
2009/04/23 14:22:36.4     -76   -230     72    243    254 198.3  16.6  34258  291.24 0854.37
2009/04/23 14:22:36.5     -76   -228     24    241    243 198.5   5.9  34266  291.36 0854.37
2009/04/23 14:22:36.6    -324    -19     18    325    326 266.5   3.2  34274  291.51 0854.37
2009/04/23 14:22:36.7    -132    -26     81    135    157 258.6  34.0  34284  291.67 0854.37
2009/04/23 14:22:36.8    -190   -260    -98    323    337 216.1 -21.7  34242  290.98 0854.37
2009/04/23 14:22:36.9    -114   -156   -163    194    253 216.1 -48.5  34238  290.90 0854.37
2009/04/23 14:22:37.0    -107    -68   -117    127    172 237.5 -52.1  34242  290.98 0854.37
2009/04/23 14:22:37.1      55   -319    -15    324    325 170.2  -2.7  34242  290.95 0854.37
2009/04/23 14:22:37.2      18   -274     39    275    278 176.2   8.2  34250  291.09 0854.37
2009/04/23 14:22:37.3     -57   -213     65    221    231 195.1  16.4  34244  290.99 0854.37
2009/04/23 14:22:37.4    -122   -215    -68    248    258 209.6 -15.5  34240  290.92 0854.37
2009/04/23 14:22:37.5      44   -245    -49    249    254 169.8 -11.3  34236  290.85 0854.37
2009/04/23 14:22:37.6      14   -246     -9    247    248 176.6  -2.2  34230  290.76 0854.37
2009/04/23 14:22:37.7     105   -110     68    153    167 136.3  25.7  34230  290.77 0854.37
2009/04/23 14:22:37.8     168     -7     40    169    174  92.6  13.5  34232  290.81 0854.37
2009/04/23 14:22:37.9      92     39    200    101    224  66.9  71.1  34238  290.91 0854.37
2009/04/23 14:22:38.0     -86   -232    101    248    267 200.3  23.1  34240  290.93 0854.37
2009/04/23 14:22:38.1    -129   -217    153    253    295 210.7  34.0  34230  290.75 0854.37
2009/04/23 14:22:38.2    -365   -243    187    439    477 236.3  24.5  34232  290.78 0854.37
2009/04/23 14:22:38.3    -347   -242    159    424    452 235.1  21.6  34238  290.90 0854.37
2009/04/23 14:22:38.4    -400   -215    207    455    499 241.7  26.2  34236  290.85 0854.37
2009/04/23 14:22:38.5    -224   -125     -1    257    258 240.9  -0.3  34240  290.92 0854.37
2009/04/23 14:22:38.6     -66   -122    193    139    237 208.5  60.6  34230  290.75 0854.37
2009/04/23 14:22:38.7     -71   -198    195    211    287 200.0  47.9  34226  290.68 0854.37
2009/04/23 14:22:38.8      14   -348    229    349    417 177.7  36.4  34228  290.74 0854.37
2009/04/23 14:22:38.9      25    -61    130     67    146 157.3  70.8  34236  290.86 0854.37
2009/04/23 14:22:39.0     -70   -200    239    213    320 199.4  53.7  34242  290.97 0854.37
2009/04/23 14:22:39.1     189    -80    209    206    293 113.1  50.2  34246  291.02 0854.37
2009/04/23 14:22:39.2     302    106    214    321    385  70.7  36.7  34240  290.94 0854.37
2009/04/23 14:22:39.3     102     34    129    108    168  71.4  55.8  34254  291.18 0854.37
2009/04/23 14:22:39.4     -17    -47     67     50     83 200.0  59.4  34260  291.26 0854.37
2009/04/23 14:22:39.5    -110    -76     53    134    144 235.4  23.0  34256  291.21 0854.37
2009/04/23 14:22:39.6    -123    -89     63    153    165 234.1  23.6  34250  291.11 0854.37
2009/04/23 14:22:39.7     -48   -117     39    127    133 202.3  17.3  34252  291.15 0854.37
2009/04/23 14:22:39.8     -19   -250     16    251    252 184.4   3.8  34252  291.12 0854.37
2009/04/23 14:22:39.9     -14   -194    185    195    268 184.4  48.5  34260  291.27 0854.37
2009/04/23 14:22:40.0      85   -180    184    200    271 154.8  47.7  34268  291.41 0854.37
2009/04/23 14:22:40.1      13   -150    268    151    307 174.7  68.5  34266  291.38 0854.37
2009/04/23 14:22:40.2     -49   -234    279    240    368 191.8  55.0  34252  291.13 0854.37
2009/04/23 14:22:40.3    -120   -277    333    302    449 203.4  53.3  34260  291.28 0854.37
2009/04/23 14:22:40.4    -275   -346    306    443    538 218.5  38.0  34266  291.37 0854.37
2009/04/23 14:22:40.5    -299   -647    291    713    770 204.8  23.5  34238  290.89 0854.37
2009/04/23 14:22:40.6     -39   -830    243    832    867 182.7  16.3  34246  291.02 0854.37
2009/04/23 14:22:40.7      16   -731    254    732    776 178.7  19.2  34250  291.11 0854.37
2009/04/23 14:22:40.8      -1   -672    224    673    710 180.1  18.4  34256  291.20 0854.37
2009/04/23 14:22:40.9     -99   -575    176    584    610 189.8  16.8  34242  290.97 0854.37
2009/04/23 14:22:41.0    -128   -552    -37    567    569 193.1  -3.8  34256  291.21 0854.37
2009/04/23 14:22:41.1     -11   -502     94    503    512 181.3  10.6  34248  291.05 0854.37
2009/04/23 14:22:41.2      33   -589    320    590    671 176.8  30.9  34264  291.35 0854.37
2009/04/23 14:22:41.3      43   -786    448    788    906 176.9  32.3  34268  291.40 0854.37
2009/04/23 14:22:41.4      98   -600    441    609    751 170.7  39.5  34252  291.15 0854.37
2009/04/23 14:22:41.5     -69   -557    303    562    638 187.1  30.7  34250  291.10 0854.37
2009/04/23 14:22:41.6     132   -524     92    541    549 165.8   9.7  34238  290.91 0854.37
2009/04/23 14:22:41.7     164   -553     49    577    580 163.5   4.9  34242  290.97 0854.35
2009/04/23 14:22:41.8     135   -493    -20    512    513 164.7  -2.2  34252  291.13 0854.35
2009/04/23 14:22:41.9     179   -446     29    481    482 158.1   3.5  34248  291.05 0854.35
2009/04/23 14:22:42.0      88   -462    165    471    500 169.2  19.3  34260  291.27 0854.35
2009/04/23 14:22:42.1     144   -544    226    563    606 165.1  23.1  34250  291.09 0854.35
2009/04/23 14:22:42.2      44   -569    -73    571    576 175.5  -7.3  34268  291.39 0854.35
2009/04/23 14:22:42.3       0   -571    -83    572    579 180.0  -8.3  34268  291.39 0854.35
2009/04/23 14:22:42.4      35   -651   -130    653    666 176.9 -11.3  34272  291.48 0854.35
2009/04/23 14:22:42.5     177   -939    -37    956    957 169.3  -2.2  34210  290.42 0854.35
2009/04/23 14:22:42.6     160   -816     70    832    836 168.9   4.9  34232  290.81 0854.35
2009/04/23 14:22:42.7     -86   -524      6    532    533 189.3   0.7  34246  291.03 0854.35
2009/04/23 14:22:42.8    -262   -556     -9    615    616 205.3  -0.9  34252  291.15 0854.35
2009/04/23 14:22:42.9      67   -535    102    540    550 172.8  10.7  34234  290.82 0854.35
2009/04/23 14:22:43.0      28   -574     -7    575    576 177.2  -0.7  34224  290.66 0854.35
2009/04/23 14:22:43.1     206   -571    -63    608    612 160.1  -6.0  34226  290.70 0854.35
2009/04/23 14:22:43.2     154   -493    -66    517    522 162.6  -7.3  34226  290.70 0854.35
2009/04/23 14:22:43.3      73   -420    -38    427    429 170.1  -5.1  34232  290.78 0854.35
2009/04/23 14:22:43.4     186   -409    -29    450    451 155.6  -3.8  34224  290.67 0854.35
2009/04/23 14:22:43.5     274   -391     12    478    479 144.9   1.5  34228  290.73 0854.35
2009/04/23 14:22:43.6     261   -578   -131    635    649 155.7 -11.7  34222  290.62 0854.35
2009/04/23 14:22:43.7     226   -474   -131    526    543 154.5 -14.1  34220  290.60 0854.32
2009/04/23 14:22:43.8     324   -539    -55    629    632 149.0  -5.1  34218  290.57 0854.32
2009/04/23 14:22:43.9     336   -432    -57    548    552 142.1  -6.0  34220  290.58 0854.32
2009/04/23 14:22:44.0     239   -501    -21    556    557 154.5  -2.2  34214  290.50 0854.32
2009/04/23 14:22:44.1     173   -520    -59    548    552 161.6  -6.2  34218  290.55 0854.32
2009/04/23 14:22:44.2     255   -413     55    486    490 148.3   6.5  34204  290.32 0854.32
2009/04/23 14:22:44.3     311   -415    112    519    532 143.2  12.2  34198  290.23 0854.32
2009/04/23 14:22:44.4     378   -524     42    647    649 144.2   3.7  34190  290.09 0854.32
2009/04/23 14:22:44.5     291   -600    105    667    676 154.1   9.0  34192  290.12 0854.32
2009/04/23 14:22:44.6      98   -579    112    588    599 170.4  10.8  34210  290.41 0854.32
2009/04/23 14:22:44.7      42   -496     20    498    499 175.1   2.4  34210  290.42 0854.32
2009/04/23 14:22:44.8     127   -530    154    546    568 166.5  15.8  34194  290.16 0854.32
2009/04/23 14:22:44.9     112   -467     87    481    489 166.4  10.3  34194  290.15 0854.32
2009/04/23 14:22:45.0     149   -461    105    485    497 162.1  12.3  34188  290.06 0854.32
2009/04/23 14:22:45.1     113   -426    153    441    468 165.1  19.2  34198  290.22 0854.32
2009/04/23 14:22:45.2      82   -381    162    390    422 167.7  23.9  34200  290.24 0854.32
2009/04/23 14:22:45.3     115   -310    140    331    359 159.6  24.3  34198  290.21 0854.32
2009/04/23 14:22:45.4     129   -323    124    349    370 158.2  20.2  34194  290.16 0854.32
2009/04/23 14:22:45.5      11   -251    233    252    343 177.4  47.7  34208  290.39 0854.32
2009/04/23 14:22:45.6      -9   -304    349    305    463 181.8  54.4  34202  290.29 0854.32
2009/04/23 14:22:45.7     -72   -325    443    334    554 192.6  59.4  34212  290.44 0854.32
2009/04/23 14:22:45.8     174   -247    321    303    441 144.8  52.1  34210  290.42 0854.32
2009/04/23 14:22:45.9      46   -224    224    229    320 168.2  49.7  34202  290.27 0854.32
2009/04/23 14:22:46.0      44   -213    228    218    315 168.2  51.4  34210  290.41 0854.32
2009/04/23 14:22:46.1       8   -107    206    108    232 175.6  70.0  34216  290.52 0854.32
2009/04/23 14:22:46.2     -38   -323    381    326    501 186.9  55.4  34222  290.63 0854.32
2009/04/23 14:22:46.3    -209   -291    304    359    470 215.7  44.7  34210  290.43 0854.32
2009/04/23 14:22:46.4    -272   -325    230    424    482 219.9  30.9  34222  290.61 0854.32
2009/04/23 14:22:46.5    -343   -125    234    366    434 250.0  35.6  34210  290.43 0854.32
2009/04/23 14:22:46.6    -132   -338    334    364    494 201.4  47.3  34214  290.48 0854.32
2009/04/23 14:22:46.7      21   -271    285    272    393 175.5  51.4  34220  290.59 0854.32
2009/04/23 14:22:46.8       6    -53    230     54    236 172.9  86.9  34218  290.57 0854.32
2009/04/23 14:22:46.9      89    -17    190     91    210 101.4  72.8  34230  290.75 0854.32
2009/04/23 14:22:47.0     300   -271    174    405    440 132.0  24.9  34210  290.43 0854.32
2009/04/23 14:22:47.1     336   -399    205    522    560 139.9  22.5  34202  290.30 0854.32
2009/04/23 14:22:47.2     302   -431    222    527    571 144.9  24.2  34200  290.26 0854.32
2009/04/23 14:22:47.3     226   -380    297    443    533 149.2  37.1  34206  290.34 0854.32
2009/04/23 14:22:47.4     379   -312    171    492    522 129.5  19.2  34218  290.57 0854.32
2009/04/23 14:22:47.5     502   -208     75    544    550 112.5   7.9  34216  290.52 0854.32
2009/04/23 14:22:47.6     428   -125     90    446    455 106.3  11.4  34216  290.53 0854.32
2009/04/23 14:22:47.7     291   -160    117    333    352 118.9  20.3  34214  290.50 0854.24
2009/04/23 14:22:47.8     181   -236    124    298    322 142.4  23.9  34218  290.56 0854.24
2009/04/23 14:22:47.9     164   -260    121    308    330 147.7  22.5  34214  290.49 0854.24
2009/04/23 14:22:48.0      76   -230     63    243    252 161.5  14.5  34210  290.41 0854.24
2009/04/23 14:22:48.1       9   -191      7    192    193 177.1   2.1  34210  290.43 0854.24
2009/04/23 14:22:48.2     119    -75    108    141    177 122.4  41.4  34216  290.53 0854.24
2009/04/23 14:22:48.3     139    -37    166    144    219 105.1  54.6  34224  290.65 0854.24
2009/04/23 14:22:48.4     190      2     66    191    203  89.2  19.2  34210  290.43 0854.24
2009/04/23 14:22:48.5      -7   -242    203    243    316 181.8  44.3  34214  290.49 0854.24
2009/04/23 14:22:48.6     119   -241    -14    269    270 153.7  -3.2  34206  290.36 0854.24
2009/04/23 14:22:48.7     194   -344     27    396    397 150.6   4.0  34194  290.16 0854.24
2009/04/23 14:22:48.8     225   -323     61    394    399 145.2   8.9  34192  290.13 0854.24
2009/04/23 14:22:48.9     165   -378     33    413    415 156.4   4.7  34202  290.28 0854.24
2009/04/23 14:22:49.0     224   -367     21    430    431 148.6   2.9  34218  290.55 0854.24
2009/04/23 14:22:49.1     102   -249    140    270    304 157.7  29.3  34218  290.56 0854.24
2009/04/23 14:22:49.2      77   -221    233    235    330 160.8  50.0  34218  290.54 0854.24
2009/04/23 14:22:49.3     295   -296    216    418    470 135.1  29.5  34230  290.77 0854.24
2009/04/23 14:22:49.4     285   -326    303    434    529 138.9  38.5  34212  290.47 0854.24
2009/04/23 14:22:49.5     247   -296    329    386    507 140.2  44.8  34242  290.98 0854.24
2009/04/23 14:22:49.6     243   -159    220    291    364 123.3  40.9  34232  290.81 0854.24
2009/04/23 14:22:49.7     180   -269    186    324    373 146.2  32.6  34218  290.55 0854.19
2009/04/23 14:22:49.8     195   -208    170    286    332 136.8  33.5  34212  290.46 0854.19
2009/04/23 14:22:49.9     179    -56     78    188    203 107.5  23.6  34208  290.38 0854.19
2009/04/23 14:22:50.0     117    -32    113    122    166 105.5  47.7  34220  290.58 0854.19
2009/04/23 14:22:50.1     194      3     70    195    207  89.1  20.7  34216  290.53 0854.19
2009/04/23 14:22:50.2     270     40    166    274    320  81.4  34.2  34214  290.49 0854.19
2009/04/23 14:22:50.3     381    308    344    491    599  51.0  38.5  34240  290.92 0854.19
2009/04/23 14:22:50.4     403    309    358    509    622  52.5  38.6  34228  290.71 0854.19
2009/04/23 14:22:50.5     276    334    238    434    494  39.6  31.3  34228  290.74 0854.19
2009/04/23 14:22:50.6     244    382    280    454    533  32.6  34.6  34216  290.51 0854.19
2009/04/23 14:22:50.7     110    330    324    349    476  18.5  47.7  34246  291.02 0854.22
2009/04/23 14:22:50.8     163    192    166    253    302  40.3  36.3  34276  291.53 0854.22
2009/04/23 14:22:50.9     120   -107    133    161    208 131.8  43.7  34274  291.52 0854.22
2009/04/23 14:22:51.0      86   -205    179    223    285 157.1  43.0  34228  290.73 0854.22
2009/04/23 14:22:51.1      36   -203    170    207    267 169.8  43.7  34228  290.71 0854.22
2009/04/23 14:22:51.2       0   -266    234    267    355 179.9  45.8  34220  290.58 0854.22
2009/04/23 14:22:51.3      69   -278    255    287    383 166.0  46.2  34222  290.64 0854.22
2009/04/23 14:22:51.4     139   -302    253    333    418 155.3  41.1  34216  290.52 0854.22
2009/04/23 14:22:51.5       5   -357    289    358    460 179.1  43.1  34224  290.67 0854.22
2009/04/23 14:22:51.6      14   -307    354    308    469 177.3  54.7  34230  290.75 0854.22
2009/04/23 14:22:51.7     -24   -259    362    261    446 185.3  60.7  34230  290.76 0854.22
2009/04/23 14:22:51.8     -26   -332    383    334    508 184.5  54.6  34216  290.51 0854.22
2009/04/23 14:22:51.9    -218   -469    376    518    640 204.9  39.5  34220  290.58 0854.22
2009/04/23 14:22:52.0    -181   -383    348    424    548 205.3  43.7  34218  290.57 0854.22
2009/04/23 14:22:52.1    -294   -449    422    537    682 213.2  42.1  34218  290.57 0854.22
2009/04/23 14:22:52.2    -262   -402    459    480    664 213.1  48.6  34220  290.58 0854.22
2009/04/23 14:22:52.3    -380   -548     84    668    674 214.8   7.2  34216  290.51 0854.22
2009/04/23 14:22:52.5    -322   -566    -20    652    653 209.6  -1.8  34230  290.77 0854.22
2009/04/23 14:22:52.5    -300   -407    -19    506    507 216.4  -2.2  34262  291.32 0854.22
2009/04/23 14:22:52.6    -322   -267   -120    419    435 230.3 -20.8  34250  291.09 0854.22
2009/04/23 14:22:52.8    -134   -294   -111    324    342 204.5 -23.7  34248  291.05 0854.24
2009/04/23 14:22:52.9    -116   -361    -69    380    387 197.9 -10.4  34220  290.59 0854.24
2009/04/23 14:22:53.0    -244   -296    -93    384    396 219.5 -13.7  34216  290.52 0854.24
2009/04/23 14:22:53.1    -153   -415     68    443    449 200.3   8.8  34216  290.53 0854.24
2009/04/23 14:22:53.2    -192   -583    -23    614    615 198.3  -2.2  34214  290.48 0854.24
2009/04/23 14:22:53.3    -181   -398     39    438    440 204.5   5.2  34208  290.38 0854.24
2009/04/23 14:22:53.4    -152   -374    115    404    421 202.2  15.9  34226  290.68 0854.24
2009/04/23 14:22:53.5    -119   -298    214    322    386 201.9  36.7  34214  290.49 0854.24
2009/04/23 14:22:53.6     -69   -318    176    326    370 192.3  30.9  34194  290.16 0854.24
2009/04/23 14:22:53.7      60   -427    229    432    488 172.0  30.2  34202  290.30 0854.24
2009/04/23 14:22:53.8      -5   -522    188    523    555 180.6  20.6  34206  290.35 0854.24
2009/04/23 14:22:53.9       9   -573    168    574    599 179.0  16.3  34204  290.31 0854.24
2009/04/23 14:22:54.0     211   -532    331    573    661 158.3  32.7  34202  290.30 0854.24
2009/04/23 14:22:54.1      90   -495    137    504    523 169.7  15.3  34206  290.34 0854.24
2009/04/23 14:22:54.2     200   -547    173    583    609 159.9  16.5  34186  290.02 0854.24
2009/04/23 14:22:54.3     212   -495    232    539    586 156.8  24.8  34186  290.00 0854.24
2009/04/23 14:22:54.4     144   -435    283    459    539 161.6  34.8  34192  290.13 0854.24
2009/04/23 14:22:54.5     239   -505    331    559    649 154.7  33.4  34204  290.33 0854.24
2009/04/23 14:22:54.6     271   -323    140    423    446 140.0  18.4  34210  290.43 0854.24
2009/04/23 14:22:54.7     107   -290    181    310    358 159.7  33.1  34204  290.33 0854.24
2009/04/23 14:22:54.8      94   -187    270    210    342 153.3  58.2  34210  290.42 0854.31
2009/04/23 14:22:54.9      36    -11    129     38    134 108.2  82.8  34230  290.77 0854.31
2009/04/23 14:22:55.0      79   -162    113    181    213 154.1  35.5  34216  290.53 0854.31
2009/04/23 14:22:55.1      62   -184     -9    195    196 161.3  -2.8  34214  290.50 0854.31
2009/04/23 14:22:55.2     -16   -149     -8    150    151 186.2  -3.2  34214  290.50 0854.31
2009/04/23 14:22:55.3      52   -166    -29    175    178 162.4  -9.6  34214  290.48 0854.31
2009/04/23 14:22:55.4       0   -120     70    121    139 180.4  32.4  34216  290.52 0854.31
2009/04/23 14:22:55.5      -3   -273     48    274    279 180.7  10.0  34220  290.58 0854.31
2009/04/23 14:22:55.6     148   -233     87    277    291 147.5  17.4  34216  290.53 0854.31
2009/04/23 14:22:55.7     247   -141    -36    285    288 119.8  -7.2  34216  290.51 0854.31
2009/04/23 14:22:55.8     126    -68   -103    144    177 118.4 -43.9  34216  290.53 0854.31
2009/04/23 14:22:55.9     138    -62   -125    152    196 114.4 -48.1  34218  290.57 0854.31
2009/04/23 14:22:56.0     253    -73   -117    264    288 106.2 -29.7  34212  290.46 0854.31
2009/04/23 14:22:56.1     446   -114     30    461    463 104.4   3.8  34198  290.22 0854.31
2009/04/23 14:22:56.2     271    -23    147    273    310  95.0  31.0  34202  290.29 0854.31
2009/04/23 14:22:56.3     220   -307    202    378    428 144.4  30.5  34206  290.34 0854.31
2009/04/23 14:22:56.4     269    -91    257    285    383 108.8  46.6  34206  290.35 0854.31
2009/04/23 14:22:56.5     181     41    256    186    316  77.0  60.5  34214  290.49 0854.31
2009/04/23 14:22:56.6     310     90    262    323    415  73.8  43.3  34204  290.32 0854.31
2009/04/23 14:22:56.7     141     36    259    146    297  75.4  68.5  34230  290.76 0854.31
2009/04/23 14:22:56.8      70    -68    198     98    220 134.4  71.9  34234  290.82 0854.34
2009/04/23 14:22:56.9      67    -20    134     70    151 106.8  70.8  34226  290.70 0854.34
2009/04/23 14:22:57.0     -15   -106    163    108    195 188.0  63.4  34224  290.67 0854.34
2009/04/23 14:22:57.1    -164   -148    241    222    327 228.0  52.7  34222  290.61 0854.34
2009/04/23 14:22:57.2    -157   -261    106    305    324 211.0  19.2  34208  290.39 0854.34
2009/04/23 14:22:57.3    -134   -447    -33    467    469 196.7  -4.1  34208  290.40 0854.34
2009/04/23 14:22:57.4    -106   -342     83    359    369 197.2  13.1  34202  290.30 0854.34
2009/04/23 14:22:57.5    -244   -214    101    325    341 228.8  17.3  34238  290.88 0854.34
2009/04/23 14:22:57.6    -211   -239    154    319    354 221.4  27.7  34222  290.64 0854.34
2009/04/23 14:22:57.7    -183   -381     21    423    424 205.7   2.9  34202  290.28 0854.34
2009/04/23 14:22:57.8     -68   -499    122    504    519 187.8  13.7  34200  290.25 0854.34
2009/04/23 14:22:57.9     -52   -389    267    393    475 187.7  37.6  34208  290.38 0854.34
2009/04/23 14:22:58.0     -81   -324    271    334    430 194.1  43.3  34222  290.62 0854.34
2009/04/23 14:22:58.1    -397   -494    127    634    647 218.8  11.3  34228  290.74 0854.34
2009/04/23 14:22:58.2     -87   -318    239    330    407 195.4  39.5  34218  290.57 0854.34
2009/04/23 14:22:58.3      70   -360    300    367    474 168.9  43.4  34218  290.55 0854.34
2009/04/23 14:22:58.4     176   -455    272    489    559 158.8  31.4  34224  290.65 0854.34
2009/04/23 14:22:58.5     254   -469    115    534    547 151.5  12.2  34230  290.75 0854.34
2009/04/23 14:22:58.6     138   -453     44    474    477 163.0   5.3  34228  290.74 0854.34
2009/04/23 14:22:58.7     -73   -346     66    354    361 192.0  10.6  34208  290.38 0854.34
2009/04/23 14:22:58.8     -35   -396     16    398    399 185.1   2.4  34210  290.42 0854.36
2009/04/23 14:22:58.9     -46   -364     21    367    368 187.2   3.3  34218  290.55 0854.36
2009/04/23 14:22:59.0      91   -262    151    278    316 160.8  30.8  34220  290.59 0854.36
2009/04/23 14:22:59.1      75   -251     76    263    274 163.3  16.3  34218  290.56 0854.36
2009/04/23 14:22:59.2     133   -125     70    183    195 133.2  22.0  34222  290.62 0854.36
2009/04/23 14:22:59.3     -38    -96      5    104    105 201.8   2.9  34214  290.50 0854.36
2009/04/23 14:22:59.4      10   -168    -15    169    170 176.6  -5.4  34214  290.48 0854.36
2009/04/23 14:22:59.5     -42   -212   -173    217    277 191.3 -47.1  34242  290.97 0854.36
2009/04/23 14:22:59.6     -43    -92    -68    102    122 204.9 -41.8  34222  290.62 0854.36
2009/04/23 14:22:59.7      91   -388    -15    399    400 166.8  -2.2  34218  290.54 0854.36
2009/04/23 14:22:59.8       1   -351    -71    352    360 179.8 -11.5  34228  290.71 0854.36
2009/04/23 14:22:59.9     -53   -223    -52    230    236 193.6 -12.9  34224  290.66 0854.36
2009/04/23 14:23:00.0    -251   -269    -33    369    371 223.0  -5.2  34214  290.49 0854.36
2009/04/23 14:23:00.1    -106   -538    -42    549    551 191.2  -4.4  34216  290.52 0854.36
2009/04/23 14:23:00.2    -139   -566      7    583    584 193.8   0.7  34198  290.20 0854.36
2009/04/23 14:23:00.3     -69   -404    142    411    435 189.8  19.1  34204  290.33 0854.36
2009/04/23 14:23:00.4    -178   -237    115    297    318 216.9  22.3  34222  290.61 0854.36
2009/04/23 14:23:00.5    -171   -177     59    247    255 224.1  13.5  34220  290.59 0854.36
2009/04/23 14:23:00.6    -279    -99    -53    297    302 250.5 -10.3  34224  290.65 0854.36
2009/04/23 14:23:00.7    -402    -60   -176    407    443 261.4 -29.5  34228  290.73 0854.36
2009/04/23 14:23:00.8    -389    -29   -211    391    444 265.6 -35.1  34200  290.24 0854.41
2009/04/23 14:23:00.9    -365     34   -247    367    442 275.4 -41.7  34152  289.44 0854.41
2009/04/23 14:23:01.0    -405     81   -295    414    508 281.4 -43.4  34152  289.45 0854.41
2009/04/23 14:23:01.1    -497     75   -283    503    577 278.6 -36.3  34162  289.62 0854.41
2009/04/23 14:23:01.2    -393     81   -233    402    464 281.7 -37.2  34156  289.49 0854.41
2009/04/23 14:23:01.3    -152     97   -249    181    307 302.5 -64.9  34172  289.78 0854.41
2009/04/23 14:23:01.4    -218     47   -203    224    302 282.2 -51.4  34150  289.39 0854.41
2009/04/23 14:23:01.5    -294     55   -183    300    351 280.6 -38.6  34142  289.25 0854.41
2009/04/23 14:23:01.6    -307     56   -182    313    362 280.5 -37.2  34148  289.37 0854.41
2009/04/23 14:23:01.7    -183     83   -175    201    266 294.4 -50.0  34148  289.36 0854.41
2009/04/23 14:23:01.8    -178    100   -284    205    350 299.3 -65.2  34150  289.39 0854.41
2009/04/23 14:23:01.9    -376    182   -305    418    517 295.9 -44.1  34142  289.27 0854.41
2009/04/23 14:23:02.0    -275    231   -334    360    491 310.0 -52.2  34148  289.36 0854.41
2009/04/23 14:23:02.1    -271     96   -287    288    406 289.5 -54.5  34158  289.54 0854.41
2009/04/23 14:23:02.2    -402    -48   -145    405    431 263.1 -19.7  34206  290.36 0854.41
2009/04/23 14:23:02.3    -356    -33   -116    358    376 264.6 -23.2  34194  290.15 0854.41
2009/04/23 14:23:02.4    -336    106   -173    353    393 287.6 -32.5  34164  289.65 0854.41
2009/04/23 14:23:02.5    -395     50   -156    399    428 277.2 -26.8  34172  289.77 0854.41
2009/04/23 14:23:02.6    -366    118   -256    385    462 287.9 -41.0  34160  289.56 0854.41
2009/04/23 14:23:02.7    -255     60   -151    262    302 283.3 -36.8  34178  289.88 0854.41
2009/04/23 14:23:02.8    -181     47   -134    188    230 284.6 -43.7  34176  289.84 0854.43
2009/04/23 14:23:02.9    -152    -16    -45    153    159 263.9 -21.5  34184  289.99 0854.43
2009/04/23 14:23:03.0    -233    -89   -193    250    315 248.9 -45.9  34174  289.81 0854.43
2009/04/23 14:23:03.1    -317   -148   -167    351    388 244.9 -31.7  34184  289.98 0854.43
2009/04/23 14:23:03.2    -229   -227   -163    323    361 225.2 -33.3  34188  290.03 0854.43
2009/04/23 14:23:03.3    -320   -205   -252    381    456 237.4 -40.9  34170  289.75 0854.43
2009/04/23 14:23:03.4    -241   -113   -228    267    351 244.8 -49.4  34178  289.88 0854.43
2009/04/23 14:23:03.5    -324    -78   -185    334    381 256.4 -35.8  34208  290.40 0854.43
2009/04/23 14:23:03.6    -247    -11   -148    248    288 267.4 -37.9  34222  290.61 0854.43
2009/04/23 14:23:03.7    -389   -167   -133    424    444 246.7 -22.4  34210  290.43 0854.43
2009/04/23 14:23:03.8    -276   -210   -135    347    372 232.7 -26.9  34218  290.57 0854.43
2009/04/23 14:23:03.9     -70   -335   -122    343    365 191.9 -19.6  34198  290.23 0854.43
2009/04/23 14:23:04.0     -34   -376   -191    378    423 185.2 -33.1  34198  290.21 0854.43
2009/04/23 14:23:04.1     -11   -318   -202    319    377 182.0 -39.9  34198  290.23 0854.43
2009/04/23 14:23:04.2      22   -320   -180    321    368 176.0 -36.1  34188  290.04 0854.43
2009/04/23 14:23:04.3      45   -294   -176    298    346 171.3 -37.9  34190  290.08 0854.43
2009/04/23 14:23:04.4       2   -293   -119    294    317 179.5 -27.6  34182  289.95 0854.43
2009/04/23 14:23:04.5      19   -307   -159    308    346 176.4 -33.8  34178  289.89 0854.43
2009/04/23 14:23:04.6       5   -356   -115    357    375 179.1 -23.0  34182  289.94 0854.43
2009/04/23 14:23:04.7     -98   -335   -110    350    368 196.4 -17.5  34180  289.91 0854.43
2009/04/23 14:23:04.8      20   -314   -211    315    379 176.2 -41.4  34182  289.94 0854.44
2009/04/23 14:23:04.9      76   -283   -173    294    341 164.9 -37.7  34176  289.83 0854.44
2009/04/23 14:23:05.0      12   -275    -89    276    289 177.3 -23.0  34178  289.86 0854.44
2009/04/23 14:23:05.1     -76   -226    -72    239    249 198.7 -21.7  34172  289.78 0854.44
2009/04/23 14:23:05.2     -19   -130    -94    132    162 188.5 -43.5  34180  289.92 0854.44
2009/04/23 14:23:05.3     -24   -109   -121    112    164 192.5 -56.6  34186  290.02 0854.44
2009/04/23 14:23:05.4      10    -45    -88     47     99 167.5 -73.7  34186  290.02 0854.44
2009/04/23 14:23:05.5      63    -52    -30     82     87 129.5 -24.8  34184  289.97 0854.44
2009/04/23 14:23:05.6    -105    -46    -29    115    119 246.0 -14.5  34178  289.89 0854.44
2009/04/23 14:23:05.7    -104    -91    -36    139    144 228.7 -14.5  34182  289.94 0854.44
2009/04/23 14:23:05.8     -46   -115      7    124    125 201.8   3.3  34184  289.99 0854.44
2009/04/23 14:23:05.9      95   -201     10    223    224 154.5   2.8  34186  290.01 0854.44
2009/04/23 14:23:06.0     251   -165    120    301    324 123.3  22.9  34188  290.05 0854.44
2009/04/23 14:23:06.1     223   -355    181    420    457 147.9  24.8  34188  290.04 0854.44
2009/04/23 14:23:06.2     305   -319    206    442    487 136.2  26.9  34192  290.10 0854.44
2009/04/23 14:23:06.3     344   -319    164    470    497 132.8  20.0  34196  290.18 0854.44
2009/04/23 14:23:06.4     308   -428    165    528    554 144.3  17.4  34184  289.99 0854.44
2009/04/23 14:23:06.5     162   -421    198    452    493 159.0  25.2  34172  289.78 0854.44
2009/04/23 14:23:06.6     168   -360    305    398    501 155.0  41.3  34186  290.00 0854.44
2009/04/23 14:23:06.7      99   -297    313    314    443 161.5  50.0  34188  290.05 0854.44
2009/04/23 14:23:06.8     -23   -251    271    253    370 185.3  52.2  34188  290.04 0854.43
2009/04/23 14:23:06.9      25   -142    227    145    269 169.8  64.6  34194  290.15 0854.43
2009/04/23 14:23:07.0      93   -461    330    471    575 168.6  38.5  34194  290.14 0854.43
2009/04/23 14:23:07.1     139   -368    294    394    491 159.2  40.6  34192  290.12 0854.43
2009/04/23 14:23:07.2     -82   -358    233    368    435 192.9  35.5  34192  290.11 0854.43
2009/04/23 14:23:07.3     -95   -387     83    399    408 193.8  11.8  34190  290.07 0854.43
2009/04/23 14:23:07.4     -43   -367      0    370    371 186.8   0.1  34188  290.06 0854.43
2009/04/23 14:23:07.5      -6   -356     -3    357    358 181.0  -0.5  34190  290.08 0854.43
2009/04/23 14:23:07.6     -11   -328     48    329    333 182.0   8.3  34190  290.08 0854.43
2009/04/23 14:23:07.7      42   -298     90    302    316 171.9  16.6  34190  290.07 0854.43
2009/04/23 14:23:07.8      78   -211    116    225    253 159.7  29.3  34196  290.17 0854.43
2009/04/23 14:23:07.9      83   -175     87    194    212 154.5  25.7  34194  290.14 0854.43
2009/04/23 14:23:08.0     144    -64    150    158    217 114.0  48.2  34198  290.23 0854.43
2009/04/23 14:23:08.1     153   -106    141    187    234 124.6  40.7  34198  290.21 0854.43
2009/04/23 14:23:08.2     191    -86    135    210    249 114.2  35.6  34204  290.32 0854.43
2009/04/23 14:23:08.3     154   -173    141    232    271 138.3  34.4  34208  290.37 0854.43
2009/04/23 14:23:08.4     154   -222    202    271    338 145.3  40.4  34216  290.53 0854.43
2009/04/23 14:23:08.5     155   -145    160    213    266 133.2  40.7  34212  290.46 0854.43
2009/04/23 14:23:08.6      83    -84    150    119    191 135.3  57.5  34220  290.58 0854.43
2009/04/23 14:23:08.7      29      0     80     30     85  90.0  78.6  34222  290.64 0854.43
2009/04/23 14:23:08.8       7    -35     69     36     77 168.4  70.8  34222  290.62 0854.44
2009/04/23 14:23:08.9       6     17     33     19     38  18.7  64.7  34222  290.64 0854.44
2009/04/23 14:23:09.0      35    146     94    151    177  13.4  35.0  34212  290.45 0854.44
2009/04/23 14:23:09.1     106    208     87    234    249  27.2  21.0  34216  290.51 0854.44
2009/04/23 14:23:09.2      24    188    112    190    220   7.3  33.4  34220  290.60 0854.44
2009/04/23 14:23:09.3      92     92    113    131    173  45.0  45.4  34220  290.58 0854.44
2009/04/23 14:23:09.4      91    110     68    144    159  39.7  27.2  34212  290.45 0854.44
2009/04/23 14:23:09.5     -24    212    -59    214    223 353.3 -15.5  34224  290.65 0854.44
2009/04/23 14:23:09.6     -30    235     37    237    240 352.7   9.0  34226  290.68 0854.44
2009/04/23 14:23:09.7     -16    217     75    218    231 355.8  19.2  34222  290.64 0854.44
2009/04/23 14:23:09.8     -70    207     11    219    220 341.3   2.9  34218  290.57 0854.44
2009/04/23 14:23:09.9    -170    287    -82    334    345 329.4 -13.9  34232  290.81 0854.44
2009/04/23 14:23:10.0      58    264     57    271    278  12.5  12.0  34220  290.59 0854.44
2009/04/23 14:23:10.1     209    196    -18    287    288  46.8  -3.7  34226  290.70 0854.44
2009/04/23 14:23:10.2     180    136     87    226    242  52.9  22.0  34236  290.85 0854.44
2009/04/23 14:23:10.3      56    200     89    208    226  15.8  24.6  34238  290.89 0854.44
2009/04/23 14:23:10.4     -39    112    212    119    243 340.4  68.3  34244  290.99 0854.44
2009/04/23 14:23:10.5     193     63     72    204    217  71.8  19.4  34246  291.03 0854.44
2009/04/23 14:23:10.6     256     81    106    269    289  72.3  22.5  34224  290.65 0854.44
2009/04/23 14:23:10.7     240     70    162    251    298  73.6  35.6  34216  290.53 0854.44
2009/04/23 14:23:10.8     236     46    193    241    308  78.8  43.0  34222  290.61 0854.47
2009/04/23 14:23:10.9     218      3    209    219    302  89.2  48.5  34222  290.61 0854.47
2009/04/23 14:23:11.0     236     -7    183    237    299  91.7  41.7  34226  290.68 0854.47
2009/04/23 14:23:11.1     184     25    107    186    214  82.0  32.7  34280  291.62 0854.47
2009/04/23 14:23:11.2     218     44    143    223    264  78.5  35.6  34310  292.11 0854.47
2009/04/23 14:23:11.3     378     -7     47    379    382  91.2   7.1  34328  292.41 0854.47
2009/04/23 14:23:11.4     252    -17    151    253    294  93.9  33.5  34326  292.40 0854.47
2009/04/23 14:23:11.5     207     42    258    212    333  78.5  56.4  34350  292.81 0854.47
2009/04/23 14:23:11.6     275      3    200    276    340  89.2  39.5  34346  292.72 0854.47
2009/04/23 14:23:11.7     205     62    243    215    324  73.2  54.2  34390  293.47 0854.47
2009/04/23 14:23:11.8     302    -61    238    309    390 101.5  41.4  34352  292.85 0854.47
2009/04/23 14:23:11.9     386    -21    223    387    446  93.2  32.6  34358  292.95 0854.47
2009/04/23 14:23:12.0     212      8    230    213    313  87.6  52.5  34334  292.52 0854.47
2009/04/23 14:23:12.1     423    101    155    436    462  76.5  20.3  34294  291.84 0854.47
2009/04/23 14:23:12.2     493    165    173    521    550  71.4  18.4  34226  290.70 0854.47
2009/04/23 14:23:12.3     355    224    310    420    522  57.7  40.1  34252  291.12 0854.47
2009/04/23 14:23:12.4     357     54    134    362    386  81.4  21.1  34274  291.51 0854.47
2009/04/23 14:23:12.5     320    127    237    345    418  68.3  37.7  34268  291.39 0854.47
2009/04/23 14:23:12.6     392     68    222    398    455  80.1  31.4  34336  292.57 0854.47
2009/04/23 14:23:12.7     377    123    285    397    488  71.9  39.3  34346  292.74 0854.47
2009/04/23 14:23:12.8     236    341    192    415    457  34.7  26.6  34214  290.48 0854.47
2009/04/23 14:23:12.9     286    284    263    404    482  45.2  36.0  34230  290.77 0854.47
2009/04/23 14:23:13.0     347    211    140    407    431  58.7  19.1  34236  290.87 0854.47
2009/04/23 14:23:13.1     284    248    173    378    415  48.8  26.2  34240  290.94 0854.47
2009/04/23 14:23:13.2     293    274    281    402    490  46.9  38.5  34250  291.11 0854.47
2009/04/23 14:23:13.3     312    244    252    397    470  52.0  35.5  34256  291.19 0854.47
2009/04/23 14:23:13.4     391    198    217    439    489  63.2  28.2  34242  290.95 0854.47
2009/04/23 14:23:13.5     408    218    208    463    507  61.8  25.8  34262  291.32 0854.47
2009/04/23 14:23:13.6     227    270    188    354    400  40.1  30.2  34246  291.03 0854.47
2009/04/23 14:23:13.7     106    356    304    372    480  16.7  43.5  34240  290.92 0854.47
2009/04/23 14:23:13.8      94    332    151    346    377  15.8  25.1  34256  291.20 0854.46
2009/04/23 14:23:13.9     176    397    131    435    455  23.9  16.8  34214  290.50 0854.46
2009/04/23 14:23:14.0      90    199    164    219    273  24.3  40.7  34240  290.92 0854.46
2009/04/23 14:23:14.1      64    225    136    235    271  16.0  32.7  34250  291.09 0854.46
2009/04/23 14:23:14.2     161    208     92    264    280  37.8  19.2  34234  290.82 0854.46
2009/04/23 14:23:14.3     228    279      5    361    362  39.2   0.9  34222  290.64 0854.46
2009/04/23 14:23:14.4     192    272      2    333    334  35.2   0.5  34240  290.93 0854.46
2009/04/23 14:23:14.5     126    153    -30    199    202  39.6  -8.8  34252  291.15 0854.46
2009/04/23 14:23:14.6      50     82      3     97     98  31.6   2.3  34262  291.32 0854.46
2009/04/23 14:23:14.7      40     48     14     63     65  39.7  13.2  34254  291.18 0854.46
2009/04/23 14:23:14.8       5     30     52     31     60   9.8  66.8  34240  290.92 0854.46
2009/04/23 14:23:14.9      50     48     66     70     96  45.9  49.0  34250  291.11 0854.46
2009/04/23 14:23:15.0      66     31     82     74    110  64.7  53.3  34250  291.09 0854.46
2009/04/23 14:23:15.1      23     45     85     51     99  27.2  66.2  34260  291.26 0854.46
2009/04/23 14:23:15.2     -35    107    138    113    178 341.7  56.4  34260  291.28 0854.46
2009/04/23 14:23:15.3     -85    106     86    137    161 321.3  35.0  34264  291.33 0854.46
2009/04/23 14:23:15.4    -116    107     50    159    167 312.7  17.7  34262  291.30 0854.46
2009/04/23 14:23:15.5    -156     23     61    158    169 278.4  22.0  34256  291.21 0854.46
2009/04/23 14:23:15.6    -148     87     86    172    192 300.4  28.2  34246  291.03 0854.46
2009/04/23 14:23:15.7    -176     49    153    183    238 285.7  44.3  34260  291.26 0854.46
2009/04/23 14:23:15.8    -137     14    130    138    189 276.1  48.2  34264  291.33 0854.47
2009/04/23 14:23:15.9    -105     67    143    125    189 302.5  54.6  34272  291.47 0854.47
2009/04/23 14:23:16.0    -102     88    114    135    176 310.9  44.5  34270  291.45 0854.47
2009/04/23 14:23:16.1     -16     92    110     94    144 349.8  55.4  34278  291.59 0854.47
2009/04/23 14:23:16.2     -15     58    152     61    163 344.8  77.4  34274  291.50 0854.47
2009/04/23 14:23:16.3     -76     11    137     77    157 278.8  68.5  34274  291.50 0854.47
2009/04/23 14:23:16.4     -91     50    129    105    166 298.9  56.4  34270  291.43 0854.47
2009/04/23 14:23:16.5     -80     63    135    103    169 308.2  58.7  34262  291.32 0854.47
2009/04/23 14:23:16.6     -19    -28     96     34    101 214.3  80.2  34280  291.62 0854.47
2009/04/23 14:23:16.7     -70    -31     50     77     91 245.6  35.6  34274  291.52 0854.47
2009/04/23 14:23:16.8     -50    -65     39     83     91 217.4  27.1  34286  291.72 0854.47
2009/04/23 14:23:16.9     -16    -83     36     85     92 191.1  24.1  34264  291.35 0854.47
2009/04/23 14:23:17.0     -87    -55     61    104    120 237.6  33.4  34286  291.71 0854.47
2009/04/23 14:23:17.1    -157   -183     54    242    249 220.5  12.6  34278  291.56 0854.47
2009/04/23 14:23:17.2    -130   -235    108    269    289 209.0  23.0  34278  291.58 0854.47
2009/04/23 14:23:17.3    -102   -186    156    213    264 208.7  39.7  34280  291.61 0854.47
2009/04/23 14:23:17.4     -33   -188    179    191    261 190.0  48.0  34270  291.44 0854.47
2009/04/23 14:23:17.5     -24   -106    163    109    196 192.9  62.7  34272  291.49 0854.47
2009/04/23 14:23:17.6     -77     -5    174     78    190 265.7  74.2  34272  291.49 0854.47
2009/04/23 14:23:17.7     -81    -50    103     96    140 238.5  52.2  34264  291.35 0854.47
2009/04/23 14:23:17.8    -113   -160     24    196    198 215.2   7.2  34266  291.38 0854.46
2009/04/23 14:23:17.9     -84   -170    -44    190    196 206.3 -13.2  34242  290.96 0854.46
2009/04/23 14:23:18.0    -133   -186    -63    229    238 215.6 -15.4  34258  291.24 0854.46
2009/04/23 14:23:18.1      31   -340     69    342    349 174.7  11.4  34246  291.03 0854.46
2009/04/23 14:23:18.2    -164   -218     73    273    283 217.0  15.0  34234  290.83 0854.46
2009/04/23 14:23:18.3    -142   -224     86    266    280 212.5  17.9  34230  290.76 0854.46
2009/04/23 14:23:18.5    -267   -243    196    362    411 227.7  30.8  34246  291.03 0854.46
2009/04/23 14:23:18.5    -179   -298    226    348    414 211.0  36.2  34268  291.42 0854.46
2009/04/23 14:23:18.6    -204   -345     82    401    410 210.7  11.6  34268  291.41 0854.46
2009/04/23 14:23:18.8     -60   -268    155    275    315 192.7  32.0  34252  291.14 0854.46
2009/04/23 14:23:18.8    -176   -197    311    265    408 221.7  55.4  34278  291.59 0854.46
2009/04/23 14:23:18.9     -84   -420    393    429    581 191.3  47.3  34272  291.47 0854.46
2009/04/23 14:23:19.1     -36   -372    449    374    584 185.6  56.3  34236  290.86 0854.46
2009/04/23 14:23:19.2     -44   -403    443    406    600 186.3  52.9  34244  291.01 0854.46
2009/04/23 14:23:19.3     -26   -403    407    404    573 183.7  50.2  34222  290.63 0854.46
2009/04/23 14:23:19.4     -73   -147    218    165    273 206.3  59.4  34290  291.78 0854.46
2009/04/23 14:23:19.5    -104   -400    326    414    526 194.7  42.2  34232  290.79 0854.46
2009/04/23 14:23:19.6     -25   -347    158    348    382 184.3  26.3  34214  290.50 0854.46
2009/04/23 14:23:19.7      32   -328    165    330    368 174.3  28.5  34218  290.54 0854.46
2009/04/23 14:23:19.8     -47   -252    166    257    305 190.6  35.6  34218  290.56 0854.46
2009/04/23 14:23:19.9     -73   -267    126    278    305 195.4  26.2  34212  290.46 0854.45
2009/04/23 14:23:20.0      -4   -168    118    169    206 181.4  38.4  34220  290.60 0854.45
2009/04/23 14:23:20.1     -67   -143     95    159    185 205.3  34.0  34218  290.57 0854.45
2009/04/23 14:23:20.2     -34    -45     89     57    105 217.0  64.6  34228  290.74 0854.45
2009/04/23 14:23:20.3      29    -15     37     33     49 117.1  53.3  34240  290.94 0854.45
2009/04/23 14:23:20.4      -1    -18     -8     19     20 184.4 -27.4  34232  290.79 0854.45
2009/04/23 14:23:20.5       2    -52    -37     53     64 177.3 -43.0  34232  290.79 0854.45
2009/04/23 14:23:20.6      20   -106    -41    108    115 169.3 -25.4  34220  290.60 0854.45
2009/04/23 14:23:20.7      -7   -239    -69    240    249 181.8 -20.8  34234  290.83 0854.45
2009/04/23 14:23:20.8     -36   -259     41    262    266 188.0   9.0  34256  291.19 0854.45
2009/04/23 14:23:20.9      92   -166    -45    190    196 151.0 -13.3  34248  291.06 0854.45
2009/04/23 14:23:21.0      -9     77   -180     78    196 352.9 -79.4  34230  290.75 0854.45
2009/04/23 14:23:21.1    -199   -271   -110    337    355 216.3 -18.2  34230  290.76 0854.45
2009/04/23 14:23:21.2    -156   -147    266    215    342 226.7  56.9  34254  291.17 0854.45
2009/04/23 14:23:21.3    -157   -130     77    205    218 230.4  21.5  34270  291.43 0854.45
2009/04/23 14:23:21.4    -129      0     57    130    141 270.0  25.1  34248  291.06 0854.45
2009/04/23 14:23:21.5    -182    -74     89    197    216 247.8  25.9  34260  291.26 0854.45
2009/04/23 14:23:21.6    -199   -206     80    287    298 223.9  15.6  34276  291.55 0854.45
2009/04/23 14:23:21.7    -189   -120     88    225    241 237.5  22.3  34248  291.07 0854.45
2009/04/23 14:23:21.8    -103   -109     96    151    178 223.3  35.5  34248  291.08 0854.45
2009/04/23 14:23:21.9    -108    -89    135    141    195 230.5  49.0  34258  291.25 0854.45
2009/04/23 14:23:22.0    -110   -122     58    165    176 222.1  19.6  34246  291.04 0854.45
2009/04/23 14:23:22.1    -137   -135     92    193    213 225.4  27.3  34240  290.92 0854.45
2009/04/23 14:23:22.2    -154    -77    -43    173    179 243.4 -13.9  34262  291.32 0854.45
2009/04/23 14:23:22.3    -133   -130     -2    187    188 225.6  -0.7  34236  290.86 0854.45
2009/04/23 14:23:22.4    -317    -93    -88    331    343 253.6 -15.0  34216  290.52 0854.45
2009/04/23 14:23:22.5    -270   -212    -65    344    351 231.9 -10.8  34232  290.79 0854.45
2009/04/23 14:23:22.6    -283   -105    -49    303    308 249.6  -9.3  34236  290.85 0854.45
2009/04/23 14:23:22.7    -374   -236    -67    443    449 237.7  -8.7  34252  291.12 0854.45
2009/04/23 14:23:22.8    -363   -285   -182    462    496 231.9 -27.1  34182  289.96 0854.45
2009/04/23 14:23:22.9    -546   -212    -42    586    588 248.7  -4.1  34240  290.93 0854.45
2009/04/23 14:23:23.0    -614   -211    -25    650    651 251.0  -2.2  34256  291.20 0854.45
2009/04/23 14:23:23.1    -412   -279     28    498    499 235.9   3.2  34238  290.91 0854.45
2009/04/23 14:23:23.2    -359     11     98    360    374 271.8  15.3  34242  290.98 0854.45
2009/04/23 14:23:23.3    -234     86    127    250    280 290.2  29.2  34258  291.24 0854.45
2009/04/23 14:23:23.4    -271    237    -57    361    366 311.2  -9.1  34242  290.98 0854.45
2009/04/23 14:23:23.5    -349    -29    -10    351    352 265.1  -1.8  34284  291.69 0854.45
2009/04/23 14:23:23.6    -534     76    -98    540    549 278.1 -10.4  34306  292.06 0854.45
2009/04/23 14:23:23.7    -425     -9   -160    426    455 268.8 -26.0  34264  291.35 0854.45
2009/04/23 14:23:23.8    -455     -6   -171    456    487 269.2 -25.9  34252  291.13 0854.45
2009/04/23 14:23:23.9    -390     52     26    394    395 277.7   3.8  34250  291.10 0854.48
2009/04/23 14:23:24.0     -51     37      0     64     65 306.0   0.8  34254  291.18 0854.48
2009/04/23 14:23:24.1    -334    -93    -40    347    350 254.3  -6.6  34250  291.10 0854.48
2009/04/23 14:23:24.2    -262     28   -154    264    305 276.2 -37.5  34234  290.83 0854.48
2009/04/23 14:23:24.3    -410    151    -72    438    444 290.3  -9.3  34240  290.92 0854.48
2009/04/23 14:23:24.4    -411   -127     51    431    435 252.8   6.8  34248  291.06 0854.48
2009/04/23 14:23:24.5    -666   -256   -158    714    732 248.9 -12.5  34208  290.40 0854.48
2009/04/23 14:23:24.6    -471   -162    -45    499    502 251.0  -5.2  34214  290.49 0854.48
2009/04/23 14:23:24.7    -538   -336   -116    635    646 238.0 -10.4  34208  290.37 0854.48
2009/04/23 14:23:24.8    -146   -452   -127    475    492 197.9 -15.1  34228  290.74 0854.48
2009/04/23 14:23:24.9     -18   -364      9    365    366 182.9   1.5  34230  290.77 0854.48
2009/04/23 14:23:25.0     -51   -451   -131    454    473 186.5 -16.2  34228  290.71 0854.48
2009/04/23 14:23:25.1      47   -251    102    256    275 169.4  23.0  34276  291.53 0854.48
2009/04/23 14:23:25.2     -72   -207    153    220    267 199.2  38.4  34284  291.67 0854.48
2009/04/23 14:23:25.3    -201   -163     76    260    271 230.9  16.3  34258  291.22 0854.48
2009/04/23 14:23:25.4     -71   -194     28    207    209 200.1   7.8  34258  291.25 0854.48
2009/04/23 14:23:25.5      38    -56    -32     68     75 145.7 -31.6  34262  291.32 0854.48
2009/04/23 14:23:25.6     -97    172    -66    198    208 330.6 -23.6  34268  291.42 0854.48
2009/04/23 14:23:25.7      67    227    -61    237    245  16.5 -14.5  34264  291.33 0854.48
2009/04/23 14:23:25.8     102    244     -1    265    266  22.7  -0.3  34248  291.07 0854.48
2009/04/23 14:23:25.9      99    146      7    177    178  34.1   2.5  34252  291.15 0854.48
2009/04/23 14:23:26.0      79     -5    149     80    169  94.3  69.6  34232  290.81 0854.48
2009/04/23 14:23:26.1    -140   -115    227    182    290 230.5  57.1  34224  290.66 0854.48
2009/04/23 14:23:26.2    -276   -273    218    389    445 225.3  31.6  34200  290.26 0854.48
2009/04/23 14:23:26.3    -307   -117     66    329    336 249.1  11.3  34228  290.72 0854.48
2009/04/23 14:23:26.4    -151    -36     97    156    183 256.3  35.2  34220  290.60 0854.48
2009/04/23 14:23:26.5     -47    -42     41     64     76 227.8  35.5  34218  290.57 0854.48
2009/04/23 14:23:26.6     -11    -89     48     90    102 187.6  30.8  34226  290.69 0854.48
2009/04/23 14:23:26.7     -30    -65     30     72     78 205.4  23.1  34224  290.67 0854.48
2009/04/23 14:23:26.8     -60   -203     98    212    233 196.7  27.1  34232  290.79 0854.48
2009/04/23 14:23:26.9    -108   -220     29    246    248 206.3   6.9  34234  290.82 0854.48
2009/04/23 14:23:27.0     -68   -217     76    228    241 197.6  18.4  34226  290.70 0854.48
2009/04/23 14:23:27.1    -136   -290    143    321    351 205.2  25.6  34220  290.60 0854.48
2009/04/23 14:23:27.2    -125   -304     89    329    341 202.4  15.1  34222  290.62 0854.48
2009/04/23 14:23:27.3    -141   -407      6    431    432 199.2   0.8  34222  290.61 0854.48
2009/04/23 14:23:27.4    -165   -386   -124    420    439 203.2 -16.5  34220  290.58 0854.48
2009/04/23 14:23:27.5    -118   -274    -80    299    310 203.4 -15.0  34222  290.63 0854.48
2009/04/23 14:23:27.6    -153    -55   -183    163    245 250.1 -58.4  34228  290.74 0854.48
2009/04/23 14:23:27.7     -66    -61   -181     90    202 227.3 -76.3  34230  290.75 0854.48
2009/04/23 14:23:27.8      20   -121   -202    123    236 170.3 -70.4  34224  290.65 0854.48
2009/04/23 14:23:27.9     -54   -331   -118    336    356 189.4 -24.6  34214  290.49 0854.47
2009/04/23 14:23:28.0      -6   -444   -131    445    464 180.9 -16.4  34216  290.51 0854.47
2009/04/23 14:23:28.1    -174    -68   -137    188    232 248.5 -44.1  34186  290.01 0854.47
2009/04/23 14:23:28.2       0   -375    174    376    414 180.0  26.6  34218  290.57 0854.47
2009/04/23 14:23:28.3    -200   -317    174    375    413 212.3  26.6  34212  290.47 0854.47
2009/04/23 14:23:28.4    -367   -450    -84    582    589 219.2  -8.3  34208  290.37 0854.47
2009/04/23 14:23:28.5    -197   -378   -181    427    463 207.6 -28.9  34190  290.07 0854.47
2009/04/23 14:23:28.6    -546   -115   -133    559    575 258.1 -13.4  34224  290.66 0854.47
2009/04/23 14:23:28.7    -411   -526   -203    668    699 218.0 -16.9  34184  289.99 0854.47
2009/04/23 14:23:28.8    -491   -310   -246    581    630 237.7 -28.7  34188  290.04 0854.47
2009/04/23 14:23:28.9    -357   -345   -146    497    518 226.0 -16.4  34188  290.05 0854.47
2009/04/23 14:23:29.0    -411   -566   -184    700    724 216.0 -14.8  34202  290.27 0854.47
2009/04/23 14:23:29.1    -494   -488     65    695    699 225.4   5.4  34206  290.34 0854.47
2009/04/23 14:23:29.2    -312   -515   -184    603    631 211.2 -17.0  34208  290.40 0854.47
2009/04/23 14:23:29.3    -318   -437   -237    541    590 216.1 -29.6  34220  290.58 0854.47
2009/04/23 14:23:29.4    -194   -307   -266    364    450 212.2 -44.1  34224  290.65 0854.47
2009/04/23 14:23:29.5    -462   -223   -181    514    544 244.2 -24.5  34216  290.52 0854.47
2009/04/23 14:23:29.6    -825   -323   -254    887    922 248.6 -20.7  34218  290.56 0854.47
2009/04/23 14:23:29.7    -697   -267    -55    747    749 249.0  -4.2  34222  290.62 0854.47
2009/04/23 14:23:29.8    -162   -447    355    476    593 200.0  40.6  34234  290.84 0854.47
2009/04/23 14:23:29.9      61   -137    193    151    245 155.9  57.9  34238  290.91 0854.47
2009/04/23 14:23:30.0    -144   -431    171    455    486 198.6  21.5  34220  290.59 0854.47
2009/04/23 14:23:30.1    -351   -339    109    489    502 226.0  12.6  34208  290.39 0854.47
2009/04/23 14:23:30.2     151   -396    -30    424    426 159.1  -4.1  34188  290.05 0854.47
2009/04/23 14:23:30.3    -133   -333     68    359    366 201.9  10.8  34214  290.49 0854.47
2009/04/23 14:23:30.4    -176   -270     60    323    329 213.2  10.6  34210  290.41 0854.47
2009/04/23 14:23:30.5     -93   -237   -115    255    279 201.4 -30.3  34216  290.51 0854.47
2009/04/23 14:23:30.6    -249    -58    119    256    282 256.7  26.6  34218  290.54 0854.47
2009/04/23 14:23:30.7    -289   -335     -2    443    444 220.8  -0.3  34204  290.33 0854.47
2009/04/23 14:23:30.8    -171   -362      1    401    402 205.3   0.2  34212  290.45 0854.47
2009/04/23 14:23:30.9      51   -470    -57    473    477 173.8  -6.9  34202  290.27 0854.47
2009/04/23 14:23:31.0     -29   -540    197    541    575 183.1  20.9  34212  290.45 0854.47
2009/04/23 14:23:31.1     239   -446    -61    507    511 151.8  -6.9  34198  290.20 0854.47
2009/04/23 14:23:31.2     271   -464    173    538    566 149.7  17.8  34184  289.97 0854.47
2009/04/23 14:23:31.3     280   -438    297    521    599 147.4  32.3  34196  290.19 0854.47
2009/04/23 14:23:31.4     136   -409    332    432    544 161.6  41.5  34196  290.17 0854.47
2009/04/23 14:23:31.5     306   -288    237    421    483 133.2  32.0  34190  290.09 0854.47
2009/04/23 14:23:31.6      63   -133    222    148    266 154.7  63.4  34196  290.19 0854.47
2009/04/23 14:23:31.7      32    -23    150     40    155 126.0  84.9  34210  290.43 0854.47
2009/04/23 14:23:31.8      43     59    196     74    209  36.1  78.6  34216  290.52 0854.47
2009/04/23 14:23:31.9     -32    -84    144     91    170 200.9  64.7  34204  290.33 0854.47
2009/04/23 14:23:32.0      88   -330    312    342    462 165.0  47.1  34204  290.31 0854.47
2009/04/23 14:23:32.1      46   -230    351    235    422 168.5  63.3  34204  290.33 0854.47
2009/04/23 14:23:32.2      10   -172    320    173    363 176.4  69.5  34206  290.36 0854.47
2009/04/23 14:23:32.3     -37   -245    392    248    463 188.7  64.7  34212  290.44 0854.47
2009/04/23 14:23:32.4     -82   -234    317    249    403 199.4  57.9  34212  290.47 0854.47
2009/04/23 14:23:32.5    -479     68    345    484    594 278.1  39.1  34226  290.70 0854.47
2009/04/23 14:23:32.6    -150    141    137    207    248 313.2  36.5  34236  290.85 0854.47
2009/04/23 14:23:32.7     -50   -290    247    295    384 189.8  44.1  34202  290.28 0854.47
2009/04/23 14:23:32.8      22   -443    222    444    496 177.1  28.6  34210  290.42 0854.47
2009/04/23 14:23:32.9      -9   -348    219    349    412 181.5  35.2  34218  290.55 0854.47
2009/04/23 14:23:33.0     -67   -331    170    339    379 191.6  28.6  34218  290.57 0854.47
2009/04/23 14:23:33.1     -69   -334    241    342    418 191.7  38.6  34218  290.55 0854.47
2009/04/23 14:23:33.2      14   -127    239    128    271 173.7  69.6  34222  290.63 0854.47
2009/04/23 14:23:33.3     -37   -145    200    150    250 194.3  59.4  34216  290.52 0854.47
2009/04/23 14:23:33.4      20     -2    141     21    142  97.9  90.0  34222  290.62 0854.47
2009/04/23 14:23:33.5     232   -200    271    307    409 130.9  45.9  34214  290.50 0854.47
2009/04/23 14:23:33.6     251     18    323    252    409  85.9  58.3  34216  290.52 0854.47
2009/04/23 14:23:33.7     232    192    159    302    341  50.4  30.1  34216  290.52 0854.47
2009/04/23 14:23:33.8     152     91    300    178    348  59.3  66.4  34218  290.56 0854.47
2009/04/23 14:23:33.9     255    162    286    303    416  57.5  48.0  34222  290.64 0854.49
2009/04/23 14:23:34.0     326    177    156    372    403  61.5  24.2  34210  290.43 0854.49
2009/04/23 14:23:34.1     243    171    167    298    341  54.9  31.7  34232  290.78 0854.49
2009/04/23 14:23:34.2     298    148    249    333    415  63.5  40.6  34256  291.20 0854.49
2009/04/23 14:23:34.3     397    142    294    422    514  70.2  38.3  34264  291.34 0854.49
2009/04/23 14:23:34.4     321    245    286    405    495  52.6  38.7  34270  291.44 0854.49
2009/04/23 14:23:34.5     277    260    279    381    472  46.8  39.9  34280  291.60 0854.49
2009/04/23 14:23:34.6     533    108    352    544    647  78.5  35.9  34260  291.28 0854.49
2009/04/23 14:23:34.7     567    -79    321    573    656  98.0  31.7  34222  290.62 0854.49
2009/04/23 14:23:34.8     605     23    375    606    712  87.8  34.6  34212  290.44 0854.49
2009/04/23 14:23:34.9     472   -115    351    486    599 103.8  39.5  34264  291.33 0854.51
2009/04/23 14:23:35.0     487   -125    448    503    673 104.4  46.2  34254  291.18 0854.51
2009/04/23 14:23:35.1     620    156    421    640    766  75.9  36.5  34202  290.28 0854.51
2009/04/23 14:23:35.2     567    101    286    577    643  79.9  28.4  34178  289.87 0854.51
2009/04/23 14:23:35.3     500    222    240    548    598  66.1  25.2  34176  289.83 0854.51
2009/04/23 14:23:35.4     430    101    292    442    529  76.7  36.6  34184  289.98 0854.51
2009/04/23 14:23:35.5     347     38    244    350    426  83.7  38.5  34188  290.04 0854.51
2009/04/23 14:23:35.6     294     29    234    296    377  84.3  42.3  34200  290.25 0854.51
2009/04/23 14:23:35.7     356     92    189    368    413  75.4  29.3  34202  290.27 0854.51
2009/04/23 14:23:35.8     282     68    166    291    335  76.5  32.3  34184  289.98 0854.51
2009/04/23 14:23:35.9      93     20    186     96    209  77.6  70.8  34254  291.18 0854.51
2009/04/23 14:23:36.0     -47     38    101     61    117 309.5  66.2  34268  291.40 0854.51
2009/04/23 14:23:36.1    -265    -78   -104    277    295 253.6 -25.9  34230  290.76 0854.51
2009/04/23 14:23:36.2    -554    100   -256    564    619 280.3 -30.6  34184  289.97 0854.51
2009/04/23 14:23:36.3    -181    267   -114    323    342 325.9 -24.4  34178  289.86 0854.51
2009/04/23 14:23:36.4       7     67    168     68    181   6.2  77.0  34178  289.87 0854.51
2009/04/23 14:23:36.5     -44    -43    156     62    167 226.0  77.4  34188  290.06 0854.51
2009/04/23 14:23:36.6      86    134    -10    160    161  32.6  -3.7  34192  290.11 0854.51
2009/04/23 14:23:36.7     -34    171    126    175    215 348.7  39.5  34174  289.82 0854.51
2009/04/23 14:23:36.8       0    250     60    251    259 359.8  13.5  34200  290.24 0854.51
2009/04/23 14:23:36.9      81    242     90    256    272  18.5  19.4  34234  290.83 0854.50
2009/04/23 14:23:37.0     -74    213    -29    226    228 340.8  -7.3  34228  290.74 0854.50
2009/04/23 14:23:37.1    -216     78   -112    230    255 290.0 -32.2  34222  290.61 0854.50
2009/04/23 14:23:37.2    -255     74   -183    266    322 286.2 -42.2  34228  290.71 0854.50
2009/04/23 14:23:37.3    -341     63    -48    347    351 280.5  -8.0  34240  290.93 0854.50
2009/04/23 14:23:37.4    -388    120   -173    407    442 287.2 -28.9  34250  291.11 0854.50
2009/04/23 14:23:37.5    -362    230   -140    430    453 302.5 -18.1  34254  291.16 0854.50
2009/04/23 14:23:37.6    -254    350   -125    433    451 324.0 -16.2  34246  291.02 0854.50
2009/04/23 14:23:37.7    -114    252    -35    277    280 335.7  -7.3  34230  290.75 0854.50
2009/04/23 14:23:37.8    -162    401    174    433    466 337.9  23.0  34240  290.92 0854.50
2009/04/23 14:23:37.9    -256    151     11    298    299 300.6   2.1  34240  290.93 0854.50
2009/04/23 14:23:38.0    -406    151     -8    434    435 290.4  -1.2  34244  291.01 0854.50
2009/04/23 14:23:38.1    -260    169    -40    311    314 303.1  -7.5  34244  291.00 0854.50
2009/04/23 14:23:38.2    -332     86   -155    344    377 284.6 -30.3  34242  290.98 0854.50
2009/04/23 14:23:38.3    -556    225   -122    601    614 292.1 -11.5  34240  290.93 0854.50
2009/04/23 14:23:38.4    -411    202   -127    459    476 296.2 -20.2  34240  290.93 0854.50
2009/04/23 14:23:38.5    -468    114     88    482    490 283.8  10.4  34238  290.90 0854.50
2009/04/23 14:23:38.6    -181   -115     84    215    230 237.5  22.5  34220  290.60 0854.50
2009/04/23 14:23:38.7     -82   -185    -11    203    204 203.8  -3.1  34222  290.64 0854.50
2009/04/23 14:23:38.8    -311   -262     -1    407    408 229.9  -0.3  34240  290.94 0854.50
2009/04/23 14:23:38.9    -460    -65    -66    465    470 261.9  -8.1  34240  290.93 0854.52
2009/04/23 14:23:39.0    -268   -249     89    367    378 227.1  13.7  34228  290.71 0854.52
2009/04/23 14:23:39.1      41   -370   -128    373    395 173.7 -18.9  34232  290.81 0854.52
2009/04/23 14:23:39.2      87   -315    -48    327    331 164.5  -8.4  34240  290.93 0854.52
2009/04/23 14:23:39.3     120   -278     15    304    305 156.6   2.9  34242  290.97 0854.52
2009/04/23 14:23:39.4     253   -178    144    310    341 125.1  27.0  34230  290.77 0854.52
2009/04/23 14:23:39.5     263    -44    156    267    309  99.6  33.1  34236  290.87 0854.52
2009/04/23 14:23:39.6     179   -172    202    249    320 133.8  43.3  34226  290.70 0854.52
2009/04/23 14:23:39.7     112   -216    178    244    302 152.6  39.7  34214  290.49 0854.52
2009/04/23 14:23:39.8     206    -97    159    228    277 115.3  38.4  34226  290.70 0854.52
2009/04/23 14:23:39.9     187   -155    173    243    298 129.6  39.3  34208  290.37 0854.52
2009/04/23 14:23:40.0      24   -300    239    302    385 175.3  42.4  34188  290.06 0854.52
2009/04/23 14:23:40.1     207   -155    102    259    278 126.9  22.8  34194  290.15 0854.52
2009/04/23 14:23:40.2     204   -141    135    249    283 124.6  30.8  34200  290.26 0854.52
2009/04/23 14:23:40.3      19   -234    199    235    307 175.1  44.3  34196  290.17 0854.52
2009/04/23 14:23:40.4      27   -285    160    287    328 174.6  31.6  34182  289.93 0854.52
2009/04/23 14:23:40.5      -8   -214    213    215    302 182.2  50.0  34190  290.07 0854.52
2009/04/23 14:23:40.6     -30   -123     52    127    137 193.8  23.1  34188  290.06 0854.52
2009/04/23 14:23:40.7    -120   -254    -11    281    282 205.3  -2.3  34188  290.05 0854.52
2009/04/23 14:23:40.8    -149   -212     43    260    264 215.1   9.5  34188  290.05 0854.52
2009/04/23 14:23:40.9     -84   -132    241    157    287 212.6  64.1  34188  290.03 0854.51
2009/04/23 14:23:41.0     -98   -209    268    231    353 205.2  54.9  34190  290.09 0854.51
2009/04/23 14:23:41.1    -103   -286    214    305    372 199.8  38.6  34172  289.77 0854.51
2009/04/23 14:23:41.2     -57   -268     94    275    291 192.0  18.9  34172  289.76 0854.51
2009/04/23 14:23:41.3     -84   -328    187    339    387 194.5  31.4  34160  289.57 0854.51
2009/04/23 14:23:41.4    -121   -355    140    376    401 198.8  21.4  34172  289.77 0854.51
2009/04/23 14:23:41.5     -42    -66    173     79    190 212.5  73.5  34196  290.19 0854.51
2009/04/23 14:23:41.6     283    -52    246    288    378 100.5  45.0  34188  290.03 0854.51
2009/04/23 14:23:41.7     330    -42    228    333    403  97.4  37.6  34190  290.08 0854.51
2009/04/23 14:23:41.8     238    -99    242    258    353 112.6  48.0  34190  290.09 0854.51
2009/04/23 14:23:41.9     294    -95    108    310    329 107.9  19.2  34190  290.09 0854.51
2009/04/23 14:23:42.0     224    -89    136    242    277 111.8  31.9  34196  290.19 0854.51
2009/04/23 14:23:42.1     261   -142    134    298    326 118.6  25.9  34190  290.09 0854.51
2009/04/23 14:23:42.2     198   -384    154    433    459 152.7  20.3  34178  289.88 0854.51
2009/04/23 14:23:42.3     118   -313    140    335    363 159.2  23.9  34188  290.03 0854.51
2009/04/23 14:23:42.4      13   -322     20    323    324 177.7   3.6  34174  289.80 0854.51
2009/04/23 14:23:42.5     278   -244     10    370    371 131.3   1.6  34182  289.94 0854.51
2009/04/23 14:23:42.6     298   -374    -88    479    488 141.5 -10.5  34176  289.83 0854.51
2009/04/23 14:23:42.7     211   -282     39    353    356 143.3   6.4  34162  289.62 0854.51
2009/04/23 14:23:42.8      70   -270    295    280    406 165.3  51.6  34172  289.76 0854.51
2009/04/23 14:23:42.9      39    -99    271    107    291 158.1  77.4  34188  290.05 0854.51
2009/04/23 14:23:43.0     250   -365    288    443    528 145.5  36.0  34198  290.22 0854.51
2009/04/23 14:23:43.1       7   -451    319    452    553 179.0  38.6  34192  290.13 0854.51
2009/04/23 14:23:43.2    -299   -360     85    469    477 219.7  10.4  34176  289.84 0854.51
2009/04/23 14:23:43.3    -198   -428    115    472    486 204.8  13.8  34182  289.96 0854.51
2009/04/23 14:23:43.4    -129   -616    -51    630    633 191.9  -4.7  34174  289.81 0854.51
2009/04/23 14:23:43.5      58   -540     27    544    545 173.8   2.9  34156  289.51 0854.51
2009/04/23 14:23:43.6     -73   -422    163    429    458 189.9  21.8  34156  289.51 0854.51
2009/04/23 14:23:43.7    -152   -468    120    493    508 198.0  13.7  34162  289.62 0854.51
2009/04/23 14:23:43.8      46   -433    118    436    452 173.9  15.2  34162  289.61 0854.51
2009/04/23 14:23:43.9      33   -695    163    696    715 177.2  13.2  34156  289.52 0854.51
2009/04/23 14:23:44.0     -79   -595    189    601    631 187.6  17.5  34160  289.57 0854.51
2009/04/23 14:23:44.1    -146   -596     96    614    622 193.8   8.9  34156  289.52 0854.51
2009/04/23 14:23:44.2    -214   -566    110    606    616 200.7  10.4  34148  289.37 0854.51
2009/04/23 14:23:44.3    -260   -485    164    551    575 208.2  16.6  34142  289.28 0854.51
2009/04/23 14:23:44.4    -236   -285    129    371    393 219.6  19.2  34152  289.42 0854.51
2009/04/23 14:23:44.5    -182   -295    281    347    446 211.7  43.3  34160  289.58 0854.51
2009/04/23 14:23:44.6       4    -61    213     62    221 175.5  83.5  34174  289.82 0854.51
2009/04/23 14:23:44.7     -91    -45     49    102    113 243.8  27.2  34166  289.69 0854.51
2009/04/23 14:23:44.8      -1     24    -13     25     28 357.3 -33.7  34172  289.77 0854.51
2009/04/23 14:23:44.9     -65    -81     79    105    131 218.7  41.2  34172  289.77 0854.50
2009/04/23 14:23:45.0     -51     80     39     96    103 327.5  23.0  34168  289.70 0854.50
2009/04/23 14:23:45.1    -103     39    -57    111    124 290.8 -33.7  34166  289.69 0854.50
2009/04/23 14:23:45.3     -19     60   -142     64    155 342.2 -78.4  34174  289.80 0854.50
2009/04/23 14:23:45.4     -27    102   -112    106    154 344.9 -56.0  34176  289.84 0854.50
2009/04/23 14:23:45.5    -177    144    -64    229    237 309.1 -20.2  34162  289.59 0854.50
2009/04/23 14:23:45.5    -212     67    -71    223    234 287.7 -23.3  34160  289.57 0854.50
2009/04/23 14:23:45.7    -216     24    -12    218    219 276.6  -3.2  34166  289.69 0854.50
2009/04/23 14:23:45.8    -250    136    -24    285    287 298.6  -4.9  34168  289.71 0854.50
2009/04/23 14:23:45.9    -122     62     53    138    147 297.0  22.0  34174  289.82 0854.50
2009/04/23 14:23:46.0     -10    105    -39    106    112 354.2 -24.8  34168  289.72 0854.50
2009/04/23 14:23:46.1      91     66    -32    113    117  54.1 -20.7  34174  289.80 0854.50
2009/04/23 14:23:46.2      -5    108    -33    109    114 357.3 -17.0  34162  289.62 0854.50
2009/04/23 14:23:46.3      -9    -91   -155     92    180 185.8 -71.2  34160  289.57 0854.50
2009/04/23 14:23:46.4    -221    -97   -110    242    265 246.3 -30.6  34158  289.54 0854.50
2009/04/23 14:23:46.5    -507    -80   -154    514    536 261.0 -21.7  34158  289.53 0854.50
2009/04/23 14:23:46.6    -465    -60   -250    469    531 262.6 -34.7  34150  289.39 0854.50
2009/04/23 14:23:46.7    -616    -65   -195    620    649 263.9 -22.4  34162  289.59 0854.50
2009/04/23 14:23:46.8    -441   -118   -157    457    484 255.0 -19.0  34158  289.54 0854.50
2009/04/23 14:23:46.9    -460      4   -132    461    479 270.6 -20.7  34176  289.84 0854.50
2009/04/23 14:23:47.0    -441     64   -135    446    467 278.3 -16.9  34174  289.82 0854.52
2009/04/23 14:23:47.1    -535    -37    -67    537    542 266.0  -7.2  34164  289.63 0854.52
2009/04/23 14:23:47.2    -615   -105    -58    624    627 260.3  -5.3  34170  289.74 0854.52
2009/04/23 14:23:47.3    -536    -95   -101    545    555 259.9 -10.5  34168  289.72 0854.52
2009/04/23 14:23:47.4    -562     19   -122    563    577 272.0 -12.3  34164  289.64 0854.52
2009/04/23 14:23:47.5    -460     46   -139    463    484 275.8 -16.8  34170  289.73 0854.52
2009/04/23 14:23:47.6    -394     58    -76    399    407 278.4 -10.8  34166  289.68 0854.52
2009/04/23 14:23:47.7    -455    117   -148    470    492 284.5 -22.5  34162  289.61 0854.52
2009/04/23 14:23:47.8    -496    133   -142    514    534 285.0 -15.5  34164  289.63 0854.52
2009/04/23 14:23:47.9    -509     70   -119    514    528 277.9 -13.1  34180  289.90 0854.52
2009/04/23 14:23:48.0    -432     29    -55    433    437 273.9  -7.3  34168  289.72 0854.52
2009/04/23 14:23:48.1    -394     -3    -78    395    403 269.5 -11.2  34172  289.77 0854.52
2009/04/23 14:23:48.2    -359   -113   -102    377    391 252.4 -15.2  34182  289.94 0854.52
2009/04/23 14:23:48.3    -381   -134   -125    404    422 250.6 -22.3  34200  290.24 0854.52
2009/04/23 14:23:48.4    -331   -199   -141    387    411 239.0 -25.4  34198  290.22 0854.52
2009/04/23 14:23:48.5    -258   -108    -87    280    294 247.3 -17.3  34180  289.92 0854.52
2009/04/23 14:23:48.6    -195    -46    -40    201    205 256.7 -11.3  34190  290.08 0854.52
2009/04/23 14:23:48.7    -358      2    -59    359    364 270.4  -9.3  34174  289.81 0854.52
2009/04/23 14:23:48.8    -301    143   -122    334    355 295.4 -25.4  34178  289.86 0854.52
2009/04/23 14:23:48.9    -367     39   -109    370    386 276.1 -16.5  34194  290.15 0854.52
2009/04/23 14:23:49.0    -338    -25   -166    339    377 265.6 -32.4  34192  290.11 0854.51
2009/04/23 14:23:49.1    -437     13   -107    438    452 271.7 -13.8  34206  290.34 0854.51
2009/04/23 14:23:49.2    -494    -62    -58    498    502 262.8  -6.7  34202  290.29 0854.51
2009/04/23 14:23:49.3    -625     56    -58    628    631 275.2  -5.4  34192  290.11 0854.51
2009/04/23 14:23:49.4    -563     78   -103    569    579 277.9 -10.3  34188  290.05 0854.51
2009/04/23 14:23:49.5    -534    126    -21    549    550 283.3  -2.3  34180  289.92 0854.51
2009/04/23 14:23:49.6    -466    225    185    518    550 295.8  20.4  34196  290.18 0854.51
2009/04/23 14:23:49.7    -443    193    170    484    514 293.5  19.4  34196  290.18 0854.51
2009/04/23 14:23:49.8    -320    250    138    407    431 308.0  18.8  34190  290.07 0854.51
2009/04/23 14:23:49.9    -313    211     99    378    391 304.1  14.7  34188  290.04 0854.51
2009/04/23 14:23:50.0     -69   -107    191    128    229 213.0  63.2  34218  290.55 0854.51
2009/04/23 14:23:50.1    -269   -165     88    316    329 238.5  15.6  34192  290.12 0854.51
2009/04/23 14:23:50.2    -222   -102     -9    245    246 245.2  -2.2  34196  290.19 0854.51
2009/04/23 14:23:50.3    -106     48      1    117    118 294.4   0.8  34202  290.28 0854.51
2009/04/23 14:23:50.4     -40    174    117    179    213 346.9  36.0  34200  290.26 0854.51
2009/04/23 14:23:50.5    -131    144     36    195    199 317.7  10.6  34190  290.09 0854.51
2009/04/23 14:23:50.6    -199     14      4    200    201 274.3   1.2  34194  290.14 0854.51
2009/04/23 14:23:50.7    -172    -95      8    197    198 241.1   2.5  34194  290.14 0854.51
2009/04/23 14:23:50.8    -184   -147     21    236    237 231.4   5.2  34200  290.24 0854.51
2009/04/23 14:23:50.9     -62   -238    -47    247    252 194.7 -10.9  34190  290.07 0854.51
2009/04/23 14:23:51.0    -102   -367    -23    382    383 195.6  -3.5  34182  289.94 0854.51
2009/04/23 14:23:51.1     -30   -315    -85    317    329 185.6 -15.1  34184  289.98 0854.51
2009/04/23 14:23:51.2      80   -306    -41    317    320 165.3  -7.4  34192  290.12 0854.51
2009/04/23 14:23:51.3     189   -268     37    328    331 144.8   6.5  34192  290.10 0854.51
2009/04/23 14:23:51.4      92   -154     38    180    185 149.0  12.2  34192  290.13 0854.51
2009/04/23 14:23:51.5      66   -189     12    201    202 160.6   3.6  34186  290.02 0854.51
2009/04/23 14:23:51.6      22   -355    -78    356    365 176.4 -12.4  34182  289.96 0854.51
2009/04/23 14:23:51.7     -46    -92   -250    104    270 206.7 -80.5  34198  290.23 0854.51
2009/04/23 14:23:51.8      37     -7   -126     38    131 101.5 -87.1  34200  290.25 0854.51
2009/04/23 14:23:51.9     130     35   -116    135    177  74.9 -49.5  34182  289.96 0854.51
2009/04/23 14:23:52.0     153     11    -77    154    172  85.6 -32.6  34190  290.08 0854.51
2009/04/23 14:23:52.1     166     62    -60    178    187  69.4 -23.3  34182  289.96 0854.51
2009/04/23 14:23:52.2      60     83    -83    103    132  36.1 -48.1  34194  290.16 0854.51
2009/04/23 14:23:52.3      64     15   -121     66    137  76.7 -73.3  34192  290.11 0854.51
2009/04/23 14:23:52.4     112    -61   -155    128    201 118.9 -60.8  34190  290.09 0854.51
2009/04/23 14:23:52.5     120   -129   -109    177    207 137.2 -39.2  34182  289.96 0854.51
2009/04/23 14:23:52.6     200    -72   -156    213    264 109.9 -44.1  34184  289.97 0854.51
2009/04/23 14:23:52.7      72    -72   -140    102    173 135.0 -64.9  34184  289.97 0854.51
2009/04/23 14:23:52.8      -3      8     53      9     53 334.6  90.0  34176  289.85 0854.51
2009/04/23 14:23:52.9     101     69    147    123    191  55.8  56.1  34182  289.94 0854.51
2009/04/23 14:23:53.0     147    223    133    268    299  33.4  28.2  34182  289.95 0854.48
2009/04/23 14:23:53.1     165    155    127    227    260  46.8  31.4  34182  289.95 0854.48
2009/04/23 14:23:53.2     118    181    132    217    253  33.0  34.4  34192  290.12 0854.48
2009/04/23 14:23:53.3     147    190    130    241    273  37.6  30.6  34200  290.26 0854.48
2009/04/23 14:23:53.4     208    128     80    245    258  58.5  18.1  34232  290.78 0854.48
2009/04/23 14:23:53.5     236    150    108    280    300  57.5  22.1  34288  291.73 0854.48
2009/04/23 14:23:53.6     262    166     95    311    326  57.6  17.0  34290  291.77 0854.48
2009/04/23 14:23:53.7     333    149    100    365    379  65.9  15.4  34274  291.52 0854.48
2009/04/23 14:23:53.8     372    146     83    400    409  68.5  11.8  34238  290.90 0854.48
2009/04/23 14:23:53.9     179    123    151    218    265  55.4  38.4  34280  291.60 0854.48
2009/04/23 14:23:54.0     100     81     79    129    151  50.9  35.0  34322  292.32 0854.48
2009/04/23 14:23:54.1     -57    247    183    254    313 346.9  39.2  34264  291.33 0854.48
2009/04/23 14:23:54.2     219    160    231    272    356  53.8  44.8  34284  291.69 0854.48
2009/04/23 14:23:54.3     366    242    192    439    479  56.5  25.2  34258  291.25 0854.48
2009/04/23 14:23:54.4     270    349    206    442    487  37.7  26.9  34222  290.62 0854.48
2009/04/23 14:23:54.5     343    368    189    504    538  43.0  21.5  34266  291.38 0854.48
2009/04/23 14:23:54.6     517    296    123    596    609  60.2  11.7  34272  291.46 0854.48
2009/04/23 14:23:54.7     555    273    217    619    655  63.8  20.1  34320  292.29 0854.48
2009/04/23 14:23:54.8     526    556    148    766    781  43.4  11.0  34272  291.49 0854.48
2009/04/23 14:23:54.9     767    225    255    800    840  73.6  17.7  34338  292.61 0854.48
2009/04/23 14:23:55.0     747    178    208    768    796  76.6  15.2  34312  292.14 0854.48
2009/04/23 14:23:55.1     436    359    215    565    604  50.5  22.0  34240  290.92 0854.48
2009/04/23 14:23:55.2     434    517    278    676    730  40.0  23.6  34192  290.13 0854.48
2009/04/23 14:23:55.3     358    263    136    445    466  53.7  17.1  34192  290.12 0854.48
2009/04/23 14:23:55.4     294    172     73    341    349  59.7  12.2  34192  290.10 0854.48
2009/04/23 14:23:55.5     -62    357    337    363    495 350.1  47.8  34202  290.29 0854.48
2009/04/23 14:23:55.6     -89    295    186    309    360 343.1  33.8  34196  290.18 0854.48
2009/04/23 14:23:55.7    -142    335    101    365    379 337.0  15.6  34202  290.27 0854.48
2009/04/23 14:23:55.8      -4    281     50    282    287 359.1  10.1  34198  290.22 0854.48
2009/04/23 14:23:55.9     -31    104   -129    109    168 343.1 -60.2  34170  289.75 0854.48
2009/04/23 14:23:56.0      50    148   -173    157    233  18.7 -57.4  34178  289.87 0854.48
2009/04/23 14:23:56.1      71    118    -49    138    147  31.2 -19.7  34174  289.80 0854.48
2009/04/23 14:23:56.2     168     26    -21    170    172  81.2  -7.2  34182  289.96 0854.48
2009/04/23 14:23:56.3     205    179    130    273    302  48.9  27.3  34236  290.85 0854.48
2009/04/23 14:23:56.4     440    290    286    528    600  56.6  30.9  34230  290.75 0854.48
2009/04/23 14:23:56.5     339    247    118    420    437  53.9  15.8  34186  290.02 0854.48
2009/04/23 14:23:56.6     284    229    129    365    388  51.1  19.6  34226  290.69 0854.48
2009/04/23 14:23:56.7     416    132    189    437    476  72.3  24.9  34218  290.55 0854.48
2009/04/23 14:23:56.8     295    107    180    315    362  70.0  32.3  34214  290.49 0854.48
2009/04/23 14:23:56.9      58     17     98     61    115  73.2  64.7  34210  290.43 0854.48
2009/04/23 14:23:57.0     333     40    -13    336    337  83.1  -2.2  34170  289.74 0854.50
2009/04/23 14:23:57.1     511     52    -20    514    515  84.1  -2.2  34168  289.71 0854.50
2009/04/23 14:23:57.2     323    211    180    387    426  56.8  27.0  34172  289.77 0854.50
2009/04/23 14:23:57.3     279    100      9    297    298  70.3   1.8  34184  289.97 0854.50
2009/04/23 14:23:57.4     269    161     44    314    318  59.1   8.0  34206  290.34 0854.50
2009/04/23 14:23:57.5     319    150    154    353    385  64.8  25.1  34172  289.79 0854.50
2009/04/23 14:23:57.6     299    192    225    356    421  57.2  35.5  34174  289.82 0854.50
2009/04/23 14:23:57.7     403    318    208    514    554  51.7  23.4  34186  290.02 0854.50
2009/04/23 14:23:57.8     209    236    150    316    349  41.4  27.2  34198  290.20 0854.50
2009/04/23 14:23:57.9     273    154    170    314    357  60.5  30.8  34188  290.06 0854.50
2009/04/23 14:23:58.0     444    164    172    474    504  69.7  20.8  34206  290.35 0854.50
2009/04/23 14:23:58.1     497    116    221    511    556  76.8  25.1  34232  290.79 0854.50
2009/04/23 14:23:58.2     358     72    186    366    410  78.5  29.2  34234  290.83 0854.50
2009/04/23 14:23:58.3     469    104      6    481    482  77.5   0.8  34190  290.08 0854.50
2009/04/23 14:23:58.4     404    111     73    420    427  74.6   9.9  34174  289.80 0854.50
2009/04/23 14:23:58.5     413    105    167    427    458  75.7  22.5  34230  290.77 0854.50
2009/04/23 14:23:58.6     280    223    242    359    432  51.5  37.4  34326  292.40 0854.50
2009/04/23 14:23:58.7     467    149    263    491    557  72.3  30.3  34276  291.55 0854.50
2009/04/23 14:23:58.8     440     49    275    443    521  83.6  34.9  34276  291.53 0854.50
2009/04/23 14:23:58.9     327    123    248    350    428  69.4  38.7  34330  292.45 0854.50
2009/04/23 14:23:59.0     155    170    261    231    348  42.3  54.0  34288  291.73 0854.52
2009/04/23 14:23:59.1     522    196    306    558    636  69.4  31.2  34276  291.53 0854.52
2009/04/23 14:23:59.2     435     97    158    446    474  77.4  19.6  34258  291.24 0854.52
2009/04/23 14:23:59.3     335    216    173    399    434  57.1  25.1  34274  291.50 0854.52
2009/04/23 14:23:59.4     466    147    243    489    546  72.5  28.4  34290  291.79 0854.52
2009/04/23 14:23:59.5     536    250     61    592    596  65.0   5.9  34266  291.38 0854.52
2009/04/23 14:23:59.6     548    248    218    602    641  65.6  19.9  34288  291.73 0854.52
2009/04/23 14:23:59.7     611    407    176    735    756  56.3  13.5  34228  290.72 0854.52
2009/04/23 14:23:59.8     506    491     98    706    713  45.9   7.9  34208  290.39 0854.52
2009/04/23 14:23:59.9     637    367     -7    736    737  60.1  -0.6  34224  290.65 0854.52
2009/04/23 14:24:00.0     591    268    125    650    663  65.6  10.9  34250  291.11 0854.51
2009/04/23 14:24:00.1     499    118     13    513    514  76.6   1.5  34226  290.68 0854.51
2009/04/23 14:24:00.2     484    235     77    539    545  64.1   8.2  34232  290.80 0854.51
2009/04/23 14:24:00.3     448    163    -29    478    479  70.0  -3.5  34232  290.78 0854.51
2009/04/23 14:24:00.4     471    259     30    538    539  61.1   3.2  34222  290.62 0854.51
2009/04/23 14:24:00.5     265    151    123    306    329  60.3  22.9  34238  290.88 0854.51
2009/04/23 14:24:00.6     312     92     54    326    331  73.5   9.5  34234  290.83 0854.51
2009/04/23 14:24:00.7     407    184     63    447    452  65.6   8.1  34248  291.07 0854.51
2009/04/23 14:24:00.8     402    293    130    498    515  53.9  14.7  34242  290.98 0854.51
2009/04/23 14:24:00.9     234    366    244    435    498  32.6  31.7  34252  291.15 0854.51
2009/04/23 14:24:01.0     290    300    167    418    450  44.1  23.0  34220  290.58 0854.51
2009/04/23 14:24:01.1     441    206    178    487    518  65.0  21.0  34238  290.91 0854.51
2009/04/23 14:24:01.2     376    158    168    408    441  67.2  23.7  34264  291.33 0854.51
2009/04/23 14:24:01.3     368    167    236    405    468  65.6  32.9  34308  292.08 0854.51
2009/04/23 14:24:01.4     270    161    170    315    357  59.3  30.7  34294  291.85 0854.51
2009/04/23 14:24:01.5     -32    261    275    264    381 352.9  51.4  34288  291.73 0854.51
2009/04/23 14:24:01.6     286    282    302    402    502  45.4  40.7  34236  290.86 0854.51
2009/04/23 14:24:01.7     224    110    182    250    309  63.8  39.7  34266  291.36 0854.51
2009/04/23 14:24:01.8     310     24    239    312    393  85.4  41.4  34278  291.59 0854.51
2009/04/23 14:24:01.9     452    143    210    475    519  72.4  25.3  34252  291.12 0854.51
2009/04/23 14:24:02.0     444    155    172    471    501  70.7  20.9  34242  290.96 0854.54
2009/04/23 14:24:02.1     347    243    148    424    450  55.0  19.3  34238  290.89 0854.54
2009/04/23 14:24:02.2     261    246    101    360    374  46.7  15.7  34210  290.43 0854.54
2009/04/23 14:24:02.3     167    245     99    297    314  34.3  18.4  34198  290.22 0854.54
2009/04/23 14:24:02.4     113    249    197    274    337  24.5  39.3  34232  290.78 0854.54
2009/04/23 14:24:02.5     239    256     58    351    356  43.0   9.5  34218  290.54 0854.54
2009/04/23 14:24:02.6     157    265    100    308    324  30.7  18.0  34232  290.80 0854.54
2009/04/23 14:24:02.7     167    229    118    284    307  36.1  23.8  34254  291.17 0854.54
2009/04/23 14:24:02.8     210    186    214    281    353  48.4  41.2  34338  292.61 0854.54
2009/04/23 14:24:02.9     242    151    210    286    354  58.0  39.9  34296  291.88 0854.54
2009/04/23 14:24:03.0     234    200     89    308    321  49.5  16.1  34266  291.38 0854.54
2009/04/23 14:24:03.1     169    244    102    298    316  34.7  18.9  34274  291.50 0854.54
2009/04/23 14:24:03.2     156    338    148    373    401  24.8  22.9  34234  290.83 0854.54
2009/04/23 14:24:03.3      70    344     74    352    360  11.6  12.0  34268  291.40 0854.54
2009/04/23 14:24:03.4     182    274     98    329    344  33.6  16.7  34254  291.17 0854.54
2009/04/23 14:24:03.5     138    304    158    335    370  24.5  27.1  34272  291.47 0854.54
2009/04/23 14:24:03.6     191    238      3    306    307  38.7   0.7  34280  291.61 0854.54
2009/04/23 14:24:03.7     203    286     55    351    356  35.4   8.9  34282  291.66 0854.54
2009/04/23 14:24:03.8     262    385    -26    467    468  34.3  -3.3  34244  291.00 0854.54
2009/04/23 14:24:03.9     225    405   -129    464    481  29.0 -20.2  34208  290.39 0854.54
2009/04/23 14:24:04.0    -151    352   -180    384    424 336.8 -31.5  34180  289.92 0854.43
2009/04/23 14:24:04.1    -251    187   -245    314    398 306.8 -46.3  34172  289.76 0854.43
2009/04/23 14:24:04.2    -118     85   -272    146    308 306.0 -74.0  34186  290.00 0854.43
2009/04/23 14:24:04.3     -46    173   -234    180    295 345.1 -62.9  34190  290.09 0854.43
2009/04/23 14:24:04.4    -129    109   -297    170    342 310.2 -72.1  34198  290.22 0854.43
2009/04/23 14:24:04.5      78     94   -211    123    244  39.7 -71.4  34194  290.14 0854.43
2009/04/23 14:24:04.6     155    -16   -163    156    225  96.1 -56.0  34202  290.28 0854.43
2009/04/23 14:24:04.7     521    -76    -42    527    529  98.4  -4.6  34214  290.48 0854.43
2009/04/23 14:24:04.8     684   -124    -96    696    703 100.3  -7.9  34218  290.57 0854.43
2009/04/23 14:24:04.9     361   -229   -205    428    474 122.4 -31.7  34232  290.80 0854.43
2009/04/23 14:24:05.0     403    -23    -27    404    405  93.3  -3.9  34230  290.77 0854.43
2009/04/23 14:24:05.1     389     54     11    393    394  82.1   1.7  34238  290.91 0854.43
2009/04/23 14:24:05.2     219     -9     25    220    222  92.5   6.5  34240  290.92 0854.43
2009/04/23 14:24:05.3     170    -41    -18    175    176 103.7  -6.0  34232  290.81 0854.43
2009/04/23 14:24:05.4     145    135    -92    199    219  47.1 -31.0  34258  291.25 0854.43
2009/04/23 14:24:05.5     338    167    113    378    395  63.7  16.7  34248  291.08 0854.43
2009/04/23 14:24:05.7     335    140    159    364    397  67.3  25.1  34292  291.81 0854.43
2009/04/23 14:24:05.7     212    144    -24    257    259  55.9  -5.4  34238  290.88 0854.43
2009/04/23 14:24:05.8     315     98     33    330    332  72.7   5.8  34222  290.64 0854.43
2009/04/23 14:24:05.9     243    189    -77    308    318  52.2 -14.1  34232  290.78 0854.43
2009/04/23 14:24:06.0     313    112    -16    333    334  70.2  -2.8  34214  290.50 0854.40
2009/04/23 14:24:06.1     249     -4    139    250    286  91.0  31.4  34292  291.80 0854.40
2009/04/23 14:24:06.2      90      6    158     91    182  86.1  67.5  34302  292.00 0854.40
2009/04/23 14:24:06.3     -53     42     89     68    112 308.6  58.5  34302  291.98 0854.40
2009/04/23 14:24:06.4      80     99    -16    128    130  38.7  -7.2  34228  290.72 0854.40
2009/04/23 14:24:06.5     -39    119    -14    126    127 341.7  -6.7  34226  290.69 0854.40
2009/04/23 14:24:06.6     -96    157     -1    185    186 328.6  -0.5  34218  290.55 0854.40
2009/04/23 14:24:06.7    -206    227     -3    307    308 317.7  -0.7  34228  290.73 0854.40
2009/04/23 14:24:06.8    -124    215     88    249    265 330.1  19.4  34216  290.51 0854.40
2009/04/23 14:24:06.9    -220     16    -17    221    222 274.4  -4.6  34200  290.25 0854.40
2009/04/23 14:24:07.0    -224     34   -107    227    250 278.8 -31.5  34178  289.86 0854.40
2009/04/23 14:24:07.1    -277    -35   -245    280    372 262.8 -50.2  34174  289.81 0854.40
2009/04/23 14:24:07.2    -169     49   -266    176    318 286.2 -67.8  34208  290.37 0854.40
2009/04/23 14:24:07.3     -79    292   -250    303    392 344.8 -48.1  34216  290.52 0854.40
2009/04/23 14:24:07.4     -14    310    -33    311    313 357.3  -6.2  34214  290.49 0854.40
2009/04/23 14:24:07.5     -32    134    296    138    326 346.2  73.4  34224  290.65 0854.40
2009/04/23 14:24:07.6    -248    117    216    275    349 295.2  42.2  34248  291.05 0854.40
2009/04/23 14:24:07.7    -371     -7     90    372    383 268.8  13.7  34254  291.17 0854.40
2009/04/23 14:24:07.8    -312   -212    142    378    403 235.7  21.6  34232  290.79 0854.40
2009/04/23 14:24:07.9    -299   -346    168    458    487 220.9  21.1  34248  291.05 0854.40
2009/04/23 14:24:08.0    -492   -109      7    505    506 257.5   0.8  34254  291.17 0854.38
2009/04/23 14:24:08.1    -619   -135    -49    634    637 257.6  -4.5  34230  290.77 0854.38
2009/04/23 14:24:08.2    -681    -89   -144    687    703 262.5 -11.9  34242  290.96 0854.38
2009/04/23 14:24:08.3    -833    -49    -68    835    838 266.6  -4.7  34232  290.80 0854.38
2009/04/23 14:24:08.4    -513    -23    -56    514    518 267.4  -6.2  34218  290.57 0854.38
2009/04/23 14:24:08.5    -464     25   -148    465    488 273.1 -17.7  34212  290.47 0854.38
2009/04/23 14:24:08.6    -597   -158   -250    618    666 255.1 -27.6  34202  290.28 0854.38
2009/04/23 14:24:08.7    -629   -162   -278    650    706 255.5 -29.0  34182  289.95 0854.38
2009/04/23 14:24:08.8    -538   -274   -194    604    634 243.0 -22.9  34238  290.88 0854.38
2009/04/23 14:24:08.9    -417   -328   -184    531    561 231.8 -24.3  34198  290.21 0854.38
2009/04/23 14:24:09.0    -390   -335   -166    515    541 229.4 -22.9  34202  290.30 0854.38
2009/04/23 14:24:09.1    -452   -294   -222    540    583 236.9 -28.0  34192  290.12 0854.38
2009/04/23 14:24:09.2    -485   -211   -164    529    553 246.5 -22.2  34210  290.41 0854.38
2009/04/23 14:24:09.3    -400   -125   -147    420    446 252.6 -19.3  34190  290.07 0854.38
2009/04/23 14:24:09.4    -532     31    -51    533    536 273.4  -5.5  34196  290.19 0854.38
2009/04/23 14:24:09.5    -317    176   -161    363    397 299.0 -30.0  34242  290.96 0854.38
2009/04/23 14:24:09.6    -295     79   -121    306    329 285.1 -27.1  34188  290.05 0854.38
2009/04/23 14:24:09.7    -382     70    -46    389    392 280.5  -6.9  34218  290.54 0854.38
2009/04/23 14:24:09.8    -378     -8    -19    379    380 268.7  -3.0  34224  290.66 0854.38
2009/04/23 14:24:09.9    -307    118    -96    329    342 291.1 -21.0  34248  291.08 0854.38
2009/04/23 14:24:10.0    -374     -5    -60    375    380 269.2  -9.1  34248  291.06 0854.45
2009/04/23 14:24:10.1    -347      4    -37    348    351 270.8  -6.1  34252  291.13 0854.45
2009/04/23 14:24:10.2    -273     66    -78    281    292 283.7 -15.5  34264  291.33 0854.45
2009/04/23 14:24:10.3    -227    111   -119    253    279 296.2 -31.5  34266  291.38 0854.45
2009/04/23 14:24:10.4    -229     75   -131    242    275 288.2 -35.0  34256  291.21 0854.45
2009/04/23 14:24:10.5    -206      9    -68    207    219 272.6 -18.3  34258  291.25 0854.45
2009/04/23 14:24:10.6    -281     53   -187    287    342 280.8 -40.4  34254  291.16 0854.45
2009/04/23 14:24:10.7    -253     52   -153    259    300 281.7 -37.9  34246  291.04 0854.45
2009/04/23 14:24:10.8    -352     10   -145    353    381 271.7 -28.0  34220  290.59 0854.45
2009/04/23 14:24:10.9    -268     92   -155    284    323 289.1 -35.3  34212  290.44 0854.45
2009/04/23 14:24:11.0    -202     67      3    213    214 288.4   1.0  34250  291.11 0854.45
2009/04/23 14:24:11.1    -204    200    117    286    309 314.4  23.1  34242  290.97 0854.45
2009/04/23 14:24:11.2    -332    169    -62    373    379 297.1  -9.5  34250  291.11 0854.45
2009/04/23 14:24:11.3    -413    150   -129    440    459 290.0 -16.4  34220  290.60 0854.45
2009/04/23 14:24:11.4    -455     64    -79    460    467 278.0  -9.8  34222  290.61 0854.45
2009/04/23 14:24:11.5    -512      6     61    513    517 270.7   6.8  34214  290.49 0854.45
2009/04/23 14:24:11.7    -420    147    265    446    518 289.3  33.5  34238  290.88 0854.45
2009/04/23 14:24:11.8    -389    149    189    417    457 291.1  26.2  34224  290.65 0854.45
2009/04/23 14:24:11.8    -320    189    158    372    404 300.7  24.5  34214  290.50 0854.45
2009/04/23 14:24:12.0    -208    155    152    260    301 306.8  33.4  34206  290.36 0854.45
2009/04/23 14:24:12.1    -214    218     32    306    308 315.5   6.0  34206  290.36 0854.48
2009/04/23 14:24:12.2    -241    164    175    292    340 304.2  33.8  34210  290.42 0854.48
2009/04/23 14:24:12.3    -223     76    189    236    302 288.8  42.7  34224  290.66 0854.48
2009/04/23 14:24:12.4    -108    -36    116    114    162 251.4  50.1  34236  290.86 0854.48
2009/04/23 14:24:12.5     -82     84    186    118    220 315.9  64.7  34242  290.98 0854.48
2009/04/23 14:24:12.6      32     58    134     67    149  29.0  71.9  34244  290.99 0854.48
2009/04/23 14:24:12.7     149    234    193    278    338  32.5  38.3  34194  290.15 0854.48
2009/04/23 14:24:12.8     241    199    236    313    392  50.4  40.8  34192  290.11 0854.48
2009/04/23 14:24:12.9     303    185    124    356    378  58.6  19.3  34204  290.32 0854.48
2009/04/23 14:24:13.0     376    292     12    477    478  52.2   1.5  34202  290.27 0854.48
2009/04/23 14:24:13.1     197    282     59    345    350  35.0   9.7  34204  290.32 0854.48
2009/04/23 14:24:13.2     282    265    136    388    412  46.8  19.3  34178  289.87 0854.48
2009/04/23 14:24:13.3     377    311     92    489    498  50.5  10.7  34172  289.76 0854.48
2009/04/23 14:24:13.4     334    156    107    369    385  65.0  16.1  34170  289.74 0854.48
2009/04/23 14:24:13.5     369    259     14    451    452  54.9   1.8  34170  289.73 0854.48
2009/04/23 14:24:13.6     440    247     25    505    506  60.7   2.9  34178  289.89 0854.48
2009/04/23 14:24:13.7     338    249    -16    420    421  53.6  -2.3  34178  289.88 0854.48
2009/04/23 14:24:13.8      38    453    190    455    493   4.9  23.9  34252  291.15 0854.48
2009/04/23 14:24:13.9     -21    469    165    470    498 357.4  20.0  34276  291.54 0854.48
2009/04/23 14:24:14.0     -37    340     39    343    346 353.7   6.5  34272  291.47 0854.48
2009/04/23 14:24:14.1      83    407     88    416    426  11.6  12.0  34260  291.26 0854.53
2009/04/23 14:24:14.2     -68    269    134    278    308 345.8  27.3  34254  291.17 0854.53
2009/04/23 14:24:14.3     -51    226    107    232    255 347.1  26.4  34230  290.76 0854.53
2009/04/23 14:24:14.4     221     55    206    228    307  75.8  46.9  34216  290.51 0854.53
2009/04/23 14:24:14.5      78    362    170    371    408  12.3  26.3  34206  290.35 0854.53
2009/04/23 14:24:14.6     309    274    147    414    440  48.5  19.6  34214  290.48 0854.53
2009/04/23 14:24:14.7     273    274    137    388    411  44.9  20.1  34204  290.31 0854.53
2009/04/23 14:24:14.8      42    151     74    157    173  15.6  27.1  34220  290.58 0854.53
2009/04/23 14:24:14.9     205     75    133    219    256  69.8  34.4  34212  290.46 0854.53
2009/04/23 14:24:15.0     166    124    180    208    275  53.4  45.6  34214  290.48 0854.53
2009/04/23 14:24:15.1      65    137     65    152    165  25.4  24.3  34218  290.55 0854.53
2009/04/23 14:24:15.2     -91     41    108    101    147 294.4  52.2  34238  290.91 0854.53
2009/04/23 14:24:15.3     -91    191    126    212    246 334.4  33.5  34232  290.80 0854.53
2009/04/23 14:24:15.4       6     82    142     83    164   4.5  67.0  34230  290.75 0854.53
2009/04/23 14:24:15.5     -42      7     92     43    101 280.6  73.1  34224  290.67 0854.53
2009/04/23 14:24:15.6      32     75    107     82    134  23.6  58.5  34226  290.69 0854.53
2009/04/23 14:24:15.7     211    -13    139    212    253  93.7  36.3  34224  290.66 0854.53
2009/04/23 14:24:15.8     132    148    140    199    243  41.7  38.5  34192  290.11 0854.53
2009/04/23 14:24:15.9      82     38    293     91    306  64.8  82.0  34220  290.59 0854.53
2009/04/23 14:24:16.0      43     69    281     82    292  31.6  83.5  34226  290.70 0854.53
2009/04/23 14:24:16.1      99   -146    252    177    307 145.9  61.5  34216  290.51 0854.55
2009/04/23 14:24:16.2     250    -85    349    265    438 108.8  59.1  34218  290.57 0854.55
2009/04/23 14:24:16.3     195   -316    263    372    455 148.3  38.7  34202  290.28 0854.55
2009/04/23 14:24:16.4     204   -337    208    395    446 148.8  30.0  34208  290.39 0854.55
2009/04/23 14:24:16.5     139   -211    156    253    297 146.6  34.5  34218  290.54 0854.55
2009/04/23 14:24:16.6     199   -199    152    282    320 135.1  30.8  34212  290.44 0854.55
2009/04/23 14:24:16.7     212   -240    191    321    373 138.6  33.5  34204  290.32 0854.55
2009/04/23 14:24:16.8     221   -235    244    323    404 136.8  40.8  34218  290.55 0854.55
2009/04/23 14:24:16.9     151   -389    -19    418    419 158.7  -2.6  34204  290.33 0854.55
2009/04/23 14:24:17.0      87   -262    265    277    383 161.5  48.6  34220  290.60 0854.55
2009/04/23 14:24:17.1      75   -219    268    232    354 161.1  54.7  34222  290.63 0854.55
2009/04/23 14:24:17.2     106     -2    171    107    201  91.3  64.7  34210  290.43 0854.55
2009/04/23 14:24:17.3     202   -163    203    260    329 128.9  42.1  34218  290.54 0854.55
2009/04/23 14:24:17.4      76    -15    200     78    214 101.5  77.6  34220  290.58 0854.55
2009/04/23 14:24:17.5      37    120    269    126    297  17.4  73.1  34240  290.92 0854.55
2009/04/23 14:24:17.6     -81    263    220    276    352 342.8  42.6  34218  290.54 0854.55
2009/04/23 14:24:17.7      25    150    237    153    282   9.8  64.6  34226  290.68 0854.55
2009/04/23 14:24:17.8     100    153    219    184    286  33.2  56.1  34208  290.39 0854.55
2009/04/23 14:24:17.9     119    166    171    205    266  35.6  43.8  34216  290.51 0854.55
2009/04/23 14:24:18.0     169    248     93    301    316  34.3  17.3  34208  290.37 0854.55
2009/04/23 14:24:18.1      48    220    -43    226    231  12.3 -10.9  34206  290.35 0854.55
2009/04/23 14:24:18.2     -59    265    -47    272    277 347.3  -9.8  34212  290.44 0854.55
2009/04/23 14:24:18.3     -69    292    -49    301    306 346.7  -9.4  34212  290.44 0854.55
2009/04/23 14:24:18.4       4    316     21    317    318   0.9   3.8  34218  290.54 0854.55
2009/04/23 14:24:18.5     245    344    -53    423    427  35.5  -7.2  34214  290.48 0854.55
2009/04/23 14:24:18.6     241    206     49    318    322  49.5   8.9  34216  290.51 0854.55
2009/04/23 14:24:18.7     171    170    192    242    308  45.1  42.7  34228  290.73 0854.55
2009/04/23 14:24:18.8      -1     60    216     61    224 358.2  84.1  34256  291.21 0854.55
2009/04/23 14:24:18.9      12   -109    167    110    199 173.3  63.6  34250  291.11 0854.55
2009/04/23 14:24:19.0      58    -38    150     70    165 123.3  73.5  34246  291.03 0854.55
2009/04/23 14:24:19.1     180   -305    220    355    417 149.4  34.9  34228  290.72 0854.55
2009/04/23 14:24:19.2     147   -349    297    379    481 157.2  42.2  34226  290.70 0854.55
2009/04/23 14:24:19.3     126   -423    373    442    578 163.3  44.3  34218  290.57 0854.55
2009/04/23 14:24:19.4      74   -317    344    326    473 166.7  51.6  34202  290.28 0854.55
2009/04/23 14:24:19.5      84   -624    278    630    688 172.3  25.3  34214  290.48 0854.55
2009/04/23 14:24:19.6     144   -608    348    625    715 166.6  31.5  34200  290.26 0854.55
2009/04/23 14:24:19.7     115   -612    301    623    691 169.3  27.7  34208  290.39 0854.55
2009/04/23 14:24:19.8     102   -378    293    392    489 164.8  40.6  34202  290.29 0854.55
2009/04/23 14:24:19.9     135   -555    154    572    593 166.3  15.1  34216  290.53 0854.55
2009/04/23 14:24:20.0     295   -303    119    424    441 135.8  15.7  34208  290.39 0854.55
2009/04/23 14:24:20.1     352   -101    104    367    382 106.1  15.9  34200  290.25 0854.55
2009/04/23 14:24:20.2     278     97     69    295    304  70.7  13.2  34176  289.85 0854.55
2009/04/23 14:24:20.3     164     55     47    174    181  71.4  15.3  34184  289.97 0854.55
2009/04/23 14:24:20.4     118     43    -32    126    131  69.6 -14.5  34182  289.94 0854.55
2009/04/23 14:24:20.5     236     63    -53    245    251  75.0 -12.4  34176  289.85 0854.55
2009/04/23 14:24:20.6     457    194     15    497    498  66.9   1.8  34176  289.84 0854.55
2009/04/23 14:24:20.7     257    214    193    335    386  50.2  32.7  34176  289.84 0854.55
2009/04/23 14:24:20.8     561     -7    218    562    602  90.8  22.3  34182  289.93 0854.55
2009/04/23 14:24:20.9     653    331     49    733    735  63.1   3.9  34182  289.95 0854.55
2009/04/23 14:24:21.0     632    382     76    739    743  58.9   5.9  34186  290.01 0854.55
2009/04/23 14:24:21.1     800    359    115    877    885  65.8   7.5  34200  290.25 0854.55
2009/04/23 14:24:21.2     748    394    440    846    953  62.2  29.6  34186  290.00 0854.55
2009/04/23 14:24:21.3      56    427    401    431    588   7.6  47.9  34222  290.62 0854.55
2009/04/23 14:24:21.4     378   -185     31    422    424 116.1   4.2  34204  290.33 0854.55
2009/04/23 14:24:21.5     668    113    -81    678    683  80.4  -6.9  34186  290.02 0854.55
2009/04/23 14:24:21.6     975    299    -15   1021   1022  72.9  -0.9  34174  289.82 0854.55
2009/04/23 14:24:21.7     630    447     25    773    774  54.6   1.9  34200  290.24 0854.55
2009/04/23 14:24:21.8     758    429    193    872    894  60.5  12.5  34178  289.86 0854.55
2009/04/23 14:24:21.9     750    257    132    793    804  71.1   9.5  34180  289.91 0854.55
2009/04/23 14:24:22.0     526    174    233    554    601  71.7  24.2  34190  290.07 0854.55
2009/04/23 14:24:22.1     633    130    146    647    664  78.3  12.8  34190  290.07 0854.53
2009/04/23 14:24:22.2     650    163    142    671    687  75.9  12.0  34176  289.83 0854.53
2009/04/23 14:24:22.3     576    188    115    607    618  71.9  10.8  34188  290.03 0854.53
2009/04/23 14:24:22.4     449      0    -47    450    453  90.0  -6.1  34192  290.12 0854.53
2009/04/23 14:24:22.5     524   -140      8    543    544 105.0   0.9  34202  290.28 0854.53
2009/04/23 14:24:22.6     544   -237     94    594    602 113.6   9.0  34200  290.25 0854.53
2009/04/23 14:24:22.7     449   -110    137    463    483 103.8  16.5  34196  290.18 0854.53
2009/04/23 14:24:22.8     257   -174    110    311    330 124.1  19.5  34206  290.36 0854.53
2009/04/23 14:24:22.9     293   -332    139    444    466 138.6  17.4  34204  290.31 0854.53
2009/04/23 14:24:23.0     369   -374    123    526    541 135.4  13.2  34206  290.36 0854.53
2009/04/23 14:24:23.1     395   -295     97    494    504 126.8  11.1  34198  290.23 0854.51
2009/04/23 14:24:23.2     235   -319    196    397    442 143.6  28.2  34200  290.24 0854.51
2009/04/23 14:24:23.3      48   -236    -33    241    244 168.4  -8.0  34184  289.98 0854.51
2009/04/23 14:24:23.4     274   -108    319    295    434 111.5  52.5  34190  290.08 0854.51
2009/04/23 14:24:23.5     159   -286     74    328    337 151.0  12.8  34196  290.18 0854.51
2009/04/23 14:24:23.6     148   -321    108    354    371 155.3  17.1  34192  290.13 0854.51
2009/04/23 14:24:23.7     149   -332    176    365    405 155.8  27.4  34194  290.16 0854.51
2009/04/23 14:24:23.8     286   -345    255    449    516 140.3  32.3  34196  290.17 0854.51
2009/04/23 14:24:23.9     340   -428    272    547    610 141.5  28.2  34198  290.22 0854.51
2009/04/23 14:24:24.0     360   -388    220    530    573 137.1  23.9  34200  290.24 0854.51
2009/04/23 14:24:24.1     255   -324    373    413    556 141.8  46.9  34196  290.17 0854.51
2009/04/23 14:24:24.2     318   -283    526    426    676 131.7  57.0  34190  290.07 0854.51
2009/04/23 14:24:24.3     857     48    192    859    881  86.8  12.6  34182  289.96 0854.51
2009/04/23 14:24:24.4     771     73   -121    775    785  84.5  -8.9  34182  289.96 0854.51
2009/04/23 14:24:24.5     612    -26    -23    613    614  92.5  -2.2  34174  289.81 0854.51
2009/04/23 14:24:24.6     741      7     96    742    749  89.4   7.4  34176  289.84 0854.51
2009/04/23 14:24:24.7     664      0     56    665    668  90.0   4.9  34182  289.93 0854.51
2009/04/23 14:24:24.8     621     38    173    623    647  86.5  15.6  34180  289.91 0854.51
2009/04/23 14:24:24.9     584    -34    107    586    596  93.4  10.4  34192  290.12 0854.51
2009/04/23 14:24:25.0     535      5    372    536    652  89.4  38.3  34188  290.03 0854.51
2009/04/23 14:24:25.1     414     21    150    415    442  87.1  19.9  34202  290.29 0854.46
2009/04/23 14:24:25.2     420    170    130    454    473  67.9  16.0  34208  290.39 0854.46
2009/04/23 14:24:25.3     635    284    272    696    747  65.9  22.5  34200  290.25 0854.46
2009/04/23 14:24:25.4     505   -219    150    551    572 113.5  15.3  34212  290.46 0854.46
2009/04/23 14:24:25.5     540   -155    120    563    576 106.1  12.1  34206  290.34 0854.46
2009/04/23 14:24:25.6     420     98     46    432    435  76.8   6.1  34198  290.21 0854.46
2009/04/23 14:24:25.7     423    129    179    443    477  73.0  23.2  34206  290.34 0854.46
2009/04/23 14:24:25.8     498     91    178    507    537  79.6  20.0  34208  290.38 0854.46
2009/04/23 14:24:25.9     423    -10    179    424    460  91.4  24.2  34208  290.39 0854.46
2009/04/23 14:24:26.0     374    -12    194    375    422  91.9  29.4  34214  290.50 0854.46
2009/04/23 14:24:26.1     386     68    137    393    417  80.0  19.2  34210  290.43 0854.46
2009/04/23 14:24:26.2     326     42    166    329    368  82.6  28.7  34230  290.77 0854.46
2009/04/23 14:24:26.3     249     34    116    252    277  82.1  26.4  34224  290.65 0854.46
2009/04/23 14:24:26.4     255     49     89    260    275  79.0  18.9  34220  290.58 0854.46
2009/04/23 14:24:26.5     131     57     43    143    150  66.5  16.8  34242  290.96 0854.46
2009/04/23 14:24:26.6     196    -15    165    197    256  94.4  44.3  34268  291.39 0854.46
2009/04/23 14:24:26.7     269      0    162    270    314  90.0  33.8  34270  291.43 0854.46
2009/04/23 14:24:26.8     207    150    263    256    367  54.0  50.8  34288  291.74 0854.46
2009/04/23 14:24:26.9     331    129    364    356    509  68.7  50.7  34288  291.75 0854.46
2009/04/23 14:24:27.0     498     -3    267    499    565  90.4  30.5  34322  292.32 0854.46
2009/04/23 14:24:27.1     627     78    237    632    674  82.9  21.5  34282  291.63 0854.48
2009/04/23 14:24:27.2     563     51    148    566    586  84.8  14.7  34214  290.49 0854.48
2009/04/23 14:24:27.3     533    252    114    590    602  64.6  11.0  34292  291.82 0854.48
2009/04/23 14:24:27.4     223   -240    239    329    406 137.1  39.7  34280  291.62 0854.48
2009/04/23 14:24:27.5     398   -161    250    430    497 112.1  32.9  34228  290.71 0854.48
2009/04/23 14:24:27.6     301   -237    164    384    417 128.3  24.5  34280  291.62 0854.48
2009/04/23 14:24:27.7     -41   -403    241    406    472 185.8  33.5  34264  291.35 0854.48
2009/04/23 14:24:27.8      94   -465    195    475    513 168.5  23.6  34212  290.45 0854.48
2009/04/23 14:24:27.9     135   -521    126    539    554 165.4  13.2  34212  290.46 0854.48
2009/04/23 14:24:28.0      96   -394    142    406    431 166.2  19.3  34226  290.70 0854.48
2009/04/23 14:24:28.1      22   -336     92    337    350 176.2  15.3  34226  290.69 0854.48
2009/04/23 14:24:28.2     196   -226     82    300    312 139.0  15.3  34228  290.73 0854.48
2009/04/23 14:24:28.3      94   -282     84    298    310 161.5  15.8  34216  290.51 0854.48
2009/04/23 14:24:28.4    -101   -241    -14    262    263 202.7  -3.1  34224  290.66 0854.48
2009/04/23 14:24:28.5      19   -246     -9    247    248 175.5  -2.2  34226  290.68 0854.48
2009/04/23 14:24:28.6       8   -362    119    363    383 178.6  18.2  34222  290.62 0854.48
2009/04/23 14:24:28.7     -30   -357     43    359    362 184.8   6.9  34220  290.59 0854.48
2009/04/23 14:24:28.8    -103   -387     81    401    410 195.0  11.4  34220  290.58 0854.48
2009/04/23 14:24:28.9      -7   -461     48    462    465 180.9   6.0  34218  290.55 0854.48
2009/04/23 14:24:29.0     121   -335     13    357    358 160.1   2.1  34216  290.52 0854.48
2009/04/23 14:24:29.1     240   -247     27    345    347 135.8   4.6  34222  290.64 0854.46
2009/04/23 14:24:29.2     131   -246     98    279    295 151.9  20.0  34224  290.66 0854.46
2009/04/23 14:24:29.3      70   -247     36    257    260 164.0   8.0  34220  290.59 0854.46
2009/04/23 14:24:29.4     126   -199     98    236    255 147.5  24.1  34228  290.71 0854.46
2009/04/23 14:24:29.5     140   -147     91    204    223 136.3  25.3  34228  290.72 0854.46
2009/04/23 14:24:29.6      77    -44    159     89    182 119.8  68.3  34234  290.82 0854.46
2009/04/23 14:24:29.7      87     63     64    108    125  54.1  33.5  34234  290.82 0854.46
2009/04/23 14:24:29.8      62    -30    -37     70     79 116.2 -34.7  34228  290.72 0854.46
2009/04/23 14:24:29.9      30      3    -69     31     75  83.9 -77.5  34228  290.74 0854.46
2009/04/23 14:24:30.0      85     61    -37    105    112  54.1 -19.6  34222  290.62 0854.46
2009/04/23 14:24:30.1     157     32    -27    161    164  78.5  -9.6  34222  290.62 0854.46
2009/04/23 14:24:30.2     131   -157     78    205    219 140.1  21.7  34218  290.55 0854.46
2009/04/23 14:24:30.3     167   -174     98    242    261 136.1  23.1  34208  290.39 0854.46
2009/04/23 14:24:30.4     117    -35    185    123    222 106.9  63.4  34220  290.60 0854.46
2009/04/23 14:24:30.5     -19   -174    174    176    247 186.5  50.0  34220  290.58 0854.46
2009/04/23 14:24:30.6       0   -120    152    121    194 180.0  57.5  34216  290.53 0854.46
2009/04/23 14:24:30.7     -38    -77    129     86    155 206.3  64.1  34212  290.45 0854.46
2009/04/23 14:24:30.8     -47   -175    215    182    281 195.1  55.4  34202  290.27 0854.46
2009/04/23 14:24:30.9     -72   -366    149    374    402 191.1  23.0  34210  290.42 0854.46
2009/04/23 14:24:31.0     -73   -493    130    499    516 188.5  14.6  34198  290.23 0854.46
2009/04/23 14:24:31.1    -295   -340   -135    451    471 221.0 -16.7  34200  290.24 0854.43
2009/04/23 14:24:31.2    -152   -210      0    260    261 215.8   0.2  34188  290.03 0854.43
2009/04/23 14:24:31.3     231   -164    181    284    336 125.5  35.5  34204  290.31 0854.43
2009/04/23 14:24:31.4      77   -364    310    373    485 168.0  44.0  34190  290.07 0854.43
2009/04/23 14:24:31.5     122   -191    247    227    335 147.4  52.7  34192  290.10 0854.43
2009/04/23 14:24:31.6    -117   -511    103    525    536 192.9  11.1  34188  290.06 0854.43
2009/04/23 14:24:31.7    -123   -285    110    311    331 203.4  19.6  34186  290.00 0854.43
2009/04/23 14:24:31.8    -150   -149    140    212    254 225.2  36.5  34192  290.10 0854.43
2009/04/23 14:24:31.9     110    110    272    156    313  45.0  67.7  34204  290.32 0854.43
2009/04/23 14:24:32.0     105    -42    290    114    311 111.8  77.6  34196  290.19 0854.43
2009/04/23 14:24:32.1      56   -101    275    116    298 151.0  76.1  34198  290.20 0854.43
2009/04/23 14:24:32.2     -18   -232    219    233    319 184.5  48.2  34190  290.07 0854.43
2009/04/23 14:24:32.3     172   -278    252    327    412 148.3  41.5  34186  290.01 0854.43
2009/04/23 14:24:32.4      -9   -292     74    293    303 181.8  14.3  34180  289.90 0854.43
2009/04/23 14:24:32.5       1   -177     93    178    200 179.5  29.5  34182  289.94 0854.43
2009/04/23 14:24:32.6     -89    -78     77    119    141 228.7  35.6  34200  290.25 0854.43
2009/04/23 14:24:32.7    -176    -62    112    187    217 250.5  33.5  34192  290.11 0854.43
2009/04/23 14:24:32.8     -45     21    179     50    185 295.3  84.4  34204  290.31 0854.43
2009/04/23 14:24:32.9     -32    103    115    109    158 342.6  51.4  34204  290.33 0854.43
2009/04/23 14:24:33.0      43    143    111    150    186  16.9  40.1  34204  290.33 0854.43
2009/04/23 14:24:33.1     -20    106    141    108    177 349.3  58.7  34208  290.38 0854.41
2009/04/23 14:24:33.2    -145   -434    112    458    472 198.6  13.8  34178  289.86 0854.41
2009/04/23 14:24:33.3    -163   -447    292    477    559 200.1  34.4  34168  289.70 0854.41
2009/04/23 14:24:33.4    -113   -312    298    332    446 200.0  46.6  34182  289.95 0854.41
2009/04/23 14:24:33.5    -171   -409    336    444    556 202.7  40.9  34178  289.87 0854.41
2009/04/23 14:24:33.6     -49   -347    330    351    481 188.1  48.0  34192  290.12 0854.41
2009/04/23 14:24:33.7     -22   -357    254    358    438 183.6  38.7  34186  290.02 0854.41
2009/04/23 14:24:33.8     195   -402    197    447    488 154.1  25.3  34216  290.51 0854.41
2009/04/23 14:24:33.9     243   -201    249    316    402 129.6  42.3  34214  290.49 0854.41
2009/04/23 14:24:34.0      71   -239    135    250    284 163.5  30.6  34184  289.97 0854.41
2009/04/23 14:24:34.1      79   -267     41    279    283 163.5   8.5  34182  289.95 0854.41
2009/04/23 14:24:34.2      61   -300    223    307    379 168.4  39.5  34174  289.81 0854.41
2009/04/23 14:24:34.3     246   -178    164    304    345 126.0  30.8  34186  290.01 0854.41
2009/04/23 14:24:34.4     264   -179     96    320    335 124.2  16.7  34184  289.99 0854.41
2009/04/23 14:24:34.5      94   -282    127    298    323 161.5  24.6  34156  289.51 0854.41
2009/04/23 14:24:34.6    -119   -379    220    398    454 197.4  31.4  34180  289.92 0854.41
2009/04/23 14:24:34.7    -148   -351     96    382    394 202.9  14.2  34188  290.03 0854.41
2009/04/23 14:24:34.8     -68   -219     87    230    245 197.4  21.5  34178  289.88 0854.41
2009/04/23 14:24:34.9    -126   -359     92    381    393 199.4  13.7  34202  290.27 0854.41
2009/04/23 14:24:35.0    -272   -383     62    470    475 215.4   7.6  34230  290.76 0854.41
2009/04/23 14:24:35.1    -225   -204    -72    304    313 227.8 -13.4  34200  290.26 0854.46
2009/04/23 14:24:35.2    -232   -160     39    283    286 235.4   8.0  34190  290.09 0854.46
2009/04/23 14:24:35.3    -544     57    -39    548    550 276.1  -4.1  34186  290.01 0854.46
2009/04/23 14:24:35.4      74    142    288    161    329  27.6  68.4  34180  289.92 0854.46
2009/04/23 14:24:35.5     101    -16    298    103    315  99.2  80.4  34208  290.37 0854.46
2009/04/23 14:24:35.6     120   -254    255    281    379 154.7  47.0  34202  290.28 0854.46
2009/04/23 14:24:35.7     108   -217    202    243    315 153.5  44.1  34202  290.29 0854.46
2009/04/23 14:24:35.8      23   -138     74    141    159 170.3  29.8  34198  290.23 0854.46
2009/04/23 14:24:35.9      -5   -131     66    132    147 182.6  28.2  34198  290.21 0854.46
2009/04/23 14:24:36.0      34   -270    154    273    313 172.7  31.9  34196  290.17 0854.46
2009/04/23 14:24:36.1       3   -245    186    246    308 179.1  40.9  34194  290.14 0854.46
2009/04/23 14:24:36.2       7   -223    158    224    274 178.0  38.8  34198  290.20 0854.46
2009/04/23 14:24:36.3    -132   -277    150    307    341 205.5  28.0  34198  290.21 0854.46
2009/04/23 14:24:36.4     -37   -246    209    249    325 188.7  44.3  34194  290.14 0854.46
2009/04/23 14:24:36.5     -86   -149    135    173    219 209.9  42.0  34196  290.19 0854.46
2009/04/23 14:24:36.6     -59   -125    120    139    183 205.3  45.4  34198  290.21 0854.46
2009/04/23 14:24:36.7      10   -130    126    131    181 175.6  49.0  34200  290.26 0854.46
2009/04/23 14:24:36.8      30    -70     81     77    111 156.4  51.6  34208  290.40 0854.46
2009/04/23 14:24:36.9     -12   -168    192    169    255 184.4  54.3  34202  290.30 0854.46
2009/04/23 14:24:37.0      13   -191    162    192    251 176.0  44.5  34196  290.19 0854.46
2009/04/23 14:24:37.1      69   -184    190    197    273 159.3  49.0  34216  290.53 0854.51
2009/04/23 14:24:37.2     -49   -202    338    209    397 193.8  65.6  34202  290.27 0854.51
2009/04/23 14:24:37.3    -100   -263    393    282    483 200.9  61.0  34198  290.22 0854.51
2009/04/23 14:24:37.4    -229   -261    168    348    386 221.2  27.4  34200  290.25 0854.51
2009/04/23 14:24:37.5    -209    -69     83    221    236 251.6  21.7  34198  290.21 0854.51
2009/04/23 14:24:37.6    -296    121    -29    320    322 292.3  -5.2  34200  290.24 0854.51
2009/04/23 14:24:37.7    -429    138    -72    451    457 287.9  -9.1  34198  290.22 0854.51
2009/04/23 14:24:37.8    -294     71    -69    303    311 283.7 -12.9  34196  290.19 0854.51
2009/04/23 14:24:37.9    -279    -37    -55    282    288 262.3 -11.1  34202  290.27 0854.51
2009/04/23 14:24:38.0    -331    105    100    348    363 287.6  16.0  34194  290.15 0854.51
2009/04/23 14:24:38.1    -393      4     45    394    397 270.6   6.6  34238  290.89 0854.51
2009/04/23 14:24:38.2    -411    -27     -2    412    413 266.2  -0.4  34246  291.04 0854.51
2009/04/23 14:24:38.3    -459    -60    161    463    491 262.5  19.2  34266  291.36 0854.51
2009/04/23 14:24:38.4    -406   -180    121    445    462 246.1  15.3  34228  290.72 0854.51
2009/04/23 14:24:38.5    -448   -170     63    480    485 249.2   7.5  34226  290.68 0854.51
2009/04/23 14:24:38.6    -473   -160     87    500    508 251.3   9.9  34222  290.61 0854.51
2009/04/23 14:24:38.7    -528   -282    139    599    616 241.9  13.1  34224  290.66 0854.51
2009/04/23 14:24:38.8    -559   -114    215    571    610 258.4  21.6  34232  290.81 0854.51
2009/04/23 14:24:38.9    -637   -160    245    657    701 255.9  21.4  34214  290.48 0854.51
2009/04/23 14:24:39.0    -634   -177    237    659    700 254.4  20.7  34214  290.49 0854.51
2009/04/23 14:24:39.1    -607     -3    246    608    655 269.7  23.4  34232  290.81 0854.54
2009/04/23 14:24:39.2    -412    254    251    485    546 301.7  29.5  34220  290.60 0854.54
2009/04/23 14:24:39.3    -431   -110    211    445    492 255.6  27.2  34236  290.85 0854.54
2009/04/23 14:24:39.5    -495   -175    154    526    549 250.5  16.3  34258  291.25 0854.54
2009/04/23 14:24:39.6    -538   -108    -53    549    552 258.6  -5.6  34228  290.74 0854.54
2009/04/23 14:24:39.7    -463   -100    -34    474    476 257.7  -4.1  34228  290.71 0854.54
2009/04/23 14:24:39.8    -518   -232    152    568    588 245.8  15.0  34242  290.97 0854.54
2009/04/23 14:24:39.9    -216   -357    183    418    456 211.2  25.1  34234  290.82 0854.54
2009/04/23 14:24:40.0    -447   -396     39    598    600 228.4   3.7  34262  291.31 0854.54
2009/04/23 14:24:40.1    -411   -414    125    584    598 224.8  12.1  34238  290.90 0854.54
2009/04/23 14:24:40.2    -546   -306     48    627    629 240.7   4.4  34242  290.96 0854.54
2009/04/23 14:24:40.3    -511   -326    -49    607    610 237.5  -4.7  34238  290.88 0854.54
2009/04/23 14:24:40.4    -453   -352    196    574    607 232.2  18.9  34232  290.78 0854.54
2009/04/23 14:24:40.5    -336   -283    266    440    514 229.8  34.0  34242  290.96 0854.54
2009/04/23 14:24:40.6    -298   -666    254    730    773 204.1  19.2  34240  290.94 0854.54
2009/04/23 14:24:40.7    -464   -294    112    550    562 237.6  11.6  34270  291.45 0854.54
2009/04/23 14:24:40.8    -302   -510    225    593    634 210.7  21.8  34238  290.91 0854.54
2009/04/23 14:24:40.9    -302   -617    242    688    729 206.1  20.1  34248  291.08 0854.54
2009/04/23 14:24:41.0    -235   -558    205    606    640 202.8  18.7  34228  290.74 0854.54
2009/04/23 14:24:41.1    -127   -526    205    542    579 193.6  21.8  34216  290.52 0854.54
2009/04/23 14:24:41.2     -34   -425    266    427    503 184.6  35.0  34240  290.93 0854.55
2009/04/23 14:24:41.3     -67   -330    347    337    483 191.6  50.9  34252  291.12 0854.55
2009/04/23 14:24:41.4      17   -371    235    372    440 177.3  35.5  34230  290.77 0854.55
2009/04/23 14:24:41.5    -150   -394     89    422    432 200.9  12.0  34210  290.43 0854.55
2009/04/23 14:24:41.6      79   -481     67    488    493 170.7   7.9  34212  290.44 0854.55
2009/04/23 14:24:41.7     354   -384    101    523    533 137.3  11.0  34200  290.26 0854.55
2009/04/23 14:24:41.8     298   -256    187    394    436 130.7  27.2  34208  290.39 0854.55
2009/04/23 14:24:41.9     139   -172    125    222    254 141.0  31.6  34198  290.22 0854.55
2009/04/23 14:24:42.0      15   -179    159    180    240 175.1  45.9  34198  290.23 0854.55
2009/04/23 14:24:42.1     -25   -190    238    192    305 187.6  56.6  34208  290.39 0854.55
2009/04/23 14:24:42.2       3   -231    174    232    290 179.1  40.7  34198  290.20 0854.55
2009/04/23 14:24:42.3      -6   -274    197    275    338 181.4  39.3  34198  290.22 0854.55
2009/04/23 14:24:42.4    -151   -435     90    461    470 199.2  11.1  34222  290.64 0854.55
2009/04/23 14:24:42.5    -114   -397    122    414    432 196.0  16.5  34218  290.56 0854.55
2009/04/23 14:24:42.6     -84   -452    161    460    487 190.6  20.0  34202  290.30 0854.55
2009/04/23 14:24:42.7    -114   -568    252    580    632 191.4  25.0  34208  290.38 0854.55
2009/04/23 14:24:42.8      17   -546    327    547    637 178.2  33.6  34210  290.41 0854.55
2009/04/23 14:24:42.9      24   -526    417    527    672 177.3  42.3  34208  290.38 0854.55
2009/04/23 14:24:43.0     219   -524    420    569    707 157.3  40.1  34202  290.27 0854.55
2009/04/23 14:24:43.1      89   -549    279    557    622 170.8  28.7  34206  290.34 0854.55
2009/04/23 14:24:43.2      95   -592    200    600    633 170.9  18.5  34202  290.28 0854.55
2009/04/23 14:24:43.3     205   -478    184    521    553 156.8  19.5  34214  290.50 0854.55
2009/04/23 14:24:43.4      88   -381     91    392    403 167.0  13.1  34218  290.54 0854.55
2009/04/23 14:24:43.5     318   -399    170    511    539 141.5  18.5  34210  290.41 0854.55
2009/04/23 14:24:43.6     283   -368    285    465    545 142.4  34.4  34206  290.36 0854.55
2009/04/23 14:24:43.7      87   -256    101    271    289 161.1  21.0  34212  290.44 0854.55
2009/04/23 14:24:43.8     233   -320     97    397    409 143.9  13.8  34212  290.44 0854.55
2009/04/23 14:24:43.9      49   -418    267    421    498 173.3  35.5  34198  290.23 0854.55
2009/04/23 14:24:44.0     226   -357    148    423    449 147.6  19.3  34192  290.12 0854.55
2009/04/23 14:24:44.1     384   -408    187    561    592 136.7  18.4  34186  290.02 0854.55
2009/04/23 14:24:44.2     397   -473     33    618    619 140.0   3.1  34208  290.38 0854.56
2009/04/23 14:24:44.3     293   -379    238    480    535 142.3  28.4  34192  290.10 0854.56
2009/04/23 14:24:44.4     354   -461     54    582    585 142.5   5.3  34204  290.32 0854.56
2009/04/23 14:24:44.5     337   -336     32    477    479 134.9   3.9  34204  290.32 0854.56
2009/04/23 14:24:44.6     127   -347    213    370    426 159.9  32.4  34202  290.28 0854.56
2009/04/23 14:24:44.7     210   -338    165    399    431 148.1  23.8  34206  290.34 0854.56
2009/04/23 14:24:44.8      83   -480    270    488    557 170.1  31.4  34198  290.23 0854.56
2009/04/23 14:24:44.9     173   -335    166    378    412 152.6  25.2  34202  290.28 0854.56
2009/04/23 14:24:45.0     320   -327    117    458    473 135.6  14.4  34206  290.35 0854.56
2009/04/23 14:24:45.1     408   -268     41    489    491 123.3   4.9  34204  290.32 0854.56
2009/04/23 14:24:45.2     260   -311    -52    406    410 140.1  -7.3  34208  290.38 0854.56
2009/04/23 14:24:45.3     175   -322    117    367    386 151.5  17.7  34210  290.42 0854.56
2009/04/23 14:24:45.4     102   -401     -8    414    415 165.7  -1.1  34210  290.41 0854.56
2009/04/23 14:24:45.5     148   -380   -107    408    422 158.7 -14.8  34202  290.28 0854.56
2009/04/23 14:24:45.6      86   -397     -2    407    408 167.7  -0.4  34192  290.11 0854.56
2009/04/23 14:24:45.7       8   -271    -93    272    288 178.2 -18.9  34198  290.22 0854.56
2009/04/23 14:24:45.8     -44   -357     42    360    363 187.1   6.8  34196  290.18 0854.56
2009/04/23 14:24:45.9      11   -445      0    446    447 178.5   0.0  34198  290.21 0854.56
2009/04/23 14:24:46.0     173   -347    -41    388    391 153.5  -6.1  34198  290.23 0854.56
2009/04/23 14:24:46.1     196   -354     30    405    407 151.0   4.3  34200  290.26 0854.56
2009/04/23 14:24:46.2     -50   -219    -93    225    243 192.9 -28.0  34204  290.31 0854.55
2009/04/23 14:24:46.3     -22   -244   -101    246    265 185.3 -28.0  34206  290.36 0854.55
2009/04/23 14:24:46.4       3   -231    -70    232    243 179.1 -17.0  34206  290.36 0854.55
2009/04/23 14:24:46.5       9   -201     32    202    205 177.3   9.0  34208  290.40 0854.55
2009/04/23 14:24:46.6    -119   -319     86    341    352 200.5  14.3  34202  290.30 0854.55
2009/04/23 14:24:46.7     -20   -260    102    261    280 184.5  22.3  34206  290.34 0854.55
2009/04/23 14:24:46.8     -36   -302    190    305    359 186.9  35.0  34212  290.45 0854.55
2009/04/23 14:24:46.9     102   -272    180    291    342 159.3  34.9  34214  290.49 0854.55
2009/04/23 14:24:47.0     138   -254    157    290    329 151.5  30.7  34200  290.26 0854.55
2009/04/23 14:24:47.1     164   -367     72    403    410 155.9  10.2  34204  290.33 0854.55
2009/04/23 14:24:47.2      59   -302    -87    308    321 168.9 -15.9  34202  290.29 0854.55
2009/04/23 14:24:47.3     -56   -283    -90    289    302 191.3 -22.3  34206  290.36 0854.55
2009/04/23 14:24:47.4     144   -139   -109    201    228 134.0 -35.4  34202  290.30 0854.55
2009/04/23 14:24:47.5     277     33   -121    280    305  83.0 -29.5  34208  290.37 0854.55
2009/04/23 14:24:47.6     198     45    -66    204    214  77.2 -23.6  34212  290.45 0854.55
2009/04/23 14:24:47.7     193    147      7    243    244  52.7   1.7  34208  290.39 0854.55
2009/04/23 14:24:47.8     233    177     16    293    294  52.7   3.3  34210  290.42 0854.55
2009/04/23 14:24:47.9     259    222    147    342    372  49.4  24.8  34208  290.37 0854.55
2009/04/23 14:24:48.0     222      1    172    223    281  89.6  41.6  34204  290.32 0854.55
2009/04/23 14:24:48.1     264    -41    208    268    339  98.8  41.9  34208  290.39 0854.55
2009/04/23 14:24:48.2     144   -118    170    187    252 129.5  47.0  34206  290.34 0854.59
2009/04/23 14:24:48.3     284   -296    297    411    507 136.2  39.5  34192  290.12 0854.59
2009/04/23 14:24:48.4     320   -257    192    411    453 128.8  27.0  34198  290.22 0854.59
2009/04/23 14:24:48.5     206   -470    171    514    543 156.3  18.5  34206  290.36 0854.59
2009/04/23 14:24:48.6     125   -544    171    559    585 167.0  17.1  34182  289.95 0854.59
2009/04/23 14:24:48.7     204   -504    199    545    580 157.9  21.0  34184  289.97 0854.59
2009/04/23 14:24:48.8     276   -501    235    573    619 151.1  23.6  34190  290.08 0854.59
2009/04/23 14:24:48.9     206   -503    238    544    593 157.7  25.2  34188  290.05 0854.59
2009/04/23 14:24:49.0     180   -508    435    540    693 160.4  43.0  34198  290.20 0854.59
2009/04/23 14:24:49.1     330   -330    194    467    505 135.0  23.8  34198  290.23 0854.59
2009/04/23 14:24:49.2      75   -284    180    294    344 165.1  34.6  34202  290.28 0854.59
2009/04/23 14:24:49.3     216   -224     13    312    313 136.1   2.4  34202  290.29 0854.59
2009/04/23 14:24:49.4     208   -259     63    333    340 141.2  10.8  34208  290.38 0854.59
2009/04/23 14:24:49.5     209   -107     15    235    236 117.1   3.8  34210  290.42 0854.59
2009/04/23 14:24:49.6     198   -145     77    246    258 126.4  17.4  34208  290.39 0854.59
2009/04/23 14:24:49.7     233   -315    250    393    465 143.5  35.5  34200  290.26 0854.59
2009/04/23 14:24:49.8     -50   -442    186    445    482 186.5  24.1  34196  290.17 0854.59
2009/04/23 14:24:49.9    -145   -624     65    641    645 193.1   5.8  34186  290.01 0854.59
2009/04/23 14:24:50.0      47   -495     10    498    499 174.6   1.2  34206  290.35 0854.59
2009/04/23 14:24:50.1     -13   -431    -31    432    434 181.8  -4.1  34206  290.34 0854.59
2009/04/23 14:24:50.2     -99   -392     25    405    406 194.3   3.6  34220  290.58 0854.61
2009/04/23 14:24:50.3    -111   -257     77    281    292 203.4  15.3  34218  290.54 0854.61
2009/04/23 14:24:50.4    -183   -246     35    307    310 216.7   6.6  34216  290.51 0854.61
2009/04/23 14:24:50.5    -108   -103     58    150    160 226.4  22.3  34224  290.67 0854.61
2009/04/23 14:24:50.6     -69    -23     72     73    102 251.4  50.0  34226  290.70 0854.61
2009/04/23 14:24:50.7      10     56    129     57    141  10.7  74.9  34224  290.67 0854.61
2009/04/23 14:24:50.8      23     30    162     38    166  37.8  87.3  34212  290.47 0854.61
2009/04/23 14:24:50.9       6    -99    196    100    220 176.4  71.0  34218  290.55 0854.61
2009/04/23 14:24:51.0      71    -62    294     95    308 130.9  81.2  34208  290.39 0854.61
2009/04/23 14:24:51.1     159    -44    215    166    271 105.5  58.5  34216  290.51 0854.61
2009/04/23 14:24:51.2     131   -104    128    168    211 128.6  41.4  34210  290.43 0854.61
2009/04/23 14:24:51.3      81   -110     92    137    165 143.5  37.0  34220  290.60 0854.61
2009/04/23 14:24:51.4     141    -91    148    169    224 122.9  45.8  34250  291.11 0854.61
2009/04/23 14:24:51.5     129     86    140    156    209  56.3  46.4  34216  290.53 0854.61
2009/04/23 14:24:51.6     196     43     98    201    223  77.4  27.8  34212  290.47 0854.61
2009/04/23 14:24:51.7     248     42     68    252    262  80.3  15.2  34220  290.58 0854.61
2009/04/23 14:24:51.8     205     15    151    206    255  85.6  39.7  34234  290.83 0854.61
2009/04/23 14:24:51.9     185     26    164    187    248  81.9  45.8  34230  290.75 0854.61
2009/04/23 14:24:52.0     167      2    187    168    251  89.2  53.5  34256  291.20 0854.61
2009/04/23 14:24:52.1     127      1    163    128    207  89.1  57.9  34248  291.08 0854.61
2009/04/23 14:24:52.2      68     22    108     72    129  71.8  63.2  34246  291.03 0854.59
2009/04/23 14:24:52.3    -167   -107     88    199    217 237.4  25.2  34224  290.67 0854.59
2009/04/23 14:24:52.4    -181   -236    104    298    316 217.4  19.3  34204  290.32 0854.59
2009/04/23 14:24:52.5     -74   -396     72    403    410 190.6  10.2  34192  290.12 0854.59
2009/04/23 14:24:52.6     -85   -384    122    394    413 192.6  17.3  34194  290.16 0854.59
2009/04/23 14:24:52.7     -68   -440    107    446    459 188.9  13.6  34192  290.11 0854.59
2009/04/23 14:24:52.8      30   -401    173    403    438 175.6  24.9  34198  290.22 0854.59
2009/04/23 14:24:52.9      41   -323    230    326    398 172.7  38.6  34214  290.49 0854.59
2009/04/23 14:24:53.0      21   -283    106    284    303 175.6  21.3  34200  290.24 0854.59
2009/04/23 14:24:53.1      66   -425    -31    431    433 171.1  -4.1  34198  290.22 0854.59
2009/04/23 14:24:53.2     151   -383   -125    412    430 158.4 -21.8  34190  290.09 0854.59
2009/04/23 14:24:53.3      23   -271    -49    273    278 175.1 -10.3  34196  290.19 0854.59
2009/04/23 14:24:53.4      38   -507    143    509    529 175.7  15.8  34196  290.19 0854.59
2009/04/23 14:24:53.5       0   -512    172    513    542 180.0  18.6  34190  290.09 0854.59
2009/04/23 14:24:53.6     -60   -447     84    452    460 187.7  10.6  34198  290.22 0854.59
2009/04/23 14:24:53.7       7   -501    178    502    533 179.1  19.5  34196  290.19 0854.59
2009/04/23 14:24:53.8      41   -406    119    409    427 174.2  16.3  34202  290.28 0854.59
2009/04/23 14:24:53.9      65   -295    163    303    344 167.5  30.6  34194  290.16 0854.59
2009/04/23 14:24:54.0      35   -224    129    227    261 171.1  32.3  34196  290.17 0854.59
2009/04/23 14:24:54.1     -15   -112    128    114    171 188.0  53.7  34208  290.40 0854.59
2009/04/23 14:24:54.2    -213    -91     -4    232    233 246.7  -1.1  34194  290.14 0854.54
2009/04/23 14:24:54.3    -262    -44     56    266    272 260.4  12.0  34196  290.19 0854.54
2009/04/23 14:24:54.4     -80     57     98     99    139 305.5  50.0  34204  290.33 0854.54
2009/04/23 14:24:54.5     -15      8    114     18    115 298.9  90.0  34216  290.53 0854.54
2009/04/23 14:24:54.6      99    -92    113    136    176 133.1  43.8  34200  290.26 0854.54
2009/04/23 14:24:54.7     194    -64     72    205    218 108.4  19.4  34196  290.18 0854.54
2009/04/23 14:24:54.8      81    -81    163    115    199 135.0  61.3  34192  290.13 0854.54
2009/04/23 14:24:54.9      14   -308    218    309    378 177.4  38.7  34192  290.10 0854.54
2009/04/23 14:24:55.0     -18   -222    110    223    248 184.7  28.2  34196  290.17 0854.54
2009/04/23 14:24:55.1     -54   -157    -33    167    171 199.2 -11.3  34198  290.23 0854.54
2009/04/23 14:24:55.2     -13   -188    -24    189    191 184.2  -7.3  34198  290.21 0854.54
2009/04/23 14:24:55.3      35   -213    -77    216    229 170.7 -24.6  34196  290.18 0854.54
2009/04/23 14:24:55.4      -8   -336      7    337    338 181.4   1.2  34184  289.99 0854.54
2009/04/23 14:24:55.5     130   -317     44    343    346 157.7   7.4  34194  290.15 0854.54
2009/04/23 14:24:55.6     -56   -208     41    216    220 195.2  10.8  34190  290.08 0854.54
2009/04/23 14:24:55.7    -159   -250    -55    297    303 212.5 -10.5  34204  290.32 0854.54
2009/04/23 14:24:55.8     -63   -187    -86    198    215 198.7 -29.5  34210  290.41 0854.54
2009/04/23 14:24:55.9     -13   -170   -143    171    222 184.4 -48.2  34212  290.47 0854.54
2009/04/23 14:24:56.0      16    -36   -120     40    126 156.4 -85.4  34220  290.60 0854.54
2009/04/23 14:24:56.1      56    -42   -127     71    145 126.9 -73.2  34224  290.67 0854.54
2009/04/23 14:24:56.2      80     11    -95     81    124  82.1 -59.2  34210  290.41 0854.50
2009/04/23 14:24:56.3      49     87    -97    101    140  29.4 -53.4  34202  290.30 0854.50
2009/04/23 14:24:56.4     109     56    -82    123    147  62.9 -40.9  34196  290.19 0854.50
2009/04/23 14:24:56.5     129     46    -76    138    157  70.1 -35.8  34196  290.19 0854.50
2009/04/23 14:24:56.6     145      7    -52    146    156  87.0 -19.7  34190  290.09 0854.50
2009/04/23 14:24:56.7     183    148    -12    236    237  50.9  -3.1  34186  290.00 0854.50
2009/04/23 14:24:56.8     191    179    -24    263    265  46.9  -5.4  34190  290.07 0854.50
2009/04/23 14:24:56.9     111     86    149    141    205  52.3  52.0  34198  290.23 0854.50
2009/04/23 14:24:57.0      62      0    115     63    131  89.1  68.9  34208  290.40 0854.50
2009/04/23 14:24:57.1     -21    -21     94     30     98 225.0  81.2  34222  290.64 0854.50
2009/04/23 14:24:57.2     -84    -10     50     85     98 263.0  32.9  34202  290.30 0854.50
2009/04/23 14:24:57.3     -41    -28     63     50     80 235.8  57.5  34206  290.35 0854.50
2009/04/23 14:24:57.4       1    -35     49     36     60 177.3  60.5  34198  290.21 0854.50
2009/04/23 14:24:57.5      63    -25     79     68    104 111.8  54.8  34192  290.11 0854.50
2009/04/23 14:24:57.6      -8   -112     87    113    142 184.4  41.7  34184  289.97 0854.50
2009/04/23 14:24:57.7      60   -183     81    193    209 161.7  24.3  34184  289.99 0854.50
2009/04/23 14:24:57.8      86   -217     45    234    239 158.4  11.0  34190  290.07 0854.50
2009/04/23 14:24:57.9     119   -206     70    239    250 149.9  16.4  34188  290.05 0854.50
2009/04/23 14:24:58.0     115   -181    100    215    237 147.5  26.4  34184  289.97 0854.50
2009/04/23 14:24:58.1     198   -293    182    354    398 145.9  29.3  34182  289.93 0854.50
2009/04/23 14:24:58.2       4   -344    110    345    363 179.2  17.7  34178  289.89 0854.37
2009/04/23 14:24:58.3     137   -405    217    428    479 161.2  28.9  34176  289.85 0854.37
2009/04/23 14:24:58.4     145   -514    179    535    565 164.2  18.6  34160  289.57 0854.37
2009/04/23 14:24:58.5     145   -547    145    566    585 165.1  14.4  34168  289.71 0854.37
2009/04/23 14:24:58.6     199   -596    179    629    655 161.5  15.9  34172  289.79 0854.37
2009/04/23 14:24:58.7     176   -495    209    526    566 160.4  23.0  34180  289.90 0854.37
2009/04/23 14:24:58.8     116   -522    174    535    563 167.4  18.0  34162  289.60 0854.37
2009/04/23 14:24:58.9      50   -415    238    419    481 173.0  32.1  34172  289.77 0854.37
2009/04/23 14:24:59.0      -4   -384    247    385    457 180.7  35.6  34172  289.78 0854.37
2009/04/23 14:24:59.1     -20   -441    142    442    465 182.7  17.8  34164  289.63 0854.37
2009/04/23 14:24:59.2      99   -345     55    359    364 164.0   8.7  34162  289.62 0854.37
2009/04/23 14:24:59.3      63   -374    135    380    403 170.4  20.3  34158  289.54 0854.37
2009/04/23 14:24:59.4    -255   -380    163    458    486 213.9  20.3  34160  289.56 0854.37
2009/04/23 14:24:59.5    -199   -261      5    329    330 217.4   1.0  34170  289.74 0854.37
2009/04/23 14:24:59.6     -52   -302    -44    307    311 189.8  -8.2  34170  289.73 0854.37
2009/04/23 14:24:59.7     -82   -281    -89    293    306 196.3 -21.8  34168  289.71 0854.37
2009/04/23 14:24:59.8    -118   -441    -35    457    459 195.1  -4.4  34184  289.97 0854.37
2009/04/23 14:24:59.9    -146   -238     34    280    283 211.6   7.1  34192  290.12 0854.37
2009/04/23 14:25:00.0     -43   -161    -93    167    191 195.1 -35.8  34186  290.01 0854.37
2009/04/23 14:25:00.1     -32    -86    -78     92    120 200.5 -49.2  34170  289.74 0854.37
2009/04/23 14:25:00.2     -52    -36    -71     64     95 234.9 -57.7  34184  289.99 0854.34
2009/04/23 14:25:00.3     -92   -304     -4    318    319 196.9  -0.9  34206  290.34 0854.34
2009/04/23 14:25:00.4    -172   -261     77    313    323 213.4  13.9  34200  290.24 0854.34
2009/04/23 14:25:00.5     -91   -140    154    168    227 213.2  47.7  34186  290.02 0854.34
2009/04/23 14:25:00.6      51     31    208     60    216  58.5  83.9  34220  290.60 0854.34
2009/04/23 14:25:00.7      93   -128    250    159    296 144.0  64.7  34200  290.26 0854.34
2009/04/23 14:25:00.8     258   -340    324    427    536 142.8  41.1  34172  289.79 0854.34
2009/04/23 14:25:00.9     225   -314    327    387    506 144.4  44.4  34182  289.95 0854.34
2009/04/23 14:25:01.0     -20   -322    330    323    461 183.7  50.7  34192  290.11 0854.34
2009/04/23 14:25:01.1     207   -409    217    459    507 153.2  27.1  34178  289.89 0854.34
2009/04/23 14:25:01.2     -31   -602    476    603    768 183.0  42.3  34202  290.28 0854.34
2009/04/23 14:25:01.3     -55   -511    338    515    616 186.2  36.4  34212  290.46 0854.34
2009/04/23 14:25:01.4      22   -362    144    363    390 176.5  22.8  34182  289.94 0854.34
2009/04/23 14:25:01.5     366   -217    254    426    495 120.7  33.7  34188  290.06 0854.34
2009/04/23 14:25:01.6     -71   -455    167    461    490 188.9  20.9  34190  290.08 0854.34
2009/04/23 14:25:01.7    -378   -576    138    690    704 213.3  11.3  34174  289.81 0854.34
2009/04/23 14:25:01.8    -223   -544    133    589    604 202.3  12.8  34174  289.80 0854.34
2009/04/23 14:25:01.9    -314   -486    167    579    603 212.9  16.1  34184  289.98 0854.34
2009/04/23 14:25:02.0    -271   -518     66    585    589 207.7   6.5  34166  289.66 0854.34
2009/04/23 14:25:02.1    -285   -333    195    439    480 220.6  25.6  34170  289.74 0854.34
2009/04/23 14:25:02.2     -50   -352    130    356    378 188.1  21.0  34176  289.84 0854.39
2009/04/23 14:25:02.3      19   -170     22    172    174 173.5   7.5  34174  289.80 0854.39
2009/04/23 14:25:02.4     154     11    208    155    259  85.6  59.8  34182  289.96 0854.39
2009/04/23 14:25:02.5     110     22    232    113    258  78.6  72.4  34192  290.11 0854.39
2009/04/23 14:25:02.6     109     71    229    131    263  56.7  67.7  34186  290.01 0854.39
2009/04/23 14:25:02.7     140     89    205    167    264  57.5  56.4  34190  290.07 0854.39
2009/04/23 14:25:02.8      97      0    189     98    212  90.0  70.8  34198  290.21 0854.39
2009/04/23 14:25:02.9      36     84    189     92    210  23.2  72.7  34204  290.31 0854.39
2009/04/23 14:25:03.0     -23    -24    188     34    191 223.4  90.0  34204  290.33 0854.39
2009/04/23 14:25:03.1     -13     98    209     99    231 352.0  72.9  34212  290.45 0854.39
2009/04/23 14:25:03.2      15      4    149     16    149  71.8  90.0  34206  290.35 0854.39
2009/04/23 14:25:03.3      70   -106    140    128    189 146.6  52.7  34198  290.23 0854.39
2009/04/23 14:25:03.4      21   -122    189    124    226 170.2  64.1  34194  290.14 0854.39
2009/04/23 14:25:03.5      25     26    152     37    156  43.4  86.7  34200  290.26 0854.39
2009/04/23 14:25:03.6      42     16    122     46    130  68.3  78.6  34202  290.30 0854.39
2009/04/23 14:25:03.7     157      2    206    158    259  89.1  58.7  34210  290.41 0854.39
2009/04/23 14:25:03.8     -42      0    226     43    230 270.0  89.6  34216  290.52 0854.39
2009/04/23 14:25:03.9       2     28    210     29    211   4.4  90.0  34220  290.58 0854.39
2009/04/23 14:25:04.0      -6    -29    153     30    155 191.6  89.1  34220  290.58 0854.39
2009/04/23 14:25:04.1    -255   -166     15    305    306 236.9   2.9  34196  290.19 0854.39
2009/04/23 14:25:04.2     182     45    100    188    212  76.1  30.3  34206  290.36 0854.43
2009/04/23 14:25:04.3     212     85    110    229    254  68.2  27.3  34206  290.36 0854.43
2009/04/23 14:25:04.4     -91    -87    176    127    217 226.4  60.6  34188  290.04 0854.43
2009/04/23 14:25:04.5    -272   -357     54    449    453 217.3   6.9  34190  290.07 0854.43
2009/04/23 14:25:04.6    -191    -90    189    212    284 244.8  45.9  34202  290.29 0854.43
2009/04/23 14:25:04.7     150   -125    179    196    265 129.6  47.1  34192  290.10 0854.43
2009/04/23 14:25:04.8      14      1    186     15    186  85.7  90.0  34200  290.26 0854.43
2009/04/23 14:25:04.9     -20    -21    131     30    134 223.2  88.0  34204  290.33 0854.43
2009/04/23 14:25:05.0      48   -101     69    112    131 154.5  35.0  34192  290.13 0854.43
2009/04/23 14:25:05.1      17     17     88     25     91  45.1  83.9  34202  290.30 0854.43
2009/04/23 14:25:05.2     -64     58    134     87    159 312.2  64.1  34206  290.36 0854.40
2009/04/23 14:25:05.3     -94     47    146    106    180 296.6  60.5  34212  290.47 0854.40
2009/04/23 14:25:05.4     -25     40    145     48    152 328.4  80.7  34214  290.50 0854.40
2009/04/23 14:25:05.5      20    -21    142     30    145 136.8  89.0  34208  290.38 0854.40
2009/04/23 14:25:05.6     -49   -148    155    157    220 198.5  50.0  34190  290.09 0854.40
2009/04/23 14:25:05.7     -35    -39     95     53    108 221.4  68.8  34196  290.19 0854.40
2009/04/23 14:25:05.8     -23     26    107     35    112 318.6  80.7  34222  290.64 0854.40
2009/04/23 14:25:05.9     -38    -89    150     97    178 203.2  64.4  34230  290.75 0854.40
2009/04/23 14:25:06.0    -169    -93    116    193    225 241.1  34.0  34198  290.21 0854.40
2009/04/23 14:25:06.1    -147   -156     41    215    220 223.2  11.0  34192  290.13 0854.40
2009/04/23 14:25:06.2      41    -42    117     59    131 135.8  71.4  34206  290.35 0854.40
2009/04/23 14:25:06.3    -129   -314    164    340    377 202.4  27.4  34180  289.91 0854.40
2009/04/23 14:25:06.4    -127   -352    104    375    390 200.0  15.6  34178  289.89 0854.40
2009/04/23 14:25:06.5    -146   -404     60    430    435 200.0   8.0  34174  289.80 0854.40
2009/04/23 14:25:06.6    -240   -329    -22    408    409 216.1  -3.1  34174  289.80 0854.40
2009/04/23 14:25:06.7    -148   -332    126    364    386 204.1  19.1  34172  289.76 0854.40
2009/04/23 14:25:06.8      35   -337    238    339    414 174.0  38.6  34184  289.98 0854.40
2009/04/23 14:25:06.9     -25   -436     37    437    439 183.4   4.9  34170  289.75 0854.40
2009/04/23 14:25:07.0      48   -414    126    417    436 173.3  16.8  34178  289.88 0854.40
2009/04/23 14:25:07.1     128   -466    205    484    525 164.6  24.3  34172  289.76 0854.40
2009/04/23 14:25:07.3     -68   -434    230    440    496 188.9  29.9  34176  289.84 0854.38
2009/04/23 14:25:07.4     -66   -504    183    509    540 187.5  20.7  34168  289.70 0854.38
2009/04/23 14:25:07.5       0   -521    218    522    565 180.0  24.1  34170  289.74 0854.38
2009/04/23 14:25:07.6     -67   -416    236    422    483 189.2  31.9  34172  289.78 0854.38
2009/04/23 14:25:07.7      33   -434    142    436    459 175.6  18.1  34172  289.78 0854.38
2009/04/23 14:25:07.8     194   -564    247    597    646 161.0  23.8  34172  289.79 0854.38
2009/04/23 14:25:07.9      72   -496    240    502    556 171.7  27.3  34182  289.96 0854.38
2009/04/23 14:25:08.0      62   -501    214    505    548 172.9  24.3  34200  290.24 0854.38
2009/04/23 14:25:08.1      68   -436    236    442    501 171.1  30.3  34190  290.08 0854.38
2009/04/23 14:25:08.2      40   -441    154    443    470 174.8  19.2  34198  290.22 0854.38
2009/04/23 14:25:08.3      12   -511    129    512    528 178.6  14.2  34178  289.87 0854.38
2009/04/23 14:25:08.4     -33   -399    159    401    431 184.8  23.0  34174  289.80 0854.38
2009/04/23 14:25:08.5     -49   -342    147    346    375 188.2  24.3  34170  289.74 0854.38
2009/04/23 14:25:08.6    -174   -374    156    413    441 204.9  21.6  34190  290.07 0854.38
2009/04/23 14:25:08.7    -164   -235    -15    287    288 215.0  -3.1  34184  289.97 0854.38
2009/04/23 14:25:08.8    -275   -302     96    409    421 222.3  13.2  34170  289.75 0854.38
2009/04/23 14:25:08.9     -91   -336    144    349    377 195.2  23.6  34182  289.93 0854.38
2009/04/23 14:25:09.0    -176   -206    140    272    305 220.6  29.3  34180  289.92 0854.38
2009/04/23 14:25:09.1    -351    -90    -27    363    364 255.5  -4.4  34182  289.94 0854.38
2009/04/23 14:25:09.2    -198    -15    -20    199    201 265.6  -6.0  34224  290.65 0854.38
2009/04/23 14:25:09.3    -121   -148    270    192    331 219.2  61.2  34230  290.75 0854.41
2009/04/23 14:25:09.4     -38     38    172     54    180 314.9  81.8  34250  291.09 0854.41
2009/04/23 14:25:09.5      14     30    125     34    129  25.4  84.8  34248  291.08 0854.41
2009/04/23 14:25:09.6     -46     26    121     53    132 299.8  75.0  34246  291.04 0854.41
2009/04/23 14:25:09.7      20    213    132    215    252   5.6  34.5  34250  291.09 0854.41
2009/04/23 14:25:09.8     101      0    173    102    200  90.0  66.8  34240  290.92 0854.41
2009/04/23 14:25:09.9     -18     -6    165     20    166 251.4  90.0  34240  290.94 0854.41
2009/04/23 14:25:10.0      87     41    185     97    208  64.7  70.4  34236  290.86 0854.41
2009/04/23 14:25:10.1     303     97    190    319    371  72.2  33.5  34230  290.77 0854.41
2009/04/23 14:25:10.2     210    107    164    236    287  63.0  38.0  34252  291.14 0854.41
2009/04/23 14:25:10.3     -23     49     37     55     66 334.6  36.5  34242  290.96 0854.41
2009/04/23 14:25:10.4     -45   -151    120    158    198 196.9  41.2  34220  290.58 0854.41
2009/04/23 14:25:10.5     -91   -229    194    247    314 201.8  42.2  34206  290.34 0854.41
2009/04/23 14:25:10.6     -84   -228     89    244    259 200.3  20.9  34222  290.63 0854.41
2009/04/23 14:25:10.7     -23    -88    160     91    184 194.7  68.1  34226  290.70 0854.41
2009/04/23 14:25:10.8      53     25    131     59    143  64.8  74.5  34246  291.04 0854.41
2009/04/23 14:25:10.9     251    -66    184    260    318 104.8  38.8  34230  290.75 0854.41
2009/04/23 14:25:11.0      95   -136    206    166    264 145.0  56.9  34222  290.63 0854.41
2009/04/23 14:25:11.1     127    -88    226    155    274 124.6  62.6  34198  290.20 0854.41
2009/04/23 14:25:11.2     195    -35    212    199    290 100.4  52.1  34206  290.34 0854.41
2009/04/23 14:25:11.3     194   -143     12    242    243 126.4   2.9  34192  290.10 0854.44
2009/04/23 14:25:11.4     139   -180     39    228    232 142.2   9.9  34186  290.01 0854.44
2009/04/23 14:25:11.5       5   -411    176    412    448 179.2  24.8  34172  289.78 0854.44
2009/04/23 14:25:11.6    -224   -474    258    525    584 205.3  28.2  34180  289.90 0854.44
2009/04/23 14:25:11.7     -10   -234    149    235    278 182.5  35.5  34182  289.95 0854.44
2009/04/23 14:25:11.8      27   -242    254    244    352 173.5  51.3  34182  289.95 0854.44
2009/04/23 14:25:11.9     108    -80    156    135    206 126.4  54.8  34190  290.08 0854.44
2009/04/23 14:25:12.0      33   -168      5    172    173 168.9   1.8  34172  289.77 0854.44
2009/04/23 14:25:12.1      35    -74    -49     82     95 154.5 -38.8  34182  289.96 0854.44
2009/04/23 14:25:12.2      17    -25    -74     31     80 145.7 -80.5  34186  290.02 0854.44
2009/04/23 14:25:12.3      71   -111   -207    132    245 147.4 -69.1  34194  290.14 0854.44
2009/04/23 14:25:12.4     191     -4    -56    192    201  91.3 -16.4  34186  290.01 0854.44
2009/04/23 14:25:12.5     182    -25     10    184    185  98.0   3.1  34194  290.14 0854.44
2009/04/23 14:25:12.6     184    -41    109    189    218 102.8  32.7  34194  290.16 0854.44
2009/04/23 14:25:12.7      47    -91    135    103    169 152.4  58.7  34194  290.16 0854.44
2009/04/23 14:25:12.8     171   -280    204    329    387 148.6  35.0  34188  290.06 0854.44
2009/04/23 14:25:12.9     314   -263    206    410    458 129.9  28.7  34178  289.87 0854.44
2009/04/23 14:25:13.0     151   -379    231    409    469 158.2  32.0  34168  289.70 0854.44
2009/04/23 14:25:13.1     226   -410      3    469    470 151.1   0.4  34180  289.91 0854.44
2009/04/23 14:25:13.2     205   -431    -18    478    479 154.5  -2.2  34182  289.96 0854.44
2009/04/23 14:25:13.3      91   -446    124    456    473 168.4  15.3  34178  289.88 0854.47
2009/04/23 14:25:13.4      17   -568    210    569    606 178.2  21.0  34166  289.69 0854.47
2009/04/23 14:25:13.5      77   -549     72    555    560 172.0   7.4  34182  289.94 0854.47
2009/04/23 14:25:13.6     -53   -615    257    618    669 185.0  23.9  34172  289.79 0854.47
2009/04/23 14:25:13.7    -141   -506    436    526    683 195.6  43.8  34188  290.06 0854.47
2009/04/23 14:25:13.8     -40   -122    266    129    295 198.3  72.7  34192  290.10 0854.47
2009/04/23 14:25:13.9     -28   -270    312    272    413 186.0  54.6  34186  290.01 0854.47
2009/04/23 14:25:14.0     183   -221   -103    288    306 140.4 -19.7  34174  289.80 0854.47
2009/04/23 14:25:14.1     136   -229    -45    267    271 149.2  -9.6  34180  289.90 0854.47
2009/04/23 14:25:14.2       7    -33   -137     34    141 166.6 -90.0  34190  290.09 0854.47
2009/04/23 14:25:14.3      -6     52   -157     53    165 352.9 -85.6  34192  290.13 0854.47
2009/04/23 14:25:14.4      56     -6     35     57     66  97.0  35.5  34182  289.96 0854.47
2009/04/23 14:25:14.5       0      3    124      4    124   4.5  90.0  34194  290.14 0854.47
2009/04/23 14:25:14.6     -44     27    174     52    181 301.5  83.1  34204  290.33 0854.47
2009/04/23 14:25:14.7     -21    117    205    119    237 349.8  67.2  34208  290.40 0854.47
2009/04/23 14:25:14.8      54    -18    247     57    253 108.4  87.5  34198  290.21 0854.47
2009/04/23 14:25:14.9     113    -22    206    116    236 101.4  68.1  34198  290.21 0854.47
2009/04/23 14:25:15.0     276    -21    258    277    378  94.4  47.9  34202  290.30 0854.47
2009/04/23 14:25:15.1     128      2    239    129    271  88.7  69.1  34206  290.34 0854.47
2009/04/23 14:25:15.2     -15     -7    145     17    145 244.7  90.0  34202  290.30 0854.47
2009/04/23 14:25:15.3     141     46    204    149    252  71.8  60.5  34202  290.28 0854.46
2009/04/23 14:25:15.4     159    -12    230    160    280  94.4  62.1  34202  290.27 0854.46
2009/04/23 14:25:15.5     115    -11    142    116    183  95.7  56.4  34202  290.30 0854.46
2009/04/23 14:25:15.6     111     44    135    120    180  68.3  53.7  34208  290.38 0854.46
2009/04/23 14:25:15.7      -3      0    125      4    125 265.6  90.0  34210  290.43 0854.46
2009/04/23 14:25:15.8     -74    107    162    131    208 325.3  56.9  34200  290.25 0854.46
2009/04/23 14:25:15.9      22     22    170     32    172  45.1  90.0  34188  290.04 0854.46
2009/04/23 14:25:16.0       0   -300    298    301    423 180.0  49.9  34184  289.99 0854.46
2009/04/23 14:25:16.1    -108   -405    363    420    555 195.0  45.4  34174  289.81 0854.46
2009/04/23 14:25:16.2     -60   -225    132    233    267 195.1  32.1  34170  289.75 0854.46
2009/04/23 14:25:16.3     159    115    222    197    296  54.0  54.0  34190  290.09 0854.46
2009/04/23 14:25:16.4       0      0    245      1    245 189.7  90.0  34198  290.23 0854.46
2009/04/23 14:25:16.5      64   -100    241    119    268 147.4  71.9  34198  290.21 0854.46
2009/04/23 14:25:16.6     103   -218    241    242    341 154.7  50.2  34186  290.02 0854.46
2009/04/23 14:25:16.7      67   -331    142    339    367 168.4  24.1  34178  289.89 0854.46
2009/04/23 14:25:16.8      56   -359    -13    364    365 171.1  -2.1  34178  289.89 0854.46
2009/04/23 14:25:16.9     207   -227     17    308    309 137.6   3.3  34170  289.75 0854.46
2009/04/23 14:25:17.0     248   -256     70    357    364 136.0  11.1  34172  289.79 0854.46
2009/04/23 14:25:17.1     146   -346     81    376    385 157.1  12.3  34174  289.82 0854.46
2009/04/23 14:25:17.2      21   -465     65    466    471 177.3   8.0  34166  289.67 0854.46
2009/04/23 14:25:17.3     135   -440    153    461    486 163.0  18.4  34168  289.71 0854.43
2009/04/23 14:25:17.4      35   -622    126    623    636 176.8  11.4  34182  289.94 0854.43
2009/04/23 14:25:17.5     142   -679     19    694    695 168.1   1.6  34178  289.87 0854.43
2009/04/23 14:25:17.6     158   -616    -81    636    642 165.6  -7.3  34184  289.98 0854.43
2009/04/23 14:25:17.7     173   -640   -197    664    693 164.8 -16.5  34184  289.99 0854.43
2009/04/23 14:25:17.8     252   -502    -86    562    569 153.3  -8.7  34178  289.89 0854.43
2009/04/23 14:25:17.9     149   -571      2    591    592 165.3   0.2  34182  289.93 0854.43
2009/04/23 14:25:18.0       8   -594    -86    595    602 179.2  -8.2  34178  289.88 0854.43
2009/04/23 14:25:18.1       5   -481   -148    482    504 179.3 -22.2  34178  289.89 0854.43
2009/04/23 14:25:18.2     -47   -604   -215    607    645 184.5 -19.5  34186  290.01 0854.43
2009/04/23 14:25:18.3    -209   -664   -239    697    738 197.5 -19.0  34182  289.94 0854.43
2009/04/23 14:25:18.4    -234   -701    -86    740    746 198.5  -6.7  34188  290.06 0854.43
2009/04/23 14:25:18.5    -364   -682   -108    774    782 208.1  -8.0  34190  290.07 0854.43
2009/04/23 14:25:18.6    -280   -588    -71    652    656 205.5  -6.3  34204  290.32 0854.43
2009/04/23 14:25:18.7    -235   -565   -124    612    625 202.6 -11.5  34208  290.40 0854.43
2009/04/23 14:25:18.8    -318   -504   -188    596    625 212.2 -17.5  34210  290.43 0854.43
2009/04/23 14:25:18.9    -296   -464    -11    551    552 212.6  -1.2  34198  290.23 0854.43
2009/04/23 14:25:19.0    -402   -551    -72    683    687 216.1  -6.1  34192  290.10 0854.43
2009/04/23 14:25:19.1    -561   -356   -140    665    680 237.6 -11.9  34192  290.12 0854.43
2009/04/23 14:25:19.2    -332   -187   -145    382    408 240.6 -26.1  34178  289.86 0854.43
2009/04/23 14:25:19.3    -287   -215      6    359    360 233.1   1.0  34202  290.27 0854.40
2009/04/23 14:25:19.4    -343   -310   -137    463    482 227.8 -21.2  34188  290.03 0854.40
2009/04/23 14:25:19.5    -272   -195    -68    335    342 234.3 -11.5  34204  290.33 0854.40
2009/04/23 14:25:19.6    -317   -125   -144    342    371 248.4 -28.6  34186  290.01 0854.40
2009/04/23 14:25:19.7    -102   -102   -107    145    180 225.0 -44.5  34192  290.11 0854.40
2009/04/23 14:25:19.8    -164   -166   -138    234    271 224.8 -37.9  34198  290.22 0854.40
2009/04/23 14:25:19.9    -206    -61   -160    215    268 253.4 -44.8  34186  290.02 0854.40
2009/04/23 14:25:20.0    -239     29    -75    241    253 277.0 -17.3  34204  290.31 0854.40
2009/04/23 14:25:20.1    -177     20    -62    179    190 276.6 -19.1  34202  290.28 0854.40
2009/04/23 14:25:20.2    -135     59     46    148    156 293.6  17.3  34210  290.43 0854.40
2009/04/23 14:25:20.3    -207     40   -136    211    251 281.0 -40.0  34208  290.37 0854.40
2009/04/23 14:25:20.4     -36   -112   -178    118    213 197.8 -68.0  34202  290.30 0854.40
2009/04/23 14:25:20.5     -17   -130   -155    132    203 187.6 -59.8  34212  290.45 0854.40
2009/04/23 14:25:20.6    -181    -60    -90    191    211 251.4 -31.5  34222  290.64 0854.40
2009/04/23 14:25:20.7       0   -144   -126    145    192 180.4 -49.8  34198  290.23 0854.40
2009/04/23 14:25:20.8    -150   -327   -159    360    393 204.7 -29.7  34202  290.27 0854.40
2009/04/23 14:25:20.9    -117   -347   -131    367    389 198.7 -24.8  34194  290.15 0854.40
2009/04/23 14:25:21.0    -188   -207   -115    280    302 222.3 -27.5  34200  290.24 0854.40
2009/04/23 14:25:21.1    -243    -93   -107    261    282 249.1 -27.8  34208  290.37 0854.40
2009/04/23 14:25:21.2    -142   -145   -171    204    266 224.3 -48.5  34208  290.37 0854.40
2009/04/23 14:25:21.3    -161   -237   -164    287    330 214.3 -36.8  34184  289.97 0854.41
2009/04/23 14:25:21.4    -235   -359    132    430    450 213.2  17.1  34174  289.80 0854.41
2009/04/23 14:25:21.5      -5   -392    168    393    427 180.8  24.5  34184  289.97 0854.41
2009/04/23 14:25:21.6      10   -412     96    413    425 178.5  13.1  34186  290.00 0854.41
2009/04/23 14:25:21.7      22   -298    131    299    326 175.6  25.2  34182  289.93 0854.41
2009/04/23 14:25:21.8      26   -340    158    341    375 175.6  26.6  34182  289.94 0854.41
2009/04/23 14:25:21.9      51   -367    131    371    394 172.0  19.5  34182  289.94 0854.41
2009/04/23 14:25:22.0      99   -265    211    284    353 159.5  40.4  34204  290.32 0854.41
2009/04/23 14:25:22.1      71   -211    123    223    254 161.3  31.3  34216  290.53 0854.41
2009/04/23 14:25:22.2     142   -185    131    234    268 142.4  31.4  34224  290.65 0854.41
2009/04/23 14:25:22.3     222   -105    213    246    325 115.4  45.4  34232  290.78 0854.41
2009/04/23 14:25:22.4     240    -76    164    252    300 107.7  35.7  34224  290.65 0854.41
2009/04/23 14:25:22.5     267      0     17    268    269  90.0   3.8  34192  290.10 0854.41
2009/04/23 14:25:22.6     259     69     13    269    270  75.0   2.8  34188  290.05 0854.41
2009/04/23 14:25:22.7     318     38    130    321    346  83.0  23.2  34222  290.64 0854.41
2009/04/23 14:25:22.8     275      4     91    276    291  89.1  18.4  34218  290.54 0854.41
2009/04/23 14:25:22.9     230    -46    167    235    288 101.4  38.8  34216  290.53 0854.41
2009/04/23 14:25:23.0     194    -39    128    198    235 101.5  36.0  34204  290.31 0854.41
2009/04/23 14:25:23.1     137    -18     99    139    170  97.5  39.1  34216  290.52 0854.41
2009/04/23 14:25:23.2      55    -44     63     71     94 128.6  46.4  34214  290.48 0854.41
2009/04/23 14:25:23.3      56   -114     67    128    144 153.7  29.8  34212  290.47 0854.44
2009/04/23 14:25:23.4      82      3     91     83    123  87.4  52.2  34212  290.45 0854.44
2009/04/23 14:25:23.5      46    -38     42     60     73 129.5  39.5  34210  290.43 0854.44
2009/04/23 14:25:23.6      13    -94     47     95    105 172.0  28.2  34214  290.50 0854.44
2009/04/23 14:25:23.7      49    -91      3    104    105 151.9   1.8  34202  290.30 0854.44
2009/04/23 14:25:23.8      36   -101    -41    108    115 160.4 -25.4  34204  290.31 0854.44
2009/04/23 14:25:23.9     -34    -98    -99    104    143 199.2 -52.9  34208  290.38 0854.44
2009/04/23 14:25:24.0     -53    -64    -69     84    108 219.6 -48.1  34214  290.48 0854.44
2009/04/23 14:25:24.1     -30     20    -88     37     95 304.2 -80.5  34224  290.67 0854.44
2009/04/23 14:25:24.2     -27     -9    -30     29     41 250.0 -54.5  34216  290.52 0854.44
2009/04/23 14:25:24.3     -65     41     41     78     88 302.5  29.8  34208  290.38 0854.44
2009/04/23 14:25:24.4     -45     32     22     56     60 306.0  23.0  34214  290.50 0854.44
2009/04/23 14:25:24.5     -97    -19    -31     99    103 258.5 -23.3  34206  290.36 0854.44
2009/04/23 14:25:24.6    -112   -163    -45    199    205 214.5 -12.9  34200  290.26 0854.44
2009/04/23 14:25:24.7      15   -301     24    302    304 177.1   4.6  34196  290.17 0854.44
2009/04/23 14:25:24.8      -5   -219    -54    220    227 181.4 -13.9  34184  289.99 0854.44
2009/04/23 14:25:24.9    -128   -356    -57    379    384 199.8  -8.6  34192  290.11 0854.44
2009/04/23 14:25:25.0     -78   -439     50    446    449 190.1   6.5  34196  290.17 0854.44
2009/04/23 14:25:25.1     199   -375     77    425    433 152.0  10.3  34186  290.02 0854.44
2009/04/23 14:25:25.2     121   -446    206    463    506 164.8  25.6  34188  290.06 0854.44
2009/04/23 14:25:25.3     292   -570    255    641    689 152.8  23.0  34192  290.10 0854.42
2009/04/23 14:25:25.4     261   -529    325    591    674 153.7  31.3  34188  290.03 0854.42
2009/04/23 14:25:25.5     329   -606    408    690    801 151.5  33.4  34186  290.02 0854.42
2009/04/23 14:25:25.6     209   -570    364    608    708 159.8  33.7  34192  290.12 0854.42
2009/04/23 14:25:25.7      19   -481    310    482    573 177.7  35.7  34190  290.07 0854.42
2009/04/23 14:25:25.8      56   -469    266    473    542 173.1  31.9  34202  290.30 0854.42
2009/04/23 14:25:25.9     -81   -570     59    576    580 188.1   5.9  34192  290.12 0854.42
2009/04/23 14:25:26.0     -35   -424    -23    426    427 184.8  -3.2  34190  290.09 0854.42
2009/04/23 14:25:26.1     -84   -387     78    397    405 192.3  11.1  34198  290.21 0854.42
2009/04/23 14:25:26.2     -96   -453    -30    464    466 192.0  -3.8  34212  290.47 0854.42
2009/04/23 14:25:26.3    -248   -485    -26    545    546 207.1  -2.8  34216  290.52 0854.42
2009/04/23 14:25:26.4     -44   -324     -6    327    328 187.8  -1.1  34220  290.58 0854.42
2009/04/23 14:25:26.5     161   -264     -6    310    311 148.6  -1.1  34222  290.63 0854.42
2009/04/23 14:25:26.6     208   -264    216    337    400 141.7  35.6  34188  290.06 0854.42
2009/04/23 14:25:26.7     300   -134     59    329    335 114.2  10.2  34198  290.23 0854.42
2009/04/23 14:25:26.8     259   -194     16    324    325 126.9   2.9  34204  290.32 0854.42
2009/04/23 14:25:26.9     231   -307    -64    385    391 143.0  -9.5  34220  290.59 0854.42
2009/04/23 14:25:27.0     259   -405    -34    481    483 147.4  -4.1  34236  290.85 0854.42
2009/04/23 14:25:27.1     246   -388     41    460    462 147.6   5.2  34226  290.70 0854.42
2009/04/23 14:25:27.2     268   -395    -99    478    489 145.8 -11.8  34218  290.57 0854.42
2009/04/23 14:25:27.3     381   -483    -48    616    619 141.7  -4.5  34200  290.26 0854.42
2009/04/23 14:25:27.4     288   -484    116    564    577 149.2  11.7  34178  289.88 0854.42
2009/04/23 14:25:27.5     187   -499     53    534    537 159.4   5.7  34180  289.92 0854.42
2009/04/23 14:25:27.6     250   -465     46    529    532 151.7   5.0  34188  290.04 0854.42
2009/04/23 14:25:27.7     302   -557    168    634    657 151.5  14.9  34176  289.84 0854.42
2009/04/23 14:25:27.8     174   -629    234    653    693 164.5  20.6  34178  289.88 0854.42
2009/04/23 14:25:27.9     151   -641     87    659    665 166.7   7.6  34182  289.95 0854.42
2009/04/23 14:25:28.0     152   -485   -137    509    528 162.6 -15.1  34194  290.14 0854.42
2009/04/23 14:25:28.1     311   -644     45    716    718 154.2   3.6  34186  290.01 0854.42
2009/04/23 14:25:28.2     279   -642   -129    701    713 156.5 -10.5  34190  290.08 0854.42
2009/04/23 14:25:28.3     448   -415    155    611    631 132.8  14.3  34180  289.92 0854.40
2009/04/23 14:25:28.4     362   -279    141    458    480 127.6  17.2  34178  289.88 0854.40
2009/04/23 14:25:28.5     267   -384   -143    468    489 145.2 -21.9  34202  290.27 0854.40
2009/04/23 14:25:28.6     281   -329   -102    433    445 139.5 -13.3  34190  290.07 0854.40
2009/04/23 14:25:28.7     137   -268     46    302    306 152.8   8.8  34198  290.20 0854.40
2009/04/23 14:25:28.8     102   -137      7    172    173 143.3   2.5  34202  290.28 0854.40
2009/04/23 14:25:28.9      57   -177    -67    187    198 162.0 -25.1  34204  290.33 0854.40
2009/04/23 14:25:29.0      74   -157   -101    174    201 154.5 -37.3  34200  290.25 0854.40
2009/04/23 14:25:29.1     230   -337   -137    409    432 145.7 -18.6  34192  290.12 0854.40
2009/04/23 14:25:29.2     171   -376    -16    414    415 155.6  -2.2  34188  290.04 0854.40
2009/04/23 14:25:29.3     190   -436   -124    476    492 156.4 -14.7  34198  290.20 0854.40
2009/04/23 14:25:29.4     247   -399     11    470    471 148.3   1.4  34186  290.01 0854.40
2009/04/23 14:25:29.5     284   -301     88    415    425 136.7  12.0  34190  290.07 0854.40
2009/04/23 14:25:29.6     221   -411    101    467    479 151.7  12.3  34198  290.22 0854.40
2009/04/23 14:25:29.7     268   -299     12    402    403 138.1   1.7  34194  290.14 0854.40
2009/04/23 14:25:29.8     207   -188    109    280    300 132.2  22.3  34186  290.00 0854.40
2009/04/23 14:25:29.9     221   -137    -70    260    270 121.8 -15.2  34200  290.26 0854.40
2009/04/23 14:25:30.0     170   -226     18    284    285 143.0   3.8  34200  290.26 0854.40
2009/04/23 14:25:30.1     185   -203   -131    275    304 137.7 -31.7  34200  290.26 0854.40
2009/04/23 14:25:30.2     181   -136   -151    227    272 127.1 -40.9  34198  290.22 0854.40
2009/04/23 14:25:30.3      51   -251    -30    257    259 168.4  -6.9  34204  290.31 0854.39
2009/04/23 14:25:30.4     -96   -195    -68    218    228 206.3 -22.5  34202  290.30 0854.39
2009/04/23 14:25:30.5      20   -217     43    219    224 174.7  11.1  34194  290.16 0854.39
2009/04/23 14:25:30.6      25   -171     60    173    184 171.5  19.2  34186  290.01 0854.39
2009/04/23 14:25:30.7      72   -219    -78    231    243 161.7 -23.3  34198  290.22 0854.39
2009/04/23 14:25:30.8     155   -308   -119    345    364 153.3 -24.0  34198  290.21 0854.39
2009/04/23 14:25:30.9     144   -377     -5    404    405 159.1  -0.7  34188  290.05 0854.39
2009/04/23 14:25:31.0     192   -347    -20    397    398 151.0  -3.0  34188  290.04 0854.39
2009/04/23 14:25:31.1     170   -293     -7    339    340 149.9  -1.3  34186  290.01 0854.39
2009/04/23 14:25:31.2     117   -293    -34    316    318 158.1  -6.3  34192  290.10 0854.39
2009/04/23 14:25:31.3     186   -186     46    264    269 135.1   9.9  34186  290.02 0854.39
2009/04/23 14:25:31.4     173   -208     94    271    287 140.3  19.2  34186  290.02 0854.39
2009/04/23 14:25:31.5     129   -293    127    321    345 156.3  22.9  34184  289.98 0854.39
2009/04/23 14:25:31.6     120   -360     47    380    383 161.6   7.1  34190  290.08 0854.39
2009/04/23 14:25:31.7      87   -368    118    379    397 166.6  17.3  34188  290.04 0854.39
2009/04/23 14:25:31.8     153   -331    124    365    386 155.2  18.8  34192  290.10 0854.39
2009/04/23 14:25:31.9     167   -393    131    428    448 157.0  17.0  34186  290.00 0854.39
2009/04/23 14:25:32.0      60   -334    137    340    366 169.8  23.1  34192  290.10 0854.39
2009/04/23 14:25:32.1     233   -320     22    397    398 143.9   3.3  34188  290.04 0854.39
2009/04/23 14:25:32.2     167   -315     22    357    358 152.1   3.6  34186  290.01 0854.39
2009/04/23 14:25:32.3     100   -251     11    271    272 158.2   2.3  34190  290.09 0854.39
2009/04/23 14:25:32.4      35   -244     86    247    262 171.8  19.2  34192  290.12 0854.39
2009/04/23 14:25:32.5     -13   -184     85    185    203 184.2  26.4  34194  290.14 0854.39
2009/04/23 14:25:32.6     -10   -175    105    176    204 183.4  33.5  34196  290.19 0854.39
2009/04/23 14:25:32.7     -12   -123    110    124    165 185.8  46.4  34200  290.25 0854.39
2009/04/23 14:25:32.8       2    -87     98     88    131 178.2  53.3  34204  290.31 0854.39
2009/04/23 14:25:32.9      24    -81    128     85    153 163.5  64.1  34210  290.43 0854.39
2009/04/23 14:25:33.0     114    -80     76    140    159 125.1  30.8  34204  290.33 0854.39
2009/04/23 14:25:33.1      88    -93     26    129    132 136.7  11.6  34198  290.23 0854.39
2009/04/23 14:25:33.2      65    -65     -3     92     93 135.0  -2.2  34202  290.28 0854.39
2009/04/23 14:25:33.3      20    -60     26     64     69 161.7  23.0  34204  290.31 0854.39
2009/04/23 14:25:33.4      -2    -62     22     63     67 182.7  19.4  34206  290.35 0854.39
2009/04/23 14:25:33.5      -2    -38     41     39     56 184.4  50.1  34210  290.41 0854.39
2009/04/23 14:25:33.6     -29    -45     52     54     74 212.6  51.1  34210  290.43 0854.39
2009/04/23 14:25:33.7     -41    -73     23     84     88 209.4  15.8  34204  290.33 0854.39
2009/04/23 14:25:33.8     -11    -58     22     60     63 191.5  20.0  34208  290.38 0854.39
2009/04/23 14:25:33.9     -46    -89     58    101    116 207.2  32.4  34220  290.58 0854.39
2009/04/23 14:25:34.0     -37    -73     28     83     88 207.2  19.2  34240  290.94 0854.39
2009/04/23 14:25:34.1     -37    -55     65     67     93 214.3  50.0  34250  291.11 0854.39
2009/04/23 14:25:34.2     -38    -74     47     84     96 207.6  31.9  34248  291.06 0854.39
2009/04/23 14:25:34.3     -58    -54     21     80     83 227.3  15.3  34238  290.91 0854.39
2009/04/23 14:25:34.4     -48    -58     25     76     81 219.6  18.4  34244  290.99 0854.39
2009/04/23 14:25:34.5     -14      0     47     15     49 270.0  80.7  34246  291.04 0854.39
2009/04/23 14:25:34.6     -26     14     61     30     67 298.9  72.8  34254  291.16 0854.39
2009/04/23 14:25:34.7     -43     27     65     51     82 302.4  57.5  34254  291.16 0854.39
2009/04/23 14:25:34.8     -19     31     20     37     42 327.4  30.3  34262  291.30 0854.39
2009/04/23 14:25:35.0       8     -2     46      9     46 108.4  90.0  34274  291.50 0854.39
2009/04/23 14:25:35.1      76     34     17     84     86  65.6  11.6  34284  291.69 0854.39
2009/04/23 14:25:35.2      82     56     58    100    115  55.8  33.5  34302  291.98 0854.39
2009/04/23 14:25:35.3     236     17    152    237    281  85.7  35.6  34336  292.55 0854.39
2009/04/23 14:25:35.4     297     54    200    302    362  79.6  36.6  34306  292.05 0854.39
2009/04/23 14:25:35.5     209     35    146    213    258  80.3  37.6  34326  292.38 0854.39
2009/04/23 14:25:35.6      94     66    210    116    239  54.9  68.8  34346  292.75 0854.39
2009/04/23 14:25:35.7     131     41    189    138    234  72.3  60.5  34324  292.35 0854.39
2009/04/23 14:25:35.8      56     -4    151     57    161  94.4  78.4  34318  292.25 0854.39
2009/04/23 14:25:35.9     213     71    210    225    307  71.6  47.9  34314  292.18 0854.39
2009/04/23 14:25:36.0     129     62    164    144    218  64.2  54.2  34308  292.08 0854.39
2009/04/23 14:25:36.1      86     89    125    124    176  44.1  49.7  34332  292.49 0854.39
2009/04/23 14:25:36.2      28     50     79     58     98  29.9  60.0  34324  292.35 0854.39
2009/04/23 14:25:36.3     -38     77    114     86    142 333.7  59.4  34322  292.32 0854.39
2009/04/23 14:25:36.4    -112    154     69    191    203 323.9  20.7  34306  292.05 0854.35
2009/04/23 14:25:36.5    -161     42     65    167    179 284.8  22.5  34314  292.18 0854.35
2009/04/23 14:25:36.6    -148      6     77    149    167 272.6  29.5  34320  292.29 0854.35
2009/04/23 14:25:36.7     -54    -66     42     86     95 219.6  27.8  34284  291.69 0854.35
2009/04/23 14:25:36.8    -118    -90    -50    149    158 232.7 -18.7  34262  291.30 0854.35
2009/04/23 14:25:36.9    -139    -28     84    142    164 258.5  33.7  34274  291.52 0854.35
2009/04/23 14:25:37.0    -141      2     97    142    171 270.8  37.6  34296  291.89 0854.35
2009/04/23 14:25:37.1    -118     81    100    144    175 304.6  38.0  34292  291.83 0854.35
2009/04/23 14:25:37.2     -73     30     97     80    125 292.6  56.4  34284  291.69 0854.35
2009/04/23 14:25:37.3     -66     21     56     70     89 288.2  43.3  34270  291.45 0854.35
2009/04/23 14:25:37.4     -33    -84    134     91    161 201.8  62.6  34264  291.35 0854.35
2009/04/23 14:25:37.5     -63    -99    120    118    168 212.5  50.1  34278  291.57 0854.35
2009/04/23 14:25:37.6     -38   -143    113    149    187 195.1  41.2  34306  292.05 0854.35
2009/04/23 14:25:37.7     -45   -133     91    141    167 198.7  35.7  34308  292.08 0854.35
2009/04/23 14:25:37.8     -55   -128    131    140    191 203.2  48.0  34290  291.79 0854.35
2009/04/23 14:25:37.9     -29    -92     91     97    133 197.8  48.5  34276  291.54 0854.35
2009/04/23 14:25:38.0      26    -92     98     96    137 164.0  50.1  34272  291.49 0854.35
2009/04/23 14:25:38.1      10      9     79     14     80  46.7  90.0  34270  291.43 0854.35
2009/04/23 14:25:38.2      52     78    153     94    179  33.8  65.7  34278  291.57 0854.35
2009/04/23 14:25:38.3      20    130    135    132    188   8.9  50.7  34278  291.57 0854.35
2009/04/23 14:25:38.4     -16    120    120    122    171 352.0  50.0  34278  291.59 0854.33
2009/04/23 14:25:38.5     -59     77     79     98    125 322.6  43.3  34286  291.71 0854.33
2009/04/23 14:25:38.6     -21     63     32     67     74 341.7  27.1  34286  291.72 0854.33
2009/04/23 14:25:38.7      -6     30     -4     31     32 348.5  -7.3  34282  291.66 0854.33
2009/04/23 14:25:38.8     -79    102     63    130    144 322.2  27.3  34290  291.77 0854.33
2009/04/23 14:25:38.9    -144    -57      7    155    156 248.3   2.9  34294  291.84 0854.33
2009/04/23 14:25:39.0     -96    -18    -33     98    103 259.4 -23.6  34304  292.01 0854.33
2009/04/23 14:25:39.1     -51     63    -11     82     83 321.3  -8.2  34310  292.12 0854.33
2009/04/23 14:25:39.2     -13    164     15    165    166 355.1   5.2  34288  291.76 0854.33
2009/04/23 14:25:39.3     -38    209    120    213    244 349.5  32.1  34300  291.96 0854.33
2009/04/23 14:25:39.4     -88    210    146    228    270 337.3  35.6  34310  292.13 0854.33
2009/04/23 14:25:39.5     -60    240     99    248    267 346.0  23.0  34300  291.96 0854.33
2009/04/23 14:25:39.6      74    257    194    268    330  16.1  39.5  34344  292.69 0854.33
2009/04/23 14:25:39.7     137    247    145    283    317  29.0  29.3  34300  291.94 0854.33
2009/04/23 14:25:39.8     245    271     22    366    367  42.0   3.5  34284  291.69 0854.33
2009/04/23 14:25:39.9     151    260    -32    301    303  30.1  -6.2  34296  291.87 0854.33
2009/04/23 14:25:40.0     181    170     90    249    264  46.9  20.4  34296  291.87 0854.33
2009/04/23 14:25:40.1     163    151    126    223    256  47.1  31.9  34338  292.59 0854.33
2009/04/23 14:25:40.2     230    146    121    273    298  57.6  25.3  34372  293.18 0854.33
2009/04/23 14:25:40.3     206     82     91    223    240  68.2  23.4  34306  292.04 0854.33
2009/04/23 14:25:40.4     185     60     -7    195    196  71.8  -2.2  34300  291.96 0854.32
2009/04/23 14:25:40.5     194    -14      1    195    196  94.1   0.5  34294  291.86 0854.32
2009/04/23 14:25:40.6     241     28     95    243    260  83.2  22.5  34332  292.48 0854.32
2009/04/23 14:25:40.7     239     93     59    257    264  68.7  13.1  34330  292.47 0854.32
2009/04/23 14:25:40.8     197     84    161    215    268  66.9  40.7  34356  292.89 0854.32
2009/04/23 14:25:40.9     170    140    117    221    250  50.7  30.2  34330  292.47 0854.32
2009/04/23 14:25:41.0      56    210    169    218    275  15.1  41.7  34332  292.48 0854.32
2009/04/23 14:25:41.1       7    227    165    228    281   2.0  39.5  34332  292.48 0854.32
2009/04/23 14:25:41.2     -25    263    126    265    293 354.4  27.2  34348  292.76 0854.32
2009/04/23 14:25:41.3     -57    233    102    240    260 346.2  24.3  34360  292.96 0854.32
2009/04/23 14:25:41.4     -99    197     57    221    229 333.3  14.5  34358  292.93 0854.32
2009/04/23 14:25:41.5    -111    236    112    261    284 334.8  25.1  34352  292.82 0854.32
2009/04/23 14:25:41.6     -67    185    111    197    226 340.0  31.9  34358  292.95 0854.32
2009/04/23 14:25:41.7    -122    101     62    159    170 309.5  22.3  34368  293.12 0854.32
2009/04/23 14:25:41.8     -97     53     62    111    127 298.8  31.4  34370  293.14 0854.32
2009/04/23 14:25:41.9     -22     70     24     74     78 342.2  17.9  34358  292.93 0854.32
2009/04/23 14:25:42.0      56     81     34     99    105  34.7  18.9  34348  292.78 0854.32
2009/04/23 14:25:42.1     215    189    112    287    308  48.6  22.5  34332  292.48 0854.32
2009/04/23 14:25:42.2     248    204    147    322    353  50.5  26.2  34372  293.16 0854.32
2009/04/23 14:25:42.3      59    211    147    220    264  15.6  36.7  34354  292.86 0854.32
2009/04/23 14:25:42.4     -29    248     94    250    267 353.1  21.7  34342  292.65 0854.35
2009/04/23 14:25:42.5      42    201     50    206    212  12.0  13.7  34346  292.75 0854.35
2009/04/23 14:25:42.6      69    186    -25    199    201  20.3  -7.3  34358  292.93 0854.35
2009/04/23 14:25:42.7      55    199     -8    207    208  15.6  -2.2  34350  292.81 0854.35
2009/04/23 14:25:42.8     302    109    131    322    347  70.1  23.2  34406  293.76 0854.35
2009/04/23 14:25:42.9     331    117    100    352    366  70.5  15.9  34416  293.94 0854.35
2009/04/23 14:25:43.0     405    199    144    452    475  63.8  17.7  34390  293.48 0854.35
2009/04/23 14:25:43.1     419    108    154    433    460  75.5  19.6  34418  293.95 0854.35
2009/04/23 14:25:43.2     402    199    127    449    467  63.6  15.8  34340  292.62 0854.35
2009/04/23 14:25:43.3     485    485    179    687    710  45.0  14.6  34284  291.69 0854.35
2009/04/23 14:25:43.4     468    517    137    698    712  42.2  11.1  34310  292.12 0854.35
2009/04/23 14:25:43.5     631    406    307    751    811  57.2  23.5  34326  292.40 0854.35
2009/04/23 14:25:43.6     583    345    226    678    716  59.4  18.5  34318  292.24 0854.35
2009/04/23 14:25:43.7     473    408    138    625    641  49.2  12.5  34292  291.81 0854.35
2009/04/23 14:25:43.8     458    207    196    503    539  65.7  22.4  34330  292.47 0854.35
2009/04/23 14:25:43.9     309    256    279    402    489  50.4  38.3  34366  293.07 0854.35
2009/04/23 14:25:44.0     459    186    247    496    554  67.9  28.5  34372  293.19 0854.35
2009/04/23 14:25:44.1     427    202    192    473    510  64.6  23.4  34352  292.85 0854.35
2009/04/23 14:25:44.2     566    147     60    585    589  75.4   5.9  34262  291.32 0854.35
2009/04/23 14:25:44.3     490    280      7    565    566  60.3   0.7  34330  292.47 0854.35
2009/04/23 14:25:44.4     410    182     39    449    451  66.1   5.1  34328  292.42 0854.35
2009/04/23 14:25:44.5     280    -24    -25    282    284  95.0  -5.2  34312  292.16 0854.35
2009/04/23 14:25:44.6     169     60     13    180    181  70.5   4.4  34314  292.20 0854.35
2009/04/23 14:25:44.7     135     69     49    152    160  62.9  17.9  34316  292.23 0854.35
2009/04/23 14:25:44.8     165     -3    166    166    234  91.3  50.1  34334  292.52 0854.35
2009/04/23 14:25:44.9     145    -19    133    147    198  97.5  47.1  34356  292.90 0854.35
2009/04/23 14:25:45.0     189    -28    124    192    228  98.6  35.6  34360  292.98 0854.35
2009/04/23 14:25:45.1     166    -17    153    167    226  95.9  47.7  34374  293.21 0854.35
2009/04/23 14:25:45.2     123    -25    147    126    193 101.9  55.0  34364  293.04 0854.35
2009/04/23 14:25:45.3     111     19    148    113    186  80.3  58.7  34330  292.47 0854.35
2009/04/23 14:25:45.4      45     48    113     67    131  43.3  66.7  34334  292.52 0854.35
2009/04/23 14:25:45.5     -14    -22    128     27    130 212.6  89.0  34326  292.40 0854.35
2009/04/23 14:25:45.6       2    -43    120     44    127 176.4  79.2  34322  292.32 0854.35
2009/04/23 14:25:45.7      88    -56     70    105    126 122.5  36.5  34320  292.29 0854.35
2009/04/23 14:25:45.8      82   -144    102    166    194 150.4  35.0  34300  291.96 0854.35
2009/04/23 14:25:45.9       2   -178    -19    179    181 179.3  -6.2  34280  291.62 0854.35
2009/04/23 14:25:46.0       0   -224    -72    225    237 180.2 -17.9  34292  291.83 0854.35
2009/04/23 14:25:46.1      31   -213    -79    216    229 171.5 -25.3  34288  291.76 0854.35
2009/04/23 14:25:46.2     -29   -184    -27    187    189 189.1  -8.2  34286  291.71 0854.35
2009/04/23 14:25:46.3     -19   -309     15    310    311 183.6   2.8  34306  292.06 0854.35
2009/04/23 14:25:46.4      15   -202    -65    203    214 175.5 -17.9  34312  292.15 0854.36
2009/04/23 14:25:46.5      90   -179    -11    201    202 153.3  -3.2  34322  292.34 0854.36
2009/04/23 14:25:46.6     108   -208      7    235    236 152.4   1.8  34290  291.78 0854.36
2009/04/23 14:25:46.7     165   -259     48    308    312 147.5   9.0  34266  291.36 0854.36
2009/04/23 14:25:46.8     151   -242     39    286    289 148.1   7.8  34276  291.53 0854.36
2009/04/23 14:25:46.9     203   -226     94    304    319 138.1  17.3  34274  291.50 0854.36
2009/04/23 14:25:47.0      91   -271    117    287    309 161.3  23.1  34268  291.41 0854.36
2009/04/23 14:25:47.1      99   -292    136    309    337 161.3  25.2  34256  291.21 0854.36
2009/04/23 14:25:47.2      51   -321    172    326    368 170.9  30.1  34252  291.13 0854.36
2009/04/23 14:25:47.3      30   -385    199    387    435 175.4  29.3  34268  291.40 0854.36
2009/04/23 14:25:47.4     -87   -485    178    493    525 190.3  19.9  34308  292.09 0854.36
2009/04/23 14:25:47.5     -33   -431    110    433    447 184.4  14.3  34274  291.50 0854.36
2009/04/23 14:25:47.6    -224   -382     -5    443    444 210.4  -0.7  34248  291.06 0854.36
2009/04/23 14:25:47.7     -69   -402    127    409    429 189.8  17.3  34262  291.29 0854.36
2009/04/23 14:25:47.8      -6   -420     52    421    425 180.9   7.1  34268  291.41 0854.36
2009/04/23 14:25:47.9     -18   -378     82    379    388 182.8  12.3  34274  291.51 0854.36
2009/04/23 14:25:48.0     -42   -408     32    411    413 186.0   4.5  34270  291.43 0854.36
2009/04/23 14:25:48.1      19   -405     53    406    410 177.2   7.5  34282  291.63 0854.36
2009/04/23 14:25:48.2     -25   -396    -28    397    398 183.6  -4.1  34280  291.61 0854.36
2009/04/23 14:25:48.3     -33   -453    -17    455    456 184.3  -2.2  34264  291.33 0854.36
2009/04/23 14:25:48.4      22   -402     10    403    404 176.8   1.5  34280  291.62 0854.34
2009/04/23 14:25:48.5      64   -371     13    377    378 170.2   2.1  34278  291.59 0854.34
2009/04/23 14:25:48.6      46   -352     46    356    359 172.4   7.4  34274  291.51 0854.34
2009/04/23 14:25:48.7      89   -338     88    350    361 165.1  14.2  34266  291.37 0854.34
2009/04/23 14:25:48.8     -12   -368    -34    369    371 181.9  -5.4  34258  291.22 0854.34
2009/04/23 14:25:48.9      28   -397    -53    398    402 175.9  -7.6  34256  291.20 0854.34
2009/04/23 14:25:49.0      80   -429    -69    437    443 169.4  -9.0  34258  291.24 0854.34
2009/04/23 14:25:49.1      69   -403    -91    410    421 170.2 -12.6  34270  291.43 0854.34
2009/04/23 14:25:49.2     -36   -336   -120    339    360 186.3 -19.6  34290  291.78 0854.34
2009/04/23 14:25:49.3     -84   -263   -101    277    294 197.8 -25.4  34296  291.89 0854.34
2009/04/23 14:25:49.4     -58   -256    -90    263    277 192.9 -23.8  34272  291.48 0854.34
2009/04/23 14:25:49.5      16   -218    -58    219    227 175.6 -15.0  34256  291.20 0854.34
2009/04/23 14:25:49.6      16   -212    -12    213    214 175.6  -3.3  34252  291.13 0854.34
2009/04/23 14:25:49.7     -12   -276    -32    277    279 182.6  -6.7  34258  291.22 0854.34
2009/04/23 14:25:49.8      28   -304    -52    306    311 174.6  -9.7  34258  291.22 0854.34
2009/04/23 14:25:49.9      60   -265     13    272    273 167.1   2.8  34254  291.17 0854.34
2009/04/23 14:25:50.0      60   -230    -21    238    239 165.3  -5.2  34256  291.21 0854.34
2009/04/23 14:25:50.1     -14   -305     40    306    309 182.7   7.5  34250  291.09 0854.34
2009/04/23 14:25:50.2     -18   -296     14    297    298 183.5   2.8  34242  290.97 0854.34
2009/04/23 14:25:50.3      13   -372     -7    373    374 178.0  -1.2  34244  291.01 0854.34
2009/04/23 14:25:50.4     -59   -359      5    364    365 189.4   0.8  34238  290.88 0854.34
2009/04/23 14:25:50.5     -30   -369    -14    371    372 184.7  -2.2  34238  290.91 0854.34
2009/04/23 14:25:50.6      -9   -374    -66    375    381 181.5 -10.1  34252  291.15 0854.34
2009/04/23 14:25:50.7      63   -346    -60    352    358 169.7  -9.8  34258  291.25 0854.34
2009/04/23 14:25:50.8      60   -297    -48    304    308 168.4  -9.0  34258  291.24 0854.34
2009/04/23 14:25:50.9      88   -254    -79    269    281 160.8 -16.5  34256  291.21 0854.34
2009/04/23 14:25:51.0      90   -297    -95    311    325 163.1 -22.1  34256  291.19 0854.34
2009/04/23 14:25:51.1     126   -318    -21    343    344 158.3  -3.5  34258  291.25 0854.34
2009/04/23 14:25:51.2     181   -384    -86    425    434 154.7 -11.5  34258  291.23 0854.34
2009/04/23 14:25:51.3     139   -350    -59    377    382 158.3  -9.0  34250  291.10 0854.34
2009/04/23 14:25:51.4     211   -331   -110    393    409 147.4 -15.7  34248  291.06 0854.34
2009/04/23 14:25:51.5     252   -364    -72    443    450 145.3  -9.3  34238  290.90 0854.34
2009/04/23 14:25:51.6     267   -356    -57    445    449 143.1  -7.3  34232  290.78 0854.34
2009/04/23 14:25:51.7     226   -355    -13    421    422 147.5  -1.8  34248  291.07 0854.34
2009/04/23 14:25:51.8     178   -313   -151    361    391 150.4 -28.5  34250  291.11 0854.34
2009/04/23 14:25:51.9     120   -307    -91    330    343 158.6 -15.4  34258  291.25 0854.34
2009/04/23 14:25:52.0     109   -322    -31    341    343 161.3  -5.2  34260  291.28 0854.34
2009/04/23 14:25:52.1     191   -360    -51    408    412 152.0  -7.2  34254  291.16 0854.34
2009/04/23 14:25:52.2     141   -416    -20    440    441 161.3  -2.6  34246  291.04 0854.34
2009/04/23 14:25:52.3     137   -400    -50    423    426 161.1  -6.8  34250  291.09 0854.34
2009/04/23 14:25:52.4     131   -361    -78    385    394 160.1 -11.6  34248  291.05 0854.34
2009/04/23 14:25:52.5     190   -327    -48    379    383 149.8  -7.3  34252  291.13 0854.34
2009/04/23 14:25:52.6     175   -329    -20    373    374 151.9  -3.1  34258  291.22 0854.34
2009/04/23 14:25:52.7     171   -362    -32    401    403 154.7  -4.6  34258  291.22 0854.34
2009/04/23 14:25:52.8     118   -437    -72    453    459 164.8  -9.1  34258  291.24 0854.34
2009/04/23 14:25:52.9      79   -407    -87    415    425 168.9 -11.9  34256  291.21 0854.34
2009/04/23 14:25:53.0     107   -436    -73    449    456 166.2  -9.3  34246  291.04 0854.34
2009/04/23 14:25:53.1      65   -386    -22    392    393 170.4  -3.3  34250  291.10 0854.34
2009/04/23 14:25:53.2       4   -326    -12    327    328 179.3  -2.2  34254  291.16 0854.34
2009/04/23 14:25:53.3     -50   -283    -40    288    291 190.0  -8.0  34252  291.14 0854.34
2009/04/23 14:25:53.4     -13   -268    -34    269    272 182.9  -7.3  34256  291.19 0854.35
2009/04/23 14:25:53.5     -10   -223    -53    224    231 182.7 -13.3  34256  291.21 0854.35
2009/04/23 14:25:53.6     -73   -252    -72    263    273 196.3 -15.4  34252  291.14 0854.35
2009/04/23 14:25:53.7       4   -349     13    350    351 179.3   2.2  34256  291.20 0854.35
2009/04/23 14:25:53.8      20   -432    -86    433    442 177.3 -11.3  34256  291.21 0854.35
2009/04/23 14:25:53.9     -22   -410    -26    411    412 183.2  -3.7  34246  291.02 0854.35
2009/04/23 14:25:54.0     -72   -367    -64    375    381 191.2  -9.7  34250  291.10 0854.35
2009/04/23 14:25:54.1       0   -276    -35    277    280 180.0  -7.2  34252  291.14 0854.35
2009/04/23 14:25:54.2     -14   -392    -34    393    395 182.1  -5.1  34258  291.23 0854.35
2009/04/23 14:25:54.3     -10   -434    -10    435    436 181.4  -1.4  34254  291.16 0854.35
2009/04/23 14:25:54.4      -8   -399   -100    400    413 181.2 -14.1  34250  291.09 0854.35
2009/04/23 14:25:54.5     -48   -417   -115    420    436 186.7 -15.4  34252  291.12 0854.35
2009/04/23 14:25:54.6     -72   -369    -76    377    385 191.1 -11.5  34248  291.08 0854.35
2009/04/23 14:25:54.7     -20   -217   -206    219    300 185.3 -52.4  34258  291.22 0854.35
2009/04/23 14:25:54.8      84   -132   -150    157    217 147.4 -52.9  34248  291.08 0854.35
2009/04/23 14:25:54.9      -3   -229   -223    230    320 180.9 -53.6  34256  291.21 0854.35
2009/04/23 14:25:55.0     -12   -262   -157    263    306 182.7 -37.9  34256  291.19 0854.35
2009/04/23 14:25:55.1    -179   -306   -171    355    394 210.4 -32.1  34238  290.88 0854.35
2009/04/23 14:25:55.2    -176   -410   -233    447    504 203.2 -34.2  34228  290.74 0854.35
2009/04/23 14:25:55.3     -85   -328   -213    339    400 194.6 -39.7  34234  290.84 0854.35
2009/04/23 14:25:55.4    -107   -312   -204    330    387 199.0 -39.4  34234  290.84 0854.38
2009/04/23 14:25:55.5    -160   -307   -153    347    379 207.6 -29.6  34238  290.88 0854.38
2009/04/23 14:25:55.6     -34   -303   -126    305    330 186.5 -28.1  34234  290.83 0854.38
2009/04/23 14:25:55.7      -6   -319   -154    320    355 181.1 -31.8  34248  291.05 0854.38
2009/04/23 14:25:55.8      -5   -352   -156    353    385 180.9 -29.7  34244  291.00 0854.38
2009/04/23 14:25:55.9       6   -386   -148    387    414 179.0 -26.4  34236  290.85 0854.38
2009/04/23 14:25:56.0     121   -418   -137    436    458 163.9 -17.5  34230  290.77 0854.38
2009/04/23 14:25:56.1     113   -347   -124    366    387 161.9 -18.7  34228  290.71 0854.38
2009/04/23 14:25:56.2      96   -335   -123    349    371 164.0 -19.5  34234  290.83 0854.38
2009/04/23 14:25:56.3      98   -395    -67    408    414 166.0  -9.3  34230  290.77 0854.38
2009/04/23 14:25:56.4      92   -370   -102    382    396 166.0 -15.1  34234  290.84 0854.38
2009/04/23 14:25:56.5     100   -306    -88    322    335 161.9 -15.4  34228  290.74 0854.38
2009/04/23 14:25:56.6      97   -249    -74    268    279 158.6 -15.5  34234  290.83 0854.38
2009/04/23 14:25:56.7      82   -228    -87    243    258 160.2 -24.8  34236  290.87 0854.38
2009/04/23 14:25:56.8      79   -239    -77    252    264 161.7 -17.0  34230  290.75 0854.38
2009/04/23 14:25:56.9      72   -372   -133    379    402 169.0 -19.4  34240  290.94 0854.38
2009/04/23 14:25:57.0      32   -423   -132    425    445 175.6 -22.2  34240  290.94 0854.38
2009/04/23 14:25:57.1      59   -324    -31    330    332 169.7  -5.4  34232  290.79 0854.38
2009/04/23 14:25:57.2      91   -276     26    291    293 161.7   5.2  34236  290.87 0854.38
2009/04/23 14:25:57.3      92   -276    -19    292    293 161.5  -3.7  34238  290.90 0854.38
2009/04/23 14:25:57.4      99   -294    -20    311    312 161.3  -3.8  34236  290.87 0854.40
2009/04/23 14:25:57.5     130   -425    -24    445    446 163.0  -3.1  34234  290.84 0854.40
2009/04/23 14:25:57.6     116   -446    -25    461    462 165.4  -3.2  34234  290.82 0854.40
2009/04/23 14:25:57.7      73   -486      0    492    493 171.4   0.0  34242  290.95 0854.40
2009/04/23 14:25:57.8      54   -533     30    536    537 174.2   3.2  34236  290.87 0854.40
2009/04/23 14:25:57.9     135   -490     39    509    511 164.6   4.5  34238  290.90 0854.40
2009/04/23 14:25:58.0     128   -579      8    594    595 167.5   0.8  34232  290.81 0854.40
2009/04/23 14:25:58.1     163   -586      8    609    610 164.4   0.8  34232  290.81 0854.40
2009/04/23 14:25:58.2      69   -554    -75    559    565 172.9  -7.7  34246  291.03 0854.40
2009/04/23 14:25:58.3     -98   -497   -165    507    534 191.2 -18.0  34246  291.04 0854.40
2009/04/23 14:25:58.4     -93   -489   -138    498    517 190.8 -15.5  34258  291.22 0854.40
2009/04/23 14:25:58.5    -151   -501    -61    524    528 196.8  -6.7  34250  291.11 0854.40
2009/04/23 14:25:58.6    -161   -432    -59    462    466 200.4  -7.3  34238  290.90 0854.40
2009/04/23 14:25:58.7    -136   -479    -14    499    500 195.9  -1.6  34222  290.64 0854.40
2009/04/23 14:25:58.8      27   -497      3    498    499 176.9   0.4  34228  290.73 0854.40
2009/04/23 14:25:58.9      -7   -436    -41    437    440 181.0  -5.4  34230  290.75 0854.40
2009/04/23 14:25:59.0      -4   -411    -83    412    421 180.6 -11.5  34226  290.68 0854.40
2009/04/23 14:25:59.1      -6   -389    -89    390    401 180.9 -12.9  34220  290.59 0854.40
2009/04/23 14:25:59.2    -198   -432    -62    476    480 204.6  -7.5  34218  290.56 0854.40
2009/04/23 14:25:59.3    -354   -395    -82    531    538 221.9  -8.8  34230  290.77 0854.40
2009/04/23 14:25:59.4    -203   -559    -47    595    597 200.0  -4.6  34210  290.41 0854.37
2009/04/23 14:25:59.5     -96   -479    -82    489    496 191.4  -9.6  34212  290.45 0854.37
2009/04/23 14:25:59.6     -36   -412    -53    414    418 185.1  -7.3  34218  290.56 0854.37
2009/04/23 14:25:59.7    -154   -359    -76    391    399 203.2 -11.1  34208  290.38 0854.37
2009/04/23 14:25:59.8    -136   -310    -67    339    346 203.8 -11.3  34212  290.45 0854.37
2009/04/23 14:25:59.9    -206   -172    -63    269    277 230.2 -13.3  34222  290.61 0854.37
2009/04/23 14:26:00.0    -263   -133    -82    295    307 243.1 -15.5  34230  290.76 0854.37
2009/04/23 14:26:00.1    -251   -148      2    292    293 239.4   0.5  34236  290.87 0854.37
2009/04/23 14:26:00.2    -120   -134    -28    181    184 221.9  -9.0  34228  290.72 0854.37
2009/04/23 14:26:00.3     -11   -247     26    248    250 182.7   6.1  34228  290.71 0854.37
2009/04/23 14:26:00.5      76   -206    -34    220    223 159.7  -9.0  34226  290.70 0854.37
2009/04/23 14:26:00.5     160   -184    -11    244    245 139.0  -2.6  34218  290.56 0854.37
2009/04/23 14:26:00.6     171   -243    -17    298    299 144.8  -3.3  34218  290.56 0854.37
2009/04/23 14:26:00.7     146   -192    -11    242    243 142.8  -2.6  34216  290.53 0854.37
2009/04/23 14:26:00.8     146   -241    -12    282    283 148.8  -2.6  34228  290.73 0854.37
2009/04/23 14:26:00.9      -5   -262     13    263    264 181.1   2.9  34228  290.71 0854.37
2009/04/23 14:26:01.0      -1   -263    -76    264    274 180.2 -20.8  34230  290.75 0854.37
2009/04/23 14:26:01.1      59   -345     15    350    351 170.3   2.5  34224  290.66 0854.37
2009/04/23 14:26:01.3     124   -314     79    338    348 158.3  13.3  34228  290.74 0854.37
2009/04/23 14:26:01.4     117   -321     75    342    351 160.0  12.4  34228  290.72 0854.37
2009/04/23 14:26:01.5       0   -311    -17    312    313 179.9  -3.1  34232  290.80 0854.36
2009/04/23 14:26:01.6     -29   -356     -6    358    359 184.7  -1.1  34232  290.81 0854.36
2009/04/23 14:26:01.7     -84   -351    -51    362    366 193.6  -8.1  34234  290.84 0854.36
2009/04/23 14:26:01.8    -135   -233    -55    270    276 210.1 -11.6  34228  290.71 0854.36
2009/04/23 14:26:01.9     -39   -124     -5    131    132 197.4  -2.2  34238  290.89 0854.36
2009/04/23 14:26:02.0     -34   -199    -33    202    205 189.8  -9.3  34234  290.84 0854.36
2009/04/23 14:26:02.1     -46   -209    -43    215    220 192.5 -11.5  34240  290.92 0854.36
2009/04/23 14:26:02.2     -74   -116    -56    138    148 212.5 -27.5  34238  290.89 0854.36
2009/04/23 14:26:02.3     -51   -133   -114    143    182 200.9 -47.4  34244  290.99 0854.36
2009/04/23 14:26:02.4      25   -188   -125    190    227 172.4 -40.7  34240  290.94 0854.36
2009/04/23 14:26:02.5    -129   -194    -83    234    249 213.6 -19.7  34238  290.90 0854.36
2009/04/23 14:26:02.6    -135   -287   -170    318    360 205.3 -35.0  34238  290.88 0854.36
2009/04/23 14:26:02.7    -130   -255   -131    287    315 207.1 -30.6  34244  290.99 0854.36
2009/04/23 14:26:02.8      30   -298   -107    300    318 174.2 -24.8  34234  290.83 0854.36
2009/04/23 14:26:02.9      17   -268      8    269    270 176.4   1.8  34246  291.02 0854.36
2009/04/23 14:26:03.0      92   -166     -7    190    191 151.0  -2.2  34242  290.98 0854.36
2009/04/23 14:26:03.1     175   -234      5    293    294 143.1   1.0  34238  290.90 0854.36
2009/04/23 14:26:03.2     145   -244    -10    285    286 149.3  -2.1  34234  290.82 0854.36
2009/04/23 14:26:03.3     113   -336     46    355    358 161.3   7.4  34228  290.74 0854.36
2009/04/23 14:26:03.4     117   -289     76    312    322 157.9  13.8  34228  290.71 0854.36
2009/04/23 14:26:03.5     201   -292    115    355    374 145.5  17.9  34220  290.59 0854.40
2009/04/23 14:26:03.6     212   -313    209    379    432 145.9  31.4  34222  290.61 0854.40
2009/04/23 14:26:03.7     107   -243    174    266    317 156.2  36.4  34230  290.75 0854.40
2009/04/23 14:26:03.8     155   -211    176    262    315 143.7  37.2  34234  290.82 0854.40
2009/04/23 14:26:03.9     183   -125    184    222    288 124.4  43.8  34242  290.97 0854.40
2009/04/23 14:26:04.0     137   -214    250    255    357 147.4  49.7  34234  290.83 0854.40
2009/04/23 14:26:04.1     276   -153    193    316    370 119.1  34.4  34234  290.84 0854.40
2009/04/23 14:26:04.2     291   -160    252    333    417 118.9  40.8  34242  290.98 0854.40
2009/04/23 14:26:04.3     289   -215    250    361    439 126.6  37.9  34238  290.89 0854.40
2009/04/23 14:26:04.4     189   -241    255    307    399 141.9  44.0  34240  290.94 0854.40
2009/04/23 14:26:04.5     109   -124    211    166    268 138.8  57.7  34240  290.93 0854.40
2009/04/23 14:26:04.6     163   -233    201    285    348 145.0  38.7  34240  290.93 0854.40
2009/04/23 14:26:04.7     105   -312    255    330    417 161.3  41.6  34238  290.89 0854.40
2009/04/23 14:26:04.8      99   -316    224    332    400 162.5  37.3  34234  290.84 0854.40
2009/04/23 14:26:04.9     133   -295    215    324    388 155.7  36.5  34238  290.89 0854.40
2009/04/23 14:26:05.0      86   -406    201    416    462 168.0  27.3  34242  290.95 0854.40
2009/04/23 14:26:05.1      36   -385    176    387    425 174.6  26.2  34244  290.99 0854.40
2009/04/23 14:26:05.2      24   -403    229    404    464 176.5  32.0  34242  290.97 0854.40
2009/04/23 14:26:05.3       6   -429    240    430    492 179.1  31.6  34248  291.07 0854.40
2009/04/23 14:26:05.4     -71   -479    167    485    514 188.5  19.1  34244  291.00 0854.40
2009/04/23 14:26:05.5     -70   -497    171    503    532 188.0  18.8  34244  290.99 0854.43
2009/04/23 14:26:05.6     -52   -567    261    570    626 185.3  26.3  34242  290.95 0854.43
2009/04/23 14:26:05.7     133   -399    260    421    494 161.5  34.6  34240  290.93 0854.43
2009/04/23 14:26:05.8      65   -382    220    388    446 170.2  32.1  34240  290.92 0854.43
2009/04/23 14:26:05.9     -13   -417    185    418    457 181.8  25.3  34252  291.14 0854.43
2009/04/23 14:26:06.0     -14   -322    140    323    352 182.6  25.0  34258  291.25 0854.43
2009/04/23 14:26:06.1       0   -305    111    306    325 180.1  20.7  34244  291.00 0854.43
2009/04/23 14:26:06.2     -88   -251     33    267    270 199.4   7.2  34250  291.09 0854.43
2009/04/23 14:26:06.3     -16   -167    -24    168    170 185.8  -8.2  34248  291.08 0854.43
2009/04/23 14:26:06.4       8   -235     -1    236    237 178.0  -0.3  34248  291.05 0854.43
2009/04/23 14:26:06.5     -81   -234     67    248    257 199.1  15.2  34242  290.97 0854.43
2009/04/23 14:26:06.6    -304   -154    -98    341    354 243.1 -20.9  34258  291.23 0854.43
2009/04/23 14:26:06.7    -234   -265    -74    354    362 221.5 -11.9  34256  291.20 0854.43
2009/04/23 14:26:06.8    -128   -327     -7    352    353 201.4  -1.3  34250  291.10 0854.43
2009/04/23 14:26:06.9    -299   -299   -178    424    459 225.0 -28.6  34188  290.05 0854.43
2009/04/23 14:26:07.0    -293   -302   -129    421    440 224.1 -22.1  34208  290.38 0854.43
2009/04/23 14:26:07.1    -309   -342   -245    461    522 222.1 -34.7  34204  290.32 0854.43
2009/04/23 14:26:07.2    -318   -267   -206    416    464 229.9 -32.6  34232  290.80 0854.43
2009/04/23 14:26:07.3    -388   -226   -170    449    480 239.8 -26.1  34242  290.96 0854.43
2009/04/23 14:26:07.4    -300   -156   -112    339    358 242.5 -18.3  34248  291.05 0854.43
2009/04/23 14:26:07.5    -209   -172    -81    271    282 230.5 -21.7  34238  290.90 0854.38
2009/04/23 14:26:07.6    -198    -93    -67    219    230 244.8 -17.0  34236  290.86 0854.38
2009/04/23 14:26:07.7    -203    -89     76    222    235 246.3  18.9  34254  291.18 0854.38
2009/04/23 14:26:07.8    -315    -59    191    321    373 259.4  33.5  34260  291.27 0854.38
2009/04/23 14:26:07.9    -196    -77    193    211    285 248.3  47.1  34264  291.33 0854.38
2009/04/23 14:26:08.0    -187    -14     79    188    203 265.6  23.8  34270  291.43 0854.38
2009/04/23 14:26:08.1     -74     17     24     77     81 283.3  17.3  34264  291.35 0854.38
2009/04/23 14:26:08.2     -96    -28     -3    101    102 253.6  -2.2  34262  291.30 0854.38
2009/04/23 14:26:08.3    -142   -143     55    202    210 224.9  15.2  34268  291.40 0854.38
2009/04/23 14:26:08.4    -114   -167     62    203    213 214.3  17.1  34252  291.15 0854.38
2009/04/23 14:26:08.5    -179   -155      9    237    238 229.1   2.3  34276  291.53 0854.38
2009/04/23 14:26:08.6     -88   -141    -65    167    179 212.1 -26.9  34262  291.30 0854.38
2009/04/23 14:26:08.7    -174    -11    -58    175    184 266.1 -23.8  34274  291.52 0854.38
2009/04/23 14:26:08.8    -160     49   -116    168    204 287.1 -42.2  34280  291.60 0854.38
2009/04/23 14:26:08.9     -99      0    -96    100    138 270.4 -53.4  34260  291.26 0854.38
2009/04/23 14:26:09.0    -196     -4     -3    197    198 268.7  -1.2  34272  291.47 0854.38
2009/04/23 14:26:09.1    -208     22      0    210    211 276.2   0.0  34260  291.26 0854.38
2009/04/23 14:26:09.2    -172      3    -40    173    178 271.3 -13.2  34252  291.13 0854.38
2009/04/23 14:26:09.3    -161     17     29    162    165 276.1  10.3  34256  291.20 0854.38
2009/04/23 14:26:09.4    -148    -86     -6    172    173 239.8  -2.2  34230  290.75 0854.38
2009/04/23 14:26:09.5    -221     59     59    229    237 285.1  14.5  34232  290.78 0854.34
2009/04/23 14:26:09.6    -350     45     57    353    358 277.5   9.2  34230  290.76 0854.34
2009/04/23 14:26:09.7    -321   -152    -63    356    362 244.6 -10.1  34222  290.62 0854.34
2009/04/23 14:26:09.8    -334     -2   -186    335    383 269.5 -35.8  34236  290.86 0854.34
2009/04/23 14:26:09.9    -251    -71   -178    261    315 254.1 -42.0  34210  290.42 0854.34
2009/04/23 14:26:10.0    -294    -33   -281    296    408 263.4 -52.9  34202  290.30 0854.34
2009/04/23 14:26:10.1    -274     73   -198    284    346 285.0 -42.8  34214  290.49 0854.34
2009/04/23 14:26:10.2    -303     18   -241    304    387 273.4 -46.8  34226  290.69 0854.34
2009/04/23 14:26:10.3    -197     65   -234    208    313 288.4 -58.1  34214  290.49 0854.34
2009/04/23 14:26:10.4     -19    247   -167    248    298 355.5 -41.8  34228  290.71 0854.34
2009/04/23 14:26:10.5    -188     36   -241    192    308 280.8 -61.9  34234  290.82 0854.33
2009/04/23 14:26:10.6      13    -84   -122     86    149 171.1 -65.5  34242  290.98 0854.33
2009/04/23 14:26:10.7      97     52   -138    111    177  61.6 -61.3  34238  290.89 0854.33
2009/04/23 14:26:10.8      -7     77    -97     78    124 354.7 -61.9  34226  290.69 0854.33
2009/04/23 14:26:10.9    -123    317    -94    341    354 338.8 -15.5  34228  290.72 0854.33
2009/04/23 14:26:11.0     -79    198    -20    214    216 338.1  -5.6  34230  290.77 0854.33
2009/04/23 14:26:11.1    -147     11    -19    148    150 274.3  -7.3  34218  290.57 0854.33
2009/04/23 14:26:11.2    -119   -137    181    182    256 221.0  50.0  34224  290.66 0854.33
2009/04/23 14:26:11.3     -81   -203    187    219    287 201.8  44.8  34230  290.75 0854.33
2009/04/23 14:26:11.4     -67   -249    180    259    315 195.2  38.3  34212  290.46 0854.33
2009/04/23 14:26:11.5    -139   -292    207    324    384 205.5  35.6  34218  290.54 0854.33
2009/04/23 14:26:11.6    -185   -185    156    262    304 225.0  33.5  34222  290.63 0854.33
2009/04/23 14:26:11.7     -26    -31     80     41     89 220.5  71.4  34228  290.72 0854.33
2009/04/23 14:26:11.8     199     46    138    205    247  77.0  37.0  34234  290.82 0854.33
2009/04/23 14:26:11.9     116    195    242    228    332  30.8  52.1  34310  292.13 0854.33
2009/04/23 14:26:12.0     -55    205    246    213    325 344.8  54.8  34312  292.14 0854.33
2009/04/23 14:26:12.1     -57    401    338    406    528 351.9  44.0  34356  292.90 0854.33
2009/04/23 14:26:12.2     229    341    382    411    561  33.9  47.8  34250  291.10 0854.33
2009/04/23 14:26:12.3     -92    379    342    390    518 346.3  45.8  34318  292.24 0854.33
2009/04/23 14:26:12.4     -97    359    304    372    480 344.9  43.5  34282  291.63 0854.33
2009/04/23 14:26:12.5     294    171    426    341    545  59.9  57.5  34262  291.29 0854.31
2009/04/23 14:26:12.6      19    -80    390     83    398 166.6  88.5  34296  291.88 0854.31
2009/04/23 14:26:12.7     -95   -204    368    226    431 204.9  65.7  34278  291.57 0854.31
2009/04/23 14:26:12.8    -105    -68    323    126    346 237.1  77.6  34286  291.72 0854.31
2009/04/23 14:26:12.9    -161    -46    216    168    273 253.8  58.4  34274  291.51 0854.31
2009/04/23 14:26:13.0    -176    -54    217    185    285 252.9  55.4  34282  291.63 0854.31
2009/04/23 14:26:13.1      25    122    171    125    211  11.6  60.5  34286  291.71 0854.31
2009/04/23 14:26:13.2     327    -10    344    328    475  91.8  51.6  34258  291.23 0854.31
2009/04/23 14:26:13.3     274    -82    392    287    485 106.8  60.3  34250  291.11 0854.31
2009/04/23 14:26:13.4     263   -309    352    407    538 139.6  45.2  34246  291.02 0854.31
2009/04/23 14:26:13.5     359   -361    405    510    651 135.2  42.6  34236  290.87 0854.31
2009/04/23 14:26:13.6     213   -301    364    369    518 144.7  49.9  34238  290.88 0854.31
2009/04/23 14:26:13.7     281   -388    363    480    601 144.0  40.8  34228  290.74 0854.31
2009/04/23 14:26:13.8     175   -515    313    545    628 161.2  32.4  34232  290.78 0854.31
2009/04/23 14:26:13.9     160   -422    386    452    594 159.2  44.9  34224  290.65 0854.31
2009/04/23 14:26:14.0     206   -322    309    383    492 147.3  43.1  34230  290.75 0854.31
2009/04/23 14:26:14.1     448   -203    318    492    585 114.4  35.9  34230  290.77 0854.31
2009/04/23 14:26:14.2     354   -190    428    402    587 118.3  52.1  34246  291.04 0854.31
2009/04/23 14:26:14.3      81    -37    244     90    260 114.4  79.1  34248  291.08 0854.31
2009/04/23 14:26:14.4      18    -59    290     62    296 162.2  88.5  34246  291.04 0854.31
2009/04/23 14:26:14.5      51    -25    332     57    336 116.2  90.0  34260  291.26 0854.31
2009/04/23 14:26:14.6     199   -463    487    505    701 156.7  49.0  34230  290.77 0854.31
2009/04/23 14:26:14.7     191   -236    319    304    440 141.0  51.6  34252  291.15 0854.31
2009/04/23 14:26:14.8     232   -318    400    394    561 143.9  50.4  34228  290.71 0854.31
2009/04/23 14:26:14.9       4   -285    403    286    494 179.1  61.2  34244  291.01 0854.31
2009/04/23 14:26:15.0      -3   -216    390    217    446 180.9  68.8  34248  291.08 0854.31
2009/04/23 14:26:15.1      27    -93    428     98    439 163.5  87.5  34256  291.20 0854.31
2009/04/23 14:26:15.2     -84    -22    384     88    393 254.9  87.4  34252  291.12 0854.31
2009/04/23 14:26:15.3      -4   -173    414    174    449 181.4  76.0  34258  291.25 0854.31
2009/04/23 14:26:15.4     -71   -353    461    361    585 191.5  58.2  34262  291.31 0854.31
2009/04/23 14:26:15.5    -383   -679    556    780    957 209.4  39.1  34236  290.87 0854.31
2009/04/23 14:26:15.6     -65   -792    514    795    946 184.7  35.9  34242  290.96 0854.31
2009/04/23 14:26:15.7     -77   -635    513    640    820 187.0  42.7  34228  290.74 0854.31
2009/04/23 14:26:15.8    -135   -662    464    676    819 191.6  37.8  34236  290.85 0854.31
2009/04/23 14:26:15.9    -126   -598    472    612    772 191.9  41.6  34234  290.84 0854.31
2009/04/23 14:26:16.0    -234   -584    410    630    751 201.8  36.2  34242  290.95 0854.31
2009/04/23 14:26:16.1    -279   -523    441    593    739 208.1  40.4  34242  290.97 0854.31
2009/04/23 14:26:16.2    -330   -635    270    716    765 207.5  21.7  34250  291.11 0854.31
2009/04/23 14:26:16.3    -204   -601    314    636    709 198.8  28.2  34250  291.09 0854.31
2009/04/23 14:26:16.4    -273   -544    204    609    643 206.7  18.6  34246  291.03 0854.31
2009/04/23 14:26:16.5    -224   -599    -11    640    641 200.6  -1.0  34258  291.25 0854.29
2009/04/23 14:26:16.6    -114   -479     28    493    494 193.4   3.3  34246  291.03 0854.29
2009/04/23 14:26:16.7    -107   -543    154    554    576 191.2  15.6  34232  290.79 0854.29
2009/04/23 14:26:16.8    -250   -391    127    465    483 212.6  15.3  34244  291.00 0854.29
2009/04/23 14:26:16.9    -278   -234     42    364    367 230.0   6.7  34250  291.11 0854.29
2009/04/23 14:26:17.0    -226   -286    176    365    405 218.3  27.4  34258  291.23 0854.29
2009/04/23 14:26:17.1    -151   -185    213    239    320 219.2  46.4  34258  291.22 0854.29
2009/04/23 14:26:17.2    -342    -52    201    346    400 261.3  32.9  34294  291.86 0854.29
2009/04/23 14:26:17.3    -209   -143    141    254    290 235.6  31.4  34276  291.53 0854.29
2009/04/23 14:26:17.4    -258   -281     89    382    393 222.6  13.1  34238  290.89 0854.29
2009/04/23 14:26:17.5    -126   -227    197    260    326 209.0  40.9  34230  290.76 0854.29
2009/04/23 14:26:17.6     -49   -209    136    215    254 193.3  35.5  34232  290.78 0854.29
2009/04/23 14:26:17.7    -124   -102    102    161    190 230.5  35.5  34236  290.87 0854.29
2009/04/23 14:26:17.8    -145   -175     91    228    245 219.7  23.0  34236  290.85 0854.29
2009/04/23 14:26:17.9    -125   -129     59    181    191 224.1  18.1  34236  290.86 0854.29
2009/04/23 14:26:18.0      16    -65    -24     68     72 165.7 -23.3  34236  290.86 0854.29
2009/04/23 14:26:18.1      -3    -97    -34     98    103 181.8 -23.3  34238  290.91 0854.29
2009/04/23 14:26:18.2    -160   -366    -51    400    404 203.6  -7.3  34236  290.85 0854.29
2009/04/23 14:26:18.3    -112   -303    -58    324    330 200.3 -10.2  34232  290.78 0854.29
2009/04/23 14:26:18.4    -131   -287    -90    316    329 204.5 -15.9  34240  290.92 0854.29
2009/04/23 14:26:18.5    -174   -308     -3    354    355 209.5  -0.5  34236  290.86 0854.34
2009/04/23 14:26:18.6     -87   -344     33    356    358 194.3   5.3  34230  290.77 0854.34
2009/04/23 14:26:18.7      37   -281    -27    284    286 172.4  -5.6  34230  290.75 0854.34
2009/04/23 14:26:18.8      -5   -212     -8    213    214 181.6  -2.2  34224  290.67 0854.34
2009/04/23 14:26:18.9     -18   -131    -34    133    138 188.0 -14.5  34228  290.74 0854.34
2009/04/23 14:26:19.0      86    -86    -45    123    130 135.0 -25.4  34238  290.91 0854.34
2009/04/23 14:26:19.1     146   -187    -81    238    252 142.1 -18.9  34230  290.75 0854.34
2009/04/23 14:26:19.2     132   -247    -46    281    285 151.9  -9.3  34240  290.92 0854.34
2009/04/23 14:26:19.3      93   -188    -72    210    223 153.7 -18.9  34242  290.96 0854.34
2009/04/23 14:26:19.4      69   -136    -41    153    159 152.9 -15.0  34240  290.92 0854.34
2009/04/23 14:26:19.5     166   -202     97    262    279 140.6  21.0  34232  290.80 0854.34
2009/04/23 14:26:19.6     164   -256     14    305    306 147.4   2.8  34240  290.93 0854.34
2009/04/23 14:26:19.7     163   -257      9    305    306 147.5   1.7  34248  291.05 0854.34
2009/04/23 14:26:19.8     114   -246    -31    272    274 155.1  -6.7  34244  291.00 0854.34
2009/04/23 14:26:19.9      34   -416     58    418    422 175.2   7.9  34250  291.09 0854.34
2009/04/23 14:26:20.0       0   -432     84    433    442 179.9  11.0  34252  291.12 0854.34
2009/04/23 14:26:20.1      42   -372    131    375    398 173.5  19.3  34248  291.08 0854.34
2009/04/23 14:26:20.2      25   -320     97    322    337 175.5  16.8  34248  291.05 0854.34
2009/04/23 14:26:20.3      45   -328    113    332    351 172.2  18.9  34242  290.98 0854.34
2009/04/23 14:26:20.4      58   -383     51    388    392 171.3   7.6  34248  291.05 0854.34
2009/04/23 14:26:20.5      29   -341     60    343    349 175.1  10.0  34242  290.98 0854.40
2009/04/23 14:26:20.6      10   -345      6    346    347 178.2   1.1  34246  291.03 0854.40
2009/04/23 14:26:20.7      57   -367     29    372    374 171.1   4.5  34242  290.96 0854.40
2009/04/23 14:26:20.8     110   -372      3    389    390 163.5   0.5  34242  290.98 0854.40
2009/04/23 14:26:20.9     127   -370    -25    392    393 161.1  -3.7  34242  290.98 0854.40
2009/04/23 14:26:21.0       3   -399    -29    400    402 179.5  -4.2  34244  291.01 0854.40
2009/04/23 14:26:21.1     118   -473     40    488    490 166.0   4.7  34252  291.15 0854.40
2009/04/23 14:26:21.2     112   -506     97    519    528 167.5  10.6  34244  290.99 0854.40
2009/04/23 14:26:21.3     104   -508     81    519    526 168.4   8.9  34252  291.13 0854.40
2009/04/23 14:26:21.4      54   -601    140    604    621 174.8  13.1  34238  290.89 0854.40
2009/04/23 14:26:21.5     124   -615    269    628    683 168.6  24.6  34218  290.56 0854.40
2009/04/23 14:26:21.6     134   -630    147    645    662 168.0  12.9  34220  290.60 0854.40
2009/04/23 14:26:21.7     240   -572    200    621    653 157.2  17.9  34228  290.71 0854.40
2009/04/23 14:26:21.8     253   -503    147    564    583 153.3  14.6  34232  290.78 0854.40
2009/04/23 14:26:21.9     102   -608    121    617    629 170.4  11.1  34230  290.76 0854.40
2009/04/23 14:26:22.0      43   -555    210    557    595 175.5  21.5  34222  290.63 0854.40
2009/04/23 14:26:22.1     210   -578    242    616    661 160.0  22.7  34208  290.40 0854.40
2009/04/23 14:26:22.2     185   -543    255    574    628 161.2  25.6  34210  290.42 0854.40
2009/04/23 14:26:22.3     138   -642    327    657    733 167.8  28.4  34208  290.40 0854.40
2009/04/23 14:26:22.4     209   -565    329    603    686 159.7  31.0  34216  290.51 0854.40
2009/04/23 14:26:22.5     207   -355    280    412    498 149.7  37.4  34222  290.62 0854.44
2009/04/23 14:26:22.6     141   -508    230    528    575 164.4  25.1  34220  290.58 0854.44
2009/04/23 14:26:22.7      74   -658    180    663    688 173.5  15.2  34228  290.73 0854.44
2009/04/23 14:26:22.8     166   -566    230    590    633 163.6  22.4  34214  290.48 0854.44
2009/04/23 14:26:22.9     171   -555    457    581    739 162.8  42.2  34212  290.44 0854.44
2009/04/23 14:26:23.0     186   -568    463    598    756 161.9  41.6  34218  290.57 0854.44
2009/04/23 14:26:23.1     240   -536    429    588    727 155.9  39.7  34222  290.63 0854.44
2009/04/23 14:26:23.2     191   -533    384    567    684 160.2  37.4  34220  290.60 0854.44
2009/04/23 14:26:23.3     185   -540    315    571    652 161.1  31.4  34234  290.84 0854.44
2009/04/23 14:26:23.4       9   -597    296    598    667 179.1  28.4  34236  290.86 0854.44
2009/04/23 14:26:23.5      -3   -685    283    686    742 180.3  23.7  34238  290.88 0854.44
2009/04/23 14:26:23.6     -83   -650    174    656    679 187.3  14.9  34218  290.56 0854.44
2009/04/23 14:26:23.7    -104   -583     73    593    598 190.1   7.1  34226  290.70 0854.44
2009/04/23 14:26:23.8    -118   -579    168    592    616 191.6  15.9  34214  290.49 0854.44
2009/04/23 14:26:23.9    -119   -617     31    629    630 191.0   2.9  34220  290.59 0854.44
2009/04/23 14:26:24.0    -145   -615     33    632    633 193.3   3.0  34220  290.60 0854.44
2009/04/23 14:26:24.1      -4   -534    247    535    589 180.5  26.5  34234  290.83 0854.44
2009/04/23 14:26:24.2     159   -607    111    628    638 165.3  10.1  34220  290.59 0854.44
2009/04/23 14:26:24.3     -41   -655     48    657    659 183.6   4.2  34202  290.27 0854.44
2009/04/23 14:26:24.4    -122   -601     35    614    615 191.5   3.3  34222  290.64 0854.44
2009/04/23 14:26:24.5    -125  -1023    384   1031   1100 187.0  21.5  34208  290.40 0854.45
2009/04/23 14:26:24.6    -136   -873    207    884    908 188.9  13.2  34212  290.46 0854.45
2009/04/23 14:26:24.7    -153   -846    160    860    875 190.3  10.6  34208  290.39 0854.45
2009/04/23 14:26:24.8    -111   -913    -40    920    921 187.0  -2.5  34210  290.43 0854.45
2009/04/23 14:26:24.9    -136   -915   -167    926    942 188.5 -10.3  34224  290.66 0854.45
2009/04/23 14:26:25.0    -157   -763   -182    780    802 191.7 -13.2  34232  290.80 0854.45
2009/04/23 14:26:25.1    -207   -809   -201    836    860 194.4 -13.6  34230  290.77 0854.45
2009/04/23 14:26:25.2    -202   -714   -212    743    772 195.8 -20.7  34228  290.74 0854.45
2009/04/23 14:26:25.3    -217   -635   -239    672    714 198.9 -19.6  34240  290.93 0854.45
2009/04/23 14:26:25.4    -219   -547   -194    590    621 201.9 -23.6  34232  290.78 0854.45
2009/04/23 14:26:25.5    -183   -420   -189    459    496 203.6 -28.0  34218  290.57 0854.45
2009/04/23 14:26:25.6    -233   -494   -174    547    575 205.3 -17.7  34214  290.50 0854.45
2009/04/23 14:26:25.7    -267   -473   -151    544    565 209.4 -15.5  34202  290.28 0854.45
2009/04/23 14:26:25.8    -221   -543   -131    587    602 202.2 -12.6  34202  290.29 0854.45
2009/04/23 14:26:25.9    -108   -565    -76    576    582 190.8  -7.6  34204  290.31 0854.45
2009/04/23 14:26:26.0     -79   -461    -14    468    469 189.8  -1.8  34202  290.30 0854.45
2009/04/23 14:26:26.1     -17   -384    -81    385    394 182.6 -12.0  34208  290.37 0854.45
2009/04/23 14:26:26.2     -74   -369    -15    377    378 191.4  -2.3  34210  290.42 0854.45
2009/04/23 14:26:26.3     119   -397    -80    415    423 163.3 -11.0  34206  290.34 0854.45
2009/04/23 14:26:26.4     -25   -373   -103    374    387 183.9 -20.0  34204  290.33 0854.45
2009/04/23 14:26:26.5      -5   -381    -69    382    389 180.9 -10.2  34208  290.38 0854.45
2009/04/23 14:26:26.6      97   -358   -105    371    386 164.8 -15.9  34204  290.32 0854.45
2009/04/23 14:26:26.7      41   -209    -93    214    233 168.9 -29.5  34212  290.45 0854.45
2009/04/23 14:26:26.8    -100   -207   -117    231    258 205.9 -33.5  34214  290.48 0854.45
2009/04/23 14:26:26.9     -77   -148   -190    168    253 207.6 -58.6  34212  290.47 0854.45
2009/04/23 14:26:27.0      36    -36   -159     51    166 135.0 -85.6  34224  290.65 0854.45
2009/04/23 14:26:27.1     197   -284   -131    346    369 145.2 -25.9  34202  290.28 0854.45
2009/04/23 14:26:27.2     245   -236     -3    341    342 133.9  -0.6  34208  290.40 0854.45
2009/04/23 14:26:27.3     232   -415    -18    476    477 150.7  -2.2  34208  290.37 0854.45
2009/04/23 14:26:27.5     149   -386     59    414    419 158.8   8.1  34204  290.31 0854.45
2009/04/23 14:26:27.6     -79   -300    129    311    336 194.9  23.8  34200  290.26 0854.45
2009/04/23 14:26:27.7     -88   -316     66    329    336 195.6  11.5  34214  290.50 0854.45
2009/04/23 14:26:27.8     -96   -372     38    385    387 194.5   5.7  34208  290.37 0854.45
2009/04/23 14:26:27.9     -17   -319    101    320    336 183.2  17.5  34212  290.45 0854.45
2009/04/23 14:26:28.0     -26   -245     95    247    264 186.3  22.1  34204  290.31 0854.45
2009/04/23 14:26:28.1     -67   -331    -42    339    342 191.6  -7.2  34210  290.43 0854.45
2009/04/23 14:26:28.2     -73   -313    -63    322    329 193.3 -11.1  34206  290.36 0854.45
2009/04/23 14:26:28.3     -24   -299    -47    301    305 184.7  -9.0  34210  290.41 0854.45
2009/04/23 14:26:28.4     148   -398    107    425    439 159.6  14.2  34212  290.46 0854.45
2009/04/23 14:26:28.5     223   -432     24    487    488 152.7   2.9  34208  290.37 0854.45
2009/04/23 14:26:28.6     341   -365    -10    500    501 137.0  -1.2  34206  290.35 0854.43
2009/04/23 14:26:28.7     486   -256     77    550    556 117.8   8.0  34210  290.41 0854.43
2009/04/23 14:26:28.8     295   -215     -8    366    367 126.1  -1.3  34210  290.43 0854.43
2009/04/23 14:26:28.9     334   -232     94    407    418 124.8  13.1  34206  290.34 0854.43
2009/04/23 14:26:29.0     300   -131    156    328    363 113.6  27.3  34210  290.43 0854.43
2009/04/23 14:26:29.1     321   -165    215    362    421 117.3  33.5  34222  290.62 0854.43
2009/04/23 14:26:29.2     269   -195    220    333    399 125.9  36.5  34238  290.88 0854.43
2009/04/23 14:26:29.3      99   -248    145    268    304 158.2  30.8  34218  290.54 0854.43
2009/04/23 14:26:29.4      91   -315    153    328    361 163.9  27.0  34210  290.42 0854.43
2009/04/23 14:26:29.5     105   -315    132    333    358 161.5  22.8  34210  290.43 0854.43
2009/04/23 14:26:29.6      98   -298    137    314    342 161.7  25.1  34210  290.43 0854.43
2009/04/23 14:26:29.7      67   -271    166    280    325 166.0  33.6  34216  290.53 0854.43
2009/04/23 14:26:29.8      30   -272    178    274    326 173.7  36.0  34216  290.53 0854.43
2009/04/23 14:26:29.9      19   -313    165    314    354 176.4  29.8  34214  290.50 0854.43
2009/04/23 14:26:30.0     -12   -355    296    356    462 182.0  43.8  34228  290.73 0854.43
2009/04/23 14:26:30.1     -68   -399    255    405    478 189.7  35.3  34226  290.68 0854.43
2009/04/23 14:26:30.2     -95   -470    252    480    542 191.5  30.0  34222  290.62 0854.43
2009/04/23 14:26:30.3     -80   -402    238    410    474 191.4  32.9  34220  290.60 0854.43
2009/04/23 14:26:30.4     -64   -332    251    339    421 191.0  40.2  34224  290.66 0854.43
2009/04/23 14:26:30.5     -76   -375    182    383    424 191.6  27.2  34222  290.61 0854.43
2009/04/23 14:26:30.6    -148   -235     44    278    282 212.3   9.0  34228  290.71 0854.41
2009/04/23 14:26:30.7    -125   -197     47    234    239 212.5  11.4  34240  290.92 0854.41
2009/04/23 14:26:30.8      72   -128     47    147    155 150.6  17.9  34238  290.89 0854.41
2009/04/23 14:26:30.9      25    -63    100     68    120 158.2  62.6  34252  291.13 0854.41
2009/04/23 14:26:31.0     -13    -23     20     27     33 210.7  41.7  34250  291.09 0854.41
2009/04/23 14:26:31.1      -7    -44     18     45     48 189.8  21.0  34244  291.01 0854.41
2009/04/23 14:26:31.2     -38    -60     74     72    103 212.5  50.1  34234  290.82 0854.41
2009/04/23 14:26:31.3     -73    -92     59    118    131 218.7  28.2  34228  290.74 0854.41
2009/04/23 14:26:31.4    -147   -231     33    274    276 212.5   6.9  34222  290.63 0854.41
2009/04/23 14:26:31.5    -187   -248     66    311    319 217.0  12.0  34226  290.68 0854.41
2009/04/23 14:26:31.6    -207   -302   -120    367    387 214.5 -18.2  34218  290.54 0854.41
2009/04/23 14:26:31.7    -255    -56    -10    262    263 257.6  -2.2  34224  290.65 0854.41
2009/04/23 14:26:31.8    -329    -80    -40    339    342 256.2  -6.8  34228  290.71 0854.41
2009/04/23 14:26:31.9    -266   -116     94    291    306 246.5  17.9  34228  290.71 0854.41
2009/04/23 14:26:32.0    -209   -216    182    301    351 224.1  34.0  34236  290.86 0854.41
2009/04/23 14:26:32.1    -151   -197    199    249    318 217.4  42.7  34234  290.83 0854.41
2009/04/23 14:26:32.2    -223   -189    -11    293    294 229.6  -2.2  34246  291.02 0854.41
2009/04/23 14:26:32.3    -283   -234    -20    368    369 230.4  -3.2  34252  291.13 0854.41
2009/04/23 14:26:32.4    -218   -204    119    299    321 226.9  22.8  34236  290.85 0854.41
2009/04/23 14:26:32.5    -138   -222     98    262    279 211.9  21.3  34242  290.95 0854.41
2009/04/23 14:26:32.6    -167   -262     13    311    312 212.5   2.5  34222  290.61 0854.44
2009/04/23 14:26:32.7    -128   -260    -11    291    292 206.3  -2.2  34226  290.70 0854.44
2009/04/23 14:26:32.8     -83   -258     94    272    289 197.8  19.2  34220  290.59 0854.44
2009/04/23 14:26:32.9    -111   -278    119    300    322 201.8  22.8  34224  290.66 0854.44
2009/04/23 14:26:33.0     -99   -289     72    306    315 199.1  13.2  34226  290.68 0854.44
2009/04/23 14:26:33.1     -87   -417     34    427    429 191.8   4.6  34234  290.84 0854.44
2009/04/23 14:26:33.2     -92   -438     81    448    456 191.9  10.3  34220  290.58 0854.44
2009/04/23 14:26:33.3    -139   -409     36    433    435 198.8   4.9  34222  290.61 0854.44
2009/04/23 14:26:33.4    -148   -420     51    446    449 199.5   6.6  34242  290.97 0854.44
2009/04/23 14:26:33.5      10   -478    155    479    504 178.8  17.9  34232  290.81 0854.44
2009/04/23 14:26:33.6      37   -448    158    450    478 175.2  19.4  34238  290.90 0854.48
2009/04/23 14:26:33.7    -100   -473    234    484    537 192.0  27.7  34256  291.21 0854.48
2009/04/23 14:26:33.8     135   -632    253    647    694 167.9  22.5  34266  291.36 0854.48
2009/04/23 14:26:33.9     136   -610    333    626    709 167.4  30.2  34266  291.36 0854.48
2009/04/23 14:26:34.0     -19   -566    339    567    660 182.0  33.7  34276  291.54 0854.48
2009/04/23 14:26:34.1      25   -484    347    485    596 177.0  39.2  34260  291.26 0854.48
2009/04/23 14:26:34.2       8   -461    373    462    593 179.0  43.0  34266  291.37 0854.48
2009/04/23 14:26:34.3     -13   -560    290    561    631 181.4  29.5  34224  290.66 0854.48
2009/04/23 14:26:34.4     -20   -288    304    289    419 184.0  51.6  34226  290.69 0854.48
2009/04/23 14:26:34.5     -60   -841    287    844    892 184.1  18.8  34218  290.57 0854.48
2009/04/23 14:26:34.6    -152   -873    259    887    925 189.9  16.3  34220  290.60 0854.48
2009/04/23 14:26:34.7     -36   -827    211    828    855 182.5  14.3  34216  290.53 0854.48
2009/04/23 14:26:34.8     -50   -647     68    650    654 184.5   6.0  34218  290.54 0854.48
2009/04/23 14:26:34.9     -24   -514    -27    515    516 182.7  -3.0  34228  290.74 0854.48
2009/04/23 14:26:35.0    -145   -583    127    601    615 194.0  12.0  34216  290.53 0854.48
2009/04/23 14:26:35.1    -266   -628   -183    683    707 202.9 -15.0  34220  290.59 0854.48
2009/04/23 14:26:35.2    -137   -620   -179    636    661 192.5 -15.8  34238  290.91 0854.48
2009/04/23 14:26:35.3    -168   -698   -179    718    741 193.6 -14.1  34246  291.03 0854.48
2009/04/23 14:26:35.4    -155   -706   -177    723    745 192.4 -13.8  34246  291.04 0854.48
2009/04/23 14:26:35.5    -145   -697   -213    713    745 191.8 -16.6  34240  290.93 0854.48
2009/04/23 14:26:35.6    -160   -719   -192    737    762 192.6 -14.6  34238  290.91 0854.52
2009/04/23 14:26:35.7      11   -641   -189    642    669 179.0 -21.2  34234  290.83 0854.52
2009/04/23 14:26:35.8     -22   -647   -169    648    670 182.0 -14.6  34244  290.99 0854.52
2009/04/23 14:26:35.9      19   -698   -212    699    730 178.4 -21.7  34232  290.79 0854.52
2009/04/23 14:26:36.0      31   -682   -241    683    724 177.4 -24.6  34218  290.57 0854.52
2009/04/23 14:26:36.1    -195   -467   -176    507    536 202.7 -24.3  34230  290.77 0854.52
2009/04/23 14:26:36.2    -107   -634   -196    644    674 189.6 -17.0  34234  290.83 0854.52
2009/04/23 14:26:36.3    -241   -616   -229    662    700 201.4 -24.1  34232  290.78 0854.52
2009/04/23 14:26:36.4    -129   -477   -161    495    520 195.2 -23.2  34238  290.91 0854.52
2009/04/23 14:26:36.5    -126   -224    -19    258    259 209.4  -4.4  34242  290.97 0854.52
2009/04/23 14:26:36.6      -7   -131   -110    132    171 183.1 -48.5  34246  291.03 0854.52
2009/04/23 14:26:36.7      43   -250   -124    254    282 170.2 -32.6  34246  291.02 0854.52
2009/04/23 14:26:36.8     -11   -261   -144    262    298 182.5 -35.7  34242  290.97 0854.52
2009/04/23 14:26:36.9     -55   -116    -88    129    156 205.5 -41.8  34242  290.98 0854.52
2009/04/23 14:26:37.0     154   -217    -10    267    268 144.6  -2.3  34238  290.90 0854.52
2009/04/23 14:26:37.1     254   -312      7    403    404 140.8   1.0  34236  290.85 0854.52
2009/04/23 14:26:37.2     323   -635   -130    713    725 153.0 -10.4  34230  290.76 0854.52
2009/04/23 14:26:37.3     287   -606     27    671    672 154.6   2.3  34224  290.66 0854.52
2009/04/23 14:26:37.4     290   -506     72    584    589 150.2   7.1  34220  290.59 0854.52
2009/04/23 14:26:37.5     175   -436     85    471    479 158.1  10.2  34216  290.51 0854.52
2009/04/23 14:26:37.6      54   -386    297    390    490 171.9  41.2  34222  290.61 0854.52
2009/04/23 14:26:37.7     167   -265    194    314    369 147.7  34.9  34228  290.71 0854.52
2009/04/23 14:26:37.8     236   -195    173    307    352 129.6  31.9  34228  290.72 0854.52
2009/04/23 14:26:37.9     230   -136    241    268    360 120.7  46.6  34230  290.77 0854.52
2009/04/23 14:26:38.0     149    -11    168    150    225  94.4  53.7  34234  290.82 0854.52
2009/04/23 14:26:38.1     131     77    176    153    233  59.4  54.6  34232  290.81 0854.52
2009/04/23 14:26:38.2      84    179    108    198    225  25.3  31.3  34232  290.79 0854.52
2009/04/23 14:26:38.3     103    277     75    296    306  20.5  14.3  34226  290.70 0854.52
2009/04/23 14:26:38.4     -83    219    -47    235    240 339.3 -11.5  34224  290.66 0854.52
2009/04/23 14:26:38.5    -178    -42     62    183    194 256.7  18.9  34236  290.87 0854.52
2009/04/23 14:26:38.6     -51     -3    -19     52     55 266.5 -23.3  34230  290.75 0854.52
2009/04/23 14:26:38.7      50     42    172     66    184  49.6  78.2  34246  291.04 0854.52
2009/04/23 14:26:38.8     258    148    167    298    341  60.2  31.7  34214  290.48 0854.52
2009/04/23 14:26:38.9     170    123    246    211    324  54.0  55.3  34228  290.73 0854.52
2009/04/23 14:26:39.0     116     81    287    142    320  54.9  71.9  34234  290.82 0854.52
2009/04/23 14:26:39.1     186    -13    247    187    309  94.1  59.2  34242  290.95 0854.52
2009/04/23 14:26:39.2     166    -11    201    167    261  94.1  56.3  34244  290.99 0854.52
2009/04/23 14:26:39.3       3   -132    150    133    200 178.6  54.0  34248  291.06 0854.52
2009/04/23 14:26:39.4    -142   -326    276    356    450 203.5  41.7  34222  290.61 0854.52
2009/04/23 14:26:39.5    -148   -310    151    344    375 205.6  25.2  34222  290.62 0854.52
2009/04/23 14:26:39.6    -168   -296     55    341    346 209.7   9.2  34224  290.66 0854.53
2009/04/23 14:26:39.7     -28   -237    123    239    268 186.9  29.3  34224  290.65 0854.53
2009/04/23 14:26:39.8      34   -199    212    203    293 170.2  51.2  34236  290.85 0854.53
2009/04/23 14:26:39.9     105   -124    202    163    259 139.7  57.1  34238  290.89 0854.53
2009/04/23 14:26:40.0     164   -348    278    385    474 154.8  39.3  34220  290.60 0854.53
2009/04/23 14:26:40.1     117   -391    239    409    473 163.3  32.9  34220  290.58 0854.53
2009/04/23 14:26:40.2      67   -310    229    318    391 167.7  39.5  34228  290.71 0854.53
2009/04/23 14:26:40.3     -21   -257    211    258    333 184.7  43.5  34222  290.61 0854.53
2009/04/23 14:26:40.4     -21   -262    164    263    309 184.7  35.5  34222  290.63 0854.53
2009/04/23 14:26:40.5     -21   -201    180    203    271 186.2  46.2  34220  290.59 0854.53
2009/04/23 14:26:40.6      -4   -168    222    169    279 181.4  59.0  34224  290.66 0854.53
2009/04/23 14:26:40.7       0   -122    164    123    205 180.0  59.4  34230  290.77 0854.53
2009/04/23 14:26:40.8       2   -117    153    118    193 178.6  58.7  34226  290.70 0854.53
2009/04/23 14:26:40.9     -35    -54    169     65    181 213.4  77.8  34236  290.86 0854.53
2009/04/23 14:26:41.0     -47     47    148     67    162 315.0  74.2  34246  291.03 0854.53
2009/04/23 14:26:41.1     -26    -23     69     35     77 228.7  71.9  34248  291.06 0854.53
2009/04/23 14:26:41.2    -100     26     87    104    135 284.6  43.8  34252  291.13 0854.53
2009/04/23 14:26:41.3    -235      2     55    236    243 270.6  13.1  34246  291.04 0854.53
2009/04/23 14:26:41.4     -82    182     31    200    203 335.5   8.9  34246  291.03 0854.53
2009/04/23 14:26:41.5      19    189     49    190    197   5.8  14.5  34260  291.26 0854.53
2009/04/23 14:26:41.6     254     21     54    255    261  85.2  12.1  34274  291.51 0854.50
2009/04/23 14:26:41.7      99     13    120    100    156  82.1  55.8  34294  291.86 0854.50
2009/04/23 14:26:41.8     332    177     39    377    380  62.0   6.0  34298  291.93 0854.50
2009/04/23 14:26:41.9     504    406    106    648    657  51.1   9.3  34300  291.95 0854.50
2009/04/23 14:26:42.0     372    488    168    614    637  37.3  15.3  34252  291.13 0854.50
2009/04/23 14:26:42.1     216    651    246    686    728  18.4  20.6  34270  291.44 0854.50
2009/04/23 14:26:42.2     370    514    287    634    695  35.7  26.0  34256  291.19 0854.50
2009/04/23 14:26:42.3     323    648    225    725    760  26.5  17.3  34256  291.21 0854.50
2009/04/23 14:26:42.4     115    568    175    580    606  11.5  16.8  34270  291.43 0854.50
2009/04/23 14:26:42.5     114    601    258    612    664  10.8  24.3  34272  291.49 0854.50
2009/04/23 14:26:42.6     247    357    150    435    461  34.7  19.1  34276  291.55 0854.50
2009/04/23 14:26:42.7     214    138   -432    255    501  57.1 -71.2  34280  291.60 0854.50
2009/04/23 14:26:42.8    -158     67    -95    172    196 293.1 -35.7  34254  291.18 0854.50
2009/04/23 14:26:42.9    -520    330   -211    616    652 302.4 -18.9  34172  289.76 0854.50
2009/04/23 14:26:43.0    -444    213   -135    493    512 295.7 -15.4  34172  289.78 0854.50
2009/04/23 14:26:43.1    -219    169   -139    277    309 307.7 -32.9  34172  289.76 0854.50
2009/04/23 14:26:43.2       0    358    -60    359    365   0.0  -9.6  34182  289.93 0854.50
2009/04/23 14:26:43.3     -40    320   -161    323    360 352.8 -32.9  34186  290.01 0854.50
2009/04/23 14:26:43.4     116    444   -162    459    488  14.7 -19.5  34182  289.96 0854.50
2009/04/23 14:26:43.5     243    446   -134    508    526  28.6 -14.8  34178  289.87 0854.50
2009/04/23 14:26:43.6     251    574   -182    627    652  23.6 -20.9  34184  289.99 0854.46
2009/04/23 14:26:43.7     309    506   -136    594    610  31.4 -12.9  34190  290.08 0854.46
2009/04/23 14:26:43.8     401    326    -65    517    522  50.9  -7.2  34216  290.52 0854.46
2009/04/23 14:26:43.9     505    360   -174    621    646  54.5 -15.7  34222  290.62 0854.46
2009/04/23 14:26:44.0     498    159    195    523    558  72.2  21.5  34254  291.16 0854.46
2009/04/23 14:26:44.1     608    315    137    685    699  62.6  11.3  34192  290.12 0854.46
2009/04/23 14:26:44.2     733    285    185    787    809  68.7  13.2  34192  290.10 0854.46
2009/04/23 14:26:44.3     696    105      6    704    705  81.4   0.5  34208  290.37 0854.46
2009/04/23 14:26:44.4     682    175   -138    705    719  75.6 -11.1  34208  290.37 0854.46
2009/04/23 14:26:44.5     870    217     -4    897    898  76.0  -0.3  34194  290.16 0854.46
2009/04/23 14:26:44.6     830    217    -18    858    859  75.3  -1.3  34188  290.04 0854.46
2009/04/23 14:26:44.7     885    188    185    905    925  78.0  11.6  34186  290.00 0854.46
2009/04/23 14:26:44.8     895    125    188    905    925  82.0  11.8  34222  290.63 0854.46
2009/04/23 14:26:44.9     495   -157    -56    520    524 107.6  -6.2  34206  290.35 0854.46
2009/04/23 14:26:45.0     558   -139   -129    576    591 104.1 -12.7  34210  290.42 0854.46
2009/04/23 14:26:45.1     473   -198    -36    513    515 112.7  -4.0  34214  290.49 0854.46
2009/04/23 14:26:45.2     570    -40   -146    572    591  94.0 -14.4  34214  290.49 0854.46
2009/04/23 14:26:45.3     728     29    199    729    756  87.7  15.3  34178  289.87 0854.46
2009/04/23 14:26:45.4     704     10    436    705    828  89.1  34.6  34188  290.05 0854.46
2009/04/23 14:26:45.5     491     46    107    494    506  84.6  12.3  34208  290.37 0854.46
2009/04/23 14:26:45.7     336    188    133    386    409  60.7  19.1  34188  290.04 0854.43
2009/04/23 14:26:45.7     300    239    300    384    487  51.5  42.0  34206  290.34 0854.43
2009/04/23 14:26:45.8     320    176    215    366    424  61.1  33.1  34216  290.53 0854.43
2009/04/23 14:26:45.9     443    457    231    637    677  44.1  20.9  34206  290.34 0854.43
2009/04/23 14:26:46.0     503    479    244    695    737  46.4  19.4  34198  290.23 0854.43
2009/04/23 14:26:46.1     378    483    246    614    661  38.0  23.0  34198  290.23 0854.43
2009/04/23 14:26:46.2     453    223    135    505    523  63.8  15.0  34222  290.64 0854.43
2009/04/23 14:26:46.3     249    341    181    423    460  36.1  24.8  34200  290.26 0854.43
2009/04/23 14:26:46.4     235    443    201    502    540  28.0  23.0  34290  291.77 0854.43
2009/04/23 14:26:46.5     201    462    108    504    516  23.5  12.1  34318  292.24 0854.43
2009/04/23 14:26:46.6     115    431     -6    447    448  15.0  -0.9  34308  292.08 0854.43
2009/04/23 14:26:46.7    -319    238     20    399    400 306.8   2.9  34288  291.76 0854.43
2009/04/23 14:26:46.8    -163    163     86    231    246 315.0  21.3  34288  291.73 0854.43
2009/04/23 14:26:46.9      -3    194     85    195    212 358.9  25.1  34272  291.47 0854.43
2009/04/23 14:26:47.0     -94    198    -36    220    223 334.7  -9.3  34284  291.69 0854.43
2009/04/23 14:26:47.1      14    220     92    221    239   3.8  23.8  34264  291.33 0854.43
2009/04/23 14:26:47.2    -119    123    118    172    208 315.9  37.6  34266  291.38 0854.43
2009/04/23 14:26:47.3     -73    114     46    136    144 327.4  18.9  34276  291.54 0854.43
2009/04/23 14:26:47.4    -208    188    -15    281    282 312.2  -3.1  34272  291.46 0854.43
2009/04/23 14:26:47.5    -457     64   -251    462    525 278.0 -35.3  34202  290.29 0854.43
2009/04/23 14:26:47.6    -608    263   -209    663    695 293.4 -22.6  34194  290.16 0854.43
2009/04/23 14:26:47.7    -367    370   -389    522    651 315.2 -44.8  34184  289.98 0854.43
2009/04/23 14:26:47.8    -279    555     -2    622    623 333.3  -0.2  34220  290.59 0854.43
2009/04/23 14:26:47.9    -435    441    138    620    636 315.4  12.6  34226  290.69 0854.43
2009/04/23 14:26:48.0    -462    225   -104    515    526 296.0 -11.5  34194  290.14 0854.43
2009/04/23 14:26:48.1    -526    288   -190    600    629 298.8 -22.6  34190  290.09 0854.43
2009/04/23 14:26:48.2    -465    429   -212    633    667 312.7 -23.5  34184  289.97 0854.43
2009/04/23 14:26:48.3    -393    447   -211    596    633 318.7 -19.5  34192  290.11 0854.43
2009/04/23 14:26:48.4    -412    271    -63    494    499 303.4  -7.4  34194  290.15 0854.43
2009/04/23 14:26:48.5    -445    283   -165    528    553 302.5 -22.3  34202  290.28 0854.43
2009/04/23 14:26:48.6    -315     48   -219    319    386 278.8 -42.1  34196  290.18 0854.43
2009/04/23 14:26:48.7    -486    170   -344    515    619 289.3 -41.3  34190  290.08 0854.43
2009/04/23 14:26:48.8    -493    282   -378    568    682 299.8 -41.3  34184  289.98 0854.43
2009/04/23 14:26:48.9    -611    113   -306    622    693 280.5 -32.5  34198  290.22 0854.43
2009/04/23 14:26:49.0    -765    118   -394    774    868 278.8 -33.6  34188  290.04 0854.43
2009/04/23 14:26:49.1    -653    -22   -230    654    694 268.0 -19.4  34184  289.97 0854.43
2009/04/23 14:26:49.2    -591     13    -41    592    594 271.3  -4.0  34192  290.12 0854.43
2009/04/23 14:26:49.3    -491    567    287    751    803 319.1  22.1  34198  290.22 0854.43
2009/04/23 14:26:49.4    -362    511    227    627    667 324.7  19.9  34236  290.86 0854.43
2009/04/23 14:26:49.5    -320    585    246    667    710 331.3  21.1  34248  291.07 0854.43
2009/04/23 14:26:49.6    -161    527    196    552    585 343.0  20.4  34202  290.29 0854.42
2009/04/23 14:26:49.7    -327    449    204    556    592 323.9  21.0  34236  290.85 0854.42
2009/04/23 14:26:49.8     -61    509    168    513    540 353.1  18.1  34198  290.21 0854.42
2009/04/23 14:26:49.9    -184    552    144    583    601 341.5  13.9  34256  291.21 0854.42
2009/04/23 14:26:50.0    -103    384    133    398    420 344.9  18.5  34214  290.48 0854.42
2009/04/23 14:26:50.1    -169    427    108    460    473 338.3  13.2  34206  290.34 0854.42
2009/04/23 14:26:50.2    -195    410    153    455    481 334.5  18.6  34198  290.20 0854.42
2009/04/23 14:26:50.3    -555    171   -168    581    605 287.2 -16.2  34200  290.25 0854.42
2009/04/23 14:26:50.4    -394    626    150    740    755 327.8  11.5  34208  290.40 0854.42
2009/04/23 14:26:50.5    -186    341    121    389    408 331.3  17.3  34254  291.18 0854.42
2009/04/23 14:26:50.6    -172    357    101    397    410 334.3  14.4  34228  290.72 0854.42
2009/04/23 14:26:50.7    -388    216   -105    445    458 299.1 -13.3  34186  290.02 0854.42
2009/04/23 14:26:50.8    -297    192   -126    354    377 302.9 -19.7  34184  289.99 0854.42
2009/04/23 14:26:50.9    -334    204   -134    392    414 301.5 -24.0  34188  290.04 0854.42
2009/04/23 14:26:51.0    -282    264   -137    387    411 313.2 -19.6  34190  290.09 0854.42
2009/04/23 14:26:51.1    -387    255    -50    464    467 303.4  -6.3  34198  290.20 0854.42
2009/04/23 14:26:51.2    -479    340   -145    588    606 305.4 -13.9  34194  290.15 0854.42
2009/04/23 14:26:51.3    -426    253   -154    496    520 300.7 -17.3  34198  290.20 0854.42
2009/04/23 14:26:51.4    -440    469   -106    644    653 316.8  -9.4  34188  290.04 0854.42
2009/04/23 14:26:51.5    -464    409   -179    619    645 311.4 -16.2  34200  290.26 0854.42
2009/04/23 14:26:51.6    -306    345   -134    462    481 318.5 -21.1  34196  290.17 0854.42
2009/04/23 14:26:51.7    -293    293   -162    415    445 315.0 -26.8  34200  290.26 0854.42
2009/04/23 14:26:51.8    -256    163   -109    304    324 302.5 -19.8  34204  290.32 0854.42
2009/04/23 14:26:51.9    -282     42   -139    286    317 278.6 -32.3  34210  290.41 0854.42
2009/04/23 14:26:52.0    -194     72   -116    208    238 290.4 -36.0  34212  290.47 0854.42
2009/04/23 14:26:52.1    -300     86   -107    313    330 286.0 -23.8  34228  290.71 0854.42
2009/04/23 14:26:52.2    -258    186   -122    319    341 305.9 -26.4  34250  291.11 0854.42
2009/04/23 14:26:52.3    -277    153   -140    317    346 298.9 -29.7  34240  290.93 0854.42
2009/04/23 14:26:52.4    -170     95   -294    196    353 299.3 -67.5  34214  290.49 0854.42
2009/04/23 14:26:52.5    -108     83   -263    137    296 307.7 -74.8  34240  290.92 0854.42
2009/04/23 14:26:52.6    -190    -58   -213    199    291 252.9 -56.5  34238  290.88 0854.42
2009/04/23 14:26:52.7    -207     88   -177    226    287 293.1 -46.4  34230  290.75 0854.42
2009/04/23 14:26:52.8    -372    236   -179    441    475 302.4 -27.9  34232  290.79 0854.42
2009/04/23 14:26:52.9    -416    125    -49    435    438 286.8  -6.5  34242  290.95 0854.42
2009/04/23 14:26:53.0    -346     79     -5    355    356 282.9  -0.9  34240  290.94 0854.42
2009/04/23 14:26:53.1    -611    114    -96    622    630 280.6  -8.8  34228  290.71 0854.42
2009/04/23 14:26:53.2    -594    -34   -216    595    632 266.7 -25.2  34232  290.81 0854.42
2009/04/23 14:26:53.3    -577    -67   -199    581    614 263.3 -23.9  34232  290.80 0854.42
2009/04/23 14:26:53.4    -460    176   -163    493    519 291.0 -23.7  34234  290.83 0854.42
2009/04/23 14:26:53.5    -465    173   -235    497    549 290.4 -31.6  34230  290.77 0854.42
2009/04/23 14:26:53.6    -492    344   -225    601    641 305.0 -25.9  34228  290.72 0854.40
2009/04/23 14:26:53.7    -460    272   -173    535    562 300.6 -23.0  34228  290.72 0854.40
2009/04/23 14:26:53.9    -491    351   -293    604    671 305.6 -32.2  34222  290.62 0854.40
2009/04/23 14:26:53.9    -462    339   -305    574    650 306.3 -34.6  34228  290.72 0854.40
2009/04/23 14:26:54.0    -278    315   -217    421    473 318.6 -33.8  34232  290.80 0854.40
2009/04/23 14:26:54.2    -344    325   -171    474    503 313.3 -25.0  34226  290.68 0854.40
2009/04/23 14:26:54.3    -387    339   -171    515    542 311.3 -23.8  34220  290.58 0854.40
2009/04/23 14:26:54.4    -289    349   -131    454    472 320.4 -20.8  34220  290.59 0854.40
2009/04/23 14:26:54.5     -77    378   -113    386    402 348.4 -21.0  34230  290.77 0854.40
2009/04/23 14:26:54.6     -90    141    -90    168    190 327.5 -35.0  34228  290.72 0854.40
2009/04/23 14:26:54.7    -215     40   -140    219    259 280.6 -40.0  34230  290.76 0854.36
2009/04/23 14:26:54.8    -229      0   -274    230    357 270.0 -60.2  34238  290.90 0854.36
2009/04/23 14:26:54.9    -113     82   -282    140    314 305.9 -76.2  34236  290.87 0854.36
2009/04/23 14:26:55.0    -116    -64   -199    133    239 241.2 -67.6  34234  290.84 0854.36
2009/04/23 14:26:55.1    -106    -34   -361    112    377 252.3 -86.8  34224  290.65 0854.36
2009/04/23 14:26:55.2    -252     64   -393    261    471 284.4 -67.8  34224  290.65 0854.36
2009/04/23 14:26:55.3    -268     72   -383    278    473 285.1 -65.0  34220  290.58 0854.36
2009/04/23 14:26:55.4    -285     -4   -386    286    480 269.2 -64.3  34234  290.84 0854.36
2009/04/23 14:26:55.5    -245     11   -292    246    381 272.8 -60.4  34226  290.69 0854.36
2009/04/23 14:26:55.6    -152    -38   -296    157    335 255.8 -74.3  34220  290.58 0854.36
2009/04/23 14:26:55.7     129    184   -267    225    349  35.0 -60.2  34222  290.63 0854.36
2009/04/23 14:26:55.8     -34    296   -250    299    389 353.3 -48.6  34220  290.59 0854.36
2009/04/23 14:26:55.9    -247    145   -262    287    388 300.4 -51.7  34238  290.91 0854.36
2009/04/23 14:26:56.0    -443    148   -354    468    586 288.5 -45.3  34228  290.72 0854.36
2009/04/23 14:26:56.1      11      3   -240     12    240  71.6 -90.0  34236  290.86 0854.36
2009/04/23 14:26:56.2    -275   -305   -267    411    490 222.0 -40.4  34232  290.81 0854.36
2009/04/23 14:26:56.3     -18   -387   -266    388    470 182.7 -42.3  34230  290.75 0854.36
2009/04/23 14:26:56.4     -27   -140    -48    143    150 191.1 -23.6  34234  290.82 0854.36
2009/04/23 14:26:56.5      58   -350    -30    355    357 170.6  -4.9  34238  290.89 0854.36
2009/04/23 14:26:56.6     118   -411    216    428    479 163.9  28.8  34230  290.77 0854.36
2009/04/23 14:26:56.7      13   -233    131    234    268 176.6  31.4  34236  290.85 0854.35
2009/04/23 14:26:56.8    -145     25    -38    148    153 280.1 -14.7  34244  290.99 0854.35
2009/04/23 14:26:56.9    -164    -28      6    167    168 260.3   2.1  34238  290.89 0854.35
2009/04/23 14:26:57.0     -70   -174    131    188    229 201.9  38.4  34232  290.81 0854.35
2009/04/23 14:26:57.1    -171   -334    288    376    473 207.2  41.2  34242  290.95 0854.35
2009/04/23 14:26:57.2    -379   -316    297    494    576 230.2  34.0  34236  290.86 0854.35
2009/04/23 14:26:57.3    -261   -305    286    402    493 220.5  39.1  34236  290.86 0854.35
2009/04/23 14:26:57.4    -303   -310    248    434    499 224.4  32.3  34230  290.76 0854.35
2009/04/23 14:26:57.5    -308   -269    246    410    478 228.8  34.0  34228  290.73 0854.35
2009/04/23 14:26:57.6     -82    -71    159    109    192 229.1  62.6  34242  290.96 0854.35
2009/04/23 14:26:57.7     268     54    268    274    383  78.5  49.4  34240  290.94 0854.35
2009/04/23 14:26:57.8     -87   -257    218    272    348 198.7  43.0  34236  290.85 0854.35
2009/04/23 14:26:57.9     -77   -128    233    150    277 211.2  64.6  34232  290.78 0854.35
2009/04/23 14:26:58.0     -83     81    174    117    209 314.4  62.8  34244  290.99 0854.35
2009/04/23 14:26:58.1    -231    -17     71    232    243 265.6  17.1  34238  290.90 0854.35
2009/04/23 14:26:58.2     -46   -163     98    170    196 195.8  32.4  34246  291.04 0854.35
2009/04/23 14:26:58.3      15     12     98     20    100  50.5  89.0  34244  291.01 0854.35
2009/04/23 14:26:58.4     -92   -272    345    288    449 198.7  56.2  34228  290.73 0854.35
2009/04/23 14:26:58.5      24   -237    196    239    309 174.0  43.7  34230  290.75 0854.35
2009/04/23 14:26:58.6     -10   -221     84    222    237 182.7  22.0  34230  290.75 0854.35
2009/04/23 14:26:58.7      11   -235     73    236    248 177.3  17.3  34232  290.80 0854.35
2009/04/23 14:26:58.8     -50   -271     75    276    287 190.5  15.2  34236  290.87 0854.35
2009/04/23 14:26:58.9    -102   -408    172    421    454 194.1  23.4  34248  291.06 0854.35
2009/04/23 14:26:59.0    -143   -440    232    463    517 198.1  28.6  34238  290.88 0854.35
2009/04/23 14:26:59.1    -254   -469    201    534    570 208.5  21.6  34250  291.11 0854.35
2009/04/23 14:26:59.2     -99   -314     91    330    343 197.6  15.4  34244  291.00 0854.35
2009/04/23 14:26:59.3    -357   -178      5    399    400 243.5   0.8  34264  291.35 0854.35
2009/04/23 14:26:59.4    -206    -32     78    209    223 261.2  21.0  34240  290.92 0854.35
2009/04/23 14:26:59.5    -259   -122    172    287    334 244.8  33.7  34240  290.92 0854.35
2009/04/23 14:26:59.6    -110     57    -29    125    129 297.5 -13.4  34264  291.33 0854.35
2009/04/23 14:26:59.7    -154      3     94    155    181 271.3  34.2  34242  290.96 0854.35
2009/04/23 14:26:59.8    -497    108    111    509    522 282.3  12.4  34226  290.68 0854.35
2009/04/23 14:26:59.9    -453     33    116    455    470 274.3  14.3  34214  290.49 0854.35
2009/04/23 14:27:00.0    -367    108     36    383    385 286.5   5.5  34220  290.59 0854.35
2009/04/23 14:27:00.1    -205    -22    -67    207    217 263.6 -23.3  34240  290.92 0854.35
2009/04/23 14:27:00.2    -104   -140    210    175    273 216.5  56.3  34254  291.17 0854.35
2009/04/23 14:27:00.3     -90     -6    158     91    182 265.6  67.5  34250  291.11 0854.35
2009/04/23 14:27:00.4      -2    -38    102     39    109 184.4  78.6  34252  291.15 0854.35
2009/04/23 14:27:00.5      98   -175    172    201    264 150.8  44.8  34248  291.07 0854.35
2009/04/23 14:27:00.6      62   -377    148    383    410 170.7  22.1  34254  291.17 0854.35
2009/04/23 14:27:00.7    -145   -362     71    391    398 201.8  10.4  34240  290.94 0854.38
2009/04/23 14:27:00.8    -269   -429      0    507    508 212.1   0.1  34262  291.32 0854.38
2009/04/23 14:27:00.9    -232   -438    -35    496    498 208.0  -4.1  34268  291.42 0854.38
2009/04/23 14:27:01.0    -187   -427    -48    467    470 203.6  -5.9  34280  291.61 0854.38
2009/04/23 14:27:01.1    -179   -426      3    463    464 202.8   0.5  34274  291.52 0854.38
2009/04/23 14:27:01.2     -92   -479    -46    488    491 190.9  -5.5  34252  291.12 0854.38
2009/04/23 14:27:01.3     -75   -535    -89    541    549 188.0  -9.3  34250  291.09 0854.38
2009/04/23 14:27:01.4    -184   -528    -21    560    561 199.2  -2.2  34258  291.23 0854.38
2009/04/23 14:27:01.5    -159   -286     32    328    330 209.1   5.7  34248  291.06 0854.38
2009/04/23 14:27:01.6    -109   -540    -50    551    554 191.5  -5.2  34254  291.16 0854.38
2009/04/23 14:27:01.7    -169   -523    -91    550    558 197.9  -9.5  34268  291.42 0854.38
2009/04/23 14:27:01.8    -142   -484     -1    505    506 196.4  -0.2  34242  290.98 0854.38
2009/04/23 14:27:01.9    -181   -413    -17    452    453 203.7  -2.2  34246  291.04 0854.38
2009/04/23 14:27:02.0    -107   -473     41    486    488 192.8   4.9  34248  291.05 0854.38
2009/04/23 14:27:02.1     -36   -422   -125    424    443 185.0 -16.5  34236  290.87 0854.38
2009/04/23 14:27:02.2     -72   -241    -70    252    262 196.7 -15.5  34234  290.83 0854.38
2009/04/23 14:27:02.3    -138   -226     14    265    266 211.4   3.1  34244  290.99 0854.38
2009/04/23 14:27:02.4     107   -395     -6    410    411 164.9  -0.9  34236  290.87 0854.38
2009/04/23 14:27:02.5     129   -392     49    413    416 161.7   6.9  34236  290.85 0854.38
2009/04/23 14:27:02.6     191   -301     44    357    360 147.6   7.1  34236  290.86 0854.38
2009/04/23 14:27:02.7     287   -182     14    340    341 122.4   2.4  34230  290.76 0854.39
2009/04/23 14:27:02.8     215    -62     90    224    241 106.2  23.0  34226  290.68 0854.39
2009/04/23 14:27:02.9     244   -105    119    266    291 113.3  25.7  34234  290.83 0854.39
2009/04/23 14:27:03.0     134   -267     93    299    314 153.3  17.3  34238  290.88 0854.39
2009/04/23 14:27:03.1     211   -144    128    256    286 124.4  28.5  34238  290.88 0854.39
2009/04/23 14:27:03.2      49   -144     92    153    178 161.3  34.0  34238  290.89 0854.39
2009/04/23 14:27:03.3     115    -95    124    150    194 129.5  43.8  34248  291.06 0854.39
2009/04/23 14:27:03.4      48   -207    135    213    252 166.9  35.5  34246  291.02 0854.39
2009/04/23 14:27:03.5      46   -166     78    173    189 164.4  26.2  34246  291.03 0854.39
2009/04/23 14:27:03.6      22    -84    107     88    138 164.9  56.4  34254  291.16 0854.39
2009/04/23 14:27:03.7     139   -108    132    177    220 128.0  40.4  34260  291.28 0854.39
2009/04/23 14:27:03.8     128   -235    146    268    305 151.3  31.3  34238  290.88 0854.39
2009/04/23 14:27:03.9      57   -282    138    288    319 168.4  27.4  34248  291.07 0854.39
2009/04/23 14:27:04.0      86   -290    143    303    335 163.5  27.1  34252  291.14 0854.39
2009/04/23 14:27:04.1     111   -289     55    310    315 159.0  10.1  34260  291.27 0854.39
2009/04/23 14:27:04.2      75   -313     24    322    323 166.4   4.3  34260  291.26 0854.39
2009/04/23 14:27:04.3      37   -318      6    321    322 173.3   1.1  34264  291.33 0854.39
2009/04/23 14:27:04.4      25   -247     -3    249    250 174.0  -0.7  34258  291.22 0854.39
2009/04/23 14:27:04.5      48   -283    102    288    305 170.2  20.2  34264  291.34 0854.39
2009/04/23 14:27:04.6      12   -251    140    252    288 177.1  31.4  34278  291.58 0854.39
2009/04/23 14:27:04.7     -45   -222    117    227    255 191.6  29.3  34286  291.72 0854.39
2009/04/23 14:27:04.8     -93   -300     88    315    328 197.2  15.7  34300  291.96 0854.39
2009/04/23 14:27:04.9     -50   -313    103    318    335 189.1  17.9  34308  292.07 0854.39
2009/04/23 14:27:05.0     -16   -256     84    257    271 183.6  18.1  34308  292.07 0854.39
2009/04/23 14:27:05.1       0   -281    133    282    311 180.0  27.1  34286  291.72 0854.39
2009/04/23 14:27:05.2       8   -296    103    297    315 178.4  19.2  34262  291.29 0854.39
2009/04/23 14:27:05.3     -12   -376    121    377    396 181.9  17.8  34256  291.20 0854.39
2009/04/23 14:27:05.4     -61   -381    139    386    410 189.1  20.6  34262  291.31 0854.39
2009/04/23 14:27:05.5     -93   -350    112    363    381 195.0  17.2  34274  291.51 0854.39
2009/04/23 14:27:05.6    -156   -321     99    358    372 206.0  15.6  34288  291.73 0854.39
2009/04/23 14:27:05.7    -171   -283    131    331    355 211.2  22.9  34280  291.62 0854.39
2009/04/23 14:27:05.8    -170   -238     68    293    301 215.6  13.1  34280  291.60 0854.39
2009/04/23 14:27:05.9    -115   -383    142    401    425 196.8  20.1  34272  291.46 0854.39
2009/04/23 14:27:06.0      86   -439    216    448    497 168.9  27.4  34276  291.54 0854.39
2009/04/23 14:27:06.1     -83   -426    -28    435    436 191.1  -3.8  34272  291.48 0854.39
2009/04/23 14:27:06.2     -81   -400    -19    409    410 191.5  -2.7  34292  291.82 0854.39
2009/04/23 14:27:06.3     -65   -393    -66    399    405 189.4  -9.4  34286  291.70 0854.39
2009/04/23 14:27:06.4      22   -465    -41    466    468 177.2  -5.1  34254  291.17 0854.39
2009/04/23 14:27:06.5     146   -376    -37    404    406 158.7  -5.4  34220  290.58 0854.39
2009/04/23 14:27:06.6      65   -392    119    398    416 170.6  16.7  34220  290.60 0854.39
2009/04/23 14:27:06.7     -31   -399     70    401    408 184.6   9.9  34224  290.65 0854.39
2009/04/23 14:27:06.8     -68   -289     81    297    308 193.3  15.3  34246  291.02 0854.39
2009/04/23 14:27:06.9     -76   -283    206    293    358 195.1  38.6  34238  290.91 0854.39
2009/04/23 14:27:07.0      33   -430    222    432    485 175.5  29.3  34222  290.61 0854.39
2009/04/23 14:27:07.1     117   -414    246    431    496 164.2  32.3  34220  290.59 0854.39
2009/04/23 14:27:07.2     209   -382    171    436    468 151.3  22.5  34224  290.67 0854.39
2009/04/23 14:27:07.3     194   -378    139    425    448 152.8  18.2  34220  290.58 0854.39
2009/04/23 14:27:07.4      61   -390    171    395    430 171.1  25.1  34228  290.73 0854.39
2009/04/23 14:27:07.5      66   -338    148    345    375 168.9  24.8  34228  290.74 0854.39
2009/04/23 14:27:07.6      12   -336    128    337    360 177.9  21.6  34228  290.74 0854.39
2009/04/23 14:27:07.7     224   -269    156    351    384 140.2  25.6  34222  290.64 0854.39
2009/04/23 14:27:07.8     295   -152    238    333    409 117.3  39.0  34228  290.74 0854.39
2009/04/23 14:27:07.9     196    -43    247    201    318 102.6  56.8  34240  290.92 0854.39
2009/04/23 14:27:08.0     -21     -5    147     22    148 256.7  90.0  34248  291.08 0854.39
2009/04/23 14:27:08.1     102    -98    157    142    211 134.0  53.3  34248  291.06 0854.39
2009/04/23 14:27:08.2      37   -322    197    325    380 173.4  34.2  34238  290.89 0854.39
2009/04/23 14:27:08.3     -63   -353    146    359    387 190.2  23.2  34238  290.91 0854.39
2009/04/23 14:27:08.4     -12   -407     58    408    413 181.7   8.1  34236  290.85 0854.39
2009/04/23 14:27:08.5     110   -409     33    424    426 164.9   4.5  34238  290.89 0854.39
2009/04/23 14:27:08.6     172   -388    -24    425    426 156.1  -3.3  34236  290.87 0854.39
2009/04/23 14:27:08.7     174   -465    -19    497    498 159.4  -2.3  34242  290.96 0854.39
2009/04/23 14:27:08.8     159   -427    -75    456    463 159.6  -9.3  34244  290.99 0854.39
2009/04/23 14:27:08.9      89   -455   -131    464    482 168.9 -20.4  34248  291.07 0854.39
2009/04/23 14:27:09.0     154   -507    -71    531    536 163.1  -7.7  34224  290.65 0854.39
2009/04/23 14:27:09.1     110   -390   -106    406    420 164.2 -14.7  34242  290.95 0854.39
2009/04/23 14:27:09.2      80   -299    -83    310    321 164.9 -15.0  34242  290.97 0854.39
2009/04/23 14:27:09.3      81   -320    -97    331    345 165.7 -16.4  34236  290.86 0854.39
2009/04/23 14:27:09.4      24   -315    -60    316    322 175.6 -10.8  34230  290.76 0854.39
2009/04/23 14:27:09.5      56   -300    -48    306    310 169.3  -9.0  34236  290.85 0854.39
2009/04/23 14:27:09.6      83   -251    -34    265    268 161.7  -7.3  34230  290.76 0854.39
2009/04/23 14:27:09.7      47   -222     19    228    229 168.0   4.9  34224  290.67 0854.39
2009/04/23 14:27:09.8      27   -134     16    137    139 168.5   6.9  34220  290.60 0854.39
2009/04/23 14:27:09.9      85   -134     63    159    171 147.5  22.8  34212  290.47 0854.39
2009/04/23 14:27:10.0     -14   -180     36    181    185 184.7  11.4  34214  290.50 0854.39
2009/04/23 14:27:10.1     -17   -167      9    168    169 186.0   3.3  34216  290.52 0854.39
2009/04/23 14:27:10.2     -75   -162    -19    179    181 204.9  -6.2  34218  290.57 0854.39
2009/04/23 14:27:10.3     -40   -151    -83    157    177 195.1 -34.7  34218  290.55 0854.39
2009/04/23 14:27:10.4     -24   -163   -109    165    197 188.7 -41.1  34218  290.57 0854.39
2009/04/23 14:27:10.5      36   -138    -32    143    147 165.3 -12.9  34220  290.58 0854.39
2009/04/23 14:27:10.6      85   -155    -27    177    180 151.3  -8.8  34222  290.64 0854.39
2009/04/23 14:27:10.7     190   -194      8    272    273 135.7   1.8  34220  290.58 0854.42
2009/04/23 14:27:10.8     212   -168    100    271    288 128.4  21.0  34218  290.56 0854.42
2009/04/23 14:27:10.9     184   -137    115    230    257 126.6  28.5  34218  290.56 0854.42
2009/04/23 14:27:11.0     193   -128    121    232    261 123.7  29.8  34220  290.58 0854.42
2009/04/23 14:27:11.1     141   -172    219    223    312 140.8  49.7  34226  290.68 0854.42
2009/04/23 14:27:11.2      50   -138    147    147    207 160.0  50.1  34228  290.74 0854.42
2009/04/23 14:27:11.3     -14   -449    114    450    465 181.8  14.3  34218  290.55 0854.42
2009/04/23 14:27:11.4      31   -415    139    417    440 175.6  18.5  34218  290.56 0854.42
2009/04/23 14:27:11.5      51   -578    162    581    604 174.9  15.6  34220  290.59 0854.42
2009/04/23 14:27:11.6     130   -568    199    583    617 167.1  18.9  34220  290.58 0854.42
2009/04/23 14:27:11.7     -17   -440     78    441    449 182.3  10.1  34222  290.61 0854.42
2009/04/23 14:27:11.8    -131   -331    -15    357    358 201.7  -2.5  34238  290.91 0854.42
2009/04/23 14:27:11.9     -83   -251    -33    265    268 198.5  -7.2  34238  290.88 0854.42
2009/04/23 14:27:12.0      40   -196    -31    201    204 168.4  -9.0  34232  290.81 0854.42
2009/04/23 14:27:12.1     157   -154     -4    221    222 134.4  -1.3  34232  290.81 0854.42
2009/04/23 14:27:12.2     209   -142      7    253    254 124.2   1.8  34234  290.82 0854.42
2009/04/23 14:27:12.3     151   -198     44    250    254 142.6  10.1  34228  290.71 0854.42
2009/04/23 14:27:12.4      75   -484     31    490    491 171.1   3.6  34224  290.66 0854.42
2009/04/23 14:27:12.5      90   -525     64    533    537 170.2   6.9  34228  290.74 0854.42
2009/04/23 14:27:12.6      71   -505   -141    511    531 172.0 -15.5  34222  290.62 0854.42
2009/04/23 14:27:12.7       0   -411    -67    412    418 180.1  -9.3  34228  290.72 0854.42
2009/04/23 14:27:12.8     -75   -542    -45    548    550 187.9  -4.8  34224  290.67 0854.42
2009/04/23 14:27:12.9     -43   -425    -64    428    433 185.8  -8.6  34232  290.78 0854.42
2009/04/23 14:27:13.0    -136   -392    -34    416    418 199.2  -4.8  34230  290.75 0854.42
2009/04/23 14:27:13.1    -157   -456   -107    483    495 199.1 -12.5  34228  290.71 0854.42
2009/04/23 14:27:13.2     -56   -548    -25    551    552 185.9  -2.6  34232  290.79 0854.42
2009/04/23 14:27:13.3     -32   -551    -69    552    557 183.4  -7.2  34224  290.67 0854.42
2009/04/23 14:27:13.4       8   -503   -106    504    516 179.0 -11.9  34232  290.78 0854.42
2009/04/23 14:27:13.5     114   -383   -163    400    431 163.4 -27.8  34228  290.73 0854.42
2009/04/23 14:27:13.6     119   -378   -189    397    439 162.4 -31.7  34228  290.72 0854.42
2009/04/23 14:27:13.7     208   -511   -128    552    567 157.8 -13.1  34222  290.63 0854.42
2009/04/23 14:27:13.8     149   -463   -135    487    506 162.1 -15.5  34222  290.64 0854.42
2009/04/23 14:27:13.9     167   -383   -110    419    434 156.4 -14.8  34234  290.84 0854.42
2009/04/23 14:27:14.0     184   -347   -153    393    421 152.0 -26.9  34238  290.90 0854.42
2009/04/23 14:27:14.1     127   -350   -113    373    390 160.0 -16.9  34238  290.89 0854.42
2009/04/23 14:27:14.2      54   -321    -92    326    339 170.3 -15.8  34240  290.93 0854.42
2009/04/23 14:27:14.3     -11   -220    -56    221    229 182.9 -14.3  34242  290.98 0854.42
2009/04/23 14:27:14.4     -24   -221    -24    223    225 186.2  -6.2  34250  291.09 0854.42
2009/04/23 14:27:14.5      44   -166      8    172    173 165.1   2.9  34248  291.06 0854.42
2009/04/23 14:27:14.6     -29   -329     46    331    335 185.1   8.0  34242  290.96 0854.42
2009/04/23 14:27:14.7     -32   -327    131    329    354 185.7  23.0  34250  291.10 0854.42
2009/04/23 14:27:14.8     -30   -244     99    246    265 187.1  23.1  34252  291.14 0854.42
2009/04/23 14:27:14.9     -21   -184    119    186    220 186.7  35.6  34252  291.15 0854.42
2009/04/23 14:27:15.0     -82   -261     74    274    284 197.4  15.2  34254  291.17 0854.42
2009/04/23 14:27:15.1     130   -112    186    172    253 130.9  52.2  34262  291.30 0854.42
2009/04/23 14:27:15.2      97   -172    209    198    287 150.6  52.0  34270  291.44 0854.42
2009/04/23 14:27:15.3      57   -143    195    155    249 158.2  57.5  34268  291.40 0854.42
2009/04/23 14:27:15.4      58   -289    268    295    398 168.5  47.0  34232  290.79 0854.42
2009/04/23 14:27:15.5      -3   -117    241    118    268 181.8  72.4  34234  290.82 0854.42
2009/04/23 14:27:15.6     -62   -146    212    159    265 203.2  59.4  34226  290.68 0854.42
2009/04/23 14:27:15.7     -27   -196    133    198    238 188.0  37.3  34246  291.03 0854.44
2009/04/23 14:27:15.8     -31   -187    111    190    220 189.6  32.9  34244  290.99 0854.44
2009/04/23 14:27:15.9     -43   -167    107    173    203 194.7  35.0  34252  291.13 0854.44
2009/04/23 14:27:16.0      43    -21    103     49    114 116.2  72.8  34258  291.23 0854.44
2009/04/23 14:27:16.1     -20    -81    173     84    192 193.8  72.8  34248  291.08 0854.44
2009/04/23 14:27:16.2     -87   -123    141    151    206 215.2  47.9  34238  290.89 0854.44
2009/04/23 14:27:16.3    -141    -91     91    169    191 237.1  31.0  34242  290.98 0854.44
2009/04/23 14:27:16.4    -317    -74     69    326    334 256.7  12.0  34228  290.72 0854.44
2009/04/23 14:27:16.5    -233    -78    126    246    276 251.4  29.3  34242  290.97 0854.44
2009/04/23 14:27:16.6    -180     90    180    202    270 296.6  46.4  34240  290.92 0854.44
2009/04/23 14:27:16.7    -229     -8    108    230    254 267.9  27.1  34244  291.00 0854.44
2009/04/23 14:27:16.8     -69   -143    131    160    206 205.9  43.7  34242  290.98 0854.44
2009/04/23 14:27:16.9    -192   -187     52    269    275 225.8  11.1  34240  290.93 0854.44
2009/04/23 14:27:17.0    -119   -144    -10    188    189 219.6  -3.1  34240  290.92 0854.44
2009/04/23 14:27:17.1     -16   -134    -48    136    145 187.1 -19.7  34240  290.94 0854.44
2009/04/23 14:27:17.2    -103   -252     27    273    275 202.3   5.7  34240  290.93 0854.44
2009/04/23 14:27:17.3    -144   -261    -20    299    300 208.9  -3.9  34238  290.90 0854.44
2009/04/23 14:27:17.4    -329   -141    -82    359    369 246.8 -12.9  34244  291.00 0854.44
2009/04/23 14:27:17.5     -67   -266    -60    275    282 194.2 -12.4  34244  291.00 0854.44
2009/04/23 14:27:17.6     -27   -197    -61    199    208 188.0 -22.1  34258  291.25 0854.44
2009/04/23 14:27:17.7    -208   -270    -63    342    348 217.6 -10.5  34238  290.88 0854.46
2009/04/23 14:27:17.8    -175   -173    -88    247    263 225.3 -19.6  34236  290.85 0854.46
2009/04/23 14:27:17.9    -162   -231     34    283    286 215.0   6.9  34238  290.88 0854.46
2009/04/23 14:27:18.0    -165   -202    157    261    304 219.2  34.0  34236  290.87 0854.46
2009/04/23 14:27:18.1    -143   -143    166    203    262 225.1  43.7  34242  290.95 0854.46
2009/04/23 14:27:18.2    -321     62     53    327    332 281.0   9.3  34254  291.18 0854.46
2009/04/23 14:27:18.3    -467    -68   -109    473    486 261.6 -13.0  34308  292.09 0854.46
2009/04/23 14:27:18.4    -438    -38     32    440    442 265.0   4.2  34252  291.14 0854.46
2009/04/23 14:27:18.5    -402      6   -144    403    429 270.9 -19.7  34242  290.97 0854.46
2009/04/23 14:27:18.6    -379    -49   -160    383    415 262.5 -28.5  34244  291.01 0854.46
2009/04/23 14:27:18.7    -250   -170    -19    303    304 235.8  -3.7  34238  290.90 0854.46
2009/04/23 14:27:18.8    -299   -289    -80    416    424 226.0 -11.0  34234  290.82 0854.46
2009/04/23 14:27:18.9    -372   -265   -148    457    480 234.5 -23.0  34222  290.64 0854.46
2009/04/23 14:27:19.0    -338   -148   -141    370    395 246.3 -26.2  34238  290.88 0854.46
2009/04/23 14:27:19.1    -363    -81   -115    373    390 257.3 -22.2  34262  291.30 0854.46
2009/04/23 14:27:19.2    -309    -28    -90    311    323 264.7 -20.9  34286  291.72 0854.46
2009/04/23 14:27:19.3    -421    -18   -208    422    470 267.5 -32.6  34278  291.58 0854.46
2009/04/23 14:27:19.5    -257     -3   -280    258    380 269.2 -56.9  34268  291.40 0854.46
2009/04/23 14:27:19.5    -142     77   -140    162    214 298.6 -49.8  34264  291.33 0854.46
2009/04/23 14:27:19.6     -61     62     51     88    101 315.3  32.4  34266  291.38 0854.46
2009/04/23 14:27:19.7    -148    169    159    225    275 318.8  38.6  34270  291.44 0854.48
2009/04/23 14:27:19.8    -352    339     14    490    491 313.9   1.7  34260  291.27 0854.48
2009/04/23 14:27:20.0    -395    266     10    477    478 304.0   1.2  34270  291.44 0854.48
2009/04/23 14:27:20.1    -313    190    139    367    392 301.2  21.8  34268  291.42 0854.48
2009/04/23 14:27:20.1    -320    204     50    380    384 302.5   7.6  34246  291.03 0854.48
2009/04/23 14:27:20.2    -238    272    101    362    376 318.8  15.7  34248  291.05 0854.48
2009/04/23 14:27:20.4     -72    266    137    276    308 344.9  28.2  34260  291.26 0854.48
2009/04/23 14:27:20.4     -55    233    184    240    302 346.6  41.6  34254  291.17 0854.48
2009/04/23 14:27:20.6     -35    240    206    243    318 351.5  44.7  34262  291.31 0854.48
2009/04/23 14:27:20.7     -98    265    206    283    350 339.5  39.7  34232  290.81 0854.48
2009/04/23 14:27:20.8    -103    183    198    211    289 330.6  48.0  34246  291.02 0854.48
2009/04/23 14:27:20.9      37     92    162    100    190  22.3  65.1  34230  290.77 0854.48
2009/04/23 14:27:21.0      75    126    158    147    215  30.8  52.2  34244  291.01 0854.48
2009/04/23 14:27:21.1     184    127    182    224    288  55.4  43.7  34228  290.73 0854.48
2009/04/23 14:27:21.2     209     90    217    228    314  66.5  48.6  34234  290.83 0854.48
2009/04/23 14:27:21.3      24     62    198     67    209  21.8  81.2  34246  291.04 0854.48
2009/04/23 14:27:21.4    -211    116     75    241    253 298.9  17.3  34250  291.09 0854.48
2009/04/23 14:27:21.5    -201     15     85    202    219 274.4  23.8  34250  291.09 0854.48
2009/04/23 14:27:21.6    -240   -110     98    265    282 245.4  21.0  34256  291.21 0854.48
2009/04/23 14:27:21.7    -197   -163    116    257    281 230.4  25.9  34254  291.17 0854.48
2009/04/23 14:27:21.8     -88    -36    175     96    199 247.8  68.9  34262  291.32 0854.50
2009/04/23 14:27:21.9    -109   -120    140    163    214 222.1  45.1  34260  291.28 0854.50
2009/04/23 14:27:22.0      21   -160    108    162    194 172.2  36.5  34260  291.28 0854.50
2009/04/23 14:27:22.1      60   -139    139    152    205 156.4  47.1  34266  291.38 0854.50
2009/04/23 14:27:22.2     190    -73    173    204    267 111.1  44.5  34260  291.27 0854.50
2009/04/23 14:27:22.3     195    142    334    242    412  54.0  60.5  34248  291.08 0854.50
2009/04/23 14:27:22.4     -70     33    300     78    309 295.2  85.2  34274  291.51 0854.50
2009/04/23 14:27:22.5      99    -55    211    114    239 118.9  69.6  34266  291.38 0854.50
2009/04/23 14:27:22.6     272     31    309    274    412  83.4  54.2  34254  291.18 0854.50
2009/04/23 14:27:22.7     268    147    370    306    480  61.2  56.4  34264  291.33 0854.50
2009/04/23 14:27:22.8     200     95    318    222    387  64.6  61.8  34258  291.22 0854.50
2009/04/23 14:27:22.9     276    153    309    316    441  60.9  49.3  34250  291.09 0854.50
2009/04/23 14:27:23.0      83     60    249    103    269  54.1  76.3  34258  291.23 0854.50
2009/04/23 14:27:23.1     159    -78    289    178    339 116.2  65.4  34246  291.04 0854.50
2009/04/23 14:27:23.2     233    -15    299    234    379  93.7  58.2  34228  290.71 0854.50
2009/04/23 14:27:23.3      74    -74    236    106    258 135.0  74.0  34240  290.92 0854.50
2009/04/23 14:27:23.4      45    -54    180     71    193 140.3  77.6  34234  290.82 0854.50
2009/04/23 14:27:23.5     175    -67    144    188    236 111.1  41.4  34214  290.48 0854.50
2009/04/23 14:27:23.6      50    -41     90     65    111 129.6  60.5  34220  290.58 0854.50
2009/04/23 14:27:23.7      34    -21     73     41     83 122.4  67.7  34224  290.67 0854.50
2009/04/23 14:27:23.8      -6      6     67      9     67 316.6  90.0  34224  290.67 0854.51
2009/04/23 14:27:23.9     -58   -187    120    197    230 197.4  34.4  34212  290.45 0854.51
2009/04/23 14:27:24.0      11   -177     35    178    182 176.4  11.1  34222  290.62 0854.51
2009/04/23 14:27:24.1    -188    -40    112    193    223 257.8  32.9  34238  290.89 0854.51
2009/04/23 14:27:24.2    -325    -10    118    326    347 268.1  19.9  34214  290.50 0854.51
2009/04/23 14:27:24.3    -477   -152    116    501    515 252.3  13.1  34212  290.47 0854.51
2009/04/23 14:27:24.4    -486    -93   -108    495    507 259.1 -12.4  34196  290.18 0854.51
2009/04/23 14:27:24.5    -595    -38   -124    597    610 266.3 -11.8  34210  290.41 0854.51
2009/04/23 14:27:24.6    -593    143   -161    610    631 283.6 -14.8  34208  290.37 0854.51
2009/04/23 14:27:24.7    -433    163   -178    463    496 290.7 -26.5  34218  290.57 0854.51
2009/04/23 14:27:24.8    -400    157     49    430    433 291.5   6.6  34184  289.99 0854.51
2009/04/23 14:27:24.9    -343    174     -7    385    386 296.9  -1.2  34208  290.40 0854.51
2009/04/23 14:27:25.0    -264    168     27    314    316 302.5   5.1  34214  290.48 0854.51
2009/04/23 14:27:25.1    -297    154     50    335    339 297.4   8.5  34232  290.79 0854.51
2009/04/23 14:27:25.2    -174    119    207    211    295 304.4  49.8  34230  290.76 0854.51
2009/04/23 14:27:25.3    -140    273    -40    307    310 332.8  -7.5  34224  290.66 0854.51
2009/04/23 14:27:25.4    -205    329    -81    388    397 328.1 -11.9  34228  290.72 0854.51
2009/04/23 14:27:25.5    -111    282    -14    304    305 338.4  -2.8  34226  290.68 0854.51
2009/04/23 14:27:25.6      30    151     18    155    157  11.5   6.7  34236  290.87 0854.51
2009/04/23 14:27:25.7     -15    -56     63     59     86 195.1  51.6  34244  291.01 0854.51
2009/04/23 14:27:25.8     -10     -9     75     14     76 226.7  90.0  34250  291.09 0854.49
2009/04/23 14:27:25.9     -23      4     24     24     33 279.7  50.1  34252  291.13 0854.49
2009/04/23 14:27:26.0      27    -78    -61     83    103 160.4 -44.5  34246  291.03 0854.49
2009/04/23 14:27:26.1     130   -117    -59    175    184 132.0 -23.3  34248  291.06 0854.49
2009/04/23 14:27:26.2      23    -86   -103     90    136 164.9 -58.7  34248  291.08 0854.49
2009/04/23 14:27:26.3     -43   -252    -11    256    257 189.7  -2.6  34230  290.76 0854.49
2009/04/23 14:27:26.4      32   -262     33    265    268 172.9   7.1  34250  291.10 0854.49
2009/04/23 14:27:26.5     -27   -231     51    233    239 186.9  12.4  34246  291.04 0854.49
2009/04/23 14:27:26.6     -38   -273     75    276    287 188.0  15.2  34252  291.14 0854.49
2009/04/23 14:27:26.7     -68   -207     83    218    233 198.3  21.5  34252  291.15 0854.49
2009/04/23 14:27:26.8     -78   -198     81    214    228 201.6  21.5  34246  291.03 0854.49
2009/04/23 14:27:26.9     -30    -91    115     96    149 198.3  56.3  34242  290.96 0854.49
2009/04/23 14:27:27.0     125     19     91    127    156  81.2  39.1  34246  291.04 0854.49
2009/04/23 14:27:27.1     203    -42    114    208    237 101.9  31.3  34234  290.84 0854.49
2009/04/23 14:27:27.2     215    -55     78    223    237 104.4  19.4  34226  290.70 0854.49
2009/04/23 14:27:27.3     179    -75    -58    195    203 112.8 -21.7  34226  290.70 0854.49
2009/04/23 14:27:27.4     108   -213     49    240    246 153.0  11.6  34226  290.68 0854.49
2009/04/23 14:27:27.5      47   -210      1    216    217 167.3   0.5  34220  290.58 0854.49
2009/04/23 14:27:27.6      71   -157     15    173    174 155.5   5.2  34208  290.40 0854.49
2009/04/23 14:27:27.7      59   -163     19    174    176 160.0   6.5  34206  290.35 0854.49
2009/04/23 14:27:27.8      53   -191     28    199    202 164.4   8.0  34208  290.38 0854.50
2009/04/23 14:27:27.9      18   -186      7    187    188 174.4   2.3  34220  290.58 0854.50
2009/04/23 14:27:28.0      -4   -170      3    171    172 181.4   1.2  34232  290.79 0854.50
2009/04/23 14:27:28.1      63   -185     -6    196    197 161.1  -1.8  34216  290.53 0854.50
2009/04/23 14:27:28.2      26   -155     15    158    159 170.2   5.4  34216  290.52 0854.50
2009/04/23 14:27:28.3      16   -199     10    200    201 175.1   2.9  34220  290.58 0854.50
2009/04/23 14:27:28.4      60   -131     -3    145    146 155.5  -1.3  34222  290.62 0854.50
2009/04/23 14:27:28.5      46    -78    -12     91     92 149.3  -7.7  34220  290.60 0854.50
2009/04/23 14:27:28.6      50    -93    -40    106    113 151.5 -25.9  34220  290.58 0854.50
2009/04/23 14:27:28.7      49    -76    -29     91     96 147.0 -17.6  34226  290.69 0854.50
2009/04/23 14:27:28.8      45    -23    -18     51     54 118.0 -23.3  34234  290.82 0854.50
2009/04/23 14:27:28.9      24    -23    -12     34     37 133.3 -19.7  34230  290.75 0854.50
2009/04/23 14:27:29.0      50      3    -28     51     58  85.7 -35.8  34228  290.74 0854.50
2009/04/23 14:27:29.1      69    -43    -72     82    109 122.4 -50.8  34226  290.70 0854.50
2009/04/23 14:27:29.2      83    -17    -65     85    107 101.9 -45.6  34222  290.62 0854.50
2009/04/23 14:27:29.3     110    103    -50    151    159  46.9 -23.3  34222  290.64 0854.50
2009/04/23 14:27:29.4      56    173     -5    182    183  18.0  -1.6  34236  290.87 0854.50
2009/04/23 14:27:29.5     -13    186    -66    187    198 356.0 -24.6  34228  290.72 0854.50
2009/04/23 14:27:29.6     -86    214    -59    231    239 337.9 -14.5  34226  290.68 0854.50
2009/04/23 14:27:29.7    -104    132      7    169    170 321.7   2.5  34228  290.72 0854.50
2009/04/23 14:27:29.8    -165    165     -9    234    235 315.1  -2.2  34230  290.75 0854.52
2009/04/23 14:27:29.9    -155     47     44    163    169 286.9  15.3  34234  290.82 0854.52
2009/04/23 14:27:30.0    -107     21     74    110    132 281.5  37.0  34256  291.20 0854.52
2009/04/23 14:27:30.1    -134    -73    -55    153    162 241.1 -24.8  34266  291.37 0854.52
2009/04/23 14:27:30.2    -164   -170    -70    237    248 223.9 -16.6  34272  291.46 0854.52
2009/04/23 14:27:30.3     -88   -226     22    243    245 201.4   5.2  34268  291.39 0854.52
2009/04/23 14:27:30.4     -88   -191    107    211    236 204.9  29.1  34268  291.42 0854.52
2009/04/23 14:27:30.5     -97   -193     59    217    225 206.7  15.3  34264  291.33 0854.52
2009/04/23 14:27:30.6     -73   -202      8    215    216 200.0   2.3  34254  291.18 0854.52
2009/04/23 14:27:30.7    -112   -294     23    315    316 200.9   4.3  34252  291.12 0854.52
2009/04/23 14:27:30.8     -44   -389     22    392    393 186.5   3.2  34252  291.15 0854.52
2009/04/23 14:27:30.9      64   -281     23    289    290 167.1   4.6  34258  291.22 0854.52
2009/04/23 14:27:31.0      10   -266    -34    267    270 177.8  -7.3  34248  291.07 0854.52
2009/04/23 14:27:31.1      17   -219    -12    220    221 175.5  -3.2  34250  291.09 0854.52
2009/04/23 14:27:31.2     103   -158     31    189    192 146.8   9.5  34248  291.08 0854.52
2009/04/23 14:27:31.3      90   -167     65    190    201 151.7  18.9  34248  291.08 0854.52
2009/04/23 14:27:31.4      49   -205     33    211    214 166.4   9.0  34246  291.03 0854.52
2009/04/23 14:27:31.5     109   -164     74    197    210 146.4  21.0  34242  290.96 0854.52
2009/04/23 14:27:31.6     207   -161     76    263    274 127.8  16.3  34244  290.99 0854.52
2009/04/23 14:27:31.7     152   -210    107    260    281 144.2  23.6  34246  291.04 0854.52
2009/04/23 14:27:31.8      98    -99    182    140    229 135.5  58.5  34254  291.16 0854.52
2009/04/23 14:27:31.9     135      2    159    136    209  89.1  55.4  34252  291.13 0854.52
2009/04/23 14:27:32.0      69     58     48     91    102  49.6  29.8  34248  291.08 0854.52
2009/04/23 14:27:32.1      76     57    -25     95     99  53.1 -15.0  34252  291.15 0854.52
2009/04/23 14:27:32.2       7     95     72     96    120   4.5  40.7  34248  291.06 0854.52
2009/04/23 14:27:32.3     -27     34     62     44     76 322.2  60.6  34252  291.13 0854.52
2009/04/23 14:27:32.4     -35     52     61     63     87 325.7  50.0  34242  290.96 0854.52
2009/04/23 14:27:32.5     -19   -109    145    111    182 190.2  59.0  34250  291.09 0854.52
2009/04/23 14:27:32.6    -192    -91    190    213    285 244.6  46.2  34256  291.19 0854.52
2009/04/23 14:27:32.7     -38    -69    162     79    180 209.0  72.4  34270  291.45 0854.52
2009/04/23 14:27:32.8      11    -53    134     55    144 168.4  77.1  34264  291.33 0854.52
2009/04/23 14:27:32.9      41    -34    113     54    125 129.5  72.9  34270  291.43 0854.52
2009/04/23 14:27:33.0     -32    -76    105     83    133 203.2  57.5  34258  291.23 0854.52
2009/04/23 14:27:33.1    -128   -156    192    202    278 219.4  48.7  34248  291.07 0854.52
2009/04/23 14:27:33.2    -130   -130    165    184    247 225.0  46.6  34252  291.13 0854.52
2009/04/23 14:27:33.3      17    -54    142     57    153 161.7  77.1  34268  291.40 0854.52
2009/04/23 14:27:33.4     139   -108    123    177    215 128.0  38.6  34260  291.26 0854.52
2009/04/23 14:27:33.5     100    -39     92    108    141 111.3  44.8  34260  291.28 0854.52
2009/04/23 14:27:33.6      30     48    103     57    117  32.5  68.8  34268  291.40 0854.52
2009/04/23 14:27:33.7       0     15    101     16    102 357.3  90.0  34262  291.30 0854.52
2009/04/23 14:27:33.8     130    -35    150    135    201 105.1  53.5  34250  291.09 0854.53
2009/04/23 14:27:33.9      99    -55    146    114    185 118.9  58.2  34256  291.20 0854.53
2009/04/23 14:27:34.0      75    -17    149     78    168 103.3  70.4  34258  291.25 0854.53
2009/04/23 14:27:34.1     120    -49    112    130    171 112.2  45.4  34258  291.25 0854.53
2009/04/23 14:27:34.2      51   -118     90    129    157 156.4  38.6  34250  291.11 0854.53
2009/04/23 14:27:34.3      31   -134     96    138    168 166.7  38.4  34270  291.43 0854.53
2009/04/23 14:27:34.4     -45   -133    146    141    202 198.7  50.9  34270  291.45 0854.53
2009/04/23 14:27:34.5     -35   -149    130    154    201 193.3  44.5  34282  291.64 0854.53
2009/04/23 14:27:34.6     -50   -181     44    188    194 195.6  13.2  34252  291.15 0854.53
2009/04/23 14:27:34.7     -16   -218     93    219    237 184.4  24.3  34242  290.98 0854.53
2009/04/23 14:27:34.8     -21   -215     92    217    235 185.8  24.3  34244  290.99 0854.53
2009/04/23 14:27:34.9     -41   -214    124    218    250 190.9  32.4  34242  290.95 0854.53
2009/04/23 14:27:35.0     -34   -205    120    208    240 189.6  32.4  34256  291.21 0854.53
2009/04/23 14:27:35.1     -25   -179     98    181    205 188.0  30.6  34270  291.43 0854.53
2009/04/23 14:27:35.2     -68   -231    140    241    278 196.5  32.9  34246  291.02 0854.53
2009/04/23 14:27:35.3     -57   -260    148    267    305 192.5  31.4  34238  290.90 0854.53
2009/04/23 14:27:35.4     -55   -249    168    256    306 192.5  36.3  34242  290.97 0854.53
2009/04/23 14:27:35.5       8   -274    219    275    351 178.2  42.6  34244  291.00 0854.53
2009/04/23 14:27:35.6      -3   -354     93    355    367 180.6  14.7  34240  290.93 0854.53
2009/04/23 14:27:35.7      15   -388    120    389    408 177.8  17.2  34234  290.84 0854.53
2009/04/23 14:27:35.8     100   -404    119    417    434 166.1  16.0  34232  290.80 0854.60
2009/04/23 14:27:35.9      25   -386    196    387    433 176.2  29.1  34238  290.89 0854.60
2009/04/23 14:27:36.0      24   -364    188    365    410 176.1  29.3  34242  290.98 0854.60
2009/04/23 14:27:36.1     120   -363    167    383    417 161.6  25.1  34246  291.02 0854.60
2009/04/23 14:27:36.2      26   -338    246    340    419 175.5  39.5  34270  291.45 0854.60
2009/04/23 14:27:36.3      11   -269    281    270    389 177.5  51.2  34286  291.71 0854.60
2009/04/23 14:27:36.4     -10   -214    268    215    343 182.7  57.1  34292  291.82 0854.60
2009/04/23 14:27:36.5     -13   -233    245    234    338 183.4  51.5  34286  291.72 0854.60
2009/04/23 14:27:36.6       8   -126    202    127    238 176.4  64.9  34284  291.69 0854.60
2009/04/23 14:27:36.7       8   -237    169    238    291 178.0  38.6  34248  291.05 0854.60
2009/04/23 14:27:36.8      52   -305    187    310    362 170.2  34.0  34242  290.96 0854.60
2009/04/23 14:27:36.9      -4   -217    217    218    307 181.1  50.0  34252  291.12 0854.60
2009/04/23 14:27:37.0     -23   -218    234    220    321 186.3  52.0  34262  291.31 0854.60
2009/04/23 14:27:37.1     -81   -240    192    254    318 198.7  40.9  34254  291.16 0854.60
2009/04/23 14:27:37.2     -86   -295    132    308    335 196.3  24.6  34240  290.93 0854.60
2009/04/23 14:27:37.3      31   -179     78    182    198 170.0  24.6  34242  290.98 0854.60
2009/04/23 14:27:37.4     -83   -221    169    237    291 200.7  38.8  34244  291.00 0854.60
2009/04/23 14:27:37.5     -35   -348    169    350    388 185.8  27.3  34232  290.79 0854.60
2009/04/23 14:27:37.6     -47   -255    155    260    302 190.5  33.5  34236  290.85 0854.60
2009/04/23 14:27:37.7     -70   -300    133    309    336 193.3  24.8  34232  290.78 0854.60
2009/04/23 14:27:37.8    -149   -299     51    335    339 206.5   8.8  34238  290.88 0854.60
2009/04/23 14:27:37.9    -169   -213      7    273    274 218.5   1.6  34236  290.87 0854.60
2009/04/23 14:27:38.0    -123   -214     -1    248    249 209.9  -0.3  34236  290.87 0854.60
2009/04/23 14:27:38.1     -51   -180     -5    188    189 196.0  -1.6  34240  290.94 0854.60
2009/04/23 14:27:38.2     -63   -132     51    147    156 205.5  19.2  34236  290.87 0854.60
2009/04/23 14:27:38.3    -119   -131    140    178    226 222.3  42.4  34322  292.32 0854.60
2009/04/23 14:27:38.4    -142    -90    115    169    204 237.6  37.6  34328  292.44 0854.60
2009/04/23 14:27:38.5    -142    -78    145    163    218 241.2  46.4  34310  292.12 0854.60
2009/04/23 14:27:38.6    -178    -13    124    179    217 265.7  38.0  34326  292.40 0854.60
2009/04/23 14:27:38.7     -35     26     77     44     88 306.9  67.7  34334  292.52 0854.60
2009/04/23 14:27:38.8     -14     14    133     21    134 315.0  90.0  34310  292.12 0854.60
2009/04/23 14:27:38.9      19     15     84     25     87  50.5  82.8  34308  292.08 0854.60
2009/04/23 14:27:39.0      80     23     48     84     96  74.1  32.9  34264  291.33 0854.60
2009/04/23 14:27:39.1      23    -67     59     72     93 160.8  43.7  34306  292.05 0854.60
2009/04/23 14:27:39.2      -8    -51     20     52     55 188.9  21.0  34316  292.22 0854.60
2009/04/23 14:27:39.3      17    -52     71     55     89 161.7  57.9  34280  291.62 0854.60
2009/04/23 14:27:39.4      77    -29     37     83     90 110.8  26.2  34272  291.47 0854.60
2009/04/23 14:27:39.5     117    -42     31    125    129 109.9  14.3  34260  291.28 0854.60
2009/04/23 14:27:39.6      99    -26      5    103    104 105.1   2.9  34262  291.30 0854.60
2009/04/23 14:27:39.7      92    -56     -2    108    109 121.5  -1.3  34274  291.52 0854.60
2009/04/23 14:27:39.8     105     48     30    116    120  65.2  14.7  34286  291.72 0854.60
2009/04/23 14:27:39.9      81     34     51     89    102  66.9  32.4  34284  291.69 0854.60
2009/04/23 14:27:40.0      70     33   -137     78    157  64.7 -72.5  34288  291.74 0854.60
2009/04/23 14:27:40.1     213     80    -89    228    244  69.4 -26.5  34302  291.97 0854.60
2009/04/23 14:27:40.2     207    -38    -75    211    224 100.6 -19.6  34302  292.00 0854.60
2009/04/23 14:27:40.3     172    -25   -105    174    203  98.4 -38.4  34300  291.95 0854.60
2009/04/23 14:27:40.4     170    -35    -79    174    191 101.7 -30.6  34302  291.98 0854.60
2009/04/23 14:27:40.5     266      8    -74    267    278  88.1 -15.5  34284  291.68 0854.60
2009/04/23 14:27:40.6     172   -138    -90    221    238 128.9 -27.5  34270  291.44 0854.60
2009/04/23 14:27:40.7      21   -152     90    154    178 172.0  32.9  34274  291.52 0854.60
2009/04/23 14:27:40.8     -20    -32    140     38    145 212.5  84.8  34306  292.05 0854.54
2009/04/23 14:27:40.9      58   -313    178    319    365 169.4  31.6  34266  291.37 0854.54
2009/04/23 14:27:41.0     -52   -333    219    338    402 189.0  35.9  34256  291.20 0854.54
2009/04/23 14:27:41.1    -100   -302    235    319    396 198.3  40.0  34258  291.25 0854.54
2009/04/23 14:27:41.2    -123   -385    163    405    436 197.8  23.1  34258  291.24 0854.54
2009/04/23 14:27:41.3    -306   -370    259    481    546 219.6  30.7  34264  291.35 0854.54
2009/04/23 14:27:41.4    -237   -325    195    403    447 216.1  27.7  34262  291.29 0854.54
2009/04/23 14:27:41.5    -194   -249     93    316    330 218.0  16.5  34262  291.31 0854.54
2009/04/23 14:27:41.6    -164   -342     89    380    391 205.6  13.3  34256  291.20 0854.54
2009/04/23 14:27:41.7    -167   -306     45    349    352 208.6   7.5  34258  291.23 0854.54
2009/04/23 14:27:41.8    -128   -324     82    349    359 201.6  13.2  34260  291.27 0854.54
2009/04/23 14:27:41.9     -85   -281    134    294    323 196.9  26.3  34254  291.16 0854.54
2009/04/23 14:27:42.0    -133   -363     85    387    397 200.2  12.5  34254  291.18 0854.54
2009/04/23 14:27:42.1    -105   -445     39    458    460 193.3   5.0  34250  291.09 0854.54
2009/04/23 14:27:42.2    -172   -420      3    455    456 202.3   0.5  34258  291.23 0854.54
2009/04/23 14:27:42.3    -110   -426   -118    441    457 194.5 -15.0  34254  291.18 0854.54
2009/04/23 14:27:42.4    -228   -482    -82    534    541 205.3  -8.8  34260  291.26 0854.54
2009/04/23 14:27:42.5    -200   -466     98    508    518 203.2  11.0  34248  291.07 0854.54
2009/04/23 14:27:42.6    -156   -344    182    378    419 204.5  27.3  34258  291.24 0854.54
2009/04/23 14:27:42.7    -121   -350    142    371    397 199.2  22.0  34262  291.30 0854.54
2009/04/23 14:27:42.8    -101   -231    189    253    315 203.7  40.6  34276  291.55 0854.42
2009/04/23 14:27:42.9     -16   -255    333    256    420 183.6  58.6  34270  291.44 0854.42
2009/04/23 14:27:43.0     -21   -345    348    346    490 183.5  50.1  34266  291.36 0854.42
2009/04/23 14:27:43.1     -25   -345    256    346    430 184.2  40.2  34258  291.24 0854.42
2009/04/23 14:27:43.2     -66   -343    299    350    460 191.0  44.8  34262  291.31 0854.42
2009/04/23 14:27:43.3    -133   -462    248    481    541 196.1  29.3  34254  291.18 0854.42
2009/04/23 14:27:43.4    -149   -519    247    541    594 196.0  26.3  34258  291.22 0854.42
2009/04/23 14:27:43.5    -108   -529    252    541    596 191.6  26.9  34252  291.12 0854.42
2009/04/23 14:27:43.6    -104   -580    161    590    612 190.2  15.3  34250  291.10 0854.42
2009/04/23 14:27:43.7     -37   -611    130    613    627 183.5  12.0  34248  291.08 0854.42
2009/04/23 14:27:43.8      70   -639     85    643    649 173.7   7.6  34248  291.08 0854.42
2009/04/23 14:27:43.9      24   -568    102    569    579 177.5  10.2  34244  291.00 0854.42
2009/04/23 14:27:44.0      32   -439    124    441    459 175.8  15.7  34236  290.85 0854.42
2009/04/23 14:27:44.1      14   -420    136    421    443 178.0  17.9  34254  291.18 0854.42
2009/04/23 14:27:44.2      -3   -435    164    436    465 180.5  21.5  34252  291.12 0854.42
2009/04/23 14:27:44.3      87   -417     28    427    428 168.1   3.8  34244  291.01 0854.42
2009/04/23 14:27:44.4     -15   -438     69    439    445 182.0   9.0  34252  291.14 0854.42
2009/04/23 14:27:44.5     -63   -415    132    420    441 188.7  17.5  34254  291.16 0854.42
2009/04/23 14:27:44.6     -40   -371    130    374    397 186.3  19.2  34248  291.06 0854.42
2009/04/23 14:27:44.7     -75   -406     80    413    421 190.5  11.0  34258  291.23 0854.42
2009/04/23 14:27:44.8     -97   -429    144    440    464 192.8  18.1  34282  291.65 0854.39
2009/04/23 14:27:44.9     -32   -502    156    504    528 183.7  17.3  34272  291.47 0854.39
2009/04/23 14:27:45.0      14   -560    206    561    597 178.5  21.0  34282  291.66 0854.39
2009/04/23 14:27:45.1     -51   -673    158    675    694 184.4  13.2  34252  291.12 0854.39
2009/04/23 14:27:45.2     -93   -576    151    584    604 189.2  14.5  34250  291.09 0854.39
2009/04/23 14:27:45.3    -107   -476    255    488    550 192.7  29.8  34260  291.28 0854.39
2009/04/23 14:27:45.4    -345   -452    -22    569    570 217.4  -2.2  34244  291.00 0854.39
2009/04/23 14:27:45.5      -7   -511    145    512    533 180.8  15.8  34238  290.91 0854.39
2009/04/23 14:27:45.6     -93   -543    121    552    566 189.8  12.4  34248  291.06 0854.39
2009/04/23 14:27:45.7    -212   -450     66    498    503 205.2   7.6  34256  291.20 0854.39
2009/04/23 14:27:45.8    -265   -422    128    499    516 212.1  14.4  34248  291.05 0854.39
2009/04/23 14:27:45.9    -312   -321     63    448    453 224.2   8.1  34252  291.12 0854.39
2009/04/23 14:27:46.0    -295   -314   -103    432    445 223.2 -13.4  34266  291.36 0854.39
2009/04/23 14:27:46.1    -207   -248    -33    324    326 219.9  -5.9  34270  291.44 0854.39
2009/04/23 14:27:46.2    -132   -242    -81    276    288 208.7 -16.4  34266  291.38 0854.39
2009/04/23 14:27:46.3     -93   -301    -78    316    326 197.2 -13.9  34252  291.14 0854.39
2009/04/23 14:27:46.4     -23   -312    -77    313    323 184.4 -13.8  34244  291.00 0854.39
2009/04/23 14:27:46.5     -23   -414    -48    415    418 183.2  -6.7  34236  290.85 0854.39
2009/04/23 14:27:46.6      -7   -431    -99    432    444 181.0 -12.9  34240  290.92 0854.39
2009/04/23 14:27:46.7     -19   -378   -129    379    401 183.0 -18.8  34244  291.00 0854.39
2009/04/23 14:27:46.8      77   -320   -158    330    365 166.4 -31.7  34240  290.93 0854.38
2009/04/23 14:27:46.9     -60   -325   -172    331    373 190.6 -33.9  34252  291.13 0854.38
2009/04/23 14:27:47.0    -116   -433   -236    449    507 195.1 -34.4  34242  290.96 0854.38
2009/04/23 14:27:47.1    -188   -234   -229    301    378 218.7 -45.6  34228  290.74 0854.38
2009/04/23 14:27:47.3    -157   -124   -255    201    324 231.8 -62.1  34232  290.80 0854.38
2009/04/23 14:27:47.4    -233    -78   -248    246    349 251.4 -54.4  34256  291.19 0854.38
2009/04/23 14:27:47.5    -190   -113   -200    222    298 239.3 -51.3  34220  290.59 0854.38
2009/04/23 14:27:47.6    -203   -158    -10    258    259 232.2  -2.2  34238  290.88 0854.38
2009/04/23 14:27:47.7    -169   -230    -73    286    296 216.3 -14.4  34236  290.85 0854.38
2009/04/23 14:27:47.8    -157   -329    -32    365    367 205.5  -5.1  34236  290.86 0854.38
2009/04/23 14:27:47.9    -237   -230    -39    331    334 225.8  -6.9  34232  290.79 0854.38
2009/04/23 14:27:48.0     -98   -101    -50    142    151 224.1 -19.6  34240  290.92 0854.38
2009/04/23 14:27:48.1     -68   -104     80    125    148 213.0  35.6  34232  290.81 0854.38
2009/04/23 14:27:48.2     -23   -215      3    217    218 186.2   0.8  34232  290.79 0854.38
2009/04/23 14:27:48.3     -58   -218      7    226    227 195.1   1.8  34228  290.74 0854.38
2009/04/23 14:27:48.4     -90   -174     -6    196    197 207.4  -1.8  34226  290.69 0854.38
2009/04/23 14:27:48.5     -51   -177    -15    185    186 196.0  -4.9  34224  290.65 0854.38
2009/04/23 14:27:48.6    -104   -134      2    170    171 217.8   0.8  34226  290.69 0854.38
2009/04/23 14:27:48.7    -131    -35     17    136    138 254.9   7.1  34230  290.75 0854.38
2009/04/23 14:27:48.8    -146     -4     12    147    148 268.3   4.9  34234  290.84 0854.38
2009/04/23 14:27:48.9     -94     88     59    130    142 313.1  25.7  34240  290.92 0854.36
2009/04/23 14:27:49.0     -11     26     56     29     63 336.4  70.8  34248  291.06 0854.36
2009/04/23 14:27:49.1      60    -33     81     69    106 118.9  55.4  34246  291.03 0854.36
2009/04/23 14:27:49.2      16    -34     86     38     94 154.6  75.0  34256  291.21 0854.36
2009/04/23 14:27:49.3      27    -40     47     49     67 145.7  50.0  34250  291.11 0854.36
2009/04/23 14:27:49.4      39     -7     39     40     55 100.6  51.1  34252  291.13 0854.36
2009/04/23 14:27:49.5      71    -45     65     85    107 122.5  41.2  34236  290.87 0854.36
2009/04/23 14:27:49.6      83    -77     64    114    130 132.7  31.9  34230  290.77 0854.36
2009/04/23 14:27:49.7      63    -77    111    100    149 140.8  53.3  34240  290.94 0854.36
2009/04/23 14:27:49.8     129   -164    106    209    234 141.9  29.1  34228  290.72 0854.36
2009/04/23 14:27:49.9     105   -222    175    246    301 154.7  38.8  34220  290.58 0854.36
2009/04/23 14:27:50.0     104   -228    175    251    305 155.5  38.4  34210  290.42 0854.36
2009/04/23 14:27:50.1     175   -159     89    237    253 132.2  21.3  34202  290.27 0854.36
2009/04/23 14:27:50.2     248   -366     95    443    454 145.9  12.2  34200  290.26 0854.36
2009/04/23 14:27:50.3     257   -344    134    430    451 143.2  17.3  34192  290.12 0854.36
2009/04/23 14:27:50.4     165   -304    173    347    387 151.5  28.5  34198  290.21 0854.36
2009/04/23 14:27:50.5     258   -286    151    386    414 138.0  22.5  34202  290.28 0854.36
2009/04/23 14:27:50.6     267   -359     88    448    457 143.3  11.1  34210  290.43 0854.36
2009/04/23 14:27:50.7     188   -227     62    295    302 140.4  12.0  34198  290.22 0854.36
2009/04/23 14:27:50.8     232   -282     52    366    370 140.5   8.2  34192  290.13 0854.36
2009/04/23 14:27:50.9     255   -263     45    367    370 136.0   7.1  34188  290.06 0854.38
2009/04/23 14:27:51.0     222   -327     97    396    408 145.7  13.8  34198  290.21 0854.38
2009/04/23 14:27:51.1     223   -336     71    404    411 146.4  10.0  34202  290.28 0854.38
2009/04/23 14:27:51.2     270   -353    104    445    458 142.6  13.2  34200  290.24 0854.38
2009/04/23 14:27:51.3     261   -454    117    524    538 150.1  12.6  34198  290.21 0854.38
2009/04/23 14:27:51.4     248   -465    115    528    541 151.9  12.3  34192  290.11 0854.38
2009/04/23 14:27:51.5     223   -529     60    575    579 157.2   6.0  34206  290.34 0854.38
2009/04/23 14:27:51.6     295   -544    106    620    629 151.5   9.7  34180  289.91 0854.38
2009/04/23 14:27:51.7     322   -490    161    587    609 146.7  15.4  34178  289.86 0854.38
2009/04/23 14:27:51.8     394   -427    114    582    594 137.3  11.1  34184  289.98 0854.38
2009/04/23 14:27:51.9     255   -379    -11    457    458 146.1  -1.4  34194  290.14 0854.38
2009/04/23 14:27:52.0     -17   -379    -70    380    387 182.7 -10.5  34198  290.23 0854.38
2009/04/23 14:27:52.1     -16   -368    -90    369    380 182.6 -13.8  34214  290.50 0854.38
2009/04/23 14:27:52.2      41   -405    -44    408    411 174.2  -6.3  34218  290.55 0854.38
2009/04/23 14:27:52.3    -105   -515    -55    526    529 191.6  -6.0  34218  290.55 0854.38
2009/04/23 14:27:52.4     -36   -506    -55    508    512 184.1  -6.2  34202  290.27 0854.38
2009/04/23 14:27:52.5     -82   -526   -101    533    543 188.9 -10.8  34220  290.60 0854.38
2009/04/23 14:27:52.6     -10   -484    -70    485    491 181.3  -8.2  34220  290.59 0854.38
2009/04/23 14:27:52.7     -93   -358   -121    370    390 194.6 -18.2  34238  290.89 0854.38
2009/04/23 14:27:52.8    -109   -428   -108    442    456 194.3 -13.8  34228  290.73 0854.38
2009/04/23 14:27:52.9     -30   -392    -25    394    395 184.4  -3.7  34198  290.21 0854.38
2009/04/23 14:27:53.0     196   -468     66    508    513 157.3   7.5  34198  290.20 0854.38
2009/04/23 14:27:53.1     116   -390    102    407    420 163.4  14.2  34198  290.21 0854.38
2009/04/23 14:27:53.2       4   -277    263    278    382 179.1  48.0  34198  290.20 0854.38
2009/04/23 14:27:53.3      73   -339    269    348    439 167.7  41.6  34194  290.16 0854.38
2009/04/23 14:27:53.4      98   -279    234    296    377 160.6  42.3  34202  290.27 0854.38
2009/04/23 14:27:53.5     -16   -162    140    163    214 185.8  45.1  34200  290.25 0854.38
2009/04/23 14:27:53.6     -37   -185    -22    189    191 191.6  -6.7  34200  290.25 0854.38
2009/04/23 14:27:53.7      70   -193    -89    206    224 160.0 -29.3  34200  290.25 0854.38
2009/04/23 14:27:53.8     163   -403     54    435    439 157.9   7.1  34200  290.24 0854.38
2009/04/23 14:27:53.9      38   -429    -17    431    432 174.9  -2.3  34210  290.43 0854.38
2009/04/23 14:27:54.0      42   -390     10    393    394 173.8   1.5  34206  290.35 0854.38
2009/04/23 14:27:54.1      82   -344      4    354    355 166.6   0.7  34206  290.35 0854.38
2009/04/23 14:27:54.2      53   -349    -68    354    361 171.3 -10.9  34210  290.42 0854.38
2009/04/23 14:27:54.3      23   -357    -14    358    359 176.3  -2.2  34204  290.32 0854.38
2009/04/23 14:27:54.4     -59   -585      3    589    590 185.8   0.3  34204  290.31 0854.38
2009/04/23 14:27:54.5    -129   -516     54    532    535 194.1   5.8  34208  290.38 0854.38
2009/04/23 14:27:54.6     -46   -391     -4    394    395 186.8  -0.7  34200  290.25 0854.38
2009/04/23 14:27:54.7      45   -411    151    414    440 173.7  20.9  34196  290.19 0854.38
2009/04/23 14:27:54.8     -38   -430    207    432    479 185.1  27.3  34216  290.51 0854.38
2009/04/23 14:27:54.9      55   -657    423    660    783 175.2  35.7  34204  290.33 0854.39
2009/04/23 14:27:55.0      52   -589    396    592    712 174.9  37.0  34204  290.31 0854.39
2009/04/23 14:27:55.1      -7   -311    348    312    467 181.4  53.5  34194  290.16 0854.39
2009/04/23 14:27:55.2     174   -101    202    202    285 120.0  50.1  34210  290.41 0854.39
2009/04/23 14:27:55.3     209    -87    298    227    374 112.6  59.0  34216  290.52 0854.39
2009/04/23 14:27:55.4     243    -71    290    254    385 106.4  54.3  34202  290.28 0854.39
2009/04/23 14:27:55.5     373     28    320    374    492  85.6  44.9  34214  290.50 0854.39
2009/04/23 14:27:55.6     337     40    285    340    443  83.1  44.1  34224  290.67 0854.39
2009/04/23 14:27:55.7     449     89    142    458    480  78.8  17.3  34218  290.56 0854.39
2009/04/23 14:27:55.8     352    -52     80    356    366  98.5  12.8  34214  290.50 0854.39
2009/04/23 14:27:55.9     316      0     18    317    318  90.0   3.3  34214  290.48 0854.39
2009/04/23 14:27:56.0     110    -36     61    116    131 108.2  29.3  34216  290.52 0854.39
2009/04/23 14:27:56.1     -59   -177    223    187    291 198.5  56.1  34216  290.53 0854.39
2009/04/23 14:27:56.2       9     17    248     20    248  29.0  90.0  34240  290.94 0854.39
2009/04/23 14:27:56.3      90    116    275    147    311  37.8  69.6  34236  290.87 0854.39
2009/04/23 14:27:56.4     127    135    199    186    272  43.4  52.1  34232  290.78 0854.39
2009/04/23 14:27:56.5     201     35    262    205    332  80.1  58.0  34232  290.78 0854.39
2009/04/23 14:27:56.6     321    -62    218    328    393 101.0  36.7  34218  290.54 0854.39
2009/04/23 14:27:56.7     245    -47    253    250    355 101.0  50.2  34214  290.49 0854.39
2009/04/23 14:27:56.8     245     18    293    246    382  85.6  56.1  34220  290.60 0854.39
2009/04/23 14:27:56.9     169     27    148    172    226  80.8  45.1  34220  290.60 0854.40
2009/04/23 14:27:57.0     -50    -82    171     97    196 211.6  68.1  34234  290.82 0854.40
2009/04/23 14:27:57.1      54     63    148     84    170  40.5  68.1  34236  290.87 0854.40
2009/04/23 14:27:57.2     109     77     92    134    162  54.9  37.8  34228  290.74 0854.40
2009/04/23 14:27:57.3     131     -8    144    132    195  93.5  52.7  34232  290.79 0854.40
2009/04/23 14:27:57.4      78    -74    175    108    205 133.6  65.4  34228  290.74 0854.40
2009/04/23 14:27:57.5      12    -25    130     28    132 154.6  88.5  34230  290.77 0854.40
2009/04/23 14:27:57.6      24    -60    146     65    159 158.2  74.5  34220  290.58 0854.40
2009/04/23 14:27:57.7     133    -62    208    147    254 115.2  61.3  34228  290.74 0854.40
2009/04/23 14:27:57.8      57    -18    115     60    129 108.2  70.8  34236  290.86 0854.40
2009/04/23 14:27:57.9      38    -52     37     65     74 143.9  32.4  34234  290.84 0854.40
2009/04/23 14:27:58.0      -3     60     -4     61     62 356.4  -4.1  34252  291.13 0854.40
2009/04/23 14:27:58.1     -12    162     81    163    182 355.5  28.2  34272  291.49 0854.40
2009/04/23 14:27:58.2     -73    -14     65     75     99 258.5  45.4  34270  291.43 0854.40
2009/04/23 14:27:58.3     -43   -197    113    202    231 192.5  31.6  34232  290.79 0854.40
2009/04/23 14:27:58.4      31   -285    208    287    354 173.7  39.5  34220  290.59 0854.40
2009/04/23 14:27:58.5     105    -95    165    142    217 132.2  54.8  34236  290.87 0854.40
2009/04/23 14:27:58.6      -3   -219    188    220    289 181.0  44.8  34234  290.82 0854.40
2009/04/23 14:27:58.7      36   -180    145    184    234 168.4  42.2  34234  290.82 0854.40
2009/04/23 14:27:58.8      25   -194    136    196    238 172.4  38.4  34224  290.67 0854.40
2009/04/23 14:27:58.9      34    -62    150     71    165 151.1  73.2  34242  290.96 0854.39
2009/04/23 14:27:59.0      14   -119    158    120    198 172.9  59.0  34234  290.82 0854.39
2009/04/23 14:27:59.1      32   -166    154    170    229 169.1  46.9  34234  290.84 0854.39
2009/04/23 14:27:59.2     -10   -237     79    238    252 182.6  18.5  34226  290.68 0854.39
2009/04/23 14:27:59.3     -37   -401     68    403    409 185.3   9.7  34222  290.61 0854.39
2009/04/23 14:27:59.4     -23   -471     62    472    477 182.9   7.6  34216  290.51 0854.39
2009/04/23 14:27:59.5       6   -379     25    380    381 179.0   3.8  34220  290.60 0854.39
2009/04/23 14:27:59.6      26   -406     72    407    414 176.3  10.1  34222  290.63 0854.39
2009/04/23 14:27:59.7     -47   -385    135    388    411 187.1  19.2  34218  290.56 0854.39
2009/04/23 14:27:59.8     -41   -243     67    247    257 189.6  15.3  34218  290.54 0854.39
2009/04/23 14:27:59.9    -139   -192      0    238    239 216.0   0.0  34216  290.51 0854.39
2009/04/23 14:28:00.0    -248   -318     99    404    416 218.0  13.8  34218  290.55 0854.39
2009/04/23 14:28:00.1    -405   -432    -99    593    602 223.2  -9.5  34224  290.66 0854.39
2009/04/23 14:28:00.2    -237   -360     60    432    437 213.4   8.0  34224  290.67 0854.39
2009/04/23 14:28:00.3    -453   -349     50    572    575 232.4   5.1  34230  290.75 0854.39
2009/04/23 14:28:00.4    -411   -397    116    572    584 226.0  11.5  34234  290.83 0854.39
2009/04/23 14:28:00.5    -458   -436     66    633    637 226.4   6.0  34212  290.45 0854.39
2009/04/23 14:28:00.6    -503   -397    -49    642    644 231.7  -4.4  34164  289.65 0854.39
2009/04/23 14:28:00.7    -611   -388   -116    724    734 237.6  -9.1  34162  289.59 0854.39
2009/04/23 14:28:00.8    -608   -427    -52    744    746 234.9  -4.0  34158  289.55 0854.39
2009/04/23 14:28:00.9    -571   -397   -148    696    712 235.2 -12.0  34162  289.59 0854.38
2009/04/23 14:28:01.0    -698   -493   -110    855    862 234.8  -7.4  34188  290.04 0854.38
2009/04/23 14:28:01.1    -556   -483   -206    737    765 229.0 -20.3  34184  289.97 0854.38
2009/04/23 14:28:01.2    -539   -384   -315    662    733 234.5 -31.7  34176  289.84 0854.38
2009/04/23 14:28:01.3    -669   -375   -163    768    786 240.7 -12.0  34194  290.15 0854.38
2009/04/23 14:28:01.4    -693   -448   -157    826    841 237.1 -10.8  34188  290.04 0854.38
2009/04/23 14:28:01.5    -494   -502   -309    705    769 224.5 -29.6  34178  289.87 0854.38
2009/04/23 14:28:01.6    -403   -372   -303    549    627 227.3 -35.8  34180  289.90 0854.38
2009/04/23 14:28:01.7    -501   -218   -197    547    582 246.5 -19.8  34216  290.51 0854.38
2009/04/23 14:28:01.8    -663   -337   -206    744    773 243.0 -15.5  34212  290.45 0854.38
2009/04/23 14:28:01.9    -532   -349   -180    637    663 236.7 -15.8  34238  290.88 0854.38
2009/04/23 14:28:02.0    -584   -361   -244    687    729 238.3 -24.7  34202  290.27 0854.38
2009/04/23 14:28:02.1    -416   -278    -64    501    506 236.3  -7.3  34220  290.59 0854.38
2009/04/23 14:28:02.2    -129   -436   -152    455    479 196.5 -23.6  34224  290.66 0854.38
2009/04/23 14:28:02.3     -67   -304   -215    312    378 192.5 -42.2  34184  289.98 0854.38
2009/04/23 14:28:02.4      10   -360   -201    361    413 178.3 -35.9  34202  290.30 0854.38
2009/04/23 14:28:02.5    -164   -363   -214    399    452 204.4 -34.9  34226  290.70 0854.38
2009/04/23 14:28:02.6    -267   -236     21    357    358 228.4   3.5  34232  290.81 0854.38
2009/04/23 14:28:02.7    -189   -397    221    440    492 205.5  28.7  34218  290.57 0854.38
2009/04/23 14:28:02.8    -316   -471    -87    568    575 213.8  -8.7  34224  290.66 0854.38
2009/04/23 14:28:02.9    -175   -553      8    581    582 197.6   0.8  34234  290.83 0854.38
2009/04/23 14:28:03.0    -261   -685     83    734    739 200.9   6.5  34228  290.72 0854.38
2009/04/23 14:28:03.1    -386   -620    -31    731    732 211.9  -2.5  34218  290.57 0854.38
2009/04/23 14:28:03.2    -343   -707    -30    786    787 205.9  -2.2  34198  290.20 0854.38
2009/04/23 14:28:03.3    -510   -555   -264    755    801 222.6 -19.3  34172  289.78 0854.38
2009/04/23 14:28:03.4    -579   -577   -350    818    889 225.1 -29.0  34190  290.09 0854.38
2009/04/23 14:28:03.5    -491   -595   -315    772    833 219.5 -27.9  34186  290.01 0854.38
2009/04/23 14:28:03.6    -559   -553   -354    787    862 225.4 -30.2  34184  289.97 0854.38
2009/04/23 14:28:03.7    -393   -537   -446    666    801 216.2 -41.4  34190  290.07 0854.38
2009/04/23 14:28:03.8    -486   -343   -233    595    638 234.8 -26.9  34188  290.06 0854.38
2009/04/23 14:28:03.9    -541   -274   -307    607    680 243.1 -33.3  34200  290.26 0854.34
2009/04/23 14:28:04.0    -329   -128   -269    354    444 248.7 -45.5  34218  290.56 0854.34
2009/04/23 14:28:04.1    -246   -332   -185    414    453 216.5 -30.1  34222  290.61 0854.34
2009/04/23 14:28:04.2     -13   -334    -86    335    347 182.2 -14.5  34238  290.89 0854.34
2009/04/23 14:28:04.3     -39   -226     12    230    231 189.8   3.1  34232  290.79 0854.34
2009/04/23 14:28:04.4    -103   -224     18    247    248 204.7   4.4  34230  290.75 0854.34
2009/04/23 14:28:04.5     -71   -486    133    492    510 188.4  15.2  34216  290.51 0854.34
2009/04/23 14:28:04.6     -34   -450    164    452    480 184.4  20.8  34222  290.61 0854.34
2009/04/23 14:28:04.7     -89   -476    -16    485    486 190.6  -1.9  34218  290.56 0854.34
2009/04/23 14:28:04.8       0   -432    106    433    446 180.1  13.8  34226  290.70 0854.34
2009/04/23 14:28:04.9      68   -546    118    551    564 172.9  12.2  34222  290.62 0854.34
2009/04/23 14:28:05.0     138   -593     45    609    611 166.9   4.2  34222  290.61 0854.34
2009/04/23 14:28:05.1     118   -580      5    593    594 168.4   0.5  34220  290.59 0854.34
2009/04/23 14:28:05.2     381   -492    126    623    636 142.3  11.4  34214  290.50 0854.34
2009/04/23 14:28:05.3     296   -390    138    490    510 142.8  15.8  34204  290.32 0854.34
2009/04/23 14:28:05.4     311   -419    218    523    566 143.4  24.1  34214  290.48 0854.34
2009/04/23 14:28:05.5     234   -556    285    604    667 157.2  27.1  34210  290.42 0854.34
2009/04/23 14:28:05.6     296   -450     81    539    546 146.6   8.6  34216  290.52 0854.34
2009/04/23 14:28:05.7     355   -457     17    579    580 142.2   1.7  34204  290.31 0854.34
2009/04/23 14:28:05.8     270   -561    212    623    659 154.2  18.8  34202  290.28 0854.34
2009/04/23 14:28:05.9     330   -432    127    544    559 142.6  13.2  34212  290.45 0854.32
2009/04/23 14:28:06.0     309   -394    131    502    519 141.9  14.7  34208  290.37 0854.32
2009/04/23 14:28:06.1     316   -541    -20    627    628 149.7  -1.9  34198  290.23 0854.32
2009/04/23 14:28:06.2     334   -635    -12    718    719 152.3  -1.0  34192  290.13 0854.32
2009/04/23 14:28:06.3     438   -447     30    627    628 135.6   2.8  34196  290.18 0854.32
2009/04/23 14:28:06.4     261   -412     73    488    494 147.6   8.6  34188  290.05 0854.32
2009/04/23 14:28:06.5     187   -331     74    381    389 150.6  11.0  34194  290.16 0854.32
2009/04/23 14:28:06.6     131   -276    -35    306    309 154.6  -6.6  34196  290.17 0854.32
2009/04/23 14:28:06.7     123   -173    -98    213    234 144.6 -30.6  34198  290.23 0854.32
2009/04/23 14:28:06.8      74   -233   -151    245    287 162.4 -39.2  34198  290.20 0854.32
2009/04/23 14:28:06.9     103   -302    -93    320    333 161.1 -20.9  34202  290.30 0854.32
2009/04/23 14:28:07.0     273   -215    -96    348    362 128.3 -15.5  34228  290.74 0854.32
2009/04/23 14:28:07.1     -86   -165     19    187    189 207.6   6.1  34214  290.50 0854.32
2009/04/23 14:28:07.2    -174   -396   -151    433    459 203.7 -19.3  34210  290.41 0854.32
2009/04/23 14:28:07.3    -349   -646   -197    735    761 208.4 -15.0  34192  290.12 0854.32
2009/04/23 14:28:07.4    -428   -708   -238    828    862 211.1 -16.0  34182  289.95 0854.32
2009/04/23 14:28:07.5    -208   -557   -313    595    672 200.5 -34.4  34184  289.98 0854.32
2009/04/23 14:28:07.6     164   -391   -239    425    487 157.3 -36.3  34180  289.91 0854.32
2009/04/23 14:28:07.7     142    -30   -169    146    223 101.9 -59.0  34198  290.23 0854.32
2009/04/23 14:28:07.8     -90   -273   -129    288    315 198.3 -30.1  34222  290.63 0854.32
2009/04/23 14:28:07.9      19   -359   -102    360    375 176.9 -15.8  34230  290.76 0854.31
2009/04/23 14:28:08.0      88   -366    -62    377    383 166.5  -9.3  34240  290.93 0854.31
2009/04/23 14:28:08.1      64   -430    -46    435    438 171.5  -6.1  34254  291.18 0854.31
2009/04/23 14:28:08.2      50   -536     73    539    544 174.6   7.8  34240  290.94 0854.31
2009/04/23 14:28:08.3      -6   -426    116    427    443 180.9  15.3  34240  290.94 0854.31
2009/04/23 14:28:08.4    -135   -568    176    584    610 193.4  16.8  34232  290.81 0854.31
2009/04/23 14:28:08.5     -53   -624    247    627    673 184.9  22.7  34228  290.72 0854.31
2009/04/23 14:28:08.6    -113   -657     77    667    672 189.8   6.6  34216  290.53 0854.31
2009/04/23 14:28:08.7     116   -782    169    791    810 171.5  12.1  34210  290.42 0854.31
2009/04/23 14:28:08.8     161   -845    308    861    914 169.2  20.6  34198  290.20 0854.31
2009/04/23 14:28:08.9     474  -1089     97   1188   1193 156.5   4.7  34206  290.34 0854.31
2009/04/23 14:28:09.0     443   -999    186   1093   1109 156.1   9.7  34206  290.35 0854.31
2009/04/23 14:28:09.1     412   -824    262    922    959 153.4  15.9  34200  290.24 0854.31
2009/04/23 14:28:09.2     348   -797    363    871    943 156.4  24.1  34208  290.38 0854.31
2009/04/23 14:28:09.3     305   -676    175    742    763 155.7  13.3  34200  290.24 0854.31
2009/04/23 14:28:09.4      19   -813    285    814    863 178.6  19.3  34198  290.21 0854.31
2009/04/23 14:28:09.5      69   -742     58    746    749 174.7   4.5  34196  290.18 0854.31
2009/04/23 14:28:09.6     219   -344      5    408    409 147.5   0.7  34204  290.33 0854.31
2009/04/23 14:28:09.7      53   -453     59    457    461 173.3   7.4  34206  290.36 0854.31
2009/04/23 14:28:09.8     183   -405    109    445    459 155.7  13.8  34200  290.26 0854.31
2009/04/23 14:28:09.9      99   -477    105    488    500 168.2  12.2  34208  290.40 0854.40
2009/04/23 14:28:10.0      86   -554    152    561    582 171.1  15.2  34212  290.47 0854.40
2009/04/23 14:28:10.1     -20   -573     -2    574    575 182.0  -0.3  34210  290.42 0854.40
2009/04/23 14:28:10.2     -37   -606     34    608    609 183.5   3.3  34208  290.37 0854.40
2009/04/23 14:28:10.3     110   -381    130    397    418 163.9  18.2  34210  290.43 0854.40
2009/04/23 14:28:10.4     156   -383     54    414    418 157.8   7.5  34210  290.43 0854.40
2009/04/23 14:28:10.5      23   -682     45    683    685 178.0   3.8  34218  290.55 0854.40
2009/04/23 14:28:10.6      27   -670     32    671    672 177.7   2.8  34222  290.63 0854.40
2009/04/23 14:28:10.7     224   -675    -19    712    713 161.6  -1.6  34224  290.66 0854.40
2009/04/23 14:28:10.8     179   -590    -51    617    620 163.1  -4.8  34226  290.69 0854.40
2009/04/23 14:28:10.9     143   -479      3    501    502 163.3   0.4  34226  290.68 0854.40
2009/04/23 14:28:11.0     208   -563    -12    601    602 159.7  -1.2  34226  290.68 0854.40
2009/04/23 14:28:11.1     251   -532     -3    589    590 154.7  -0.4  34222  290.61 0854.40
2009/04/23 14:28:11.2     307   -454    188    549    581 145.9  18.9  34220  290.59 0854.40
2009/04/23 14:28:11.3     357   -494    203    610    644 144.1  18.5  34222  290.64 0854.40
2009/04/23 14:28:11.4     292   -514    380    592    703 150.4  35.7  34196  290.17 0854.40
2009/04/23 14:28:11.5     196   -594    288    626    689 161.7  26.5  34216  290.53 0854.40
2009/04/23 14:28:11.6     201   -579    222    614    652 160.8  20.7  34230  290.77 0854.40
2009/04/23 14:28:11.7     240   -620    288    666    725 158.8  24.9  34200  290.25 0854.40
2009/04/23 14:28:11.8     207   -434    432    481    646 154.5  46.5  34220  290.58 0854.40
2009/04/23 14:28:11.9     314   -258    267    407    486 129.5  36.3  34230  290.77 0854.38
2009/04/23 14:28:12.0     195   -366    121    415    433 151.9  16.3  34224  290.65 0854.38
2009/04/23 14:28:12.1     336   -363    140    495    515 137.2  15.8  34206  290.35 0854.38
2009/04/23 14:28:12.2     333   -132    255    359    440 111.6  39.0  34210  290.41 0854.38
2009/04/23 14:28:12.3     144   -126    199    192    276 131.3  51.2  34214  290.48 0854.38
2009/04/23 14:28:12.4      54   -432    306    436    532 172.8  38.6  34208  290.39 0854.38
2009/04/23 14:28:12.5      48   -486    302    489    574 174.3  34.6  34212  290.45 0854.38
2009/04/23 14:28:12.6     -25   -553    447    554    711 182.6  43.0  34208  290.39 0854.38
2009/04/23 14:28:12.7     241   -483    321    540    628 153.5  33.5  34212  290.44 0854.38
2009/04/23 14:28:12.8     238   -100    208    259    332 112.8  42.9  34216  290.53 0854.38
2009/04/23 14:28:12.9       0   -358    133    359    382 180.1  21.3  34212  290.45 0854.38
2009/04/23 14:28:13.0    -152    -71     26    169    172 244.8   9.0  34214  290.48 0854.38
2009/04/23 14:28:13.1      56    155    125    165    207  20.0  41.2  34214  290.50 0854.38
2009/04/23 14:28:13.2       0    287     84    288    301   0.0  16.3  34220  290.58 0854.38
2009/04/23 14:28:13.3     120    187    -66    223    233  32.6 -16.6  34212  290.47 0854.38
2009/04/23 14:28:13.4     110    262    -90    285    298  22.7 -22.8  34212  290.46 0854.38
2009/04/23 14:28:13.5     215     -6    -43    216    221  91.7 -11.3  34212  290.47 0854.38
2009/04/23 14:28:13.6      80     70     77    107    131  48.7  39.7  34220  290.60 0854.38
2009/04/23 14:28:13.7     -11    155    -32    156    160 355.6 -11.9  34216  290.53 0854.38
2009/04/23 14:28:13.8     -15    177    -57    178    186 355.1 -22.8  34218  290.55 0854.38
2009/04/23 14:28:13.9      17     26    -15     32     35  32.6 -31.6  34226  290.70 0854.34
2009/04/23 14:28:14.0     -39     -8      0     40     41 257.6  -1.3  34228  290.72 0854.34
2009/04/23 14:28:14.1      58     22     12     63     65  69.2  11.1  34224  290.67 0854.34
2009/04/23 14:28:14.2      65     47    -45     81     92  54.0 -35.8  34230  290.75 0854.34
2009/04/23 14:28:14.3       9    -78     20     79     82 172.9  14.3  34236  290.86 0854.34
2009/04/23 14:28:14.4     -55   -249    -18    256    257 192.5  -4.1  34222  290.63 0854.34
2009/04/23 14:28:14.5     136   -247     39    282    285 151.1   8.0  34220  290.59 0854.34
2009/04/23 14:28:14.6      91   -103   -116    138    180 138.5 -48.7  34222  290.62 0854.34
2009/04/23 14:28:14.7      62   -180    -78    191    206 160.8 -27.8  34222  290.64 0854.34
2009/04/23 14:28:14.8    -108   -307   -115    326    346 199.4 -19.5  34220  290.59 0854.34
2009/04/23 14:28:14.9    -231   -340    -13    412    413 214.2  -1.9  34224  290.65 0854.34
2009/04/23 14:28:15.1    -120   -321    155    343    376 200.6  25.9  34212  290.47 0854.34
2009/04/23 14:28:15.2    -170   -569    257    595    648 196.7  24.9  34214  290.48 0854.34
2009/04/23 14:28:15.3    -161   -529    215    554    594 196.9  22.3  34210  290.42 0854.34
2009/04/23 14:28:15.4    -284   -477     65    556    560 210.8   6.7  34214  290.48 0854.34
2009/04/23 14:28:15.5    -286   -398     52    491    494 215.7   6.1  34216  290.51 0854.34
2009/04/23 14:28:15.6    -179   -409     23    447    448 203.6   3.0  34212  290.44 0854.34
2009/04/23 14:28:15.7    -129   -400    164    421    451 197.9  22.5  34214  290.50 0854.34
2009/04/23 14:28:15.8    -185   -370     49    414    418 206.6   6.9  34214  290.48 0854.34
2009/04/23 14:28:15.9    -424   -266    -47    501    504 237.9  -5.4  34212  290.44 0854.34
2009/04/23 14:28:16.0    -537   -284   -131    608    623 242.1 -12.2  34208  290.38 0854.36
2009/04/23 14:28:16.1    -375   -359   -126    520    536 226.2 -13.7  34204  290.31 0854.36
2009/04/23 14:28:16.2    -428   -269   -144    506    527 237.9 -15.9  34198  290.21 0854.36
2009/04/23 14:28:16.3    -344   -163   -191    381    426 244.6 -33.0  34208  290.39 0854.36
2009/04/23 14:28:16.4    -257   -272     76    375    383 223.3  11.6  34218  290.54 0854.36
2009/04/23 14:28:16.5    -426   -252   -117    496    510 239.4 -13.3  34218  290.54 0854.36
2009/04/23 14:28:16.6    -338   -245   -158    418    446 234.0 -26.1  34206  290.36 0854.36
2009/04/23 14:28:16.7    -222   -161   -190    275    334 234.0 -42.7  34208  290.37 0854.36
2009/04/23 14:28:16.8    -341   -203   -251    397    469 239.3 -39.7  34216  290.53 0854.36
2009/04/23 14:28:16.9    -279   -214   -217    352    413 232.5 -38.9  34214  290.50 0854.36
2009/04/23 14:28:17.0    -236   -270   -179    359    401 221.1 -32.8  34212  290.47 0854.36
2009/04/23 14:28:17.1    -243   -201   -143    316    346 230.5 -30.4  34222  290.64 0854.36
2009/04/23 14:28:17.2    -197   -251   -107    320    337 218.1 -23.6  34228  290.72 0854.36
2009/04/23 14:28:17.3    -340    -96   -127    354    376 254.1 -25.0  34220  290.60 0854.36
2009/04/23 14:28:17.4    -239    -73     -2    251    252 252.9  -0.5  34214  290.49 0854.36
2009/04/23 14:28:17.5    -155     68    111    170    203 293.7  36.0  34224  290.65 0854.36
2009/04/23 14:28:17.6    -279   -126     62    307    314 245.6  11.6  34230  290.76 0854.36
2009/04/23 14:28:17.7    -450   -143    -28    473    474 252.3  -3.5  34206  290.34 0854.36
2009/04/23 14:28:17.8    -297   -201   -103    359    374 235.9 -16.0  34204  290.33 0854.36
2009/04/23 14:28:17.9    -276   -196   -194    339    390 234.5 -36.8  34208  290.38 0854.36
2009/04/23 14:28:18.0    -346   -142   -182    375    416 247.7 -32.2  34208  290.38 0854.41
2009/04/23 14:28:18.1    -364   -147   -157    393    423 248.0 -27.4  34212  290.44 0854.41
2009/04/23 14:28:18.2    -419   -105   -131    433    453 255.8 -16.9  34208  290.39 0854.41
2009/04/23 14:28:18.3    -487    -87    -88    495    503 259.8 -10.1  34212  290.47 0854.41
2009/04/23 14:28:18.4    -427   -152    -81    454    462 250.4 -10.1  34208  290.39 0854.41
2009/04/23 14:28:18.5    -441   -133    -79    461    468 253.2  -9.8  34222  290.61 0854.41
2009/04/23 14:28:18.6    -359     13    -90    360    372 272.1 -14.1  34224  290.66 0854.41
2009/04/23 14:28:18.7    -442    -18   -177    443    477 267.6 -27.4  34208  290.40 0854.41
2009/04/23 14:28:18.8    -482    -15   -193    483    520 268.1 -27.4  34208  290.39 0854.41
2009/04/23 14:28:18.9    -427     22   -206    428    474 273.0 -32.1  34210  290.43 0854.41
2009/04/23 14:28:19.0    -419     94   -158    430    458 282.7 -25.4  34210  290.43 0854.41
2009/04/23 14:28:19.1    -406    125   -138    426    449 287.2 -18.0  34216  290.51 0854.41
2009/04/23 14:28:19.2    -271    128   -155    300    337 295.3 -33.9  34216  290.51 0854.41
2009/04/23 14:28:19.3    -222     61   -135    231    267 285.5 -37.5  34218  290.56 0854.41
2009/04/23 14:28:19.4    -218     65   -100    228    248 286.6 -29.6  34216  290.53 0854.41
2009/04/23 14:28:19.5    -182     82   -105    200    225 294.4 -33.9  34208  290.40 0854.41
2009/04/23 14:28:19.6    -210     36   -136    214    253 279.7 -39.9  34210  290.42 0854.41
2009/04/23 14:28:19.7    -231     28    -64    233    242 277.1 -15.4  34210  290.41 0854.41
2009/04/23 14:28:19.8    -184    -16    -56    185    194 264.8 -16.8  34208  290.40 0854.41
2009/04/23 14:28:19.9    -100    -99    -43    141    147 225.2 -21.8  34212  290.47 0854.41
2009/04/23 14:28:20.0    -159   -104     -4    191    192 236.7  -1.3  34224  290.67 0854.45
2009/04/23 14:28:20.1    -220    -44      9    225    226 258.6   2.5  34238  290.91 0854.45
2009/04/23 14:28:20.2    -223    -98    -33    244    247 246.3  -7.7  34248  291.05 0854.45
2009/04/23 14:28:20.3    -119   -155      0    196    197 217.4   0.0  34246  291.04 0854.45
2009/04/23 14:28:20.4    -122   -266   -101    293    311 204.7 -19.1  34230  290.76 0854.45
2009/04/23 14:28:20.5     -93   -232    -75    251    261 201.8 -21.7  34228  290.71 0854.45
2009/04/23 14:28:20.6    -100   -211    -80    234    248 205.4 -18.9  34232  290.78 0854.45
2009/04/23 14:28:20.7    -159   -189    -75    248    259 220.1 -21.7  34236  290.87 0854.45
2009/04/23 14:28:20.8    -171   -181    -61    250    258 223.3 -13.9  34240  290.92 0854.45
2009/04/23 14:28:20.9    -126   -152    -32    198    201 219.7  -9.3  34236  290.87 0854.45
2009/04/23 14:28:21.0     -72   -105     -2    128    129 214.3  -1.2  34234  290.82 0854.45
2009/04/23 14:28:21.1    -156    -73    -54    173    181 244.9 -22.5  34222  290.62 0854.45
2009/04/23 14:28:21.2     -71   -106    -50    128    137 213.8 -27.4  34222  290.62 0854.45
2009/04/23 14:28:21.3     -16    -96    -77     98    124 189.8 -46.1  34224  290.65 0854.45
2009/04/23 14:28:21.4     -18    -49    -63     53     82 200.0 -59.8  34220  290.60 0854.45
2009/04/23 14:28:21.5    -110     16      5    112    113 278.4   2.8  34216  290.53 0854.45
2009/04/23 14:28:21.6     -91      0     35     92     98 270.4  22.0  34222  290.64 0854.45
2009/04/23 14:28:21.7     -10    -28     49     30     57 200.0  64.7  34228  290.72 0854.45
2009/04/23 14:28:21.8      -1     -5     29      6     29 198.5  89.0  34236  290.86 0854.45
2009/04/23 14:28:21.9      40    -33     18     53     57 129.5  19.2  34244  291.01 0854.45
2009/04/23 14:28:22.0      -2    -21     75     22     78 186.2  82.8  34242  290.96 0854.44
2009/04/23 14:28:22.1      17     -4     25     18     30 105.1  60.5  34236  290.86 0854.44
2009/04/23 14:28:22.2      13    -21     -7     26     27 147.5 -15.5  34234  290.84 0854.44
2009/04/23 14:28:22.3     -75   -182     55    197    205 202.5  15.8  34232  290.81 0854.44
2009/04/23 14:28:22.4     -24   -241      8    243    244 185.8   2.1  34226  290.68 0854.44
2009/04/23 14:28:22.5      -7   -217     -4    218    219 182.0  -1.1  34218  290.57 0854.44
2009/04/23 14:28:22.6       4   -232      4    233    234 179.0   1.0  34226  290.68 0854.44
2009/04/23 14:28:22.7      29   -286     29    288    290 174.0   5.9  34218  290.56 0854.44
2009/04/23 14:28:22.8      72   -283     25    293    295 165.7   4.9  34220  290.59 0854.44
2009/04/23 14:28:22.9     -45   -239    101    244    264 190.7  23.6  34228  290.73 0854.44
2009/04/23 14:28:23.0      53   -284     68    290    298 169.3  13.2  34220  290.58 0854.44
2009/04/23 14:28:23.1      14   -299     68    300    308 177.3  12.9  34214  290.48 0854.44
2009/04/23 14:28:23.2      24   -218     59    220    229 173.5  15.2  34220  290.58 0854.44
2009/04/23 14:28:23.3      51   -118     52    129    139 156.4  23.0  34220  290.58 0854.44
2009/04/23 14:28:23.4      38   -206     92    210    229 169.5  25.2  34222  290.64 0854.44
2009/04/23 14:28:23.5      52   -175     65    183    195 163.3  19.6  34230  290.77 0854.44
2009/04/23 14:28:23.6     -79   -215    -63    230    239 200.3 -15.5  34234  290.82 0854.44
2009/04/23 14:28:23.7     -46    -72    -41     86     95 213.0 -31.6  34242  290.96 0854.44
2009/04/23 14:28:23.8    -133   -105    -44    170    176 231.8 -14.5  34242  290.98 0854.44
2009/04/23 14:28:23.9    -111    -74    -46    134    141 236.3 -23.3  34246  291.04 0854.44
2009/04/23 14:28:24.0    -152    -49    -89    160    183 251.8 -35.8  34238  290.91 0854.33
2009/04/23 14:28:24.1    -193   -122   -113    229    255 237.6 -32.6  34254  291.17 0854.33
2009/04/23 14:28:24.2    -154    -51   -135    163    211 251.4 -48.2  34250  291.11 0854.33
2009/04/23 14:28:24.3    -158      1   -121    159    199 270.4 -45.8  34240  290.92 0854.33
2009/04/23 14:28:24.4     -79     -1   -118     80    142 269.2 -67.1  34256  291.21 0854.33
2009/04/23 14:28:24.5     -21     32    -63     39     74 325.7 -69.1  34256  291.20 0854.33
2009/04/23 14:28:24.6     -71     22    -12     75     77 287.7  -9.3  34262  291.32 0854.33
2009/04/23 14:28:24.7    -127      0    -16    128    130 270.0  -7.2  34262  291.30 0854.33
2009/04/23 14:28:24.8    -200     32    -61    203    211 279.2 -21.7  34292  291.81 0854.33
2009/04/23 14:28:24.9    -176    -53    -60    184    194 253.2 -18.1  34286  291.71 0854.33
2009/04/23 14:28:25.0    -202      0    -59    203    212 269.9 -16.4  34282  291.66 0854.25
2009/04/23 14:28:25.1    -144     63    -92    158    182 293.6 -37.5  34292  291.81 0854.25
2009/04/23 14:28:25.2    -288    175    -56    338    343 301.3  -9.5  34274  291.51 0854.25
2009/04/23 14:28:25.3    -254    122   -118    283    306 295.8 -28.5  34244  291.00 0854.25
2009/04/23 14:28:25.4    -132    -22   -107    134    171 260.4 -47.4  34250  291.11 0854.25
2009/04/23 14:28:25.5    -142     93    -50    170    178 303.3 -16.4  34256  291.20 0854.25
2009/04/23 14:28:25.6    -133    115    -35    176    180 310.9 -11.5  34238  290.89 0854.25
2009/04/23 14:28:25.7     -55     18    -69     59     90 288.6 -59.8  34250  291.09 0854.25
2009/04/23 14:28:25.8     -15    -54    -19     57     60 196.0 -23.6  34248  291.08 0854.25
2009/04/23 14:28:25.9     -77    -24     58     81     99 252.3  39.5  34260  291.28 0854.25
2009/04/23 14:28:26.0    -102    -13     37    103    109 262.5  20.0  34286  291.72 0854.25
2009/04/23 14:28:26.1    -270   -164    -57    316    322 238.7 -10.4  34234  290.83 0854.25
2009/04/23 14:28:26.2    -292   -161    -66    334    341 241.1 -11.2  34222  290.62 0854.25
2009/04/23 14:28:26.3    -279   -159   -108    322    340 240.2 -18.7  34220  290.60 0854.25
2009/04/23 14:28:26.4    -317   -183   -122    367    386 240.0 -23.8  34220  290.60 0854.25
2009/04/23 14:28:26.5    -276   -175   -201    328    384 237.6 -38.8  34218  290.57 0854.25
2009/04/23 14:28:26.6    -315    -68   -261    323    415 257.8 -47.5  34230  290.76 0854.25
2009/04/23 14:28:26.7    -293    -77   -156    303    340 255.2 -33.8  34256  291.20 0854.25
2009/04/23 14:28:26.8    -225   -106    -69    249    258 244.8 -20.2  34280  291.60 0854.25
2009/04/23 14:28:26.9    -158   -248    -20    295    296 212.5  -3.9  34254  291.17 0854.25
2009/04/23 14:28:27.0    -277   -202     16    343    344 233.9   2.8  34250  291.11 0854.25
2009/04/23 14:28:27.1    -437   -251   -119    505    519 240.1 -13.3  34298  291.93 0854.25
2009/04/23 14:28:27.2    -254   -193    -47    320    324 232.7  -8.4  34270  291.43 0854.25
2009/04/23 14:28:27.3    -296   -238    106    381    396 231.2  15.6  34256  291.20 0854.25
2009/04/23 14:28:27.4    -288   -280     25    402    403 225.8   3.6  34252  291.14 0854.25
2009/04/23 14:28:27.5    -205   -259    115    331    351 218.4  19.3  34242  290.98 0854.25
2009/04/23 14:28:27.6    -256   -217    117    336    357 229.7  19.3  34244  291.00 0854.25
2009/04/23 14:28:27.7    -230   -234    121    329    350 224.6  21.0  34248  291.05 0854.25
2009/04/23 14:28:27.8    -141   -234    161    274    317 211.2  33.1  34242  290.95 0854.25
2009/04/23 14:28:27.9    -128   -276    123    305    328 204.9  23.2  34240  290.93 0854.25
2009/04/23 14:28:28.0    -140   -191    167    238    290 216.3  38.4  34238  290.88 0854.25
2009/04/23 14:28:28.1    -285   -139    168    318    359 244.0  30.2  34282  291.66 0854.25
2009/04/23 14:28:28.2    -295   -132    144    324    354 245.8  25.6  34278  291.56 0854.25
2009/04/23 14:28:28.3    -293    -54    -66    299    307 259.4 -12.5  34286  291.70 0854.25
2009/04/23 14:28:28.5    -185   -171    -75    253    263 227.3 -21.7  34292  291.82 0854.25
2009/04/23 14:28:28.5    -252   -160    -45    299    303 237.6  -8.6  34296  291.87 0854.25
2009/04/23 14:28:28.6    -137   -319    -31    348    350 203.3  -5.2  34276  291.54 0854.25
2009/04/23 14:28:28.7    -101   -410    -13    423    424 193.9  -1.8  34250  291.11 0854.25
2009/04/23 14:28:28.8     -29   -313     47    315    319 185.3   8.5  34240  290.92 0854.25
2009/04/23 14:28:28.9      -3   -228     42    229    233 180.9  10.6  34242  290.96 0854.25
2009/04/23 14:28:29.0     -27   -166     65    169    181 189.3  22.3  34246  291.04 0854.29
2009/04/23 14:28:29.1     -93   -172     82    196    212 208.5  24.1  34242  290.98 0854.29
2009/04/23 14:28:29.2    -125   -192     83    230    244 213.2  20.4  34242  290.95 0854.29
2009/04/23 14:28:29.3    -248   -155    -11    293    294 238.0  -2.2  34244  291.00 0854.29
2009/04/23 14:28:29.4    -187   -167     35    252    255 228.2   8.0  34242  290.95 0854.29
2009/04/23 14:28:29.5    -241   -258    -25    354    355 223.1  -4.1  34242  290.96 0854.29
2009/04/23 14:28:29.6    -145   -307     47    340    344 205.4   7.9  34240  290.94 0854.29
2009/04/23 14:28:29.8    -302   -249     99    392    405 230.5  14.2  34252  291.15 0854.29
2009/04/23 14:28:29.8    -159   -424     97    453    464 200.6  12.2  34250  291.09 0854.29
2009/04/23 14:28:29.9    -155   -469     84    494    502 198.3   9.7  34256  291.20 0854.29
2009/04/23 14:28:30.0     -93   -546    114    554    566 189.7  11.7  34250  291.11 0854.29
2009/04/23 14:28:30.1     -65   -524    102    529    539 187.1  11.0  34248  291.06 0854.29
2009/04/23 14:28:30.2     -78   -580    -22    586    587 187.7  -2.2  34248  291.07 0854.29
2009/04/23 14:28:30.3      16   -530    -34    531    533 178.2  -3.7  34240  290.92 0854.29
2009/04/23 14:28:30.4      88   -591    -68    598    602 171.5  -6.6  34240  290.93 0854.29
2009/04/23 14:28:30.5     112   -554    -31    566    567 168.6  -3.2  34228  290.72 0854.29
2009/04/23 14:28:30.6     263   -589     53    646    649 155.9   4.7  34222  290.64 0854.29
2009/04/23 14:28:30.7     166   -546     81    571    577 163.1   8.1  34230  290.75 0854.29
2009/04/23 14:28:30.8     126   -492     38    508    510 165.6   4.4  34234  290.83 0854.29
2009/04/23 14:28:30.9     100   -540    160    550    573 169.5  16.3  34226  290.69 0854.29
2009/04/23 14:28:31.0     163   -467    220    495    541 160.7  25.6  34242  290.96 0854.31
2009/04/23 14:28:31.1     209   -425    220    474    522 153.7  26.7  34248  291.08 0854.31
2009/04/23 14:28:31.2     132   -379    257    402    477 160.7  35.6  34234  290.84 0854.31
2009/04/23 14:28:31.3     331   -421    186    536    568 141.8  19.2  34232  290.80 0854.31
2009/04/23 14:28:31.4     164   -441     38    471    473 159.5   4.7  34234  290.83 0854.31
2009/04/23 14:28:31.5     181   -441     23    477    478 157.6   2.8  34232  290.78 0854.31
2009/04/23 14:28:31.6     178   -455    -19    489    490 158.6  -2.3  34230  290.76 0854.31
2009/04/23 14:28:31.7     174   -568     41    595    597 163.0   4.0  34242  290.95 0854.31
2009/04/23 14:28:31.8     175   -618     19    643    644 164.2   1.7  34238  290.88 0854.31
2009/04/23 14:28:31.9     162   -599     51    621    624 164.9   4.7  34232  290.81 0854.31
2009/04/23 14:28:32.0     192   -541     98    575    584 160.4   9.7  34232  290.80 0854.31
2009/04/23 14:28:32.1     108   -509    136    521    539 168.0  14.7  34252  291.13 0854.31
2009/04/23 14:28:32.2      70   -515     90    520    528 172.2   9.9  34236  290.87 0854.31
2009/04/23 14:28:32.3     125   -630    168    643    665 168.8  14.7  34212  290.44 0854.31
2009/04/23 14:28:32.4     117   -686    154    696    713 170.3  12.5  34210  290.42 0854.31
2009/04/23 14:28:32.5      23   -612    179    613    639 177.8  16.3  34208  290.40 0854.31
2009/04/23 14:28:32.6     -14   -511    311    512    599 181.6  34.1  34210  290.42 0854.31
2009/04/23 14:28:32.7      26   -426    264    427    502 176.4  34.8  34218  290.57 0854.31
2009/04/23 14:28:32.8     -24   -383    167    384    418 183.6  25.1  34208  290.39 0854.31
2009/04/23 14:28:32.9    -108   -398    196    413    457 195.3  27.2  34222  290.61 0854.31
2009/04/23 14:28:33.0    -131   -421    137    441    462 197.3  17.3  34214  290.50 0854.35
2009/04/23 14:28:33.1     -64   -375     94    381    393 189.8  13.9  34214  290.50 0854.35
2009/04/23 14:28:33.2      -4   -265     57    266    273 181.0  12.2  34216  290.51 0854.35
2009/04/23 14:28:33.3      27   -159     16    162    163 170.2   5.7  34212  290.47 0854.35
2009/04/23 14:28:33.4      22    -59     36     64     73 159.1  31.4  34220  290.60 0854.35
2009/04/23 14:28:33.5     -23    -18    107     30    111 232.2  84.8  34236  290.87 0854.35
2009/04/23 14:28:33.6     -84     13     79     85    116 278.8  48.0  34226  290.69 0854.35
2009/04/23 14:28:33.7    -183   -182     74    259    270 225.1  16.0  34224  290.65 0854.35
2009/04/23 14:28:33.8    -134   -204     84    245    260 213.2  18.9  34226  290.68 0854.35
2009/04/23 14:28:33.9    -202   -168     12    264    265 230.2   2.8  34228  290.71 0854.35
2009/04/23 14:28:34.0    -118    -98    123    154    197 230.4  42.7  34234  290.84 0854.35
2009/04/23 14:28:34.1     -70    -20    -23     73     77 254.1 -17.6  34224  290.65 0854.35
2009/04/23 14:28:34.2    -111     17    -93    113    146 278.8 -48.1  34224  290.67 0854.35
2009/04/23 14:28:34.3     -56     73   -112     93    145 322.6 -60.7  34230  290.75 0854.35
2009/04/23 14:28:34.4     -44    130   -251    138    286 341.3 -73.3  34266  291.36 0854.35
2009/04/23 14:28:34.5     128     80   -232    151    276  58.0 -68.3  34266  291.36 0854.35
2009/04/23 14:28:34.6     -45    -78   -229     91    246 210.3 -81.5  34242  290.98 0854.35
2009/04/23 14:28:34.7    -241    -71   -204    252    324 253.6 -47.7  34254  291.16 0854.35
2009/04/23 14:28:34.8    -215   -105   -261    240    354 243.8 -57.1  34258  291.24 0854.35
2009/04/23 14:28:34.9     125     61   -150    140    205  63.8 -56.5  34254  291.16 0854.35
2009/04/23 14:28:35.0     155     98    -52    184    191  57.5 -20.4  34250  291.09 0854.39
2009/04/23 14:28:35.1     -45     95    -78    106    131 334.5 -44.5  34262  291.32 0854.39
2009/04/23 14:28:35.2      69    114      6    134    135  31.2   2.9  34256  291.21 0854.39
2009/04/23 14:28:35.3      88    121     52    151    160  36.1  19.2  34254  291.18 0854.39
2009/04/23 14:28:35.4       3    152    113    153    190   1.4  40.1  34260  291.28 0854.39
2009/04/23 14:28:35.5      -8    151    142    152    208 356.9  48.0  34258  291.25 0854.39
2009/04/23 14:28:35.6      34    224    122    227    257   8.7  30.6  34250  291.10 0854.39
2009/04/23 14:28:35.7      64     30    185     71    198  64.6  78.2  34260  291.26 0854.39
2009/04/23 14:28:35.8       0    -26    182     27    183 180.9  90.0  34272  291.49 0854.39
2009/04/23 14:28:35.9      72     14    159     74    175  78.5  73.2  34264  291.33 0854.39
2009/04/23 14:28:36.0      69     63    163     94    188  47.3  67.5  34268  291.40 0854.39
2009/04/23 14:28:36.1      51     36    203     63    212  54.9  82.0  34276  291.54 0854.39
2009/04/23 14:28:36.2     135     54    115    146    185  68.2  42.2  34260  291.28 0854.39
2009/04/23 14:28:36.3      10    -22    130     25    132 154.6  89.6  34258  291.25 0854.39
2009/04/23 14:28:36.4    -107    -90     89    141    166 230.0  35.5  34264  291.33 0854.39
2009/04/23 14:28:36.5      38      2    127     39    132  85.6  82.3  34256  291.20 0854.39
2009/04/23 14:28:36.6      41    -55    132     69    148 143.0  70.8  34268  291.40 0854.39
2009/04/23 14:28:36.7     113     15    148    115    187  82.1  57.9  34256  291.21 0854.39
2009/04/23 14:28:36.8     211    -21    126    213    247  95.9  33.5  34254  291.17 0854.39
2009/04/23 14:28:36.9     204    -53     50    211    218 104.6  13.5  34244  290.99 0854.39
2009/04/23 14:28:37.0     201    -27    107    203    229  97.9  30.1  34242  290.96 0854.41
2009/04/23 14:28:37.1     282     21    216    283    356  85.6  41.2  34240  290.94 0854.41
2009/04/23 14:28:37.2     158    -32    208    162    263 101.7  58.2  34248  291.07 0854.41
2009/04/23 14:28:37.3     -50   -122    193    132    233 202.3  62.6  34278  291.59 0854.41
2009/04/23 14:28:37.4      17    -52    174     55    182 161.7  81.8  34282  291.66 0854.41
2009/04/23 14:28:37.5       0   -208    271    209    342 179.8  58.5  34286  291.70 0854.41
2009/04/23 14:28:37.6     -68   -347    330    354    483 191.2  47.9  34262  291.31 0854.41
2009/04/23 14:28:37.7     -97   -460    181    471    504 191.9  22.1  34240  290.93 0854.41
2009/04/23 14:28:37.8     -98   -491    151    501    524 191.4  16.8  34234  290.83 0854.41
2009/04/23 14:28:37.9     -98   -484    160    494    520 191.5  17.9  34226  290.68 0854.41
2009/04/23 14:28:38.0    -153   -429    112    456    470 199.7  13.9  34230  290.76 0854.41
2009/04/23 14:28:38.1     -75   -443     88    450    459 189.7  11.1  34226  290.70 0854.41
2009/04/23 14:28:38.2     -58   -290    186    296    349 191.3  35.5  34254  291.18 0854.41
2009/04/23 14:28:38.3     -65   -267    207    275    344 193.8  40.8  34260  291.26 0854.41
2009/04/23 14:28:38.4    -152   -328    316    362    480 205.0  45.6  34274  291.50 0854.41
2009/04/23 14:28:38.5    -119   -340    268    361    449 199.3  40.2  34242  290.95 0854.41
2009/04/23 14:28:38.6    -101   -345    267    360    448 196.3  40.0  34222  290.63 0854.41
2009/04/23 14:28:38.7    -203   -414    167    462    492 206.1  19.9  34236  290.85 0854.41
2009/04/23 14:28:38.8    -241   -427     71    491    497 209.5   8.3  34242  290.98 0854.41
2009/04/23 14:28:38.9    -204   -410    160    459    487 206.5  19.2  34234  290.83 0854.41
2009/04/23 14:28:39.0    -178   -378    207    418    466 205.2  28.2  34236  290.85 0854.41
2009/04/23 14:28:39.1     -91   -413     64    424    429 192.5   8.7  34244  290.99 0854.41
2009/04/23 14:28:39.2      -4   -400     24    401    402 180.7   3.5  34242  290.98 0854.41
2009/04/23 14:28:39.3    -191   -386     48    431    434 206.4   6.5  34264  291.33 0854.41
2009/04/23 14:28:39.4    -203   -413     64    461    466 206.2   8.0  34242  290.95 0854.41
2009/04/23 14:28:39.5    -110   -361    194    378    424 197.0  29.3  34236  290.87 0854.41
2009/04/23 14:28:39.6    -123   -193     99    230    250 212.6  24.9  34236  290.85 0854.41
2009/04/23 14:28:39.7      25   -157    175    160    237 170.7  53.0  34240  290.92 0854.41
2009/04/23 14:28:39.8     -57   -252     91    259    275 192.9  19.4  34236  290.87 0854.41
2009/04/23 14:28:39.9      14   -383     60    384    389 177.9   9.0  34228  290.72 0854.41
2009/04/23 14:28:40.0      35   -385    177    387    425 174.7  26.3  34208  290.39 0854.41
2009/04/23 14:28:40.1      23   -377    196    378    425 176.4  29.5  34210  290.43 0854.41
2009/04/23 14:28:40.2    -110   -307    217    327    392 199.7  36.9  34200  290.25 0854.41
2009/04/23 14:28:40.3    -118   -214    180    245    304 208.9  39.7  34204  290.32 0854.41
2009/04/23 14:28:40.4      26    -59    146     65    159 156.4  74.5  34238  290.89 0854.41
2009/04/23 14:28:40.5     -12     18     69     22     72 325.7  80.7  34246  291.04 0854.41
2009/04/23 14:28:40.6      64   -125     86    141    165 152.9  34.4  34242  290.98 0854.41
2009/04/23 14:28:40.7      78   -126     81    149    169 148.4  30.8  34238  290.89 0854.41
2009/04/23 14:28:40.8      -2   -239     37    240    243 180.7   8.9  34234  290.83 0854.41
2009/04/23 14:28:40.9      56   -103    108    118    159 151.5  47.5  34246  291.04 0854.41
2009/04/23 14:28:41.1     -10   -134    156    135    206 184.5  54.8  34252  291.15 0854.42
2009/04/23 14:28:41.1     -95    -60     98    113    149 237.6  45.4  34258  291.25 0854.42
2009/04/23 14:28:41.2    -123    -89    117    152    191 234.1  41.7  34254  291.18 0854.42
2009/04/23 14:28:41.3    -187    -38     37    191    195 258.5  11.0  34248  291.06 0854.42
2009/04/23 14:28:41.4    -154     67    106    169    199 293.5  35.2  34254  291.16 0854.42
2009/04/23 14:28:41.5     -79    -46    -34     92     98 239.8 -25.9  34248  291.06 0854.42
2009/04/23 14:28:41.6     -90    -67     20    113    115 233.6  10.1  34250  291.11 0854.42
2009/04/23 14:28:41.7    -105     11     80    106    132 276.1  41.6  34262  291.32 0854.42
2009/04/23 14:28:41.8    -148     49     65    156    169 288.4  23.8  34264  291.33 0854.42
2009/04/23 14:28:41.9    -164     92      9    189    190 299.3   2.9  34254  291.18 0854.42
2009/04/23 14:28:42.0    -207    114      9    237    238 298.9   2.3  34264  291.33 0854.42
2009/04/23 14:28:42.1    -186    132    -29    229    231 305.3  -7.3  34282  291.64 0854.42
2009/04/23 14:28:42.2    -227    144     44    269    273 302.4   9.3  34284  291.67 0854.42
2009/04/23 14:28:42.3    -227     29      4    229    230 277.5   1.0  34278  291.59 0854.42
2009/04/23 14:28:42.4    -158     81     -5    178    179 297.1  -1.6  34284  291.67 0854.42
2009/04/23 14:28:42.5    -178     56    -45    187    193 287.5 -13.7  34276  291.54 0854.42
2009/04/23 14:28:42.6    -265    107    -15    286    287 292.0  -3.1  34286  291.70 0854.42
2009/04/23 14:28:42.7    -278     80     85    290    303 286.2  16.3  34300  291.94 0854.42
2009/04/23 14:28:42.9    -224     89     84    242    257 291.7  19.2  34308  292.09 0854.42
2009/04/23 14:28:43.0    -164     73     48    180    187 294.2  15.2  34298  291.91 0854.42
2009/04/23 14:28:43.1    -225     56    -70    232    243 284.1 -17.0  34294  291.85 0854.40
2009/04/23 14:28:43.2    -237     75      9    249    250 287.7   2.1  34296  291.89 0854.40
2009/04/23 14:28:43.3    -184    102     10    211    212 299.1   2.8  34304  292.03 0854.40
2009/04/23 14:28:43.4     -93     77     87    121    149 309.6  39.5  34312  292.17 0854.40
2009/04/23 14:28:43.5    -111     27     33    115    120 283.7  16.3  34308  292.10 0854.40
2009/04/23 14:28:43.6    -140      2     49    141    150 270.9  19.4  34306  292.06 0854.40
2009/04/23 14:28:43.7    -166     -6     21    167    169 267.6   7.5  34296  291.89 0854.40
2009/04/23 14:28:43.8    -131    -26    -27    134    137 258.5 -11.5  34296  291.88 0854.40
2009/04/23 14:28:43.9    -162    -31    -15    166    167 259.0  -5.4  34312  292.15 0854.40
2009/04/23 14:28:44.0     -95    -31     52    101    113 251.8  28.7  34318  292.25 0854.40
2009/04/23 14:28:44.1     -77    -42     30     88     94 241.1  18.9  34316  292.22 0854.40
2009/04/23 14:28:44.2     -72    -77      5    106    107 223.2   2.9  34316  292.23 0854.40
2009/04/23 14:28:44.3     -83    -30    -25     89     93 250.0 -16.0  34318  292.25 0854.40
2009/04/23 14:28:44.4    -176     13   -156    177    235 274.4 -50.3  34232  290.79 0854.40
2009/04/23 14:28:44.5    -119     26   -122    122    172 282.4 -54.5  34206  290.36 0854.40
2009/04/23 14:28:44.6    -134   -244    -54    279    285 208.9 -11.1  34214  290.48 0854.40
2009/04/23 14:28:44.7    -244   -209     65    322    329 229.5  11.4  34234  290.82 0854.40
2009/04/23 14:28:44.8    -273    -95   -104    290    309 250.7 -19.7  34196  290.19 0854.40
2009/04/23 14:28:44.9    -248   -188   -104    312    328 232.9 -23.6  34196  290.19 0854.40
2009/04/23 14:28:45.0    -201   -280    -97    345    359 215.7 -15.7  34212  290.47 0854.40
2009/04/23 14:28:45.1    -128   -215    -55    251    258 210.7 -12.4  34200  290.24 0854.40
2009/04/23 14:28:45.2    -114   -240    -62    266    274 205.5 -13.2  34212  290.46 0854.40
2009/04/23 14:28:45.3       4   -236    -56    237    244 179.0 -13.4  34200  290.26 0854.40
2009/04/23 14:28:45.4      75   -207    -35    221    224 160.0  -9.0  34216  290.53 0854.40
2009/04/23 14:28:45.5      53   -178      3    186    187 163.3   1.2  34220  290.60 0854.40
2009/04/23 14:28:45.6      73   -163     74    179    193 155.7  23.4  34214  290.48 0854.40
2009/04/23 14:28:45.7      79   -198     98    214    235 158.1  26.2  34232  290.81 0854.40
2009/04/23 14:28:45.8      33    -52     14     62     64 147.4  13.2  34286  291.72 0854.40
2009/04/23 14:28:45.9     -18    -16     57     25     62 228.7  75.0  34290  291.77 0854.40
2009/04/23 14:28:46.0     -17     18     49     26     55 316.8  69.8  34280  291.62 0854.40
2009/04/23 14:28:46.1     -62     88     13    108    109 324.8   6.9  34268  291.40 0854.39
2009/04/23 14:28:46.2     -48     68      2     84     85 324.4   1.8  34256  291.20 0854.39
2009/04/23 14:28:46.3     -58     60     29     84     90 315.9  19.4  34258  291.25 0854.39
2009/04/23 14:28:46.4    -180     36     40    184    189 281.4  12.4  34256  291.21 0854.39
2009/04/23 14:28:46.5    -144    -11     65    145    158 265.6  25.9  34260  291.26 0854.39
2009/04/23 14:28:46.6    -175    -22     70    177    190 262.8  22.8  34258  291.25 0854.39
2009/04/23 14:28:46.7    -152      0     49    153    161 269.6  17.9  34258  291.25 0854.39
2009/04/23 14:28:46.8    -118    -85    -50    146    155 234.0 -19.1  34256  291.20 0854.39
2009/04/23 14:28:46.9       2    -46    -82     47     94 176.4 -71.6  34260  291.28 0854.39
2009/04/23 14:28:47.0      23    -59    -30     64     70 158.1 -31.6  34260  291.26 0854.39
2009/04/23 14:28:47.1     118    -40     72    125    144 109.1  32.9  34248  291.08 0854.39
2009/04/23 14:28:47.2     215    123    -58    248    255  60.3 -13.2  34240  290.93 0854.39
2009/04/23 14:28:47.3     125    -19     67    127    143  98.8  30.3  34234  290.84 0854.39
2009/04/23 14:28:47.4     204   -140     72    248    259 124.6  16.3  34242  290.97 0854.39
2009/04/23 14:28:47.5     268    -92     18    284    285 109.0   3.6  34228  290.73 0854.39
2009/04/23 14:28:47.6     253    -52     61    259    267 101.7  13.2  34222  290.63 0854.39
2009/04/23 14:28:47.7     257    -91     83    273    286 109.7  17.1  34222  290.61 0854.39
2009/04/23 14:28:47.8     278    -18    121    279    304  93.9  25.1  34244  291.00 0854.39
2009/04/23 14:28:47.9     239    175    192    297    353  53.8  35.9  34256  291.20 0854.39
2009/04/23 14:28:48.0     182    182     45    258    263  45.1  10.0  34284  291.68 0854.39
2009/04/23 14:28:48.1     148    132     24    199    201  48.2   6.9  34290  291.77 0854.34
2009/04/23 14:28:48.2     122    122    -31    173    176  45.1 -10.3  34286  291.71 0854.34
2009/04/23 14:28:48.3     220     -3    -49    221    227  90.8 -12.6  34264  291.35 0854.34
2009/04/23 14:28:48.4     228     53    127    235    267  76.7  30.8  34266  291.38 0854.34
2009/04/23 14:28:48.5     152    184    -96    239    257  39.6 -27.4  34272  291.46 0854.34
2009/04/23 14:28:48.6     156    -31     58    160    170 101.5  20.4  34254  291.18 0854.34
2009/04/23 14:28:48.7     155    -55    141    165    217 109.5  45.1  34274  291.52 0854.34
2009/04/23 14:28:48.8     406   -107    106    420    434 104.8  14.2  34276  291.53 0854.34
2009/04/23 14:28:48.9     387     85     77    397    405  77.6  11.0  34280  291.61 0854.34
2009/04/23 14:28:49.0     253     78     46    265    270  72.7   9.9  34262  291.29 0854.34
2009/04/23 14:28:49.1     219    -49    122    225    255 102.8  30.8  34250  291.10 0854.34
2009/04/23 14:28:49.2     292     59    115    298    319  78.5  22.0  34270  291.44 0854.34
2009/04/23 14:28:49.3     179    133     96    224    243  53.4  24.9  34276  291.53 0854.34
2009/04/23 14:28:49.4     154    166     72    227    239  42.8  17.7  34288  291.75 0854.34
2009/04/23 14:28:49.5     231    226     99    324    339  45.6  17.0  34258  291.22 0854.34
2009/04/23 14:28:49.6     240    206     98    317    332  49.3  17.2  34234  290.82 0854.34
2009/04/23 14:28:49.7     276    120     82    301    313  66.5  15.3  34260  291.27 0854.34
2009/04/23 14:28:49.8     247    127    129    278    306  62.7  27.0  34264  291.34 0854.34
2009/04/23 14:28:49.9     273     73    147    283    318  74.9  29.6  34276  291.53 0854.34
2009/04/23 14:28:50.0     262    174    140    315    344  56.3  25.7  34302  292.00 0854.34
2009/04/23 14:28:50.1     328     73    161    337    373  77.4  27.3  34292  291.81 0854.36
2009/04/23 14:28:50.2     214    178    138    279    311  50.2  28.2  34304  292.02 0854.36
2009/04/23 14:28:50.3     275    250    146    372    399  47.7  22.5  34284  291.68 0854.36
2009/04/23 14:28:50.4     268    244     81    363    373  47.7  12.6  34298  291.91 0854.36
2009/04/23 14:28:50.5      -5    320    100    321    337 359.0  17.3  34300  291.95 0854.36
2009/04/23 14:28:50.6      68    275     14    284    285  14.0   2.9  34294  291.84 0854.36
2009/04/23 14:28:50.7      -1    167    -22    168    170 359.5  -7.5  34282  291.64 0854.36
2009/04/23 14:28:50.8      41     36     57     55     79  48.7  50.7  34286  291.72 0854.36
2009/04/23 14:28:50.9     -16    -34     46     38     59 205.4  56.4  34282  291.66 0854.36
2009/04/23 14:28:51.0      10    -19      3     22     23 151.0   9.0  34272  291.49 0854.36
2009/04/23 14:28:51.1      44    -29    -66     53     84 123.3 -61.9  34286  291.72 0854.36
2009/04/23 14:28:51.2      51     31    -99     60    115  58.5 -69.5  34284  291.69 0854.36
2009/04/23 14:28:51.3      76     28   -120     82    145  69.6 -67.0  34278  291.57 0854.36
2009/04/23 14:28:51.4      12     -6   -113     14    113 118.9 -90.0  34242  290.98 0854.36
2009/04/23 14:28:51.5      46   -101   -126    111    167 155.5 -58.7  34262  291.30 0854.36
2009/04/23 14:28:51.6      70     -1    -97     71    120  90.9 -64.9  34276  291.54 0854.36
2009/04/23 14:28:51.7     269    -19     28    270    272  94.1   6.0  34270  291.44 0854.36
2009/04/23 14:28:51.8     282    -74    -35    292    295 104.8  -6.9  34268  291.39 0854.36
2009/04/23 14:28:51.9     223     36   -107    226    250  80.8 -31.5  34288  291.75 0854.36
2009/04/23 14:28:52.0     174    -16    -62    175    186  95.5 -19.6  34296  291.88 0854.36
2009/04/23 14:28:52.1     121     39    -66    128    144  71.8 -33.7  34304  292.03 0854.36
2009/04/23 14:28:52.2     229     87    -24    246    248  69.1  -5.6  34286  291.72 0854.36
2009/04/23 14:28:52.3     296     51    100    301    318  80.1  18.5  34276  291.53 0854.36
2009/04/23 14:28:52.4     298     60    105    304    322  78.5  19.2  34276  291.55 0854.36
2009/04/23 14:28:52.5     388     84    132    398    420  77.7  18.4  34300  291.94 0854.36
2009/04/23 14:28:52.6     285    139     95    318    333  64.0  16.7  34306  292.06 0854.36
2009/04/23 14:28:52.7     236     55    138    243    279  76.8  32.1  34310  292.11 0854.36
2009/04/23 14:28:52.8     275     95    141    291    323  70.9  27.8  34308  292.07 0854.36
2009/04/23 14:28:52.9     207     84     45    224    229  67.8  11.4  34324  292.37 0854.36
2009/04/23 14:28:53.0     156    119    136    197    239  52.5  38.0  34294  291.84 0854.36
2009/04/23 14:28:53.1     163     95    217    189    287  59.6  54.3  34288  291.75 0854.36
2009/04/23 14:28:53.2       4     54    130     55    141   4.5  76.1  34286  291.72 0854.36
2009/04/23 14:28:53.3      16    -98    146    100    176 170.7  62.4  34320  292.30 0854.36
2009/04/23 14:28:53.4     -70   -155    152    171    228 204.3  46.2  34316  292.22 0854.36
2009/04/23 14:28:53.5      -1   -108    165    109    197 181.0  63.4  34302  292.00 0854.36
2009/04/23 14:28:53.6    -146   -227    134    271    302 212.7  28.2  34294  291.84 0854.36
2009/04/23 14:28:53.7     -97   -195    147    218    262 206.5  37.0  34302  291.97 0854.36
2009/04/23 14:28:53.8    -153   -156     80    219    233 224.5  20.7  34292  291.83 0854.36
2009/04/23 14:28:53.9     -43   -163    101    169    196 195.1  33.5  34294  291.84 0854.36
2009/04/23 14:28:54.0     -84   -190    224    208    305 203.8  52.2  34280  291.61 0854.36
2009/04/23 14:28:54.1     -89   -247    229    263    348 199.8  45.5  34270  291.43 0854.38
2009/04/23 14:28:54.2     -74   -278    142    288    321 195.1  28.4  34274  291.51 0854.38
2009/04/23 14:28:54.3     -56   -265     87    271    285 192.0  17.9  34276  291.53 0854.38
2009/04/23 14:28:54.4     -72   -199    -23    212    214 200.0  -6.2  34278  291.57 0854.38
2009/04/23 14:28:54.5      -8   -205   -107    206    232 182.5 -33.9  34282  291.64 0854.38
2009/04/23 14:28:54.6      27   -232    -96    234    252 173.3 -28.0  34268  291.41 0854.38
2009/04/23 14:28:54.7     106   -163    -32    195    198 147.0  -9.4  34270  291.45 0854.38
2009/04/23 14:28:54.8     114   -207     -1    237    238 151.0  -0.3  34254  291.16 0854.38
2009/04/23 14:28:54.9     116   -180    -55    215    223 147.3 -14.5  34254  291.16 0854.38
2009/04/23 14:28:55.0     131   -117     26    176    178 131.8   8.5  34266  291.37 0854.38
2009/04/23 14:28:55.1     148   -125     30    194    197 130.2   8.8  34258  291.23 0854.38
2009/04/23 14:28:55.2     115   -187     -8    220    221 148.4  -2.2  34240  290.94 0854.38
2009/04/23 14:28:55.3      53   -243     -2    249    250 167.6  -0.5  34240  290.92 0854.38
2009/04/23 14:28:55.4     104   -143   -102    178    205 143.9 -37.1  34244  291.01 0854.38
2009/04/23 14:28:55.5     134   -128    -73    186    199 133.8 -26.9  34240  290.92 0854.38
2009/04/23 14:28:55.6      35   -162    -87    166    187 167.5 -33.9  34252  291.13 0854.38
2009/04/23 14:28:55.7      23   -179    -63    181    191 172.7 -24.0  34248  291.06 0854.38
2009/04/23 14:28:55.8     -85   -125    -48    152    159 214.2 -22.8  34244  291.01 0854.38
2009/04/23 14:28:55.9    -158   -136    -41    209    214 229.3 -11.1  34246  291.03 0854.38
2009/04/23 14:28:56.0    -232   -123    -57    263    270 242.1 -12.4  34250  291.10 0854.38
2009/04/23 14:28:56.1    -216    -81    -50    231    237 249.4 -12.4  34254  291.16 0854.40
2009/04/23 14:28:56.2    -129    -71     15    148    149 241.1   5.9  34252  291.15 0854.40
2009/04/23 14:28:56.3    -124   -150     79    195    210 219.6  23.1  34250  291.09 0854.40
2009/04/23 14:28:56.4    -131   -302     64    330    337 203.4  11.1  34248  291.06 0854.40
2009/04/23 14:28:56.5    -137   -215     45    256    261 212.5  10.1  34250  291.09 0854.40
2009/04/23 14:28:56.6    -151   -125    -43    197    202 230.4 -12.4  34258  291.25 0854.40
2009/04/23 14:28:56.7    -152   -123     -5    196    197 230.9  -1.6  34262  291.32 0854.40
2009/04/23 14:28:56.8     -76   -146     78    165    182 207.6  27.1  34254  291.18 0854.40
2009/04/23 14:28:56.9     -91   -256    101    272    290 199.6  21.0  34252  291.12 0854.40
2009/04/23 14:28:57.0    -121   -231    117    261    286 207.6  25.9  34242  290.97 0854.40
2009/04/23 14:28:57.1    -151   -237     94    282    298 212.5  18.5  34244  290.99 0854.40
2009/04/23 14:28:57.2    -160   -266    111    311    330 211.0  20.3  34242  290.97 0854.40
2009/04/23 14:28:57.3     -70   -294    112    303    323 193.4  21.1  34246  291.04 0854.40
2009/04/23 14:28:57.4     -87   -354     73    365    373 193.8  11.3  34248  291.08 0854.40
2009/04/23 14:28:57.5    -117   -302     88    324    336 201.2  15.2  34248  291.05 0854.40
2009/04/23 14:28:57.6    -133   -337     15    363    364 201.5   2.4  34268  291.40 0854.40
2009/04/23 14:28:57.7     -71   -323    -12    331    332 192.5  -2.2  34266  291.37 0854.40
2009/04/23 14:28:57.8     -16   -372     -3    373    374 182.5  -0.5  34260  291.27 0854.40
2009/04/23 14:28:57.9      23   -458     25    459    460 177.1   3.2  34240  290.92 0854.40
2009/04/23 14:28:58.0      26   -460     39    461    463 176.8   4.9  34238  290.90 0854.40
2009/04/23 14:28:58.1      80   -467     66    475    480 170.2   8.0  34236  290.86 0854.42
2009/04/23 14:28:58.2     128   -517     46    533    536 166.1   5.0  34210  290.41 0854.42
2009/04/23 14:28:58.3      25   -504    108    505    517 177.1  12.1  34232  290.79 0854.42
2009/04/23 14:28:58.4      22   -503     66    504    509 177.4   7.5  34242  290.96 0854.42
2009/04/23 14:28:58.5     -52   -564    132    567    583 185.3  13.1  34240  290.92 0854.42
2009/04/23 14:28:58.6     -88   -643     35    649    651 187.8   3.1  34238  290.88 0854.42
2009/04/23 14:28:58.7     -71   -648    142    652    668 186.3  12.3  34232  290.78 0854.42
2009/04/23 14:28:58.8    -149   -642     -4    660    661 193.1  -0.4  34230  290.77 0854.42
2009/04/23 14:28:58.9    -149   -640     27    658    659 193.2   2.4  34220  290.58 0854.42
2009/04/23 14:28:59.0    -243   -570    -20    620    621 203.1  -1.9  34222  290.64 0854.42
2009/04/23 14:28:59.1    -278   -560    -66    626    630 206.4  -6.1  34218  290.55 0854.42
2009/04/23 14:28:59.2    -225   -468    -67    520    525 205.7  -7.4  34214  290.50 0854.42
2009/04/23 14:28:59.3    -196   -490    -32    529    530 201.9  -3.5  34214  290.48 0854.42
2009/04/23 14:28:59.4    -167   -471   -109    500    513 199.6 -12.4  34208  290.37 0854.42
2009/04/23 14:28:59.5    -190   -458   -149    497    519 202.6 -16.7  34202  290.30 0854.42
2009/04/23 14:28:59.6    -214   -440   -115    490    504 206.0 -13.3  34212  290.47 0854.42
2009/04/23 14:28:59.7    -217   -494   -155    540    562 203.7 -16.1  34218  290.55 0854.42
2009/04/23 14:28:59.8    -184   -482   -156    517    540 200.9 -21.7  34218  290.55 0854.42
2009/04/23 14:28:59.9    -144   -343    -81    373    382 202.8 -12.3  34208  290.37 0854.42
2009/04/23 14:29:00.0    -279   -355     -9    452    453 218.1  -1.3  34218  290.56 0854.42
2009/04/23 14:29:00.1    -265   -462    -42    533    535 209.9  -4.6  34224  290.65 0854.41
2009/04/23 14:29:00.2    -325   -428     36    538    540 217.2   3.9  34224  290.65 0854.41
2009/04/23 14:29:00.3    -332   -383    -15    508    509 220.9  -1.7  34222  290.61 0854.41
2009/04/23 14:29:00.4    -355   -321     85    479    487 227.9  10.1  34220  290.59 0854.41
2009/04/23 14:29:00.5    -260   -292     31    392    394 221.7   4.6  34218  290.54 0854.41
2009/04/23 14:29:00.6    -407   -449   -189    607    636 222.2 -17.3  34230  290.77 0854.41
2009/04/23 14:29:00.7    -278   -445   -118    525    539 212.0 -12.7  34236  290.87 0854.41
2009/04/23 14:29:00.8     -36   -496     -1    498    499 184.2  -0.2  34232  290.78 0854.41
2009/04/23 14:29:00.9     -37   -508     20    510    511 184.2   2.3  34236  290.85 0854.41
2009/04/23 14:29:01.0      34   -431     26    433    434 175.4   3.5  34232  290.80 0854.41
2009/04/23 14:29:01.1     141   -584    -84    601    608 166.4  -8.0  34224  290.66 0854.41
2009/04/23 14:29:01.2     182   -551    -26    581    582 161.7  -2.6  34224  290.66 0854.41
2009/04/23 14:29:01.3     146   -540     74    560    565 164.8   7.6  34232  290.79 0854.41
2009/04/23 14:29:01.4     352   -639     40    730    732 151.2   3.1  34230  290.76 0854.41
2009/04/23 14:29:01.5     298   -659    -28    724    725 155.7  -2.2  34222  290.61 0854.41
2009/04/23 14:29:01.6     228   -700     35    737    738 162.0   2.8  34210  290.41 0854.41
2009/04/23 14:29:01.7     197   -620    -63    651    655 162.3  -5.6  34222  290.64 0854.41
2009/04/23 14:29:01.8     229   -718     30    754    755 162.3   2.3  34224  290.67 0854.41
2009/04/23 14:29:01.9     269   -442   -188    518    551 148.7 -25.3  34226  290.69 0854.41
2009/04/23 14:29:02.0      11   -341      2    342    343 178.1   0.5  34218  290.57 0854.41
2009/04/23 14:29:02.1      39   -295    -68    298    306 172.4 -12.9  34226  290.68 0854.41
2009/04/23 14:29:02.2     107   -307    -77    326    336 160.8 -13.4  34230  290.77 0854.41
2009/04/23 14:29:02.3     104   -253   -101    274    292 157.7 -25.4  34230  290.75 0854.41
2009/04/23 14:29:02.4     179   -197    -86    267    281 137.7 -17.9  34234  290.82 0854.41
2009/04/23 14:29:02.5      76   -105   -100    130    164 144.0 -45.8  34228  290.74 0854.41
2009/04/23 14:29:02.6      66   -206     57    217    225 162.2  14.7  34224  290.65 0854.41
2009/04/23 14:29:02.7      -7   -393    110    394    410 181.2  15.6  34224  290.67 0854.41
2009/04/23 14:29:02.8     -11   -484    -10    485    486 181.4  -1.3  34218  290.57 0854.41
2009/04/23 14:29:02.9     142   -559    -42    577    579 165.7  -4.2  34222  290.63 0854.41
2009/04/23 14:29:03.0     122   -550    -17    564    565 167.5  -1.8  34226  290.69 0854.41
2009/04/23 14:29:03.1     144   -522     31    542    543 164.5   3.3  34226  290.69 0854.41
2009/04/23 14:29:03.2     119   -489     30    504    505 166.3   3.5  34230  290.76 0854.41
2009/04/23 14:29:03.3     114   -453     49    468    471 165.8   6.1  34228  290.71 0854.41
2009/04/23 14:29:03.4     115   -472     27    486    487 166.2   3.3  34224  290.66 0854.41
2009/04/23 14:29:03.5      98   -483     -2    493    494 168.5  -0.3  34226  290.69 0854.41
2009/04/23 14:29:03.6      90   -436     49    446    449 168.3   6.4  34226  290.68 0854.41
2009/04/23 14:29:03.7      80   -391    133    400    422 168.4  18.5  34230  290.77 0854.41
2009/04/23 14:29:03.8      59   -359    128    364    385 170.6  20.1  34230  290.76 0854.41
2009/04/23 14:29:03.9     130   -366      1    389    390 160.4   0.2  34222  290.64 0854.41
2009/04/23 14:29:04.0      96   -290      5    306    307 161.5   1.0  34228  290.73 0854.41
2009/04/23 14:29:04.1      82   -246     16    260    261 161.5   3.6  34228  290.73 0854.42
2009/04/23 14:29:04.2      79   -275    -19    287    288 164.0  -3.9  34230  290.76 0854.42
2009/04/23 14:29:04.3      55   -289    -26    295    297 169.1  -5.2  34230  290.76 0854.42
2009/04/23 14:29:04.4      77   -276    -11    287    288 164.4  -2.2  34226  290.70 0854.42
2009/04/23 14:29:04.5      43   -246     56    250    257 170.0  12.6  34228  290.73 0854.42
2009/04/23 14:29:04.6      71   -256     44    266    270 164.4   9.5  34230  290.76 0854.42
2009/04/23 14:29:04.7     155   -302    107    340    357 152.8  17.5  34236  290.86 0854.42
2009/04/23 14:29:04.8     148   -280      9    317    318 152.1   1.7  34228  290.71 0854.42
2009/04/23 14:29:04.9     134   -253    -16    287    288 152.1  -3.3  34230  290.75 0854.42
2009/04/23 14:29:05.0     140   -285      0    318    319 153.7   0.1  34228  290.71 0854.42
2009/04/23 14:29:05.1     128   -270    110    299    318 154.6  21.1  34228  290.71 0854.42
2009/04/23 14:29:05.2      32   -376    100    378    392 175.1  14.9  34230  290.76 0854.42
2009/04/23 14:29:05.3     132   -375    122    398    417 160.6  17.0  34234  290.84 0854.42
2009/04/23 14:29:05.4     255   -397    163    472    500 147.3  19.1  34232  290.81 0854.42
2009/04/23 14:29:05.5     171   -277    197    326    380 148.4  34.1  34242  290.96 0854.42
2009/04/23 14:29:05.6     181   -236    227    298    374 142.4  41.2  34250  291.11 0854.42
2009/04/23 14:29:05.7     166   -227    207    282    349 143.9  39.8  34252  291.15 0854.42
2009/04/23 14:29:05.8      99   -176    218    203    297 150.6  52.2  34260  291.26 0854.42
2009/04/23 14:29:05.9     -14   -222    183    223    288 183.6  43.7  34248  291.07 0854.42
2009/04/23 14:29:06.0     -39   -192    206    196    284 191.5  51.4  34262  291.29 0854.42
2009/04/23 14:29:06.1     -27    -87    141     92    168 197.4  64.1  34274  291.52 0854.40
2009/04/23 14:29:06.2      18    -49    107     53    119 160.0  71.4  34270  291.45 0854.40
2009/04/23 14:29:06.3      -5   -197    216    198    293 181.6  52.5  34242  290.97 0854.40
2009/04/23 14:29:06.4    -147   -243    208    285    352 211.2  39.8  34244  291.01 0854.40
2009/04/23 14:29:06.5    -134   -209    257    249    357 212.7  50.9  34246  291.02 0854.40
2009/04/23 14:29:06.6    -106    -87    144    138    199 230.5  51.2  34254  291.18 0854.40
2009/04/23 14:29:06.7    -163    -58     88    174    194 250.3  28.7  34254  291.16 0854.40
2009/04/23 14:29:06.8    -124    -79     65    148    161 237.6  25.1  34244  291.01 0854.40
2009/04/23 14:29:06.9    -115   -126     16    171    172 222.3   5.4  34246  291.03 0854.40
2009/04/23 14:29:07.0    -159   -121    -36    201    205 232.7 -10.3  34240  290.92 0854.40
2009/04/23 14:29:07.1    -198    -79    -64    214    223 248.3 -21.7  34256  291.21 0854.40
2009/04/23 14:29:07.2    -114    -58    -41    129    136 242.9 -17.6  34242  290.96 0854.40
2009/04/23 14:29:07.3     -38    -30    -43     49     65 231.4 -51.3  34254  291.16 0854.40
2009/04/23 14:29:07.4       6    -11    -26     13     29 151.0 -77.3  34258  291.23 0854.40
2009/04/23 14:29:07.5      22      0     22     23     31  90.0  50.0  34256  291.20 0854.40
2009/04/23 14:29:07.6      -4     12     52     13     53 341.7  85.9  34258  291.25 0854.40
2009/04/23 14:29:07.7     -14     75     54     77     94 349.3  38.0  34250  291.11 0854.40
2009/04/23 14:29:07.8     -14     83     -2     85     86 350.2  -1.8  34260  291.26 0854.40
2009/04/23 14:29:07.9     -54     80    -12     97     98 325.7  -7.3  34258  291.23 0854.40
2009/04/23 14:29:08.0     -50     73    -11     89     90 325.3  -7.3  34256  291.20 0854.40
2009/04/23 14:29:08.1      -1     56      6     57     58 358.2   6.9  34252  291.15 0854.39
2009/04/23 14:29:08.2      50     41     20     65     69  50.5  17.3  34256  291.21 0854.39
2009/04/23 14:29:08.3       9     28     33     30     44  18.3  52.2  34266  291.38 0854.39
2009/04/23 14:29:08.4      -1     -6     33      7     33 189.7  89.0  34268  291.40 0854.39
2009/04/23 14:29:08.5     -17    -17     16     25     29 225.0  35.5  34266  291.37 0854.39
2009/04/23 14:29:08.6     -71      4     -3     72     73 273.5  -3.1  34260  291.26 0854.39
2009/04/23 14:29:08.7     -69    -23      3     73     74 251.6   2.9  34256  291.21 0854.39
2009/04/23 14:29:08.8     -66    -34     26     75     80 242.9  19.4  34258  291.23 0854.39
2009/04/23 14:29:08.9     -51    -42     66     67     94 230.5  50.5  34266  291.37 0854.39
2009/04/23 14:29:09.1    -102     27     34    106    112 285.1  17.9  34262  291.30 0854.39
2009/04/23 14:29:09.1     -88     48     10    101    102 298.8   5.9  34260  291.28 0854.40
2009/04/23 14:29:09.3     -55     89     84    105    134 328.4  43.3  34258  291.25 0854.40
2009/04/23 14:29:09.3     -83     72     74    111    133 310.9  36.5  34260  291.28 0854.40
2009/04/23 14:29:09.4     -11     87     94     88    128 352.4  52.1  34268  291.42 0854.40
2009/04/23 14:29:09.6     -41     86    123     96    156 334.1  58.4  34272  291.49 0854.40
2009/04/23 14:29:09.7    -100    113     62    151    163 318.5  23.4  34270  291.43 0854.40
2009/04/23 14:29:09.7    -122    108     49    164    172 311.6  16.6  34264  291.35 0854.40
2009/04/23 14:29:09.9    -219    177     54    282    288 308.9  11.0  34262  291.29 0854.40
2009/04/23 14:29:10.0    -209    174     32    273    275 309.8   6.9  34262  291.31 0854.40
2009/04/23 14:29:10.0    -219    173      2    280    281 308.4   0.5  34260  291.27 0854.40
2009/04/23 14:29:10.2    -162    125     -1    205    206 307.8  -0.5  34264  291.35 0854.40
2009/04/23 14:29:10.3    -160    135     76    210    223 310.0  20.7  34262  291.32 0854.40
2009/04/23 14:29:10.4    -217    151     72    265    275 304.9  15.3  34262  291.29 0854.40
2009/04/23 14:29:10.5    -222    166     21    278    279 306.8   4.4  34266  291.36 0854.40
2009/04/23 14:29:10.6    -213    165      9    270    271 307.7   2.1  34262  291.29 0854.40
2009/04/23 14:29:10.7    -239    117    137    267    300 296.2  29.3  34266  291.38 0854.40
2009/04/23 14:29:10.8    -148     61     78    161    178 292.4  27.4  34274  291.50 0854.40
2009/04/23 14:29:10.9    -228     20     37    229    233 275.2   9.3  34276  291.54 0854.40
2009/04/23 14:29:11.0    -210     22     22    212    214 276.1   6.1  34282  291.66 0854.40
2009/04/23 14:29:11.1    -242    -62     38    250    253 255.6   8.8  34284  291.68 0854.40
2009/04/23 14:29:11.2    -213    -68     35    224    227 252.3   9.0  34274  291.50 0854.41
2009/04/23 14:29:11.3    -220   -133     54    258    264 238.9  12.0  34278  291.56 0854.41
2009/04/23 14:29:11.4    -167   -146     38    222    226 228.9   9.9  34280  291.62 0854.41
2009/04/23 14:29:11.5    -163   -104     98    194    217 237.4  29.1  34280  291.60 0854.41
2009/04/23 14:29:11.6    -273      3     41    274    278 270.8   8.5  34294  291.84 0854.41
2009/04/23 14:29:11.7    -292     21    -87    293    306 274.3 -16.5  34290  291.77 0854.41
2009/04/23 14:29:11.8    -162    -12    -79    163    181 265.7 -31.8  34276  291.55 0854.41
2009/04/23 14:29:11.9     -25    -25     40     36     53 225.0  52.2  34280  291.62 0854.41
2009/04/23 14:29:12.0    -105    -58    151    121    193 241.1  56.9  34288  291.76 0854.41
2009/04/23 14:29:12.1    -111      0     84    112    140 270.0  40.7  34302  292.00 0854.41
2009/04/23 14:29:12.2     -96    -41     37    105    112 246.5  19.4  34320  292.30 0854.41
2009/04/23 14:29:12.3     -98      0    -67     99    119 270.0 -42.0  34288  291.74 0854.41
2009/04/23 14:29:12.4    -112    -16    -65    114    131 261.6 -36.8  34286  291.72 0854.41
2009/04/23 14:29:12.5    -129     -1    -41    130    137 269.2 -17.5  34288  291.76 0854.41
2009/04/23 14:29:12.6    -167    -57    -53    177    185 251.2 -16.8  34294  291.86 0854.41
2009/04/23 14:29:12.7    -141   -121     72    186    199 229.3  22.3  34298  291.91 0854.41
2009/04/23 14:29:12.8    -153   -115      1    192    193 233.1   0.5  34296  291.88 0854.41
2009/04/23 14:29:12.9    -133   -108     68    172    184 230.9  22.8  34288  291.76 0854.41
2009/04/23 14:29:13.0    -108   -106     53    152    162 225.6  19.2  34292  291.81 0854.41
2009/04/23 14:29:13.1     -77    -79     14    111    112 224.1   7.5  34294  291.86 0854.41
2009/04/23 14:29:13.2     -36   -157     14    162    163 192.9   5.2  34286  291.71 0854.43
2009/04/23 14:29:13.3       8   -126    -10    127    128 176.0  -4.6  34288  291.74 0854.43
2009/04/23 14:29:13.4     -48    -76    -54     91    105 212.5 -38.4  34294  291.84 0854.43
2009/04/23 14:29:13.5       0    -85    -82     86    118 180.0 -53.4  34294  291.86 0854.43
2009/04/23 14:29:13.6     -11   -151    -96    152    179 184.4 -39.9  34296  291.89 0854.43
2009/04/23 14:29:13.7      31   -132     -7    136    137 166.6  -3.1  34292  291.81 0854.43
2009/04/23 14:29:13.8      27   -133     21    136    138 168.5   8.9  34290  291.79 0854.43
2009/04/23 14:29:13.9     -51   -171    -48    179    186 196.7 -15.2  34288  291.74 0854.43
2009/04/23 14:29:14.0    -113   -171    -47    206    212 213.4 -12.9  34288  291.76 0854.43
2009/04/23 14:29:14.1     -27   -214      0    216    217 187.3  -0.3  34288  291.76 0854.43
2009/04/23 14:29:14.2      -8   -281    -25    282    284 181.8  -5.1  34292  291.82 0854.43
2009/04/23 14:29:14.3     -72   -240    -32    251    254 196.7  -7.3  34292  291.82 0854.43
2009/04/23 14:29:14.4    -115   -158    -69    196    208 216.1 -19.4  34288  291.76 0854.43
2009/04/23 14:29:14.5     -74   -159      3    176    177 205.2   1.2  34284  291.69 0854.43
2009/04/23 14:29:14.6     -28   -162     15    165    166 189.8   5.4  34282  291.66 0854.43
2009/04/23 14:29:14.7     -42   -140     17    147    149 196.9   6.9  34282  291.64 0854.43
2009/04/23 14:29:14.8     -50   -138     21    147    149 200.0   8.5  34280  291.62 0854.43
2009/04/23 14:29:14.9     -60   -134     -8    147    148 204.1  -3.1  34276  291.55 0854.43
2009/04/23 14:29:15.0     -41   -115    -40    123    129 199.6 -23.8  34278  291.57 0854.43
2009/04/23 14:29:15.1     -52   -129    -70    140    156 201.9 -32.9  34278  291.57 0854.43
2009/04/23 14:29:15.2     -75   -160    -71    177    190 205.2 -27.4  34278  291.57 0854.44
2009/04/23 14:29:15.3       1   -225    -45    226    231 179.5 -11.3  34272  291.47 0854.44
2009/04/23 14:29:15.4       3   -192    -10    193    194 179.1  -3.1  34274  291.50 0854.44
2009/04/23 14:29:15.5      10   -225      2    226    227 177.4   0.7  34268  291.42 0854.44
2009/04/23 14:29:15.6      33   -209    -16    212    213 170.9  -4.4  34264  291.33 0854.44
2009/04/23 14:29:15.7      19   -273     33    274    276 176.0   6.9  34262  291.31 0854.44
2009/04/23 14:29:15.8      36   -403     47    405    408 174.8   6.7  34270  291.45 0854.44
2009/04/23 14:29:15.9      25   -395     87    396    406 176.3  12.4  34266  291.36 0854.44
2009/04/23 14:29:16.0      15   -449    105    450    463 178.0  13.2  34272  291.46 0854.44
2009/04/23 14:29:16.1       0   -483    141    484    505 180.0  16.3  34268  291.41 0854.44
2009/04/23 14:29:16.2     -37   -476    120    478    493 184.5  14.2  34266  291.37 0854.44
2009/04/23 14:29:16.3     -55   -476     62    480    485 186.6   7.4  34262  291.29 0854.44
2009/04/23 14:29:16.4     -51   -430     45    434    437 186.8   6.0  34258  291.23 0854.44
2009/04/23 14:29:16.5     -21   -414    104    415    428 182.9  14.2  34252  291.14 0854.44
2009/04/23 14:29:16.6     -42   -457    117    460    475 185.3  14.3  34260  291.27 0854.44
2009/04/23 14:29:16.7     -51   -420    120    424    441 187.0  15.9  34266  291.36 0854.44
2009/04/23 14:29:16.8     -47   -412    105    415    429 186.6  14.3  34266  291.38 0854.44
2009/04/23 14:29:16.9     -78   -380    132    389    411 191.7  18.8  34262  291.29 0854.44
2009/04/23 14:29:17.0     -72   -442    158    449    475 189.3  20.1  34262  291.32 0854.44
2009/04/23 14:29:17.1     -46   -544     77    547    553 184.9   8.1  34270  291.43 0854.44
2009/04/23 14:29:17.2     -65   -514    168    519    546 187.2  18.0  34268  291.40 0854.41
2009/04/23 14:29:17.3     -18   -391    203    392    441 182.7  29.3  34270  291.45 0854.41
2009/04/23 14:29:17.4     -43   -398    166    401    434 186.2  23.8  34262  291.31 0854.41
2009/04/23 14:29:17.5     -36   -351    170    353    391 186.0  27.7  34258  291.25 0854.41
2009/04/23 14:29:17.6      -1   -371    233    372    438 180.3  35.2  34266  291.36 0854.41
2009/04/23 14:29:17.7     -44   -411    170    414    447 186.2  23.5  34266  291.36 0854.41
2009/04/23 14:29:17.8     -34   -467    173    469    499 184.2  21.3  34272  291.47 0854.41
2009/04/23 14:29:17.9       7   -374    193    375    421 178.8  29.3  34266  291.38 0854.41
2009/04/23 14:29:18.0      56   -356    242    361    434 171.0  37.2  34272  291.48 0854.41
2009/04/23 14:29:18.1      41   -474    158    476    502 175.0  18.4  34276  291.54 0854.41
2009/04/23 14:29:18.2      69   -513    183    518    549 172.3  20.2  34272  291.47 0854.41
2009/04/23 14:29:18.3     142   -484    179    505    536 163.6  19.5  34268  291.40 0854.41
2009/04/23 14:29:18.4     189   -463    204    501    540 157.8  23.4  34270  291.43 0854.41
2009/04/23 14:29:18.5     152   -472    175    497    527 162.1  19.4  34252  291.15 0854.41
2009/04/23 14:29:18.6     124   -434    174    452    484 164.0  22.1  34258  291.22 0854.41
2009/04/23 14:29:18.7      85   -416    175    425    459 168.4  23.7  34260  291.28 0854.41
2009/04/23 14:29:18.8      70   -355    179    362    403 168.8  28.2  34264  291.35 0854.41
2009/04/23 14:29:18.9      85   -263    251    277    373 162.0  46.9  34280  291.62 0854.41
2009/04/23 14:29:19.0     134   -269    245    301    388 153.5  43.6  34288  291.76 0854.41
2009/04/23 14:29:19.1      52   -265    271    271    383 168.9  50.1  34304  292.03 0854.41
2009/04/23 14:29:19.2      73   -310    241    319    399 166.6  40.8  34282  291.66 0854.41
2009/04/23 14:29:19.3      37   -304    232    307    384 172.9  40.8  34268  291.42 0854.41
2009/04/23 14:29:19.4      55   -327    194    332    384 170.4  33.1  34270  291.45 0854.41
2009/04/23 14:29:19.5      31   -397    134    399    422 175.5  18.6  34268  291.41 0854.41
2009/04/23 14:29:19.6     233   -192     59    303    309 129.5  11.1  34286  291.72 0854.41
2009/04/23 14:29:19.7     166   -187     90    251    267 138.5  19.9  34264  291.33 0854.41
2009/04/23 14:29:19.8     195   -151     72    247    258 127.8  16.3  34256  291.19 0854.41
2009/04/23 14:29:19.9     166   -131    123    212    245 128.2  32.7  34264  291.33 0854.41
2009/04/23 14:29:20.0     135    -91    139    163    214 124.1  44.8  34264  291.35 0854.41
2009/04/23 14:29:20.1     117    -79    131    142    193 124.2  47.9  34260  291.26 0854.41
2009/04/23 14:29:20.2     148    -57    156    159    222 111.3  49.8  34266  291.37 0854.41
2009/04/23 14:29:20.3     108    -52    135    120    180 115.8  53.7  34258  291.25 0854.41
2009/04/23 14:29:20.4      64      4    137     65    151  85.7  72.9  34280  291.62 0854.41
2009/04/23 14:29:20.5      18    -54    134     57    145 161.5  76.1  34272  291.49 0854.41
2009/04/23 14:29:20.6     108    -32    170    113    204 106.8  63.4  34268  291.42 0854.41
2009/04/23 14:29:20.7      76    -73    193    106    220 133.6  68.9  34280  291.62 0854.41
2009/04/23 14:29:20.8       3     21    127     22    128   9.8  90.0  34284  291.67 0854.41
2009/04/23 14:29:20.9      16   -106    229    108    253 171.1  73.1  34280  291.62 0854.41
2009/04/23 14:29:21.0      43   -188    203    193    280 167.1  51.6  34286  291.70 0854.41
2009/04/23 14:29:21.1     -14   -208    190    209    282 184.0  47.0  34292  291.80 0854.41
2009/04/23 14:29:21.2      24   -162    196    164    255 171.5  56.1  34296  291.89 0854.43
2009/04/23 14:29:21.3      39   -144    151    150    212 164.9  50.1  34294  291.86 0854.43
2009/04/23 14:29:21.4      67   -201     90    213    231 161.5  24.1  34280  291.60 0854.43
2009/04/23 14:29:21.5     120   -163    150    203    252 143.5  40.1  34286  291.70 0854.43
2009/04/23 14:29:21.6     171   -283     38    331    334 148.8   6.7  34272  291.47 0854.43
2009/04/23 14:29:21.7     177   -228     94    289    305 142.1  18.1  34272  291.48 0854.43
2009/04/23 14:29:21.8     134   -194     84    237    251 145.3  20.0  34274  291.50 0854.43
2009/04/23 14:29:21.9     135   -216     40    255    259 147.9   9.0  34272  291.48 0854.43
2009/04/23 14:29:22.0     125   -211     67    246    256 149.3  15.3  34272  291.46 0854.43
2009/04/23 14:29:22.1     124   -206     80    241    254 148.8  18.4  34268  291.39 0854.43
2009/04/23 14:29:22.2     150   -199     58    250    257 143.0  13.1  34268  291.41 0854.43
2009/04/23 14:29:22.3     120   -251    163    279    323 154.5  32.9  34262  291.29 0854.43
2009/04/23 14:29:22.4      99   -306    134    322    348 162.1  23.9  34268  291.42 0854.43
2009/04/23 14:29:22.5     102   -225     88    248    263 155.5  20.0  34276  291.53 0854.43
2009/04/23 14:29:22.6      77   -197     74    212    225 158.6  19.4  34278  291.57 0854.43
2009/04/23 14:29:22.7     132   -255    124    288    313 152.6  24.9  34250  291.09 0854.43
2009/04/23 14:29:22.8     202   -241     82    315    326 140.1  14.7  34254  291.16 0854.43
2009/04/23 14:29:22.9      65   -255    147    264    302 165.7  31.4  34254  291.17 0854.43
2009/04/23 14:29:23.0      -9   -280    123    281    306 182.0  25.2  34258  291.22 0854.43
2009/04/23 14:29:23.1     -57   -281    130    287    315 191.5  26.0  34262  291.31 0854.43
2009/04/23 14:29:23.2    -104   -285    105    304    322 200.1  19.2  34260  291.26 0854.39
2009/04/23 14:29:23.3    -129   -295    128    323    347 203.7  22.8  34260  291.28 0854.39
2009/04/23 14:29:23.4    -187   -233     25    299    301 218.8   4.9  34256  291.19 0854.39
2009/04/23 14:29:23.5    -102   -255    -53    275    281 201.9 -10.9  34256  291.21 0854.39
2009/04/23 14:29:23.6    -109   -231     89    256    272 205.2  19.2  34262  291.29 0854.39
2009/04/23 14:29:23.7     -13   -125     16    126    128 186.2   7.5  34260  291.28 0854.39
2009/04/23 14:29:23.8       7    -92     94     93    132 175.5  50.1  34266  291.37 0854.39
2009/04/23 14:29:23.9      58    -66    152     89    176 138.6  67.2  34282  291.64 0854.39
2009/04/23 14:29:24.0     104    -49    147    116    187 115.2  57.5  34282  291.64 0854.39
2009/04/23 14:29:24.1      47    -76    204     90    222 148.4  74.9  34280  291.62 0854.39
2009/04/23 14:29:24.2     222    -67     91    232    249 106.8  22.3  34270  291.43 0854.39
2009/04/23 14:29:24.3     195    -16    108    196    223  95.0  31.4  34264  291.35 0854.39
2009/04/23 14:29:24.4     140   -170    232    221    320 140.6  51.4  34264  291.34 0854.39
2009/04/23 14:29:24.5      61   -173    226    184    291 160.6  56.4  34282  291.63 0854.39
2009/04/23 14:29:24.6      17    -91    197     93    217 169.3  72.9  34284  291.67 0854.39
2009/04/23 14:29:24.7      83   -136    141    160    213 148.4  45.9  34282  291.66 0854.39
2009/04/23 14:29:24.8     172   -189    147    256    295 137.6  32.4  34276  291.53 0854.39
2009/04/23 14:29:24.9     167   -110    207    201    288 123.3  50.7  34284  291.68 0854.39
2009/04/23 14:29:25.0     228    -67    198    238    309 106.4  43.8  34286  291.70 0854.39
2009/04/23 14:29:25.1     240    -79    226    253    339 108.4  46.4  34288  291.75 0854.39
2009/04/23 14:29:25.2     230     64    136    239    274  74.3  32.1  34310  292.11 0854.38
2009/04/23 14:29:25.3     259     57    269    266    378  77.6  50.2  34336  292.56 0854.38
2009/04/23 14:29:25.4     282     41    230    286    367  81.6  43.0  34330  292.46 0854.38
2009/04/23 14:29:25.5     205    -27    198    207    286  97.7  48.7  34310  292.11 0854.38
2009/04/23 14:29:25.6     -94   -138    250    168    301 214.3  62.8  34284  291.67 0854.38
2009/04/23 14:29:25.7      34   -179    139    183    229 169.1  41.2  34282  291.64 0854.38
2009/04/23 14:29:25.8      23   -114     82    117    142 168.4  38.0  34282  291.64 0854.38
2009/04/23 14:29:25.9      64    -98     39    118    125 146.6  18.4  34286  291.71 0854.38
2009/04/23 14:29:26.0      87   -136     12    162    163 147.5   4.2  34280  291.60 0854.38
2009/04/23 14:29:26.1     215   -147    108    261    282 124.4  23.6  34290  291.77 0854.38
2009/04/23 14:29:26.2     121   -167    108    207    233 144.2  29.5  34284  291.67 0854.38
2009/04/23 14:29:26.3     119    -65     17    136    138 118.8   7.5  34336  292.58 0854.38
2009/04/23 14:29:26.4     -22   -259     92    261    276 184.9  20.0  34292  291.82 0854.38
2009/04/23 14:29:26.5     127   -242     -2    274    275 152.4  -0.5  34280  291.61 0854.38
2009/04/23 14:29:26.6     126   -141   -148    190    240 138.3 -46.4  34316  292.22 0854.38
2009/04/23 14:29:26.7     -52    -30   -135     61    148 240.2 -78.4  34300  291.95 0854.38
2009/04/23 14:29:26.8     124    -90    -33    154    158 126.0 -12.4  34298  291.91 0854.38
2009/04/23 14:29:26.9     245    -98    -28    264    266 111.8  -6.2  34300  291.96 0854.38
2009/04/23 14:29:27.0     237   -104    198    259    326 113.7  41.3  34292  291.82 0854.38
2009/04/23 14:29:27.1     203   -147    107    251    272 125.9  24.3  34282  291.65 0854.38
2009/04/23 14:29:27.2     192   -208    188    284    340 137.2  36.5  34294  291.85 0854.36
2009/04/23 14:29:27.3      -7   -135    317    136    344 183.1  75.4  34290  291.77 0854.36
2009/04/23 14:29:27.4    -115   -328    285    348    449 199.4  43.7  34280  291.62 0854.36
2009/04/23 14:29:27.5     -83   -311    234    322    398 195.1  39.7  34270  291.45 0854.36
2009/04/23 14:29:27.6     -96   -234    192    253    317 202.3  41.1  34274  291.51 0854.36
2009/04/23 14:29:27.7    -171   -336    250    377    452 207.0  36.6  34290  291.79 0854.36
2009/04/23 14:29:27.8    -175   -368    238    408    472 205.5  32.9  34304  292.03 0854.36
2009/04/23 14:29:27.9    -223   -298    197    373    421 216.8  30.2  34286  291.72 0854.36
2009/04/23 14:29:28.0    -254   -269    181    371    412 223.3  28.0  34290  291.78 0854.36
2009/04/23 14:29:28.1    -397     44    148    400    426 276.4  21.1  34306  292.04 0854.36
2009/04/23 14:29:28.2    -366    -23     15    367    368 266.3   2.4  34300  291.95 0854.36
2009/04/23 14:29:28.3     -75   -180    146    196    244 202.7  40.7  34278  291.57 0854.36
2009/04/23 14:29:28.4      -2    -58      7     59     60 182.7   6.9  34282  291.64 0854.36
2009/04/23 14:29:28.5     -56    -19    -34     60     68 251.4 -36.8  34280  291.60 0854.36
2009/04/23 14:29:28.6     -93    -61     14    112    113 236.7   7.5  34280  291.62 0854.36
2009/04/23 14:29:28.7    -111   -110   -111    157    192 225.1 -43.2  34266  291.37 0854.36
2009/04/23 14:29:28.8     -91    -75    -73    119    139 230.4 -39.4  34270  291.45 0854.36
2009/04/23 14:29:28.9    -102    -48     35    114    120 244.6  17.3  34272  291.47 0854.36
2009/04/23 14:29:29.0     -62    -57     18     85     87 227.3  12.2  34270  291.43 0854.36
2009/04/23 14:29:29.1     -53   -169     85    178    197 197.4  27.2  34260  291.28 0854.36
2009/04/23 14:29:29.2     -83   -242     14    257    258 199.1   3.3  34264  291.34 0854.41
2009/04/23 14:29:29.3       4   -261    -72    262    271 179.1 -20.0  34254  291.17 0854.41
2009/04/23 14:29:29.4      -6   -163   -165    164    232 182.2 -54.5  34258  291.23 0854.41
2009/04/23 14:29:29.5    -195   -131    -93    236    253 236.0 -26.7  34262  291.29 0854.41
2009/04/23 14:29:29.6     -97     32   -155    103    186 288.6 -68.0  34268  291.40 0854.41
2009/04/23 14:29:29.7      74     13     -9     76     77  79.4  -7.3  34260  291.28 0854.41
2009/04/23 14:29:29.8      92    -90    109    129    168 134.4  44.3  34252  291.13 0854.41
2009/04/23 14:29:29.9     -53   -171     31    180    183 197.2   9.9  34242  290.98 0854.41
2009/04/23 14:29:30.0      -1   -277    148    278    314 180.2  30.3  34202  290.29 0854.41
2009/04/23 14:29:30.1    -104   -335    221    351    414 197.3  35.3  34198  290.21 0854.41
2009/04/23 14:29:30.2    -186   -302    160    355    389 211.6  25.9  34228  290.71 0854.41
2009/04/23 14:29:30.3    -298   -354     -3    463    464 220.1  -0.5  34218  290.55 0854.41
2009/04/23 14:29:30.4    -224   -513    -40    561    563 203.6  -4.1  34234  290.84 0854.41
2009/04/23 14:29:30.5     -75   -438    -43    445    448 189.7  -5.6  34246  291.04 0854.41
2009/04/23 14:29:30.6    -199   -377     55    427    431 207.9   7.4  34244  291.01 0854.41
2009/04/23 14:29:30.7    -243   -458     16    519    520 208.0   1.8  34234  290.82 0854.41
2009/04/23 14:29:30.8    -293   -409    -60    504    508 215.6  -6.8  34222  290.62 0854.41
2009/04/23 14:29:30.9    -293   -330   -152    442    468 221.7 -19.0  34218  290.55 0854.41
2009/04/23 14:29:31.0    -233   -322   -156    398    427 216.0 -27.1  34220  290.58 0854.41
2009/04/23 14:29:31.1    -200   -366   -115    418    434 208.7 -15.4  34232  290.80 0854.41
2009/04/23 14:29:31.2    -171   -341     14    382    383 206.6   2.1  34242  290.98 0854.41
2009/04/23 14:29:31.3     -49   -450     -7    453    454 186.3  -0.9  34230  290.77 0854.41
2009/04/23 14:29:31.4    -204   -294   -113    358    376 214.8 -17.5  34224  290.66 0854.41
2009/04/23 14:29:31.5    -182   -357    138    401    425 207.0  19.1  34238  290.90 0854.41
2009/04/23 14:29:31.6    -103   -384     35    398    400 195.1   5.1  34248  291.08 0854.41
2009/04/23 14:29:31.7     -53   -222     11    229    230 193.4   2.9  34246  291.04 0854.41
2009/04/23 14:29:31.8      25   -220    -96    222    241 173.3 -29.3  34246  291.04 0854.41
2009/04/23 14:29:31.9      37   -218     30    222    225 170.2   7.8  34238  290.91 0854.41
2009/04/23 14:29:32.0     306   -208    153    371    401 124.3  23.8  34236  290.86 0854.41
2009/04/23 14:29:32.1     322   -371    192    492    528 139.0  22.5  34224  290.66 0854.41
2009/04/23 14:29:32.2     388   -227    160    450    478 120.3  19.6  34224  290.66 0854.36
2009/04/23 14:29:32.3     590   -319     49    671    673 118.4   4.2  34232  290.80 0854.36
2009/04/23 14:29:32.4     546   -265     92    607    614 115.9   8.7  34238  290.88 0854.36
2009/04/23 14:29:32.5     205   -317    155    378    408 147.0  23.5  34232  290.81 0854.36
2009/04/23 14:29:32.6      25   -319     -3    321    322 175.5  -0.6  34242  290.95 0854.36
2009/04/23 14:29:32.7     -70   -354     -7    361    362 191.2  -1.2  34244  291.00 0854.36
2009/04/23 14:29:32.8     -60   -225    -78    233    245 195.1 -23.6  34242  290.95 0854.36
2009/04/23 14:29:32.9     387   -183   -118    429    444 115.3 -20.0  34252  291.14 0854.36
2009/04/23 14:29:33.0     292   -173    -92    340    353 120.6 -15.2  34256  291.20 0854.36
2009/04/23 14:29:33.1     251   -278     23    375    376 138.0   3.6  34242  290.98 0854.36
2009/04/23 14:29:33.2     293   -224    129    369    390 127.4  20.0  34244  291.01 0854.36
2009/04/23 14:29:33.3     153   -226     38    273    276 145.9   8.0  34240  290.92 0854.36
2009/04/23 14:29:33.4     -44    -82    127     94    158 208.1  60.0  34258  291.25 0854.36
2009/04/23 14:29:33.5    -173    -35    -25    177    179 258.3  -8.2  34248  291.08 0854.36
2009/04/23 14:29:33.6    -211   -198     45    290    294 226.8   8.9  34264  291.33 0854.36
2009/04/23 14:29:33.7    -331   -166   -115    371    388 243.4 -22.3  34262  291.30 0854.36
2009/04/23 14:29:33.8    -125     80     34    149    154 302.5  13.1  34268  291.40 0854.36
2009/04/23 14:29:33.9     -18     88    184     90    204 348.4  72.1  34274  291.52 0854.36
2009/04/23 14:29:34.0     -12   -157    190    158    247 184.4  56.3  34300  291.96 0854.36
2009/04/23 14:29:34.1     -52   -256     90    262    278 191.6  18.9  34280  291.61 0854.36
2009/04/23 14:29:34.2     -26   -256    127    258    287 185.8  28.2  34288  291.75 0854.34
2009/04/23 14:29:34.3     -28   -259    239    261    353 186.3  47.3  34300  291.94 0854.34
2009/04/23 14:29:34.5     -41   -200    248    205    321 191.6  56.2  34280  291.61 0854.34
2009/04/23 14:29:34.6    -147   -316    263    349    437 205.0  40.8  34270  291.43 0854.34
2009/04/23 14:29:34.6    -121   -210     69    243    253 209.9  16.0  34266  291.36 0854.34
2009/04/23 14:29:34.7     157   -130    162    205    261 129.6  42.4  34272  291.48 0854.34
2009/04/23 14:29:34.8       0    -95    123     96    156 180.5  58.4  34278  291.59 0854.34
2009/04/23 14:29:34.9    -146   -297      5    331    332 206.2   0.9  34274  291.51 0854.34
2009/04/23 14:29:35.0     -73   -191     25    205    207 200.9   7.1  34268  291.40 0854.34
2009/04/23 14:29:35.1     -93   -118     17    151    152 218.3   6.5  34252  291.15 0854.34
2009/04/23 14:29:35.2    -112   -114    -49    160    167 224.5 -22.1  34252  291.15 0854.34
2009/04/23 14:29:35.3     -10    -32      1     34     35 198.3   2.9  34258  291.25 0854.34
2009/04/23 14:29:35.4     126     51     37    137    142  67.8  15.2  34276  291.55 0854.34
2009/04/23 14:29:35.5      50     91    137    105    172  28.9  58.7  34296  291.89 0854.34
2009/04/23 14:29:35.7     -24     98     87    101    133 346.2  45.8  34288  291.76 0854.34
2009/04/23 14:29:35.7     -30     55     88     63    108 331.0  60.5  34292  291.81 0854.34
2009/04/23 14:29:35.8      17    -14     53     23     57 129.5  75.0  34292  291.81 0854.34
2009/04/23 14:29:35.9     -16     47     -5     50     51 340.8  -6.2  34294  291.84 0854.34
2009/04/23 14:29:36.1     -48     80    -13     94     95 329.3  -8.2  34294  291.84 0854.34
2009/04/23 14:29:36.2    -130    188    -79    229    243 325.3 -19.1  34304  292.01 0854.34
2009/04/23 14:29:36.3      32    211      1    214    215   8.7   0.5  34290  291.79 0854.30
2009/04/23 14:29:36.4      -5    179    -49    180    187 358.2 -15.4  34282  291.66 0854.30
2009/04/23 14:29:36.5     -10    238     89    239    255 357.5  21.5  34274  291.50 0854.30
2009/04/23 14:29:36.6       3    150     46    151    159   1.4  17.1  34276  291.55 0854.30
2009/04/23 14:29:36.7     -34     22      8     41     42 303.3  11.1  34280  291.60 0854.30
2009/04/23 14:29:36.8    -305   -105     97    323    338 250.9  16.8  34244  291.01 0854.30
2009/04/23 14:29:36.9    -258    -11    123    259    286 267.4  27.2  34266  291.38 0854.30
2009/04/23 14:29:37.0    -213     83     71    229    240 291.5  17.3  34258  291.22 0854.30
2009/04/23 14:29:37.1    -274     11     41    275    279 272.4   8.5  34266  291.36 0854.30
2009/04/23 14:29:37.2    -303     90     37    317    320 286.6   6.7  34270  291.43 0854.30
2009/04/23 14:29:37.3    -318     49    -99    322    338 278.8 -17.2  34254  291.17 0854.30
2009/04/23 14:29:37.4    -221   -178     41    285    289 231.1   8.2  34260  291.26 0854.30
2009/04/23 14:29:37.5    -255   -185     45    316    320 234.1   8.2  34250  291.09 0854.30
2009/04/23 14:29:37.6    -163   -136     71    213    225 230.0  18.6  34250  291.09 0854.30
2009/04/23 14:29:37.7    -141    -77     77    161    178 241.2  27.3  34256  291.20 0854.30
2009/04/23 14:29:37.8    -246   -209    -43    324    327 229.6  -7.7  34238  290.88 0854.30
2009/04/23 14:29:37.9    -364   -236     -2    435    436 237.0  -0.3  34242  290.97 0854.30
2009/04/23 14:29:38.0    -195   -132     87    236    251 235.8  21.0  34254  291.17 0854.30
2009/04/23 14:29:38.1    -172    -37    -25    177    179 257.6  -8.2  34256  291.20 0854.30
2009/04/23 14:29:38.2    -139     44    -18    146    148 287.7  -7.3  34234  290.84 0854.30
2009/04/23 14:29:38.3    -219     79     54    233    240 290.0  13.1  34252  291.12 0854.28
2009/04/23 14:29:38.4     -76   -166     49    183    190 204.7  15.0  34260  291.28 0854.28
2009/04/23 14:29:38.5      36   -102     49    109    119 160.4  25.7  34258  291.25 0854.28
2009/04/23 14:29:38.6     -40   -202    -80    207    221 191.3 -26.7  34248  291.08 0854.28
2009/04/23 14:29:38.7    -125   -134    127    184    223 223.2  37.8  34260  291.26 0854.28
2009/04/23 14:29:38.8    -192    -56     86    201    218 253.6  24.3  34262  291.30 0854.28
2009/04/23 14:29:38.9    -191    -67     79    203    217 250.7  22.5  34264  291.35 0854.28
2009/04/23 14:29:39.0    -374     26    -74    375    383 274.0 -11.2  34216  290.52 0854.28
2009/04/23 14:29:39.1    -369   -122      5    389    390 251.7   0.8  34252  291.13 0854.28
2009/04/23 14:29:39.2    -282   -179    151    335    367 237.6  26.0  34258  291.23 0854.28
2009/04/23 14:29:39.3    -329   -129     97    354    368 248.5  15.4  34242  290.98 0854.28
2009/04/23 14:29:39.4    -279   -143     94    314    328 242.9  16.8  34274  291.50 0854.28
2009/04/23 14:29:39.5    -192   -184    107    267    287 226.2  23.0  34266  291.36 0854.28
2009/04/23 14:29:39.6    -374     19   -162    375    408 272.9 -29.4  34188  290.03 0854.28
2009/04/23 14:29:39.7    -127   -260   -185    290    343 206.1 -40.0  34214  290.49 0854.28
2009/04/23 14:29:39.8     -97   -326    107    341    358 196.7  17.4  34232  290.79 0854.28
2009/04/23 14:29:39.9    -104   -287    105    306    324 200.0  19.1  34232  290.78 0854.28
2009/04/23 14:29:40.0    -172   -208     34    271    274 219.6   7.2  34218  290.54 0854.28
2009/04/23 14:29:40.1    -180   -150    -77    235    248 230.2 -18.3  34216  290.53 0854.28
2009/04/23 14:29:40.2    -215   -186    -56    285    291 229.1 -11.1  34224  290.65 0854.28
2009/04/23 14:29:40.3    -119   -171     -8    209    210 215.0  -2.2  34222  290.62 0854.25
2009/04/23 14:29:40.4    -214   -426     45    477    480 206.7   5.4  34212  290.47 0854.25
2009/04/23 14:29:40.5    -133   -423    -59    444    448 197.5  -7.6  34208  290.38 0854.25
2009/04/23 14:29:40.6    -136   -279    113    311    330 206.1  20.7  34224  290.65 0854.25
2009/04/23 14:29:40.7      35   -311     -8    314    315 173.5  -1.6  34216  290.53 0854.25
2009/04/23 14:29:40.8     -63   -226     79    235    249 195.8  18.6  34230  290.75 0854.25
2009/04/23 14:29:40.9    -100   -239    160    260    305 202.7  34.8  34260  291.27 0854.25
2009/04/23 14:29:41.0     -63   -195    144    206    251 198.0  38.4  34260  291.27 0854.25
2009/04/23 14:29:41.1      51   -240    114    246    271 168.0  27.0  34254  291.17 0854.25
2009/04/23 14:29:41.2      98   -204    131    227    262 154.4  32.7  34246  291.04 0854.25
2009/04/23 14:29:41.3      66   -219     -9    230    231 163.1  -2.3  34232  290.81 0854.25
2009/04/23 14:29:41.4       7   -254     27    255    257 178.2   6.1  34236  290.85 0854.25
2009/04/23 14:29:41.5      -6   -197    105    198    224 181.8  30.3  34254  291.16 0854.25
2009/04/23 14:29:41.6      39   -278    142    281    314 171.9  28.7  34230  290.75 0854.25
2009/04/23 14:29:41.7     -53   -243    167    249    299 192.4  37.0  34248  291.05 0854.25
2009/04/23 14:29:41.8     -13   -177    217    178    280 184.4  56.4  34242  290.95 0854.25
2009/04/23 14:29:41.9      77   -202    191    217    289 159.1  45.8  34246  291.02 0854.25
2009/04/23 14:29:42.0     210   -115    160    240    288 118.9  36.7  34264  291.33 0854.25
2009/04/23 14:29:42.1     200    -84    211    218    303 112.8  49.0  34288  291.75 0854.25
2009/04/23 14:29:42.2     149   -104    159    182    241 124.9  45.8  34262  291.30 0854.25
2009/04/23 14:29:42.3     200   -152    208    252    326 127.3  43.7  34232  290.80 0854.25
2009/04/23 14:29:42.4     191   -152    233    245    338 128.6  48.5  34222  290.63 0854.25
2009/04/23 14:29:42.5     124   -246    136    276    307 153.3  28.2  34212  290.44 0854.25
2009/04/23 14:29:42.6      33   -340    211    342    401 174.3  34.6  34212  290.45 0854.25
2009/04/23 14:29:42.7      34   -342    222    344    409 174.2  35.7  34212  290.47 0854.25
2009/04/23 14:29:42.8      22   -384    181    385    425 176.6  27.1  34208  290.39 0854.25
2009/04/23 14:29:42.9     124   -320     96    344    358 158.8  15.7  34214  290.49 0854.25
2009/04/23 14:29:43.0      -9   -399     88    400    410 181.4  12.5  34216  290.51 0854.25
2009/04/23 14:29:43.1    -131   -506    106    523    534 194.6  11.5  34220  290.58 0854.25
2009/04/23 14:29:43.2       0   -402    150    403    430 180.0  21.3  34222  290.63 0854.25
2009/04/23 14:29:43.3      -5   -347    236    348    420 180.9  37.4  34218  290.57 0854.25
2009/04/23 14:29:43.4    -215   -404    147    458    481 208.0  17.8  34212  290.47 0854.25
2009/04/23 14:29:43.5    -135   -405     11    428    429 198.5   1.5  34224  290.65 0854.25
2009/04/23 14:29:43.6    -158   -476     60    502    506 198.4   6.9  34238  290.91 0854.25
2009/04/23 14:29:43.7    -200   -366    -68    418    424 208.7  -9.3  34256  291.19 0854.25
2009/04/23 14:29:43.8    -280   -374   -102    468    480 216.9 -12.3  34292  291.81 0854.25
2009/04/23 14:29:43.9    -276   -483    -59    557    561 209.8  -6.1  34260  291.28 0854.25
2009/04/23 14:29:44.0    -339   -390   -157    517    541 221.0 -17.0  34234  290.82 0854.25
2009/04/23 14:29:44.1    -200   -362   -154    414    441 208.9 -25.8  34230  290.75 0854.25
2009/04/23 14:29:44.2    -251   -406    -80    478    485 211.7  -9.6  34216  290.52 0854.25
2009/04/23 14:29:44.3     -66   -331    -13    338    339 191.4  -2.3  34210  290.42 0854.27
2009/04/23 14:29:44.4    -139   -323     11    352    353 203.3   1.8  34228  290.72 0854.27
2009/04/23 14:29:44.5    -173   -272      8    323    324 212.5   1.5  34236  290.87 0854.27
2009/04/23 14:29:44.6    -250    -26   -117    252    277 263.9 -31.0  34252  291.14 0854.27
2009/04/23 14:29:44.7    -252     11    -91    253    268 272.6 -24.8  34254  291.16 0854.27
2009/04/23 14:29:44.8    -283     76    -41    294    297 285.1  -8.0  34238  290.88 0854.27
2009/04/23 14:29:44.9    -347    208   -189    405    446 300.9 -31.5  34212  290.46 0854.27
2009/04/23 14:29:45.0    -387   -100   -125    400    419 255.4 -22.4  34230  290.77 0854.27
2009/04/23 14:29:45.1    -267   -169    -85    317    329 237.6 -15.0  34254  291.16 0854.27
2009/04/23 14:29:45.2    -321    -83    -99    332    347 255.5 -16.7  34230  290.77 0854.27
2009/04/23 14:29:45.3    -260     76   -135    271    302 286.4 -32.6  34232  290.80 0854.27
2009/04/23 14:29:45.4    -215     56    -44    223    228 284.6 -11.3  34230  290.75 0854.27
2009/04/23 14:29:45.5    -105    -22     50    108    119 258.1  27.1  34234  290.82 0854.27
2009/04/23 14:29:45.6    -112    -36    -12    118    119 251.8  -6.2  34244  291.01 0854.27
2009/04/23 14:29:45.7     -38     36    -38     53     65 313.1 -43.9  34240  290.94 0854.27
2009/04/23 14:29:45.8     -63   -122     43    138    145 207.6  17.3  34240  290.92 0854.27
2009/04/23 14:29:45.9     -25   -131    -19    134    136 191.1  -8.2  34240  290.94 0854.27
2009/04/23 14:29:46.0      53    -90     -4    105    106 149.3  -2.6  34238  290.91 0854.27
2009/04/23 14:29:46.1      94    -73     41    120    127 127.8  18.9  34236  290.87 0854.27
2009/04/23 14:29:46.2     125    -62     -3    140    141 116.6  -1.3  34232  290.81 0854.27
2009/04/23 14:29:46.3     181   -129      3    223    224 125.5   0.8  34222  290.64 0854.32
2009/04/23 14:29:46.4     200   -202    -11    285    286 135.2  -2.2  34220  290.58 0854.32
2009/04/23 14:29:46.5     227      0     36    228    231  90.0   9.0  34224  290.67 0854.32
2009/04/23 14:29:46.6     208   -106     51    234    240 117.0  12.4  34226  290.68 0854.32
2009/04/23 14:29:46.7     120   -269     20    295    296 155.9   3.9  34216  290.51 0854.32
2009/04/23 14:29:46.8      74   -181      0    196    197 157.5   0.0  34212  290.45 0854.32
2009/04/23 14:29:46.9     126   -125     62    178    189 134.9  19.2  34214  290.50 0854.32
2009/04/23 14:29:47.0     193   -233     59    303    309 140.3  11.1  34212  290.44 0854.32
2009/04/23 14:29:47.1     292   -134     36    322    325 114.6   6.4  34216  290.51 0854.32
2009/04/23 14:29:47.2     244   -203     12    318    319 129.8   2.2  34212  290.46 0854.32
2009/04/23 14:29:47.3     292   -228     24    371    372 128.0   3.7  34214  290.50 0854.32
2009/04/23 14:29:47.4     269   -260     92    375    387 134.0  13.9  34210  290.43 0854.32
2009/04/23 14:29:47.5     303   -192     41    359    362 122.4   6.6  34212  290.45 0854.32
2009/04/23 14:29:47.6     293   -208     32    360    362 125.3   5.2  34214  290.50 0854.32
2009/04/23 14:29:47.7     177   -151    168    233    287 130.4  39.5  34220  290.58 0854.32
2009/04/23 14:29:47.8     245   -124    102    275    293 117.0  21.0  34220  290.59 0854.32
2009/04/23 14:29:47.9     165    -65    108    178    208 111.5  34.2  34224  290.67 0854.32
2009/04/23 14:29:48.0     163   -143    140    217    258 131.3  35.7  34222  290.61 0854.32
2009/04/23 14:29:48.1     185    -58     43    195    200 107.5  12.6  34218  290.55 0854.32
2009/04/23 14:29:48.2     164    -16    111    165    198  95.9  37.4  34226  290.69 0854.32
2009/04/23 14:29:48.3     122    -40     77    129    150 108.2  33.5  34226  290.69 0854.35
2009/04/23 14:29:48.4      87      1     84     88    121  88.7  49.0  34226  290.69 0854.35
2009/04/23 14:29:48.5      89     86     55    124    135  46.0  25.2  34234  290.82 0854.35
2009/04/23 14:29:48.6      81     98     26    128    131  39.7  11.6  34230  290.77 0854.35
2009/04/23 14:29:48.7      24     60     -8     65     66  21.8  -7.3  34232  290.79 0854.35
2009/04/23 14:29:48.8     -14    112     -4    113    114 352.4  -2.2  34234  290.82 0854.35
2009/04/23 14:29:48.9       1     92     43     93    102   0.9  26.6  34240  290.92 0854.35
2009/04/23 14:29:49.0     -62     55     75     84    112 311.8  46.9  34246  291.03 0854.35
2009/04/23 14:29:49.1     -95     24     78     99    126 284.6  42.2  34266  291.37 0854.35
2009/04/23 14:29:49.2     -43     -8     73     44     85 258.5  65.7  34280  291.62 0854.35
2009/04/23 14:29:49.3     105    -17     78    107    132  99.2  39.7  34266  291.37 0854.35
2009/04/23 14:29:49.4     134    152    109    204    231  41.4  30.3  34278  291.57 0854.35
2009/04/23 14:29:49.5     139    139    126    197    233  45.0  35.6  34298  291.93 0854.35
2009/04/23 14:29:49.6     121    163    157    204    257  36.7  41.4  34300  291.96 0854.35
2009/04/23 14:29:49.7     107    154    161    188    247  35.0  44.9  34310  292.13 0854.35
2009/04/23 14:29:49.8     148    148    144    210    254  45.0  37.8  34284  291.68 0854.35
2009/04/23 14:29:49.9     117    171    146    208    254  34.3  38.6  34284  291.67 0854.35
2009/04/23 14:29:50.0      18    144     79    146    166   7.1  30.8  34270  291.43 0854.35
2009/04/23 14:29:50.1      72    151    -43    168    174  25.4 -14.5  34256  291.20 0854.35
2009/04/23 14:29:50.2      22    113    -33    116    121  11.1 -16.0  34256  291.20 0854.35
2009/04/23 14:29:50.3       8    101     -5    102    103   4.9  -3.1  34272  291.49 0854.38
2009/04/23 14:29:50.4      33     54     80     64    102  31.6  56.9  34292  291.81 0854.38
2009/04/23 14:29:50.5     -28     49     68     57     88 330.1  55.8  34310  292.12 0854.38
2009/04/23 14:29:50.6     -82    -22     38     85     93 254.9  25.7  34316  292.22 0854.38
2009/04/23 14:29:50.7     -66    -48     20     82     85 234.1  14.3  34328  292.42 0854.38
2009/04/23 14:29:50.8     -49     -3     27     50     56 265.6  30.3  34316  292.22 0854.38
2009/04/23 14:29:50.9     -45     41     31     62     69 312.2  27.3  34306  292.05 0854.38
2009/04/23 14:29:51.0     -48     15    -56     51     75 288.2 -56.6  34308  292.08 0854.38
2009/04/23 14:29:51.1       2    -40   -102     41    109 176.4 -81.5  34278  291.57 0854.38
2009/04/23 14:29:51.2     -55    -42     72     70    100 232.2  50.7  34296  291.88 0854.38
2009/04/23 14:29:51.3    -290    -75    -58    300    306 255.4 -11.0  34252  291.12 0854.38
2009/04/23 14:29:51.4    -239    -87     -9    255    256 250.0  -2.2  34242  290.95 0854.38
2009/04/23 14:29:51.5    -236    -55    119    243    270 256.7  27.8  34286  291.70 0854.38
2009/04/23 14:29:51.6    -258      9     70    259    269 272.1  15.3  34314  292.18 0854.38
2009/04/23 14:29:51.7    -151     16     95    152    179 276.2  35.2  34306  292.05 0854.38
2009/04/23 14:29:51.8    -157   -110     45    192    198 234.9  13.2  34308  292.10 0854.38
2009/04/23 14:29:51.9    -194   -139     74    239    251 234.3  17.3  34282  291.63 0854.38
2009/04/23 14:29:52.0    -210   -238    134    318    345 221.4  24.2  34260  291.28 0854.38
2009/04/23 14:29:52.1    -103   -165     79    195    210 211.9  23.1  34290  291.77 0854.38
2009/04/23 14:29:52.2    -132    -23     97    135    166 259.9  39.7  34326  292.39 0854.38
2009/04/23 14:29:52.3    -191   -182     72    265    275 226.4  15.3  34282  291.65 0854.42
2009/04/23 14:29:52.4    -208   -226     51    308    313 222.5   9.4  34280  291.61 0854.42
2009/04/23 14:29:52.5    -164   -266     15    313    314 211.6   2.8  34240  290.92 0854.42
2009/04/23 14:29:52.6      31   -359     98    361    375 175.0  15.2  34264  291.35 0854.42
2009/04/23 14:29:52.7     109   -205    170    233    288 152.1  39.7  34286  291.72 0854.42
2009/04/23 14:29:52.8     -10   -120    146    121    189 184.9  56.3  34304  292.03 0854.42
2009/04/23 14:29:52.9     -79   -110    144    136    198 215.6  52.0  34316  292.22 0854.42
2009/04/23 14:29:53.0     -51   -155    120    164    203 198.5  39.7  34294  291.86 0854.42
2009/04/23 14:29:53.1       8   -104    157    105    188 175.5  63.4  34286  291.71 0854.42
2009/04/23 14:29:53.2      18   -254    137    255    289 175.8  30.6  34270  291.44 0854.42
2009/04/23 14:29:53.3     -45   -366     61    369    375 187.1   9.4  34244  291.00 0854.42
2009/04/23 14:29:53.4    -254   -386     42    463    465 213.3   5.2  34262  291.29 0854.42
2009/04/23 14:29:53.5    -144   -235    122    276    301 211.6  25.2  34258  291.24 0854.42
2009/04/23 14:29:53.6    -116   -245    195    272    334 205.3  39.2  34270  291.44 0854.42
2009/04/23 14:29:53.7       6   -265    166    266    313 178.6  35.0  34258  291.22 0854.42
2009/04/23 14:29:53.8     -10   -224    207    225    305 182.7  47.7  34252  291.12 0854.42
2009/04/23 14:29:53.9     -75   -295    207    305    368 194.3  37.4  34254  291.18 0854.42
2009/04/23 14:29:54.0      14   -279    239    280    368 177.1  44.8  34258  291.25 0854.42
2009/04/23 14:29:54.1      55   -338    268    343    435 170.7  41.7  34266  291.36 0854.42
2009/04/23 14:29:54.2      77   -267    259    278    379 163.9  47.9  34294  291.85 0854.42
2009/04/23 14:29:54.3     162   -343    255    380    457 154.7  37.0  34280  291.60 0854.42
2009/04/23 14:29:54.4     149   -373    161    402    433 158.2  23.0  34244  291.01 0854.42
2009/04/23 14:29:54.5     152   -225    118    272    296 145.8  25.1  34256  291.21 0854.42
2009/04/23 14:29:54.6      66   -329    149    336    367 168.6  25.3  34252  291.15 0854.42
2009/04/23 14:29:54.7     149   -364    142    394    420 157.7  19.9  34258  291.24 0854.42
2009/04/23 14:29:54.8     121   -299    127    323    347 157.9  22.7  34246  291.03 0854.42
2009/04/23 14:29:54.9     198   -402     19    449    450 153.7   2.5  34244  291.01 0854.42
2009/04/23 14:29:55.0     198   -198    206    281    348 135.0  39.8  34274  291.50 0854.42
2009/04/23 14:29:55.1     120   -136    163    182    244 138.6  46.4  34264  291.35 0854.42
2009/04/23 14:29:55.2      30   -129     87    133    158 166.6  36.5  34240  290.94 0854.42
2009/04/23 14:29:55.3     -62   -219    124    228    259 196.0  31.0  34240  290.93 0854.40
2009/04/23 14:29:55.4    -170   -284    119    331    351 210.9  20.6  34248  291.05 0854.40
2009/04/23 14:29:55.5    -118   -249     86    276    290 205.3  17.3  34246  291.04 0854.40
2009/04/23 14:29:55.6    -139   -217    127    259    288 212.7  28.0  34242  290.95 0854.40
2009/04/23 14:29:55.7     -40   -244    135    248    282 189.3  31.3  34258  291.22 0854.40
2009/04/23 14:29:55.8     119   -336    214    357    416 160.4  33.7  34242  290.96 0854.40
2009/04/23 14:29:55.9    -183   -322    129    371    393 209.7  19.2  34238  290.88 0854.40
2009/04/23 14:29:56.0    -127   -243    223    275    354 207.6  43.3  34238  290.88 0854.40
2009/04/23 14:29:56.1     -12   -255    252    256    359 182.7  49.9  34234  290.84 0854.40
2009/04/23 14:29:56.2      45   -333    236    337    411 172.2  38.6  34240  290.93 0854.40
2009/04/23 14:29:56.3      46   -300    221    304    375 171.1  39.7  34242  290.98 0854.40
2009/04/23 14:29:56.4       2   -236    205    237    313 179.5  45.4  34232  290.78 0854.40
2009/04/23 14:29:56.5     127   -155    140    201    244 140.6  38.5  34240  290.92 0854.40
2009/04/23 14:29:56.6      77   -134    134    155    204 150.1  45.6  34238  290.89 0854.40
2009/04/23 14:29:56.7      68   -226     74    237    249 163.1  17.4  34234  290.82 0854.40
2009/04/23 14:29:56.8      22   -336     85    337    348 176.1  14.3  34238  290.88 0854.40
2009/04/23 14:29:56.9      20   -264    152    265    305 175.6  32.4  34240  290.92 0854.40
2009/04/23 14:29:57.0       0   -297     99    298    315 180.0  18.5  34240  290.92 0854.40
2009/04/23 14:29:57.1      -3   -296    111    297    317 180.7  21.5  34234  290.83 0854.40
2009/04/23 14:29:57.2      77   -245    144    258    295 162.4  31.4  34240  290.92 0854.40
2009/04/23 14:29:57.3      22   -237    133    239    273 174.7  31.4  34242  290.95 0854.37
2009/04/23 14:29:57.4     -37   -216    134    220    257 189.8  34.4  34244  290.99 0854.37
2009/04/23 14:29:57.5     -22   -203    128    205    241 186.2  35.2  34244  290.99 0854.37
2009/04/23 14:29:57.6     -19   -178    143    180    229 186.2  42.7  34242  290.96 0854.37
2009/04/23 14:29:57.7      26   -179    156    181    238 171.5  45.1  34238  290.89 0854.37
2009/04/23 14:29:57.8      -8    -80    161     81    180 186.2  71.4  34236  290.87 0854.37
2009/04/23 14:29:57.9      42    -11    144     44    150 105.1  82.3  34256  291.20 0854.37
2009/04/23 14:29:58.0       1      4    152      5    152  18.5  90.0  34250  291.09 0854.37
2009/04/23 14:29:58.1      -4    -99    152    100    181 182.7  63.9  34246  291.04 0854.37
2009/04/23 14:29:58.2      49    -60    102     78    128 140.4  58.5  34252  291.15 0854.37
2009/04/23 14:29:58.3      14    -77     76     79    109 169.3  49.0  34254  291.18 0854.37
2009/04/23 14:29:58.4     -22    -84     82     87    119 194.7  48.5  34248  291.06 0854.37
2009/04/23 14:29:58.5       0     -4     62      5     62 189.7  90.0  34260  291.28 0854.37
2009/04/23 14:29:58.6      -9   -117     98    118    153 184.5  43.8  34248  291.08 0854.37
2009/04/23 14:29:58.7     -30   -148    132    151    200 191.5  45.8  34246  291.04 0854.37
2009/04/23 14:29:58.8     -56   -128     65    140    154 203.6  27.1  34240  290.94 0854.37
2009/04/23 14:29:58.9      -5   -113     93    114    147 182.7  43.7  34248  291.08 0854.37
2009/04/23 14:29:59.0      19     43    128     48    136  23.6  79.1  34268  291.42 0854.37
2009/04/23 14:29:59.1     -58     45    122     74    142 307.8  65.7  34258  291.25 0854.37
2009/04/23 14:29:59.2     140   -122    131    187    228 131.1  38.6  34244  290.99 0854.37
2009/04/23 14:29:59.3     218   -105    245    243    345 115.8  50.1  34248  291.05 0854.35
2009/04/23 14:29:59.4     180   -119    167    216    273 123.5  41.7  34244  290.99 0854.35
2009/04/23 14:29:59.5     103   -162    152    193    245 147.4  42.4  34244  291.01 0854.35
2009/04/23 14:29:59.6      52   -167    154    176    233 162.6  45.8  34246  291.03 0854.35
2009/04/23 14:29:59.7     -32   -100    146    106    180 197.8  60.5  34244  290.99 0854.35
2009/04/23 14:29:59.8     104   -106    154    149    214 135.5  50.7  34248  291.08 0854.35
2009/04/23 14:29:59.9     142    -78    170    163    235 118.8  51.2  34248  291.08 0854.35
2009/04/23 14:30:00.0      88    -96    140    131    191 137.7  52.1  34252  291.13 0854.35
2009/04/23 14:30:00.1      20   -104     92    107    141 168.9  45.4  34254  291.16 0854.35
2009/04/23 14:30:00.2      33   -129     84    134    158 165.3  35.2  34248  291.06 0854.35
2009/04/23 14:30:00.3      44   -123    126    131    181 160.0  49.0  34242  290.98 0854.35
2009/04/23 14:30:00.4      18   -128    129    130    183 171.9  50.2  34244  291.01 0854.35
2009/04/23 14:30:00.5      16    -82    105     84    134 168.4  56.9  34252  291.13 0854.35
2009/04/23 14:30:00.6      42    -64     97     77    123 146.6  57.9  34258  291.25 0854.35
2009/04/23 14:30:00.7       5     37    102     38    108   8.0  79.2  34280  291.60 0854.35
2009/04/23 14:30:00.8      22    -47     93     53    107 154.7  67.7  34278  291.57 0854.35
2009/04/23 14:30:00.9     109    -36    108    116    158 108.6  47.9  34256  291.21 0854.35
2009/04/23 14:30:01.0      81    -42     91     92    129 117.5  50.0  34262  291.32 0854.35
2009/04/23 14:30:01.1      68    -51     88     86    123 126.9  50.1  34258  291.25 0854.35
2009/04/23 14:30:01.2      32    -20     62     39     73 122.4  64.7  34268  291.40 0854.35
2009/04/23 14:30:01.3      -3    -16     57     17     59 191.6  82.8  34260  291.28 0854.34
2009/04/23 14:30:01.4      15      8     50     18     53  61.1  81.2  34266  291.37 0854.34
2009/04/23 14:30:01.5      93     -2     86     94    127  91.7  47.5  34254  291.18 0854.34
2009/04/23 14:30:01.6      85    -15     86     87    122 100.1  50.0  34258  291.23 0854.34
2009/04/23 14:30:01.7     -11     -2     64     12     65 258.5  90.0  34278  291.57 0854.34
2009/04/23 14:30:01.8     -46     -9     60     47     76 258.5  57.5  34272  291.47 0854.34
2009/04/23 14:30:01.9       7     34     62     35     71  11.6  68.8  34268  291.42 0854.34
2009/04/23 14:30:02.0       2    -38     79     39     88 175.6  71.9  34268  291.40 0854.34
2009/04/23 14:30:02.1     -48   -133    178    142    227 200.0  57.1  34252  291.13 0854.34
2009/04/23 14:30:02.2     -90   -224    210    242    320 201.9  45.5  34240  290.93 0854.34
2009/04/23 14:30:02.3     -30   -242    212    244    323 187.1  45.4  34246  291.04 0854.34
2009/04/23 14:30:02.4     -57   -282    101    288    305 191.5  20.0  34246  291.02 0854.34
2009/04/23 14:30:02.5     -69   -295     57    304    310 193.3  10.7  34250  291.10 0854.34
2009/04/23 14:30:02.7     -78   -357   -126    366    388 192.4 -19.1  34230  290.77 0854.34
2009/04/23 14:30:02.8     101   -427    -61    439    444 166.6  -8.0  34236  290.85 0854.34
2009/04/23 14:30:02.9     184   -368    159    412    441 153.4  22.2  34238  290.89 0854.34
2009/04/23 14:30:03.0     -49   -150    184    159    243 198.3  54.6  34244  291.01 0854.34
2009/04/23 14:30:03.1     -64   -143    -54    157    167 204.1 -18.9  34232  290.79 0854.34
2009/04/23 14:30:03.2    -116   -146      3    187    188 218.5   1.2  34250  291.09 0854.34
2009/04/23 14:30:03.3    -111   -187      0    218    219 210.8   0.0  34248  291.08 0854.34
2009/04/23 14:30:03.4     -88   -193    -59    213    222 204.5 -15.5  34252  291.15 0854.32
2009/04/23 14:30:03.5     -41   -152     24    158    160 195.2   8.8  34248  291.08 0854.32
2009/04/23 14:30:03.6     -66   -126    -35    143    148 207.6 -13.9  34248  291.08 0854.32
2009/04/23 14:30:03.7       9   -208   -113    209    237 177.3 -35.2  34256  291.20 0854.32
2009/04/23 14:30:03.8      78   -124    -88    147    171 147.9 -38.1  34262  291.32 0854.32
2009/04/23 14:30:03.9     128    -45    -43    136    143 109.5 -17.6  34262  291.32 0854.32
2009/04/23 14:30:04.0     119    -20     46    121    129  99.7  21.0  34266  291.37 0854.32
2009/04/23 14:30:04.1     202    -14    118    203    234  94.1  32.9  34272  291.49 0854.32
2009/04/23 14:30:04.2     140    -39     94    146    173 105.5  35.6  34262  291.30 0854.32
2009/04/23 14:30:04.3     188   -172    139    255    290 132.4  31.3  34262  291.29 0854.32
2009/04/23 14:30:04.4     239   -253    236    349    421 136.6  37.3  34248  291.08 0854.32
2009/04/23 14:30:04.5     110   -152    220    188    289 144.2  55.4  34252  291.14 0854.32
2009/04/23 14:30:04.6      33   -358    275    360    453 174.6  41.3  34238  290.89 0854.32
2009/04/23 14:30:04.7      88   -338    205    350    405 165.3  33.1  34244  291.00 0854.32
2009/04/23 14:30:04.8      14   -346    209    347    405 177.7  34.0  34238  290.91 0854.32
2009/04/23 14:30:04.9      63   -345    256    351    434 169.5  39.7  34234  290.82 0854.32
2009/04/23 14:30:05.0     -42   -486    274    488    559 185.0  31.9  34234  290.84 0854.32
2009/04/23 14:30:05.1    -188   -492    180    527    558 201.0  18.9  34236  290.87 0854.32
2009/04/23 14:30:05.2    -289   -375    -55    474    478 217.7  -6.7  34238  290.91 0854.32
2009/04/23 14:30:05.3    -173   -297     94    344    357 210.3  15.3  34244  291.00 0854.32
2009/04/23 14:30:05.4     -49   -216     81    222    236 192.9  20.9  34240  290.94 0854.30
2009/04/23 14:30:05.5    -126   -197   -100    234    254 212.6 -29.0  34238  290.90 0854.30
2009/04/23 14:30:05.6    -110   -311    -94    330    343 199.5 -20.5  34240  290.93 0854.30
2009/04/23 14:30:05.7    -110   -266    -47    288    292 202.5  -9.3  34242  290.95 0854.30
2009/04/23 14:30:05.8     -14   -304      2    305    306 182.7   0.5  34246  291.02 0854.30
2009/04/23 14:30:05.9       4   -271     23    272    274 179.0   4.9  34246  291.02 0854.30
2009/04/23 14:30:06.0     -36   -426      0    428    429 184.9   0.1  34244  291.01 0854.30
2009/04/23 14:30:06.1      -6   -465   -165    466    495 180.8 -19.6  34238  290.88 0854.30
2009/04/23 14:30:06.2     -83   -311   -127    323    347 195.1 -27.1  34244  291.01 0854.30
2009/04/23 14:30:06.3    -120   -300   -152    324    357 201.8 -31.5  34244  291.01 0854.30
2009/04/23 14:30:06.4     -58   -226      4    234    235 194.5   1.2  34248  291.07 0854.30
2009/04/23 14:30:06.5      45   -239     -9    244    245 169.3  -2.2  34248  291.05 0854.30
2009/04/23 14:30:06.6     -39   -282     21    285    286 188.0   4.2  34250  291.09 0854.30
2009/04/23 14:30:06.7       0   -296     28    297    299 180.1   5.4  34246  291.02 0854.30
2009/04/23 14:30:06.8    -145   -385     90    412    422 200.7  12.4  34248  291.07 0854.30
2009/04/23 14:30:06.9    -149   -275   -101    313    329 208.5 -17.9  34254  291.16 0854.30
2009/04/23 14:30:07.0    -201   -309    -61    369    375 213.1  -9.5  34248  291.08 0854.30
2009/04/23 14:30:07.1     -33   -201   -119    204    236 189.3 -37.3  34252  291.13 0854.30
2009/04/23 14:30:07.2      33   -125    -14    130    131 164.9  -6.2  34248  291.08 0854.30
2009/04/23 14:30:07.3     -17    -94     49     96    107 190.2  28.2  34254  291.18 0854.30
2009/04/23 14:30:07.4      13    -30     40     33     51 156.4  56.4  34258  291.25 0854.31
2009/04/23 14:30:07.5      52     15    100     55    114  74.1  68.8  34256  291.21 0854.31
2009/04/23 14:30:07.6     -10     31     97     33    102 341.7  81.2  34264  291.35 0854.31
2009/04/23 14:30:07.7       2    143    126    144    191   1.0  45.8  34258  291.23 0854.31
2009/04/23 14:30:07.8     -85     11     61     86    105 277.5  39.1  34258  291.25 0854.31
2009/04/23 14:30:07.9     -75      1    -73     76    105 270.8 -53.8  34254  291.18 0854.31
2009/04/23 14:30:08.0       0     62    -78     63    100 359.1 -61.3  34260  291.26 0854.31
2009/04/23 14:30:08.1     132     67    -68    149    163  63.0 -30.3  34258  291.23 0854.31
2009/04/23 14:30:08.2     142    -46    -43    150    157 108.2 -16.0  34258  291.23 0854.31
2009/04/23 14:30:08.3     139      7    -43    140    146  87.0 -21.8  34262  291.30 0854.31
2009/04/23 14:30:08.4      95      7      4     96     97  85.6   2.8  34264  291.35 0854.31
2009/04/23 14:30:08.5      82     12     29     83     88  81.2  19.4  34264  291.35 0854.31
2009/04/23 14:30:08.6      41      3    -12     42     44  85.6 -16.6  34270  291.43 0854.31
2009/04/23 14:30:08.7      23    -24     -1     34     35 136.6  -2.2  34276  291.55 0854.31
2009/04/23 14:30:08.8       3     27     -3     28     29   6.2  -7.2  34268  291.40 0854.31
2009/04/23 14:30:08.9      59     49    -21     77     80  50.4 -15.5  34266  291.38 0854.31
2009/04/23 14:30:09.0      76     39     -7     86     87  62.9  -5.2  34260  291.28 0854.31
2009/04/23 14:30:09.1      20     42     19     47     50  25.4  23.0  34260  291.28 0854.31
2009/04/23 14:30:09.2     -15     77     14     79     81 348.5  10.1  34262  291.30 0854.31
2009/04/23 14:30:09.3     -27     78    -27     83     88 340.4 -18.1  34260  291.26 0854.31
2009/04/23 14:30:09.4    -120     71    -49    140    148 300.7 -23.8  34258  291.25 0854.30
2009/04/23 14:30:09.5    -101     77     20    128    130 307.3   9.0  34254  291.16 0854.30
2009/04/23 14:30:09.6     -55    -96      6    111    112 209.9   3.3  34258  291.25 0854.30
2009/04/23 14:30:09.7     -94    -79    -34    124    129 230.0 -15.5  34252  291.15 0854.30
2009/04/23 14:30:09.8     -79   -150     57    170    180 207.9  18.6  34252  291.13 0854.30
2009/04/23 14:30:09.9      -5    -41     95     42    103 187.1  75.0  34272  291.49 0854.30
2009/04/23 14:30:10.0       5    -74     66     75     99 175.5  45.8  34262  291.32 0854.30
2009/04/23 14:30:10.1      17    -65    156     68    170 164.8  75.0  34272  291.47 0854.30
2009/04/23 14:30:10.2      33   -232    112    235    260 171.8  27.2  34258  291.24 0854.30
2009/04/23 14:30:10.3      39   -268    108    271    291 171.5  23.0  34260  291.26 0854.30
2009/04/23 14:30:10.4      26   -363     87    364    375 175.8  13.5  34254  291.17 0854.30
2009/04/23 14:30:10.5      68   -270     73    279    289 165.7  14.7  34252  291.14 0854.30
2009/04/23 14:30:10.6      67   -224    100    234    254 163.3  24.6  34250  291.10 0854.30
2009/04/23 14:30:10.7      32   -230     81    233    247 172.0  19.2  34256  291.19 0854.30
2009/04/23 14:30:10.8     -17   -226     44    227    232 184.5  11.0  34256  291.21 0854.30
2009/04/23 14:30:10.9      12   -155     42    156    162 175.5  15.3  34260  291.28 0854.30
2009/04/23 14:30:11.0      24   -109     -6    112    113 167.5  -3.1  34258  291.25 0854.30
2009/04/23 14:30:11.1      71    -43     54     84     99 121.5  35.6  34262  291.30 0854.30
2009/04/23 14:30:11.2      60    -49     66     78    102 129.6  44.8  34264  291.33 0854.30
2009/04/23 14:30:11.3      41    -79     40     90     98 152.4  25.7  34258  291.25 0854.30
2009/04/23 14:30:11.4      90    -31     50     96    108 109.1  29.3  34260  291.26 0854.31
2009/04/23 14:30:11.5      91    -85    108    125    165 133.1  45.4  34262  291.30 0854.31
2009/04/23 14:30:11.6      97   -127    110    160    194 142.6  37.8  34264  291.33 0854.31
2009/04/23 14:30:11.7      85   -109     43    139    146 142.2  17.4  34258  291.25 0854.31
2009/04/23 14:30:11.8      87   -101     26    134    137 139.0  11.1  34258  291.25 0854.31
2009/04/23 14:30:11.9      59   -116     31    131    135 152.8  13.7  34256  291.21 0854.31
2009/04/23 14:30:12.0     -13   -119     54    120    131 186.7  26.2  34250  291.11 0854.31
2009/04/23 14:30:12.1     -19    -83    -25     86     90 193.4 -16.6  34254  291.16 0854.31
2009/04/23 14:30:12.2      -1    -75    -49     76     90 180.9 -40.0  34264  291.35 0854.31
2009/04/23 14:30:12.3      -6    -62    -69     63     93 186.2 -56.6  34266  291.37 0854.31
2009/04/23 14:30:12.4     -58    -79    -93     99    135 216.5 -52.9  34262  291.32 0854.31
2009/04/23 14:30:12.5    -116   -119    -59    167    178 224.3 -19.4  34242  290.96 0854.31
2009/04/23 14:30:12.6     -88    -99    -89    133    160 221.4 -41.4  34246  291.03 0854.31
2009/04/23 14:30:12.7      -4    -70    -96     71    119 183.6 -64.4  34250  291.11 0854.31
2009/04/23 14:30:12.8      16    -46   -105     49    115 160.0 -77.5  34250  291.09 0854.31
2009/04/23 14:30:12.9     -58    -33   -134     67    149 240.2 -76.3  34262  291.30 0854.31
2009/04/23 14:30:13.0     -79     11   -127     80    150 277.9 -69.1  34258  291.25 0854.31
2009/04/23 14:30:13.1      84   -245   -203    260    329 161.1 -46.5  34264  291.34 0854.31
2009/04/23 14:30:13.2      16   -100   -141    102    174 170.7 -65.2  34266  291.38 0854.31
2009/04/23 14:30:13.3     -95    -82    -16    126    128 229.1  -7.2  34260  291.26 0854.31
2009/04/23 14:30:13.4      52   -119   -122    131    179 156.3 -52.3  34258  291.23 0854.33
2009/04/23 14:30:13.5      80    -91    -45    122    130 138.6 -25.3  34264  291.33 0854.33
2009/04/23 14:30:13.6      87    -43    -28     98    101 116.2 -20.7  34270  291.45 0854.33
2009/04/23 14:30:13.7      47      6      1     48     49  82.1   1.8  34276  291.54 0854.33
2009/04/23 14:30:13.8      37     78    -11     87     88  25.9  -7.3  34288  291.74 0854.33
2009/04/23 14:30:13.9     -49    123    -17    133    135 338.2  -7.3  34270  291.45 0854.33
2009/04/23 14:30:14.0      -8    112     85    113    141 355.5  40.7  34276  291.55 0854.33
2009/04/23 14:30:14.1      83     62     87    104    135  53.1  43.8  34270  291.45 0854.33
2009/04/23 14:30:14.2      85     40     54     95    109  64.6  31.9  34272  291.47 0854.33
2009/04/23 14:30:14.3      72     29    -12     78     80  67.4  -9.3  34272  291.49 0854.33
2009/04/23 14:30:14.4       1     28      0     29     30   2.7  -1.3  34276  291.54 0854.33
2009/04/23 14:30:14.5     -56     38     22     68     72 304.2  18.4  34274  291.52 0854.33
2009/04/23 14:30:14.6     -70     46     46     84     95 303.3  31.4  34276  291.55 0854.33
2009/04/23 14:30:14.7     -40    -11     90     42     99 254.1  73.1  34298  291.93 0854.33
2009/04/23 14:30:14.8     -10    -50     77     52     92 191.6  63.2  34294  291.84 0854.33
2009/04/23 14:30:14.9     -30    -22     59     38     70 234.0  64.6  34290  291.77 0854.33
2009/04/23 14:30:15.0     -14    -22     74     27     78 212.5  81.2  34302  291.98 0854.33
2009/04/23 14:30:15.1     -46    -34     66     58     87 234.0  53.7  34288  291.76 0854.33
2009/04/23 14:30:15.2     -45    -30     87     55    102 236.7  64.7  34266  291.37 0854.33
2009/04/23 14:30:15.3      37    -20     93     43    102 118.9  73.5  34280  291.62 0854.33
2009/04/23 14:30:15.4     105   -121    104    161    191 139.0  35.6  34254  291.16 0854.32
2009/04/23 14:30:15.5      80   -126    160    150    219 147.4  52.1  34250  291.11 0854.32
2009/04/23 14:30:15.6    -147   -319    150    352    382 204.7  24.6  34246  291.03 0854.32
2009/04/23 14:30:15.7     -23   -219    114    221    248 186.2  29.3  34250  291.09 0854.32
2009/04/23 14:30:15.8     -28   -201     87    204    221 188.0  24.3  34252  291.13 0854.32
2009/04/23 14:30:15.9     -63   -236     -9    245    246 195.1  -2.2  34246  291.04 0854.32
2009/04/23 14:30:16.0      12   -158    -86    159    180 175.5 -35.2  34244  291.01 0854.32
2009/04/23 14:30:16.1      39   -190    -54    195    203 168.4 -15.5  34244  290.99 0854.32
2009/04/23 14:30:16.2      57   -154    -18    165    167 159.7  -6.5  34242  290.98 0854.32
2009/04/23 14:30:16.3      36   -107     12    113    114 161.3   6.5  34244  290.99 0854.32
2009/04/23 14:30:16.4      24   -109     51    112    123 167.5  25.7  34246  291.04 0854.33
2009/04/23 14:30:16.5     -44   -111     76    120    142 201.8  35.5  34254  291.16 0854.33
2009/04/23 14:30:16.6     -44    -87     86     98    130 207.2  45.8  34264  291.35 0854.33
2009/04/23 14:30:16.7     -51   -120     80    131    153 203.2  35.0  34274  291.50 0854.33
2009/04/23 14:30:16.8     -61   -123     63    138    151 206.3  26.6  34276  291.54 0854.33
2009/04/23 14:30:16.9     -65    -65     53     92    106 225.0  32.4  34274  291.50 0854.33
2009/04/23 14:30:17.0     -99    -26     35    103    109 254.9  18.9  34278  291.57 0854.33
2009/04/23 14:30:17.1     -83    -61     36    104    111 233.6  19.2  34262  291.32 0854.33
2009/04/23 14:30:17.2     -54   -155     -6    165    166 199.4  -2.1  34276  291.54 0854.33
2009/04/23 14:30:17.3     -69   -147     27    163    166 205.4   9.5  34270  291.43 0854.33
2009/04/23 14:30:17.4     -49   -154     51    162    171 197.8  17.7  34266  291.37 0854.33
2009/04/23 14:30:17.5     -55   -177     81    186    202 197.4  25.1  34256  291.21 0854.33
2009/04/23 14:30:17.6     -90   -190     65    211    221 205.5  17.3  34268  291.40 0854.33
2009/04/23 14:30:17.7     -95   -136     65    167    179 215.0  22.5  34272  291.49 0854.33
2009/04/23 14:30:17.8     -95   -106     75    143    161 221.9  29.8  34264  291.35 0854.33
2009/04/23 14:30:17.9     -72    -68     99    100    140 226.4  50.0  34260  291.28 0854.33
2009/04/23 14:30:18.0     -30    -45     85     55    101 214.3  64.1  34268  291.40 0854.33
2009/04/23 14:30:18.1      -7    -67     74     68    100 186.2  52.2  34266  291.38 0854.33
2009/04/23 14:30:18.2      10    -77     74     78    107 172.0  48.5  34256  291.20 0854.33
2009/04/23 14:30:18.3       3    -93    100     94    137 177.8  52.1  34260  291.26 0854.33
2009/04/23 14:30:18.4     -11   -105     69    106    126 186.2  35.6  34246  291.04 0854.34
2009/04/23 14:30:18.5     -14    -82     59     84    102 190.2  39.1  34246  291.04 0854.34
2009/04/23 14:30:18.6       8    -62     36     63     72 171.9  31.4  34248  291.06 0854.34
2009/04/23 14:30:18.7      32    -64     51     72     88 152.8  38.6  34254  291.16 0854.34
2009/04/23 14:30:18.8      23    -46     30     52     60 152.8  32.4  34262  291.32 0854.34
2009/04/23 14:30:18.9      32    -17     30     37     47 118.9  43.7  34262  291.32 0854.34
2009/04/23 14:30:19.0      42      3     -1     43     44  84.8  -2.2  34254  291.16 0854.34
2009/04/23 14:30:19.1      18     -2      5     19     20  96.1  17.3  34250  291.11 0854.34
2009/04/23 14:30:19.2      16    -20     23     26     34 140.4  47.9  34258  291.23 0854.34
2009/04/23 14:30:19.3      14    -41     28     44     52 160.8  35.5  34250  291.09 0854.34
2009/04/23 14:30:19.4     -13   -144    -40    145    151 185.3 -15.4  34244  290.99 0854.34
2009/04/23 14:30:19.5     -19   -123    -25    125    128 188.9 -11.5  34246  291.03 0854.34
2009/04/23 14:30:19.6     -54   -111     17    124    126 206.3   8.0  34246  291.03 0854.34
2009/04/23 14:30:19.7     -19   -152    131    154    202 187.1  44.8  34258  291.25 0854.34
2009/04/23 14:30:19.8      70   -176    106    190    217 158.2  31.4  34256  291.20 0854.34
2009/04/23 14:30:19.9      68   -125     98    143    173 151.5  37.6  34254  291.18 0854.34
2009/04/23 14:30:20.0      17   -102    107    104    149 170.2  50.7  34262  291.32 0854.34
2009/04/23 14:30:20.1     -41   -155    157    161    224 195.1  49.8  34270  291.43 0854.34
2009/04/23 14:30:20.2    -143   -266    133    303    330 208.3  25.1  34254  291.16 0854.34
2009/04/23 14:30:20.3     -56   -297    140    303    333 190.7  26.5  34268  291.41 0854.34
2009/04/23 14:30:20.4     -53   -287    120    292    315 190.5  23.7  34276  291.55 0854.36
2009/04/23 14:30:20.5       0   -245    111    246    269 180.1  26.2  34274  291.51 0854.36
2009/04/23 14:30:20.6     -54   -292     95    297    312 190.6  17.8  34262  291.31 0854.36
2009/04/23 14:30:20.7     -72   -242    110    253    275 196.7  25.1  34288  291.73 0854.36
2009/04/23 14:30:20.8    -126   -199     36    236    239 212.5   8.9  34270  291.43 0854.36
2009/04/23 14:30:20.9     -98   -230     73    251    262 203.2  16.3  34274  291.51 0854.36
2009/04/23 14:30:21.0     -75   -176     80    192    208 203.2  23.8  34274  291.50 0854.36
2009/04/23 14:30:21.1     -15   -124     62    125    139 187.1  28.2  34300  291.95 0854.36
2009/04/23 14:30:21.2       0   -106     41    107    114 179.5  21.5  34282  291.64 0854.36
2009/04/23 14:30:21.3     -75    -79     37    110    117 223.7  18.9  34268  291.42 0854.36
2009/04/23 14:30:21.4     -88    -70     -5    113    114 231.4  -2.6  34276  291.54 0854.36
2009/04/23 14:30:21.5    -158    -34     43    162    168 257.6  15.0  34278  291.57 0854.36
2009/04/23 14:30:21.6    -206    -69    -20    218    220 251.4  -5.4  34240  290.94 0854.36
2009/04/23 14:30:21.7    -226   -125    -42    259    263 241.1  -9.3  34260  291.27 0854.36
2009/04/23 14:30:21.8    -176   -124     58    216    224 234.7  15.2  34268  291.40 0854.36
2009/04/23 14:30:21.9    -189    -76     61    204    214 248.0  16.8  34268  291.42 0854.36
2009/04/23 14:30:22.0    -235   -160      4    285    286 235.8   0.8  34268  291.39 0854.36
2009/04/23 14:30:22.1    -299   -211    -54    367    371 234.8  -8.4  34260  291.27 0854.36
2009/04/23 14:30:22.2    -375   -207      2    429    430 241.1   0.4  34274  291.50 0854.36
2009/04/23 14:30:22.3    -433   -181    -54    470    474 247.3  -6.6  34248  291.08 0854.36
2009/04/23 14:30:22.4    -403   -147   -112    430    445 250.0 -14.7  34240  290.94 0854.36
2009/04/23 14:30:22.5    -387   -140     18    412    413 250.1   2.5  34292  291.82 0854.36
2009/04/23 14:30:22.6    -342   -103    -78    358    367 253.2 -12.4  34294  291.85 0854.36
2009/04/23 14:30:22.7    -256     71     46    266    271 285.5   9.9  34262  291.29 0854.36
2009/04/23 14:30:22.9    -230    -65    119    240    267 254.1  28.2  34262  291.29 0854.36
2009/04/23 14:30:22.9    -154    -94    145    181    231 238.7  43.3  34262  291.32 0854.36
2009/04/23 14:30:23.0    -161    -67    138    175    222 247.2  42.2  34268  291.40 0854.36
2009/04/23 14:30:23.1    -116   -228     74    256    267 207.0  16.3  34248  291.07 0854.36
2009/04/23 14:30:23.2    -148   -194     50    245    251 217.4  11.6  34248  291.05 0854.36
2009/04/23 14:30:23.3     -87   -251     41    266    270 199.2   8.9  34250  291.10 0854.36
2009/04/23 14:30:23.4    -307    -94     64    322    329 252.9  11.3  34256  291.19 0854.36
2009/04/23 14:30:23.5    -218   -109     -9    244    245 243.4  -2.2  34252  291.14 0854.36
2009/04/23 14:30:23.6    -102   -116     71    155    170 221.4  26.4  34248  291.06 0854.36
2009/04/23 14:30:23.7    -111   -202    113    231    257 208.7  28.2  34256  291.21 0854.36
2009/04/23 14:30:23.8    -104   -256     68    277    286 202.1  13.9  34260  291.26 0854.36
2009/04/23 14:30:23.9    -109   -230     30    255    257 205.3   6.9  34254  291.17 0854.36
2009/04/23 14:30:24.0     -39   -259     27    262    264 188.7   5.9  34254  291.16 0854.36
2009/04/23 14:30:24.1     -30   -265     56    267    274 186.5  12.0  34256  291.19 0854.36
2009/04/23 14:30:24.2     -18   -241    113    242    267 184.5  27.1  34254  291.17 0854.36
2009/04/23 14:30:24.3     -18   -284     83    285    297 183.6  16.3  34254  291.16 0854.36
2009/04/23 14:30:24.4      -2   -258    127    259    288 180.5  28.0  34252  291.14 0854.37
2009/04/23 14:30:24.5      67   -203    156    214    264 161.7  39.7  34262  291.29 0854.37
2009/04/23 14:30:24.6      85   -212    198    229    302 158.1  45.4  34268  291.41 0854.37
2009/04/23 14:30:24.7      12   -232    159    233    282 176.9  37.6  34266  291.36 0854.37
2009/04/23 14:30:24.8     -33   -257    100    260    278 187.3  22.0  34258  291.22 0854.37
2009/04/23 14:30:24.9     -76   -219     18    232    233 199.2   4.6  34254  291.16 0854.37
2009/04/23 14:30:25.0    -113   -238     31    264    266 205.5   6.9  34246  291.02 0854.37
2009/04/23 14:30:25.1     -47   -250     16    255    256 190.7   3.8  34242  290.95 0854.37
2009/04/23 14:30:25.2     -42   -256    -32    260    263 189.3  -7.2  34238  290.90 0854.37
2009/04/23 14:30:25.3     -54   -261    -13    267    268 191.8  -2.8  34238  290.90 0854.37
2009/04/23 14:30:25.4     -48   -228    -45    234    239 192.0 -10.9  34238  290.88 0854.37
2009/04/23 14:30:25.5      -2   -204    -55    205    213 180.7 -15.0  34246  291.03 0854.37
2009/04/23 14:30:25.6      50   -252    -10    258    259 168.7  -2.2  34244  291.00 0854.37
2009/04/23 14:30:25.7      88   -196     67    216    227 155.7  17.3  34248  291.08 0854.37
2009/04/23 14:30:25.8      62   -158    142    170    221 158.6  44.1  34292  291.83 0854.37
2009/04/23 14:30:25.9      54   -185    135    193    235 163.5  38.6  34274  291.50 0854.37
2009/04/23 14:30:26.0     -44   -189    145    195    243 193.1  40.4  34262  291.30 0854.37
2009/04/23 14:30:26.1     -52   -188    216    196    291 195.4  53.2  34254  291.17 0854.37
2009/04/23 14:30:26.2     -98   -200    178    223    285 206.1  42.8  34244  290.99 0854.37
2009/04/23 14:30:26.3     -42   -271    122    275    300 188.9  25.2  34240  290.92 0854.37
2009/04/23 14:30:26.4      -8   -274    132    275    305 181.8  27.3  34244  290.99 0854.36
2009/04/23 14:30:26.5     -57   -309    140    315    344 190.6  25.7  34242  290.98 0854.36
2009/04/23 14:30:26.6      -8   -296    125    297    322 181.6  24.2  34246  291.04 0854.36
2009/04/23 14:30:26.7      -9   -295    139    296    327 181.8  27.1  34246  291.04 0854.36
2009/04/23 14:30:26.8     -20   -266     73    267    277 184.5  15.3  34248  291.05 0854.36
2009/04/23 14:30:26.9     -86   -248    100    263    281 199.2  21.7  34252  291.14 0854.36
2009/04/23 14:30:27.0     -34   -235    105    238    260 188.2  25.2  34258  291.22 0854.36
2009/04/23 14:30:27.1     -45   -238    119    243    270 190.7  27.8  34254  291.16 0854.36
2009/04/23 14:30:27.2     -62   -164    150    176    231 200.9  44.8  34246  291.03 0854.36
2009/04/23 14:30:27.3     -64   -146    132    160    207 203.7  43.8  34236  290.86 0854.36
2009/04/23 14:30:27.4     -85   -161    123    183    220 207.9  37.3  34242  290.98 0854.36
2009/04/23 14:30:27.5    -109   -128     86    169    189 220.5  28.7  34236  290.87 0854.36
2009/04/23 14:30:27.6     -66   -139    101    155    185 205.5  36.0  34234  290.84 0854.36
2009/04/23 14:30:27.7    -100   -157    115    187    219 212.5  34.8  34244  290.99 0854.36
2009/04/23 14:30:27.8    -145   -145     85    206    222 225.0  23.4  34270  291.43 0854.36
2009/04/23 14:30:27.9    -147   -146    137    208    249 225.2  36.5  34270  291.44 0854.36
2009/04/23 14:30:28.0    -145    -68    -60    161    171 244.8 -25.7  34266  291.37 0854.36
2009/04/23 14:30:28.1    -229    -28    -63    231    239 262.8 -20.0  34298  291.90 0854.36
2009/04/23 14:30:28.2    -233    -24    -69    235    246 263.9 -16.5  34298  291.90 0854.36
2009/04/23 14:30:28.3    -203    -28    -73    206    219 262.0 -19.7  34290  291.77 0854.36
2009/04/23 14:30:28.4    -388    -78   -112    396    411 258.5 -20.4  34286  291.70 0854.37
2009/04/23 14:30:28.5    -339      0   -158    340    374 270.0 -31.3  34284  291.69 0854.37
2009/04/23 14:30:28.6    -451     17   -134    452    471 272.3 -21.4  34292  291.80 0854.37
2009/04/23 14:30:28.7    -359      5   -145    360    388 270.9 -27.4  34284  291.69 0854.37
2009/04/23 14:30:28.9    -291      0    -46    292    296 270.1  -9.0  34286  291.70 0854.37
2009/04/23 14:30:29.0    -161    -77    -58    179    189 244.5 -18.1  34296  291.88 0854.37
2009/04/23 14:30:29.1    -115      6     76    116    138 273.0  36.0  34300  291.95 0854.37
2009/04/23 14:30:29.2    -172     32    109    175    206 280.6  35.2  34290  291.79 0854.37
2009/04/23 14:30:29.2    -141    -26    121    144    188 259.4  44.1  34286  291.72 0854.37
2009/04/23 14:30:29.4     -83   -102    170    132    215 219.2  58.4  34300  291.96 0854.37
2009/04/23 14:30:29.5     -38   -149    129    154    200 194.3  44.3  34282  291.66 0854.37
2009/04/23 14:30:29.6    -100   -138     61    171    181 215.8  20.4  34270  291.43 0854.37
2009/04/23 14:30:29.7      14    -40    114     43    121 160.8  79.1  34290  291.77 0854.37
2009/04/23 14:30:29.8       6   -138    129    139    189 177.3  47.9  34276  291.54 0854.37
2009/04/23 14:30:29.9       3    -51    103     52    115 175.6  71.9  34284  291.69 0854.37
2009/04/23 14:30:30.0     -81   -128    105    152    184 212.6  37.8  34268  291.40 0854.37
2009/04/23 14:30:30.1    -115   -166    119    202    234 214.7  33.4  34268  291.40 0854.37
2009/04/23 14:30:30.2    -173   -143    139    225    264 230.4  35.0  34268  291.41 0854.37
2009/04/23 14:30:30.3    -267   -153    118    308    329 240.2  21.8  34270  291.43 0854.37
2009/04/23 14:30:30.4    -205      3     -4    206    207 270.9  -1.2  34286  291.72 0854.37
2009/04/23 14:30:30.5    -109    -40     61    117    131 249.6  29.3  34278  291.59 0854.36
2009/04/23 14:30:30.6    -358   -129     19    381    382 250.2   2.9  34302  291.98 0854.36
2009/04/23 14:30:30.7    -506    -11     99    507    517 268.7  11.1  34286  291.71 0854.36
2009/04/23 14:30:30.8    -433    -31    111    435    450 265.9  14.4  34292  291.82 0854.36
2009/04/23 14:30:30.9    -331    -80     41    341    344 256.4   6.9  34278  291.59 0854.36
2009/04/23 14:30:31.0    -233      6    129    234    267 271.7  31.4  34286  291.72 0854.36
2009/04/23 14:30:31.1    -354   -161     61    390    395 245.5   8.9  34278  291.57 0854.36
2009/04/23 14:30:31.2    -175   -164    -86    241    255 226.9 -24.6  34270  291.44 0854.36
2009/04/23 14:30:31.3      -9    -87    208     88    225 186.2  75.9  34288  291.76 0854.36
2009/04/23 14:30:31.4     -94   -200    258    222    340 205.3  54.9  34282  291.63 0854.36
2009/04/23 14:30:31.5    -182   -249    173    309    354 216.3  31.7  34274  291.52 0854.36
2009/04/23 14:30:31.6    -133   -146     68    198    210 222.3  18.9  34276  291.54 0854.36
2009/04/23 14:30:31.7     -54   -150    111    160    194 200.1  38.0  34276  291.55 0854.36
2009/04/23 14:30:31.8    -128   -193    178    232    292 213.6  41.4  34270  291.44 0854.36
2009/04/23 14:30:31.9    -258   -102     76    278    289 248.3  15.3  34278  291.58 0854.36
2009/04/23 14:30:32.0    -203   -124    104    239    260 238.5  25.1  34270  291.44 0854.36
2009/04/23 14:30:32.1    -222   -181    103    287    304 230.7  20.7  34272  291.46 0854.36
2009/04/23 14:30:32.2    -149   -242    189    285    341 211.6  36.6  34286  291.70 0854.36
2009/04/23 14:30:32.3    -222   -136     76    261    272 238.5  16.3  34300  291.96 0854.36
2009/04/23 14:30:32.4    -101   -266    159    285    326 201.0  31.7  34292  291.82 0854.36
2009/04/23 14:30:32.5    -301      4     25    302    304 270.8   4.9  34318  292.24 0854.36
2009/04/23 14:30:32.6    -226    -14     62    227    236 266.3  15.3  34314  292.18 0854.36
2009/04/23 14:30:32.7    -217   -241     78    325    335 222.0  13.5  34278  291.59 0854.36
2009/04/23 14:30:32.8    -106   -151     99    185    209 215.2  30.6  34280  291.60 0854.36
2009/04/23 14:30:32.9     -22    -74    122     78    144 196.9  64.6  34286  291.72 0854.36
2009/04/23 14:30:33.0      20   -170    225    172    283 173.3  58.5  34274  291.50 0854.36
2009/04/23 14:30:33.1       4    -12    122     13    122 161.3  90.0  34290  291.79 0854.36
2009/04/23 14:30:33.2     -28    114    119    118    167 346.2  50.1  34296  291.88 0854.36
2009/04/23 14:30:33.3     -30     25     31     40     50 309.5  42.7  34300  291.95 0854.36
2009/04/23 14:30:33.4     -38     -7    106     39    112 258.5  79.7  34304  292.01 0854.36
2009/04/23 14:30:33.5    -172    -37    131    177    220 257.8  40.1  34296  291.88 0854.36
2009/04/23 14:30:33.6    -136    -69    135    153    204 242.9  45.9  34300  291.95 0854.36
2009/04/23 14:30:33.7    -113    -87     84    143    165 232.3  33.1  34290  291.79 0854.36
2009/04/23 14:30:33.8    -173   -149     77    229    242 229.3  18.6  34288  291.75 0854.36
2009/04/23 14:30:33.9    -151   -135    119    203    235 228.2  32.9  34290  291.77 0854.36
2009/04/23 14:30:34.0     -83   -124    122    150    193 213.8  43.7  34292  291.81 0854.36
2009/04/23 14:30:34.1    -116    -27     65    120    136 256.7  30.8  34294  291.86 0854.36
2009/04/23 14:30:34.2    -161     53     41    170    175 288.4  13.7  34306  292.06 0854.36
2009/04/23 14:30:34.3    -178    -55    124    187    224 252.7  36.5  34322  292.34 0854.36
2009/04/23 14:30:34.4    -186    -53     65    194    205 254.1  18.6  34340  292.63 0854.36
2009/04/23 14:30:34.5    -137   -146     74    201    214 223.0  20.9  34328  292.44 0854.36
2009/04/23 14:30:34.6    -143   -121     73    188    201 229.8  22.3  34324  292.37 0854.36
2009/04/23 14:30:34.7    -143    -43      9    150    151 253.2   3.8  34324  292.35 0854.36
2009/04/23 14:30:34.8    -183    -31     66    186    198 260.3  19.6  34328  292.44 0854.36
2009/04/23 14:30:34.9    -198    -40     74    202    215 258.5  20.9  34330  292.47 0854.36
2009/04/23 14:30:35.0    -230    -64     57    239    246 254.3  13.5  34328  292.43 0854.36
2009/04/23 14:30:35.1    -218    -16     30    219    222 265.6   7.8  34322  292.32 0854.36
2009/04/23 14:30:35.2    -265    -40     11    269    270 261.4   2.3  34330  292.45 0854.36
2009/04/23 14:30:35.3    -270    -37     13    273    274 262.1   2.9  34332  292.48 0854.36
2009/04/23 14:30:35.4    -192    -47     16    198    199 256.1   4.9  34334  292.54 0854.36
2009/04/23 14:30:35.5    -225    -45     79    230    244 258.5  18.9  34340  292.64 0854.36
2009/04/23 14:30:35.6    -201   -122      7    236    237 238.7   1.8  34336  292.55 0854.36
2009/04/23 14:30:35.7     -79   -159     65    178    189 206.5  20.7  34306  292.06 0854.36
2009/04/23 14:30:35.8     -59   -196     26    205    207 196.9   7.5  34298  291.93 0854.36
2009/04/23 14:30:35.9    -102   -181    107    208    233 209.4  29.3  34300  291.95 0854.36
2009/04/23 14:30:36.0    -167   -263    124    312    335 212.5  23.0  34300  291.96 0854.36
2009/04/23 14:30:36.1    -192   -284    112    343    361 214.1  18.1  34334  292.54 0854.36
2009/04/23 14:30:36.2     -99   -395     54    408    412 194.1   7.6  34278  291.58 0854.36
2009/04/23 14:30:36.3    -170   -250    105    303    321 214.3  19.2  34288  291.75 0854.36
2009/04/23 14:30:36.4    -405   -491   -132    637    651 219.5 -11.8  34258  291.22 0854.36
2009/04/23 14:30:36.5    -431   -544   -178    695    718 218.4 -14.4  34282  291.66 0854.35
2009/04/23 14:30:36.6    -433   -662   -135    792    804 213.2  -9.7  34298  291.90 0854.35
2009/04/23 14:30:36.7    -298   -657    -59    722    725 204.4  -4.7  34296  291.88 0854.35
2009/04/23 14:30:36.8     -79   -462    204    469    511 189.7  25.1  34298  291.90 0854.35
2009/04/23 14:30:36.9    -245   -724    184    765    787 198.7  13.6  34296  291.87 0854.35
2009/04/23 14:30:37.0     -20   -368    301    369    476 183.2  43.3  34288  291.75 0854.35
2009/04/23 14:30:37.1      15   -259    276    260    379 176.5  52.1  34288  291.76 0854.35
2009/04/23 14:30:37.2      28   -220    190    222    292 172.7  44.9  34296  291.87 0854.35
2009/04/23 14:30:37.3     120   -133    134    180    224 137.9  40.1  34296  291.89 0854.35
2009/04/23 14:30:37.4     144     27     98    147    176  79.4  36.7  34300  291.95 0854.35
2009/04/23 14:30:37.5      44     78     83     90    122  29.9  47.9  34304  292.01 0854.34
2009/04/23 14:30:37.6       1    121    120    122    171   0.9  50.0  34298  291.91 0854.34
2009/04/23 14:30:37.7     -13    169      8    170    171 355.5   2.8  34284  291.67 0854.34
2009/04/23 14:30:37.8      16    107     44    109    117   8.9  23.0  34292  291.81 0854.34
2009/04/23 14:30:37.9      31     94    132    100    165  18.3  59.2  34304  292.03 0854.34
2009/04/23 14:30:38.0       0    183     83    184    201   0.2  25.7  34294  291.84 0854.34
2009/04/23 14:30:38.1    -145     87      6    170    171 301.1   2.1  34288  291.76 0854.34
2009/04/23 14:30:38.2    -153     64     33    167    171 292.8  11.4  34290  291.77 0854.34
2009/04/23 14:30:38.3     -75     62     82     98    127 309.6  43.8  34284  291.67 0854.34
2009/04/23 14:30:38.4      48    160     15    168    169  16.9   5.4  34284  291.67 0854.34
2009/04/23 14:30:38.5       1     98     39     99    106   0.9  22.5  34278  291.59 0854.34
2009/04/23 14:30:38.6      36    174    -33    178    182  11.8 -10.5  34288  291.76 0854.34
2009/04/23 14:30:38.7      87    116    138    146    200  37.0  48.2  34302  291.98 0854.34
2009/04/23 14:30:38.8     172     95    125    197    233  61.1  35.5  34294  291.84 0854.34
2009/04/23 14:30:38.9      80     60    178    101    204  53.1  68.1  34304  292.01 0854.34
2009/04/23 14:30:39.0     216    -42    252    221    335 101.2  54.4  34292  291.82 0854.34
2009/04/23 14:30:39.1     171    -85    171    192    257 116.6  46.4  34292  291.82 0854.34
2009/04/23 14:30:39.2     207    -98    227    230    323 115.3  49.9  34280  291.60 0854.34
2009/04/23 14:30:39.3     171    -82    224    190    293 115.8  55.4  34282  291.63 0854.34
2009/04/23 14:30:39.4       0     -3    165      4    165 175.5  90.0  34298  291.91 0854.34
2009/04/23 14:30:39.5       7     33    180     34    183  13.4  90.0  34294  291.86 0854.34
2009/04/23 14:30:39.6      58     -6    302     59    307  96.1  89.4  34276  291.55 0854.34
2009/04/23 14:30:39.7      98     58    302    115    323  59.3  78.3  34280  291.61 0854.34
2009/04/23 14:30:39.8     194     15    296    195    354  85.4  63.6  34288  291.73 0854.34
2009/04/23 14:30:39.9     214    -84    263    231    350 111.5  54.3  34292  291.80 0854.34
2009/04/23 14:30:40.0      93    -59    174    111    206 122.4  64.7  34300  291.95 0854.34
2009/04/23 14:30:40.1     183   -122    271    221    349 123.7  56.5  34318  292.26 0854.34
2009/04/23 14:30:40.2     352    -59    284    358    456  99.6  42.6  34284  291.67 0854.34
2009/04/23 14:30:40.3     377    -50    297    381    483  97.6  42.0  34282  291.65 0854.34
2009/04/23 14:30:40.4     286    -40    232    289    370  98.0  43.0  34290  291.78 0854.34
2009/04/23 14:30:40.5     232    -54    272    239    362 103.2  54.3  34318  292.26 0854.34
2009/04/23 14:30:40.6     213    -97    237    235    333 114.4  50.2  34300  291.96 0854.34
2009/04/23 14:30:40.7     192   -114    278    224    357 120.6  57.1  34306  292.04 0854.34
2009/04/23 14:30:40.8     152    -93    217    179    281 121.3  56.3  34314  292.19 0854.34
2009/04/23 14:30:40.9     185     21    295    187    349  83.4  64.7  34318  292.26 0854.34
2009/04/23 14:30:41.0     158     32    268    162    313  78.5  66.1  34328  292.43 0854.34
2009/04/23 14:30:41.1      34     71    226     79    239  25.5  80.2  34318  292.27 0854.34
2009/04/23 14:30:41.2      78   -131    188    153    242 149.3  56.6  34296  291.88 0854.34
2009/04/23 14:30:41.3     -23     45    173     51    180 332.8  83.1  34302  291.98 0854.34
2009/04/23 14:30:41.4      75     74    166    106    196  45.6  64.6  34298  291.93 0854.34
2009/04/23 14:30:41.5     281     78    331    292    441  74.3  54.2  34298  291.91 0854.33
2009/04/23 14:30:41.6     223    105    239    247    343  64.6  49.1  34298  291.92 0854.33
2009/04/23 14:30:41.7     283     71    321    292    433  75.8  53.2  34298  291.90 0854.33
2009/04/23 14:30:41.8     283     86    287    296    412  73.1  49.0  34298  291.91 0854.33
2009/04/23 14:30:41.9     342     86    300    353    463  75.8  44.7  34302  291.98 0854.33
2009/04/23 14:30:42.0     296     79    256    307    399  75.0  44.1  34294  291.86 0854.33
2009/04/23 14:30:42.1       7     -4    241      9    241 122.4  90.0  34302  292.00 0854.33
2009/04/23 14:30:42.2    -133    -63    146    148    207 244.7  50.0  34302  292.00 0854.33
2009/04/23 14:30:42.3     -24    -64    151     69    166 200.9  73.8  34304  292.01 0854.33
2009/04/23 14:30:42.4      80    165    101    184    209  25.9  31.3  34306  292.05 0854.33
2009/04/23 14:30:42.5     129    172    181    216    281  37.0  44.3  34302  291.97 0854.33
2009/04/23 14:30:42.6     107    234    102    258    277  24.7  23.0  34284  291.68 0854.33
2009/04/23 14:30:42.7      40    220     99    224    244  10.5  25.3  34298  291.92 0854.33
2009/04/23 14:30:42.8     -46    251     48    256    261 349.5  10.8  34304  292.02 0854.33
2009/04/23 14:30:42.9    -112    346     14    364    365 342.0   2.3  34292  291.83 0854.33
2009/04/23 14:30:43.0    -132    313    256    340    425 337.1  40.7  34292  291.83 0854.33
2009/04/23 14:30:43.1     -22    320    233    321    396 356.0  39.7  34312  292.15 0854.33
2009/04/23 14:30:43.2    -179    322    289    369    468 331.0  42.1  34302  291.99 0854.33
2009/04/23 14:30:43.3    -293    290    143    413    438 314.7  19.2  34302  291.98 0854.33
2009/04/23 14:30:43.4    -172    126     94    214    233 306.4  25.2  34304  292.03 0854.33
2009/04/23 14:30:43.5    -320     -7    124    321    344 268.7  22.3  34342  292.66 0854.32
2009/04/23 14:30:43.6    -271   -108    107    292    310 248.2  20.9  34352  292.82 0854.32
2009/04/23 14:30:43.7    -278    -93     72    294    303 251.4  13.9  34360  292.96 0854.32
2009/04/23 14:30:43.8    -265   -109     42    287    291 247.6   8.5  34352  292.82 0854.32
2009/04/23 14:30:43.9    -275   -136    -22    308    309 243.6  -4.1  34338  292.60 0854.32
2009/04/23 14:30:44.0    -254   -184    -12    314    315 234.0  -2.3  34344  292.69 0854.32
2009/04/23 14:30:44.1    -214   -122    -38    247    250 240.2  -8.8  34340  292.62 0854.32
2009/04/23 14:30:44.2    -169   -124    -66    210    220 233.8 -22.8  34340  292.63 0854.32
2009/04/23 14:30:44.3    -200    -98    -14    223    224 243.8  -3.7  34360  292.97 0854.32
2009/04/23 14:30:44.4    -191   -142    -37    239    242 233.4  -8.8  34354  292.87 0854.32
2009/04/23 14:30:44.5    -203   -129    -27    241    243 237.6  -6.5  34360  292.98 0854.32
2009/04/23 14:30:44.6    -234    -99    -84    255    269 246.9 -18.3  34356  292.91 0854.32
2009/04/23 14:30:44.7    -211    -74    -54    224    231 250.7 -13.7  34352  292.83 0854.32
2009/04/23 14:30:44.8    -267    -41     74    271    281 261.2  15.3  34372  293.16 0854.32
2009/04/23 14:30:44.9    -251     -2     68    252    262 269.4  15.2  34368  293.11 0854.32
2009/04/23 14:30:45.0    -263    -11    -93    264    280 267.4 -19.4  34360  292.96 0854.32
2009/04/23 14:30:45.1    -272    -55    -43    278    282 258.6  -8.8  34354  292.86 0854.32
2009/04/23 14:30:45.2    -269    -38    -81    272    284 261.9 -16.6  34342  292.67 0854.32
2009/04/23 14:30:45.3    -338      6   -103    339    354 271.2 -21.8  34346  292.75 0854.32
2009/04/23 14:30:45.4    -308    -54    -12    313    314 259.9  -2.2  34364  293.05 0854.32
2009/04/23 14:30:45.5    -254     19    -87    255    270 274.4 -18.9  34360  292.96 0854.32
2009/04/23 14:30:45.6    -272    -36   -124    275    301 262.3 -30.3  34344  292.69 0854.32
2009/04/23 14:30:45.7    -265     26   -120    267    292 275.7 -30.1  34318  292.26 0854.32
2009/04/23 14:30:45.8    -343     14    -71    344    352 272.5 -11.8  34350  292.80 0854.32
2009/04/23 14:30:45.9    -298    -46    -51    302    307 261.2  -9.7  34360  292.96 0854.32
2009/04/23 14:30:46.0    -295   -128    -64    322    329 246.5 -11.3  34360  292.98 0854.32
2009/04/23 14:30:46.1    -201    -54     18    209    210 254.9   5.2  34358  292.95 0854.32
2009/04/23 14:30:46.2    -145    -11     47    146    154 265.6  17.9  34366  293.07 0854.32
2009/04/23 14:30:46.4     -99     63    103    118    156 302.4  45.8  34352  292.83 0854.32
2009/04/23 14:30:46.4     -73    -47     57     88    104 237.1  35.6  34360  292.97 0854.32
2009/04/23 14:30:46.5      24   -208     28    210    212 173.3   7.8  34346  292.73 0854.32
2009/04/23 14:30:46.6     -80   -196    -46    212    218 202.3 -12.4  34344  292.69 0854.32
2009/04/23 14:30:46.7     -31   -220    -28    223    225 188.0  -7.2  34338  292.59 0854.32
2009/04/23 14:30:46.8      72   -268    -20    278    279 164.8  -4.1  34340  292.62 0854.32
2009/04/23 14:30:46.9      28   -232    -38    234    238 172.9  -9.3  34330  292.45 0854.32
2009/04/23 14:30:47.0      47   -254    -77    259    271 169.4 -16.5  34318  292.24 0854.32
2009/04/23 14:30:47.1      96   -271    -94    288    304 160.4 -18.2  34316  292.21 0854.32
2009/04/23 14:30:47.2     142   -177    -23    228    230 141.3  -6.0  34320  292.30 0854.32
2009/04/23 14:30:47.3     206   -183    -12    276    277 131.6  -2.6  34322  292.31 0854.32
2009/04/23 14:30:47.4     130   -206     63    244    253 147.7  14.5  34316  292.21 0854.32
2009/04/23 14:30:47.5      40   -224    -63    228    236 169.8 -20.0  34312  292.16 0854.32
2009/04/23 14:30:47.6      53   -180    -63    188    198 163.5 -23.6  34310  292.13 0854.32
2009/04/23 14:30:47.7     118   -162      7    201    202 143.9   2.1  34308  292.08 0854.32
2009/04/23 14:30:47.8     156   -280     63    321    328 150.8  11.1  34276  291.53 0854.32
2009/04/23 14:30:47.9     154   -284     23    324    325 151.5   4.2  34268  291.39 0854.32
2009/04/23 14:30:48.0     161   -363     81    398    407 156.1  11.5  34272  291.46 0854.32
2009/04/23 14:30:48.1     228   -339     38    409    411 146.1   5.4  34270  291.43 0854.32
2009/04/23 14:30:48.2     302   -235     64    383    389 127.9   9.5  34270  291.44 0854.32
2009/04/23 14:30:48.3     187   -226    -21    294    295 140.3  -4.1  34270  291.44 0854.32
2009/04/23 14:30:48.4     217   -279    -72    354    362 142.2 -11.5  34272  291.47 0854.32
2009/04/23 14:30:48.5     273   -272    -27    386    387 134.9  -4.0  34262  291.30 0854.32
2009/04/23 14:30:48.6     141   -243    151    281    319 149.9  30.6  34268  291.39 0854.32
2009/04/23 14:30:48.7     262   -267    102    375    389 135.6  15.3  34280  291.62 0854.32
2009/04/23 14:30:48.8     244   -215     10    326    327 131.3   1.8  34266  291.38 0854.32
2009/04/23 14:30:48.9     401   -254     67    475    480 122.4   8.1  34260  291.27 0854.32
2009/04/23 14:30:49.0     342   -239    -90    418    428 124.9 -12.3  34276  291.53 0854.32
2009/04/23 14:30:49.1     283   -213    -98    355    369 127.0 -15.4  34274  291.52 0854.32
2009/04/23 14:30:49.2     144   -347    -14    376    377 157.4  -2.2  34282  291.64 0854.32
2009/04/23 14:30:49.3      79   -389    -30    398    400 168.4  -4.4  34278  291.56 0854.32
2009/04/23 14:30:49.4     170   -374    -47    411    414 155.5  -6.6  34280  291.62 0854.32
2009/04/23 14:30:49.5     130   -460     60    479    483 164.2   7.2  34272  291.46 0854.34
2009/04/23 14:30:49.6     122   -467    -74    483    489 165.3  -8.7  34276  291.53 0854.34
2009/04/23 14:30:49.7     322   -408      4    520    521 141.7   0.5  34260  291.26 0854.34
2009/04/23 14:30:49.8     364   -429    -50    563    566 139.7  -5.1  34266  291.38 0854.34
2009/04/23 14:30:49.9      87   -270   -107    284    303 162.1 -25.9  34276  291.53 0854.34
2009/04/23 14:30:50.0       0   -309    -20    310    311 180.0  -3.7  34280  291.60 0854.34
2009/04/23 14:30:50.1      17   -336     28    337    339 177.1   4.9  34282  291.64 0854.34
2009/04/23 14:30:50.2      19   -314    -20    315    316 176.4  -3.8  34280  291.60 0854.34
2009/04/23 14:30:50.3     -18   -220    -66    221    231 184.7 -16.6  34286  291.71 0854.34
2009/04/23 14:30:50.4     -12   -168     25    169    171 184.4   8.5  34288  291.74 0854.34
2009/04/23 14:30:50.5       8   -264     30    265    267 178.2   6.5  34278  291.56 0854.34
2009/04/23 14:30:50.6      75   -276     63    287    294 164.8  12.4  34272  291.46 0854.34
2009/04/23 14:30:50.7      84   -242    174    257    310 160.8  37.3  34272  291.48 0854.34
2009/04/23 14:30:50.8     245   -177    109    303    323 126.0  19.9  34266  291.36 0854.34
2009/04/23 14:30:50.9     111   -185    -72    217    229 149.0 -18.6  34276  291.54 0854.34
2009/04/23 14:30:51.0     196   -282     78    344    353 145.2  12.8  34258  291.25 0854.34
2009/04/23 14:30:51.1     184    -73    -60    199    207 111.7 -21.7  34280  291.62 0854.34
2009/04/23 14:30:51.2     149    -82   -107    171    201 118.9 -39.9  34278  291.59 0854.34
2009/04/23 14:30:51.3      30   -197    -64    200    211 171.3 -17.9  34274  291.50 0854.34
2009/04/23 14:30:51.4      37   -234    -72    238    248 170.9 -21.8  34278  291.58 0854.34
2009/04/23 14:30:51.5      58   -265   -130    272    301 167.5 -31.7  34276  291.53 0854.36
2009/04/23 14:30:51.6     114   -217    -11    246    247 152.4  -2.6  34280  291.60 0854.36
2009/04/23 14:30:51.7     162   -173    -23    238    240 136.8  -5.6  34282  291.63 0854.36
2009/04/23 14:30:51.8     109    -66    -78    128    149 121.5 -39.4  34292  291.81 0854.36
2009/04/23 14:30:51.9     135    -31    -32    139    143 103.3 -13.3  34290  291.77 0854.36
2009/04/23 14:30:52.0     146     25     23    149    151  80.3   8.9  34278  291.59 0854.36
2009/04/23 14:30:52.1     179     68     -6    192    193  69.2  -1.8  34264  291.33 0854.36
2009/04/23 14:30:52.2     108     80    -52    135    144  53.6 -25.9  34270  291.43 0854.36
2009/04/23 14:30:52.3      64    159    -56    172    180  22.1 -23.6  34278  291.59 0854.36
2009/04/23 14:30:52.4      82    205    -75    221    234  21.8 -18.9  34278  291.59 0854.36
2009/04/23 14:30:52.5     110    233    -70    258    268  25.3 -15.2  34270  291.43 0854.36
2009/04/23 14:30:52.6      87    296    -56    309    315  16.5 -10.4  34260  291.26 0854.36
2009/04/23 14:30:52.7      56    258     42    265    269  12.3   9.0  34244  291.00 0854.36
2009/04/23 14:30:52.8     107    171     -5    203    204  32.1  -1.6  34250  291.09 0854.36
2009/04/23 14:30:52.9      75    201    -48    215    221  20.5 -12.6  34260  291.28 0854.36
2009/04/23 14:30:53.0      54     98    -23    113    116  29.0 -11.9  34264  291.33 0854.36
2009/04/23 14:30:53.1     -19     40     15     45     48 334.6  18.4  34264  291.33 0854.36
2009/04/23 14:30:53.2    -135    -55   -103    146    178 247.8 -43.2  34254  291.18 0854.36
2009/04/23 14:30:53.3    -224     -4   -143    225    266 268.7 -39.9  34226  290.70 0854.36
2009/04/23 14:30:53.4    -184     42   -105    189    216 283.0 -35.8  34228  290.74 0854.36
2009/04/23 14:30:53.5     -16     53   -132     56    143 343.1 -80.5  34234  290.82 0854.39
2009/04/23 14:30:53.6     -44     41   -137     61    149 313.1 -78.9  34236  290.87 0854.39
2009/04/23 14:30:53.7      55    117   -154    130    201  25.5 -60.0  34236  290.87 0854.39
2009/04/23 14:30:53.8      73     99   -130    124    179  36.5 -55.8  34230  290.75 0854.39
2009/04/23 14:30:53.9      88    121   -134    150    201  36.1 -50.8  34226  290.70 0854.39
2009/04/23 14:30:54.0     101     83   -141    132    193  50.5 -56.5  34230  290.75 0854.39
2009/04/23 14:30:54.1     128     16    -80    130    152  82.5 -39.9  34228  290.72 0854.39
2009/04/23 14:30:54.2     109      0    -56    110    123  90.0 -33.7  34238  290.91 0854.39
2009/04/23 14:30:54.3     109    -29    -20    113    115 105.1 -10.3  34244  290.99 0854.39
2009/04/23 14:30:54.4     110    -22    -12    113    114 101.5  -6.2  34236  290.86 0854.39
2009/04/23 14:30:54.5      92    -12     46     93    103  97.5  27.8  34230  290.77 0854.39
2009/04/23 14:30:54.6      14      3     69     15     70  74.9  89.0  34234  290.84 0854.39
2009/04/23 14:30:54.7     -15     68     84     70    109 347.5  56.3  34236  290.87 0854.39
2009/04/23 14:30:54.8     -30    135     57    139    150 347.5  23.1  34238  290.89 0854.39
2009/04/23 14:30:54.9      -5    145     28    146    149 357.8  11.0  34234  290.82 0854.39
2009/04/23 14:30:55.1      45    116    -39    125    132  21.4 -17.5  34248  291.06 0854.39
2009/04/23 14:30:55.2     133    195    -39    237    241  34.3  -9.4  34256  291.19 0854.39
2009/04/23 14:30:55.3     142    148     -2    206    207  43.7  -0.7  34298  291.91 0854.39
2009/04/23 14:30:55.4     146    154     59    213    222  43.3  15.6  34286  291.72 0854.39
2009/04/23 14:30:55.5     161    109     95    195    216  55.8  27.4  34370  293.15 0854.39
2009/04/23 14:30:55.6     198     45    195    204    282  77.2  49.0  34328  292.41 0854.42
2009/04/23 14:30:55.6     303      9    222    304    376  88.3  39.7  34270  291.44 0854.42
2009/04/23 14:30:55.8     205    113    187    235    300  61.2  42.7  34286  291.72 0854.42
2009/04/23 14:30:55.9     185    102     18    212    213  61.1   5.0  34280  291.62 0854.42
2009/04/23 14:30:56.0     150    127    -15    197    198  49.6  -4.6  34276  291.54 0854.42
2009/04/23 14:30:56.1     206    144    -44    252    256  54.9 -10.1  34280  291.61 0854.42
2009/04/23 14:30:56.2     193    156    -41    249    253  51.1  -9.4  34294  291.84 0854.42
2009/04/23 14:30:56.3     232    131      8    267    268  60.5   1.8  34284  291.68 0854.42
2009/04/23 14:30:56.4     212     69     45    224    229  71.8  11.6  34256  291.21 0854.42
2009/04/23 14:30:56.5     194     22     53    196    204  83.4  15.3  34234  290.82 0854.42
2009/04/23 14:30:56.6      91    -27     87     96    129 106.8  47.5  34256  291.21 0854.42
2009/04/23 14:30:56.7      70    -56     25     90     94 128.6  15.8  34242  290.96 0854.42
2009/04/23 14:30:56.8      78    -19    -50     81     95 104.2 -39.9  34276  291.54 0854.42
2009/04/23 14:30:56.9      60     20   -142     64    155  70.9 -78.4  34278  291.57 0854.42
2009/04/23 14:30:57.0      83    -83   -114    118    164 135.0 -53.8  34296  291.88 0854.42
2009/04/23 14:30:57.1     372    -83   -131    382    403 102.7 -23.9  34316  292.22 0854.42
2009/04/23 14:30:57.2     327   -103   -115    344    364 107.6 -18.6  34248  291.06 0854.42
2009/04/23 14:30:57.3     343   -133    -14    369    370 111.3  -2.2  34248  291.05 0854.42
2009/04/23 14:30:57.4     374   -204     56    427    431 118.6   7.5  34268  291.40 0854.42
2009/04/23 14:30:57.5     372   -360   -259    518    579 134.0 -32.9  34276  291.54 0854.42
2009/04/23 14:30:57.6     255   -161   -264    302    401 122.4 -50.1  34270  291.44 0854.48
2009/04/23 14:30:57.7     147   -503   -321    525    615 163.7 -38.8  34250  291.09 0854.48
2009/04/23 14:30:57.8      88   -348   -223    360    423 165.7 -39.3  34262  291.29 0854.48
2009/04/23 14:30:57.9     121   -235   -113    265    288 152.8 -29.0  34254  291.16 0854.48
2009/04/23 14:30:58.0     303    -50    -32    308    310  99.5  -6.0  34264  291.34 0854.48
2009/04/23 14:30:58.1     276     29    135    278    309  83.9  27.3  34262  291.29 0854.48
2009/04/23 14:30:58.2     220      7    310    221    380  88.1  61.1  34268  291.39 0854.48
2009/04/23 14:30:58.3     199    -41    271    204    339 101.7  59.4  34280  291.60 0854.48
2009/04/23 14:30:58.4      26    -59    162     65    174 156.4  77.4  34292  291.81 0854.48
2009/04/23 14:30:58.5     -43     41    115     60    129 314.1  70.8  34294  291.86 0854.48
2009/04/23 14:30:58.6    -245   -184    117    307    328 233.1  21.8  34286  291.70 0854.48
2009/04/23 14:30:58.7    -368   -250    -30    446    447 235.8  -3.9  34274  291.50 0854.48
2009/04/23 14:30:58.8    -268    -74    -75    279    290 254.5 -15.2  34256  291.21 0854.48
2009/04/23 14:30:58.9     -99    -39     70    107    127 248.3  36.0  34262  291.30 0854.48
2009/04/23 14:30:59.0    -244     91    103    261    280 290.6  23.0  34272  291.46 0854.48
2009/04/23 14:30:59.1    -348      3     68    349    356 270.6  11.1  34260  291.28 0854.48
2009/04/23 14:30:59.2    -344     22      9    345    346 273.8   1.6  34264  291.35 0854.48
2009/04/23 14:30:59.3    -313    -59     31    319    321 259.2   5.7  34266  291.36 0854.48
2009/04/23 14:30:59.4    -215   -137     35    256    259 237.4   7.8  34262  291.31 0854.48
2009/04/23 14:30:59.5    -257    -97    -13    275    276 249.2  -2.8  34270  291.44 0854.48
2009/04/23 14:30:59.6    -236     18    -68    237    246 274.4 -20.7  34270  291.44 0854.46
2009/04/23 14:30:59.7    -226    -17    -97    227    246 265.6 -29.0  34276  291.53 0854.46
2009/04/23 14:30:59.8    -138     41   -114    145    184 286.8 -46.6  34268  291.40 0854.46
2009/04/23 14:30:59.9     -92    192    -88    213    230 334.4 -28.0  34272  291.47 0854.46
2009/04/23 14:31:00.0     -57    212   -103    220    242 344.9 -31.4  34280  291.60 0854.46
2009/04/23 14:31:00.1     -71    189     41    203    208 339.3  11.4  34278  291.57 0854.46
2009/04/23 14:31:00.2    -105    144     43    179    185 323.7  13.7  34276  291.55 0854.46
2009/04/23 14:31:00.3    -189    -70    -50    202    209 249.6 -13.9  34284  291.69 0854.46
2009/04/23 14:31:00.4    -200   -132     -5    240    241 236.5  -1.3  34292  291.80 0854.46
2009/04/23 14:31:00.5    -346      4   -174    347    388 270.8 -33.0  34244  291.00 0854.46
2009/04/23 14:31:00.6    -345    -75    -82    354    364 257.7 -13.2  34274  291.52 0854.36
2009/04/23 14:31:00.7    -388    106    -84    403    412 285.3 -11.8  34294  291.86 0854.36
2009/04/23 14:31:00.8    -379    164   -130    414    433 293.4 -22.4  34244  290.99 0854.36
2009/04/23 14:31:00.9    -285    219   -118    360    378 307.6 -23.6  34256  291.20 0854.36
2009/04/23 14:31:01.0    -322    290   -127    434    453 312.1 -16.4  34262  291.31 0854.36
2009/04/23 14:31:01.1    -326    261   -136    418    439 308.7 -23.2  34274  291.52 0854.36
2009/04/23 14:31:01.2    -364    339     46    498    501 312.9   5.3  34296  291.88 0854.36
2009/04/23 14:31:01.3    -345    299    -41    457    459 310.9  -5.2  34270  291.43 0854.36
2009/04/23 14:31:01.4    -265    270    -80    379    388 315.5 -12.0  34252  291.13 0854.36
2009/04/23 14:31:01.5    -262    261   -117    370    389 314.9 -17.6  34246  291.03 0854.36
2009/04/23 14:31:01.6    -336    232   -148    409    434 304.6 -25.3  34250  291.11 0854.36
2009/04/23 14:31:01.7    -335    205   -109    393    408 301.5 -15.5  34262  291.29 0854.36
2009/04/23 14:31:01.8    -308    269    -71    410    417 311.2  -9.9  34270  291.43 0854.36
2009/04/23 14:31:01.9    -347    316    -44    470    473 312.3  -5.4  34258  291.24 0854.36
2009/04/23 14:31:02.0    -437    386    -96    584    592 311.5  -9.4  34260  291.27 0854.36
2009/04/23 14:31:02.1    -451    401    -72    604    609 311.7  -6.9  34260  291.26 0854.36
2009/04/23 14:31:02.2    -289    171   -106    337    354 300.7 -17.6  34264  291.34 0854.36
2009/04/23 14:31:02.3    -346    136    -47    372    375 291.5  -7.2  34260  291.27 0854.36
2009/04/23 14:31:02.4    -283    223    -66    361    367 308.3 -10.4  34260  291.27 0854.36
2009/04/23 14:31:02.5    -311    242   -123    395    414 307.9 -17.3  34270  291.43 0854.36
2009/04/23 14:31:02.6    -169    257   -179    308    356 326.6 -37.3  34274  291.51 0854.36
2009/04/23 14:31:02.7     -74    221   -107    234    257 341.5 -30.6  34272  291.46 0854.36
2009/04/23 14:31:02.8    -183    151   -126    238    269 309.5 -34.6  34270  291.43 0854.36
2009/04/23 14:31:02.9    -205    179     13    273    274 311.1   2.9  34272  291.46 0854.36
2009/04/23 14:31:03.0    -103    168    126    198    234 328.4  35.5  34274  291.50 0854.36
2009/04/23 14:31:03.1     -32    121    192    126    229 344.9  63.9  34288  291.76 0854.36
2009/04/23 14:31:03.2    -106    198    157    225    274 331.7  38.5  34278  291.58 0854.36
2009/04/23 14:31:03.3    -255    240    173    351    391 313.2  28.2  34270  291.45 0854.36
2009/04/23 14:31:03.4    -299    131    -29    327    329 293.7  -5.2  34262  291.31 0854.36
2009/04/23 14:31:03.5    -313    172    -97    358    371 298.8 -15.2  34236  290.86 0854.36
2009/04/23 14:31:03.6    -154    153    -28    218    220 314.9  -7.5  34232  290.79 0854.36
2009/04/23 14:31:03.7     -76     25     41     81     90 288.2  28.7  34254  291.16 0854.36
2009/04/23 14:31:03.8     -31     10     -9     33     35 288.4 -15.5  34252  291.13 0854.36
2009/04/23 14:31:03.9    -103    -31    -37    108    115 253.2 -19.1  34260  291.28 0854.36
2009/04/23 14:31:04.0    -226    -38     -9    230    231 260.3  -2.2  34290  291.77 0854.36
2009/04/23 14:31:04.1    -290    -54     14    295    296 259.4   2.8  34314  292.19 0854.36
2009/04/23 14:31:04.2    -274    -85    -73    287    297 252.7 -14.4  34260  291.27 0854.36
2009/04/23 14:31:04.3    -248    -26     35    250    253 263.9   8.0  34286  291.70 0854.36
2009/04/23 14:31:04.4    -217     -2    106    218    242 269.4  28.0  34292  291.80 0854.36
2009/04/23 14:31:04.5    -221    -52     96    228    247 256.8  24.2  34310  292.11 0854.36
2009/04/23 14:31:04.6    -178      0    106    179    208 270.0  33.5  34328  292.42 0854.39
2009/04/23 14:31:04.7    -174     54     80    183    199 287.3  25.1  34322  292.32 0854.39
2009/04/23 14:31:04.8    -169     40     47    174    181 283.5  15.2  34336  292.56 0854.39
2009/04/23 14:31:04.9    -192    -21     45    194    200 263.6  13.1  34354  292.88 0854.39
2009/04/23 14:31:05.0    -194    -36     10    198    199 259.4   2.9  34366  293.09 0854.39
2009/04/23 14:31:05.1    -202    -47    -65    208    217 256.7 -22.3  34310  292.12 0854.39
2009/04/23 14:31:05.2    -248      4    -59    249    256 271.0 -13.4  34276  291.53 0854.39
2009/04/23 14:31:05.3    -192    -79    -58    208    215 247.6 -20.0  34280  291.62 0854.39
2009/04/23 14:31:05.4    -243    -24    -26    245    247 264.3  -6.1  34348  292.77 0854.39
2009/04/23 14:31:05.5    -289    -92   -131    304    331 252.2 -29.2  34292  291.80 0854.39
2009/04/23 14:31:05.6    -248    -75    -72    260    270 253.1 -15.5  34322  292.33 0854.39
2009/04/23 14:31:05.7    -256    -27     -5    258    259 263.9  -1.3  34336  292.55 0854.39
2009/04/23 14:31:05.8    -303   -141    -60    335    341 245.0 -10.2  34344  292.71 0854.39
2009/04/23 14:31:05.9    -275   -130    -79    305    316 244.7 -14.6  34350  292.79 0854.39
2009/04/23 14:31:06.0    -210   -143    -56    255    262 235.6 -12.4  34296  291.89 0854.39
2009/04/23 14:31:06.1    -184   -167    -42    249    253 227.8  -9.8  34300  291.94 0854.39
2009/04/23 14:31:06.2    -190   -186    -91    267    282 225.6 -23.6  34296  291.87 0854.39
2009/04/23 14:31:06.3    -213   -241    -85    323    335 221.5 -14.8  34308  292.07 0854.39
2009/04/23 14:31:06.4    -186   -239    -90    304    317 217.9 -21.4  34294  291.84 0854.39
2009/04/23 14:31:06.5    -116   -186   -148    220    265 211.9 -41.4  34310  292.13 0854.39
2009/04/23 14:31:06.6    -196   -345   -133    398    420 209.6 -18.6  34320  292.28 0854.45
2009/04/23 14:31:06.7    -156   -274    -97    316    331 209.6 -17.2  34290  291.78 0854.45
2009/04/23 14:31:06.8    -111   -331     22    350    351 198.6   3.7  34314  292.19 0854.45
2009/04/23 14:31:06.9    -157   -337    111    372    389 205.0  16.7  34314  292.20 0854.45
2009/04/23 14:31:07.0    -161   -390     82    423    431 202.5  11.0  34310  292.13 0854.45
2009/04/23 14:31:07.1    -274   -380     65    469    474 215.8   8.0  34312  292.16 0854.45
2009/04/23 14:31:07.2    -270   -362    110    452    466 216.8  13.7  34308  292.08 0854.45
2009/04/23 14:31:07.3    -192   -359     10    408    409 208.1   1.5  34318  292.26 0854.45
2009/04/23 14:31:07.4    -206   -418     11    467    468 206.3   1.4  34318  292.26 0854.45
2009/04/23 14:31:07.5    -239   -376    -73    446    453 212.4  -9.3  34340  292.64 0854.45
2009/04/23 14:31:07.6    -220   -378    -86    438    447 210.3 -11.2  34312  292.16 0854.45
2009/04/23 14:31:07.7    -140   -193    156    239    285 216.1  36.0  34324  292.35 0854.45
2009/04/23 14:31:07.8    -164   -303     69    345    352 208.4  11.3  34324  292.36 0854.45
2009/04/23 14:31:07.9    -188   -317     48    369    373 210.7   7.5  34322  292.32 0854.45
2009/04/23 14:31:08.0    -132   -282     44    312    316 205.2   8.1  34320  292.28 0854.45
2009/04/23 14:31:08.1     -69   -327     89    335    347 192.0  15.0  34298  291.91 0854.45
2009/04/23 14:31:08.2     -73   -336    -13    344    345 192.3  -2.2  34308  292.07 0854.45
2009/04/23 14:31:08.3    -123   -391    -88    410    420 197.5 -12.2  34332  292.50 0854.45
2009/04/23 14:31:08.4      -5   -441    -31    442    444 180.7  -4.0  34294  291.86 0854.45
2009/04/23 14:31:08.5     -99   -319    -56    335    340 197.3  -9.5  34302  291.98 0854.45
2009/04/23 14:31:08.6    -116   -320    -44    341    344 199.9  -7.5  34298  291.91 0854.50
2009/04/23 14:31:08.7    -238   -307    -15    389    390 217.8  -2.2  34282  291.66 0854.50
2009/04/23 14:31:08.8    -204   -339    119    396    414 211.0  16.8  34302  291.99 0854.50
2009/04/23 14:31:08.9    -270   -299    -15    404    405 222.1  -2.2  34326  292.38 0854.50
2009/04/23 14:31:09.0    -362   -303     61    473    477 230.1   7.4  34328  292.43 0854.50
2009/04/23 14:31:09.1    -333   -277    -34    434    436 230.2  -4.6  34324  292.35 0854.50
2009/04/23 14:31:09.2    -300   -318     24    438    439 223.3   3.2  34332  292.50 0854.50
2009/04/23 14:31:09.3    -219   -322      8    390    391 214.3   1.2  34312  292.15 0854.50
2009/04/23 14:31:09.4    -247   -342    -16    422    423 215.9  -2.3  34326  292.38 0854.50
2009/04/23 14:31:09.5    -175   -322    -79    367    376 208.6 -12.2  34336  292.56 0854.50
2009/04/23 14:31:09.6    -295   -336    -32    448    450 221.3  -4.1  34344  292.69 0854.50
2009/04/23 14:31:09.7    -263   -269   -115    377    394 224.3 -21.8  34326  292.39 0854.50
2009/04/23 14:31:09.8    -287   -258   -122    387    406 228.1 -17.5  34328  292.41 0854.50
2009/04/23 14:31:09.9    -307   -269    -95    409    421 228.7 -13.2  34330  292.45 0854.50
2009/04/23 14:31:10.0    -323   -243    -22    405    406 233.0  -3.1  34328  292.43 0854.50
2009/04/23 14:31:10.1    -289   -208      9    357    358 234.3   1.5  34334  292.54 0854.50
2009/04/23 14:31:10.2    -239   -249    112    346    364 223.8  18.0  34312  292.15 0854.50
2009/04/23 14:31:10.3    -119   -293    189    317    369 202.1  33.7  34316  292.22 0854.50
2009/04/23 14:31:10.4    -173   -337     77    379    387 207.2  11.5  34318  292.24 0854.50
2009/04/23 14:31:10.5    -125   -280     56    307    313 204.1  10.4  34306  292.04 0854.50
2009/04/23 14:31:10.6    -178   -315     53    363    367 209.5   8.3  34300  291.95 0854.51
2009/04/23 14:31:10.7     -99   -349     17    363    364 195.9   2.8  34284  291.69 0854.51
2009/04/23 14:31:10.8    -108   -289     47    309    313 200.5   8.7  34294  291.84 0854.51
2009/04/23 14:31:10.9    -158   -205     61    260    268 217.6  13.2  34294  291.85 0854.51
2009/04/23 14:31:11.0    -122   -190    -70    226    236 212.7 -22.1  34288  291.73 0854.51
2009/04/23 14:31:11.1     -55   -271    109    277    297 191.5  23.0  34294  291.85 0854.51
2009/04/23 14:31:11.2    -156   -223    120    273    298 215.0  25.1  34290  291.78 0854.51
2009/04/23 14:31:11.3    -143   -194    126    242    272 216.5  29.8  34296  291.89 0854.51
2009/04/23 14:31:11.4    -151   -181     92    236    253 219.9  22.3  34314  292.18 0854.51
2009/04/23 14:31:11.5     -55   -101     30    116    120 208.5  14.7  34318  292.27 0854.51
2009/04/23 14:31:11.6     -88    -17     58     90    107 258.5  35.6  34330  292.47 0854.51
2009/04/23 14:31:11.7      19    -87     28     90     95 167.5  17.3  34314  292.20 0854.51
2009/04/23 14:31:11.8     -30   -102     88    107    138 196.5  43.7  34322  292.32 0854.51
2009/04/23 14:31:11.9    -101   -134    121    169    207 217.0  39.3  34328  292.44 0854.51
2009/04/23 14:31:12.0    -106   -163     69    195    206 213.2  20.4  34332  292.51 0854.51
2009/04/23 14:31:12.1    -162   -106     30    194    197 236.7   9.0  34338  292.61 0854.51
2009/04/23 14:31:12.2    -110    -70     72    131    149 237.5  31.3  34344  292.71 0854.51
2009/04/23 14:31:12.3     -69    -83     47    109    118 219.6  25.1  34344  292.71 0854.51
2009/04/23 14:31:12.4     -97    -85     84    130    154 228.7  35.6  34366  293.09 0854.51
2009/04/23 14:31:12.5    -108    -68     96    128    160 237.6  40.7  34360  292.98 0854.51
2009/04/23 14:31:12.6     -65    -33     77     73    106 242.9  51.6  34352  292.83 0854.52
2009/04/23 14:31:12.7     -55    -11     58     57     81 258.6  50.1  34344  292.71 0854.52
2009/04/23 14:31:12.8     -87    -62     70    108    128 234.5  35.6  34334  292.52 0854.52
2009/04/23 14:31:12.9    -104    -68     18    125    127 236.7   8.5  34326  292.40 0854.52
2009/04/23 14:31:13.0    -118     -8    -15    119    120 265.7  -7.2  34316  292.22 0854.52
2009/04/23 14:31:13.1     -93      4      1     94     95 273.0   0.8  34322  292.32 0854.52
2009/04/23 14:31:13.2    -100     27     39    104    111 285.5  21.5  34324  292.37 0854.52
2009/04/23 14:31:13.3      47     57     37     75     83  39.6  28.2  34322  292.34 0854.52
2009/04/23 14:31:13.4     144     32     56    148    158  77.2  21.7  34320  292.29 0854.52
2009/04/23 14:31:13.5     140    -10    101    141    173  94.3  39.1  34320  292.29 0854.52
2009/04/23 14:31:13.6     133    -17    102    135    169  97.5  40.9  34332  292.49 0854.52
2009/04/23 14:31:13.7      39    -62     98     74    122 147.5  59.0  34336  292.56 0854.52
2009/04/23 14:31:13.8      13   -146    102    147    178 174.7  38.4  34330  292.46 0854.52
2009/04/23 14:31:13.9     -56   -119     96    132    163 205.4  39.7  34334  292.52 0854.52
2009/04/23 14:31:14.0      -9   -119    117    120    167 184.5  49.4  34342  292.66 0854.52
2009/04/23 14:31:14.1     103   -143     97    177    201 144.4  31.4  34318  292.27 0854.52
2009/04/23 14:31:14.2      82   -161    114    181    213 153.0  35.5  34308  292.10 0854.52
2009/04/23 14:31:14.3     123   -169    124    210    243 144.0  33.5  34302  291.99 0854.52
2009/04/23 14:31:14.4      44   -146    121    153    195 163.0  42.4  34302  291.98 0854.52
2009/04/23 14:31:14.5      34   -170    135    174    220 168.7  41.7  34284  291.69 0854.52
2009/04/23 14:31:14.6      59   -164    145    175    227 160.0  43.8  34278  291.59 0854.51
2009/04/23 14:31:14.7      47   -166    137    173    220 164.0  42.4  34278  291.59 0854.51
2009/04/23 14:31:14.8      73   -169    125    185    223 156.6  37.3  34282  291.66 0854.51
2009/04/23 14:31:14.9      91   -125     81    155    174 143.9  29.8  34310  292.13 0854.51
2009/04/23 14:31:15.0      58   -113     93    128    158 152.9  39.7  34292  291.81 0854.51
2009/04/23 14:31:15.1      65   -111     82    129    152 149.7  35.5  34292  291.81 0854.51
2009/04/23 14:31:15.2      78   -142     67    163    176 151.1  23.6  34294  291.84 0854.51
2009/04/23 14:31:15.3      45   -113     28    122    126 158.2  13.2  34294  291.86 0854.51
2009/04/23 14:31:15.4      -8   -104     51    105    116 184.5  27.3  34292  291.83 0854.51
2009/04/23 14:31:15.5     -34   -127     59    132    144 195.1  25.7  34288  291.74 0854.51
2009/04/23 14:31:15.6     -31   -108     35    113    119 196.0  17.4  34288  291.74 0854.51
2009/04/23 14:31:15.7     -67   -105     45    125    132 212.5  20.4  34290  291.77 0854.51
2009/04/23 14:31:15.8     -47   -103     21    114    116 204.5  10.6  34312  292.17 0854.51
2009/04/23 14:31:15.9     -49   -106    -37    117    122 204.9 -22.8  34338  292.59 0854.51
2009/04/23 14:31:16.0     -83   -135    -45    159    165 211.6 -20.7  34322  292.34 0854.51
2009/04/23 14:31:16.1    -113    -99    -51    151    160 228.6 -18.9  34302  292.00 0854.51
2009/04/23 14:31:16.2    -136    -76     -6    156    157 240.7  -2.2  34306  292.06 0854.51
2009/04/23 14:31:16.3     -86    -52     87    101    133 238.9  45.8  34322  292.32 0854.51
2009/04/23 14:31:16.4    -146   -116     79    187    203 231.6  24.1  34324  292.37 0854.51
2009/04/23 14:31:16.5    -124    -84    125    150    195 235.9  44.1  34324  292.37 0854.51
2009/04/23 14:31:16.6    -142   -161    134    216    254 221.4  35.0  34322  292.33 0854.50
2009/04/23 14:31:16.7     -82   -164    112    184    215 206.7  34.2  34302  292.00 0854.50
2009/04/23 14:31:16.8     -12    -86    148     87    171 188.0  67.0  34318  292.27 0854.50
2009/04/23 14:31:16.9       3    -48    121     49    130 175.5  77.0  34334  292.54 0854.50
2009/04/23 14:31:17.0      14    -73    106     75    129 168.5  61.5  34322  292.34 0854.50
2009/04/23 14:31:17.1       6   -109    133    110    172 176.9  56.3  34312  292.15 0854.50
2009/04/23 14:31:17.2     122   -155    194    198    277 141.9  49.8  34298  291.90 0854.50
2009/04/23 14:31:17.3      92   -104    164    140    215 138.6  55.4  34298  291.93 0854.50
2009/04/23 14:31:17.4      96    -63    130    116    174 123.3  53.7  34294  291.86 0854.50
2009/04/23 14:31:17.5     106    -88    158    138    209 129.6  54.3  34286  291.72 0854.50
2009/04/23 14:31:17.6     120   -182     88    219    236 146.6  23.0  34282  291.64 0854.50
2009/04/23 14:31:17.7     133    -43     31    140    144 108.2  12.6  34272  291.49 0854.50
2009/04/23 14:31:17.8     122    117    -50    170    177  46.2 -21.2  34280  291.60 0854.50
2009/04/23 14:31:17.9     260     87    -10    275    276  71.4  -2.2  34274  291.50 0854.50
2009/04/23 14:31:18.0     222    117     73    252    263  62.2  16.3  34274  291.51 0854.50
2009/04/23 14:31:18.1      17     55    160     58    170  17.8  79.7  34296  291.89 0854.50
2009/04/23 14:31:18.2      56    -26     81     62    102 115.2  59.0  34308  292.10 0854.50
2009/04/23 14:31:18.3     -11    -58    108     60    123 191.5  68.8  34282  291.66 0854.50
2009/04/23 14:31:18.4     -32     20    101     38    107 302.4  79.2  34288  291.76 0854.50
2009/04/23 14:31:18.5     -33    -30    113     45    121 227.8  77.1  34280  291.62 0854.50
2009/04/23 14:31:18.6     -20   -103     89    106    138 191.1  44.3  34270  291.43 0854.51
2009/04/23 14:31:18.7     -36   -108    102    115    153 198.7  46.4  34270  291.43 0854.51
2009/04/23 14:31:18.8       0    -48    113     49    123 180.0  75.0  34290  291.77 0854.51
2009/04/23 14:31:18.9     -17      4     87     18     88 285.1  89.0  34304  292.03 0854.51
2009/04/23 14:31:19.0     -75     -9    132     76    152 263.0  67.2  34298  291.93 0854.51
2009/04/23 14:31:19.1       0     24    127     25    129   0.9  89.1  34284  291.67 0854.51
2009/04/23 14:31:19.2      62     10    101     63    119  80.3  64.7  34288  291.74 0854.51
2009/04/23 14:31:19.3     -50    -41     68     66     94 230.5  49.7  34292  291.81 0854.51
2009/04/23 14:31:19.4     -47    -38     46     61     76 231.4  40.7  34290  291.77 0854.51
2009/04/23 14:31:19.5     -30    -45     51     55     75 214.3  47.9  34284  291.67 0854.51
2009/04/23 14:31:19.6      78     -6     83     79    114  94.4  51.2  34288  291.76 0854.51
2009/04/23 14:31:19.7     103    -65     80    122    145 122.4  36.0  34288  291.74 0854.51
2009/04/23 14:31:19.8      86   -107     68    138    153 141.3  27.8  34278  291.59 0854.51
2009/04/23 14:31:19.9     116   -103     47    156    163 131.4  16.8  34278  291.59 0854.51
2009/04/23 14:31:20.0     159    -56     24    169    171 109.7   8.2  34282  291.66 0854.51
2009/04/23 14:31:20.1     147    -38     29    152    155 104.6  10.8  34284  291.69 0854.51
2009/04/23 14:31:20.2      92    -92     80    131    153 135.0  35.0  34260  291.28 0854.51
2009/04/23 14:31:20.3     108    -51     65    120    136 115.2  30.8  34252  291.13 0854.51
2009/04/23 14:31:20.4     179      0     83    180    198  90.0  26.4  34258  291.23 0854.51
2009/04/23 14:31:20.5     160    -53    113    169    203 108.4  37.0  34242  290.96 0854.51
2009/04/23 14:31:20.6      99   -112    167    150    224 138.5  53.5  34244  290.99 0854.53
2009/04/23 14:31:20.7     193    -91    193    214    288 115.4  46.9  34264  291.33 0854.53
2009/04/23 14:31:20.8     177    -56    158    186    244 107.5  44.8  34264  291.33 0854.53
2009/04/23 14:31:20.9      72    -19    114     75    136 105.0  64.6  34274  291.52 0854.53
2009/04/23 14:31:21.0       4      4     73      7     73  45.0  90.0  34278  291.57 0854.53
2009/04/23 14:31:21.1     131      9    136    132    189  85.7  50.7  34270  291.43 0854.53
2009/04/23 14:31:21.2     164    126     96    207    228  52.5  27.1  34278  291.59 0854.53
2009/04/23 14:31:21.3     125     13     76    126    147  83.8  34.4  34274  291.50 0854.53
2009/04/23 14:31:21.4     185      2    104    186    213  89.2  31.9  34264  291.33 0854.53
2009/04/23 14:31:21.5     214     44     98    219    239  78.3  25.7  34276  291.55 0854.53
2009/04/23 14:31:21.6     203     22      1    205    206  83.8   0.5  34278  291.57 0854.53
2009/04/23 14:31:21.7     145     20     74    147    164  82.0  28.7  34288  291.74 0854.53
2009/04/23 14:31:21.8      98    100     86    141    165  44.5  34.4  34306  292.06 0854.53
2009/04/23 14:31:21.9     189    183     94    264    280  46.0  20.4  34334  292.52 0854.53
2009/04/23 14:31:22.0     204     25    151    206    255  83.0  39.7  34314  292.19 0854.53
2009/04/23 14:31:22.1     186     86    120    206    238  65.2  32.9  34324  292.37 0854.53
2009/04/23 14:31:22.2     110     62    188    127    226  60.7  62.8  34322  292.32 0854.53
2009/04/23 14:31:22.3      95    170    159    195    251  29.2  43.7  34298  291.90 0854.53
2009/04/23 14:31:22.4      11    238    217    239    322   2.7  47.0  34322  292.33 0854.53
2009/04/23 14:31:22.5     -61    303    128    310    335 348.5  23.7  34374  293.22 0854.53
2009/04/23 14:31:22.6      66    159    126    173    214  22.7  39.7  34334  292.52 0854.52
2009/04/23 14:31:22.7      68     70    126     98    159  44.1  58.2  34352  292.85 0854.52
2009/04/23 14:31:22.9      93     -7    145     94    172  94.3  64.6  34298  291.93 0854.52
2009/04/23 14:31:23.0     187    155    241    244    342  50.4  49.9  34360  292.98 0854.52
2009/04/23 14:31:23.1      58    263    206    270    339  12.5  41.2  34428  294.14 0854.52
2009/04/23 14:31:23.2       7    529    258    530    589   0.8  27.9  34310  292.12 0854.52
2009/04/23 14:31:23.3      92    240    220    258    339  20.9  44.8  34368  293.11 0854.52
2009/04/23 14:31:23.4     111    400    342    416    538  15.5  43.7  34306  292.04 0854.52
2009/04/23 14:31:23.5     104    475    202    487    527  12.4  23.7  34364  293.04 0854.52
2009/04/23 14:31:23.6     220    483    104    531    542  24.5  11.1  34276  291.54 0854.52
2009/04/23 14:31:23.7     255    499    174    561    588  27.1  17.3  34280  291.60 0854.52
2009/04/23 14:31:23.8     256    470    175    536    564  28.6  18.1  34336  292.56 0854.52
2009/04/23 14:31:23.9     330    408    234    525    574  39.0  25.6  34362  293.00 0854.52
2009/04/23 14:31:24.0     315    449    216    549    589  35.1  22.7  34262  291.32 0854.52
2009/04/23 14:31:24.1     189    563    323    595    677  18.6  30.9  34314  292.20 0854.52
2009/04/23 14:31:24.2      52    743     58    745    748   4.0   4.5  34262  291.31 0854.52
2009/04/23 14:31:24.3       9    568      4    569    570   1.0   0.5  34258  291.22 0854.52
2009/04/23 14:31:24.4      51    473     14    476    477   6.3   1.7  34278  291.56 0854.52
2009/04/23 14:31:24.5      42    392    -69    395    402   6.2  -9.9  34280  291.62 0854.52
2009/04/23 14:31:24.6     -76    604    -97    609    617 352.8  -9.1  34248  291.05 0854.52
2009/04/23 14:31:24.7     -39    506    -19    508    509 355.5  -2.2  34252  291.13 0854.52
2009/04/23 14:31:24.8    -163    518     81    544    551 342.5   8.5  34256  291.20 0854.52
2009/04/23 14:31:24.9    -165    438    -30    469    470 339.3  -3.7  34266  291.37 0854.52
2009/04/23 14:31:25.0    -122    383     48    402    405 342.3   6.9  34262  291.31 0854.52
2009/04/23 14:31:25.1    -136    378    -86    402    412 340.2 -12.2  34262  291.29 0854.52
2009/04/23 14:31:25.2      31    407    -34    409    411   4.5  -4.9  34266  291.38 0854.52
2009/04/23 14:31:25.3     213    287    -19    358    359  36.6  -3.1  34250  291.10 0854.52
2009/04/23 14:31:25.4      81    448    118    456    472  10.3  14.5  34248  291.07 0854.52
2009/04/23 14:31:25.5      61    535     42    539    541   6.6   4.5  34274  291.52 0854.52
2009/04/23 14:31:25.6      71    455    104    461    473   8.9  12.8  34286  291.70 0854.52
2009/04/23 14:31:25.7     130    395    135    417    439  18.3  18.0  34270  291.43 0854.49
2009/04/23 14:31:25.8     164    317    182    358    401  27.4  29.1  34264  291.34 0854.49
2009/04/23 14:31:25.9     234    367    119    436    453  32.6  15.3  34318  292.26 0854.49
2009/04/23 14:31:26.0     259    303    138    399    423  40.6  19.1  34294  291.84 0854.49
2009/04/23 14:31:26.1     315    404    141    513    533  37.9  15.4  34290  291.79 0854.49
2009/04/23 14:31:26.2     159    468     64    495    500  18.8   7.4  34292  291.83 0854.49
2009/04/23 14:31:26.3      76    316    -62    326    332  13.6 -10.8  34306  292.05 0854.49
2009/04/23 14:31:26.4     218    395    -77    452    459  28.9  -9.8  34340  292.62 0854.49
2009/04/23 14:31:26.5     302    341    -90    456    465  41.5 -11.2  34300  291.94 0854.49
2009/04/23 14:31:26.6     290    271      8    398    399  47.0   1.2  34296  291.88 0854.49
2009/04/23 14:31:26.7     371    288     23    470    471  52.2   2.9  34298  291.93 0854.49
2009/04/23 14:31:26.8     503    236    101    556    566  64.8  10.3  34306  292.05 0854.49
2009/04/23 14:31:26.9     495    164    243    522    575  71.6  26.9  34310  292.11 0854.49
2009/04/23 14:31:27.0     363    238    148    435    460  56.7  18.8  34292  291.80 0854.49
2009/04/23 14:31:27.1     349    257      8    434    435  53.6   1.1  34308  292.09 0854.49
2009/04/23 14:31:27.2     331    307     91    452    462  47.1  11.4  34324  292.37 0854.49
2009/04/23 14:31:27.3     335    327    107    469    482  45.7  12.9  34322  292.33 0854.49
2009/04/23 14:31:27.4     356    301      0    467    468  49.8   0.0  34300  291.95 0854.49
2009/04/23 14:31:27.5     383    245     -2    455    456  57.4  -0.3  34272  291.48 0854.49
2009/04/23 14:31:27.6     392    237    -17    459    460  58.9  -2.2  34266  291.36 0854.49
2009/04/23 14:31:27.7     335    236     20    410    411  54.8   2.9  34260  291.28 0854.47
2009/04/23 14:31:27.8     243    284     90    374    385  40.5  13.6  34258  291.25 0854.47
2009/04/23 14:31:27.9     220    234    114    322    342  43.3  19.6  34268  291.39 0854.47
2009/04/23 14:31:28.0     348    227     92    416    427  56.8  12.5  34262  291.29 0854.47
2009/04/23 14:31:28.1     280    246    129    373    395  48.7  19.2  34260  291.28 0854.47
2009/04/23 14:31:28.2     326    220     51    394    398  55.9   7.4  34260  291.27 0854.47
2009/04/23 14:31:28.3     286    276    111    398    414  46.1  15.7  34252  291.12 0854.47
2009/04/23 14:31:28.4     345    205    125    402    422  59.3  17.3  34256  291.19 0854.47
2009/04/23 14:31:28.5     395    227     13    456    457  60.1   1.7  34258  291.23 0854.47
2009/04/23 14:31:28.6     351    124     -1    373    374  70.4  -0.3  34254  291.18 0854.47
2009/04/23 14:31:28.7     290    203     81    354    364  55.0  12.9  34260  291.28 0854.47
2009/04/23 14:31:28.8     318    300     -8    438    439  46.7  -1.2  34268  291.40 0854.47
2009/04/23 14:31:28.9     176    276      0    328    329  32.6   0.0  34268  291.41 0854.47
2009/04/23 14:31:29.0     162    253     31    301    303  32.6   5.9  34268  291.39 0854.47
2009/04/23 14:31:29.1     194    281      5    342    343  34.6   0.9  34260  291.28 0854.47
2009/04/23 14:31:29.2     260    244      6    357    358  46.9   1.0  34282  291.66 0854.47
2009/04/23 14:31:29.3     228    130     13    263    264  60.3   2.9  34292  291.80 0854.47
2009/04/23 14:31:29.4     175     75    -56    191    200  66.7 -16.4  34274  291.50 0854.47
2009/04/23 14:31:29.5     119     87    -74    148    165  53.6 -33.1  34284  291.67 0854.47
2009/04/23 14:31:29.6     130    -56    -62    142    154 113.6 -29.5  34286  291.71 0854.47
2009/04/23 14:31:29.7     203     17    -11    204    205  85.2  -3.3  34286  291.72 0854.45
2009/04/23 14:31:29.8     246     50      7    252    253  78.3   1.7  34288  291.73 0854.45
2009/04/23 14:31:29.9     318    110    156    337    371  70.8  26.6  34272  291.47 0854.45
2009/04/23 14:31:30.0     329     79    172    339    380  76.4  29.2  34282  291.66 0854.45
2009/04/23 14:31:30.1     308    -83    110    320    339 105.2  19.1  34282  291.64 0854.45
2009/04/23 14:31:30.2     304   -139     94    335    348 114.6  15.7  34290  291.78 0854.45
2009/04/23 14:31:30.3     245    -93     72    263    273 110.8  15.3  34296  291.87 0854.45
2009/04/23 14:31:30.4     225   -133    -29    262    264 120.7  -6.5  34302  291.97 0854.45
2009/04/23 14:31:30.5     333   -110    162    351    386 108.3  26.6  34312  292.15 0854.45
2009/04/23 14:31:30.6     272    -12     85    273    286  92.6  17.3  34302  291.99 0854.45
2009/04/23 14:31:30.7     183   -124    -38    222    226 124.1  -9.8  34298  291.93 0854.45
2009/04/23 14:31:30.8     197    -43     87    202    219 102.4  24.9  34298  291.93 0854.45
2009/04/23 14:31:30.9     337    -30    143    339    367  95.2  24.2  34304  292.02 0854.45
2009/04/23 14:31:31.0     170   -199    176    262    315 139.5  37.2  34304  292.02 0854.45
2009/04/23 14:31:31.1     227   -188    -38    296    299 129.6  -7.3  34304  292.01 0854.45
2009/04/23 14:31:31.2     180   -165    -77    245    258 132.4 -17.6  34298  291.92 0854.45
2009/04/23 14:31:31.3     174   -203    -33    268    271 139.4  -7.2  34286  291.72 0854.45
2009/04/23 14:31:31.4     116   -224     -1    253    254 152.6  -0.3  34282  291.63 0854.45
2009/04/23 14:31:31.5      58   -244     34    251    254 166.6   7.8  34290  291.77 0854.45
2009/04/23 14:31:31.6      70   -268     75    278    289 165.3  15.2  34294  291.85 0854.45
2009/04/23 14:31:31.7     136   -236     58    273    280 150.1  12.2  34302  291.99 0854.45
2009/04/23 14:31:31.8     138   -274    121    307    329 153.3  22.7  34300  291.96 0854.45
2009/04/23 14:31:31.9     193   -297    125    355    377 146.9  19.4  34288  291.74 0854.45
2009/04/23 14:31:32.0     206   -265    128    336    359 142.2  21.7  34290  291.79 0854.45
2009/04/23 14:31:32.1     154   -242    127    287    313 147.5  25.6  34272  291.46 0854.45
2009/04/23 14:31:32.2     120   -241    139    270    303 153.5  29.3  34266  291.38 0854.45
2009/04/23 14:31:32.3     178   -197    163    266    311 137.9  34.5  34294  291.85 0854.45
2009/04/23 14:31:32.4     185   -143    166    235    287 127.7  38.6  34290  291.78 0854.45
2009/04/23 14:31:32.5     194    -64    148    205    252 108.4  39.3  34278  291.56 0854.45
2009/04/23 14:31:32.6     168   -129     81    212    226 127.5  22.0  34254  291.18 0854.45
2009/04/23 14:31:32.7     115   -115    103    163    192 135.1  35.5  34264  291.35 0854.45
2009/04/23 14:31:32.8     119    -80    126    144    191 124.2  45.8  34288  291.74 0854.45
2009/04/23 14:31:32.9       7     -3    151      8    151 115.3  90.0  34290  291.79 0854.45
2009/04/23 14:31:33.0      -7    -41    100     42    108 190.7  76.1  34278  291.59 0854.45
2009/04/23 14:31:33.1      32    -30    104     45    113 133.1  75.5  34274  291.50 0854.45
2009/04/23 14:31:33.2      14   -108    199    109    226 172.4  68.9  34280  291.62 0854.45
2009/04/23 14:31:33.3       0    -62    139     63    152 180.0  74.0  34286  291.71 0854.45
2009/04/23 14:31:33.4     -22    -94    141     97    171 193.4  62.4  34270  291.45 0854.45
2009/04/23 14:31:33.5     -32   -225    192    228    298 188.2  44.3  34278  291.56 0854.45
2009/04/23 14:31:33.6     -52   -249    213    255    332 191.8  44.1  34308  292.07 0854.45
2009/04/23 14:31:33.7     -31   -219    210    222    305 188.1  48.0  34370  293.13 0854.44
2009/04/23 14:31:33.8     -51   -249    230    255    343 191.6  46.8  34336  292.55 0854.44
2009/04/23 14:31:33.9     -47   -267    239    272    362 190.0  45.8  34308  292.10 0854.44
2009/04/23 14:31:34.0     -24   -263    166    265    312 185.4  35.0  34310  292.13 0854.44
2009/04/23 14:31:34.1     -26   -281    209    283    351 185.3  40.1  34286  291.71 0854.44
2009/04/23 14:31:34.2     -32   -213    190    216    287 188.7  45.9  34268  291.39 0854.44
2009/04/23 14:31:34.3    -109   -259    182    282    335 202.8  35.9  34294  291.84 0854.44
2009/04/23 14:31:34.4    -122   -279    164    305    346 203.6  30.7  34264  291.35 0854.44
2009/04/23 14:31:34.5    -130   -298    179    326    371 203.6  31.3  34252  291.13 0854.44
2009/04/23 14:31:34.6    -105   -250    171    272    321 202.9  35.2  34256  291.19 0854.44
2009/04/23 14:31:34.7     -97   -268    115    286    308 200.0  23.0  34274  291.50 0854.44
2009/04/23 14:31:34.8     -38   -309    142    312    342 187.1  26.4  34284  291.68 0854.44
2009/04/23 14:31:34.9     -93   -343     96    356    369 195.3  15.1  34278  291.56 0854.44
2009/04/23 14:31:35.0    -190   -367     65    414    420 207.4   9.0  34294  291.86 0854.44
2009/04/23 14:31:35.1    -148   -444     68    469    475 198.5   8.3  34326  292.39 0854.44
2009/04/23 14:31:35.2    -122   -366     95    387    399 198.5  13.8  34344  292.70 0854.44
2009/04/23 14:31:35.3    -135   -321    165    349    386 202.8  27.2  34342  292.65 0854.44
2009/04/23 14:31:35.4    -244   -209   -102    322    337 229.5 -22.6  34336  292.58 0854.44
2009/04/23 14:31:35.5       0   -223   -181    224    287 180.0 -47.7  34290  291.77 0854.44
2009/04/23 14:31:35.6     -60   -271    -40    278    281 192.5  -8.2  34306  292.06 0854.44
2009/04/23 14:31:35.7     -12   -401    -28    402    403 181.8  -4.1  34292  291.80 0854.43
2009/04/23 14:31:35.8      -7   -408    -36    409    411 181.0  -5.1  34308  292.08 0854.43
2009/04/23 14:31:35.9     -24   -489     -7    490    491 182.9  -0.9  34306  292.04 0854.43
2009/04/23 14:31:36.0      20   -437     22    438    439 177.3   2.9  34300  291.96 0854.43
2009/04/23 14:31:36.1     -16   -437      9    438    439 182.1   1.2  34310  292.13 0854.43
2009/04/23 14:31:36.2     -30   -457     -1    459    460 183.8  -0.2  34304  292.01 0854.43
2009/04/23 14:31:36.3      34   -505     97    507    517 176.1  10.8  34278  291.59 0854.43
2009/04/23 14:31:36.4     117   -460     98    475    486 165.7  11.7  34286  291.70 0854.43
2009/04/23 14:31:36.5     124   -460     83    477    485 164.8   9.9  34284  291.68 0854.43
2009/04/23 14:31:36.6     230   -359     77    427    435 147.3  10.3  34290  291.77 0854.43
2009/04/23 14:31:36.7     240   -413    159    478    505 149.8  18.5  34272  291.47 0854.43
2009/04/23 14:31:36.8     296   -350     89    459    468 139.7  11.0  34268  291.39 0854.43
2009/04/23 14:31:36.9     216   -246    123    328    350 138.7  21.4  34272  291.49 0854.43
2009/04/23 14:31:37.0      87   -303    123    316    339 164.0  22.4  34278  291.59 0854.43
2009/04/23 14:31:37.1     131   -286     83    315    326 155.3  14.9  34280  291.60 0854.43
2009/04/23 14:31:37.2     155   -390     92    420    431 158.3  12.4  34276  291.53 0854.43
2009/04/23 14:31:37.3      98   -351    142    365    391 164.3  22.4  34278  291.56 0854.43
2009/04/23 14:31:37.4      70   -278    205    287    352 165.8  39.2  34278  291.59 0854.43
2009/04/23 14:31:37.5     301   -263    204    400    449 131.1  29.2  34280  291.60 0854.43
2009/04/23 14:31:37.6     226   -341    182    410    448 146.5  25.6  34276  291.53 0854.43
2009/04/23 14:31:37.7     174   -240    183    297    348 144.0  34.9  34272  291.47 0854.43
2009/04/23 14:31:37.8     215   -369    209    428    476 149.7  28.0  34272  291.46 0854.43
2009/04/23 14:31:37.9     369   -264    196    455    495 125.6  24.6  34278  291.56 0854.43
2009/04/23 14:31:38.0     342   -102     97    357    371 106.6  15.3  34278  291.59 0854.43
2009/04/23 14:31:38.1     237    -29     84    239    254  97.0  19.4  34316  292.21 0854.43
2009/04/23 14:31:38.2      75    -56     50     94    106 126.9  30.8  34322  292.34 0854.43
2009/04/23 14:31:38.3      -1   -129     83    130    154 180.8  35.5  34272  291.47 0854.43
2009/04/23 14:31:38.4     130    -73     52    150    159 119.3  19.2  34280  291.62 0854.43
2009/04/23 14:31:38.5     110    -17     59    112    126  98.8  29.8  34292  291.81 0854.43
2009/04/23 14:31:38.6     147     15    118    148    189  83.9  43.0  34286  291.71 0854.43
2009/04/23 14:31:38.7     158     73    114    175    208  65.2  36.0  34306  292.05 0854.43
2009/04/23 14:31:38.8     162     49    124    170    210  73.2  39.7  34326  292.40 0854.43
2009/04/23 14:31:38.9      67     84    154    108    188  38.7  61.5  34334  292.54 0854.43
2009/04/23 14:31:39.0     163      0    126    164    206  90.0  41.7  34312  292.17 0854.43
2009/04/23 14:31:39.1     174     45    175    180    251  75.2  49.2  34306  292.06 0854.43
2009/04/23 14:31:39.2     210     12    240    211    319  86.5  54.3  34284  291.67 0854.43
2009/04/23 14:31:39.3     176    -37    218    180    282 101.9  56.4  34306  292.04 0854.43
2009/04/23 14:31:39.4     226     17    224    227    318  85.6  49.8  34306  292.06 0854.43
2009/04/23 14:31:39.5     220      0    228    221    317  89.9  51.1  34304  292.01 0854.43
2009/04/23 14:31:39.6     169     99    218    196    293  59.6  53.3  34372  293.16 0854.43
2009/04/23 14:31:39.7      43     61    157     75    173  35.2  72.8  34338  292.59 0854.44
2009/04/23 14:31:39.8      35    -16    170     39    174 115.2  87.7  34324  292.37 0854.44
2009/04/23 14:31:39.9      47    -11    163     49    170 103.3  82.5  34320  292.29 0854.44
2009/04/23 14:31:40.0     119     36    208    125    242  73.1  66.2  34352  292.83 0854.44
2009/04/23 14:31:40.1     177     49    171    184    251  74.5  47.9  34344  292.69 0854.44
2009/04/23 14:31:40.2     191      2    213    192    286  89.1  53.3  34328  292.43 0854.44
2009/04/23 14:31:40.3     131    -52    199    142    244 111.7  61.3  34284  291.67 0854.44
2009/04/23 14:31:40.4       0   -113    191    114    222 180.4  66.4  34296  291.88 0854.44
2009/04/23 14:31:40.5     -23   -103    203    106    229 192.9  70.6  34306  292.05 0854.44
2009/04/23 14:31:40.6      75     -3    107     76    131  92.6  61.1  34318  292.25 0854.44
2009/04/23 14:31:40.7     161    -22    132    163    209  97.9  43.5  34322  292.32 0854.44
2009/04/23 14:31:40.8     172     31    125    175    215  79.6  39.5  34330  292.47 0854.44
2009/04/23 14:31:40.9     204      7    251    205    324  87.9  56.5  34326  292.40 0854.44
2009/04/23 14:31:41.0     272    -11    191    273    333  92.5  38.6  34312  292.16 0854.44
2009/04/23 14:31:41.1     249     -7    164    250    298  91.7  36.5  34306  292.04 0854.44
2009/04/23 14:31:41.2     170    -35    147    174    227 101.7  44.3  34304  292.01 0854.44
2009/04/23 14:31:41.3      -5    -44    119     45    127 187.1  78.6  34340  292.63 0854.44
2009/04/23 14:31:41.4     142    -67    171    158    232 115.4  52.2  34320  292.30 0854.44
2009/04/23 14:31:41.5     227    -69    153    238    282 106.9  35.6  34338  292.59 0854.44
2009/04/23 14:31:41.6     318     77    173    328    370  76.3  30.2  34366  293.07 0854.44
2009/04/23 14:31:41.7     303     81    155    314    350  75.0  28.0  34376  293.23 0854.46
2009/04/23 14:31:41.8     286     87    111    300    319  73.1  21.1  34354  292.86 0854.46
2009/04/23 14:31:41.9     374     33     88    376    387  84.8  13.3  34360  292.97 0854.46
2009/04/23 14:31:42.0     297      4     75    298    308  89.2  14.2  34360  292.98 0854.46
2009/04/23 14:31:42.1     246     53     26    252    254  77.7   6.0  34316  292.21 0854.46
2009/04/23 14:31:42.2     260     17    133    261    292  86.1  29.2  34344  292.70 0854.46
2009/04/23 14:31:42.3     131     -8    162    132    208  93.5  56.4  34350  292.81 0854.46
2009/04/23 14:31:42.4     302     -1    135    303    331  90.4  25.7  34338  292.60 0854.46
2009/04/23 14:31:42.5     277    -71    113    286    307 104.4  23.0  34358  292.94 0854.46
2009/04/23 14:31:42.6     233    -14     -5    234    235  93.5  -1.3  34324  292.35 0854.46
2009/04/23 14:31:42.7     118     72     -5    139    140  58.5  -2.2  34326  292.40 0854.46
2009/04/23 14:31:42.8     104      0    128    105    165  90.0  56.6  34330  292.47 0854.46
2009/04/23 14:31:42.9     161    -43    115    167    202 105.1  37.6  34326  292.40 0854.46
2009/04/23 14:31:43.0      64    -64    124     91    153 135.0  60.5  34332  292.51 0854.46
2009/04/23 14:31:43.1     145   -101    150    177    232 124.9  44.3  34314  292.18 0854.46
2009/04/23 14:31:43.2     175    -58     82    185    202 108.4  25.2  34310  292.13 0854.46
2009/04/23 14:31:43.3     282     43    -60    286    293  81.2 -11.9  34314  292.18 0854.46
2009/04/23 14:31:43.4     138    -86    160    163    228 122.0  49.8  34326  292.40 0854.46
2009/04/23 14:31:43.5     233    -76    107    246    268 108.2  25.1  34322  292.31 0854.46
2009/04/23 14:31:43.6     270     26    -28    272    274  84.3  -6.1  34336  292.57 0854.46
2009/04/23 14:31:43.7     304    174     17    351    352  60.3   2.9  34346  292.75 0854.45
2009/04/23 14:31:43.8     297     32    104    299    317  83.8  19.2  34320  292.28 0854.45
2009/04/23 14:31:43.9     244    -57    112    251    274 103.3  25.3  34334  292.53 0854.45
2009/04/23 14:31:44.0     177   -108    166    208    266 121.3  43.0  34328  292.41 0854.45
2009/04/23 14:31:44.1     234    -74    156    246    291 107.5  35.5  34318  292.26 0854.45
2009/04/23 14:31:44.2     133    -63    135    148    200 115.3  47.1  34324  292.35 0854.45
2009/04/23 14:31:44.3     128   -125    107    180    209 134.4  33.5  34328  292.44 0854.45
2009/04/23 14:31:44.4      86   -189     38    208    212 155.5  10.3  34320  292.29 0854.45
2009/04/23 14:31:44.5     117   -158     71    197    209 143.5  20.7  34320  292.30 0854.45
2009/04/23 14:31:44.6      58   -247    125    254    283 166.6  28.2  34324  292.36 0854.45
2009/04/23 14:31:44.7     -58   -355    127    360    381 189.4  20.1  34324  292.36 0854.46
2009/04/23 14:31:44.8     -48   -311     90    315    328 188.9  16.0  34306  292.04 0854.46
2009/04/23 14:31:44.9     -45   -220    139    225    264 191.6  35.0  34320  292.28 0854.46
2009/04/23 14:31:45.0      -6   -283    202    284    348 181.4  39.1  34318  292.26 0854.46
2009/04/23 14:31:45.1     -11   -295    162    296    337 182.2  31.3  34310  292.13 0854.46
2009/04/23 14:31:45.2      99   -318    100    334    349 162.6  16.7  34310  292.12 0854.46
2009/04/23 14:31:45.3     159   -310    123    349    370 152.8  20.1  34304  292.03 0854.46
2009/04/23 14:31:45.4       2   -316    157    317    353 179.5  28.4  34296  291.88 0854.46
2009/04/23 14:31:45.5     -11   -295    166    296    339 182.2  31.9  34300  291.96 0854.46
2009/04/23 14:31:45.6      29   -321    118    323    343 174.7  21.0  34302  291.98 0854.46
2009/04/23 14:31:45.7      62   -316     34    323    325 168.9   6.1  34302  291.99 0854.46
2009/04/23 14:31:45.8       4   -280     49    281    286 179.1  10.0  34304  292.01 0854.46
2009/04/23 14:31:45.9     124   -251      3    280    281 153.7   0.8  34302  291.97 0854.46
2009/04/23 14:31:46.0      96   -251     -7    269    270 159.0  -1.6  34304  292.02 0854.46
2009/04/23 14:31:46.1      93   -283     30    299    301 161.7   5.9  34300  291.96 0854.46
2009/04/23 14:31:46.2     117   -314     13    336    337 159.6   2.2  34304  292.03 0854.46
2009/04/23 14:31:46.3      95   -220     24    240    242 156.6   5.9  34302  291.99 0854.46
2009/04/23 14:31:46.4     142   -250     -6    288    289 150.4  -1.3  34310  292.11 0854.46
2009/04/23 14:31:46.5     132   -240     61    275    282 151.1  12.6  34308  292.07 0854.46
2009/04/23 14:31:46.6     190   -191    130    270    299 135.2  27.3  34302  291.99 0854.46
2009/04/23 14:31:46.7     192   -183     72    266    276 133.6  15.3  34306  292.04 0854.47
2009/04/23 14:31:46.8     222   -159    115    274    297 125.7  24.1  34304  292.01 0854.47
2009/04/23 14:31:46.9     138   -136    116    194    226 134.6  33.7  34300  291.96 0854.47
2009/04/23 14:31:47.0     146   -139    -15    202    203 133.6  -4.4  34306  292.06 0854.47
2009/04/23 14:31:47.1      82   -129     72    154    170 147.5  27.1  34304  292.01 0854.47
2009/04/23 14:31:47.2      92   -117    114    150    188 141.7  41.2  34304  292.03 0854.47
2009/04/23 14:31:47.3      47    -93     88    105    137 152.8  43.8  34298  291.91 0854.47
2009/04/23 14:31:47.4      -8   -109    112    110    156 184.5  50.4  34298  291.93 0854.47
2009/04/23 14:31:47.5      12    -95     74     96    121 172.4  41.7  34302  291.98 0854.47
2009/04/23 14:31:47.6       8   -104     76    105    129 175.5  39.7  34304  292.01 0854.47
2009/04/23 14:31:47.7      15   -144     53    145    154 173.8  20.4  34294  291.86 0854.47
2009/04/23 14:31:47.8      41   -124     43    131    139 161.7  18.4  34290  291.79 0854.47
2009/04/23 14:31:47.9      31   -114    119    119    168 164.4  50.1  34298  291.93 0854.47
2009/04/23 14:31:48.0      42   -162     88    168    189 165.5  29.8  34286  291.71 0854.47
2009/04/23 14:31:48.1      11   -174    141    175    224 176.2  43.5  34296  291.88 0854.47
2009/04/23 14:31:48.2     -22   -133    130    135    187 189.7  49.0  34290  291.79 0854.47
2009/04/23 14:31:48.3      65   -163    138    176    223 158.2  42.0  34286  291.71 0854.47
2009/04/23 14:31:48.4      75   -223    130    236    269 161.3  31.4  34284  291.67 0854.47
2009/04/23 14:31:48.5      94   -248    207    266    337 159.1  41.9  34280  291.60 0854.47
2009/04/23 14:31:48.7      64   -232    120    241    269 164.4  28.2  34280  291.60 0854.48
2009/04/23 14:31:48.7      56   -195     87    203    220 164.0  24.6  34276  291.55 0854.48
2009/04/23 14:31:48.8      79   -222    121    236    265 160.4  29.2  34272  291.46 0854.48
2009/04/23 14:31:48.9     133   -143    120    196    229 137.0  34.8  34268  291.40 0854.48
2009/04/23 14:31:49.0     126   -147    115    194    225 139.5  33.5  34272  291.49 0854.48
2009/04/23 14:31:49.1     140    -95     73    170    185 124.2  24.6  34274  291.52 0854.48
2009/04/23 14:31:49.2     171    -41     20    176    178 103.5   6.7  34276  291.54 0854.48
2009/04/23 14:31:49.3     215    -43     12    220    221 101.5   3.3  34276  291.55 0854.48
2009/04/23 14:31:49.4     179    -22    -11    181    182  97.2  -3.7  34274  291.52 0854.48
2009/04/23 14:31:49.5     125    -25     -5    128    129 101.4  -2.2  34276  291.55 0854.48
2009/04/23 14:31:49.6     122    -62    -22    138    140 117.0  -9.4  34280  291.62 0854.48
2009/04/23 14:31:49.8     103    -94    -44    140    146 132.2 -23.3  34278  291.57 0854.48
2009/04/23 14:31:49.8      65   -102    -39    122    128 147.5 -23.3  34272  291.49 0854.48
2009/04/23 14:31:49.9      32    -96     18    102    104 161.7  10.1  34276  291.54 0854.48
2009/04/23 14:31:50.0      41    -55     23     69     73 143.0  18.9  34276  291.54 0854.48
2009/04/23 14:31:50.1      87    -22     16     90     92 104.6  10.1  34274  291.52 0854.48
2009/04/23 14:31:50.2      53    -37     17     65     68 125.1  15.2  34278  291.57 0854.48
2009/04/23 14:31:50.3      58    -26     42     64     76 114.4  35.6  34280  291.62 0854.48
2009/04/23 14:31:50.4      60    -28     29     67     73 115.2  25.1  34282  291.66 0854.48
2009/04/23 14:31:50.5      31    -15     32     35     47 117.1  47.9  34276  291.55 0854.48
2009/04/23 14:31:50.7      35    -35     33     50     59 135.0  36.5  34278  291.59 0854.48
2009/04/23 14:31:50.8      38    -52     37     65     74 143.9  32.4  34276  291.54 0854.49
2009/04/23 14:31:50.9      37    -72     29     81     86 152.8  20.0  34276  291.54 0854.49
2009/04/23 14:31:51.0      16    -82     25     84     88 168.4  16.8  34284  291.69 0854.49
2009/04/23 14:31:51.1      24    -71     29     76     81 161.3  21.5  34286  291.71 0854.49
2009/04/23 14:31:51.2      14    -57     17     59     62 165.7  16.3  34294  291.84 0854.49
2009/04/23 14:31:51.3      44    -40     15     60     62 132.2  14.3  34298  291.93 0854.49
2009/04/23 14:31:51.4       3    -49     20     50     53 176.4  22.0  34300  291.95 0854.49
2009/04/23 14:31:51.5       5    -29     33     30     44 170.2  52.2  34300  291.96 0854.49
2009/04/23 14:31:51.6      44     -6     44     45     62  97.9  50.0  34306  292.06 0854.49
2009/04/23 14:31:51.7      43    -26     47     51     69 120.7  47.9  34308  292.10 0854.49
2009/04/23 14:31:51.8      46    -16     64     49     80 110.0  59.0  34312  292.17 0854.49
2009/04/23 14:31:51.9      69     -7     74     70    101  96.1  51.6  34306  292.05 0854.49
2009/04/23 14:31:52.0      71    -33     84     79    115 115.4  52.1  34304  292.01 0854.49
2009/04/23 14:31:52.1      71    -86    112    112    158 140.3  50.1  34298  291.91 0854.49
2009/04/23 14:31:52.2     117    -77    100    141    172 123.3  38.6  34304  292.03 0854.49
2009/04/23 14:31:52.3      78    -68    107    104    149 131.3  50.7  34298  291.91 0854.49
2009/04/23 14:31:52.4     161    -71    146    177    229 114.0  43.7  34302  291.98 0854.49
2009/04/23 14:31:52.5     117    -96    125    152    196 129.5  43.7  34300  291.96 0854.49
2009/04/23 14:31:52.6      52   -120    104    131    167 156.4  42.7  34296  291.88 0854.49
2009/04/23 14:31:52.7     143   -186    143    235    275 142.4  34.2  34298  291.90 0854.49
2009/04/23 14:31:52.8     191   -233     65    302    310 140.6  12.2  34298  291.90 0854.50
2009/04/23 14:31:52.9     129   -247    134    279    309 152.4  27.3  34288  291.73 0854.50
2009/04/23 14:31:53.0     157   -247    138    293    323 147.5  27.1  34286  291.70 0854.50
2009/04/23 14:31:53.1     208   -133     -5    248    249 122.6  -1.3  34290  291.78 0854.50
2009/04/23 14:31:53.2     254   -132     -1    287    288 117.5  -0.3  34282  291.65 0854.50
2009/04/23 14:31:53.3     147   -274    102    312    329 151.7  18.1  34280  291.61 0854.50
2009/04/23 14:31:53.4     208   -275     69    346    353 142.9  11.3  34274  291.52 0854.50
2009/04/23 14:31:53.5     168   -354     44    392    395 154.6   6.5  34268  291.39 0854.50
2009/04/23 14:31:53.6     189   -323     65    375    381 149.6   9.9  34258  291.22 0854.50
2009/04/23 14:31:53.7     136   -301    123    331    353 155.6  21.4  34258  291.25 0854.50
2009/04/23 14:31:53.8     130   -300    159    328    364 156.5  27.7  34262  291.32 0854.50
2009/04/23 14:31:53.9     142   -355    138    383    408 158.2  19.9  34272  291.47 0854.50
2009/04/23 14:31:54.0     144   -304     96    337    351 154.7  16.0  34298  291.93 0854.50
2009/04/23 14:31:54.1      97   -355    136    369    393 164.7  21.1  34300  291.95 0854.50
2009/04/23 14:31:54.2      92   -275    123    291    315 161.5  24.3  34294  291.85 0854.50
2009/04/23 14:31:54.3      37   -218    105    222    245 170.2  27.1  34296  291.89 0854.50
2009/04/23 14:31:54.4     112   -254    -15    278    279 156.2  -3.1  34292  291.80 0854.50
2009/04/23 14:31:54.5      60   -337     10    343    344 169.8   1.7  34284  291.68 0854.50
2009/04/23 14:31:54.6     -65   -345      5    352    353 190.7   0.8  34290  291.79 0854.50
2009/04/23 14:31:54.7     -33   -303      3    305    306 186.2   0.7  34298  291.92 0854.50
2009/04/23 14:31:54.8      64   -353    -14    359    360 169.7  -2.2  34268  291.39 0854.51
2009/04/23 14:31:54.9     114   -279     -6    302    303 157.7  -1.2  34260  291.27 0854.51
2009/04/23 14:31:55.0     120   -291     64    315    322 157.5  11.6  34266  291.38 0854.51
2009/04/23 14:31:55.1      85   -286     35    299    302 163.3   6.7  34260  291.27 0854.51
2009/04/23 14:31:55.2      75   -303     62    313    320 166.0  11.3  34252  291.12 0854.51
2009/04/23 14:31:55.3      51   -301     59    306    312 170.2  11.0  34244  291.00 0854.51
2009/04/23 14:31:55.4      44   -321     24    325    326 172.1   4.3  34256  291.19 0854.51
2009/04/23 14:31:55.5     125   -329     55    353    358 159.2   8.9  34258  291.23 0854.51
2009/04/23 14:31:55.6      70   -374     62    381    387 169.4   9.3  34254  291.17 0854.51
2009/04/23 14:31:55.7     109   -405     69    420    426 164.9   9.3  34256  291.21 0854.51
2009/04/23 14:31:55.8      83   -350     29    360    362 166.6   4.7  34264  291.34 0854.51
2009/04/23 14:31:55.9      34   -349     44    351    354 174.3   7.2  34258  291.23 0854.51
2009/04/23 14:31:56.0      43   -345    -19    348    349 172.9  -3.1  34262  291.32 0854.51
2009/04/23 14:31:56.1      69   -365    -29    372    374 169.3  -4.6  34264  291.35 0854.51
2009/04/23 14:31:56.2      78   -351    -14    360    361 167.3  -2.2  34262  291.32 0854.51
2009/04/23 14:31:56.3      72   -354     17    362    363 168.4   2.8  34262  291.30 0854.51
2009/04/23 14:31:56.4      47   -344     -6    348    349 172.2  -1.1  34262  291.32 0854.51
2009/04/23 14:31:56.5      80   -297    -53    308    313 164.9  -9.8  34264  291.33 0854.51
2009/04/23 14:31:56.6      86   -266    -73    280    290 162.1 -14.7  34270  291.44 0854.51
2009/04/23 14:31:56.7      84   -283    -31    296    298 163.5  -6.1  34260  291.27 0854.51
2009/04/23 14:31:56.8      42   -274    -79    278    289 171.3 -20.7  34270  291.44 0854.51
2009/04/23 14:31:56.9     102   -309    -88    326    338 161.6 -15.2  34272  291.47 0854.51
2009/04/23 14:31:57.0      58   -320    -60    326    332 169.7 -10.5  34258  291.23 0854.51
2009/04/23 14:31:57.1      97   -407    -47    419    422 166.6  -6.5  34264  291.33 0854.51
2009/04/23 14:31:57.2      73   -360    -81    368    377 168.4 -12.5  34268  291.40 0854.51
2009/04/23 14:31:57.3      80   -380    -56    389    394 168.0  -8.2  34250  291.10 0854.51
2009/04/23 14:31:57.4      71   -366    -97    373    386 169.0 -14.6  34252  291.15 0854.51
2009/04/23 14:31:57.5       3   -379    -50    380    384 179.4  -7.6  34268  291.42 0854.51
2009/04/23 14:31:57.6      -4   -364    -61    365    371 180.7  -9.5  34274  291.52 0854.51
2009/04/23 14:31:57.7     115   -375     19    393    394 163.0   2.9  34250  291.10 0854.51
2009/04/23 14:31:57.8     124   -383     75    403    410 162.1  10.6  34250  291.11 0854.51
2009/04/23 14:31:57.9      75   -329    -25    338    339 167.1  -4.4  34258  291.25 0854.51
2009/04/23 14:31:58.0      62   -353     37    359    361 170.0   5.9  34250  291.11 0854.51
2009/04/23 14:31:58.1      -5   -366     48    367    371 180.9   7.5  34256  291.20 0854.51
2009/04/23 14:31:58.2       0   -310     24    311    313 180.0   4.6  34256  291.21 0854.51
2009/04/23 14:31:58.3     -12   -376     -9    377    378 181.9  -1.4  34254  291.18 0854.51
2009/04/23 14:31:58.4      40   -391    -45    394    397 174.0  -6.6  34252  291.15 0854.51
2009/04/23 14:31:58.5      32   -341    -69    343    350 174.6 -11.5  34258  291.23 0854.51
2009/04/23 14:31:58.6      66   -320   -101    327    343 168.3 -17.2  34246  291.03 0854.51
2009/04/23 14:31:58.7      39   -320    -97    323    337 172.9 -21.6  34248  291.08 0854.51
2009/04/23 14:31:58.8      37   -348   -111    351    369 173.9 -17.5  34244  291.01 0854.50
2009/04/23 14:31:58.9      60   -384   -120    389    408 171.1 -17.2  34244  291.00 0854.50
2009/04/23 14:31:59.0      69   -338   -106    346    361 168.4 -22.2  34244  291.01 0854.50
2009/04/23 14:31:59.1     -25   -323   -115    325    345 184.6 -19.5  34260  291.28 0854.50
2009/04/23 14:31:59.2      16   -322   -106    323    340 177.1 -18.2  34262  291.32 0854.50
2009/04/23 14:31:59.3     -34   -344    -97    346    360 185.7 -15.7  34270  291.45 0854.50
2009/04/23 14:31:59.4      23   -339    -97    340    353 176.0 -20.5  34256  291.20 0854.50
2009/04/23 14:31:59.5      24   -312    -93    314    327 175.5 -21.4  34256  291.21 0854.50
2009/04/23 14:31:59.6      22   -292    -71    293    302 175.6 -13.7  34264  291.33 0854.50
2009/04/23 14:31:59.7      -6   -361    -79    362    371 181.0 -12.4  34270  291.45 0854.50
2009/04/23 14:31:59.8     -11   -316    -82    317    328 182.1 -14.5  34274  291.50 0854.50
2009/04/23 14:31:59.9      -8   -342    -81    343    353 181.4 -13.3  34268  291.42 0854.50
2009/04/23 14:32:00.0      35   -321    -94    324    338 173.7 -16.2  34268  291.42 0854.50
2009/04/23 14:32:00.1      30   -352    -84    354    364 175.0 -13.4  34268  291.40 0854.50
2009/04/23 14:32:00.2      60   -383    -92    388    399 171.0 -13.4  34258  291.22 0854.50
2009/04/23 14:32:00.3      31   -408    -91    410    421 175.5 -12.6  34262  291.31 0854.50
2009/04/23 14:32:00.4      47   -438    -72    441    447 173.8  -9.3  34264  291.35 0854.50
2009/04/23 14:32:00.5      80   -402    -43    410    413 168.7  -6.1  34262  291.31 0854.50
2009/04/23 14:32:00.6      58   -374   -111    379    396 171.2 -16.4  34252  291.15 0854.50
2009/04/23 14:32:00.7      58   -376    -52    381    385 171.1  -7.9  34268  291.39 0854.50
2009/04/23 14:32:00.8      29   -370    -25    372    373 175.5  -3.9  34270  291.45 0854.50
2009/04/23 14:32:00.9     -11   -424    -45    425    428 181.5  -6.1  34262  291.31 0854.50
2009/04/23 14:32:01.0      12   -429    -55    430    434 178.3  -7.3  34260  291.26 0854.50
2009/04/23 14:32:01.1      -9   -354    -93    355    368 181.6 -14.8  34252  291.13 0854.50
2009/04/23 14:32:01.2      -8   -344    -97    345    358 181.4 -20.4  34268  291.42 0854.50
2009/04/23 14:32:01.3      36   -387      3    389    390 174.6   0.5  34258  291.23 0854.50
2009/04/23 14:32:01.4      26   -362    -30    363    365 175.9  -4.9  34262  291.32 0854.50
2009/04/23 14:32:01.5      22   -360    -32    361    363 176.4  -5.2  34250  291.11 0854.50
2009/04/23 14:32:01.6      19   -410    -52    411    415 177.3  -7.3  34240  290.94 0854.50
2009/04/23 14:32:01.7       1   -372    -14    373    374 179.8  -2.2  34248  291.05 0854.50
2009/04/23 14:32:01.8      21   -387     -9    388    389 176.9  -1.4  34240  290.93 0854.50
2009/04/23 14:32:01.9      44   -389     -6    392    393 173.4  -0.9  34234  290.83 0854.50
2009/04/23 14:32:02.0      68   -399    -14    405    406 170.2  -2.1  34242  290.95 0854.50
2009/04/23 14:32:02.1     120   -388     16    407    408 162.8   2.4  34244  291.01 0854.50
2009/04/23 14:32:02.2      86   -423     32    432    434 168.4   4.2  34240  290.92 0854.50
2009/04/23 14:32:02.3      64   -447    -14    452    453 171.8  -1.9  34230  290.77 0854.50
2009/04/23 14:32:02.4      61   -440    -24    445    446 172.0  -3.1  34232  290.78 0854.50
2009/04/23 14:32:02.5       0   -422     13    423    424 180.0   1.9  34232  290.78 0854.50
2009/04/23 14:32:02.6       1   -436     45    437    440 179.8   6.0  34234  290.82 0854.50
2009/04/23 14:32:02.7      25   -407     59    408    413 176.4   8.2  34238  290.90 0854.50
2009/04/23 14:32:02.8      22   -422     59    423    428 177.0   8.0  34238  290.90 0854.51
2009/04/23 14:32:02.9      13   -434     52    435    439 178.2   6.9  34236  290.87 0854.51
2009/04/23 14:32:03.0       2   -419     48    420    423 179.7   6.6  34238  290.89 0854.51
2009/04/23 14:32:03.1      80   -397    -19    405    406 168.6  -2.7  34238  290.89 0854.51
2009/04/23 14:32:03.2      77   -399     27    407    408 169.0   3.8  34232  290.78 0854.51
2009/04/23 14:32:03.3      40   -423     50    426    429 174.6   6.7  34238  290.89 0854.51
2009/04/23 14:32:03.4       6   -395     70    396    403 179.0  10.0  34238  290.89 0854.51
2009/04/23 14:32:03.5     -21   -382     29    383    384 183.2   4.4  34238  290.91 0854.51
2009/04/23 14:32:03.6     -56   -425     38    429    431 187.6   5.1  34236  290.87 0854.51
2009/04/23 14:32:03.7     -42   -372     15    375    376 186.5   2.4  34238  290.88 0854.51
2009/04/23 14:32:03.8      28   -372     57    373    378 175.7   8.8  34238  290.89 0854.51
2009/04/23 14:32:03.9      -7   -389    100    390    403 181.2  14.4  34242  290.96 0854.51
2009/04/23 14:32:04.0     -29   -356     44    358    361 184.7   7.1  34240  290.93 0854.51
2009/04/23 14:32:04.1     -63   -334     39    340    343 190.7   6.7  34248  291.08 0854.51
2009/04/23 14:32:04.2     -71   -290    -59    299    305 193.8 -11.3  34248  291.05 0854.51
2009/04/23 14:32:04.3     -30   -276    -88    278    292 186.2 -17.6  34246  291.04 0854.51
2009/04/23 14:32:04.4     -16   -269    -79    270    282 183.5 -16.4  34248  291.07 0854.51
2009/04/23 14:32:04.5     -18   -338    -52    339    343 183.1  -8.8  34248  291.08 0854.51
2009/04/23 14:32:04.6      14   -374    -73    375    383 177.8 -11.1  34252  291.15 0854.51
2009/04/23 14:32:04.7      35   -344    -25    346    347 174.1  -4.2  34248  291.06 0854.51
2009/04/23 14:32:04.8     -14   -313    -94    314    328 182.7 -16.8  34276  291.55 0854.54
2009/04/23 14:32:04.9     -29   -333    -98    335    349 185.0 -21.1  34270  291.45 0854.54
2009/04/23 14:32:05.0    -184   -319   -132    369    392 210.0 -19.7  34272  291.47 0854.54
2009/04/23 14:32:05.1    -209   -313   -115    377    394 213.8 -21.8  34270  291.44 0854.54
2009/04/23 14:32:05.2    -166   -335   -178    375    415 206.4 -31.6  34268  291.42 0854.54
2009/04/23 14:32:05.3    -178   -284   -185    336    383 212.1 -35.7  34268  291.39 0854.54
2009/04/23 14:32:05.4    -145   -282   -219    318    386 207.2 -42.2  34264  291.35 0854.54
2009/04/23 14:32:05.5    -136   -288   -211    319    382 205.3 -41.0  34264  291.35 0854.54
2009/04/23 14:32:05.6    -106   -284   -233    304    383 200.5 -45.8  34260  291.28 0854.54
2009/04/23 14:32:05.7    -102   -257   -189    277    335 201.8 -42.1  34260  291.26 0854.54
2009/04/23 14:32:05.8     -23   -245   -174    247    302 185.4 -43.0  34262  291.29 0854.54
2009/04/23 14:32:05.9     -61   -277   -143    284    317 192.5 -33.1  34270  291.43 0854.54
2009/04/23 14:32:06.0     -78   -293   -110    304    323 195.1 -25.2  34272  291.48 0854.54
2009/04/23 14:32:06.1     -52   -248   -106    254    275 192.0 -28.5  34282  291.65 0854.54
2009/04/23 14:32:06.2     -57   -259   -128    266    295 192.5 -31.7  34278  291.56 0854.54
2009/04/23 14:32:06.3     -78   -313   -127    323    347 194.0 -27.1  34268  291.40 0854.54
2009/04/23 14:32:06.4      -6   -268   -143    269    304 181.4 -34.7  34270  291.43 0854.54
2009/04/23 14:32:06.5      -4   -269   -129    270    299 180.9 -31.7  34266  291.38 0854.54
2009/04/23 14:32:06.6     -24   -301   -129    303    329 184.7 -29.0  34258  291.22 0854.54
2009/04/23 14:32:06.7     -76   -286   -171    296    341 194.9 -37.1  34250  291.09 0854.54
2009/04/23 14:32:06.8     -43   -308   -125    312    336 188.1 -27.4  34252  291.12 0854.50
2009/04/23 14:32:06.9     -14   -293   -101    294    310 182.9 -23.6  34252  291.14 0854.50
2009/04/23 14:32:07.0     -86   -338   -168    349    387 194.4 -31.7  34256  291.20 0854.50
2009/04/23 14:32:07.1     -70   -286   -143    295    327 193.8 -32.2  34252  291.12 0854.50
2009/04/23 14:32:07.2     -34   -302   -134    304    332 186.5 -29.7  34246  291.04 0854.50
2009/04/23 14:32:07.3    -114   -391    -93    408    419 196.3 -12.9  34250  291.11 0854.50
2009/04/23 14:32:07.4    -121   -377   -117    396    414 197.8 -16.5  34252  291.12 0854.50
2009/04/23 14:32:07.5    -150   -315   -123    349    370 205.5 -24.5  34254  291.18 0854.50
2009/04/23 14:32:07.6    -121   -382   -130    401    422 197.7 -18.0  34250  291.11 0854.50
2009/04/23 14:32:07.7     -48   -333    -66    337    344 188.3 -11.2  34256  291.20 0854.50
2009/04/23 14:32:07.8     -67   -319     -9    327    328 191.9  -1.6  34254  291.16 0854.48
2009/04/23 14:32:07.9    -109   -327     -2    345    346 198.5  -0.4  34258  291.25 0854.48
2009/04/23 14:32:08.0     -88   -344     52    356    360 194.4   8.3  34272  291.47 0854.48
2009/04/23 14:32:08.1    -148   -364     19    394    395 202.2   2.8  34268  291.39 0854.48
2009/04/23 14:32:08.2    -168   -377    -16    413    414 204.1  -2.2  34256  291.21 0854.48
2009/04/23 14:32:08.3    -173   -380    -35    418    420 204.5  -4.8  34254  291.16 0854.48
2009/04/23 14:32:08.4    -207   -324    -48    385    389 212.6  -7.2  34254  291.17 0854.48
2009/04/23 14:32:08.5    -219   -355    -53    418    422 211.6  -7.3  34254  291.16 0854.48
2009/04/23 14:32:08.6    -209   -359    -84    416    425 210.2 -11.5  34256  291.19 0854.48
2009/04/23 14:32:08.7    -183   -376    -59    419    424 206.0  -8.1  34260  291.26 0854.48
2009/04/23 14:32:08.8    -262   -269    -47    376    379 224.2  -7.2  34258  291.25 0854.48
2009/04/23 14:32:08.9    -321   -226    -84    393    403 234.8 -12.2  34260  291.28 0854.48
2009/04/23 14:32:09.0    -381   -154   -122    412    429 247.9 -21.5  34264  291.33 0854.48
2009/04/23 14:32:09.1    -369   -205   -131    423    443 241.0 -17.3  34262  291.29 0854.48
2009/04/23 14:32:09.2    -326   -195   -116    381    399 239.1 -16.9  34258  291.22 0854.48
2009/04/23 14:32:09.3    -271   -132    -60    302    309 244.0 -11.3  34254  291.17 0854.48
2009/04/23 14:32:09.4    -290   -199   -111    352    369 235.5 -22.5  34244  291.01 0854.48
2009/04/23 14:32:09.5    -238   -256   -171    350    389 222.9 -32.2  34238  290.88 0854.48
2009/04/23 14:32:09.6    -222   -171   -124    281    307 232.5 -29.6  34242  290.95 0854.48
2009/04/23 14:32:09.7    -143    -85   -170    167    238 239.3 -54.8  34262  291.30 0854.48
2009/04/23 14:32:09.8    -100   -152   -186    183    260 213.4 -54.6  34248  291.07 0854.46
2009/04/23 14:32:09.9     -41   -225   -158    229    278 190.5 -42.2  34256  291.21 0854.46
2009/04/23 14:32:10.0      11   -195   -125    196    232 176.6 -39.9  34262  291.30 0854.46
2009/04/23 14:32:10.1      20   -135   -143    137    198 171.5 -55.6  34248  291.08 0854.46
2009/04/23 14:32:10.2      30   -175   -158    178    238 170.0 -50.8  34246  291.03 0854.46
2009/04/23 14:32:10.3      59   -191   -153    200    251 162.8 -45.6  34250  291.10 0854.46
2009/04/23 14:32:10.4      51   -249   -123    255    283 168.4 -31.7  34262  291.29 0854.46
2009/04/23 14:32:10.5      47   -249   -131    254    285 169.3 -33.7  34270  291.44 0854.46
2009/04/23 14:32:10.6      75   -271   -127    282    309 164.4 -30.6  34266  291.36 0854.46
2009/04/23 14:32:10.7      87   -264   -107    279    298 161.7 -26.4  34272  291.46 0854.46
2009/04/23 14:32:10.8      71   -274    -85    284    296 165.3 -21.7  34266  291.38 0854.46
2009/04/23 14:32:10.9     125   -218    -92    252    268 150.2 -25.3  34270  291.44 0854.46
2009/04/23 14:32:11.0     147   -209    -52    256    262 144.8 -11.5  34264  291.33 0854.46
2009/04/23 14:32:11.1     168   -216    -24    274    276 142.2  -5.1  34270  291.43 0854.46
2009/04/23 14:32:11.2     146   -222     32    267    269 146.6   6.9  34270  291.44 0854.46
2009/04/23 14:32:11.3     175   -256     15    311    312 145.7   2.9  34270  291.43 0854.46
2009/04/23 14:32:11.4     120   -249     11    277    278 154.1   2.3  34264  291.33 0854.46
2009/04/23 14:32:11.5     156   -245     -5    291    292 147.5  -1.2  34260  291.27 0854.46
2009/04/23 14:32:11.6     152   -239     66    284    292 147.5  13.2  34266  291.36 0854.46
2009/04/23 14:32:11.7      42   -333    -47    336    340 172.7  -8.0  34254  291.17 0854.46
2009/04/23 14:32:11.8      10   -419    -39    420    422 178.6  -5.3  34254  291.18 0854.46
2009/04/23 14:32:11.9      17   -287     -1    288    289 176.5  -0.3  34260  291.26 0854.46
2009/04/23 14:32:12.0      -1   -226     93    227    245 180.5  23.8  34270  291.43 0854.46
2009/04/23 14:32:12.1      31   -217     81    220    234 171.9  21.0  34272  291.47 0854.46
2009/04/23 14:32:12.2      29   -173     76    176    191 170.4  24.9  34274  291.52 0854.46
2009/04/23 14:32:12.3       8   -162     74    163    179 177.1  26.2  34276  291.54 0854.46
2009/04/23 14:32:12.4       1   -139     57    140    151 179.5  23.1  34270  291.45 0854.46
2009/04/23 14:32:12.5       1   -126     39    127    134 179.5  17.3  34272  291.47 0854.46
2009/04/23 14:32:12.6       6   -133     48    134    142 177.3  20.4  34274  291.52 0854.46
2009/04/23 14:32:12.7      36    -86      4     94     95 157.3   2.9  34270  291.43 0854.46
2009/04/23 14:32:12.8      57    -47     41     74     84 129.5  31.9  34268  291.42 0854.46
2009/04/23 14:32:12.9      70   -120     38    139    145 149.7  15.3  34266  291.38 0854.46
2009/04/23 14:32:13.0      50   -114     53    125    135 156.4  24.6  34264  291.33 0854.46
2009/04/23 14:32:13.1      74   -114    106    137    173 147.0  41.7  34266  291.38 0854.46
2009/04/23 14:32:13.2      43    -68    100     81    128 147.5  56.4  34276  291.54 0854.46
2009/04/23 14:32:13.3      39   -117     99    124    158 161.3  42.7  34268  291.40 0854.46
2009/04/23 14:32:13.4      35   -116     82    122    146 163.0  37.0  34266  291.38 0854.46
2009/04/23 14:32:13.5      13   -122     62    123    137 173.7  28.7  34266  291.37 0854.46
2009/04/23 14:32:13.6      -5   -118     96    119    152 182.7  43.7  34266  291.38 0854.46
2009/04/23 14:32:13.7     -54   -150    104    160    190 200.1  35.7  34272  291.47 0854.46
2009/04/23 14:32:13.8     -78   -143    112    164    198 208.7  37.6  34282  291.64 0854.45
2009/04/23 14:32:13.9       4   -168    124    169    209 178.4  39.9  34286  291.72 0854.45
2009/04/23 14:32:14.0      -9   -212    116    213    242 182.7  31.0  34284  291.67 0854.45
2009/04/23 14:32:14.1       6   -199    109    200    227 178.2  31.3  34280  291.62 0854.45
2009/04/23 14:32:14.2      10   -139     98    140    170 175.5  38.6  34284  291.69 0854.45
2009/04/23 14:32:14.3      39    -93     78    101    127 157.3  41.7  34292  291.81 0854.45
2009/04/23 14:32:14.4      48    -98     64    110    127 153.7  32.9  34288  291.76 0854.45
2009/04/23 14:32:14.5       2   -143     -7    144    145 179.0  -3.1  34284  291.69 0854.45
2009/04/23 14:32:14.6     -17   -150    -25    152    155 186.7  -9.3  34282  291.64 0854.45
2009/04/23 14:32:14.7     -12   -153    -45    154    161 184.5 -16.4  34280  291.62 0854.45
2009/04/23 14:32:14.8     -68   -134    -24    151    154 207.1  -9.3  34272  291.49 0854.45
2009/04/23 14:32:14.9     -69   -207     38    219    223 198.5   9.9  34282  291.66 0854.45
2009/04/23 14:32:15.0     -73   -306     28    315    317 193.4   5.2  34302  291.99 0854.45
2009/04/23 14:32:15.1     -80   -270     77    282    293 196.5  15.3  34316  292.21 0854.45
2009/04/23 14:32:15.2    -107   -209     87    235    250 207.1  21.0  34318  292.26 0854.45
2009/04/23 14:32:15.3      -1   -157    -20    158    160 180.5  -7.3  34312  292.17 0854.45
2009/04/23 14:32:15.4     -23   -182      9    184    185 187.3   2.8  34308  292.10 0854.45
2009/04/23 14:32:15.5     -48   -211     86    217    233 192.9  22.8  34322  292.32 0854.45
2009/04/23 14:32:15.6     -83   -231    123    246    275 199.8  28.5  34332  292.50 0854.45
2009/04/23 14:32:15.7    -108   -233    102    257    276 204.9  23.0  34332  292.50 0854.45
2009/04/23 14:32:15.8    -173   -278    135    328    354 211.9  23.7  34312  292.14 0854.46
2009/04/23 14:32:15.9    -162   -202    148    260    299 218.7  32.1  34304  292.02 0854.46
2009/04/23 14:32:16.0     -15   -204     56    205    213 184.4  15.3  34296  291.89 0854.46
2009/04/23 14:32:16.1      86   -216     77    233    246 158.2  18.5  34300  291.96 0854.46
2009/04/23 14:32:16.3     150   -149    105    212    236 134.7  28.2  34284  291.67 0854.46
2009/04/23 14:32:16.3     134   -262    112    295    315 152.8  21.7  34276  291.55 0854.46
2009/04/23 14:32:16.4     126   -321    251    346    427 158.5  39.5  34280  291.62 0854.46
2009/04/23 14:32:16.5      16   -219    211    220    304 175.6  49.0  34292  291.82 0854.46
2009/04/23 14:32:16.6      45   -144    200    151    250 162.6  59.2  34322  292.34 0854.46
2009/04/23 14:32:16.7      28   -141    178    144    228 168.4  56.4  34312  292.15 0854.46
2009/04/23 14:32:16.8      62    -63    130     89    157 135.3  62.4  34322  292.32 0854.46
2009/04/23 14:32:16.9       0   -154    163    155    224 180.4  51.4  34300  291.96 0854.46
2009/04/23 14:32:17.0       8   -282    128    283    310 178.2  26.2  34280  291.60 0854.46
2009/04/23 14:32:17.2       0   -269    133    270    300 180.0  28.2  34288  291.73 0854.46
2009/04/23 14:32:17.2     -36   -136    140    141    198 195.1  50.0  34284  291.67 0854.46
2009/04/23 14:32:17.3     -63   -187    173    198    262 198.7  45.8  34286  291.72 0854.46
2009/04/23 14:32:17.4    -119   -224    140    254    290 208.1  31.4  34280  291.61 0854.46
2009/04/23 14:32:17.5     -69   -207    157    219    269 198.5  39.5  34280  291.61 0854.46
2009/04/23 14:32:17.7    -106   -206    123    232    262 207.2  30.3  34280  291.60 0854.46
2009/04/23 14:32:17.7    -176   -283     68    334    342 211.9  11.6  34268  291.42 0854.46
2009/04/23 14:32:17.8    -145   -325    -21    356    357 204.1  -3.5  34268  291.42 0854.49
2009/04/23 14:32:17.9     -97   -280    -69    297    305 199.1 -13.2  34268  291.41 0854.49
2009/04/23 14:32:18.0     -16   -265   -112    266    288 183.6 -28.6  34274  291.50 0854.49
2009/04/23 14:32:18.2      72   -198    -70    211    222 159.9 -23.8  34272  291.47 0854.49
2009/04/23 14:32:18.2      29   -210     37    213    217 172.0   9.9  34270  291.45 0854.49
2009/04/23 14:32:18.3     -47    -93    151    105    183 207.2  61.8  34278  291.59 0854.49
2009/04/23 14:32:18.5     -30   -151    128    155    201 191.5  43.7  34280  291.62 0854.49
2009/04/23 14:32:18.6     -98   -205    137    228    265 205.6  34.0  34276  291.55 0854.49
2009/04/23 14:32:18.7    -122   -155     94    198    219 218.3  27.2  34278  291.59 0854.49
2009/04/23 14:32:18.8     -12   -154     83    155    175 184.5  30.6  34282  291.66 0854.49
2009/04/23 14:32:18.9      49   -183    100    190    214 164.8  30.1  34276  291.54 0854.49
2009/04/23 14:32:19.0      49   -307    115    311    331 170.9  21.3  34284  291.67 0854.49
2009/04/23 14:32:19.1     -67   -356     99    363    377 190.7  15.3  34288  291.73 0854.49
2009/04/23 14:32:19.2    -113   -372    -46    389    392 196.9  -6.9  34278  291.57 0854.49
2009/04/23 14:32:19.3    -190   -341    -69    391    398 209.2 -10.1  34288  291.74 0854.49
2009/04/23 14:32:19.4      -1   -298   -159    299    338 180.2 -34.7  34282  291.63 0854.49
2009/04/23 14:32:19.5     -98   -207    -71    230    240 205.5 -22.3  34296  291.89 0854.49
2009/04/23 14:32:19.6       3   -230    -44    231    236 179.1 -10.9  34290  291.78 0854.49
2009/04/23 14:32:19.7      20   -162      5    164    165 172.9   1.8  34284  291.67 0854.49
2009/04/23 14:32:19.8      22   -240    -11    242    243 174.6  -2.6  34284  291.67 0854.49
2009/04/23 14:32:19.9      26   -179    -46    182    188 171.5 -14.3  34270  291.43 0854.51
2009/04/23 14:32:20.0      78    -77     40    110    117 134.6  20.9  34284  291.69 0854.51
2009/04/23 14:32:20.1     122      0    147    123    191  90.0  56.1  34302  292.00 0854.51
2009/04/23 14:32:20.2      26     -4    137     27    139  99.7  89.1  34310  292.12 0854.51
2009/04/23 14:32:20.3     -42   -158    194    164    254 195.1  55.6  34286  291.71 0854.51
2009/04/23 14:32:20.4     -47   -130    180    139    227 200.0  58.5  34278  291.59 0854.51
2009/04/23 14:32:20.5     -69   -188    180    201    269 200.3  46.6  34278  291.56 0854.51
2009/04/23 14:32:20.6    -164   -147    -26    221    223 228.0  -6.7  34256  291.21 0854.51
2009/04/23 14:32:20.7     -76   -116     62    139    152 213.4  25.7  34258  291.23 0854.51
2009/04/23 14:32:20.8     -64   -172    -19    184    186 200.5  -6.0  34258  291.25 0854.51
2009/04/23 14:32:20.9     -15   -186    -51    187    193 184.9 -20.0  34264  291.35 0854.51
2009/04/23 14:32:21.0       7   -203    -35    204    208 177.8  -9.8  34264  291.35 0854.51
2009/04/23 14:32:21.1     176   -158    -52    237    243 132.0 -12.4  34250  291.09 0854.51
2009/04/23 14:32:21.2      90   -182    -16    204    205 153.7  -4.6  34246  291.04 0854.51
2009/04/23 14:32:21.3     123    -90     44    153    160 126.4  16.0  34246  291.03 0854.51
2009/04/23 14:32:21.4     129      6     72    130    148  87.0  31.4  34248  291.08 0854.51
2009/04/23 14:32:21.5     118     62    100    134    167  62.0  40.9  34258  291.25 0854.51
2009/04/23 14:32:21.6       0     88     98     89    132   0.0  52.7  34268  291.42 0854.51
2009/04/23 14:32:21.7     -53     66     64     85    106 321.3  40.7  34266  291.37 0854.51
2009/04/23 14:32:21.8    -128     60     33    142    146 295.4  13.1  34272  291.47 0854.51
2009/04/23 14:32:21.9    -194     39    -27    198    201 281.5  -8.0  34286  291.71 0854.53
2009/04/23 14:32:22.0    -178     81    -28    196    199 294.4  -8.2  34284  291.69 0854.53
2009/04/23 14:32:22.1     -80    167   -111    186    216 334.5 -37.9  34258  291.23 0854.53
2009/04/23 14:32:22.2     -95     33   -214    101    236 289.5 -77.5  34212  290.45 0854.53
2009/04/23 14:32:22.3    -112    302    -93    323    337 339.7 -16.0  34226  290.69 0854.53
2009/04/23 14:32:22.4    -161    170    199    235    307 316.6  44.3  34236  290.87 0854.53
2009/04/23 14:32:22.5    -153    217    143    266    302 324.8  30.8  34248  291.05 0854.53
2009/04/23 14:32:22.6     -22    332     71    333    341 356.2  12.1  34254  291.17 0854.53
2009/04/23 14:32:22.7      -2    157    201    158    255 359.1  57.9  34266  291.37 0854.53
2009/04/23 14:32:22.8     -49    184    153    191    244 345.1  43.0  34264  291.35 0854.53
2009/04/23 14:32:22.9    -115    214    206    243    318 331.7  44.7  34258  291.24 0854.53
2009/04/23 14:32:23.0    -126    219    115    253    277 330.1  26.2  34260  291.26 0854.53
2009/04/23 14:32:23.1    -326    191     32    378    380 300.4   5.0  34252  291.15 0854.53
2009/04/23 14:32:23.2     -90    180    -13    202    203 333.3  -3.7  34254  291.16 0854.53
2009/04/23 14:32:23.3    -277    165    -78    323    333 300.8 -13.6  34240  290.93 0854.53
2009/04/23 14:32:23.4    -635    -48    -84    637    643 265.7  -7.6  34172  289.76 0854.53
2009/04/23 14:32:23.5    -709   -191     11    735    736 254.9   0.9  34160  289.58 0854.53
2009/04/23 14:32:23.6    -635   -146   -196    652    681 257.0 -16.8  34152  289.43 0854.53
2009/04/23 14:32:23.7    -634   -213   -187    669    695 251.4 -15.7  34162  289.61 0854.53
2009/04/23 14:32:23.8    -635   -249   -243    683    726 248.6 -19.6  34198  290.23 0854.53
2009/04/23 14:32:23.9    -616   -175    -25    641    642 254.1  -2.2  34234  290.82 0854.55
2009/04/23 14:32:24.0    -468   -272     46    542    545 239.8   4.9  34242  290.96 0854.55
2009/04/23 14:32:24.1    -349   -249    -16    429    430 234.5  -2.2  34232  290.78 0854.55
2009/04/23 14:32:24.2    -365   -252    -39    444    446 235.4  -5.1  34256  291.19 0854.55
2009/04/23 14:32:24.3    -366   -247     49    442    445 236.0   6.4  34222  290.61 0854.55
2009/04/23 14:32:24.4    -358   -105     72    374    381 253.6  11.0  34224  290.66 0854.55
2009/04/23 14:32:24.5    -145   -284    168    320    361 207.1  29.8  34230  290.77 0854.55
2009/04/23 14:32:24.6    -220   -149    217    266    343 235.8  43.6  34226  290.68 0854.55
2009/04/23 14:32:24.7    -121   -140    241    186    304 220.8  58.5  34238  290.88 0854.55
2009/04/23 14:32:24.8    -101    -50    160    113    195 243.4  61.5  34250  291.11 0854.55
2009/04/23 14:32:24.9     -47     74     97     88    130 327.4  53.3  34248  291.08 0854.55
2009/04/23 14:32:25.0     -92    194     82    216    231 334.5  21.7  34238  290.91 0854.55
2009/04/23 14:32:25.1    -161    123    133    203    242 307.5  36.5  34246  291.03 0854.55
2009/04/23 14:32:25.2    -137      5     90    138    164 272.1  36.0  34242  290.96 0854.55
2009/04/23 14:32:25.3     -52     35    104     63    121 304.2  66.2  34238  290.89 0854.55
2009/04/23 14:32:25.4     -85    -27     69     90    113 252.3  41.7  34222  290.64 0854.55
2009/04/23 14:32:25.5    -144   -153    104    211    235 223.2  28.2  34216  290.52 0854.55
2009/04/23 14:32:25.6    -136   -151      4    204    205 222.1   1.2  34220  290.60 0854.55
2009/04/23 14:32:25.7     -87   -135     14    161    162 213.0   5.2  34216  290.52 0854.55
2009/04/23 14:32:25.8     -50   -119     45    130    138 202.7  19.4  34212  290.47 0854.55
2009/04/23 14:32:25.9     125   -134    120    184    219 136.8  36.0  34214  290.50 0854.57
2009/04/23 14:32:26.0       5    -12    109     14    109 158.2  90.0  34232  290.79 0854.57
2009/04/23 14:32:26.1     -69    -64    110     95    145 226.9  54.8  34234  290.82 0854.57
2009/04/23 14:32:26.2       3      3     11      5     12  45.0  72.9  34226  290.70 0854.57
2009/04/23 14:32:26.3    -219    153    127    268    296 304.9  27.1  34216  290.51 0854.57
2009/04/23 14:32:26.4    -465    140     81    486    493 286.8   9.5  34216  290.51 0854.57
2009/04/23 14:32:26.5    -583     35    113    585    596 273.5  11.0  34206  290.36 0854.57
2009/04/23 14:32:26.6    -422     96    232    433    491 282.9  30.5  34204  290.32 0854.57
2009/04/23 14:32:26.7    -524    289    -23    599    600 298.9  -2.2  34184  289.98 0854.57
2009/04/23 14:32:26.8    -541    306   -142    622    639 299.5 -12.9  34156  289.50 0854.57
2009/04/23 14:32:26.9    -603    258   -223    657    695 293.2 -18.8  34192  290.12 0854.57
2009/04/23 14:32:27.0    -527    336   -159    626    647 302.5 -14.3  34178  289.87 0854.57
2009/04/23 14:32:27.1    -323    311     21    449    450 313.9   2.8  34204  290.33 0854.57
2009/04/23 14:32:27.2    -217    335    101    400    413 327.0  14.3  34220  290.58 0854.57
2009/04/23 14:32:27.3    -214    271     33    346    348 321.7   5.5  34214  290.49 0854.57
2009/04/23 14:32:27.4    -253    171     16    306    307 304.1   3.1  34208  290.39 0854.57
2009/04/23 14:32:27.5    -279    121     -6    305    306 293.5  -1.2  34220  290.59 0854.57
2009/04/23 14:32:27.6    -134    158    153    208    258 319.7  39.7  34220  290.58 0854.57
2009/04/23 14:32:27.7    -196    139     -9    241    242 305.5  -2.2  34222  290.61 0854.57
2009/04/23 14:32:27.8    -225    212    -40    310    313 313.2  -7.5  34216  290.53 0854.57
2009/04/23 14:32:27.9    -183    247    -46    308    312 323.5  -8.6  34178  289.88 0854.58
2009/04/23 14:32:28.0    -213     77   -164    227    280 290.0 -43.9  34174  289.81 0854.58
2009/04/23 14:32:28.1    -116    -30   -127    120    174 255.4 -55.8  34208  290.38 0854.58
2009/04/23 14:32:28.2    -186     85   -140    205    248 294.6 -42.0  34198  290.22 0854.58
2009/04/23 14:32:28.3     -96    106    -45    144    152 317.7 -17.6  34198  290.21 0854.58
2009/04/23 14:32:28.4     -13     67     77     69    103 348.4  52.7  34198  290.21 0854.58
2009/04/23 14:32:28.5     -51      7     72     52     88 278.8  60.5  34204  290.31 0854.58
2009/04/23 14:32:28.6     -43    -94      2    104    105 204.9   1.2  34204  290.31 0854.58
2009/04/23 14:32:28.7     -22    -99    -10    102    103 192.5  -5.6  34200  290.26 0854.58
2009/04/23 14:32:28.8     -62   -204    -63    214    224 196.9 -16.4  34208  290.40 0854.58
2009/04/23 14:32:28.9     -46   -250    -52    255    261 190.5 -11.6  34204  290.31 0854.58
2009/04/23 14:32:29.0      15   -168    -80    169    186 174.7 -31.5  34216  290.52 0854.58
2009/04/23 14:32:29.1       8   -258   -111    259    281 178.2 -29.0  34204  290.32 0854.58
2009/04/23 14:32:29.2     -70   -306    -53    314    319 192.9  -9.6  34204  290.32 0854.58
2009/04/23 14:32:29.3     -46   -229   -121    234    263 191.5 -33.9  34214  290.48 0854.58
2009/04/23 14:32:29.4     -53   -189   -139    197    241 195.8 -43.0  34208  290.38 0854.58
2009/04/23 14:32:29.5    -131   -193   -123    234    264 214.3 -34.2  34224  290.65 0854.58
2009/04/23 14:32:29.6    -160   -229    -92    280    295 215.0 -18.3  34236  290.87 0854.58
2009/04/23 14:32:29.7    -136   -212     -9    252    253 212.7  -2.2  34222  290.63 0854.58
2009/04/23 14:32:29.8    -167   -142    -60    220    229 229.6 -15.4  34252  291.13 0854.58
2009/04/23 14:32:29.9    -165   -107   -101    197    221 236.9 -33.7  34242  290.96 0854.55
2009/04/23 14:32:30.0     -80   -110     -3    137    138 216.1  -1.3  34284  291.69 0854.55
2009/04/23 14:32:30.1    -122   -129    -15    178    179 223.4  -4.9  34250  291.09 0854.55
2009/04/23 14:32:30.2    -121   -134    -21    181    183 222.1  -6.9  34256  291.20 0854.55
2009/04/23 14:32:30.3    -116   -205    -29    236    238 209.6  -7.2  34282  291.63 0854.55
2009/04/23 14:32:30.4    -149   -141    -59    206    214 226.7 -21.0  34286  291.71 0854.55
2009/04/23 14:32:30.5     -68    -79     -4    105    106 221.0  -2.2  34280  291.62 0854.55
2009/04/23 14:32:30.6     -57    -54     12     79     80 226.9   9.0  34294  291.84 0854.55
2009/04/23 14:32:30.7     -68    -18     25     71     76 255.0  19.4  34290  291.77 0854.55
2009/04/23 14:32:30.8     -98    -22     12    101    102 257.2   6.9  34290  291.77 0854.55
2009/04/23 14:32:30.9    -127      0     40    128    135 270.0  17.4  34270  291.45 0854.54
2009/04/23 14:32:31.0    -150    -15    -32    151    155 263.9 -12.2  34266  291.37 0854.54
2009/04/23 14:32:31.1    -177   -120    -39    215    219 235.8 -10.5  34236  290.86 0854.54
2009/04/23 14:32:31.2    -144    -99     21    175    177 235.4   6.9  34232  290.81 0854.54
2009/04/23 14:32:31.3    -108    -67     37    128    134 238.0  16.3  34238  290.91 0854.54
2009/04/23 14:32:31.4     -47     -8     42     48     63 260.3  46.9  34244  290.99 0854.54
2009/04/23 14:32:31.5       4     23     38     24     44   9.8  64.7  34250  291.09 0854.54
2009/04/23 14:32:31.6      54     -7     33     55     64  97.9  35.5  34250  291.11 0854.54
2009/04/23 14:32:31.7      44    -36      2     58     59 129.5   2.9  34246  291.03 0854.54
2009/04/23 14:32:31.8      86   -127      6    154    155 145.7   2.3  34212  290.45 0854.54
2009/04/23 14:32:31.9     108    -89     10    141    142 129.5   4.4  34214  290.50 0854.54
2009/04/23 14:32:32.0      87    -72     22    114    117 129.6  11.1  34218  290.55 0854.54
2009/04/23 14:32:32.1      22    -90    -11     93     94 166.2  -7.2  34218  290.55 0854.54
2009/04/23 14:32:32.2      16   -107    -32    109    113 171.5 -21.2  34220  290.60 0854.54
2009/04/23 14:32:32.3      26    -83    -26     87     92 162.6 -17.0  34216  290.52 0854.54
2009/04/23 14:32:32.4      48   -102    -33    113    118 154.7 -16.6  34218  290.57 0854.54
2009/04/23 14:32:32.5      96   -102    -39    141    147 136.7 -15.5  34214  290.48 0854.54
2009/04/23 14:32:32.6      23    -86    -71     90    114 164.9 -47.1  34218  290.57 0854.54
2009/04/23 14:32:32.7      10    -91    -49     92    104 173.3 -35.2  34224  290.65 0854.54
2009/04/23 14:32:32.8      56    -95    -82    111    138 149.3 -44.5  34224  290.67 0854.54
2009/04/23 14:32:32.9      82   -121   -167    147    222 145.7 -58.6  34226  290.70 0854.53
2009/04/23 14:32:33.0     107   -199   -131    226    261 151.7 -37.1  34214  290.48 0854.53
2009/04/23 14:32:33.1      81   -212   -113    228    254 159.1 -32.6  34216  290.53 0854.53
2009/04/23 14:32:33.2      86   -157   -108    179    209 151.3 -38.4  34216  290.53 0854.53
2009/04/23 14:32:33.3      93   -139   -104    168    197 146.2 -39.2  34212  290.45 0854.53
2009/04/23 14:32:33.4      32    -96    -99    102    142 161.3 -53.8  34216  290.52 0854.53
2009/04/23 14:32:33.5       0   -148    -75    149    166 180.0 -32.9  34216  290.52 0854.53
2009/04/23 14:32:33.6      20   -154    -39    156    162 172.4 -14.3  34218  290.55 0854.53
2009/04/23 14:32:33.7       6   -127     -8    128    129 177.3  -3.7  34222  290.62 0854.53
2009/04/23 14:32:33.8      48    -82      9     96     97 149.7   5.4  34218  290.55 0854.53
2009/04/23 14:32:33.9      70    -45    -13     84     85 122.5  -8.8  34222  290.64 0854.53
2009/04/23 14:32:34.0       6    -89    -18     90     92 176.0 -11.3  34220  290.58 0854.53
2009/04/23 14:32:34.1     -32   -136    -45    140    147 193.3 -23.8  34218  290.57 0854.53
2009/04/23 14:32:34.2     -35   -116    -88    122    150 196.9 -44.1  34222  290.62 0854.53
2009/04/23 14:32:34.3     -31    -95   -104    101    144 198.3 -54.6  34224  290.65 0854.53
2009/04/23 14:32:34.4     -41    -42   -138     59    150 224.2 -79.9  34220  290.58 0854.53
2009/04/23 14:32:34.5     118    -86    -57    147    157 126.0 -26.7  34234  290.84 0854.53
2009/04/23 14:32:34.6     105    -25    -60    109    124 103.7 -35.8  34216  290.52 0854.53
2009/04/23 14:32:34.7     -23    -88   -111     91    143 194.7 -60.8  34214  290.48 0854.53
2009/04/23 14:32:34.8      61   -283    -14    290    291 167.7  -2.8  34232  290.78 0854.53
2009/04/23 14:32:34.9     114   -273     10    297    298 157.3   2.1  34234  290.82 0854.52
2009/04/23 14:32:35.0      66   -280     61    288    295 166.7  12.0  34226  290.70 0854.52
2009/04/23 14:32:35.1      -8   -209     57    210    218 182.2  15.2  34234  290.82 0854.52
2009/04/23 14:32:35.2     -10   -178     41    179    184 183.4  12.9  34238  290.89 0854.52
2009/04/23 14:32:35.3     -26    -92    -42     96    104 196.0 -29.5  34234  290.82 0854.52
2009/04/23 14:32:35.4     -51   -182    -10    190    191 195.8  -3.1  34230  290.75 0854.52
2009/04/23 14:32:35.5     -16   -257     -8    258    259 183.6  -1.8  34236  290.85 0854.52
2009/04/23 14:32:35.6     -41   -216    -37    220    224 190.9  -9.6  34234  290.84 0854.52
2009/04/23 14:32:35.7      59   -211    -49    220    226 164.4 -12.6  34242  290.98 0854.52
2009/04/23 14:32:35.8     126    -34    140    131    191 105.1  52.1  34258  291.23 0854.52
2009/04/23 14:32:35.9      32      2    129     33    133  85.6  85.4  34288  291.76 0854.52
2009/04/23 14:32:36.0      86      3    158     87    180  87.9  68.9  34286  291.72 0854.52
2009/04/23 14:32:36.1      80     -6     94     81    124  94.4  54.3  34260  291.28 0854.52
2009/04/23 14:32:36.2      -1     66     31     67     73 359.0  27.1  34248  291.06 0854.52
2009/04/23 14:32:36.3       0     23     19     24     30 359.1  43.7  34250  291.09 0854.52
2009/04/23 14:32:36.4     -21     13     58     26     63 302.5  75.0  34260  291.28 0854.52
2009/04/23 14:32:36.5     -83     27     69     88    111 288.2  42.7  34268  291.42 0854.52
2009/04/23 14:32:36.6     -54    -14    104     56    118 254.9  69.3  34264  291.33 0854.52
2009/04/23 14:32:36.7      -9   -131    149    132    199 184.0  54.0  34220  290.58 0854.52
2009/04/23 14:32:36.8     -94    -77    135    122    181 230.5  53.0  34246  291.03 0854.52
2009/04/23 14:32:36.9      -9   -115    109    116    159 184.5  48.2  34232  290.81 0854.48
2009/04/23 14:32:37.0     -67    -58     -8     89     90 229.1  -5.6  34236  290.87 0854.48
2009/04/23 14:32:37.1      48   -146     53    154    164 161.7  19.2  34214  290.48 0854.48
2009/04/23 14:32:37.2      86   -157     15    180    181 151.3   4.9  34208  290.38 0854.48
2009/04/23 14:32:37.3      -9    -92     -6     93     94 185.8  -4.1  34216  290.52 0854.48
2009/04/23 14:32:37.4     -47    -93      7    105    106 206.7   3.8  34232  290.79 0854.48
2009/04/23 14:32:37.5       0   -162     -4    163    164 180.0  -1.6  34218  290.55 0854.48
2009/04/23 14:32:37.6      -2   -157    -24    158    160 180.9  -8.8  34218  290.55 0854.48
2009/04/23 14:32:37.7       8   -183    -47    184    191 177.3 -14.5  34224  290.67 0854.48
2009/04/23 14:32:37.8     -59   -177    -49    187    194 198.5 -14.7  34228  290.72 0854.48
2009/04/23 14:32:37.9      14   -157     11    158    159 174.7   4.2  34236  290.86 0854.48
2009/04/23 14:32:38.0     -70   -127     -5    146    147 208.9  -2.2  34236  290.86 0854.48
2009/04/23 14:32:38.1     -31   -155    -24    159    161 191.6  -8.8  34246  291.03 0854.48
2009/04/23 14:32:38.2     -64    -99     38    119    126 213.0  17.9  34256  291.21 0854.48
2009/04/23 14:32:38.3     -24   -108     12    111    112 192.9   6.5  34260  291.26 0854.48
2009/04/23 14:32:38.4       0   -108     25    109    112 180.0  13.2  34270  291.43 0854.48
2009/04/23 14:32:38.5      51   -123     46    134    142 157.3  18.9  34242  290.98 0854.48
2009/04/23 14:32:38.6      37   -166     97    171    196 167.5  32.1  34224  290.65 0854.48
2009/04/23 14:32:38.7     107   -119    110    161    194 138.1  37.3  34242  290.98 0854.48
2009/04/23 14:32:38.8     142    -96     19    172    174 124.2   6.5  34242  290.98 0854.48
2009/04/23 14:32:38.9     110    -59     39    126    132 118.4  17.3  34244  290.99 0854.45
2009/04/23 14:32:39.0     137    -83     70    161    175 121.1  24.9  34246  291.04 0854.45
2009/04/23 14:32:39.1     126    -97     57    160    169 127.7  20.0  34250  291.11 0854.45
2009/04/23 14:32:39.2     166    -79     96    184    207 115.5  29.5  34276  291.54 0854.45
2009/04/23 14:32:39.3     156    -50    134    164    211 107.9  43.7  34286  291.71 0854.45
2009/04/23 14:32:39.4      25   -145     95    148    175 170.2  35.6  34250  291.11 0854.45
2009/04/23 14:32:39.5     -51   -156    176    165    241 198.0  52.1  34230  290.77 0854.45
2009/04/23 14:32:39.6     -23   -136    195    139    239 189.8  61.1  34230  290.75 0854.45
2009/04/23 14:32:39.7      31   -139     98    143    173 167.1  37.6  34226  290.69 0854.45
2009/04/23 14:32:39.8     -39   -217    228    221    317 190.2  51.1  34228  290.73 0854.45
2009/04/23 14:32:39.9     -52   -191    109    199    226 195.4  31.3  34230  290.75 0854.45
2009/04/23 14:32:40.0      -7   -204     66    205    216 182.2  17.9  34236  290.87 0854.45
2009/04/23 14:32:40.1     -16   -198      2    199    200 184.9   0.7  34228  290.74 0854.45
2009/04/23 14:32:40.2    -118   -214     48    245    250 209.0  11.1  34228  290.73 0854.45
2009/04/23 14:32:40.3     -97   -152     35    181    185 212.5  11.1  34240  290.92 0854.45
2009/04/23 14:32:40.4     -87   -130    -43    157    163 213.8 -15.5  34242  290.98 0854.45
2009/04/23 14:32:40.5     -48     40   -151     63    163 309.5 -80.7  34244  290.99 0854.45
2009/04/23 14:32:40.6    -143     -8   -135    144    197 266.5 -52.4  34236  290.87 0854.45
2009/04/23 14:32:40.7    -240     18   -158    241    288 274.4 -40.7  34246  291.04 0854.45
2009/04/23 14:32:40.8    -134     22   -187    136    231 279.6 -64.9  34252  291.13 0854.45
2009/04/23 14:32:40.9    -125     -6   -193    126    230 267.0 -68.8  34240  290.94 0854.43
2009/04/23 14:32:41.0      24     71   -126     76    147  18.7 -70.1  34242  290.98 0854.43
2009/04/23 14:32:41.1      92     89   -113    129    171  46.0 -50.2  34240  290.94 0854.43
2009/04/23 14:32:41.2      82    122    -99    148    178  33.8 -41.4  34254  291.18 0854.43
2009/04/23 14:32:41.3     -24     47    -48     53     71 332.8 -52.3  34278  291.59 0854.43
2009/04/23 14:32:41.4      37    -37     14     53     55 135.0  15.3  34272  291.47 0854.43
2009/04/23 14:32:41.5      75     -6    -78     76    108  95.2 -54.5  34264  291.35 0854.43
2009/04/23 14:32:41.6     205     97    -67    227    237  64.6 -16.5  34266  291.38 0854.43
2009/04/23 14:32:41.7       8     89    111     90    142   5.3  56.4  34306  292.05 0854.43
2009/04/23 14:32:41.8     -64     25     81     69    106 291.8  55.4  34334  292.52 0854.43
2009/04/23 14:32:41.9     -54     29     79     62    100 298.8  57.9  34330  292.46 0854.43
2009/04/23 14:32:42.0     -21    153     -6    155    156 352.0  -2.2  34268  291.40 0854.43
2009/04/23 14:32:42.1     -25    108     30    112    117 346.6  15.3  34270  291.43 0854.43
2009/04/23 14:32:42.2    -264    -36    -17    267    268 262.1  -3.7  34330  292.47 0854.43
2009/04/23 14:32:42.3    -275    -47    -61    279    286 260.3 -12.4  34312  292.16 0854.43
2009/04/23 14:32:42.4    -150     49    -66    158    171 288.2 -28.5  34256  291.20 0854.43
2009/04/23 14:32:42.5    -197      8    -62    198    208 272.6 -17.5  34294  291.84 0854.43
2009/04/23 14:32:42.6    -120     59    -84    134    158 296.2 -39.6  34240  290.94 0854.43
2009/04/23 14:32:42.7     -77     93      0    121    122 320.4  -0.3  34246  291.04 0854.43
2009/04/23 14:32:42.8    -398   -100     42    411    414 255.9   5.9  34278  291.58 0854.43
2009/04/23 14:32:42.9    -309     10     -1    310    311 271.9  -0.3  34260  291.26 0854.43
2009/04/23 14:32:43.0    -270    -20    -88    271    284 265.6 -23.0  34254  291.17 0854.43
2009/04/23 14:32:43.1    -163     56    -89    173    194 289.1 -33.7  34290  291.77 0854.43
2009/04/23 14:32:43.2    -176      8     70    177    190 272.6  22.8  34280  291.62 0854.43
2009/04/23 14:32:43.3    -201     60    195    210    286 286.8  47.9  34312  292.16 0854.43
2009/04/23 14:32:43.4    -242   -155     85    288    301 237.4  16.4  34298  291.92 0854.43
2009/04/23 14:32:43.5    -308   -261     79    405    413 229.7  11.1  34296  291.87 0854.43
2009/04/23 14:32:43.6    -282   -243    137    373    397 229.2  21.0  34290  291.78 0854.43
2009/04/23 14:32:43.7    -220    -86    195    237    306 248.5  43.7  34274  291.51 0854.43
2009/04/23 14:32:43.8    -217     72     90    229    246 288.4  22.5  34288  291.75 0854.43
2009/04/23 14:32:43.9    -152     45     59    159    169 286.8  21.0  34306  292.05 0854.43
2009/04/23 14:32:44.0     -92     58     62    110    126 302.4  31.9  34312  292.17 0854.43
2009/04/23 14:32:44.1    -117     81     33    143    147 304.6  13.2  34300  291.96 0854.43
2009/04/23 14:32:44.2    -110     44     30    119    123 291.8  14.3  34294  291.86 0854.43
2009/04/23 14:32:44.3    -222     41     76    226    239 280.6  18.6  34290  291.78 0854.43
2009/04/23 14:32:44.5    -410    209    -67    461    466 297.1  -8.4  34276  291.53 0854.43
2009/04/23 14:32:44.5    -396     95   -120    408    426 283.6 -16.4  34242  290.95 0854.43
2009/04/23 14:32:44.6    -445    141    -77    467    474 287.6  -9.4  34272  291.49 0854.43
2009/04/23 14:32:44.8    -448    220   -117    500    514 296.2 -13.2  34232  290.79 0854.43
2009/04/23 14:32:44.9    -398    237   -129    464    481 300.8 -20.2  34202  290.29 0854.43
2009/04/23 14:32:45.0    -478    184   -184    513    546 291.1 -19.8  34178  289.87 0854.42
2009/04/23 14:32:45.1    -490    136   -150    509    530 285.5 -21.2  34180  289.92 0854.42
2009/04/23 14:32:45.2    -449    140   -154    471    495 287.4 -23.2  34182  289.93 0854.42
2009/04/23 14:32:45.3    -406    162   -107    438    452 291.8 -13.8  34180  289.90 0854.42
2009/04/23 14:32:45.4    -444    158   -150    472    496 289.6 -17.7  34198  290.23 0854.42
2009/04/23 14:32:45.5    -456    173   -154    488    512 290.8 -17.6  34230  290.76 0854.42
2009/04/23 14:32:45.6    -413     47   -209    416    465 276.6 -33.0  34192  290.12 0854.42
2009/04/23 14:32:45.7    -387     29   -240    389    457 274.4 -39.2  34192  290.11 0854.42
2009/04/23 14:32:45.8    -442     70   -137    448    468 279.0 -21.9  34230  290.75 0854.42
2009/04/23 14:32:45.9    -402    -23   -177    403    440 266.7 -29.6  34220  290.60 0854.42
2009/04/23 14:32:46.0    -475   -128   -208    493    535 254.9 -28.6  34220  290.58 0854.42
2009/04/23 14:32:46.1    -432     -4   -222    433    486 269.4 -33.6  34222  290.62 0854.42
2009/04/23 14:32:46.2    -463    -94   -180    473    506 258.5 -26.2  34222  290.62 0854.42
2009/04/23 14:32:46.3    -401   -311   -146    508    529 232.2 -16.1  34240  290.94 0854.42
2009/04/23 14:32:46.4    -348     26   -113    349    366 274.4 -23.3  34226  290.69 0854.42
2009/04/23 14:32:46.5    -311    -24   -112    313    333 265.4 -19.7  34244  290.99 0854.42
2009/04/23 14:32:46.6    -373   -202   -172    425    458 241.5 -27.5  34216  290.53 0854.42
2009/04/23 14:32:46.7    -612    -18   -201    613    645 268.3 -23.3  34214  290.48 0854.42
2009/04/23 14:32:46.8    -448    206   -117    494    508 294.7 -13.4  34210  290.42 0854.42
2009/04/23 14:32:46.9    -485    -28   -208    486    528 266.6 -29.0  34184  289.98 0854.42
2009/04/23 14:32:47.0    -690    -17   -318    691    760 268.5 -30.9  34182  289.95 0854.42
2009/04/23 14:32:47.1    -606     64   -177    610    635 276.1 -21.0  34208  290.40 0854.42
2009/04/23 14:32:47.2    -493     73   -282    499    573 278.5 -36.4  34222  290.62 0854.42
2009/04/23 14:32:47.3    -578     12   -223    579    620 271.3 -26.5  34194  290.15 0854.42
2009/04/23 14:32:47.4    -333    -27   -227    335    404 265.3 -41.8  34210  290.43 0854.42
2009/04/23 14:32:47.5    -300    109   -285    320    428 290.0 -50.7  34216  290.52 0854.42
2009/04/23 14:32:47.6    -613    120   -330    625    706 281.1 -34.5  34236  290.87 0854.42
2009/04/23 14:32:47.7    -380   -161   -170    413    446 246.9 -28.0  34262  291.29 0854.42
2009/04/23 14:32:47.8    -350   -389   -140    524    543 222.0 -15.0  34248  291.08 0854.42
2009/04/23 14:32:47.9    -281   -380   -144    473    494 216.5 -21.8  34252  291.15 0854.42
2009/04/23 14:32:48.0     -55   -341    -57    346    351 189.2  -9.5  34244  291.00 0854.42
2009/04/23 14:32:48.1     -33   -234   -113    237    262 188.2 -31.7  34258  291.22 0854.42
2009/04/23 14:32:48.2      13   -466   -129    467    484 178.3 -20.2  34236  290.85 0854.42
2009/04/23 14:32:48.3     197   -392   -198    439    481 153.3 -30.4  34232  290.79 0854.42
2009/04/23 14:32:48.4     333   -180   -133    379    402 118.5 -19.4  34234  290.83 0854.42
2009/04/23 14:32:48.5     174   -197    -19    264    265 138.6  -4.1  34234  290.82 0854.42
2009/04/23 14:32:48.6      93    -93     31    132    136 135.0  13.2  34236  290.87 0854.42
2009/04/23 14:32:48.7     101   -132    -71    167    181 142.4 -28.7  34230  290.77 0854.42
2009/04/23 14:32:48.8      46   -176   -193    182    265 165.3 -56.5  34248  291.05 0854.42
2009/04/23 14:32:48.9     122   -191   -197    227    300 147.4 -50.2  34238  290.88 0854.42
2009/04/23 14:32:49.0      31   -153   -127    157    201 168.4 -47.9  34234  290.84 0854.41
2009/04/23 14:32:49.1     131   -264     -5    295    296 153.5  -1.2  34222  290.61 0854.41
2009/04/23 14:32:49.2     187   -330     -7    380    381 150.4  -1.2  34226  290.69 0854.41
2009/04/23 14:32:49.3     368   -311     94    482    492 130.2  11.1  34232  290.78 0854.41
2009/04/23 14:32:49.4     362   -230    148    430    456 122.5  19.1  34228  290.73 0854.41
2009/04/23 14:32:49.5     165   -349    195    387    433 154.6  28.9  34224  290.67 0854.41
2009/04/23 14:32:49.6     104   -287    100    306    322 160.0  18.1  34214  290.48 0854.41
2009/04/23 14:32:49.7     226   -226    147    320    352 135.0  26.4  34212  290.45 0854.41
2009/04/23 14:32:49.8     136   -368      2    393    394 159.7   0.4  34216  290.52 0854.41
2009/04/23 14:32:49.9     -78   -185    -71    201    213 202.9 -24.4  34216  290.52 0854.41
2009/04/23 14:32:50.0      82    -68     76    107    131 129.5  39.1  34216  290.52 0854.41
2009/04/23 14:32:50.1     139   -138    153    197    249 134.8  41.7  34208  290.37 0854.41
2009/04/23 14:32:50.2     125   -132    119    182    217 136.6  36.0  34208  290.40 0854.41
2009/04/23 14:32:50.3      59   -130     90    143    168 155.5  35.5  34204  290.33 0854.41
2009/04/23 14:32:50.4      72   -149     69    166    179 154.1  23.8  34202  290.28 0854.41
2009/04/23 14:32:50.5       1   -277    152    278    316 179.8  31.0  34214  290.48 0854.41
2009/04/23 14:32:50.6       0   -201     70    202    214 180.0  19.2  34208  290.38 0854.41
2009/04/23 14:32:50.7      67   -186    121    198    232 160.2  34.8  34212  290.45 0854.41
2009/04/23 14:32:50.8     -53   -208    100    215    237 194.3  26.4  34224  290.65 0854.41
2009/04/23 14:32:50.9       8   -158    -29    159    162 176.9 -10.5  34220  290.58 0854.41
2009/04/23 14:32:51.0      69   -191     16    204    205 160.2   4.6  34224  290.65 0854.44
2009/04/23 14:32:51.1     -30   -353     -7    355    356 184.9  -1.2  34234  290.83 0854.44
2009/04/23 14:32:51.2     -34   -440    -34    442    444 184.5  -4.5  34232  290.80 0854.44
2009/04/23 14:32:51.3     -64   -619    -12    623    624 185.9  -1.1  34240  290.94 0854.44
2009/04/23 14:32:51.4      48   -617    -87    620    627 175.5  -8.0  34250  291.10 0854.44
2009/04/23 14:32:51.5     -37   -556    -56    558    561 183.9  -5.8  34230  290.77 0854.44
2009/04/23 14:32:51.6    -119   -298    -99    322    336 201.8 -22.2  34228  290.72 0854.44
2009/04/23 14:32:51.7    -262    -90    -93    278    294 250.9 -18.6  34238  290.88 0854.44
2009/04/23 14:32:51.8    -228     10    -97    229    248 272.6 -28.6  34234  290.82 0854.44
2009/04/23 14:32:51.9    -284    -71    -87    293    306 255.8 -16.6  34254  291.16 0854.44
2009/04/23 14:32:52.0    -380   -152   -132    410    430 248.2 -22.9  34250  291.11 0854.44
2009/04/23 14:32:52.1    -168   -179   -147    246    286 223.2 -37.9  34240  290.93 0854.44
2009/04/23 14:32:52.2       1   -117    -97    118    152 179.1 -48.1  34236  290.86 0854.44
2009/04/23 14:32:52.3     -95      7     40     96    104 274.3  23.1  34254  291.18 0854.44
2009/04/23 14:32:52.4     -50      7    -76     51     91 277.9 -67.6  34248  291.08 0854.44
2009/04/23 14:32:52.5      -7     23    -22     25     33 341.5 -50.2  34240  290.92 0854.44
2009/04/23 14:32:52.6     -52     17    -23     55     59 288.4 -27.5  34236  290.86 0854.44
2009/04/23 14:32:52.7     -88   -107     26    139    142 219.6  10.6  34242  290.96 0854.44
2009/04/23 14:32:52.8     -77   -222    -28    236    238 199.2  -6.9  34264  291.34 0854.44
2009/04/23 14:32:52.9     -77   -259    -34    271    274 196.5  -7.3  34246  291.04 0854.44
2009/04/23 14:32:53.0    -143   -246   -113    285    306 210.3 -27.4  34236  290.87 0854.44
2009/04/23 14:32:53.1       5   -300   -139    301    331 178.9 -30.9  34224  290.66 0854.44
2009/04/23 14:32:53.2     -95   -269    -49    286    291 199.4  -9.8  34234  290.82 0854.44
2009/04/23 14:32:53.3      18   -236     -2    237    238 175.5  -0.5  34232  290.78 0854.44
2009/04/23 14:32:53.4     -72   -190    -64    204    213 200.9 -22.8  34222  290.64 0854.44
2009/04/23 14:32:53.5     -30   -159      2    162    163 190.7   1.0  34228  290.74 0854.44
2009/04/23 14:32:53.6      11   -147     37    148    153 175.5  14.3  34230  290.77 0854.44
2009/04/23 14:32:53.7     -53   -129    -28    140    143 202.3 -11.3  34224  290.67 0854.44
2009/04/23 14:32:53.8    -118    -53    -35    130    135 245.6 -15.4  34228  290.72 0854.44
2009/04/23 14:32:53.9    -190    -65    -82    202    218 250.9 -27.5  34218  290.55 0854.44
2009/04/23 14:32:54.0    -183     23    -53    185    193 277.2 -16.0  34224  290.65 0854.44
2009/04/23 14:32:54.1    -154     11     77    155    173 274.4  28.5  34226  290.69 0854.44
2009/04/23 14:32:54.2    -199     -7     -7    200    201 267.9  -2.3  34228  290.74 0854.44
2009/04/23 14:32:54.3    -147    -64     -8    161    162 246.4  -3.1  34218  290.55 0854.44
2009/04/23 14:32:54.4    -137   -135     99    193    216 225.6  29.3  34224  290.65 0854.44
2009/04/23 14:32:54.5    -123   -211     88    245    261 210.3  19.9  34212  290.46 0854.44
2009/04/23 14:32:54.6    -112   -220     77    247    259 207.0  17.4  34220  290.58 0854.44
2009/04/23 14:32:54.7     -52   -237     24    243    245 192.5   5.7  34228  290.73 0854.44
2009/04/23 14:32:54.8      30   -187      9    190    191 170.9   2.8  34224  290.65 0854.44
2009/04/23 14:32:54.9      81   -200      2    216    217 157.9   0.7  34218  290.55 0854.44
2009/04/23 14:32:55.0     122   -228      8    259    260 151.9   1.8  34222  290.61 0854.44
2009/04/23 14:32:55.1     159   -282      0    324    325 150.6   0.1  34218  290.54 0854.44
2009/04/23 14:32:55.2     153   -203    -66    255    264 143.0 -14.5  34220  290.58 0854.44
2009/04/23 14:32:55.3     210   -236    -91    317    330 138.3 -16.0  34210  290.42 0854.44
2009/04/23 14:32:55.4     214   -194    -91    289    304 132.2 -17.6  34206  290.36 0854.44
2009/04/23 14:32:55.5     195   -316    -33    372    374 148.4  -5.1  34210  290.42 0854.44
2009/04/23 14:32:55.6      95   -398    -29    410    411 166.5  -4.1  34214  290.50 0854.44
2009/04/23 14:32:55.7      67   -331     17    339    340 168.4   3.0  34208  290.40 0854.44
2009/04/23 14:32:55.8      32   -319    -71    321    329 174.2 -12.5  34226  290.68 0854.44
2009/04/23 14:32:55.9     115   -340    -34    360    362 161.3  -5.5  34220  290.59 0854.44
2009/04/23 14:32:56.0     153   -388    -15    418    419 158.5  -2.1  34214  290.50 0854.43
2009/04/23 14:32:56.1     190   -327     38    379    381 149.8   5.8  34208  290.37 0854.43
2009/04/23 14:32:56.2     168   -305     69    349    356 151.2  11.3  34206  290.35 0854.43
2009/04/23 14:32:56.3     169   -312     20    356    357 151.5   3.2  34204  290.33 0854.43
2009/04/23 14:32:56.4     215   -303     12    372    373 144.6   1.9  34202  290.30 0854.43
2009/04/23 14:32:56.5     185   -289     10    344    345 147.4   1.7  34198  290.23 0854.43
2009/04/23 14:32:56.6     200   -262     43    330    333 142.6   7.4  34184  289.98 0854.43
2009/04/23 14:32:56.7     120   -243    117    271    295 153.7  25.1  34188  290.05 0854.43
2009/04/23 14:32:56.8      76   -280     35    291    294 164.8   6.9  34194  290.15 0854.43
2009/04/23 14:32:56.9      95   -353    -33    366    368 164.9  -5.2  34198  290.23 0854.43
2009/04/23 14:32:57.0      58   -286     71    292    301 168.5  13.7  34196  290.17 0854.43
2009/04/23 14:32:57.1      91   -283     22    298    299 162.2   4.4  34200  290.26 0854.43
2009/04/23 14:32:57.2      79   -249    -33    262    265 162.4  -7.3  34210  290.41 0854.43
2009/04/23 14:32:57.3      83   -232    -26    247    249 160.2  -6.2  34204  290.32 0854.43
2009/04/23 14:32:57.4      69   -255     33    265    268 164.9   7.1  34202  290.29 0854.43
2009/04/23 14:32:57.5      58   -268    -29    275    277 167.6  -6.2  34206  290.34 0854.43
2009/04/23 14:32:57.6      82   -237     -5    251    252 160.9  -1.2  34198  290.22 0854.43
2009/04/23 14:32:57.7      52   -194     23    202    204 164.8   6.5  34196  290.18 0854.43
2009/04/23 14:32:57.8      60   -238     39    246    250 165.7   9.0  34198  290.22 0854.43
2009/04/23 14:32:57.9      68   -263     13    272    273 165.3   2.9  34202  290.29 0854.43
2009/04/23 14:32:58.0      56   -228     29    235    237 166.0   7.1  34200  290.26 0854.43
2009/04/23 14:32:58.1      46   -227    -36    232    235 168.4  -9.0  34208  290.39 0854.43
2009/04/23 14:32:58.2      27   -231     -9    233    234 173.3  -2.2  34202  290.27 0854.43
2009/04/23 14:32:58.3      16   -209     24    210    212 175.5   6.7  34210  290.41 0854.43
2009/04/23 14:32:58.4       9   -213     -8    214    215 177.5  -2.2  34214  290.50 0854.43
2009/04/23 14:32:58.5      62   -245    -10    253    254 165.7  -2.3  34202  290.29 0854.43
2009/04/23 14:32:58.6      46   -249     25    254    256 169.5   5.7  34220  290.59 0854.43
2009/04/23 14:32:58.7      22   -247      7    249    250 174.9   1.7  34222  290.63 0854.43
2009/04/23 14:32:58.8      42   -209     13    214    215 168.5   3.6  34214  290.48 0854.43
2009/04/23 14:32:58.9      -8   -228     67    229    239 182.2  16.3  34228  290.73 0854.43
2009/04/23 14:32:59.0      36   -246     53    249    255 171.5  12.2  34196  290.19 0854.43
2009/04/23 14:32:59.1      57   -224     49    232    238 165.7  12.1  34192  290.12 0854.43
2009/04/23 14:32:59.3      85   -258     50    272    277 161.7  10.6  34192  290.10 0854.43
2009/04/23 14:32:59.3      92   -241     67    259    268 159.1  14.7  34188  290.05 0854.43
2009/04/23 14:32:59.4     109   -230     69    255    265 154.7  15.3  34188  290.03 0854.43
2009/04/23 14:32:59.5      98   -181    104    207    231 151.5  28.5  34194  290.14 0854.43
2009/04/23 14:32:59.6      63   -238     -9    247    248 165.1  -2.2  34208  290.37 0854.43
2009/04/23 14:32:59.7      76   -243    -14    255    256 162.6  -3.3  34200  290.26 0854.43
2009/04/23 14:32:59.8      81   -315     27    326    328 165.5   4.9  34190  290.09 0854.43
2009/04/23 14:32:59.9      75   -315     33    324    326 166.6   5.9  34190  290.09 0854.43
2009/04/23 14:33:00.0      45   -292     35    296    299 171.1   6.9  34190  290.09 0854.43
2009/04/23 14:33:00.1      53   -255     52    261    267 168.2  11.4  34188  290.05 0854.43
2009/04/23 14:33:00.2      57   -241     26    248    250 166.6   6.1  34194  290.14 0854.43
2009/04/23 14:33:00.3      83   -243     26    257    259 161.1   6.0  34186  290.00 0854.43
2009/04/23 14:33:00.4      90   -243     11    260    261 159.7   2.5  34182  289.95 0854.43
2009/04/23 14:33:00.5      71   -233     33    244    247 163.1   7.8  34186  290.00 0854.43
2009/04/23 14:33:00.6      77   -234     86    247    262 161.7  19.2  34186  290.02 0854.43
2009/04/23 14:33:00.7      74   -220     84    233    247 161.3  20.7  34192  290.12 0854.43
2009/04/23 14:33:00.8      66   -245     94    254    270 164.9  21.0  34192  290.12 0854.43
2009/04/23 14:33:00.9      39   -195    104    199    224 168.7  29.8  34192  290.13 0854.43
2009/04/23 14:33:01.0      66   -168     98    181    205 158.4  30.6  34198  290.21 0854.43
2009/04/23 14:33:01.1      87   -144     86    169    189 149.0  28.7  34200  290.26 0854.43
2009/04/23 14:33:01.2      94   -176     87    200    218 151.7  25.1  34198  290.23 0854.43
2009/04/23 14:33:01.3     154   -175     73    234    246 138.6  17.4  34198  290.20 0854.43
2009/04/23 14:33:01.4     157   -149     23    217    219 133.6   6.1  34192  290.13 0854.43
2009/04/23 14:33:01.5     108   -134     87    173    193 141.3  28.7  34194  290.16 0854.43
2009/04/23 14:33:01.6     108    -98     56    146    156 132.2  22.0  34196  290.18 0854.43
2009/04/23 14:33:01.7      64    -93     40    114    121 145.3  19.4  34198  290.21 0854.43
2009/04/23 14:33:01.8      56   -101     90    116    146 151.0  42.2  34202  290.28 0854.43
2009/04/23 14:33:01.9      77   -122     92    145    171 147.9  35.5  34196  290.18 0854.43
2009/04/23 14:33:02.0      43   -142    109    149    184 163.1  39.7  34194  290.14 0854.41
2009/04/23 14:33:02.1      57   -139    118    151    191 157.7  42.2  34196  290.18 0854.41
2009/04/23 14:33:02.2      38    -72    109     82    136 151.9  59.4  34212  290.45 0854.41
2009/04/23 14:33:02.3      55   -119    138    132    190 155.1  51.4  34212  290.45 0854.41
2009/04/23 14:33:02.4       7    -35    133     36    137 168.4  84.9  34220  290.58 0854.41
2009/04/23 14:33:02.5      34     51    108     62    124  34.3  67.2  34236  290.87 0854.41
2009/04/23 14:33:02.6      -1    -23    137     24    139 184.5  90.0  34234  290.82 0854.41
2009/04/23 14:33:02.7      30   -198     78    201    215 171.3  22.5  34206  290.36 0854.41
2009/04/23 14:33:02.8      76   -107     99    132    165 144.4  40.7  34212  290.45 0854.41
2009/04/23 14:33:02.9      -3    -76    131     77    151 182.7  66.8  34218  290.57 0854.41
2009/04/23 14:33:03.0     -21    -94    132     97    163 192.9  60.3  34220  290.60 0854.41
2009/04/23 14:33:03.1      -8    -32     90     34     96 195.1  79.2  34224  290.67 0854.41
2009/04/23 14:33:03.2      37    -14     83     40     92 111.7  72.9  34216  290.52 0854.41
2009/04/23 14:33:03.3      98    -32    100    104    144 108.2  49.4  34212  290.45 0854.41
2009/04/23 14:33:03.4      61     16     85     64    106  74.9  59.4  34230  290.77 0854.41
2009/04/23 14:33:03.5      24     66     42     71     82  20.0  33.5  34284  291.69 0854.41
2009/04/23 14:33:03.6      59    106    164    122    204  29.0  59.8  34334  292.54 0854.41
2009/04/23 14:33:03.7      21    111    148    113    186  10.7  58.7  34320  292.30 0854.41
2009/04/23 14:33:03.8      42    159    126    165    207  14.9  41.4  34330  292.47 0854.41
2009/04/23 14:33:03.9     110    187     -8    218    219  30.5  -2.1  34328  292.44 0854.41
2009/04/23 14:33:04.0      66    245    -71    254    263  15.2 -20.4  34326  292.38 0854.39
2009/04/23 14:33:04.1      48    122      6    132    133  21.4   2.8  34330  292.46 0854.39
2009/04/23 14:33:04.2     -12    167     34    168    172 355.6  11.6  34330  292.46 0854.39
2009/04/23 14:33:04.3      -4    197     65    198    209 358.6  18.1  34392  293.53 0854.39
2009/04/23 14:33:04.4      54    191    165    199    258  16.0  43.8  34366  293.08 0854.39
2009/04/23 14:33:04.5     109    130    124    170    210  39.9  39.7  34376  293.24 0854.39
2009/04/23 14:33:04.6     152     93    146    179    230  58.7  43.7  34366  293.07 0854.39
2009/04/23 14:33:04.7     120     82     57    146    156  55.8  22.5  34366  293.09 0854.39
2009/04/23 14:33:04.8     177     56    145    186    235  72.5  42.0  34350  292.80 0854.39
2009/04/23 14:33:04.9     190    260    137    323    350  36.1  24.3  34352  292.82 0854.39
2009/04/23 14:33:05.0     365    342    -73    501    507  46.8  -8.4  34338  292.60 0854.39
2009/04/23 14:33:05.1     535    405    155    672    690  52.9  13.0  34310  292.11 0854.39
2009/04/23 14:33:05.2     663    263    181    714    737  68.3  14.3  34314  292.19 0854.39
2009/04/23 14:33:05.3     627    304     90    697    703  64.1   7.4  34232  290.78 0854.39
2009/04/23 14:33:05.4     445    374    -74    582    587  50.0  -7.3  34216  290.51 0854.39
2009/04/23 14:33:05.5     407    360    -49    544    547  48.5  -5.2  34216  290.52 0854.39
2009/04/23 14:33:05.6     386    205    -55    438    442  62.0  -7.2  34240  290.94 0854.39
2009/04/23 14:33:05.7     431    204    207    478    520  64.6  25.0  34262  291.30 0854.39
2009/04/23 14:33:05.8     448    247    255    512    571  61.1  28.4  34252  291.13 0854.39
2009/04/23 14:33:05.9     451     25    260    452    521  86.7  32.6  34296  291.87 0854.39
2009/04/23 14:33:06.0     643     14    227    644    682  88.7  20.2  34344  292.69 0854.38
2009/04/23 14:33:06.1     461   -173    173    493    523 110.6  19.4  34340  292.62 0854.38
2009/04/23 14:33:06.2     437   -362    -43    568    570 129.6  -4.4  34326  292.38 0854.38
2009/04/23 14:33:06.3     355   -408    -96    541    550 139.0 -10.1  34316  292.22 0854.38
2009/04/23 14:33:06.4     399   -321      1    513    514 128.8   0.2  34356  292.90 0854.38
2009/04/23 14:33:06.5     375   -277     46    467    470 126.5   5.7  34352  292.82 0854.38
2009/04/23 14:33:06.6     348   -243    -34    425    427 124.9  -4.6  34300  291.96 0854.38
2009/04/23 14:33:06.7     365   -193    -79    414    422 117.9 -10.9  34318  292.25 0854.38
2009/04/23 14:33:06.8     387   -246    -87    459    468 122.5 -10.8  34322  292.31 0854.38
2009/04/23 14:33:06.9     393   -182     68    434    440 114.8   8.9  34332  292.50 0854.38
2009/04/23 14:33:07.0     335   -181    131    381    404 118.4  19.1  34302  291.98 0854.38
2009/04/23 14:33:07.1     284   -213    196    355    405 126.9  31.4  34308  292.10 0854.38
2009/04/23 14:33:07.2     289   -120    180    313    361 112.6  32.7  34280  291.61 0854.38
2009/04/23 14:33:07.3     331    -42    211    334    395  97.4  35.3  34322  292.34 0854.38
2009/04/23 14:33:07.4     229    -54    214    236    318 103.3  47.0  34296  291.89 0854.38
2009/04/23 14:33:07.5     218    -43    251    223    335 101.4  53.9  34326  292.40 0854.38
2009/04/23 14:33:07.6     174    -48    216    181    281 105.7  55.8  34332  292.48 0854.38
2009/04/23 14:33:07.7      33    -10    137     35    141 106.8  85.4  34322  292.34 0854.38
2009/04/23 14:33:07.8     152    -31    217    156    267 101.5  60.6  34302  291.97 0854.38
2009/04/23 14:33:07.9     197     44    168    203    263  77.2  43.7  34264  291.33 0854.38
2009/04/23 14:33:08.0     179     53    147    187    237  73.4  42.2  34278  291.59 0854.38
2009/04/23 14:33:08.1     169    -24    184    171    251  98.1  52.2  34288  291.76 0854.38
2009/04/23 14:33:08.2      71     48    151     86    173  55.8  67.7  34310  292.13 0854.38
2009/04/23 14:33:08.3      11     42     81     44     92  15.1  69.3  34324  292.37 0854.38
2009/04/23 14:33:08.4     100    108     77    148    166  42.8  29.3  34288  291.76 0854.38
2009/04/23 14:33:08.5      99    104    113    144    183  43.7  42.0  34304  292.01 0854.38
2009/04/23 14:33:08.6       3      0    148      4    148  85.6  90.0  34340  292.64 0854.38
2009/04/23 14:33:08.7     -10     10    128     15    128 315.0  90.0  34344  292.69 0854.38
2009/04/23 14:33:08.8     -57     -8    111     58    125 261.2  70.4  34338  292.59 0854.38
2009/04/23 14:33:08.9     -23    -58    116     63    132 201.9  69.3  34324  292.37 0854.38
2009/04/23 14:33:09.0      69    -43     94     82    124 122.4  54.3  34318  292.25 0854.38
2009/04/23 14:33:09.1      68    -70     89     98    132 135.9  47.5  34324  292.37 0854.38
2009/04/23 14:33:09.2     127    -74    100    148    178 120.2  37.3  34322  292.34 0854.38
2009/04/23 14:33:09.3     124    -38     96    130    161 107.3  40.4  34322  292.32 0854.38
2009/04/23 14:33:09.4      65   -285     93    293    308 167.1  17.7  34250  291.10 0854.38
2009/04/23 14:33:09.5     -40   -237    185    241    303 189.7  41.6  34254  291.16 0854.38
2009/04/23 14:33:09.6    -193    -94     64    215    225 244.0  16.6  34284  291.67 0854.38
2009/04/23 14:33:09.7    -194   -121    -69    229    240 238.0 -16.8  34294  291.84 0854.38
2009/04/23 14:33:09.8    -222   -306   -123    379    399 216.0 -18.1  34248  291.05 0854.38
2009/04/23 14:33:09.9    -110   -349    -73    366    374 197.5 -11.3  34312  292.15 0854.38
2009/04/23 14:33:10.0     103   -199    -68    225    235 152.6 -21.7  34308  292.10 0854.39
2009/04/23 14:33:10.1     195    -45     13    201    202 103.2   3.8  34282  291.66 0854.39
2009/04/23 14:33:10.2      14   -173    228    174    286 175.1  58.7  34312  292.16 0854.39
2009/04/23 14:33:10.3      36   -244    245    247    347 171.5  50.0  34280  291.60 0854.39
2009/04/23 14:33:10.4      17   -228    267    229    351 175.5  54.9  34282  291.63 0854.39
2009/04/23 14:33:10.5       0   -240    222    241    327 180.0  47.5  34242  290.97 0854.39
2009/04/23 14:33:10.6     -40   -322      8    325    326 187.1   1.5  34232  290.78 0854.39
2009/04/23 14:33:10.7     -16   -264    -34    265    268 183.6  -7.3  34232  290.80 0854.39
2009/04/23 14:33:10.8      51   -241      6    247    248 168.0   1.6  34234  290.83 0854.39
2009/04/23 14:33:11.0      78   -178    -55    195    203 156.2 -15.8  34238  290.91 0854.39
2009/04/23 14:33:11.1      29   -209    -10    212    213 172.0  -2.8  34238  290.89 0854.39
2009/04/23 14:33:11.1     -42   -209    -25    214    216 191.3  -6.9  34234  290.84 0854.39
2009/04/23 14:33:11.3       8   -177    -57    178    188 177.3 -17.9  34246  291.03 0854.39
2009/04/23 14:33:11.4     -64   -126    -28    142    145 207.2 -11.5  34236  290.87 0854.39
2009/04/23 14:33:11.5      -6   -128    -44    129    137 182.7 -19.1  34232  290.81 0854.39
2009/04/23 14:33:11.6     -41   -169    106    175    204 193.8  34.2  34234  290.84 0854.39
2009/04/23 14:33:11.7     -11   -153     43    154    161 184.4  15.8  34234  290.82 0854.39
2009/04/23 14:33:11.8     -18   -147     29    149    152 187.1  11.1  34232  290.79 0854.39
2009/04/23 14:33:11.9     -14   -101      4    103    104 188.0   2.3  34230  290.75 0854.39
2009/04/23 14:33:12.0     -12    -93    -17     94     96 187.6 -10.3  34230  290.75 0854.39
2009/04/23 14:33:12.1      22    -93    -10     96     97 166.6  -6.2  34228  290.74 0854.40
2009/04/23 14:33:12.2      34   -170     80    174    191 168.7  26.6  34224  290.65 0854.40
2009/04/23 14:33:12.3     -11   -196    108    197    224 183.4  31.3  34226  290.69 0854.40
2009/04/23 14:33:12.4     -33   -164    120    168    206 191.3  39.1  34228  290.72 0854.40
2009/04/23 14:33:12.5     -31   -151    113    155    191 191.6  39.7  34234  290.84 0854.40
2009/04/23 14:33:12.6      12    -61    113     63    129 168.4  68.8  34246  291.03 0854.40
2009/04/23 14:33:12.7       9   -137    180    138    226 176.0  58.5  34248  291.08 0854.40
2009/04/23 14:33:12.8      30   -163    111    166    199 169.5  37.0  34240  290.94 0854.40
2009/04/23 14:33:12.9      -9   -164    122    165    205 183.4  39.9  34244  291.01 0854.40
2009/04/23 14:33:13.0     -34   -123    130    128    182 195.6  50.1  34240  290.94 0854.40
2009/04/23 14:33:13.1       2   -123      1    124    125 179.0   0.8  34240  290.92 0854.40
2009/04/23 14:33:13.2      11   -118    -17    119    121 174.7  -8.2  34242  290.96 0854.40
2009/04/23 14:33:13.3     -66   -103    -29    123    127 212.5 -13.4  34236  290.86 0854.40
2009/04/23 14:33:13.4      -1    -76    127     77    148 181.0  65.7  34248  291.06 0854.40
2009/04/23 14:33:13.5      60      3    122     61    136  86.5  71.9  34250  291.11 0854.40
2009/04/23 14:33:13.6     101     27    173    105    202  74.9  66.0  34252  291.13 0854.40
2009/04/23 14:33:13.7      48    -69    113     85    141 145.3  59.4  34260  291.28 0854.40
2009/04/23 14:33:13.8      79   -116    114    141    181 145.7  43.3  34242  290.98 0854.40
2009/04/23 14:33:13.9     -12   -154    144    155    211 184.5  47.9  34246  291.03 0854.40
2009/04/23 14:33:14.0     -35   -142     75    147    165 193.8  29.3  34242  290.96 0854.40
2009/04/23 14:33:14.1     -42   -100     -2    109    110 202.7  -1.2  34234  290.84 0854.40
2009/04/23 14:33:14.2     -51    -88    -95    102    139 210.3 -52.3  34240  290.92 0854.40
2009/04/23 14:33:14.3      30   -135    -59    139    151 167.5 -29.0  34246  291.03 0854.40
2009/04/23 14:33:14.4     -11   -167    -93    168    192 183.8 -35.8  34244  291.01 0854.40
2009/04/23 14:33:14.5     -68   -141   -100    157    186 205.9 -39.9  34242  290.96 0854.40
2009/04/23 14:33:14.6     -47   -139    -32    147    151 198.7 -12.4  34244  290.99 0854.40
2009/04/23 14:33:14.7      18   -241     -4    242    243 175.5  -1.1  34238  290.90 0854.40
2009/04/23 14:33:14.8      80   -237     78    251    263 161.3  17.3  34242  290.95 0854.40
2009/04/23 14:33:14.9      43   -177     54    183    191 166.2  16.6  34248  291.08 0854.40
2009/04/23 14:33:15.0      33   -180     55    184    193 169.5  16.6  34246  291.03 0854.40
2009/04/23 14:33:15.1      66   -161     54    175    184 157.5  17.1  34238  290.91 0854.41
2009/04/23 14:33:15.2      88    -81    112    120    164 132.7  48.2  34248  291.08 0854.41
2009/04/23 14:33:15.3     153    -61    137    165    214 111.8  43.8  34242  290.98 0854.41
2009/04/23 14:33:15.4     181    -88    157    202    255 116.0  41.7  34254  291.17 0854.41
2009/04/23 14:33:15.5     118   -109    117    161    199 132.7  39.7  34252  291.15 0854.41
2009/04/23 14:33:15.6     127    -80     93    151    177 122.4  34.8  34246  291.03 0854.41
2009/04/23 14:33:15.7     124    -58      5    138    139 115.2   2.3  34240  290.94 0854.41
2009/04/23 14:33:15.8      50   -150    -28    159    162 161.5 -10.3  34240  290.92 0854.41
2009/04/23 14:33:15.9     207   -101     -5    231    232 116.0  -1.3  34234  290.82 0854.41
2009/04/23 14:33:16.0     244   -104     96    266    283 113.1  19.9  34242  290.97 0854.41
2009/04/23 14:33:16.1     151   -124    -18    196    197 129.5  -5.4  34240  290.94 0854.41
2009/04/23 14:33:16.2      71   -112     25    133    136 147.5  11.0  34248  291.06 0854.41
2009/04/23 14:33:16.3     -78   -248      7    261    262 197.6   1.6  34240  290.92 0854.41
2009/04/23 14:33:16.4     -69   -290    121    299    322 193.4  23.4  34246  291.02 0854.41
2009/04/23 14:33:16.5     -95   -340    152    354    385 195.7  24.9  34240  290.94 0854.41
2009/04/23 14:33:16.6    -162   -319    103    358    373 207.0  16.1  34240  290.93 0854.41
2009/04/23 14:33:16.7     -16   -264     93    265    280 183.6  20.0  34238  290.90 0854.41
2009/04/23 14:33:16.8     -62   -346    117    352    371 190.3  18.4  34238  290.88 0854.41
2009/04/23 14:33:16.9     -87   -335     21    347    348 194.7   3.5  34240  290.94 0854.41
2009/04/23 14:33:17.0     -57   -408    126    413    432 188.0  17.0  34240  290.92 0854.41
2009/04/23 14:33:17.1      -8   -328     51    329    334 181.5   8.9  34234  290.84 0854.43
2009/04/23 14:33:17.2     148   -326     15    359    360 155.5   2.5  34230  290.77 0854.43
2009/04/23 14:33:17.3     240   -267     50    360    364 138.1   8.0  34228  290.74 0854.43
2009/04/23 14:33:17.4     311   -292     82    427    435 133.2  11.0  34226  290.68 0854.43
2009/04/23 14:33:17.5     256   -238    126    350    373 132.9  19.9  34228  290.71 0854.43
2009/04/23 14:33:17.6     183   -184    113    260    283 135.2  25.1  34228  290.71 0854.43
2009/04/23 14:33:17.7     172   -322    103    366    381 151.9  15.7  34228  290.72 0854.43
2009/04/23 14:33:17.8     145   -229     48    272    277 147.7  10.0  34228  290.73 0854.43
2009/04/23 14:33:17.9     116   -228     59    256    263 153.0  13.1  34232  290.80 0854.43
2009/04/23 14:33:18.0     138   -210     -5    252    253 146.6  -1.3  34236  290.85 0854.43
2009/04/23 14:33:18.1     158   -198     54    254    260 141.5  12.0  34230  290.76 0854.43
2009/04/23 14:33:18.2     121   -181    107    219    243 146.2  28.2  34226  290.70 0854.43
2009/04/23 14:33:18.3      29   -253    159    255    300 173.3  35.5  34226  290.70 0854.43
2009/04/23 14:33:18.4     -62   -184    181    195    266 198.7  47.9  34228  290.73 0854.43
2009/04/23 14:33:18.5     -31   -195     20    198    200 189.1   5.9  34232  290.81 0854.43
2009/04/23 14:33:18.6      92   -194     -7    215    216 154.5  -2.1  34232  290.79 0854.43
2009/04/23 14:33:18.7     104   -296    150    314    347 160.6  27.3  34234  290.84 0854.43
2009/04/23 14:33:18.8      14   -301     23    302    303 177.3   4.4  34238  290.88 0854.43
2009/04/23 14:33:18.9      38   -291     91    294    308 172.4  17.3  34244  290.99 0854.43
2009/04/23 14:33:19.0      52   -278    140    283    315 169.3  28.2  34240  290.92 0854.43
2009/04/23 14:33:19.1       0   -303     91    304    318 180.0  16.6  34248  291.07 0854.44
2009/04/23 14:33:19.2      12   -384     77    385    393 178.2  11.3  34250  291.11 0854.44
2009/04/23 14:33:19.3     -36   -330     -1    332    333 186.3  -0.3  34248  291.06 0854.44
2009/04/23 14:33:19.4     -89   -306    -36    319    322 196.3  -6.6  34242  290.95 0854.44
2009/04/23 14:33:19.5     -65   -462    -15    467    468 188.1  -1.9  34244  291.00 0854.44
2009/04/23 14:33:19.6     -44   -485    -84    488    496 185.2  -9.8  34242  290.96 0854.44
2009/04/23 14:33:19.7     -39   -420    -16    422    423 185.3  -2.2  34246  291.02 0854.44
2009/04/23 14:33:19.8     -30   -388    -40    390    393 184.5  -5.9  34242  290.96 0854.44
2009/04/23 14:33:19.9      59   -347    -15    353    354 170.3  -2.5  34244  291.01 0854.44
2009/04/23 14:33:20.0      42   -353    -26    356    357 173.2  -4.2  34242  290.98 0854.44
2009/04/23 14:33:20.1      93   -322     17    336    337 163.9   3.0  34246  291.03 0854.44
2009/04/23 14:33:20.2      96   -323     53    338    343 163.4   8.9  34248  291.08 0854.44
2009/04/23 14:33:20.3     210   -303    124    369    390 145.3  18.6  34248  291.06 0854.44
2009/04/23 14:33:20.4     147   -349    145    379    405 157.2  22.0  34238  290.89 0854.44
2009/04/23 14:33:20.5     114   -282    255    305    397 157.9  44.2  34238  290.88 0854.44
2009/04/23 14:33:20.6      17   -123    177    125    216 172.0  61.3  34242  290.96 0854.44
2009/04/23 14:33:20.7      14   -324    216    325    390 177.5  36.7  34234  290.84 0854.44
2009/04/23 14:33:20.8      18   -415    157    416    444 177.4  21.6  34234  290.82 0854.44
2009/04/23 14:33:20.9     174   -432    174    466    497 158.1  21.5  34224  290.66 0854.44
2009/04/23 14:33:21.0      67   -413    154    419    446 170.7  21.0  34246  291.02 0854.44
2009/04/23 14:33:21.1      59   -420    226    425    481 171.9  30.2  34230  290.77 0854.45
2009/04/23 14:33:21.2     194   -489    150    527    548 158.3  15.9  34238  290.91 0854.45
2009/04/23 14:33:21.3     303   -365     86    475    483 140.4  10.4  34246  291.02 0854.45
2009/04/23 14:33:21.4     220   -320    282    389    480 145.5  39.5  34234  290.82 0854.45
2009/04/23 14:33:21.5     108   -395    128    410    430 164.6  17.4  34252  291.14 0854.45
2009/04/23 14:33:21.6     130   -415    195    436    477 162.6  25.7  34254  291.16 0854.45
2009/04/23 14:33:21.7      76   -462    240    469    526 170.7  29.2  34252  291.15 0854.45
2009/04/23 14:33:21.8     122   -468    204    484    525 165.4  24.2  34232  290.81 0854.45
2009/04/23 14:33:21.9       5   -381    210    382    435 179.1  31.3  34240  290.94 0854.45
2009/04/23 14:33:22.0     -53   -492     90    495    504 186.3  10.4  34242  290.96 0854.45
2009/04/23 14:33:22.1    -103   -472    135    484    503 192.4  15.6  34244  291.00 0854.45
2009/04/23 14:33:22.2     -76   -464     92    471    481 189.3  11.1  34248  291.07 0854.45
2009/04/23 14:33:22.3      27   -494    148    495    517 176.9  16.7  34248  291.08 0854.45
2009/04/23 14:33:22.4      74   -433    247    440    504 170.2  31.9  34246  291.02 0854.45
2009/04/23 14:33:22.5      51   -364    245    368    442 172.0  36.9  34248  291.06 0854.45
2009/04/23 14:33:22.6      22   -315    184    316    365 176.0  33.0  34248  291.08 0854.45
2009/04/23 14:33:22.7      10   -230    110    231    255 177.3  27.2  34256  291.19 0854.45
2009/04/23 14:33:22.8    -127   -223    133    257    289 209.8  29.3  34262  291.29 0854.45
2009/04/23 14:33:22.9     -87   -166    149    188    239 207.6  42.4  34246  291.04 0854.45
2009/04/23 14:33:23.0       7   -170    161    171    234 177.5  48.0  34246  291.03 0854.45
2009/04/23 14:33:23.1     -60   -180     61    190    200 198.5  17.9  34232  290.79 0854.46
2009/04/23 14:33:23.2     -53   -146    -53    156    164 200.1 -23.3  34206  290.35 0854.46
2009/04/23 14:33:23.3     -25   -149    -53    152    162 189.8 -19.4  34222  290.62 0854.46
2009/04/23 14:33:23.4      15   -187    -52    188    196 175.1 -15.5  34200  290.26 0854.46
2009/04/23 14:33:23.5      75    -60     68     97    118 128.6  38.6  34198  290.21 0854.46
2009/04/23 14:33:23.6     112   -125    152    168    226 138.1  46.9  34204  290.31 0854.46
2009/04/23 14:33:23.7      68   -286     80    295    306 166.6  15.2  34204  290.31 0854.46
2009/04/23 14:33:23.8     205   -323    -40    383    386 147.6  -6.1  34198  290.20 0854.46
2009/04/23 14:33:23.9      58   -315    -21    321    322 169.5  -3.9  34202  290.29 0854.46
2009/04/23 14:33:24.0     102   -477     64    488    493 167.9   7.5  34210  290.42 0854.46
2009/04/23 14:33:24.1      42   -379    102    382    396 173.7  15.0  34208  290.40 0854.46
2009/04/23 14:33:24.2       5   -299     75    300    310 179.0  14.2  34220  290.58 0854.46
2009/04/23 14:33:24.3      64   -319     34    326    328 168.7   6.1  34210  290.42 0854.46
2009/04/23 14:33:24.4     110   -250    156    274    315 156.2  32.3  34210  290.42 0854.46
2009/04/23 14:33:24.5     135   -286     76    317    327 154.7  13.5  34214  290.49 0854.46
2009/04/23 14:33:24.6     203   -399    135    448    468 153.0  16.8  34206  290.36 0854.46
2009/04/23 14:33:24.7       6   -240    -71    241    252 178.4 -16.5  34210  290.42 0854.46
2009/04/23 14:33:24.8      25   -160   -113    162    197 171.1 -42.8  34214  290.48 0854.46
2009/04/23 14:33:24.9      18   -185    -47    186    192 174.4 -14.3  34216  290.53 0854.46
2009/04/23 14:33:25.0      83   -273    -97    286    302 163.0 -23.3  34222  290.61 0854.46
2009/04/23 14:33:25.1     102   -200    -73    225    236 152.8 -23.0  34224  290.66 0854.46
2009/04/23 14:33:25.2      64   -173    -60    185    194 159.5 -23.6  34216  290.53 0854.46
2009/04/23 14:33:25.3     136   -189    -89    234    250 144.2 -26.1  34214  290.49 0854.46
2009/04/23 14:33:25.4     181   -177      2    254    255 134.4   0.5  34214  290.48 0854.46
2009/04/23 14:33:25.5     176   -139    189    225    293 128.2  44.1  34208  290.37 0854.46
2009/04/23 14:33:25.6     285   -272    224    395    454 133.7  32.0  34218  290.55 0854.46
2009/04/23 14:33:25.7     254   -139    -79    290    301 118.8 -15.4  34210  290.42 0854.46
2009/04/23 14:33:25.8     173   -207     38    271    274 140.1   8.0  34210  290.41 0854.46
2009/04/23 14:33:25.9      34   -170    -78    174    190 168.4 -30.3  34220  290.58 0854.46
2009/04/23 14:33:26.0      19   -248    -75    249    260 175.5 -21.7  34220  290.58 0854.46
2009/04/23 14:33:26.1    -214   -234    -96    318    332 222.5 -21.7  34224  290.65 0854.46
2009/04/23 14:33:26.2     -14   -342    -11    343    344 182.5  -1.9  34218  290.54 0854.46
2009/04/23 14:33:26.3     -66   -299     62    307    314 192.5  11.4  34228  290.71 0854.46
2009/04/23 14:33:26.4    -175   -336    137    379    404 207.5  19.9  34228  290.72 0854.46
2009/04/23 14:33:26.5    -156   -353    139    387    411 203.9  20.6  34226  290.68 0854.46
2009/04/23 14:33:26.6    -239   -293    -35    379    381 219.2  -5.3  34228  290.71 0854.46
2009/04/23 14:33:26.7    -205   -420    110    468    481 206.0  13.2  34224  290.66 0854.46
2009/04/23 14:33:26.8    -121   -334     58    356    361 200.0   9.3  34224  290.67 0854.46
2009/04/23 14:33:26.9     -27   -293     -6    295    296 185.4  -1.3  34218  290.56 0854.46
2009/04/23 14:33:27.0    -140   -348     19    376    377 201.9   3.0  34204  290.32 0854.46
2009/04/23 14:33:27.1    -186   -675    163    701    720 195.4  13.1  34214  290.49 0854.47
2009/04/23 14:33:27.2    -202   -606    -11    640    641 198.5  -1.0  34202  290.28 0854.47
2009/04/23 14:33:27.3    -209   -693    -41    724    726 196.8  -3.3  34206  290.35 0854.47
2009/04/23 14:33:27.4    -186   -747     -3    770    771 194.0  -0.3  34210  290.42 0854.47
2009/04/23 14:33:27.5    -315   -662   -161    734    752 205.5 -12.4  34214  290.48 0854.47
2009/04/23 14:33:27.6    -220   -506    126    552    567 203.5  12.9  34198  290.21 0854.47
2009/04/23 14:33:27.7    -260   -446    304    517    599 210.2  33.4  34186  290.02 0854.47
2009/04/23 14:33:27.8    -322   -437    354    543    648 216.4  36.3  34190  290.08 0854.47
2009/04/23 14:33:27.9    -416   -324    189    528    560 232.1  20.4  34188  290.06 0854.47
2009/04/23 14:33:28.0    -462   -240      1    521    522 242.5   0.2  34210  290.43 0854.47
2009/04/23 14:33:28.1    -279   -470    198    547    581 210.7  20.8  34186  290.00 0854.47
2009/04/23 14:33:28.2    -360   -521     20    634    635 214.6   1.9  34198  290.21 0854.47
2009/04/23 14:33:28.3    -338   -463    -31    574    575 216.1  -3.1  34208  290.37 0854.47
2009/04/23 14:33:28.4    -344   -376     38    510    512 222.4   4.3  34210  290.42 0854.47
2009/04/23 14:33:28.5    -332   -316    -75    459    466 226.4  -9.3  34212  290.44 0854.47
2009/04/23 14:33:28.6    -162   -375     -3    409    410 203.4  -0.5  34208  290.38 0854.47
2009/04/23 14:33:28.7     -87   -469    -21    478    479 190.6  -2.6  34208  290.39 0854.47
2009/04/23 14:33:28.8     -47   -434     -5    437    438 186.2  -0.7  34180  289.92 0854.47
2009/04/23 14:33:28.9    -152   -397    -23    426    427 201.0  -3.1  34174  289.82 0854.47
2009/04/23 14:33:29.0    -136   -530     77    548    554 194.4   8.0  34220  290.58 0854.47
2009/04/23 14:33:29.1     -31   -524    136    525    543 183.4  14.5  34192  290.11 0854.46
2009/04/23 14:33:29.2    -149   -547    134    568    584 195.3  13.3  34208  290.37 0854.46
2009/04/23 14:33:29.3     -12   -528    107    529    540 181.4  11.5  34178  289.89 0854.46
2009/04/23 14:33:29.4      50   -346    138    350    376 171.7  22.9  34182  289.93 0854.46
2009/04/23 14:33:29.5      78   -291    177    302    350 164.9  33.1  34188  290.06 0854.46
2009/04/23 14:33:29.6     102   -346    162    361    395 163.5  25.8  34194  290.15 0854.46
2009/04/23 14:33:29.7      65   -376    166    382    416 170.1  25.0  34190  290.09 0854.46
2009/04/23 14:33:29.8      14   -310     66    311    319 177.4  12.1  34190  290.07 0854.46
2009/04/23 14:33:29.9     -91   -349     98    361    375 194.6  15.3  34182  289.94 0854.46
2009/04/23 14:33:30.0    -113   -460    102    474    485 193.8  12.2  34182  289.93 0854.46
2009/04/23 14:33:30.1    -229   -327    124    400    419 215.1  17.3  34176  289.83 0854.46
2009/04/23 14:33:30.2    -267   -481     34    551    553 209.0   3.6  34176  289.85 0854.46
2009/04/23 14:33:30.3    -302   -388     90    492    501 217.9  10.4  34182  289.95 0854.46
2009/04/23 14:33:30.4    -105   -334     60    351    357 197.4   9.7  34186  290.01 0854.46
2009/04/23 14:33:30.5     -98   -251     49    270    275 201.4  10.3  34182  289.95 0854.46
2009/04/23 14:33:30.6     -90   -243     19    260    261 200.3   4.2  34182  289.95 0854.46
2009/04/23 14:33:30.7      95   -220     23    240    242 156.6   5.7  34180  289.90 0854.46
2009/04/23 14:33:30.8     -20   -217    103    219    242 185.3  27.0  34182  289.93 0854.46
2009/04/23 14:33:30.9     -39   -347     93    350    363 186.5  14.9  34182  289.93 0854.46
2009/04/23 14:33:31.0    -131   -170    -61    215    223 217.8 -20.7  34178  289.89 0854.46
2009/04/23 14:33:31.1    -333    -67     13    340    341 258.6   2.3  34204  290.33 0854.47
2009/04/23 14:33:31.2    -404    -30     79    406    414 265.7  11.1  34218  290.55 0854.47
2009/04/23 14:33:31.3    -332   -130   -175    357    397 248.5 -32.6  34192  290.10 0854.47
2009/04/23 14:33:31.4    -377   -353   -185    517    549 226.9 -25.0  34172  289.77 0854.47
2009/04/23 14:33:31.5    -491   -241   -185    548    578 243.8 -23.6  34186  290.02 0854.47
2009/04/23 14:33:31.6    -513   -259   -260    575    631 243.2 -30.3  34176  289.83 0854.47
2009/04/23 14:33:31.7    -591   -158    -52    612    615 255.0  -4.9  34208  290.39 0854.47
2009/04/23 14:33:31.8    -397   -314    211    507    549 231.7  24.1  34228  290.72 0854.47
2009/04/23 14:33:31.9    -193   -306    127    363    385 212.3  19.3  34208  290.37 0854.47
2009/04/23 14:33:32.0    -137   -360    -15    386    387 200.9  -2.2  34198  290.23 0854.47
2009/04/23 14:33:32.1    -254   -398     -1    473    474 212.6  -0.2  34196  290.17 0854.47
2009/04/23 14:33:32.2    -228   -227   -143    322    352 225.1 -29.7  34202  290.28 0854.47
2009/04/23 14:33:32.3    -234   -399   -101    463    475 210.4 -12.4  34206  290.35 0854.47
2009/04/23 14:33:32.4    -225   -381   -126    443    460 210.7 -20.5  34208  290.38 0854.47
2009/04/23 14:33:32.5    -209   -425   -223    474    523 206.3 -31.5  34172  289.76 0854.47
2009/04/23 14:33:32.6    -386   -417   -223    569    611 222.8 -27.1  34172  289.76 0854.47
2009/04/23 14:33:32.7    -328   -436   -187    546    577 217.0 -23.9  34172  289.79 0854.47
2009/04/23 14:33:32.8    -287   -448   -250    533    588 212.7 -31.4  34180  289.90 0854.47
2009/04/23 14:33:32.9    -340   -292   -227    449    503 229.4 -33.3  34172  289.79 0854.47
2009/04/23 14:33:33.0    -378   -257   -159    458    484 235.7 -24.3  34174  289.81 0854.47
2009/04/23 14:33:33.1    -323   -269   -149    421    447 230.2 -19.6  34178  289.88 0854.46
2009/04/23 14:33:33.2    -294   -292   -202    415    461 225.2 -32.2  34178  289.88 0854.46
2009/04/23 14:33:33.3    -315   -268   -217    414    467 229.6 -34.2  34182  289.95 0854.46
2009/04/23 14:33:33.4    -348   -252   -161    430    459 234.1 -25.8  34194  290.14 0854.46
2009/04/23 14:33:33.5    -271   -255   -182    373    415 226.8 -32.3  34192  290.11 0854.46
2009/04/23 14:33:33.6    -277   -242   -222    369    430 228.9 -38.1  34184  289.97 0854.46
2009/04/23 14:33:33.7    -230   -230   -242    326    406 225.1 -44.8  34174  289.82 0854.46
2009/04/23 14:33:33.8    -266   -267   -248    377    451 224.9 -40.9  34188  290.05 0854.46
2009/04/23 14:33:33.9    -271   -255   -294    373    474 226.8 -46.6  34192  290.11 0854.46
2009/04/23 14:33:34.0    -409   -278   -239    495    549 235.8 -32.2  34188  290.04 0854.46
2009/04/23 14:33:34.1    -375   -246   -187    449    486 236.7 -28.5  34182  289.93 0854.46
2009/04/23 14:33:34.2    -330   -222   -205    398    447 236.1 -33.7  34178  289.88 0854.46
2009/04/23 14:33:34.3    -320   -183   -220    369    429 240.3 -37.9  34184  289.97 0854.46
2009/04/23 14:33:34.4    -326   -166   -200    366    417 243.0 -35.7  34182  289.94 0854.46
2009/04/23 14:33:34.5    -310   -157   -210    348    406 243.2 -38.5  34182  289.96 0854.46
2009/04/23 14:33:34.6    -291   -166   -238    336    411 240.2 -43.4  34182  289.96 0854.46
2009/04/23 14:33:34.7    -274   -146   -219    311    380 242.0 -43.0  34182  289.96 0854.46
2009/04/23 14:33:34.8    -159   -173   -256    236    348 222.5 -56.9  34190  290.09 0854.46
2009/04/23 14:33:34.9    -229   -106   -197    253    320 245.2 -46.3  34188  290.03 0854.46
2009/04/23 14:33:35.0    -217   -191   -225    290    367 228.7 -46.1  34182  289.94 0854.46
2009/04/23 14:33:35.1    -178   -148   -202    232    307 230.4 -50.2  34190  290.07 0854.46
2009/04/23 14:33:35.2    -216   -194   -200    291    353 228.0 -42.2  34188  290.04 0854.46
2009/04/23 14:33:35.3    -177   -188   -184    259    317 223.2 -43.2  34190  290.09 0854.46
2009/04/23 14:33:35.4    -162   -173   -175    238    295 223.2 -44.1  34188  290.03 0854.46
2009/04/23 14:33:35.5    -204   -167   -207    264    335 230.7 -46.6  34182  289.93 0854.46
2009/04/23 14:33:35.6    -218   -168   -214    276    349 232.5 -46.3  34182  289.95 0854.46
2009/04/23 14:33:35.7    -212   -194   -221    288    363 227.6 -45.9  34188  290.03 0854.46
2009/04/23 14:33:35.8    -107   -220   -224    245    331 206.1 -51.9  34184  289.97 0854.46
2009/04/23 14:33:35.9    -172    -54   -264    181    320 252.5 -66.9  34186  290.02 0854.46
2009/04/23 14:33:36.0    -224    -46   -222    229    318 258.3 -53.6  34188  290.03 0854.46
2009/04/23 14:33:36.1    -245    -17   -191    246    311 265.9 -46.1  34186  290.00 0854.46
2009/04/23 14:33:36.2    -160    -50   -187    168    251 252.5 -57.9  34192  290.11 0854.46
2009/04/23 14:33:36.3    -303     96   -232    319    394 287.7 -44.1  34188  290.04 0854.46
2009/04/23 14:33:36.4    -423   -111   -205    438    483 255.3 -31.4  34200  290.25 0854.46
2009/04/23 14:33:36.5    -482    -38   -257    484    548 265.4 -34.6  34194  290.14 0854.46
2009/04/23 14:33:36.6    -290    -95   -258    306    400 251.8 -48.8  34188  290.06 0854.46
2009/04/23 14:33:36.7    -389    -87   -304    399    501 257.3 -45.6  34196  290.17 0854.46
2009/04/23 14:33:36.8    -403   -183   -312    443    541 245.6 -43.0  34190  290.08 0854.46
2009/04/23 14:33:36.9    -358   -176   -270    400    482 243.8 -41.7  34194  290.16 0854.46
2009/04/23 14:33:37.0    -303   -166   -276    346    442 241.2 -47.1  34198  290.22 0854.46
2009/04/23 14:33:37.1    -427   -192   -293    469    553 245.8 -39.4  34196  290.19 0854.44
2009/04/23 14:33:37.2    -373   -140   -228    399    459 249.4 -36.7  34198  290.21 0854.44
2009/04/23 14:33:37.4    -341   -174   -281    384    475 242.9 -44.2  34190  290.07 0854.44
2009/04/23 14:33:37.4    -340   -119   -245    361    436 250.7 -41.8  34194  290.14 0854.44
2009/04/23 14:33:37.5    -431    -90   -296    441    531 258.1 -41.5  34192  290.13 0854.44
2009/04/23 14:33:37.7    -440   -126   -297    458    545 254.0 -40.4  34190  290.08 0854.44
2009/04/23 14:33:37.7    -473      4   -317    474    570 270.5 -41.4  34196  290.19 0854.44
2009/04/23 14:33:37.9    -378     67   -230    385    448 280.1 -37.9  34204  290.33 0854.44
2009/04/23 14:33:38.0    -422    -32   -255    424    494 265.6 -38.4  34218  290.56 0854.44
2009/04/23 14:33:38.1    -436     32   -230    438    494 274.3 -34.4  34208  290.39 0854.44
2009/04/23 14:33:38.2    -415    -64   -212    420    470 261.2 -33.2  34196  290.19 0854.42
2009/04/23 14:33:38.3    -405     -6   -115    406    421 269.1 -20.4  34206  290.34 0854.42
2009/04/23 14:33:38.4    -422    -30   -135    424    446 265.9 -17.7  34216  290.53 0854.42
2009/04/23 14:33:38.5    -379   -216     -9    437    438 240.3  -1.3  34232  290.80 0854.42
2009/04/23 14:33:38.6    -247   -428     89    495    504 210.0  10.2  34212  290.47 0854.42
2009/04/23 14:33:38.7     -93   -390     39    402    404 193.5   5.7  34214  290.50 0854.42
2009/04/23 14:33:38.8      40   -285    -52    288    293 172.0 -10.3  34204  290.31 0854.42
2009/04/23 14:33:38.9     -43   -204    -73    209    222 192.0 -19.4  34208  290.38 0854.42
2009/04/23 14:33:39.0    -125   -135    -65    184    195 222.8 -24.4  34204  290.33 0854.42
2009/04/23 14:33:39.1    -162     25   -190    164    250 278.8 -59.2  34222  290.62 0854.42
2009/04/23 14:33:39.2    -153      9    -25    154    157 273.5  -9.3  34218  290.55 0854.42
2009/04/23 14:33:39.3     -81     17    -37     83     90 281.9 -30.6  34216  290.53 0854.42
2009/04/23 14:33:39.4      56   -120    -75    133    152 154.7 -36.3  34214  290.48 0854.42
2009/04/23 14:33:39.5      -7   -252    -90    253    269 181.6 -19.6  34204  290.31 0854.42
2009/04/23 14:33:39.6      35   -377     39    379    382 174.7   6.0  34208  290.38 0854.42
2009/04/23 14:33:39.7     107   -342    -15    359    360 162.6  -2.5  34202  290.30 0854.42
2009/04/23 14:33:39.8     138   -279    -67    312    320 153.7 -12.2  34202  290.27 0854.42
2009/04/23 14:33:39.9     188   -203     -1    278    279 137.2  -0.3  34202  290.27 0854.42
2009/04/23 14:33:40.0     102    -58    160    118    198 119.8  60.0  34212  290.47 0854.42
2009/04/23 14:33:40.1      32    -10     81     34     87 108.4  76.6  34222  290.64 0854.42
2009/04/23 14:33:40.2     -61    -53    131     82    154 229.1  64.7  34238  290.91 0854.40
2009/04/23 14:33:40.3     -74   -162    156    179    237 204.5  45.8  34210  290.41 0854.40
2009/04/23 14:33:40.4     -48   -102    118    113    163 205.5  51.2  34210  290.43 0854.40
2009/04/23 14:33:40.5    -149     40    172    155    231 285.1  53.3  34232  290.79 0854.40
2009/04/23 14:33:40.6     -70   -119    189    139    234 210.7  60.0  34212  290.47 0854.40
2009/04/23 14:33:40.7     -94   -185    228    208    308 207.1  52.7  34210  290.41 0854.40
2009/04/23 14:33:40.8    -101    -97    137    141    196 226.0  49.2  34216  290.53 0854.40
2009/04/23 14:33:40.9      -4   -277    193    278    338 180.9  38.3  34206  290.36 0854.40
2009/04/23 14:33:41.0      80   -306    227    317    389 165.3  39.1  34210  290.42 0854.40
2009/04/23 14:33:41.1      49   -314    238    318    397 171.1  40.6  34202  290.28 0854.40
2009/04/23 14:33:41.2      45   -354    262    357    442 172.7  39.9  34210  290.43 0854.40
2009/04/23 14:33:41.3     113   -233    246    259    357 154.1  48.5  34210  290.41 0854.40
2009/04/23 14:33:41.4     153   -240    216    285    357 147.4  41.1  34204  290.33 0854.40
2009/04/23 14:33:41.5      24   -314    286    315    425 175.6  47.0  34208  290.40 0854.40
2009/04/23 14:33:41.6      13   -296    280    297    408 177.4  48.2  34208  290.40 0854.40
2009/04/23 14:33:41.7      -5   -319    137    320    348 181.0  24.5  34210  290.42 0854.40
2009/04/23 14:33:41.8    -103   -360    115    375    393 196.0  17.0  34208  290.37 0854.40
2009/04/23 14:33:41.9       2   -298    100    299    316 179.5  18.6  34210  290.42 0854.40
2009/04/23 14:33:42.0      -4   -332    152    333    366 180.7  26.3  34214  290.49 0854.40
2009/04/23 14:33:42.1     -38   -341    170    344    383 186.5  28.1  34218  290.54 0854.40
2009/04/23 14:33:42.2     -26   -315    213    317    381 184.9  37.3  34218  290.57 0854.40
2009/04/23 14:33:42.3    -109   -329    132    347    371 198.4  21.8  34216  290.52 0854.40
2009/04/23 14:33:42.4     -81   -304    130    315    340 195.1  23.6  34214  290.50 0854.40
2009/04/23 14:33:42.5     -50   -368    174    372    410 187.8  27.0  34208  290.38 0854.40
2009/04/23 14:33:42.6     -77   -336    278    345    443 192.9  43.0  34224  290.67 0854.40
2009/04/23 14:33:42.7     -38   -312    280    315    421 187.1  46.2  34228  290.71 0854.40
2009/04/23 14:33:42.8      35   -310    261    313    407 173.5  44.0  34222  290.64 0854.40
2009/04/23 14:33:42.9      31   -266    263    268    375 173.3  49.7  34222  290.64 0854.40
2009/04/23 14:33:43.0      14   -304    248    305    393 177.3  43.3  34224  290.67 0854.40
2009/04/23 14:33:43.1    -147   -371    263    400    478 201.6  36.5  34226  290.70 0854.40
2009/04/23 14:33:43.2    -155   -425    256    453    520 200.1  32.0  34224  290.66 0854.40
2009/04/23 14:33:43.3      30   -550    183    551    581 176.9  18.4  34218  290.54 0854.40
2009/04/23 14:33:43.4      -5   -405    254    406    478 180.8  35.0  34220  290.60 0854.40
2009/04/23 14:33:43.5     -84   -348    344    358    496 193.6  48.8  34222  290.63 0854.40
2009/04/23 14:33:43.6     -20   -273    288    274    397 184.4  51.5  34234  290.83 0854.40
2009/04/23 14:33:43.7     -35   -335    364    337    496 186.1  52.5  34212  290.46 0854.40
2009/04/23 14:33:43.8     -45   -267    307    271    409 189.7  54.2  34222  290.62 0854.40
2009/04/23 14:33:43.9    -190   -637    216    665    700 196.7  18.0  34242  290.95 0854.40
2009/04/23 14:33:44.0    -266   -714    291    763    816 200.5  22.0  34240  290.92 0854.40
2009/04/23 14:33:44.1    -256   -736    156    780    796 199.2  11.3  34218  290.56 0854.40
2009/04/23 14:33:44.2    -485   -742     96    887    893 213.2   6.2  34198  290.23 0854.40
2009/04/23 14:33:44.3    -473   -689    160    837    853 214.5  10.8  34216  290.53 0854.40
2009/04/23 14:33:44.4    -447   -509     95    678    685 221.3   8.0  34224  290.65 0854.40
2009/04/23 14:33:44.5    -482   -658     39    816    818 216.2   2.8  34210  290.42 0854.40
2009/04/23 14:33:44.6    -392   -625    -27    738    739 212.1  -2.1  34214  290.48 0854.40
2009/04/23 14:33:44.7    -335   -549    -31    644    645 211.4  -2.8  34218  290.55 0854.40
2009/04/23 14:33:44.8    -266   -666    -82    718    723 201.8  -6.6  34238  290.90 0854.40
2009/04/23 14:33:44.9    -467   -707   -168    848    865 213.5 -11.2  34230  290.77 0854.40
2009/04/23 14:33:45.0    -376   -687   -195    784    808 208.7 -14.0  34206  290.34 0854.40
2009/04/23 14:33:45.1    -312   -789   -289    849    897 201.6 -18.8  34182  289.93 0854.40
2009/04/23 14:33:45.2       1   -562   -280    563    628 179.9 -32.9  34176  289.85 0854.40
2009/04/23 14:33:45.3     -46   -395   -370    398    543 186.7 -52.3  34184  289.98 0854.40
2009/04/23 14:33:45.4    -146   -315   -349    348    492 204.8 -54.5  34186  290.02 0854.40
2009/04/23 14:33:45.5     -73   -318   -320    327    457 193.0 -53.8  34194  290.14 0854.40
2009/04/23 14:33:45.6    -246   -479   -235    539    588 207.2 -29.5  34178  289.86 0854.40
2009/04/23 14:33:45.7     -69   -541   -153    546    567 187.4 -20.2  34194  290.16 0854.40
2009/04/23 14:33:45.8     -35   -466   -162    468    496 184.4 -19.1  34176  289.83 0854.40
2009/04/23 14:33:45.9     -24   -406   -196    407    451 183.5 -31.7  34178  289.88 0854.40
2009/04/23 14:33:46.0     -30   -380   -185    382    424 184.6 -31.8  34182  289.95 0854.40
2009/04/23 14:33:46.1      59   -259   -116    266    290 167.1 -29.5  34182  289.95 0854.40
2009/04/23 14:33:46.2      36   -281   -128    284    311 172.7 -30.6  34184  289.98 0854.41
2009/04/23 14:33:46.3      11   -320    -88    321    333 177.9 -15.4  34178  289.86 0854.41
2009/04/23 14:33:46.4     -19   -260   -140    261    296 184.4 -35.0  34180  289.90 0854.41
2009/04/23 14:33:46.5      23   -302    -88    303    315 175.5 -21.0  34182  289.93 0854.41
2009/04/23 14:33:46.6      52   -343   -246    347    425 171.3 -43.2  34186  290.01 0854.41
2009/04/23 14:33:46.7       3   -323   -228    324    396 179.4 -43.0  34198  290.21 0854.41
2009/04/23 14:33:46.8    -100   -277   -237    295    378 200.0 -47.4  34194  290.15 0854.41
2009/04/23 14:33:46.9     -57   -230   -205    238    314 194.0 -49.6  34190  290.09 0854.41
2009/04/23 14:33:47.0      28   -263   -138    265    298 173.8 -33.9  34196  290.19 0854.41
2009/04/23 14:33:47.1     147   -311   -132    345    369 154.7 -26.2  34192  290.13 0854.41
2009/04/23 14:33:47.2      67   -185   -107    198    225 160.0 -35.2  34206  290.35 0854.41
2009/04/23 14:33:47.3      31   -127   -160    131    206 166.2 -60.8  34220  290.58 0854.41
2009/04/23 14:33:47.4     157   -166   -116    229    256 136.7 -33.1  34210  290.42 0854.41
2009/04/23 14:33:47.5     137     35   -142    142    200  75.4 -54.5  34214  290.48 0854.41
2009/04/23 14:33:47.6      96   -173   -123    198    233 151.0 -39.9  34210  290.41 0854.41
2009/04/23 14:33:47.7     148   -208    -71    256    266 144.6 -15.5  34200  290.26 0854.41
2009/04/23 14:33:47.8     292   -236    -48    376    380 129.0  -7.3  34194  290.15 0854.41
2009/04/23 14:33:47.9     256   -168    -36    307    310 123.3  -6.7  34196  290.17 0854.41
2009/04/23 14:33:48.0     191    -74     -7    206    207 111.3  -2.1  34202  290.30 0854.41
2009/04/23 14:33:48.1     281   -191     44    340    343 124.2   7.4  34202  290.30 0854.41
2009/04/23 14:33:48.2     270    -46    186    274    331  99.7  37.4  34196  290.17 0854.45
2009/04/23 14:33:48.3     101     -4    214    102    237  92.6  72.9  34202  290.28 0854.45
2009/04/23 14:33:48.4      -5   -108    165    109    197 182.7  63.4  34206  290.35 0854.45
2009/04/23 14:33:48.5       1    -61    221     62    229 179.0  84.4  34202  290.30 0854.45
2009/04/23 14:33:48.6       7    -69    203     70    214 173.8  81.0  34194  290.16 0854.45
2009/04/23 14:33:48.7      91    -55    210    107    235 121.1  71.1  34200  290.26 0854.45
2009/04/23 14:33:48.8     -13   -290    300    291    417 182.7  51.1  34202  290.27 0854.45
2009/04/23 14:33:48.9      -3   -238    274    239    363 180.9  54.6  34204  290.32 0854.45
2009/04/23 14:33:49.0     -62   -406    346    411    537 188.8  44.3  34192  290.13 0854.45
2009/04/23 14:33:49.1    -113   -316    303    336    452 199.7  46.9  34182  289.95 0854.45
2009/04/23 14:33:49.2     -90   -362     87    374    384 194.1  13.1  34184  289.99 0854.45
2009/04/23 14:33:49.3     -93   -486     -1    495    496 190.9  -0.2  34192  290.13 0854.45
2009/04/23 14:33:49.4    -114   -494     97    507    517 193.0  10.8  34186  290.00 0854.45
2009/04/23 14:33:49.5     -69   -407    149    413    439 189.7  20.8  34188  290.04 0854.45
2009/04/23 14:33:49.6    -146   -394     -9    421    422 200.3  -1.3  34196  290.17 0854.45
2009/04/23 14:33:49.7    -169   -290   -120    336    356 210.3 -24.8  34192  290.10 0854.45
2009/04/23 14:33:49.8    -265   -260   -133    372    395 225.6 -24.8  34186  290.01 0854.45
2009/04/23 14:33:49.9    -195   -288    -44    348    351 214.1  -7.2  34188  290.06 0854.45
2009/04/23 14:33:50.0    -127   -125    -61    179    190 225.6 -18.9  34186  290.01 0854.45
2009/04/23 14:33:50.1    -152     28     35    155    160 280.6  12.9  34190  290.09 0854.45
2009/04/23 14:33:50.2     -24     73     -3     77     78 341.7  -2.2  34194  290.16 0854.47
2009/04/23 14:33:50.3      60      3     47     61     77  86.5  42.7  34206  290.36 0854.47
2009/04/23 14:33:50.4      -9    -98    132     99    165 185.8  59.4  34204  290.33 0854.47
2009/04/23 14:33:50.5     173   -192     50    259    264 138.1  11.1  34200  290.24 0854.47
2009/04/23 14:33:50.6     184   -162     48    246    251 131.4  11.1  34196  290.19 0854.47
2009/04/23 14:33:50.7     138   -129     71    190    202 133.1  21.0  34198  290.23 0854.47
2009/04/23 14:33:50.8     119   -130    143    177    227 137.5  43.5  34206  290.36 0854.47
2009/04/23 14:33:50.9      55   -190    162    198    255 163.7  43.7  34198  290.20 0854.47
2009/04/23 14:33:51.0     -16    -98     31    100    105 189.3  17.3  34188  290.06 0854.47
2009/04/23 14:33:51.1      93    -17    -23     95     98 100.6 -13.9  34196  290.18 0854.47
2009/04/23 14:33:51.2      81    -39     -8     91     92 115.8  -5.6  34194  290.16 0854.47
2009/04/23 14:33:51.3       9    -64     21     65     69 171.9  18.4  34192  290.11 0854.47
2009/04/23 14:33:51.4     130    -34     85    135    159 104.6  35.2  34200  290.26 0854.47
2009/04/23 14:33:51.5     180    -36     89    184    204 101.4  27.4  34204  290.33 0854.47
2009/04/23 14:33:51.6     200      6     71    201    214  88.1  19.6  34198  290.23 0854.47
2009/04/23 14:33:51.7      92     58     85    110    139  57.6  41.7  34204  290.31 0854.47
2009/04/23 14:33:51.8      57     54    111     79    136  46.8  61.1  34208  290.40 0854.47
2009/04/23 14:33:51.9       3    -31     72     32     78 173.8  75.0  34220  290.58 0854.47
2009/04/23 14:33:52.0     -31    -48     35     58     67 212.5  34.4  34214  290.48 0854.47
2009/04/23 14:33:52.1       6   -139    175    140    224 177.3  57.5  34208  290.38 0854.47
2009/04/23 14:33:52.2     -66   -199    149    210    257 198.5  38.8  34202  290.27 0854.48
2009/04/23 14:33:52.3     -66   -167    173    180    249 201.8  49.0  34202  290.28 0854.48
2009/04/23 14:33:52.4      81   -104     46    132    140 142.2  19.4  34198  290.21 0854.48
2009/04/23 14:33:52.5      11   -143    201    144    247 175.6  61.1  34212  290.45 0854.48
2009/04/23 14:33:52.6      76    -55    172     95    196 126.0  68.9  34216  290.52 0854.48
2009/04/23 14:33:52.7      23   -210    230    212    312 173.5  52.6  34198  290.20 0854.48
2009/04/23 14:33:52.8      75   -187    191    202    278 157.9  48.2  34198  290.22 0854.48
2009/04/23 14:33:52.9     139    -63    228    153    274 114.4  62.8  34214  290.49 0854.48
2009/04/23 14:33:53.0      85   -167    233    188    299 152.8  56.9  34214  290.49 0854.48
2009/04/23 14:33:53.1      67   -280    292    289    410 166.4  50.2  34206  290.35 0854.48
2009/04/23 14:33:53.2      86   -202    205    220    300 156.8  47.9  34212  290.44 0854.48
2009/04/23 14:33:53.3      61   -208    215    218    306 163.5  49.9  34206  290.34 0854.48
2009/04/23 14:33:53.4      46     24    147     53    156  62.0  79.7  34236  290.86 0854.48
2009/04/23 14:33:53.5      -8     57    254     58    260 352.0  87.5  34250  291.11 0854.48
2009/04/23 14:33:53.6     -47   -185    196    191    273 194.3  50.7  34214  290.48 0854.48
2009/04/23 14:33:53.7       4   -169    197    170    260 178.6  55.0  34218  290.54 0854.48
2009/04/23 14:33:53.8      59   -145    196    157    251 157.7  57.3  34218  290.55 0854.48
2009/04/23 14:33:53.9      98    -54    127    113    169 118.9  53.7  34232  290.81 0854.48
2009/04/23 14:33:54.0      34   -104    131    110    171 161.7  55.8  34242  290.96 0854.48
2009/04/23 14:33:54.1      18   -130    107    132    169 171.9  43.5  34220  290.58 0854.48
2009/04/23 14:33:54.2      -8   -138    100    139    171 183.6  39.3  34222  290.62 0854.48
2009/04/23 14:33:54.3     -46   -137     90    145    170 198.7  35.0  34208  290.38 0854.48
2009/04/23 14:33:54.4     -32   -107     22    112    115 196.9  11.1  34216  290.52 0854.48
2009/04/23 14:33:54.5     -68   -144    -32    160    164 205.3 -11.6  34212  290.45 0854.48
2009/04/23 14:33:54.6     -37    -78    -41     87     96 205.4 -31.6  34208  290.38 0854.48
2009/04/23 14:33:54.7     -42    -25     39     49     62 239.3  43.7  34214  290.50 0854.48
2009/04/23 14:33:54.8    -104    -50     28    116    120 244.2  13.7  34208  290.40 0854.48
2009/04/23 14:33:54.9    -128   -128     75    182    196 225.0  23.6  34208  290.38 0854.48
2009/04/23 14:33:55.0    -111   -174    104    207    231 212.6  28.5  34210  290.43 0854.48
2009/04/23 14:33:55.1    -124   -264     36    292    295 205.2   7.2  34218  290.56 0854.48
2009/04/23 14:33:55.2    -224    -73     54    236    243 251.8  12.9  34228  290.73 0854.48
2009/04/23 14:33:55.3    -194      8     -3    195    196 272.4  -1.1  34238  290.89 0854.48
2009/04/23 14:33:55.4    -111    -59     -8    126    127 242.0  -3.7  34248  291.08 0854.48
2009/04/23 14:33:55.5     -92    -52    -79    106    132 240.2 -45.1  34268  291.40 0854.48
2009/04/23 14:33:55.6    -140    -88   -189    166    251 237.6 -58.7  34256  291.20 0854.48
2009/04/23 14:33:55.7    -141   -160   -191    214    286 221.5 -50.6  34242  290.95 0854.48
2009/04/23 14:33:55.8    -106   -113   -168    156    229 223.2 -56.6  34240  290.94 0854.48
2009/04/23 14:33:55.9    -113   -117    -46    163    169 224.1 -20.4  34234  290.84 0854.48
2009/04/23 14:33:56.0     -94   -123      1    156    157 217.4   0.5  34234  290.84 0854.48
2009/04/23 14:33:56.1    -216   -196     35    292    295 227.8   6.9  34230  290.76 0854.48
2009/04/23 14:33:56.2    -300   -228    -91    377    388 232.8 -13.6  34218  290.54 0854.49
2009/04/23 14:33:56.3    -227   -330   -124    401    420 214.5 -17.3  34226  290.70 0854.49
2009/04/23 14:33:56.4    -119   -271    -29    297    299 203.7  -5.6  34228  290.71 0854.49
2009/04/23 14:33:56.5    -141   -229    -10    270    271 211.6  -2.2  34228  290.73 0854.49
2009/04/23 14:33:56.6    -104   -252     92    273    289 202.5  18.6  34228  290.73 0854.49
2009/04/23 14:33:56.7    -150   -255     57    297    303 210.5  11.0  34234  290.82 0854.49
2009/04/23 14:33:56.8    -148   -185     60    238    246 218.7  14.2  34240  290.92 0854.49
2009/04/23 14:33:56.9    -127   -232    -10    265    266 208.7  -2.2  34236  290.87 0854.49
2009/04/23 14:33:57.0    -167   -177    -48    244    249 223.4 -11.3  34228  290.73 0854.49
2009/04/23 14:33:57.1     -35    -60     37     70     79 210.7  30.3  34230  290.77 0854.49
2009/04/23 14:33:57.2     106   -122    116    162    199 139.0  39.3  34222  290.64 0854.49
2009/04/23 14:33:57.3     154   -242    226    287    365 147.5  42.3  34222  290.64 0854.49
2009/04/23 14:33:57.4     137   -453    155    474    499 163.1  18.2  34222  290.61 0854.49
2009/04/23 14:33:57.5     134   -653    136    667    682 168.3  11.6  34204  290.31 0854.49
2009/04/23 14:33:57.6     211   -611    215    647    682 160.9  18.4  34190  290.09 0854.49
2009/04/23 14:33:57.7     287   -581    183    649    675 153.7  15.8  34196  290.19 0854.49
2009/04/23 14:33:57.8     410   -407     36    578    580 134.8   3.6  34200  290.24 0854.49
2009/04/23 14:33:57.9     299   -522    122    602    615 150.2  11.5  34194  290.15 0854.49
2009/04/23 14:33:58.0     261   -409    132    486    504 147.4  15.2  34198  290.23 0854.49
2009/04/23 14:33:58.1     141   -523    153    542    564 164.9  15.8  34214  290.48 0854.49
2009/04/23 14:33:58.2      60   -523    151    527    549 173.4  16.0  34224  290.67 0854.51
2009/04/23 14:33:58.3     165   -544     59    569    573 163.1   6.0  34228  290.73 0854.51
2009/04/23 14:33:58.4      82   -499     10    506    507 170.6   1.2  34222  290.62 0854.51
2009/04/23 14:33:58.5      32   -489     71    491    497 176.2   8.2  34218  290.57 0854.51
2009/04/23 14:33:58.6     -66   -554    126    558    573 186.8  12.8  34224  290.67 0854.51
2009/04/23 14:33:58.7     -35   -642    126    644    657 183.2  11.1  34224  290.67 0854.51
2009/04/23 14:33:58.8     -49   -458    160    461    489 186.2  19.2  34230  290.76 0854.51
2009/04/23 14:33:58.9     -28   -424    135    425    447 183.8  17.7  34226  290.70 0854.51
2009/04/23 14:33:59.0     -50   -462    143    465    487 186.2  17.2  34228  290.71 0854.51
2009/04/23 14:33:59.1    -101   -458    165    470    499 192.5  19.4  34222  290.61 0854.51
2009/04/23 14:33:59.2      34   -348    184    350    395 174.3  30.1  34228  290.71 0854.51
2009/04/23 14:33:59.3     -48   -345    198    349    401 188.0  32.1  34228  290.74 0854.51
2009/04/23 14:33:59.4     130   -314    161    340    376 157.5  27.1  34220  290.60 0854.51
2009/04/23 14:33:59.5      87   -362    137    373    397 166.5  21.0  34228  290.74 0854.51
2009/04/23 14:33:59.6      80   -393     81    402    411 168.4  11.4  34226  290.70 0854.51
2009/04/23 14:33:59.7     230   -451     43    507    509 153.0   4.9  34214  290.49 0854.51
2009/04/23 14:33:59.8     312   -487    -63    579    583 147.3  -6.3  34228  290.71 0854.51
2009/04/23 14:33:59.9     347   -372   -125    509    525 137.0 -13.8  34228  290.74 0854.51
2009/04/23 14:34:00.0     241   -420   -166    485    513 150.1 -19.0  34230  290.76 0854.51
2009/04/23 14:34:00.1     178   -429   -139    465    486 157.4 -16.6  34230  290.76 0854.51
2009/04/23 14:34:00.2     232   -381   -139    447    468 148.6 -22.3  34226  290.68 0854.51
2009/04/23 14:34:00.3     224   -413   -124    470    486 151.5 -14.8  34202  290.29 0854.51
2009/04/23 14:34:00.4     211   -397    -56    450    454 152.0  -7.2  34190  290.07 0854.51
2009/04/23 14:34:00.5     189   -395    -24    438    439 154.4  -3.1  34210  290.43 0854.51
2009/04/23 14:34:00.6     132   -389     27    411    412 161.2   3.8  34214  290.50 0854.51
2009/04/23 14:34:00.7     174   -308    -32    355    357 150.5  -5.2  34218  290.55 0854.51
2009/04/23 14:34:00.8      87   -430     -3    439    440 168.6  -0.5  34234  290.84 0854.51
2009/04/23 14:34:00.9     210   -368    -33    424    426 150.2  -4.6  34216  290.53 0854.51
2009/04/23 14:34:01.0     177   -449    -64    483    488 158.4  -7.6  34218  290.54 0854.51
2009/04/23 14:34:01.1      66   -468   -143    473    494 171.9 -21.7  34218  290.54 0854.51
2009/04/23 14:34:01.2      75   -396   -136    404    427 169.2 -18.7  34210  290.41 0854.51
2009/04/23 14:34:01.3     137   -413   -117    436    452 161.6 -15.0  34208  290.38 0854.51
2009/04/23 14:34:01.4     184   -429   -137    467    487 156.8 -16.4  34206  290.34 0854.51
2009/04/23 14:34:01.5     205   -458   -134    502    520 155.9 -15.0  34202  290.30 0854.51
2009/04/23 14:34:01.6     129   -464   -105    482    494 164.4 -12.4  34202  290.30 0854.51
2009/04/23 14:34:01.7     200   -489   -114    529    542 157.7 -12.2  34206  290.35 0854.51
2009/04/23 14:34:01.8     180   -443   -131    479    496 157.9 -20.0  34212  290.44 0854.51
2009/04/23 14:34:01.9     138   -389   -145    414    439 160.4 -19.3  34206  290.36 0854.51
2009/04/23 14:34:02.0     110   -385    -69    401    408 164.0  -9.8  34202  290.28 0854.51
2009/04/23 14:34:02.1     157   -372    -44    404    407 157.1  -6.2  34202  290.29 0854.51
2009/04/23 14:34:02.2     116   -397    -97    414    426 163.6 -13.3  34194  290.14 0854.51
2009/04/23 14:34:02.3     168   -363   -102    401    414 155.2 -14.4  34182  289.94 0854.51
2009/04/23 14:34:02.4     171   -351    -96    391    403 154.0 -13.8  34184  289.99 0854.51
2009/04/23 14:34:02.6     165   -347   -124    385    405 154.5 -17.9  34180  289.91 0854.51
2009/04/23 14:34:02.6     181   -302    -97    353    367 149.0 -15.4  34184  289.98 0854.51
2009/04/23 14:34:02.7     214   -335    -41    398    401 147.4  -6.0  34182  289.93 0854.51
2009/04/23 14:34:02.8     210   -333    -78    394    402 147.7 -11.3  34184  289.98 0854.51
2009/04/23 14:34:02.9     190   -296    -69    352    359 147.3 -11.1  34188  290.06 0854.51
2009/04/23 14:34:03.0     237   -282     -7    369    370 140.0  -1.2  34186  290.01 0854.51
2009/04/23 14:34:03.1     167   -245     -6    297    298 145.7  -1.3  34186  290.00 0854.51
2009/04/23 14:34:03.3     163   -256     -6    304    305 147.4  -1.3  34188  290.03 0854.51
2009/04/23 14:34:03.3     199   -214     75    293    303 137.2  14.5  34186  290.00 0854.51
2009/04/23 14:34:03.4     174   -166     88    241    256 133.6  20.9  34186  290.00 0854.51
2009/04/23 14:34:03.5     171   -164     52    238    244 133.8  12.4  34190  290.07 0854.51
2009/04/23 14:34:03.6     140   -132     60    193    203 133.3  17.3  34180  289.91 0854.51
2009/04/23 14:34:03.8      82    -97     52    128    138 139.9  23.1  34178  289.87 0854.51
2009/04/23 14:34:03.8      45   -117     22    126    129 158.6  10.1  34182  289.94 0854.51
2009/04/23 14:34:04.0     -17   -116     36    118    124 188.5  17.3  34190  290.09 0854.51
2009/04/23 14:34:04.1      53   -102     52    116    127 152.4  25.7  34188  290.04 0854.51
2009/04/23 14:34:04.2      34   -249     89    252    267 172.2  20.0  34190  290.09 0854.51
2009/04/23 14:34:04.3      -5   -183    146    184    234 181.6  42.7  34194  290.14 0854.51
2009/04/23 14:34:04.4     123   -157    197    200    280 141.9  49.9  34200  290.24 0854.51
2009/04/23 14:34:04.5      33    -99    156    105    188 161.3  63.2  34204  290.33 0854.51
2009/04/23 14:34:04.6       6     23     90     24     93  15.1  84.9  34216  290.52 0854.51
2009/04/23 14:34:04.7     -32     21     83     39     91 304.2  73.1  34218  290.55 0854.51
2009/04/23 14:34:04.8      59    106    148    122    191  29.0  56.3  34214  290.48 0854.51
2009/04/23 14:34:04.9     -38     12    173     40    177 287.7  87.5  34234  290.82 0854.51
2009/04/23 14:34:05.0     -10      5    118     12    118 298.9  90.0  34230  290.75 0854.51
2009/04/23 14:34:05.1     -53    -28    139     61    151 242.0  74.9  34222  290.62 0854.51
2009/04/23 14:34:05.2    -161   -100    119    190    224 238.2  35.5  34214  290.48 0854.51
2009/04/23 14:34:05.3    -189     53     52    197    204 285.9  15.0  34228  290.72 0854.50
2009/04/23 14:34:05.4    -123     41    -47    130    138 288.4 -25.3  34230  290.77 0854.50
2009/04/23 14:34:05.5    -126     26   -104    129    165 281.9 -47.4  34220  290.58 0854.50
2009/04/23 14:34:05.6    -180     40    -69    185    197 282.8 -25.7  34228  290.72 0854.50
2009/04/23 14:34:05.7    -109     15   -162    111    196 278.0 -66.8  34222  290.64 0854.50
2009/04/23 14:34:05.8      -7     -6   -158     10    158 226.9 -90.0  34234  290.82 0854.50
2009/04/23 14:34:05.9    -141     61   -158    154    220 293.6 -55.1  34238  290.89 0854.50
2009/04/23 14:34:06.0    -141    104   -179    176    251 306.6 -54.6  34246  291.03 0854.50
2009/04/23 14:34:06.1      64    -46   -127     79    149 125.9 -69.1  34232  290.79 0854.50
2009/04/23 14:34:06.2     159     -7   -140    160    212  92.6 -50.2  34228  290.74 0854.50
2009/04/23 14:34:06.3     119    187   -150    222    267  32.5 -41.7  34238  290.88 0854.50
2009/04/23 14:34:06.4     212    135   -175    252    306  57.6 -42.4  34228  290.71 0854.50
2009/04/23 14:34:06.5     268     99   -140    286    318  69.6 -32.5  34214  290.48 0854.50
2009/04/23 14:34:06.6     262     13    -35    263    266  87.0  -7.7  34212  290.46 0854.50
2009/04/23 14:34:06.7     277    -33     54    279    285  96.8  11.1  34200  290.26 0854.50
2009/04/23 14:34:06.8     315    -23    -20    316    317  94.3  -3.8  34212  290.46 0854.50
2009/04/23 14:34:06.9     254     57   -154    261    303  77.2 -37.8  34232  290.78 0854.50
2009/04/23 14:34:07.0     166     66    -84    179    197  68.3 -31.4  34240  290.94 0854.50
2009/04/23 14:34:07.1     165     26    -86    168    188  81.0 -33.7  34228  290.74 0854.50
2009/04/23 14:34:07.2     160    -64    -51    173    181 112.0 -16.6  34214  290.50 0854.50
2009/04/23 14:34:07.3      55    -69     -9     89     90 141.7  -6.2  34218  290.57 0854.50
2009/04/23 14:34:07.4      94    -16     -6     96     97 100.1  -4.1  34218  290.55 0854.50
2009/04/23 14:34:07.5     140    -27      4    143    144 101.0   1.8  34230  290.75 0854.50
2009/04/23 14:34:07.6      -3     71    -10     72     73 357.3  -8.2  34230  290.77 0854.50
2009/04/23 14:34:07.7     -32     55    -31     64     71 329.3 -31.7  34234  290.84 0854.50
2009/04/23 14:34:07.8     -73     76     -1    106    107 316.3  -0.7  34228  290.74 0854.50
2009/04/23 14:34:07.9     -86    160    -52    182    189 331.7 -20.7  34222  290.64 0854.50
2009/04/23 14:34:08.0     -75    167    -72    184    197 335.9 -26.9  34228  290.74 0854.50
2009/04/23 14:34:08.1    -122    172    -34    212    215 324.6  -9.3  34232  290.79 0854.50
2009/04/23 14:34:08.2    -149    140    -69    205    217 313.3 -18.7  34234  290.84 0854.50
2009/04/23 14:34:08.3    -124     99   -121    159    199 308.6 -45.8  34242  290.96 0854.50
2009/04/23 14:34:08.4    -176    133    -86    221    237 307.1 -26.7  34240  290.92 0854.50
2009/04/23 14:34:08.5     -79    110    -66    136    151 324.0 -31.7  34240  290.94 0854.50
2009/04/23 14:34:08.6       2     93    -42     94    102   1.4 -30.1  34240  290.92 0854.50
2009/04/23 14:34:08.7      -4     63    -27     64     69 355.5 -27.5  34232  290.81 0854.50
2009/04/23 14:34:08.8       5     41    -37     42     55   8.0 -50.2  34236  290.86 0854.50
2009/04/23 14:34:08.9      41    -83    -50     93    105 153.3 -35.2  34234  290.84 0854.50
2009/04/23 14:34:09.0     133   -187    -22    230    232 144.6  -5.6  34228  290.72 0854.50
2009/04/23 14:34:09.1     211   -167     38    270    273 128.4   8.0  34214  290.49 0854.50
2009/04/23 14:34:09.2     228   -135    -19    265    266 120.7  -4.1  34228  290.73 0854.50
2009/04/23 14:34:09.3     182   -157    -68    241    251 130.7 -15.8  34226  290.68 0854.49
2009/04/23 14:34:09.4      48   -236    -83    242    257 168.4 -19.1  34226  290.68 0854.49
2009/04/23 14:34:09.5      27   -177   -122    180    217 171.1 -42.0  34226  290.70 0854.49
2009/04/23 14:34:09.6       6   -130   -140    131    191 177.3 -56.5  34234  290.84 0854.49
2009/04/23 14:34:09.7       8   -192   -148    193    243 177.5 -45.8  34234  290.82 0854.49
2009/04/23 14:34:09.8      56   -297    -94    303    318 169.3 -17.3  34222  290.61 0854.49
2009/04/23 14:34:09.9      94   -207    -92    228    245 155.5 -27.5  34216  290.53 0854.49
2009/04/23 14:34:10.0     110   -178    -19    210    211 148.4  -5.2  34218  290.57 0854.49
2009/04/23 14:34:10.1     159   -164    -28    229    231 135.9  -7.2  34218  290.57 0854.49
2009/04/23 14:34:10.2     139   -215    -14    257    258 147.0  -3.1  34218  290.56 0854.49
2009/04/23 14:34:10.3      85   -188      2    207    208 155.7   0.8  34218  290.57 0854.49
2009/04/23 14:34:10.4     101   -211     30    234    236 154.4   7.5  34224  290.65 0854.49
2009/04/23 14:34:10.5      77   -222    100    236    256 160.8  24.2  34226  290.68 0854.49
2009/04/23 14:34:10.6     148   -174     72    229    241 139.7  17.4  34228  290.71 0854.49
2009/04/23 14:34:10.7      46   -204     42    210    215 167.3  11.4  34228  290.72 0854.49
2009/04/23 14:34:10.8      -3   -194    100    195    219 181.1  29.3  34232  290.81 0854.49
2009/04/23 14:34:10.9     -57   -212    123    220    252 195.1  31.9  34232  290.78 0854.49
2009/04/23 14:34:11.0     -92   -208     79    228    242 203.8  19.2  34232  290.78 0854.49
2009/04/23 14:34:11.1    -101   -198    121    223    253 207.2  31.3  34238  290.90 0854.49
2009/04/23 14:34:11.2    -109   -203     56    231    238 208.3  13.7  34232  290.80 0854.49
2009/04/23 14:34:11.3    -163   -196     95    256    273 219.7  21.0  34222  290.63 0854.50
2009/04/23 14:34:11.4    -162   -292    116    334    354 209.0  19.2  34224  290.66 0854.50
2009/04/23 14:34:11.5    -181   -330     49    377    381 208.7   7.5  34226  290.69 0854.50
2009/04/23 14:34:11.6    -124   -506    -20    522    523 193.8  -2.2  34214  290.50 0854.50
2009/04/23 14:34:11.7    -106   -539      0    550    551 191.2   0.1  34212  290.46 0854.50
2009/04/23 14:34:11.8    -178   -556      2    584    585 197.8   0.2  34212  290.47 0854.50
2009/04/23 14:34:11.9    -145   -554     17    573    574 194.7   1.8  34218  290.54 0854.50
2009/04/23 14:34:12.0     -82   -473    121    481    496 189.9  14.2  34208  290.37 0854.50
2009/04/23 14:34:12.1      13   -440    167    441    471 178.2  21.8  34226  290.70 0854.50
2009/04/23 14:34:12.2      50   -528    103    531    541 174.6  11.0  34230  290.75 0854.50
2009/04/23 14:34:12.3     101   -387    171    401    435 165.3  24.6  34246  291.04 0854.50
2009/04/23 14:34:12.4     122   -474     27    490    491 165.5   3.2  34222  290.64 0854.50
2009/04/23 14:34:12.5      -8   -427      6    428    429 181.1   0.8  34214  290.50 0854.50
2009/04/23 14:34:12.6     -90   -380     32    391    393 193.4   4.7  34218  290.57 0854.50
2009/04/23 14:34:12.7    -128   -341     41    365    368 200.7   6.5  34220  290.60 0854.50
2009/04/23 14:34:12.8     -29   -386     64    388    394 184.4   9.4  34224  290.66 0854.50
2009/04/23 14:34:12.9    -173   -515    260    544    602 198.6  27.3  34238  290.88 0854.50
2009/04/23 14:34:13.0    -174   -506    198    536    571 199.0  21.3  34226  290.69 0854.50
2009/04/23 14:34:13.1     117   -363    265    382    464 162.1  38.0  34228  290.73 0854.50
2009/04/23 14:34:13.2      60   -397    225    402    460 171.4  31.5  34230  290.77 0854.50
2009/04/23 14:34:13.3    -223   -437    -43    491    494 207.1  -5.1  34226  290.69 0854.52
2009/04/23 14:34:13.4    -215   -464     67    512    517 204.9   7.5  34232  290.78 0854.52
2009/04/23 14:34:13.5    -206   -469      7    513    514 203.7   0.8  34242  290.95 0854.52
2009/04/23 14:34:13.6    -216   -438     68    489    494 206.3   8.0  34252  291.13 0854.52
2009/04/23 14:34:13.7    -187   -472    354    508    619 201.7  38.4  34232  290.80 0854.52
2009/04/23 14:34:13.8    -291   -351    298    457    545 219.6  36.2  34244  291.00 0854.52
2009/04/23 14:34:13.9    -182   -166    279    247    372 227.7  54.0  34224  290.66 0854.52
2009/04/23 14:34:14.0    -211   -106     26    237    239 243.4   6.5  34248  291.05 0854.52
2009/04/23 14:34:14.1    -198     27    139    200    243 277.9  38.0  34240  290.94 0854.52
2009/04/23 14:34:14.2    -246     68    -10    256    257 285.5  -2.2  34244  290.99 0854.52
2009/04/23 14:34:14.3    -303     13     45    304    308 272.6   8.5  34274  291.50 0854.52
2009/04/23 14:34:14.4    -340    134    -40    366    369 291.6  -6.3  34276  291.54 0854.52
2009/04/23 14:34:14.5    -413     69    -59    419    424 279.5  -8.1  34266  291.38 0854.52
2009/04/23 14:34:14.6    -320     74    -76    329    338 283.0 -13.2  34262  291.32 0854.52
2009/04/23 14:34:14.7    -230    151    -70    276    285 303.3 -14.3  34268  291.39 0854.52
2009/04/23 14:34:14.8    -159    114    -54    196    204 305.7 -15.5  34254  291.18 0854.52
2009/04/23 14:34:14.9    -165     19    -49    167    174 276.6 -21.5  34262  291.30 0854.52
2009/04/23 14:34:15.0     -93    138    -32    167    171 325.9 -11.1  34254  291.18 0854.52
2009/04/23 14:34:15.1     -17    223    -16    224    225 355.5  -4.1  34254  291.18 0854.52
2009/04/23 14:34:15.2    -355    224   -135    420    441 302.2 -22.9  34264  291.35 0854.52
2009/04/23 14:34:15.3    -399    112    -52    415    419 285.7  -7.2  34250  291.11 0854.52
2009/04/23 14:34:15.4    -450    -20    -61    451    456 267.4  -7.7  34240  290.92 0854.52
2009/04/23 14:34:15.5    -410     21   -144    411    436 273.0 -19.3  34262  291.31 0854.52
2009/04/23 14:34:15.6    -215    -58     76    223    236 254.9  18.9  34262  291.32 0854.52
2009/04/23 14:34:15.7    -208    -93     43    228    233 245.8  10.8  34264  291.35 0854.52
2009/04/23 14:34:15.8    -200   -135    147    242    283 235.9  34.2  34272  291.48 0854.52
2009/04/23 14:34:15.9     -33   -118    113    123    167 196.0  47.5  34268  291.42 0854.52
2009/04/23 14:34:16.0    -104   -175     38    204    208 210.7  10.6  34262  291.32 0854.52
2009/04/23 14:34:16.1     128    -30     88    132    158 103.3  37.0  34258  291.23 0854.52
2009/04/23 14:34:16.2     236    -94    156    255    298 111.7  34.4  34252  291.12 0854.52
2009/04/23 14:34:16.3     103   -132    234    168    288 142.2  60.6  34242  290.97 0854.52
2009/04/23 14:34:16.4      75    -94    240    121    268 141.3  71.7  34256  291.21 0854.52
2009/04/23 14:34:16.5     111   -163    222    198    297 145.7  53.7  34256  291.21 0854.52
2009/04/23 14:34:16.6     -63   -250    166    258    306 194.2  35.6  34250  291.10 0854.52
2009/04/23 14:34:16.7    -202   -100    -88    226    242 243.6 -26.7  34248  291.07 0854.52
2009/04/23 14:34:16.8     -38    -59   -182     71    195 212.6 -82.6  34258  291.23 0854.52
2009/04/23 14:34:16.9     -64   -139   -143    154    210 204.9 -52.3  34254  291.16 0854.52
2009/04/23 14:34:17.0    -210   -318    -85    382    392 213.5 -12.6  34238  290.91 0854.52
2009/04/23 14:34:17.1    -239   -284    -43    372    375 220.1  -6.7  34242  290.96 0854.52
2009/04/23 14:34:17.2    -232   -202    -21    308    309 228.9  -3.9  34246  291.02 0854.52
2009/04/23 14:34:17.3    -248   -183    -28    309    311 233.6  -5.2  34244  290.99 0854.48
2009/04/23 14:34:17.4    -301    -25    -38    303    306 265.2  -7.3  34244  291.00 0854.48
2009/04/23 14:34:17.5    -252   -177    -75    308    318 234.9 -13.8  34252  291.12 0854.48
2009/04/23 14:34:17.6    -276   -313   -135    418    440 221.5 -17.9  34224  290.67 0854.48
2009/04/23 14:34:17.7    -362   -283    -90    460    469 232.0 -11.1  34236  290.85 0854.48
2009/04/23 14:34:17.8    -379   -177   -145    419    444 244.9 -19.1  34252  291.14 0854.48
2009/04/23 14:34:17.9    -390   -134   -102    413    426 251.0 -13.9  34246  291.04 0854.48
2009/04/23 14:34:18.0    -343   -189    -70    392    399 241.2 -10.2  34258  291.22 0854.48
2009/04/23 14:34:18.1    -282   -223    -39    360    363 231.7  -6.2  34256  291.20 0854.48
2009/04/23 14:34:18.2    -335   -314    163    460    489 226.8  19.5  34258  291.25 0854.48
2009/04/23 14:34:18.3    -130   -322     60    348    354 202.1   9.9  34258  291.22 0854.48
2009/04/23 14:34:18.4    -109   -352     -8    369    370 197.3  -1.3  34244  291.00 0854.48
2009/04/23 14:34:18.5    -315   -227    -41    389    392 234.3  -6.1  34242  290.96 0854.48
2009/04/23 14:34:18.6    -132   -395     50    417    421 198.6   6.9  34238  290.89 0854.48
2009/04/23 14:34:18.7     -95   -431     13    442    443 192.5   1.7  34240  290.94 0854.48
2009/04/23 14:34:18.8     -23   -280    168    282    328 184.9  33.7  34236  290.85 0854.48
2009/04/23 14:34:18.9     -70   -144    177    161    239 205.9  53.2  34240  290.94 0854.48
2009/04/23 14:34:19.0       0   -104    210    105    234 179.5  71.7  34248  291.06 0854.48
2009/04/23 14:34:19.1    -197   -178    141    266    301 228.0  30.3  34242  290.97 0854.48
2009/04/23 14:34:19.2    -122   -222    212    254    330 208.9  44.2  34248  291.07 0854.48
2009/04/23 14:34:19.3     -76   -100     44    126    134 217.4  19.4  34244  291.01 0854.45
2009/04/23 14:34:19.4      44    -67    133     81    155 146.6  65.1  34268  291.40 0854.45
2009/04/23 14:34:19.5     -31    -32     63     45     77 224.2  60.6  34280  291.62 0854.45
2009/04/23 14:34:19.6      85      5     98     86    130  86.1  54.3  34260  291.28 0854.45
2009/04/23 14:34:19.7      68   -117     58    136    147 149.7  24.6  34250  291.09 0854.45
2009/04/23 14:34:19.8     -55   -151     22    161    163 200.1   8.0  34250  291.11 0854.45
2009/04/23 14:34:19.9    -164    -74     18    181    182 245.6   5.9  34248  291.06 0854.45
2009/04/23 14:34:20.0     -56   -193      7    202    203 196.3   2.1  34242  290.98 0854.45
2009/04/23 14:34:20.1      -4   -294     41    295    298 180.9   8.0  34234  290.82 0854.45
2009/04/23 14:34:20.2     143   -234     94    275    291 148.6  18.9  34236  290.87 0854.45
2009/04/23 14:34:20.3      72   -200    224    213    309 160.0  51.6  34264  291.33 0854.45
2009/04/23 14:34:20.4      51   -109    214    121    245 155.1  68.3  34272  291.49 0854.45
2009/04/23 14:34:20.5     -38    -24    147     46    154 237.6  81.8  34282  291.64 0854.45
2009/04/23 14:34:20.6     -15    -24    107     29    110 212.5  84.9  34270  291.43 0854.45
2009/04/23 14:34:20.7    -101     41    182    110    212 292.2  66.0  34280  291.62 0854.45
2009/04/23 14:34:20.8      16    -25    142     30    145 147.5  89.0  34286  291.71 0854.45
2009/04/23 14:34:20.9     -52   -101    154    114    191 207.2  60.0  34266  291.37 0854.45
2009/04/23 14:34:21.0     -66   -164    111    178    209 202.1  35.2  34242  290.96 0854.45
2009/04/23 14:34:21.1       3     28    -36     29     46   6.2 -61.9  34240  290.92 0854.45
2009/04/23 14:34:21.2      66     44     64     80    102  55.8  43.3  34254  291.18 0854.45
2009/04/23 14:34:21.3     -33     29     24     44     50 311.3  31.4  34256  291.21 0854.45
2009/04/23 14:34:21.4     -46     -4     30     47     55 264.8  35.5  34252  291.15 0854.45
2009/04/23 14:34:21.5       0     34     40     35     53 359.1  54.3  34270  291.45 0854.45
2009/04/23 14:34:21.6       1    -10     70     11     70 172.0  90.0  34284  291.69 0854.45
2009/04/23 14:34:21.7      32    -30     32     45     55 133.1  38.6  34274  291.52 0854.45
2009/04/23 14:34:21.8     137   -142     97    198    220 135.9  27.8  34240  290.92 0854.45
2009/04/23 14:34:21.9     -28   -264    141    266    301 186.3  30.3  34240  290.93 0854.45
2009/04/23 14:34:22.0    -127   -452    204    470    512 195.7  25.1  34228  290.73 0854.45
2009/04/23 14:34:22.1      14   -326    136    327    354 177.5  23.9  34238  290.88 0854.45
2009/04/23 14:34:22.2      42   -249    176    253    308 170.3  38.4  34244  290.99 0854.45
2009/04/23 14:34:22.3     -11   -306    203    307    368 182.2  36.6  34242  290.98 0854.45
2009/04/23 14:34:22.4      11   -372    186    373    416 178.3  28.4  34246  291.04 0854.45
2009/04/23 14:34:22.5      56   -370    116    375    393 171.3  17.3  34244  291.00 0854.45
2009/04/23 14:34:22.6    -108   -402     -8    417    418 195.1  -1.2  34248  291.07 0854.45
2009/04/23 14:34:22.7    -121   -350    110    371    387 199.2  16.5  34238  290.91 0854.45
2009/04/23 14:34:22.8    -114   -496    184    510    543 193.0  19.9  34236  290.86 0854.45
2009/04/23 14:34:22.9      37   -425    218    427    479 174.9  29.2  34236  290.85 0854.45
2009/04/23 14:34:23.0      29   -350    215    352    412 175.1  34.3  34240  290.94 0854.45
2009/04/23 14:34:23.1      10   -137    205    138    247 175.5  63.2  34246  291.03 0854.45
2009/04/23 14:34:23.2     -43    -73    182     86    201 210.7  73.1  34252  291.13 0854.45
2009/04/23 14:34:23.3    -247   -232    105    339    356 226.8  17.3  34252  291.15 0854.42
2009/04/23 14:34:23.4    -289   -149     34    326    328 242.7   6.1  34236  290.85 0854.42
2009/04/23 14:34:23.5    -151   -269     15    309    310 209.4   2.9  34236  290.85 0854.42
2009/04/23 14:34:23.6     -89   -295    245    309    394 196.9  42.6  34234  290.83 0854.42
2009/04/23 14:34:23.7    -123   -299     83    324    335 202.5  14.4  34240  290.94 0854.42
2009/04/23 14:34:23.8    -105   -220    170    244    297 205.6  38.5  34234  290.83 0854.42
2009/04/23 14:34:23.9    -336   -170     44    377    380 243.1   6.7  34232  290.79 0854.42
2009/04/23 14:34:24.0    -379      5    -97    380    393 270.8 -14.3  34218  290.55 0854.42
2009/04/23 14:34:24.1    -459     31    -97    461    472 273.9 -11.9  34222  290.61 0854.42
2009/04/23 14:34:24.2    -274     99    -23    292    293 290.0  -4.6  34216  290.51 0854.42
2009/04/23 14:34:24.3    -304    -92   -187    318    368 253.1 -37.8  34226  290.69 0854.43
2009/04/23 14:34:24.4    -536   -322   -213    626    662 239.0 -18.8  34194  290.16 0854.43
2009/04/23 14:34:24.5    -375   -405   -148    553    573 222.8 -15.0  34180  289.92 0854.43
2009/04/23 14:34:24.6    -491     76   -321    497    591 278.8 -40.3  34190  290.07 0854.43
2009/04/23 14:34:24.7    -509      0     24    510    511 270.0   2.8  34248  291.07 0854.43
2009/04/23 14:34:24.8    -457    -32    -17    459    460 266.0  -2.2  34228  290.73 0854.43
2009/04/23 14:34:24.9    -317     49     33    321    323 278.8   6.0  34232  290.78 0854.43
2009/04/23 14:34:25.0    -206     61    -61    215    224 286.6 -16.0  34214  290.50 0854.43
2009/04/23 14:34:25.1    -251    182    -77    311    321 306.0 -14.1  34224  290.65 0854.43
2009/04/23 14:34:25.2    -367     62   -244    373    445 279.6 -40.7  34200  290.24 0854.43
2009/04/23 14:34:25.3    -217    153    -81    266    278 305.3 -21.7  34226  290.68 0854.43
2009/04/23 14:34:25.4    -167    201    -10    262    263 320.4  -2.3  34230  290.75 0854.43
2009/04/23 14:34:25.5    -200    169    -34    263    266 310.2  -7.5  34222  290.61 0854.43
2009/04/23 14:34:25.6    -158     89    -13    182    183 299.5  -4.1  34220  290.60 0854.43
2009/04/23 14:34:25.7    -191     38    -15    195    196 281.5  -4.6  34216  290.53 0854.43
2009/04/23 14:34:25.8    -297    -31     42    299    303 263.9   8.0  34222  290.63 0854.43
2009/04/23 14:34:25.9    -520   -192   -220    555    597 249.7 -27.4  34216  290.51 0854.43
2009/04/23 14:34:26.0    -511     46   -190    514    547 275.2 -25.8  34224  290.65 0854.43
2009/04/23 14:34:26.1    -556     -7   -132    557    573 269.2 -13.4  34268  291.42 0854.43
2009/04/23 14:34:26.2    -415   -133   -149    436    460 252.2 -23.7  34272  291.48 0854.43
2009/04/23 14:34:26.3    -477    -86    -70    485    491 259.8  -8.2  34252  291.12 0854.44
2009/04/23 14:34:26.4    -600    -52   -129    603    617 265.0 -12.2  34216  290.51 0854.44
2009/04/23 14:34:26.5    -456    102    -63    468    473 282.6  -7.7  34218  290.56 0854.44
2009/04/23 14:34:26.6    -391   -112    -51    407    411 254.0  -7.2  34248  291.07 0854.44
2009/04/23 14:34:26.7    -335   -278   -150    436    462 230.3 -19.1  34242  290.95 0854.44
2009/04/23 14:34:26.8    -254   -307   -114    399    416 219.6 -16.0  34242  290.95 0854.44
2009/04/23 14:34:26.9    -105   -333    -76    350    359 197.5 -12.4  34238  290.88 0854.44
2009/04/23 14:34:27.0     110   -363    -48    380    384 163.1  -7.2  34222  290.64 0854.44
2009/04/23 14:34:27.1      95   -404    -66    416    422 166.7  -9.1  34212  290.46 0854.44
2009/04/23 14:34:27.2      62   -304     91    311    325 168.4  16.3  34210  290.42 0854.44
2009/04/23 14:34:27.3      84   -311    206    323    383 164.9  35.6  34226  290.69 0854.44
2009/04/23 14:34:27.4     118   -300    191    323    375 158.4  33.4  34226  290.69 0854.44
2009/04/23 14:34:27.5     112   -424    237    439    498 165.1  30.8  34226  290.68 0854.44
2009/04/23 14:34:27.6      37   -439    339    441    556 175.1  41.6  34226  290.70 0854.44
2009/04/23 14:34:27.7     -69   -349    193    356    404 191.3  30.8  34218  290.55 0854.44
2009/04/23 14:34:27.8     -39   -382    149    385    412 185.9  22.3  34224  290.65 0854.44
2009/04/23 14:34:27.9      83   -363    267    373    458 167.1  39.2  34234  290.82 0854.44
2009/04/23 14:34:28.0     168   -357    218    395    451 154.7  31.3  34210  290.43 0854.44
2009/04/23 14:34:28.1      68   -357    199    364    414 169.1  31.3  34202  290.27 0854.44
2009/04/23 14:34:28.2      28   -231    243    233    336 172.9  51.4  34212  290.44 0854.44
2009/04/23 14:34:28.3     115   -166    205    203    288 145.3  50.1  34224  290.66 0854.45
2009/04/23 14:34:28.4      51   -199    247    206    321 165.5  56.0  34222  290.63 0854.45
2009/04/23 14:34:28.5     -17   -377    206    378    430 182.7  31.0  34210  290.43 0854.45
2009/04/23 14:34:28.6     -90   -260    198    276    339 199.2  39.2  34208  290.37 0854.45
2009/04/23 14:34:28.7    -249   -278    240    374    444 221.8  35.6  34212  290.44 0854.45
2009/04/23 14:34:28.8    -236   -195    213    307    373 230.5  38.3  34214  290.49 0854.45
2009/04/23 14:34:28.9    -234   -159    136    283    313 235.8  27.4  34210  290.42 0854.45
2009/04/23 14:34:29.0    -176   -133     86    221    237 232.9  22.3  34208  290.40 0854.45
2009/04/23 14:34:29.1      -1     38     91     39     99 357.3  76.1  34232  290.81 0854.45
2009/04/23 14:34:29.2      38    112    149    119    190  18.7  56.9  34230  290.77 0854.45
2009/04/23 14:34:29.3     -31     93    155     99    183 341.3  64.6  34238  290.89 0854.45
2009/04/23 14:34:29.4     -13     47    168     49    175 344.0  83.1  34256  291.21 0854.45
2009/04/23 14:34:29.5     202     15    163    203    260  85.6  43.0  34216  290.51 0854.45
2009/04/23 14:34:29.6     189     58    203    198    283  72.9  50.4  34214  290.48 0854.45
2009/04/23 14:34:29.7      40    -33    172     53    179 129.5  82.3  34224  290.67 0854.45
2009/04/23 14:34:29.8     180    -60    200    190    275 108.6  51.6  34212  290.46 0854.45
2009/04/23 14:34:29.9      46   -180    188    186    264 165.5  50.1  34214  290.49 0854.45
2009/04/23 14:34:30.0      81   -239    202    253    323 161.1  42.7  34214  290.49 0854.45
2009/04/23 14:34:30.1      43   -175    220    181    284 166.2  56.4  34218  290.56 0854.45
2009/04/23 14:34:30.2     -41   -189    163    194    253 192.5  44.1  34222  290.61 0854.45
2009/04/23 14:34:30.3     -85   -230     82    246    260 200.3  18.5  34224  290.65 0854.44
2009/04/23 14:34:30.4     -43   -193     35    198    202 192.7  10.1  34222  290.64 0854.44
2009/04/23 14:34:30.6     -23   -104     92    107    141 192.9  45.4  34228  290.74 0854.44
2009/04/23 14:34:30.7     -51   -116     65    127    142 203.7  29.3  34228  290.72 0854.44
2009/04/23 14:34:30.8    -117   -166    125    204    239 215.2  34.4  34212  290.45 0854.44
2009/04/23 14:34:30.9    -256   -273    -76    375    383 223.1 -11.6  34178  289.89 0854.44
2009/04/23 14:34:31.0    -255   -413   -137    486    506 211.7 -15.8  34198  290.20 0854.44
2009/04/23 14:34:31.1    -190   -260   -154    323    357 216.1 -31.7  34212  290.45 0854.44
2009/04/23 14:34:31.2    -197   -234   -115    307    327 220.1 -25.9  34194  290.15 0854.44
2009/04/23 14:34:31.3    -192   -176    -97    261    278 227.6 -25.4  34204  290.32 0854.44
2009/04/23 14:34:31.4    -258   -193     40    323    326 233.1   7.1  34200  290.26 0854.44
2009/04/23 14:34:31.5    -216   -162     37    271    274 233.2   7.8  34200  290.24 0854.44
2009/04/23 14:34:31.6    -225   -107     45    250    255 244.5  10.3  34198  290.20 0854.44
2009/04/23 14:34:31.7    -122    -93    -79    154    173 232.7 -33.7  34192  290.13 0854.44
2009/04/23 14:34:31.8    -205    -28    -84    207    223 262.1 -27.4  34180  289.92 0854.44
2009/04/23 14:34:31.9    -239    -79   -129    252    283 251.6 -33.7  34194  290.14 0854.44
2009/04/23 14:34:32.0    -294    -99   -156    311    347 251.4 -32.9  34198  290.20 0854.44
2009/04/23 14:34:32.1    -315    -18   -159    316    353 266.7 -33.1  34194  290.16 0854.44
2009/04/23 14:34:32.2    -347      7   -150    348    378 271.3 -29.3  34192  290.13 0854.44
2009/04/23 14:34:32.3    -294    -12   -193    295    352 267.5 -40.8  34196  290.18 0854.44
2009/04/23 14:34:32.4    -267    -37   -263    270    376 262.1 -53.6  34190  290.08 0854.44
2009/04/23 14:34:32.5    -260    -30   -187    262    321 263.4 -43.4  34200  290.26 0854.44
2009/04/23 14:34:32.6     -60    -60    -74     85    112 225.1 -49.8  34198  290.21 0854.44
2009/04/23 14:34:32.7      96     96    -93    136    164  45.0 -42.0  34192  290.11 0854.44
2009/04/23 14:34:32.8      97    141    -56    172    180  34.5 -23.6  34190  290.09 0854.44
2009/04/23 14:34:32.9      99    128    -55    162    171  37.8 -23.3  34196  290.18 0854.44
2009/04/23 14:34:33.0      94    166    -17    191    192  29.6  -5.2  34188  290.04 0854.44
2009/04/23 14:34:33.1     -54    194     80    202    217 344.2  23.0  34192  290.11 0854.44
2009/04/23 14:34:33.2      69    206     85    218    233  18.5  22.3  34192  290.11 0854.44
2009/04/23 14:34:33.3      72    218     33    230    233  18.5   8.2  34194  290.14 0854.44
2009/04/23 14:34:33.4      53    161     55    170    179  18.5  18.1  34196  290.19 0854.44
2009/04/23 14:34:33.5     -24    100     42    103    111 346.2  23.1  34198  290.23 0854.44
2009/04/23 14:34:33.6      44     37     56     58     80  50.4  49.4  34204  290.33 0854.44
2009/04/23 14:34:33.7      14      2    104     15    105  78.5  90.0  34220  290.58 0854.44
2009/04/23 14:34:33.8     -31    -31     90     44    100 225.1  72.4  34236  290.86 0854.44
2009/04/23 14:34:33.9     -91    -75     86    119    146 230.5  39.5  34230  290.75 0854.44
2009/04/23 14:34:34.0     -82    -52      9     98     99 237.6   5.4  34230  290.77 0854.44
2009/04/23 14:34:34.1      56    -82     19    100    102 145.3  11.1  34226  290.70 0854.44
2009/04/23 14:34:34.2      78   -138    -43    159    165 150.4 -15.2  34222  290.62 0854.44
2009/04/23 14:34:34.3      92   -162    -10    187    188 150.4  -3.1  34206  290.36 0854.44
2009/04/23 14:34:34.4     114   -217    -35    246    249 152.4  -8.2  34186  290.02 0854.45
2009/04/23 14:34:34.5     135   -186     72    230    242 144.0  17.4  34200  290.24 0854.45
2009/04/23 14:34:34.6      92   -170     77    194    208 151.5  22.8  34188  290.04 0854.45
2009/04/23 14:34:34.7      54   -175     66    184    195 162.8  20.4  34192  290.11 0854.45
2009/04/23 14:34:34.8      65   -193     88    204    222 161.3  24.9  34188  290.06 0854.45
2009/04/23 14:34:34.9      62   -189     72    200    212 161.7  20.4  34178  289.89 0854.45
2009/04/23 14:34:35.0      16   -215    112    216    243 175.6  29.5  34192  290.10 0854.45
2009/04/23 14:34:35.1      -4   -173    176    174    247 181.4  50.1  34186  290.01 0854.45
2009/04/23 14:34:35.2     -30   -216    108    219    244 188.0  28.2  34178  289.88 0854.45
2009/04/23 14:34:35.3     -38   -222     -6    226    227 189.8  -1.6  34182  289.94 0854.45
2009/04/23 14:34:35.4     -57   -229      3    237    238 194.0   0.8  34188  290.05 0854.45
2009/04/23 14:34:35.5     -67   -272     14    281    282 193.8   2.9  34186  290.02 0854.45
2009/04/23 14:34:35.6     -66   -244     18    253    254 195.2   4.2  34194  290.14 0854.45
2009/04/23 14:34:35.7    -108   -218     38    244    248 206.3   9.0  34190  290.09 0854.45
2009/04/23 14:34:35.8    -165   -155    -12    227    228 226.8  -3.1  34204  290.31 0854.45
2009/04/23 14:34:35.9    -127   -202     -9    239    240 212.3  -2.2  34206  290.36 0854.45
2009/04/23 14:34:36.0     -91   -223    -31    242    244 202.3  -7.3  34224  290.65 0854.45
2009/04/23 14:34:36.1    -176   -212    111    276    297 219.6  23.0  34212  290.44 0854.45
2009/04/23 14:34:36.2    -200   -256    114    326    345 218.0  20.0  34212  290.45 0854.45
2009/04/23 14:34:36.3    -153   -185    157    241    287 219.6  36.0  34210  290.41 0854.45
2009/04/23 14:34:36.4    -192   -232    153    302    338 219.6  28.9  34212  290.46 0854.42
2009/04/23 14:34:36.5    -111   -252     97    276    293 203.8  19.4  34212  290.44 0854.42
2009/04/23 14:34:36.6     -51   -253     13    259    260 191.6   2.9  34212  290.46 0854.42
2009/04/23 14:34:36.7    -148   -267     54    306    311 209.0  10.1  34224  290.65 0854.42
2009/04/23 14:34:36.8    -100   -284     22    302    303 199.4   4.2  34216  290.51 0854.42
2009/04/23 14:34:36.9      -6   -340    -46    341    345 181.1  -7.7  34208  290.40 0854.42
2009/04/23 14:34:37.0     -77   -363      2    372    373 192.1   0.4  34208  290.40 0854.42
2009/04/23 14:34:37.1    -161   -327     -8    365    366 206.3  -1.3  34228  290.72 0854.42
2009/04/23 14:34:37.2    -116   -375    -84    393    403 197.2 -12.2  34228  290.72 0854.42
2009/04/23 14:34:37.3     -40   -432    -14    435    436 185.3  -1.9  34232  290.78 0854.42
2009/04/23 14:34:37.4      -8   -399     -9    400    401 181.2  -1.4  34224  290.66 0854.42
2009/04/23 14:34:37.5     -23   -312     12    313    314 184.4   2.3  34224  290.65 0854.42
2009/04/23 14:34:37.6     -45   -298     41    302    305 188.7   7.8  34232  290.78 0854.42
2009/04/23 14:34:37.7     -97   -324     16    339    340 196.7   2.8  34228  290.74 0854.42
2009/04/23 14:34:37.8    -180   -391     -5    431    432 204.8  -0.7  34210  290.43 0854.42
2009/04/23 14:34:37.9    -280   -497   -187    571    601 209.4 -18.2  34186  290.02 0854.42
2009/04/23 14:34:38.0    -167   -502   -137    530    548 198.5 -14.5  34186  290.02 0854.42
2009/04/23 14:34:38.1     -27   -554   -201    555    590 182.8 -25.3  34194  290.15 0854.42
2009/04/23 14:34:38.2       0   -477   -149    478    500 180.0 -22.3  34198  290.20 0854.42
2009/04/23 14:34:38.3     -16   -361   -165    362    397 182.6 -30.6  34194  290.16 0854.42
2009/04/23 14:34:38.4    -118   -354   -180    374    415 198.5 -31.8  34212  290.47 0854.41
2009/04/23 14:34:38.5    -150   -314   -113    349    367 205.6 -18.0  34202  290.27 0854.41
2009/04/23 14:34:38.6     -86   -220   -179    237    297 201.4 -45.1  34210  290.41 0854.41
2009/04/23 14:34:38.7     -15   -163   -152    164    223 185.3 -52.3  34220  290.60 0854.41
2009/04/23 14:34:38.8     -72   -348   -180    356    398 191.8 -33.3  34194  290.15 0854.41
2009/04/23 14:34:38.9    -297   -251   -251    390    463 229.8 -40.0  34190  290.07 0854.41
2009/04/23 14:34:39.0    -270   -117    101    295    312 246.5  18.9  34196  290.17 0854.41
2009/04/23 14:34:39.1    -126    -97    113    160    195 232.3  38.6  34200  290.25 0854.41
2009/04/23 14:34:39.2    -119    -24     21    122    124 258.5  10.1  34206  290.36 0854.41
2009/04/23 14:34:39.3     -86    -38    -68     95    116 246.0 -43.5  34208  290.40 0854.41
2009/04/23 14:34:39.4     -94   -188    -57    211    219 206.7 -15.2  34200  290.26 0854.41
2009/04/23 14:34:39.5     -42   -387      6    390    391 186.3   0.9  34198  290.23 0854.41
2009/04/23 14:34:39.6      66   -388    129    394    415 170.3  18.1  34198  290.22 0854.41
2009/04/23 14:34:39.7    -132   -317    -18    344    345 202.6  -3.1  34198  290.20 0854.41
2009/04/23 14:34:39.8    -335   -324    -85    467    475 226.0 -10.4  34192  290.10 0854.41
2009/04/23 14:34:39.9    -310   -328    -91    452    462 223.3 -11.5  34198  290.21 0854.41
2009/04/23 14:34:40.0    -214   -539     29    581    582 201.7   2.9  34204  290.31 0854.41
2009/04/23 14:34:40.1     -64   -485     56    490    494 187.6   6.6  34192  290.12 0854.41
2009/04/23 14:34:40.2     -17   -369    133    370    393 182.7  20.7  34192  290.11 0854.41
2009/04/23 14:34:40.3      66   -429    184    435    472 171.2  24.2  34188  290.05 0854.41
2009/04/23 14:34:40.4     115   -436    105    451    464 165.2  13.1  34188  290.04 0854.41
2009/04/23 14:34:40.5      25   -550    144    551    570 177.3  14.7  34186  290.01 0854.41
2009/04/23 14:34:40.6     126   -400    163    420    450 162.5  22.4  34186  290.02 0854.41
2009/04/23 14:34:40.7     247   -274     72    369    377 138.0  11.1  34172  289.77 0854.41
2009/04/23 14:34:40.8     165   -478    222    506    552 160.9  25.2  34180  289.92 0854.41
2009/04/23 14:34:40.9       7   -473    197    474    513 179.1  23.8  34188  290.05 0854.41
2009/04/23 14:34:41.0     141   -498    154    518    541 164.1  16.6  34182  289.96 0854.41
2009/04/23 14:34:41.1     120   -589    292    602    669 168.4  27.8  34174  289.82 0854.41
2009/04/23 14:34:41.2     157   -528    268    551    612 163.4  27.8  34184  289.97 0854.41
2009/04/23 14:34:41.3     117   -644    166    655    676 169.7  14.3  34192  290.10 0854.41
2009/04/23 14:34:41.4     117   -568     68    581    585 168.3   6.7  34192  290.10 0854.41
2009/04/23 14:34:41.5     156   -562     44    584    586 164.5   4.3  34196  290.19 0854.41
2009/04/23 14:34:41.6     170   -440    138    472    492 158.8  16.3  34182  289.96 0854.41
2009/04/23 14:34:41.7     219   -410     77    465    472 151.9   9.4  34202  290.29 0854.41
2009/04/23 14:34:41.8     119   -463    120    479    494 165.5  14.2  34196  290.18 0854.41
2009/04/23 14:34:41.9     168   -416    155    449    476 157.9  19.1  34196  290.18 0854.41
2009/04/23 14:34:42.0     183   -436     14    474    475 157.2   1.7  34202  290.30 0854.41
2009/04/23 14:34:42.1     148   -382     -9    410    411 158.7  -1.3  34212  290.46 0854.41
2009/04/23 14:34:42.2     247   -272     -5    368    369 137.8  -0.9  34210  290.42 0854.41
2009/04/23 14:34:42.3     189   -252     85    315    327 143.1  15.1  34210  290.41 0854.41
2009/04/23 14:34:42.4     154   -226     -7    274    275 145.7  -1.6  34208  290.37 0854.41
2009/04/23 14:34:42.5     130   -204    142    243    281 147.5  33.4  34210  290.42 0854.41
2009/04/23 14:34:42.6     238   -308    203    390    439 142.3  29.5  34218  290.56 0854.41
2009/04/23 14:34:42.7     198   -315    202    373    424 147.9  30.8  34180  289.90 0854.41
2009/04/23 14:34:42.8     147   -401    267    428    504 159.8  35.0  34186  290.00 0854.41
2009/04/23 14:34:42.9     103   -439    244    451    512 166.8  30.8  34192  290.10 0854.41
2009/04/23 14:34:43.0     -78   -454    196    461    500 189.8  24.5  34198  290.20 0854.41
2009/04/23 14:34:43.1    -132   -350    270    375    462 200.7  39.5  34198  290.22 0854.41
2009/04/23 14:34:43.2    -214   -286    173    358    397 216.8  27.8  34212  290.47 0854.41
2009/04/23 14:34:43.3    -407   -393    111    566    577 226.0  11.1  34216  290.51 0854.41
2009/04/23 14:34:43.4    -396   -342    189    524    558 229.2  19.9  34222  290.63 0854.41
2009/04/23 14:34:43.5    -367   -286    165    466    495 232.0  19.5  34214  290.49 0854.41
2009/04/23 14:34:43.6    -316   -315     -9    447    448 225.1  -1.2  34208  290.38 0854.41
2009/04/23 14:34:43.7    -206   -406    206    456    500 207.0  26.2  34216  290.51 0854.41
2009/04/23 14:34:43.8    -283   -436    217    520    563 213.0  24.1  34220  290.58 0854.41
2009/04/23 14:34:43.9    -188   -578    225    608    648 198.1  21.3  34196  290.18 0854.41
2009/04/23 14:34:44.0    -120   -498    171    513    542 193.6  18.5  34204  290.33 0854.41
2009/04/23 14:34:44.1    -165   -580    122    604    617 195.9  11.4  34208  290.37 0854.41
2009/04/23 14:34:44.2    -188   -707    -65    732    736 194.9  -5.1  34208  290.38 0854.41
2009/04/23 14:34:44.3    -206   -605     92    640    647 198.8   8.2  34198  290.23 0854.41
2009/04/23 14:34:44.4    -133   -515     73    532    537 194.5   7.9  34202  290.30 0854.42
2009/04/23 14:34:44.5      27   -610     63    611    615 177.4   6.0  34194  290.14 0854.42
2009/04/23 14:34:44.6     242   -531    103    584    594 155.5  10.0  34198  290.22 0854.42
2009/04/23 14:34:44.7     184   -409    137    449    470 155.8  17.0  34190  290.07 0854.42
2009/04/23 14:34:44.8      12   -696    247    697    739 179.0  20.2  34208  290.37 0854.42
2009/04/23 14:34:44.9     121   -674     99    685    693 169.8   8.2  34208  290.39 0854.42
2009/04/23 14:34:45.0      83   -661    131    667    680 172.8  11.1  34210  290.41 0854.42
2009/04/23 14:34:45.1      41   -642    228    644    683 176.3  20.3  34216  290.53 0854.42
2009/04/23 14:34:45.2     298   -497    217    580    619 149.0  21.5  34220  290.58 0854.42
2009/04/23 14:34:45.3     250   -543    216    598    637 155.3  19.9  34214  290.50 0854.42
2009/04/23 14:34:45.4     118   -551    197    564    598 167.9  19.3  34218  290.56 0854.42
2009/04/23 14:34:45.5      28   -465    132    466    485 176.5  15.8  34200  290.25 0854.42
2009/04/23 14:34:45.6       0   -503    272    504    572 180.1  30.8  34208  290.40 0854.42
2009/04/23 14:34:45.7     -61   -424    267    429    505 188.2  35.0  34204  290.32 0854.42
2009/04/23 14:34:45.8    -173   -367    206    406    455 205.3  29.2  34208  290.39 0854.42
2009/04/23 14:34:45.9    -227   -274    -50    357    361 219.6  -8.0  34208  290.37 0854.42
2009/04/23 14:34:46.0     -32   -190     -7    193    194 189.8  -2.1  34210  290.41 0854.42
2009/04/23 14:34:46.1     -24   -209    -63    211    221 186.7 -16.8  34214  290.48 0854.42
2009/04/23 14:34:46.2    -154   -494    -79    518    524 197.3  -8.7  34208  290.40 0854.42
2009/04/23 14:34:46.3    -330   -352    -58    483    487 223.2  -6.9  34206  290.35 0854.42
2009/04/23 14:34:46.4    -147   -428     -2    453    454 199.0  -0.3  34214  290.48 0854.43
2009/04/23 14:34:46.5     -67   -349    100    356    371 191.0  15.8  34212  290.47 0854.43
2009/04/23 14:34:46.6     -53   -227    152    234    279 193.3  36.3  34218  290.54 0854.43
2009/04/23 14:34:46.7      23    -65    181     70    194 160.0  78.2  34230  290.75 0854.43
2009/04/23 14:34:46.8      26     19    115     33    119  54.0  83.3  34250  291.09 0854.43
2009/04/23 14:34:46.9      14     18    120     24    122  37.8  89.0  34238  290.89 0854.43
2009/04/23 14:34:47.0     154    -96    131    182    224 122.0  39.5  34230  290.77 0854.43
2009/04/23 14:34:47.1     101   -340    196    355    405 163.3  31.4  34224  290.66 0854.43
2009/04/23 14:34:47.2     -67   -481    118    486    501 188.0  13.7  34218  290.57 0854.43
2009/04/23 14:34:47.3    -247   -448     54    512    515 208.9   6.1  34218  290.57 0854.43
2009/04/23 14:34:47.4    -245   -310     42    396    399 218.3   6.1  34216  290.52 0854.44
2009/04/23 14:34:47.5     -22   -356    306    357    470 183.6  45.0  34228  290.73 0854.44
2009/04/23 14:34:47.6      98   -379    291    392    488 165.5  40.2  34224  290.65 0854.44
2009/04/23 14:34:47.7      56   -437    362    441    570 172.6  43.7  34220  290.58 0854.44
2009/04/23 14:34:47.8       8   -529    319    530    618 179.1  33.8  34226  290.68 0854.44
2009/04/23 14:34:47.9      85   -602    206    609    644 171.9  18.7  34212  290.47 0854.44
2009/04/23 14:34:48.0     120   -636    317    648    721 169.3  28.0  34226  290.69 0854.44
2009/04/23 14:34:48.1     164   -490    212    518    559 161.4  23.6  34224  290.65 0854.44
2009/04/23 14:34:48.2     228   -318     58    392    397 144.3   8.5  34216  290.52 0854.44
2009/04/23 14:34:48.3     241   -241     14    341    342 135.0   2.4  34222  290.62 0854.44
2009/04/23 14:34:48.4     147   -153    -99    213    234 136.3 -31.0  34224  290.67 0854.44
2009/04/23 14:34:48.5     177   -121   -101    215    237 124.4 -31.5  34220  290.60 0854.44
2009/04/23 14:34:48.6     142    -99    -74    174    189 124.9 -29.0  34222  290.62 0854.44
2009/04/23 14:34:48.7     108   -246    -92    269    285 156.2 -18.9  34222  290.61 0854.44
2009/04/23 14:34:48.8     156   -344     25    378    379 155.6   3.8  34212  290.47 0854.44
2009/04/23 14:34:48.9      85   -380   -214    390    444 167.3 -35.7  34228  290.73 0854.44
2009/04/23 14:34:49.0    -199   -500    247    539    592 201.7  26.2  34232  290.78 0854.44
2009/04/23 14:34:49.1    -315   -432     27    536    537 216.1   2.9  34216  290.52 0854.44
2009/04/23 14:34:49.2     -94   -286    215    302    370 198.3  38.8  34232  290.79 0854.44
2009/04/23 14:34:49.3     -26   -177    106    179    208 188.5  33.5  34234  290.82 0854.44
2009/04/23 14:34:49.4     -27   -229     -2    231    232 186.9  -0.7  34236  290.87 0854.46
2009/04/23 14:34:49.5     -39   -191     81    196    212 191.6  23.6  34228  290.74 0854.46
2009/04/23 14:34:49.6     158   -393    -27    424    425 158.1  -3.7  34230  290.75 0854.46
2009/04/23 14:34:49.7     108   -580     51    590    593 169.4   5.0  34230  290.75 0854.46
2009/04/23 14:34:49.8     105   -613    -67    623    627 170.2  -6.2  34222  290.64 0854.46
2009/04/23 14:34:49.9     -44   -474   -167    477    505 185.4 -24.4  34222  290.64 0854.46
2009/04/23 14:34:50.0     -85   -388     78    398    406 192.4  11.1  34212  290.46 0854.46
2009/04/23 14:34:50.1      25   -517    179    518    549 177.2  19.1  34230  290.75 0854.46
2009/04/23 14:34:50.2      47   -390    105    393    407 173.1  15.0  34226  290.70 0854.46
2009/04/23 14:34:50.3     163   -463    186    491    525 160.6  21.6  34222  290.62 0854.46
2009/04/23 14:34:50.4     239   -431    100    493    503 151.0  11.5  34216  290.51 0854.46
2009/04/23 14:34:50.5     248   -491     28    551    552 153.2   3.0  34214  290.48 0854.46
2009/04/23 14:34:50.6     236   -457     89    515    523 152.7   9.9  34216  290.52 0854.46
2009/04/23 14:34:50.7     310   -463    120    558    571 146.2  12.2  34216  290.53 0854.46
2009/04/23 14:34:50.8     325   -409     93    523    532 141.5  10.1  34208  290.40 0854.46
2009/04/23 14:34:50.9     210   -411    186    462    498 152.9  23.1  34208  290.40 0854.46
2009/04/23 14:34:51.0     110   -345    241    363    435 162.3  36.7  34210  290.41 0854.46
2009/04/23 14:34:51.1      32   -368    271    370    458 174.9  39.7  34218  290.56 0854.46
2009/04/23 14:34:51.2       5   -168    265    169    314 178.2  64.6  34224  290.66 0854.46
2009/04/23 14:34:51.3      60   -215    211    224    307 164.4  48.0  34226  290.68 0854.46
2009/04/23 14:34:51.4      32    -77    192     84    209 157.3  74.9  34230  290.75 0854.47
2009/04/23 14:34:51.5     -18    -29    123     35    127 212.6  83.9  34232  290.81 0854.47
2009/04/23 14:34:51.6     -54   -226    303    233    382 193.6  58.5  34234  290.84 0854.47
2009/04/23 14:34:51.7     -98   -239    145    259    296 202.3  31.4  34224  290.65 0854.47
2009/04/23 14:34:51.8     -94   -403    259    414    488 193.2  35.0  34222  290.62 0854.47
2009/04/23 14:34:51.9    -179   -438    166    474    503 202.3  19.3  34222  290.62 0854.47
2009/04/23 14:34:52.0     -17   -393    145    394    419 182.5  21.0  34216  290.51 0854.47
2009/04/23 14:34:52.1    -111   -335    116    354    373 198.4  18.2  34222  290.62 0854.47
2009/04/23 14:34:52.2     -69   -279     40    288    291 194.0   8.0  34222  290.61 0854.47
2009/04/23 14:34:52.3     -58   -337    277    343    440 189.9  43.1  34226  290.68 0854.47
2009/04/23 14:34:52.4     -90   -344    333    356    487 194.8  47.9  34226  290.68 0854.47
2009/04/23 14:34:52.5     -17   -368     71    369    376 182.7  11.0  34218  290.57 0854.47
2009/04/23 14:34:52.6     -92   -310     60    324    330 196.6  10.6  34214  290.49 0854.47
2009/04/23 14:34:52.7    -236   -279    100    366    380 220.3  15.3  34218  290.55 0854.47
2009/04/23 14:34:52.8    -267   -205     56    337    342 232.5   9.4  34220  290.59 0854.47
2009/04/23 14:34:52.9    -314   -378    213    492    536 219.8  24.9  34262  291.31 0854.47
2009/04/23 14:34:53.0    -279   -526    213    596    634 208.0  19.7  34254  291.18 0854.47
2009/04/23 14:34:53.1    -225   -440    246    495    552 207.1  28.2  34272  291.48 0854.47
2009/04/23 14:34:53.2    -255   -486    161    549    573 207.7  16.4  34238  290.89 0854.47
2009/04/23 14:34:53.3    -177   -638    205    663    695 195.5  17.2  34240  290.92 0854.47
2009/04/23 14:34:53.4    -267   -562     39    623    625 205.4   3.6  34218  290.55 0854.46
2009/04/23 14:34:53.5    -359   -535     66    645    649 213.9   5.9  34214  290.48 0854.46
2009/04/23 14:34:53.6    -445   -550     -2    708    709 219.0  -0.2  34212  290.44 0854.46
2009/04/23 14:34:53.7    -287   -582   -128    650    663 206.3 -11.2  34226  290.70 0854.46
2009/04/23 14:34:53.8    -174   -284     -6    334    335 211.5  -1.1  34236  290.86 0854.46
2009/04/23 14:34:53.9    -420   -234     86    481    489 240.9  10.2  34278  291.59 0854.46
2009/04/23 14:34:54.0    -369   -175     59    409    414 244.6   8.3  34288  291.74 0854.46
2009/04/23 14:34:54.1    -367   -216    187    427    466 239.5  25.2  34272  291.46 0854.46
2009/04/23 14:34:54.2    -273   -467     11    542    543 210.3   1.2  34246  291.03 0854.46
2009/04/23 14:34:54.3    -308   -414      1    517    518 216.6   0.2  34234  290.83 0854.46
2009/04/23 14:34:54.4    -189   -451    211    490    533 202.7  24.8  34238  290.89 0854.46
2009/04/23 14:34:54.5    -100   -435    133    447    467 193.0  16.6  34224  290.65 0854.46
2009/04/23 14:34:54.6    -196   -421    177    465    497 204.9  22.0  34244  291.00 0854.46
2009/04/23 14:34:54.7    -111   -277    314    299    433 201.8  51.6  34240  290.94 0854.46
2009/04/23 14:34:54.8     -23   -253    198    255    322 185.3  41.9  34232  290.78 0854.46
2009/04/23 14:34:54.9      11   -296    260    297    394 177.8  45.8  34212  290.47 0854.46
2009/04/23 14:34:55.0     -27   -275    302    277    409 185.8  52.7  34210  290.43 0854.46
2009/04/23 14:34:55.1    -196   -308    241    366    438 212.5  36.5  34246  291.04 0854.46
2009/04/23 14:34:55.2    -172   -253    185    306    357 214.2  34.0  34268  291.39 0854.46
2009/04/23 14:34:55.3     -21   -273    188    274    332 184.5  37.8  34226  290.68 0854.46
2009/04/23 14:34:55.4       7   -451     25    452    453 179.0   3.2  34220  290.58 0854.46
2009/04/23 14:34:55.5     -59   -445    165    449    478 187.6  21.0  34208  290.37 0854.46
2009/04/23 14:34:55.6     -26   -433     85    434    443 183.5  11.1  34214  290.50 0854.46
2009/04/23 14:34:55.7      28   -378    -11    379    380 175.6  -1.7  34206  290.35 0854.46
2009/04/23 14:34:55.8      56   -442    125    446    464 172.7  15.7  34222  290.63 0854.46
2009/04/23 14:34:55.9     136   -285    232    316    392 154.5  40.0  34222  290.64 0854.46
2009/04/23 14:34:56.0     197   -330    158    385    416 149.2  23.5  34222  290.61 0854.46
2009/04/23 14:34:56.1     196   -155    202    251    322 128.4  43.0  34236  290.87 0854.46
2009/04/23 14:34:56.2      62    -75    186     98    210 140.4  70.4  34276  291.54 0854.46
2009/04/23 14:34:56.3       0   -231    151    232    276 180.0  36.3  34226  290.68 0854.46
2009/04/23 14:34:56.4      -4   -306    147    307    340 180.9  27.3  34218  290.54 0854.46
2009/04/23 14:34:56.5      60   -299     84    306    318 168.5  15.4  34220  290.58 0854.46
2009/04/23 14:34:56.6      33   -263    201    266    333 172.8  40.9  34228  290.73 0854.46
2009/04/23 14:34:56.7      31   -408    122    410    428 175.6  16.6  34224  290.67 0854.46
2009/04/23 14:34:56.8       0   -408     64    409    415 180.0   9.0  34224  290.67 0854.46
2009/04/23 14:34:56.9      18   -382     76    383    391 177.2  11.3  34228  290.71 0854.46
2009/04/23 14:34:57.0      31   -341     47    343    347 174.7   7.8  34228  290.71 0854.46
2009/04/23 14:34:57.1      66   -369    135    375    399 169.8  19.9  34224  290.66 0854.46
2009/04/23 14:34:57.2      13   -225     53    226    233 176.6  13.2  34226  290.70 0854.46
2009/04/23 14:34:57.3      67   -163    115    177    211 157.5  35.7  34228  290.74 0854.46
2009/04/23 14:34:57.4      85   -212    174    229    287 158.2  41.2  34222  290.61 0854.44
2009/04/23 14:34:57.5      10   -183     95    184    207 176.6  29.3  34218  290.55 0854.44
2009/04/23 14:34:57.6      -6    -72    173     73    187 185.3  76.1  34230  290.75 0854.44
2009/04/23 14:34:57.7      85   -241    212    256    332 160.6  43.8  34226  290.68 0854.44
2009/04/23 14:34:57.8     164   -362    286    398    490 155.6  39.3  34224  290.67 0854.44
2009/04/23 14:34:57.9      96   -290    252    306    396 161.5  43.7  34242  290.96 0854.44
2009/04/23 14:34:58.0     164   -342    264    380    462 154.4  38.3  34230  290.75 0854.44
2009/04/23 14:34:58.1      94   -342    280    355    452 164.6  42.2  34228  290.72 0854.44
2009/04/23 14:34:58.2      39   -365    264    368    452 173.8  39.3  34216  290.53 0854.44
2009/04/23 14:34:58.3     -39   -438    277    440    519 185.2  35.3  34218  290.56 0854.44
2009/04/23 14:34:58.5     -93   -398    245    409    476 193.3  33.8  34216  290.51 0854.44
2009/04/23 14:34:58.6    -111   -426    224    441    494 194.6  29.1  34222  290.62 0854.44
2009/04/23 14:34:58.7    -124   -371    171    392    427 198.5  25.1  34222  290.61 0854.44
2009/04/23 14:34:58.8    -222   -416    200    472    512 208.1  24.5  34222  290.62 0854.44
2009/04/23 14:34:58.9     -79   -390    219    399    455 191.6  31.3  34222  290.63 0854.44
2009/04/23 14:34:59.0     148   -422    156    448    475 160.6  19.2  34226  290.69 0854.44
2009/04/23 14:34:59.1     166   -273    308    320    444 148.6  49.0  34234  290.84 0854.44
2009/04/23 14:34:59.2     181   -187    259    261    367 135.9  50.0  34234  290.83 0854.44
2009/04/23 14:34:59.3      94    -87    297    129    323 132.7  75.0  34236  290.87 0854.44
2009/04/23 14:34:59.4      21   -221    226    223    317 174.4  50.4  34216  290.53 0854.44
2009/04/23 14:34:59.5     -46   -148    177    156    235 197.4  54.2  34224  290.67 0854.42
2009/04/23 14:34:59.6       8     25     92     27     95  18.7  83.3  34240  290.92 0854.42
2009/04/23 14:34:59.7       1   -137    136    138    193 179.5  50.2  34242  290.98 0854.42
2009/04/23 14:34:59.8     -49   -149     93    157    182 198.3  33.7  34244  290.99 0854.42
2009/04/23 14:34:59.9     -52   -189    -17    197    198 195.6  -5.2  34236  290.86 0854.42
2009/04/23 14:35:00.0      66    -54    -37     86     93 129.5 -29.0  34234  290.82 0854.42
2009/04/23 14:35:00.1     214    -44     16    219    220 101.7   4.2  34246  291.04 0854.42
2009/04/23 14:35:00.2     276    -21    -40    277    280  94.4  -8.2  34240  290.92 0854.42
2009/04/23 14:35:00.3     239      3    -28    240    242  89.1  -6.7  34232  290.78 0854.42
2009/04/23 14:35:00.4     182     43    104    188    214  76.5  31.4  34228  290.72 0854.42
2009/04/23 14:35:00.5     118     97    -13    153    154  50.5  -5.1  34238  290.91 0854.42
2009/04/23 14:35:00.6      71    -33     27     79     84 115.2  19.4  34232  290.79 0854.42
2009/04/23 14:35:00.7     106    -26    -12    110    111 104.2  -6.7  34224  290.67 0854.42
2009/04/23 14:35:00.8      71    -33     20     79     82 115.2  14.3  34230  290.75 0854.42
2009/04/23 14:35:00.9      47    -14     71     50     86 106.8  61.5  34232  290.81 0854.42
2009/04/23 14:35:01.0     -53    -92     96    107    143 209.9  46.9  34224  290.67 0854.42
2009/04/23 14:35:01.1     -47    -77     65     91    111 211.6  39.5  34220  290.60 0854.42
2009/04/23 14:35:01.2    -117    -83      2    144    145 234.5   0.8  34220  290.58 0854.42
2009/04/23 14:35:01.3    -139   -173    -36    223    227 218.7  -9.3  34216  290.52 0854.42
2009/04/23 14:35:01.4    -219   -156     69    269    278 234.5  14.5  34216  290.53 0854.42
2009/04/23 14:35:01.5    -179    -56    -52    188    195 252.5 -20.2  34216  290.53 0854.42
2009/04/23 14:35:01.6    -113     22   -107    116    157 281.0 -52.1  34218  290.57 0854.42
2009/04/23 14:35:01.7     -50     25    -85     57    102 297.1 -67.6  34224  290.67 0854.42
2009/04/23 14:35:01.8      -8     13    -15     16     21 327.5 -54.4  34232  290.79 0854.42
2009/04/23 14:35:01.9     -53     45     26     70     74 310.4  20.0  34224  290.67 0854.42
2009/04/23 14:35:02.0     -37     11     37     39     53 286.8  50.0  34218  290.57 0854.42
2009/04/23 14:35:02.1      -4    -51     35     52     62 184.5  37.6  34218  290.57 0854.42
2009/04/23 14:35:02.2      55    -64    209     85    225 139.0  77.0  34224  290.67 0854.42
2009/04/23 14:35:02.3     -59   -344    304    350    463 189.8  45.5  34222  290.61 0854.42
2009/04/23 14:35:02.4     -73   -310    286    319    428 193.3  46.5  34224  290.67 0854.42
2009/04/23 14:35:02.5       1   -309    192    310    364 179.8  34.9  34218  290.54 0854.42
2009/04/23 14:35:02.6      20   -192     79    194    209 173.8  23.1  34222  290.62 0854.42
2009/04/23 14:35:02.7      44   -128    126    136    185 160.8  47.9  34222  290.62 0854.42
2009/04/23 14:35:02.8      44    -36    118     58    131 129.5  72.4  34248  291.08 0854.42
2009/04/23 14:35:02.9     144    -79    130    165    210 118.8  42.2  34246  291.03 0854.42
2009/04/23 14:35:03.0     129    -32     60    134    146 104.2  26.2  34240  290.94 0854.42
2009/04/23 14:35:03.1     152     69     90    167    189  65.6  30.8  34240  290.92 0854.42
2009/04/23 14:35:03.2     157     65    127    171    213  67.4  40.1  34238  290.89 0854.42
2009/04/23 14:35:03.3     171     23    100    173    199  82.1  32.7  34226  290.69 0854.42
2009/04/23 14:35:03.4     106    -23    151    109    186 102.4  60.5  34234  290.84 0854.42
2009/04/23 14:35:03.5      85    -48    121     98    155 119.8  56.4  34240  290.92 0854.44
2009/04/23 14:35:03.6      -1    -12     73     13     74 184.5  90.0  34242  290.96 0854.44
2009/04/23 14:35:03.7       5    -10     67     12     68 154.6  90.0  34252  291.13 0854.44
2009/04/23 14:35:03.8      48    -48    110     69    129 134.9  64.7  34252  291.15 0854.44
2009/04/23 14:35:03.9      32     -9     90     34     96 106.8  79.2  34252  291.15 0854.44
2009/04/23 14:35:04.0      14   -104     93    106    141 172.0  45.8  34238  290.91 0854.44
2009/04/23 14:35:04.1      12   -171     97    172    197 175.8  31.9  34224  290.65 0854.44
2009/04/23 14:35:04.2      64   -236     70    245    255 164.8  16.0  34222  290.61 0854.44
2009/04/23 14:35:04.3      41   -207     66    212    223 168.7  17.4  34224  290.65 0854.44
2009/04/23 14:35:04.4     145   -119     89    188    208 129.5  27.1  34226  290.69 0854.44
2009/04/23 14:35:04.5     229   -122     82    260    273 118.0  17.7  34222  290.63 0854.44
2009/04/23 14:35:04.6     143   -170     37    223    227 139.9   9.5  34216  290.53 0854.44
2009/04/23 14:35:04.7     174   -157    163    235    285 132.0  38.0  34212  290.46 0854.44
2009/04/23 14:35:04.8     214    -76     89    228    244 109.5  22.1  34214  290.48 0854.44
2009/04/23 14:35:04.9     179    -40    115    184    216 102.6  35.2  34214  290.50 0854.44
2009/04/23 14:35:05.0      53   -171    145    180    231 162.8  43.5  34208  290.38 0854.44
2009/04/23 14:35:05.1     -29   -216    216    218    306 187.8  50.0  34202  290.29 0854.44
2009/04/23 14:35:05.2     -27   -227    239    229    331 186.9  51.4  34218  290.56 0854.44
2009/04/23 14:35:05.3     -36   -190    180    194    264 190.9  47.9  34226  290.68 0854.44
2009/04/23 14:35:05.4    -138   -258    230    293    372 208.1  42.1  34216  290.52 0854.44
2009/04/23 14:35:05.5    -165   -259    -33    308    310 212.6  -6.2  34210  290.41 0854.43
2009/04/23 14:35:05.6     -62   -180    184    191    265 199.2  49.0  34212  290.44 0854.43
2009/04/23 14:35:05.7    -116   -228    132    256    288 207.0  29.3  34222  290.63 0854.43
2009/04/23 14:35:05.8     -82   -217    250    233    341 200.7  52.2  34218  290.56 0854.43
2009/04/23 14:35:05.9    -148   -291    216    327    391 207.0  36.5  34222  290.62 0854.43
2009/04/23 14:35:06.0    -112   -238    159    264    308 205.3  34.0  34230  290.76 0854.43
2009/04/23 14:35:06.1      15     23     98     28    101  32.5  83.9  34240  290.92 0854.43
2009/04/23 14:35:06.2       1     70     69     71     99   0.9  49.4  34234  290.82 0854.43
2009/04/23 14:35:06.3     -26    -52    124     59    137 207.2  72.9  34258  291.25 0854.43
2009/04/23 14:35:06.4    -107   -121     82    162    181 221.4  28.7  34244  291.01 0854.43
2009/04/23 14:35:06.5    -118   -239     13    267    268 206.3   2.8  34226  290.68 0854.43
2009/04/23 14:35:06.6    -134   -173     19    220    221 217.8   5.2  34226  290.69 0854.43
2009/04/23 14:35:06.7     -67   -113    -69    132    148 210.8 -33.7  34222  290.64 0854.43
2009/04/23 14:35:06.8     -63    -62      4     89     90 225.1   2.9  34230  290.77 0854.43
2009/04/23 14:35:06.9    -116     17    -25    118    121 278.4 -12.4  34244  290.99 0854.43
2009/04/23 14:35:07.0    -156     34     55    160    170 282.4  19.2  34252  291.13 0854.43
2009/04/23 14:35:07.1     -84     49    100     98    140 300.2  50.1  34260  291.26 0854.43
2009/04/23 14:35:07.2     161     70     98    176    201  66.3  31.4  34250  291.09 0854.43
2009/04/23 14:35:07.3     163     19    154    165    225  83.2  47.9  34224  290.67 0854.43
2009/04/23 14:35:07.4     147     95    178    176    250  57.1  50.1  34246  291.04 0854.43
2009/04/23 14:35:07.5      58    182     47    192    198  17.8  13.9  34244  290.99 0854.40
2009/04/23 14:35:07.6     -52    182     93    190    211 344.0  27.8  34248  291.08 0854.40
2009/04/23 14:35:07.7      -8    115    140    116    181 355.6  56.3  34252  291.13 0854.40
2009/04/23 14:35:07.8     -30    155    131    159    206 348.9  43.7  34242  290.96 0854.40
2009/04/23 14:35:07.9    -110    164     89    198    217 326.2  25.7  34242  290.96 0854.40
2009/04/23 14:35:08.0    -135    124     63    184    195 312.4  18.9  34250  291.11 0854.40
2009/04/23 14:35:08.1    -100    100     52    142    151 314.9  21.0  34250  291.11 0854.40
2009/04/23 14:35:08.2    -115    122     59    168    179 316.6  19.6  34262  291.30 0854.40
2009/04/23 14:35:08.3     -91    104    -17    139    141 319.0  -7.2  34278  291.59 0854.40
2009/04/23 14:35:08.4    -106    150    -63    184    195 324.6 -19.1  34302  292.00 0854.40
2009/04/23 14:35:08.5    -206    122    -19    240    241 300.6  -4.6  34318  292.26 0854.40
2009/04/23 14:35:08.6    -199    118    -60    232    240 300.7 -14.5  34312  292.14 0854.40
2009/04/23 14:35:08.7    -163    123    -70    205    216 307.1 -23.6  34308  292.10 0854.40
2009/04/23 14:35:08.8     -85    110    -65    140    154 322.2 -31.5  34308  292.10 0854.40
2009/04/23 14:35:08.9     -61     75    -27     98    102 320.8 -15.5  34304  292.01 0854.40
2009/04/23 14:35:09.0     -41     87     84     97    128 334.7  45.8  34282  291.64 0854.40
2009/04/23 14:35:09.1     -69    109    111    130    170 327.5  44.8  34294  291.84 0854.40
2009/04/23 14:35:09.2     -94    134     66    164    176 324.8  23.1  34298  291.93 0854.40
2009/04/23 14:35:09.3     -70    120     53    139    148 329.7  22.0  34300  291.95 0854.40
2009/04/23 14:35:09.4     -49    101     37    113    120 334.1  18.4  34298  291.93 0854.40
2009/04/23 14:35:09.5     -28    121     43    125    133 346.6  18.9  34302  291.98 0854.36
2009/04/23 14:35:09.6     -53     99     22    113    116 331.5  11.0  34312  292.15 0854.36
2009/04/23 14:35:09.7     -10     50      0     52     53 348.4  -0.3  34320  292.30 0854.36
2009/04/23 14:35:09.8      30     15    -29     34     44  62.9 -50.2  34320  292.30 0854.36
2009/04/23 14:35:09.9     139     38    -18    145    147  74.5  -7.3  34326  292.40 0854.36
2009/04/23 14:35:10.0     219     12     64    220    230  86.7  16.4  34384  293.38 0854.36
2009/04/23 14:35:10.1     173   -112    -23    207    209 122.9  -6.5  34376  293.24 0854.36
2009/04/23 14:35:10.2      51      7     64     52     82  81.2  56.4  34368  293.12 0854.36
2009/04/23 14:35:10.3     -51     36     87     63    107 305.9  60.5  34372  293.19 0854.36
2009/04/23 14:35:10.4    -132    119    103    178    205 312.0  32.9  34366  293.07 0854.36
2009/04/23 14:35:10.5     -77    113     88    137    162 325.8  35.6  34324  292.35 0854.35
2009/04/23 14:35:10.6      89    154     34    179    183  30.1  10.8  34304  292.03 0854.35
2009/04/23 14:35:10.7      59    125     63    139    152  25.3  26.2  34304  292.01 0854.35
2009/04/23 14:35:10.8     121     57     73    134    152  64.6  31.3  34316  292.22 0854.35
2009/04/23 14:35:10.9     235     38    139    239    276  80.8  32.9  34328  292.41 0854.35
2009/04/23 14:35:11.0     276     83    118    289    312  73.2  23.4  34322  292.33 0854.35
2009/04/23 14:35:11.1     348    109    133    365    388  72.5  20.9  34312  292.15 0854.35
2009/04/23 14:35:11.2     325    165     44    365    368  63.0   6.9  34308  292.07 0854.35
2009/04/23 14:35:11.3     266    165     29    314    316  58.2   5.3  34324  292.35 0854.35
2009/04/23 14:35:11.4     281    174     16    331    332  58.2   2.9  34338  292.61 0854.35
2009/04/23 14:35:11.5     264    140     22    300    301  62.0   4.2  34346  292.74 0854.35
2009/04/23 14:35:11.6     449    129    100    468    479  74.0  12.1  34346  292.72 0854.35
2009/04/23 14:35:11.7     312    168    134    355    379  61.6  21.6  34348  292.77 0854.35
2009/04/23 14:35:11.8     258    250    148    360    389  45.9  23.6  34334  292.54 0854.35
2009/04/23 14:35:11.9     261     97     57    279    285  69.6  11.6  34358  292.94 0854.35
2009/04/23 14:35:12.0     127    101     33    163    167  51.6  11.6  34342  292.68 0854.35
2009/04/23 14:35:12.1     117     74    -13    139    140  57.6  -5.6  34324  292.35 0854.35
2009/04/23 14:35:12.2     -15      7    -59     17     61 295.3 -88.3  34324  292.35 0854.35
2009/04/23 14:35:12.3    -130   -190   -105    231    253 214.3 -30.6  34288  291.73 0854.35
2009/04/23 14:35:12.4    -292   -135   -169    322    363 245.2 -34.2  34202  290.30 0854.35
2009/04/23 14:35:12.5    -423    166   -139    455    475 291.4 -22.1  34232  290.78 0854.34
2009/04/23 14:35:12.6    -470    -68    -87    476    484 261.7 -10.4  34172  289.78 0854.34
2009/04/23 14:35:12.7    -630    -15   -224    631    669 268.6 -24.7  34156  289.51 0854.34
2009/04/23 14:35:12.8    -644     14   -366    645    741 271.3 -36.5  34174  289.81 0854.34
2009/04/23 14:35:12.9    -266    -28   -124    268    295 263.9 -31.0  34224  290.66 0854.34
2009/04/23 14:35:13.0    -120    -87    100    149    179 234.1  37.0  34226  290.69 0854.34
2009/04/23 14:35:13.1    -233    -60     20    241    242 255.4   4.9  34206  290.34 0854.34
2009/04/23 14:35:13.2    -311     82    -34    322    324 284.9  -6.1  34220  290.58 0854.34
2009/04/23 14:35:13.3    -396      8   -123    397    416 271.2 -17.3  34200  290.24 0854.34
2009/04/23 14:35:13.4    -540    -40   -118    542    555 265.7 -12.4  34178  289.89 0854.34
2009/04/23 14:35:13.5    -693   -178   -263    716    762 255.6 -25.4  34166  289.68 0854.34
2009/04/23 14:35:13.6    -503    -17   -120    504    519 268.0 -13.4  34246  291.03 0854.34
2009/04/23 14:35:13.7    -611     57     22    614    615 275.4   2.1  34260  291.27 0854.34
2009/04/23 14:35:13.8    -506    -38    -33    508    510 265.6  -3.7  34280  291.61 0854.34
2009/04/23 14:35:13.9    -646   -207   -224    679    716 252.2 -18.3  34154  289.47 0854.34
2009/04/23 14:35:14.0    -608    -79    -98    614    622 262.5  -9.1  34240  290.93 0854.34
2009/04/23 14:35:14.1    -626   -210   -209    661    694 251.4 -17.6  34176  289.85 0854.34
2009/04/23 14:35:14.2    -655   -263   -218    707    739 248.1 -22.1  34176  289.83 0854.34
2009/04/23 14:35:14.3    -612   -272   -221    670    705 246.0 -23.3  34174  289.82 0854.34
2009/04/23 14:35:14.4    -630   -193   -284    660    718 252.9 -29.2  34192  290.11 0854.34
2009/04/23 14:35:14.5    -891   -247   -386    925   1002 254.5 -28.5  34190  290.09 0854.33
2009/04/23 14:35:14.6    -764   -192   -235    788    822 255.9 -21.4  34180  289.91 0854.33
2009/04/23 14:35:14.7    -879   -214   -282    905    947 256.3 -22.3  34174  289.81 0854.33
2009/04/23 14:35:14.8    -787    -46   -234    789    824 266.6 -16.5  34178  289.86 0854.33
2009/04/23 14:35:14.9    -680    -13   -241    681    722 268.9 -24.7  34186  290.00 0854.33
2009/04/23 14:35:15.0    -531    -55   -153    534    555 264.0 -20.8  34196  290.19 0854.33
2009/04/23 14:35:15.1    -744    -22   -219    745    776 268.3 -21.2  34196  290.18 0854.33
2009/04/23 14:35:15.2    -706    -18   -364    707    795 268.5 -33.8  34184  289.99 0854.33
2009/04/23 14:35:15.3    -567   -109   -164    578    600 259.1 -20.7  34250  291.10 0854.33
2009/04/23 14:35:15.4    -508   -263   -166    573    596 242.6 -21.0  34250  291.09 0854.33
2009/04/23 14:35:15.5    -659   -262   -101    710    718 248.3  -8.1  34220  290.59 0854.33
2009/04/23 14:35:15.6    -520   -122   -191    535    569 256.8 -19.7  34214  290.50 0854.33
2009/04/23 14:35:15.7    -549   -204   -130    586    601 249.6 -12.5  34246  291.02 0854.33
2009/04/23 14:35:15.8    -648   -288    -86    710    716 246.0  -7.0  34240  290.93 0854.33
2009/04/23 14:35:15.9    -496   -228   -113    546    558 245.3 -11.8  34210  290.43 0854.33
2009/04/23 14:35:16.0    -450   -441    -48    631    633 225.6  -4.4  34222  290.64 0854.33
2009/04/23 14:35:16.1    -399   -211    -40    452    454 242.1  -5.1  34228  290.73 0854.33
2009/04/23 14:35:16.2    -474   -360    -46    596    598 232.8  -4.5  34220  290.59 0854.33
2009/04/23 14:35:16.3    -389   -159     35    421    423 247.8   4.9  34242  290.95 0854.33
2009/04/23 14:35:16.4    -447    -42    -95    450    461 264.6 -12.0  34206  290.36 0854.33
2009/04/23 14:35:16.5    -491    -84   -114    499    512 260.3 -12.9  34226  290.68 0854.32
2009/04/23 14:35:16.6    -486    -87   -166    494    522 259.8 -18.6  34222  290.64 0854.32
2009/04/23 14:35:16.7    -552    -93   -160    560    582 260.4 -20.7  34206  290.36 0854.32
2009/04/23 14:35:16.8    -526   -129   -161    542    565 256.2 -21.4  34214  290.48 0854.32
2009/04/23 14:35:16.9    -484     -6   -220    485    532 269.2 -30.6  34192  290.12 0854.32
2009/04/23 14:35:17.0    -462    -20   -223    463    513 267.5 -32.1  34206  290.34 0854.32
2009/04/23 14:35:17.1    -508     83   -179    515    545 279.3 -24.4  34252  291.14 0854.32
2009/04/23 14:35:17.2    -445      0   -148    446    469 270.0 -23.6  34226  290.70 0854.32
2009/04/23 14:35:17.3    -525     48   -227    528    574 275.3 -29.0  34220  290.58 0854.32
2009/04/23 14:35:17.4    -385    -29   -117    387    404 265.7 -21.7  34242  290.96 0854.32
2009/04/23 14:35:17.5    -133   -193    121    235    264 214.7  29.3  34252  291.12 0854.32
2009/04/23 14:35:17.6     -64   -260    -34    268    271 194.0  -7.3  34246  291.04 0854.32
2009/04/23 14:35:17.7     -57   -158     43    169    175 200.0  14.3  34242  290.98 0854.32
2009/04/23 14:35:17.8    -209   -221    -12    305    306 223.3  -2.3  34268  291.39 0854.32
2009/04/23 14:35:17.9    -271   -172    -44    321    325 237.6  -7.9  34244  291.00 0854.32
2009/04/23 14:35:18.0    -100    -45    -22    110    113 245.6 -11.3  34232  290.81 0854.32
2009/04/23 14:35:18.1    -158   -103    -10    189    190 236.9  -3.1  34262  291.32 0854.32
2009/04/23 14:35:18.2    -424    -81     53    432    436 259.1   7.1  34268  291.41 0854.32
2009/04/23 14:35:18.3    -338   -202     68    394    401 239.1   9.9  34260  291.27 0854.32
2009/04/23 14:35:18.4    -284   -209     90    354    366 233.6  14.3  34274  291.52 0854.32
2009/04/23 14:35:18.5    -314   -198    -27    372    373 237.7  -4.2  34250  291.10 0854.31
2009/04/23 14:35:18.6    -332   -244     33    413    415 233.7   4.7  34232  290.80 0854.31
2009/04/23 14:35:18.7    -226   -333     67    403    409 214.2   9.4  34230  290.75 0854.31
2009/04/23 14:35:18.8     -92   -519    -55    528    531 190.1  -6.0  34230  290.75 0854.31
2009/04/23 14:35:18.9     -58   -388   -109    393    408 188.5 -15.5  34220  290.60 0854.31
2009/04/23 14:35:19.0     -67   -322    -96    329    342 191.8 -21.0  34214  290.49 0854.31
2009/04/23 14:35:19.1      12   -269    -95    270    286 177.3 -24.4  34220  290.59 0854.31
2009/04/23 14:35:19.2     -43   -305    -86    309    320 188.1 -20.2  34218  290.54 0854.31
2009/04/23 14:35:19.3     -11   -251   -107    252    273 182.6 -28.7  34218  290.56 0854.31
2009/04/23 14:35:19.4      16   -225    -80    226    239 175.8 -24.6  34220  290.59 0854.31
2009/04/23 14:35:19.5      -1   -230    -91    231    248 180.5 -26.9  34222  290.63 0854.31
2009/04/23 14:35:19.6     -77   -234    -74    247    257 198.3 -21.5  34224  290.65 0854.31
2009/04/23 14:35:19.7    -155   -194    -75    249    260 218.8 -21.7  34228  290.73 0854.31
2009/04/23 14:35:19.8    -147   -247   -151    288    325 210.8 -34.2  34230  290.75 0854.31
2009/04/23 14:35:19.9    -172   -311   -186    356    401 209.0 -34.2  34200  290.25 0854.31
2009/04/23 14:35:20.0    -220   -251   -103    334    349 221.3 -22.3  34204  290.32 0854.31
2009/04/23 14:35:20.1    -284   -162   -115    328    347 240.2 -24.3  34206  290.35 0854.31
2009/04/23 14:35:20.2    -129   -368     -3    391    392 199.4  -0.5  34218  290.57 0854.31
2009/04/23 14:35:20.3    -133   -302    101    331    347 203.9  17.1  34242  290.98 0854.31
2009/04/23 14:35:20.4     -82   -297    -11    309    310 195.4  -2.1  34246  291.02 0854.31
2009/04/23 14:35:20.5     -88   -274    -59    288    295 197.8 -11.6  34240  290.93 0854.30
2009/04/23 14:35:20.6    -182   -194   -148    267    305 223.2 -35.8  34218  290.54 0854.30
2009/04/23 14:35:20.7    -193   -159   -128    251    281 230.5 -33.6  34202  290.27 0854.30
2009/04/23 14:35:20.8    -153   -184   -146    240    280 219.6 -38.8  34208  290.37 0854.30
2009/04/23 14:35:20.9     -73   -208    -78    221    234 199.4 -24.0  34210  290.43 0854.30
2009/04/23 14:35:21.0       0   -274    -42    275    279 180.0  -8.8  34228  290.71 0854.30
2009/04/23 14:35:21.1     -23   -253     24    255    257 185.3   5.4  34244  291.00 0854.30
2009/04/23 14:35:21.2     -18   -189     31    190    193 185.6   9.3  34234  290.82 0854.30
2009/04/23 14:35:21.3     -41   -202     80    207    221 191.6  22.3  34244  291.01 0854.30
2009/04/23 14:35:21.4     -82   -210     85    226    241 201.4  21.5  34246  291.02 0854.30
2009/04/23 14:35:21.5     -25   -197     90    199    218 187.3  25.9  34252  291.15 0854.30
2009/04/23 14:35:21.6     -36   -214     27    218    220 189.6   7.1  34250  291.11 0854.30
2009/04/23 14:35:21.7     -61   -178      2    189    190 198.9   0.8  34252  291.13 0854.30
2009/04/23 14:35:21.8     -95   -202     26    224    226 205.2   6.7  34250  291.09 0854.30
2009/04/23 14:35:21.9     -73   -175    106    190    217 202.7  31.4  34266  291.38 0854.30
2009/04/23 14:35:22.0     -28   -183    118    186    220 188.9  35.5  34268  291.40 0854.30
2009/04/23 14:35:22.1       2   -134    144    135    197 179.1  52.1  34270  291.45 0854.30
2009/04/23 14:35:22.2       2    -19    167     20    168 173.8  90.0  34294  291.86 0854.30
2009/04/23 14:35:22.3       0     28    103     29    107 359.1  83.9  34286  291.71 0854.30
2009/04/23 14:35:22.4      42    -36    131     56    142 131.3  76.1  34262  291.30 0854.30
2009/04/23 14:35:22.5      -6     37     92     38     99 350.2  77.0  34276  291.55 0854.30
2009/04/23 14:35:22.6     -38     -7    134     39    139 258.6  83.3  34272  291.49 0854.30
2009/04/23 14:35:22.7     -60    -45    113     76    136 233.1  63.2  34276  291.55 0854.30
2009/04/23 14:35:22.8      25    -30     62     40     73 140.4  64.6  34272  291.49 0854.30
2009/04/23 14:35:22.9     -41    -33    111     53    123 231.4  72.9  34290  291.79 0854.30
2009/04/23 14:35:23.0    -124   -130    142    180    229 223.7  42.4  34302  292.00 0854.30
2009/04/23 14:35:23.1    -134   -128    127    186    225 226.2  37.6  34276  291.55 0854.30
2009/04/23 14:35:23.2    -101    -93    100    138    170 227.3  39.7  34290  291.79 0854.30
2009/04/23 14:35:23.3    -134     -6    115    135    177 267.4  44.8  34288  291.74 0854.30
2009/04/23 14:35:23.4    -230     33     93    233    250 278.4  23.0  34330  292.45 0854.30
2009/04/23 14:35:23.5    -225     31    107    228    251 278.0  27.1  34334  292.53 0854.30
2009/04/23 14:35:23.6    -237     25    110    239    263 276.2  26.4  34336  292.57 0854.30
2009/04/23 14:35:23.7    -241      3     92    242    258 270.8  22.0  34320  292.28 0854.30
2009/04/23 14:35:23.8    -245     83     26    259    261 288.8   5.9  34294  291.84 0854.30
2009/04/23 14:35:23.9    -342    174     -7    384    385 297.0  -1.2  34264  291.34 0854.30
2009/04/23 14:35:24.0    -246    255     -2    355    356 316.1  -0.4  34258  291.22 0854.30
2009/04/23 14:35:24.1    -247    197     -1    317    318 308.6  -0.3  34244  291.00 0854.30
2009/04/23 14:35:24.2    -160     59    -35    171    175 290.2 -11.6  34242  290.96 0854.30
2009/04/23 14:35:24.3     -72    116     28    137    140 327.9  11.6  34246  291.04 0854.30
2009/04/23 14:35:24.4    -102    154     43    185    190 326.4  13.1  34276  291.55 0854.30
2009/04/23 14:35:24.5    -110    149     54    186    194 323.5  16.3  34274  291.50 0854.33
2009/04/23 14:35:24.7    -130     61     87    144    168 295.2  34.2  34276  291.55 0854.33
2009/04/23 14:35:24.7    -270     54     59    276    283 281.5  12.2  34280  291.60 0854.33
2009/04/23 14:35:24.8    -331     29    130    333    357 275.1  22.4  34278  291.57 0854.33
2009/04/23 14:35:24.9    -285    -78    121    296    319 254.7  23.5  34276  291.55 0854.33
2009/04/23 14:35:25.0     -97   -175    156    201    254 209.0  41.7  34268  291.39 0854.33
2009/04/23 14:35:25.1    -105   -220    137    244    279 205.5  31.6  34256  291.21 0854.33
2009/04/23 14:35:25.2    -143   -262    181    299    349 208.7  34.3  34256  291.20 0854.33
2009/04/23 14:35:25.4    -157   -246    206    293    358 212.6  38.6  34254  291.18 0854.33
2009/04/23 14:35:25.4    -157   -153    204    220    300 225.8  47.9  34266  291.38 0854.33
2009/04/23 14:35:25.5    -147   -126     97    194    216 229.3  28.5  34276  291.54 0854.33
2009/04/23 14:35:25.6     -95   -124    155    157    220 217.4  50.0  34286  291.72 0854.33
2009/04/23 14:35:25.7    -153   -135    157    205    258 228.6  41.4  34294  291.84 0854.33
2009/04/23 14:35:25.8    -186   -135    125    230    261 234.0  31.3  34268  291.39 0854.33
2009/04/23 14:35:25.9    -111   -202    125    231    262 208.9  31.0  34252  291.12 0854.33
2009/04/23 14:35:26.0    -170   -166     48    238    243 225.6  11.4  34254  291.17 0854.33
2009/04/23 14:35:26.1    -107   -144     48    180    187 216.5  15.2  34244  291.01 0854.33
2009/04/23 14:35:26.3    -103   -129     78    166    183 218.5  27.1  34260  291.28 0854.33
2009/04/23 14:35:26.4     -69   -148    109    164    196 204.9  36.7  34264  291.33 0854.33
2009/04/23 14:35:26.5    -131   -211     93    249    265 211.9  21.3  34312  292.14 0854.33
2009/04/23 14:35:26.6    -133   -224     48    261    266 210.7  10.6  34320  292.28 0854.34
2009/04/23 14:35:26.7    -161   -166     24    232    234 224.1   5.9  34324  292.36 0854.34
2009/04/23 14:35:26.8    -108   -108     33    154    158 225.0  12.2  34344  292.71 0854.34
2009/04/23 14:35:26.9    -294   -156    143    334    363 242.0  24.6  34314  292.20 0854.34
2009/04/23 14:35:27.0    -414   -146    122    440    457 250.5  15.6  34314  292.18 0854.34
2009/04/23 14:35:27.1    -297    -54    110    302    321 259.6  20.7  34298  291.90 0854.34
2009/04/23 14:35:27.2    -304     -9    115    305    325 268.3  21.7  34274  291.50 0854.34
2009/04/23 14:35:27.3    -260     44     66    264    273 279.6  14.2  34286  291.72 0854.34
2009/04/23 14:35:27.4    -313    -94     34    327    329 253.2   6.0  34312  292.15 0854.34
2009/04/23 14:35:27.5    -282    -39    -11    285    286 262.1  -2.2  34316  292.21 0854.34
2009/04/23 14:35:27.6    -257    -39     17    261    262 261.2   3.8  34304  292.01 0854.34
2009/04/23 14:35:27.7    -299   -124     80    324    334 247.4  13.9  34328  292.42 0854.34
2009/04/23 14:35:27.8    -277   -153     44    317    320 241.1   7.9  34306  292.06 0854.34
2009/04/23 14:35:27.9    -326    -55      4    331    332 260.4   0.7  34304  292.03 0854.34
2009/04/23 14:35:28.0    -215   -118     42    246    250 241.2   9.9  34296  291.89 0854.34
2009/04/23 14:35:28.1    -161    -76     35    179    183 244.7  11.1  34290  291.79 0854.34
2009/04/23 14:35:28.2     -71   -179    123    193    228 201.9  35.6  34270  291.43 0854.34
2009/04/23 14:35:28.3     -94   -196    134    218    255 205.6  34.5  34264  291.33 0854.34
2009/04/23 14:35:28.4     -61   -170    144    181    231 199.8  43.0  34268  291.40 0854.34
2009/04/23 14:35:28.5     -80   -167    162    186    246 205.5  45.6  34284  291.67 0854.34
2009/04/23 14:35:28.6    -118   -135    115    180    213 221.2  35.6  34282  291.64 0854.34
2009/04/23 14:35:28.7     -67    -93     57    115    128 216.0  28.2  34268  291.40 0854.34
2009/04/23 14:35:28.8     -58   -177      3    187    188 198.3   1.2  34258  291.23 0854.34
2009/04/23 14:35:28.9      24   -143     -8    146    147 170.2  -3.2  34252  291.15 0854.34
2009/04/23 14:35:29.0     -24   -147     35    149    154 189.3  13.5  34254  291.18 0854.34
2009/04/23 14:35:29.1     -50    -92     23    105    108 208.5  12.6  34256  291.21 0854.34
2009/04/23 14:35:29.2     -77    -96      1    124    125 218.7   0.8  34246  291.04 0854.34
2009/04/23 14:35:29.3     -94    -20     12     97     98 257.6   7.5  34244  291.01 0854.34
2009/04/23 14:35:29.4    -113    -42     77    121    143 249.2  35.5  34246  291.03 0854.34
2009/04/23 14:35:29.5    -124    -90     79    154    173 234.1  29.3  34246  291.03 0854.34
2009/04/23 14:35:29.6    -115    -83     60    143    155 234.0  23.6  34254  291.18 0854.34
2009/04/23 14:35:29.7    -127   -117     95    174    198 227.3  31.0  34254  291.16 0854.34
2009/04/23 14:35:29.8    -154   -164     44    226    231 223.2  11.1  34246  291.04 0854.34
2009/04/23 14:35:29.9     -62    -70      0     94     95 221.4   0.2  34244  290.99 0854.34
2009/04/23 14:35:30.0    -103   -109     95    151    178 223.3  35.5  34252  291.15 0854.34
2009/04/23 14:35:30.1     -98   -173     90    200    219 209.6  25.9  34242  290.96 0854.34
2009/04/23 14:35:30.2    -114   -156     84    194    211 216.1  25.1  34246  291.04 0854.34
2009/04/23 14:35:30.3     -28   -168    108    171    202 189.6  35.5  34252  291.13 0854.34
2009/04/23 14:35:30.4     -23   -115    113    118    163 191.5  49.0  34256  291.20 0854.34
2009/04/23 14:35:30.5     -21    -69     38     73     82 196.9  29.3  34256  291.20 0854.34
2009/04/23 14:35:30.6      84    -22    102     87    134 105.1  55.4  34264  291.35 0854.34
2009/04/23 14:35:30.7       4     -5     76      7     76 140.4  90.0  34278  291.57 0854.34
2009/04/23 14:35:30.8       0    -22     72     23     75 180.9  80.7  34274  291.50 0854.34
2009/04/23 14:35:30.9      13   -102     79    103    129 172.4  41.7  34256  291.20 0854.34
2009/04/23 14:35:31.0     -22    -90     46     93    103 193.8  27.8  34260  291.28 0854.34
2009/04/23 14:35:31.1     -57    -63     27     86     91 221.9  17.3  34256  291.21 0854.34
2009/04/23 14:35:31.2     -58    -75    -29     96    101 217.8 -17.0  34248  291.08 0854.34
2009/04/23 14:35:31.3     -88    -99      6    133    134 221.4   2.9  34246  291.04 0854.34
2009/04/23 14:35:31.4    -112   -113     36    160    165 224.8  12.9  34244  290.99 0854.34
2009/04/23 14:35:31.5     -31   -147     57    151    161 192.0  21.7  34248  291.06 0854.34
2009/04/23 14:35:31.6      77   -134     59    155    165 150.1  21.7  34246  291.04 0854.34
2009/04/23 14:35:31.7     148   -167     49    224    230 138.6  12.4  34242  290.96 0854.34
2009/04/23 14:35:31.8     115   -224     78    252    264 152.8  17.3  34230  290.76 0854.34
2009/04/23 14:35:31.9      22   -250     30    252    254 174.9   6.9  34238  290.88 0854.34
2009/04/23 14:35:32.0     -61   -212    105    221    244 196.0  27.2  34240  290.92 0854.34
2009/04/23 14:35:32.1    -183   -265     68    323    331 214.7  12.0  34234  290.82 0854.34
2009/04/23 14:35:32.2    -197   -303     95    362    375 213.0  14.7  34238  290.88 0854.34
2009/04/23 14:35:32.3    -211   -260     -1    336    337 219.1  -0.3  34242  290.98 0854.34
2009/04/23 14:35:32.4    -236   -173    -26    293    295 233.8  -5.2  34254  291.16 0854.34
2009/04/23 14:35:32.5    -254   -144    -96    293    308 240.5 -23.8  34242  290.95 0854.34
2009/04/23 14:35:32.6    -303      1    -98    304    319 270.4 -23.0  34252  291.14 0854.34
2009/04/23 14:35:32.7    -365    -93   -243    377    448 255.6 -40.1  34186  290.02 0854.34
2009/04/23 14:35:32.8    -263   -263   -228    373    437 225.0 -38.7  34232  290.80 0854.34
2009/04/23 14:35:32.9    -394   -192   -275    439    518 244.0 -39.5  34202  290.30 0854.34
2009/04/23 14:35:33.0    -356   -194   -213    406    458 241.4 -34.5  34182  289.95 0854.34
2009/04/23 14:35:33.1    -320   -207   -184    382    424 237.0 -31.7  34186  290.00 0854.34
2009/04/23 14:35:33.2    -282   -179   -178    335    379 237.5 -34.7  34184  289.99 0854.34
2009/04/23 14:35:33.3    -164   -293   -198    337    390 209.3 -37.5  34178  289.86 0854.34
2009/04/23 14:35:33.4    -214   -163   -173    270    320 232.7 -40.0  34192  290.12 0854.34
2009/04/23 14:35:33.5    -157   -144   -166    214    270 227.6 -46.1  34190  290.07 0854.34
2009/04/23 14:35:33.6    -251   -128   -141    282    315 242.9 -32.9  34198  290.22 0854.35
2009/04/23 14:35:33.7    -127   -126   -122    180    217 225.2 -42.0  34222  290.62 0854.35
2009/04/23 14:35:33.8     -72   -242   -130    253    284 196.7 -33.6  34230  290.76 0854.35
2009/04/23 14:35:33.9      64   -337    -95    344    356 169.2 -20.0  34242  290.96 0854.35
2009/04/23 14:35:34.0      16   -283   -140    284    316 176.6 -32.6  34252  291.14 0854.35
2009/04/23 14:35:34.1     -21   -186   -169    188    252 186.7 -51.3  34236  290.85 0854.35
2009/04/23 14:35:34.2     141   -150   -110    207    234 136.8 -34.7  34244  291.01 0854.35
2009/04/23 14:35:34.3     -18    -71   -136     74    154 194.3 -73.3  34242  290.96 0854.35
2009/04/23 14:35:34.4      25    -84   -143     88    167 163.1 -69.8  34238  290.91 0854.35
2009/04/23 14:35:34.5    -112   -145    -21    184    186 217.6  -6.7  34246  291.03 0854.35
2009/04/23 14:35:34.6    -284    -98    -54    301    306 250.9 -10.3  34218  290.54 0854.35
2009/04/23 14:35:34.7    -304     23    -64    305    312 274.4 -11.9  34210  290.42 0854.35
2009/04/23 14:35:34.8    -202   -124      3    238    239 238.5   0.8  34230  290.75 0854.35
2009/04/23 14:35:34.9     -93   -197     -8    219    220 205.3  -2.2  34236  290.86 0854.35
2009/04/23 14:35:35.0    -157   -301    -66    340    347 207.6 -11.0  34236  290.86 0854.35
2009/04/23 14:35:35.1     -41   -218    180    222    285 190.7  43.7  34216  290.53 0854.35
2009/04/23 14:35:35.2      -7   -302    192    303    358 181.4  35.5  34218  290.55 0854.35
2009/04/23 14:35:35.3     -85   -314    186    326    375 195.3  32.3  34226  290.69 0854.35
2009/04/23 14:35:35.4    -170   -268     49    318    322 212.5   8.9  34216  290.53 0854.35
2009/04/23 14:35:35.5     -61   -232    185    241    303 194.9  41.6  34228  290.73 0854.35
2009/04/23 14:35:35.6     -88   -263     96    278    295 198.5  19.2  34230  290.75 0854.35
2009/04/23 14:35:35.7     -91   -207    104    227    249 203.8  26.2  34236  290.85 0854.35
2009/04/23 14:35:35.8     -41   -124    148    131    197 198.3  54.0  34234  290.82 0854.35
2009/04/23 14:35:35.9     -61    -96    117    115    164 212.6  50.1  34246  291.03 0854.35
2009/04/23 14:35:36.0    -209   -148     55    257    263 234.7  12.2  34232  290.80 0854.35
2009/04/23 14:35:36.1    -300   -171     17    346    347 240.2   2.9  34226  290.69 0854.35
2009/04/23 14:35:36.2    -360   -298     61    468    472 230.4   7.5  34222  290.61 0854.35
2009/04/23 14:35:36.3    -227   -235    121    327    348 224.0  21.3  34218  290.57 0854.35
2009/04/23 14:35:36.4      23   -419    255    420    491 176.8  34.1  34222  290.64 0854.35
2009/04/23 14:35:36.5     160   -368    167    402    435 156.5  23.9  34208  290.39 0854.35
2009/04/23 14:35:36.6     110   -520     -2    532    533 168.0  -0.2  34206  290.35 0854.35
2009/04/23 14:35:36.7     108   -628     92    638    645 170.2   8.2  34222  290.64 0854.35
2009/04/23 14:35:36.8      49   -582      8    585    586 175.1   0.8  34206  290.36 0854.35
2009/04/23 14:35:36.9     234   -585     10    631    632 158.2   1.0  34204  290.32 0854.35
2009/04/23 14:35:37.0      62   -576    -45    580    582 173.8  -4.5  34206  290.36 0854.35
2009/04/23 14:35:37.1      84   -483    -57    491    495 170.1  -6.7  34202  290.27 0854.35
2009/04/23 14:35:37.2     180   -609    -82    636    642 163.5  -7.4  34204  290.33 0854.35
2009/04/23 14:35:37.3     207   -434   -166    481    509 154.5 -19.1  34212  290.44 0854.35
2009/04/23 14:35:37.4     179   -369   -134    411    433 154.1 -18.0  34196  290.19 0854.35
2009/04/23 14:35:37.5     214    -62    195    223    296 106.2  45.8  34210  290.42 0854.35
2009/04/23 14:35:37.6     227   -154    156    275    316 124.2  32.1  34212  290.46 0854.35
2009/04/23 14:35:37.7     243    -12    234    244    338  93.0  48.8  34220  290.58 0854.35
2009/04/23 14:35:37.8     141    -19    204    143    249  98.0  61.7  34220  290.58 0854.35
2009/04/23 14:35:37.9      36     36    141     51    149  45.0  79.7  34248  291.08 0854.35
2009/04/23 14:35:38.0     -27      9    129     29    132 288.2  87.5  34252  291.15 0854.35
2009/04/23 14:35:38.1     -99    -49     69    111    130 243.4  35.5  34248  291.08 0854.35
2009/04/23 14:35:38.2    -147     45    -55    154    163 287.3 -24.6  34242  290.98 0854.35
2009/04/23 14:35:38.3     -92     76      1    120    121 309.6   0.8  34246  291.03 0854.35
2009/04/23 14:35:38.4    -107    186     27    215    217 330.1   7.2  34232  290.81 0854.35
2009/04/23 14:35:38.5    -175    157      7    236    237 311.8   1.8  34226  290.70 0854.35
2009/04/23 14:35:38.6    -211    211    -54    299    304 315.1 -10.3  34218  290.56 0854.35
2009/04/23 14:35:38.7    -283    -91    183    298    349 252.1  34.8  34230  290.76 0854.35
2009/04/23 14:35:38.8    -290   -116    135    313    340 248.2  24.8  34228  290.71 0854.35
2009/04/23 14:35:38.9    -163   -115     69    200    212 234.7  19.2  34216  290.52 0854.35
2009/04/23 14:35:39.0    -107   -171     89    202    220 212.1  25.2  34208  290.40 0854.35
2009/04/23 14:35:39.1     -75   -245      3    257    258 197.2   0.8  34224  290.65 0854.35
2009/04/23 14:35:39.2    -105   -215    -65    240    249 206.1 -15.2  34234  290.83 0854.35
2009/04/23 14:35:39.3    -234      6   -113    235    260 271.5 -31.7  34248  291.05 0854.35
2009/04/23 14:35:39.4    -188    -82    -79    206    220 246.3 -26.1  34242  290.98 0854.35
2009/04/23 14:35:39.5    -420     12   -148    421    446 271.7 -24.4  34248  291.06 0854.35
2009/04/23 14:35:39.6    -383      8   -121    384    403 271.3 -17.5  34258  291.22 0854.35
2009/04/23 14:35:39.7    -332     41    -94    335    348 277.1 -15.7  34268  291.39 0854.35
2009/04/23 14:35:39.8    -468    -31   -129    470    488 266.2 -15.4  34266  291.37 0854.35
2009/04/23 14:35:39.9    -222   -173   -260    282    383 232.0 -52.1  34220  290.59 0854.35
2009/04/23 14:35:40.0    -297   -135   -228    327    398 245.6 -42.7  34220  290.59 0854.35
2009/04/23 14:35:40.1    -166    -17   -218    167    274 264.1 -62.9  34232  290.78 0854.35
2009/04/23 14:35:40.2      -6   -109   -187    110    216 183.1 -71.2  34196  290.19 0854.35
2009/04/23 14:35:40.3      25   -185   -194    187    269 172.2 -55.6  34226  290.68 0854.35
2009/04/23 14:35:40.4    -195    -33   -166    198    258 260.3 -48.5  34236  290.87 0854.35
2009/04/23 14:35:40.5    -285   -140   -170    318    360 243.8 -35.0  34264  291.34 0854.35
2009/04/23 14:35:40.6    -210   -293   -215    361    420 215.6 -38.0  34228  290.71 0854.35
2009/04/23 14:35:40.7    -209   -307   -186    372    415 214.2 -33.0  34222  290.64 0854.35
2009/04/23 14:35:40.8     -84   -234   -207    249    323 199.8 -48.4  34226  290.68 0854.35
2009/04/23 14:35:40.9    -204   -276   -114    344    363 216.5 -18.3  34244  291.00 0854.35
2009/04/23 14:35:41.0      38   -334    -94    337    351 173.5 -15.7  34228  290.72 0854.35
2009/04/23 14:35:41.1      -6   -373   -114    374    392 181.0 -17.0  34226  290.69 0854.35
2009/04/23 14:35:41.2     -66   -279   -153    287    325 193.4 -34.9  34234  290.82 0854.35
2009/04/23 14:35:41.3      29   -142   -107    146    181 168.4 -44.1  34234  290.82 0854.35
2009/04/23 14:35:41.4      87   -137    -17    163    164 147.5  -6.2  34228  290.72 0854.35
2009/04/23 14:35:41.5       2    -81     -5     82     83 178.2  -4.1  34212  290.45 0854.35
2009/04/23 14:35:41.6     -46     -6    -49     47     67 262.1 -54.5  34214  290.48 0854.35
2009/04/23 14:35:41.7    -101   -100    -68    143    158 225.1 -31.4  34236  290.86 0854.35
2009/04/23 14:35:41.8    -156   -131    -82    204    219 230.0 -27.5  34248  291.08 0854.35
2009/04/23 14:35:41.9    -124   -194    -38    231    235 212.5  -9.3  34248  291.05 0854.35
2009/04/23 14:35:42.0    -170   -177    -78    246    259 223.9 -17.6  34240  290.93 0854.35
2009/04/23 14:35:42.1    -147   -234    -79    277    288 212.1 -20.7  34244  291.00 0854.35
2009/04/23 14:35:42.2    -139   -273    -92    307    320 207.1 -21.6  34202  290.27 0854.35
2009/04/23 14:35:42.3    -213   -506     46    550    553 202.8   4.9  34216  290.53 0854.35
2009/04/23 14:35:42.4    -237   -346    139    420    443 214.5  18.4  34224  290.65 0854.35
2009/04/23 14:35:42.5    -100   -488     98    499    509 191.7  11.1  34222  290.61 0854.35
2009/04/23 14:35:42.6     -71   -454    116    460    475 188.9  14.2  34218  290.54 0854.35
2009/04/23 14:35:42.7     -50   -358    131    362    386 188.0  19.9  34220  290.60 0854.35
2009/04/23 14:35:42.8     -15   -231    261    232    349 183.8  53.9  34226  290.70 0854.35
2009/04/23 14:35:42.9     100   -183    214    209    299 151.1  50.7  34234  290.82 0854.35
2009/04/23 14:35:43.0     141   -308    145    339    368 155.4  24.8  34192  290.10 0854.35
2009/04/23 14:35:43.1     192   -317    179    371    411 148.8  27.7  34194  290.15 0854.35
2009/04/23 14:35:43.2     183   -307    258    358    441 149.3  39.5  34234  290.82 0854.35
2009/04/23 14:35:43.3       0    -98    239     99    258 180.4  76.6  34238  290.91 0854.35
2009/04/23 14:35:43.4     118   -270    242    295    381 156.4  43.7  34214  290.50 0854.35
2009/04/23 14:35:43.5     121   -255    256    283    381 154.7  46.8  34194  290.16 0854.35
2009/04/23 14:35:43.6      84    -90    181    124    219 136.8  62.6  34232  290.81 0854.39
2009/04/23 14:35:43.7      84    -21    169     87    190 104.6  70.8  34254  291.16 0854.39
2009/04/23 14:35:43.8     105    -99    218    145    261 133.1  63.6  34206  290.35 0854.39
2009/04/23 14:35:43.9      -7     61    135     62    148 352.9  73.5  34216  290.52 0854.39
2009/04/23 14:35:44.0     -15   -128    149    129    197 187.1  54.6  34200  290.26 0854.39
2009/04/23 14:35:44.1      46    -98    117    109    159 154.5  52.2  34202  290.30 0854.39
2009/04/23 14:35:44.2      -7   -202     45    203    209 182.0  12.6  34216  290.52 0854.39
2009/04/23 14:35:44.3      96   -164     39    191    196 149.5  11.6  34236  290.87 0854.39
2009/04/23 14:35:44.4      13    -87     -6     89     90 171.1  -4.1  34236  290.86 0854.39
2009/04/23 14:35:44.5       2    -85    121     86    148 178.2  61.1  34234  290.82 0854.39
2009/04/23 14:35:44.6       3    -86    133     87    158 177.8  63.6  34230  290.75 0854.39
2009/04/23 14:35:44.7    -178   -170    110    247    270 226.2  25.7  34220  290.58 0854.39
2009/04/23 14:35:44.8    -137   -306    128    336    359 204.1  21.7  34202  290.30 0854.39
2009/04/23 14:35:44.9    -221   -333    130    401    422 213.6  18.0  34194  290.14 0854.39
2009/04/23 14:35:45.0       0   -375    -18    376    377 180.1  -2.8  34198  290.23 0854.39
2009/04/23 14:35:45.1      63   -334   -121    340    362 169.3 -19.7  34202  290.30 0854.39
2009/04/23 14:35:45.2      83   -232    -80    247    259 160.2 -23.0  34206  290.36 0854.39
2009/04/23 14:35:45.3      90   -148    -74    174    189 148.6 -29.0  34204  290.33 0854.39
2009/04/23 14:35:45.4      53    -72    -42     90     99 143.9 -31.5  34206  290.35 0854.39
2009/04/23 14:35:45.5     -22    -39    -42     46     62 209.9 -52.3  34212  290.47 0854.39
2009/04/23 14:35:45.6     -10    -76    -70     77    104 188.1 -52.3  34200  290.25 0854.40
2009/04/23 14:35:45.7      -5   -100    -88    101    133 183.1 -50.2  34210  290.41 0854.40
2009/04/23 14:35:45.8     -76    -46    -79     89    119 238.9 -50.8  34242  290.96 0854.40
2009/04/23 14:35:45.9     -56    -82   -141    100    172 214.7 -65.9  34282  291.64 0854.40
2009/04/23 14:35:46.0     -64    -87   -117    109    159 216.5 -56.6  34294  291.84 0854.40
2009/04/23 14:35:46.1     -18    -33   -111     38    117 209.0 -85.6  34296  291.88 0854.40
2009/04/23 14:35:46.2      52    -50    -71     73    101 134.1 -53.8  34294  291.84 0854.40
2009/04/23 14:35:46.3      63    -11    -95     65    115 100.6 -67.0  34284  291.69 0854.40
2009/04/23 14:35:46.4     104     27    -93    108    142  75.0 -49.8  34274  291.52 0854.40
2009/04/23 14:35:46.5     119     39   -126    126    178  71.6 -54.5  34268  291.42 0854.40
2009/04/23 14:35:46.6     145     -3    -78    146    165  91.3 -35.0  34262  291.30 0854.40
2009/04/23 14:35:46.7     112     24   -110    115    159  77.6 -53.4  34250  291.09 0854.40
2009/04/23 14:35:46.8     177     35    -68    181    193  78.6 -25.7  34250  291.11 0854.40
2009/04/23 14:35:46.9     210    -18    -19    211    212  95.0  -5.2  34230  290.75 0854.40
2009/04/23 14:35:47.0     191    -67     20    203    205 109.5   5.7  34214  290.48 0854.40
2009/04/23 14:35:47.1     148   -105     39    182    187 125.3  12.2  34214  290.50 0854.40
2009/04/23 14:35:47.2     121    -27     23    125    128 102.8  10.6  34214  290.50 0854.40
2009/04/23 14:35:47.3     208    -99     11    231    232 115.5   2.9  34220  290.60 0854.40
2009/04/23 14:35:47.4     210   -134     51    250    256 122.5  11.6  34210  290.42 0854.40
2009/04/23 14:35:47.5     197    -59     68    206    218 106.9  18.4  34212  290.47 0854.40
2009/04/23 14:35:47.6     112    -46     96    122    155 112.2  42.7  34214  290.48 0854.36
2009/04/23 14:35:47.7       6    -99     91    100    135 176.4  47.5  34220  290.60 0854.36
2009/04/23 14:35:47.8     -14   -115    104    116    155 187.1  46.9  34216  290.53 0854.36
2009/04/23 14:35:47.9     -52    -83    109     98    146 212.1  53.3  34214  290.48 0854.36
2009/04/23 14:35:48.0     -87    -27     44     92    101 252.7  27.2  34218  290.57 0854.36
2009/04/23 14:35:48.1    -130     45    -43    138    145 289.1 -17.6  34212  290.45 0854.36
2009/04/23 14:35:48.2    -133     63    -63    148    160 295.3 -28.7  34214  290.48 0854.36
2009/04/23 14:35:48.3    -155     64    -82    168    186 292.4 -31.8  34218  290.57 0854.36
2009/04/23 14:35:48.4    -133     73   -139    152    205 298.9 -51.5  34218  290.55 0854.36
2009/04/23 14:35:48.5    -109    151    -81    187    203 324.2 -29.5  34214  290.48 0854.36
2009/04/23 14:35:48.6    -130     70     -8    148    149 298.4  -3.1  34218  290.55 0854.36
2009/04/23 14:35:48.7     -84     86    -43    121    129 315.9 -19.7  34218  290.57 0854.36
2009/04/23 14:35:48.8    -103     65    -39    123    130 302.4 -17.5  34222  290.62 0854.36
2009/04/23 14:35:48.9    -126     63    -46    141    148 296.6 -23.8  34216  290.53 0854.36
2009/04/23 14:35:49.0    -136    114    -29    178    181 310.0  -9.3  34214  290.50 0854.36
2009/04/23 14:35:49.1    -171     11     39    172    177 273.7  12.9  34220  290.60 0854.36
2009/04/23 14:35:49.2    -218      9     28    219    221 272.4   7.5  34218  290.57 0854.36
2009/04/23 14:35:49.3    -182     37     38    186    190 281.7  11.6  34228  290.72 0854.36
2009/04/23 14:35:49.4    -114     66     80    132    154 300.2  35.0  34234  290.84 0854.36
2009/04/23 14:35:49.5     -53     37     65     65     91 305.1  50.1  34240  290.94 0854.36
2009/04/23 14:35:49.6     -15    -36     32     40     51 202.7  43.7  34250  291.11 0854.36
2009/04/23 14:35:49.7     -77    -82     38    113    120 223.2  18.9  34230  290.77 0854.36
2009/04/23 14:35:49.8    -269    -40    -44    273    277 261.4  -9.3  34268  291.39 0854.36
2009/04/23 14:35:49.9    -285     57    -52    291    296 281.5 -10.3  34244  290.99 0854.36
2009/04/23 14:35:50.0    -284     35      0    287    288 277.2   0.0  34238  290.90 0854.36
2009/04/23 14:35:50.1    -217     36    -65    220    229 279.5 -21.5  34230  290.77 0854.36
2009/04/23 14:35:50.2    -288    -88   -118    302    324 252.9 -26.8  34238  290.88 0854.36
2009/04/23 14:35:50.3    -479   -321   -175    577    604 236.2 -16.9  34238  290.90 0854.36
2009/04/23 14:35:50.4    -362    -67   -130    369    392 259.5 -19.4  34230  290.76 0854.36
2009/04/23 14:35:50.5    -334    -84   -116    345    365 255.8 -18.6  34240  290.93 0854.36
2009/04/23 14:35:50.6    -200   -160    -46    257    262 231.4 -10.3  34236  290.87 0854.36
2009/04/23 14:35:50.7    -382   -166      8    417    418 246.5   1.2  34246  291.04 0854.36
2009/04/23 14:35:50.8    -231   -296   -154    376    406 218.0 -28.0  34218  290.54 0854.36
2009/04/23 14:35:50.9    -123   -314   -179    338    382 201.4 -34.5  34218  290.54 0854.36
2009/04/23 14:35:51.0    -263   -262     15    372    373 225.2   2.4  34230  290.76 0854.36
2009/04/23 14:35:51.1    -105   -324    -43    341    344 198.0  -7.2  34218  290.57 0854.36
2009/04/23 14:35:51.2    -173   -178   -121    249    276 224.1 -32.4  34216  290.53 0854.36
2009/04/23 14:35:51.3     -58   -209     14    217    218 195.6   3.8  34214  290.50 0854.36
2009/04/23 14:35:51.4    -175   -115    -54    210    217 236.7 -14.5  34240  290.92 0854.36
2009/04/23 14:35:51.5     -94   -113   -115    148    187 219.6 -46.6  34234  290.84 0854.36
2009/04/23 14:35:51.6    -214   -171   -133    275    305 231.4 -31.7  34238  290.90 0854.36
2009/04/23 14:35:51.7    -229   -201    -67    305    313 228.7 -12.4  34238  290.90 0854.36
2009/04/23 14:35:51.8    -163   -153    -41    224    228 226.9 -10.5  34240  290.94 0854.36
2009/04/23 14:35:51.9     -83   -198     10    215    216 202.7   2.8  34234  290.84 0854.36
2009/04/23 14:35:52.0    -100   -266     30    285    287 200.7   6.1  34226  290.68 0854.36
2009/04/23 14:35:52.1     -54   -264     32    270    272 191.6   6.9  34222  290.63 0854.36
2009/04/23 14:35:52.2     -31   -356    -14    358    359 185.0  -2.2  34226  290.69 0854.36
2009/04/23 14:35:52.3    -214   -261    -98    338    352 219.3 -16.2  34248  291.06 0854.36
2009/04/23 14:35:52.4    -123   -308      4    332    333 201.9   0.7  34242  290.96 0854.36
2009/04/23 14:35:52.5    -247   -244      0    348    349 225.3   0.0  34278  291.57 0854.36
2009/04/23 14:35:52.6    -109   -243     13    267    268 204.1   2.9  34262  291.31 0854.36
2009/04/23 14:35:52.7    -172   -219    -91    279    294 218.3 -18.1  34268  291.39 0854.36
2009/04/23 14:35:52.8    -120   -182    -56    219    227 213.4 -14.3  34264  291.35 0854.36
2009/04/23 14:35:52.9     -98   -290    -66    307    315 198.7 -12.2  34256  291.19 0854.36
2009/04/23 14:35:53.0    -145   -293   -119    328    348 206.4 -25.1  34248  291.08 0854.36
2009/04/23 14:35:53.1    -228   -289   -111    369    386 218.3 -16.8  34254  291.18 0854.36
2009/04/23 14:35:53.3    -228   -244    -87    335    347 223.0 -14.7  34240  290.93 0854.36
2009/04/23 14:35:53.3    -126   -302    -83    328    339 202.7 -14.3  34234  290.83 0854.36
2009/04/23 14:35:53.4     -90   -310    -41    323    326 196.3  -7.3  34228  290.71 0854.36
2009/04/23 14:35:53.6    -122   -394    -67    413    419 197.3  -9.3  34222  290.61 0854.36
2009/04/23 14:35:53.7     -95   -354    -27    367    368 195.0  -4.2  34224  290.67 0854.40
2009/04/23 14:35:53.8    -102   -316    -60    333    339 197.9 -10.2  34226  290.69 0854.40
2009/04/23 14:35:53.9     -68   -265    -32    274    276 194.5  -6.7  34226  290.68 0854.40
2009/04/23 14:35:54.0    -142   -132     19    195    196 227.1   5.7  34254  291.16 0854.40
2009/04/23 14:35:54.1     -53   -223     43    230    234 193.6  10.6  34242  290.95 0854.40
2009/04/23 14:35:54.2      88   -320    -38    332    335 164.6  -6.6  34222  290.62 0854.40
2009/04/23 14:35:54.3     165   -307    -60    349    355 151.7  -9.8  34224  290.66 0854.40
2009/04/23 14:35:54.4      61   -225    -29    234    236 164.9  -7.2  34226  290.70 0854.40
2009/04/23 14:35:54.5     -59   -246    -21    254    255 193.6  -4.9  34230  290.75 0854.40
2009/04/23 14:35:54.6     -43   -256    -54    260    266 189.7 -11.9  34240  290.92 0854.40
2009/04/23 14:35:54.7      -7   -252    -33    253    256 181.8  -7.5  34238  290.88 0854.40
2009/04/23 14:35:54.8      -4   -266     26    267    269 181.0   5.7  34236  290.87 0854.40
2009/04/23 14:35:54.9      25   -247     87    249    264 174.0  19.4  34238  290.88 0854.40
2009/04/23 14:35:55.0      79   -273    129    285    312 163.7  26.0  34242  290.95 0854.40
2009/04/23 14:35:55.1      18   -238    109    239    262 175.6  26.2  34256  291.21 0854.40
2009/04/23 14:35:55.2      44   -216    101    221    242 168.4  26.2  34266  291.36 0854.40
2009/04/23 14:35:55.3      35   -182     41    186    191 169.1  12.6  34256  291.21 0854.40
2009/04/23 14:35:55.4      84   -100    -16    131    133 139.9  -7.3  34238  290.89 0854.40
2009/04/23 14:35:55.5     137   -176     36    224    228 142.2   9.3  34246  291.03 0854.40
2009/04/23 14:35:55.6      72   -116    117    137    180 147.9  44.8  34246  291.04 0854.40
2009/04/23 14:35:55.7      36   -101    124    108    164 160.4  54.6  34260  291.28 0854.43
2009/04/23 14:35:55.8     -24    -73    153     78    171 198.7  71.4  34270  291.43 0854.43
2009/04/23 14:35:55.9    -184   -126      8    224    225 235.6   2.1  34264  291.35 0854.43
2009/04/23 14:35:56.0    -194   -115    -54    226    233 239.3 -13.4  34274  291.52 0854.43
2009/04/23 14:35:56.1    -109   -114    -48    158    166 223.7 -17.0  34274  291.50 0854.43
2009/04/23 14:35:56.2     -61    -33     -8     70     71 241.1  -7.2  34268  291.40 0854.43
2009/04/23 14:35:56.3     122      0    -20    123    125  90.0  -9.3  34268  291.42 0854.43
2009/04/23 14:35:56.4      17    -81    192     83    209 168.0  75.0  34264  291.33 0854.43
2009/04/23 14:35:56.5     -37   -192    276    196    338 190.9  61.2  34274  291.51 0854.43
2009/04/23 14:35:56.6       5   -144    150    145    208 177.8  50.9  34256  291.20 0854.43
2009/04/23 14:35:56.7     -31   -154     90    158    181 191.5  32.4  34242  290.98 0854.45
2009/04/23 14:35:56.8     -31   -173    119    176    212 190.2  37.3  34240  290.92 0854.45
2009/04/23 14:35:56.9     -81   -159    123    179    217 207.2  37.8  34238  290.89 0854.45
2009/04/23 14:35:57.0     -31   -250     86    252    267 187.1  18.9  34234  290.82 0854.45
2009/04/23 14:35:57.1     -34   -303    112    305    324 186.5  21.0  34234  290.83 0854.45
2009/04/23 14:35:57.2     -24   -308     66    310    318 184.5  12.1  34238  290.90 0854.45
2009/04/23 14:35:57.3      35   -254     90    257    273 172.0  19.4  34240  290.92 0854.45
2009/04/23 14:35:57.4      14   -241    154    242    286 176.5  35.5  34236  290.85 0854.45
2009/04/23 14:35:57.5     -14   -308    187    309    361 182.6  34.1  34224  290.66 0854.45
2009/04/23 14:35:57.6     -30   -340    197    342    394 185.1  32.6  34224  290.67 0854.45
2009/04/23 14:35:57.7     -57   -331    251    336    419 189.8  40.4  34222  290.62 0854.45
2009/04/23 14:35:57.8    -167   -309     35    352    354 208.4   5.8  34232  290.79 0854.45
2009/04/23 14:35:57.9    -205   -253     15    326    327 219.0   2.8  34234  290.83 0854.45
2009/04/23 14:35:58.0    -185   -184     71    262    272 225.1  15.2  34226  290.68 0854.45
2009/04/23 14:35:58.1     -38   -184    201    189    275 191.8  52.1  34238  290.88 0854.45
2009/04/23 14:35:58.2     -78   -148    150    168    225 207.9  46.4  34236  290.87 0854.45
2009/04/23 14:35:58.3     -72    -90    197    116    228 218.7  66.8  34246  291.03 0854.45
2009/04/23 14:35:58.4    -116   -133    167    177    243 221.2  48.5  34246  291.03 0854.45
2009/04/23 14:35:58.5     -60   -125    118    139    182 205.9  44.8  34240  290.94 0854.45
2009/04/23 14:35:58.6    -101   -104    190    146    239 224.1  58.5  34260  291.28 0854.45
2009/04/23 14:35:58.7     -68     -9    123     69    141 262.0  68.8  34272  291.47 0854.48
2009/04/23 14:35:58.8    -138    130    150    190    242 313.2  42.2  34272  291.49 0854.48
2009/04/23 14:35:58.9    -113    144    161    184    244 321.9  45.6  34266  291.37 0854.48
2009/04/23 14:35:59.0     -97     -5    107     98    145 267.0  52.2  34278  291.59 0854.48
2009/04/23 14:35:59.1      -8    -51    109     52    120 189.8  72.9  34274  291.52 0854.48
2009/04/23 14:35:59.2     -53    -25     84     59    102 244.8  61.1  34268  291.40 0854.48
2009/04/23 14:35:59.3       9    -68    142     69    157 172.0  72.4  34258  291.25 0854.48
2009/04/23 14:35:59.4     -71    -83    129    110    169 220.5  55.6  34254  291.16 0854.48
2009/04/23 14:35:59.5     -59   -106    102    122    159 209.0  44.3  34256  291.21 0854.48
2009/04/23 14:35:59.6      -6   -161    178    162    240 182.2  53.2  34240  290.92 0854.48
2009/04/23 14:35:59.7      25   -237    165    239    290 173.8  37.6  34246  291.02 0854.48
2009/04/23 14:35:59.8     129   -317    162    343    379 157.8  27.1  34242  290.96 0854.48
2009/04/23 14:35:59.9      81   -459    181    467    500 170.0  22.4  34222  290.62 0854.48
2009/04/23 14:36:00.0     244   -424    194    490    527 150.1  22.9  34214  290.49 0854.48
2009/04/23 14:36:00.1     237   -516    186    568    598 155.3  18.1  34208  290.37 0854.48
2009/04/23 14:36:00.2     253   -605    184    656    682 157.3  15.7  34206  290.34 0854.48
2009/04/23 14:36:00.3     222   -561    266    604    659 158.4  25.3  34198  290.21 0854.48
2009/04/23 14:36:00.4     343   -609    165    700    720 150.6  13.3  34206  290.35 0854.48
2009/04/23 14:36:00.5      91   -441    225    451    504 168.3  28.5  34212  290.47 0854.48
2009/04/23 14:36:00.6     159   -347    168    382    417 155.4  25.2  34216  290.53 0854.48
2009/04/23 14:36:00.7     147   -396    188    423    462 159.6  25.6  34228  290.73 0854.51
2009/04/23 14:36:00.8     -42   -325    139    328    356 187.4  24.3  34228  290.74 0854.51
2009/04/23 14:36:00.9     -57   -402    105    407    421 188.1  14.5  34244  291.01 0854.51
2009/04/23 14:36:01.0    -234   -399     22    463    464 210.4   2.8  34248  291.07 0854.51
2009/04/23 14:36:01.1    -146   -462    -35    485    487 197.6  -4.2  34246  291.02 0854.51
2009/04/23 14:36:01.2    -114   -495    -12    509    510 193.0  -1.4  34248  291.05 0854.51
2009/04/23 14:36:01.3     -94   -422    -49    433    436 192.6  -6.6  34262  291.29 0854.51
2009/04/23 14:36:01.4       3   -369     39    370    373 179.5   6.1  34254  291.17 0854.51
2009/04/23 14:36:01.5     124   -337    221    360    422 159.7  34.4  34222  290.61 0854.51
2009/04/23 14:36:01.6      28   -358    174    360    399 175.5  27.7  34208  290.40 0854.51
2009/04/23 14:36:01.7      30   -241    -28    243    245 172.9  -6.7  34228  290.73 0854.51
2009/04/23 14:36:01.8      60   -205    -27    214    216 163.5  -7.2  34232  290.81 0854.51
2009/04/23 14:36:01.9     102    -64    -38    121    127 122.4 -17.6  34230  290.77 0854.51
2009/04/23 14:36:02.0     141   -109     11    179    180 127.8   3.6  34218  290.55 0854.51
2009/04/23 14:36:02.1     236   -178      1    296    297 127.1   0.2  34224  290.66 0854.51
2009/04/23 14:36:02.2     129   -257    137    288    318 153.3  27.2  34226  290.68 0854.51
2009/04/23 14:36:02.3     168   -256    158    307    345 146.6  29.3  34220  290.59 0854.51
2009/04/23 14:36:02.4     225   -330    102    400    413 145.7  14.4  34226  290.68 0854.51
2009/04/23 14:36:02.5     155   -375     90    406    416 157.5  12.5  34220  290.60 0854.51
2009/04/23 14:36:02.6     204   -288    190    353    400 144.7  30.5  34218  290.55 0854.51
2009/04/23 14:36:02.7     329   -178     97    375    388 118.4  14.6  34218  290.57 0854.51
2009/04/23 14:36:02.8     275   -245    230    369    434 131.7  34.9  34200  290.26 0854.51
2009/04/23 14:36:02.9     356   -233    193    426    467 123.3  26.2  34206  290.34 0854.51
2009/04/23 14:36:03.0     381   -207    -20    434    435 118.6  -2.7  34204  290.31 0854.51
2009/04/23 14:36:03.1     264   -227    119    349    369 130.7  18.9  34202  290.27 0854.51
2009/04/23 14:36:03.2      21   -276    260    277    379 175.5  48.0  34198  290.23 0854.51
2009/04/23 14:36:03.3      -5   -294    144    295    328 181.0  27.9  34204  290.32 0854.51
2009/04/23 14:36:03.4      -4   -257    115    258    282 180.9  25.2  34204  290.32 0854.51
2009/04/23 14:36:03.5       4   -277    148    278    314 179.1  30.3  34212  290.44 0854.51
2009/04/23 14:36:03.6       7   -243     85    244    259 178.2  19.2  34216  290.53 0854.51
2009/04/23 14:36:03.7     -33   -171     63    175    185 191.1  20.2  34218  290.57 0854.51
2009/04/23 14:36:03.8     -26   -166     17    169    170 188.9   5.9  34216  290.53 0854.51
2009/04/23 14:36:03.9    -166    -35      6    170    171 257.8   2.3  34210  290.43 0854.51
2009/04/23 14:36:04.0    -172    102   -139    201    244 300.7 -42.8  34200  290.26 0854.51
2009/04/23 14:36:04.1    -259     52   -152    265    305 281.5 -36.8  34176  289.85 0854.51
2009/04/23 14:36:04.2    -271     69   -225    280    359 284.4 -47.3  34172  289.76 0854.51
2009/04/23 14:36:04.3    -213     58   -317    221    386 285.3 -66.2  34188  290.03 0854.51
2009/04/23 14:36:04.4     -51    -82     41     97    105 212.1  24.1  34196  290.19 0854.51
2009/04/23 14:36:04.5     -22   -293    122    294    318 184.5  23.8  34186  290.00 0854.51
2009/04/23 14:36:04.6       2   -109     85    110    139 178.6  41.7  34184  289.99 0854.51
2009/04/23 14:36:04.7    -120   -165    197    205    284 216.1  49.0  34190  290.09 0854.48
2009/04/23 14:36:04.8    -148   -208    273    256    374 215.4  52.1  34198  290.21 0854.48
2009/04/23 14:36:04.9      12   -160    203    161    259 175.5  57.5  34200  290.25 0854.48
2009/04/23 14:36:05.0    -105   -290    314    309    440 200.0  50.2  34224  290.66 0854.48
2009/04/23 14:36:05.1     123     61    319    138    347  63.4  75.3  34226  290.70 0854.48
2009/04/23 14:36:05.2     -41   -176    214    181    280 193.4  55.4  34196  290.17 0854.48
2009/04/23 14:36:05.3      55     24    121     61    135  66.5  71.4  34206  290.35 0854.48
2009/04/23 14:36:05.4      -6     17    -33     19     38 341.3 -69.1  34210  290.41 0854.48
2009/04/23 14:36:05.5    -162     12     13    163    164 274.4   4.9  34210  290.41 0854.48
2009/04/23 14:36:05.6     -67    -92     89    114    144 216.1  41.7  34212  290.47 0854.48
2009/04/23 14:36:05.7     -86   -119    108    148    183 216.0  39.7  34210  290.43 0854.48
2009/04/23 14:36:05.8     -49    -83     94     97    135 210.7  49.9  34212  290.45 0854.48
2009/04/23 14:36:05.9      -4   -173    303    174    349 181.6  67.6  34230  290.76 0854.48
2009/04/23 14:36:06.0     -84   -305    302    317    437 195.4  48.6  34216  290.52 0854.48
2009/04/23 14:36:06.1    -205   -391    244    442    504 207.7  31.4  34212  290.47 0854.48
2009/04/23 14:36:06.2    -167   -386    164    421    451 203.4  22.5  34210  290.43 0854.48
2009/04/23 14:36:06.3    -161   -244     80    293    304 213.4  15.3  34218  290.54 0854.48
2009/04/23 14:36:06.4    -218   -187     14    288    289 229.3   2.8  34210  290.41 0854.48
2009/04/23 14:36:06.5    -205   -367      8    421    422 209.2   1.1  34212  290.44 0854.48
2009/04/23 14:36:06.6    -249    -94    -80    267    279 249.2 -16.8  34212  290.44 0854.48
2009/04/23 14:36:06.7    -294    -18    -81    295    307 266.5 -15.4  34194  290.14 0854.43
2009/04/23 14:36:06.8    -348     22    -31    349    351 273.7  -5.1  34194  290.16 0854.43
2009/04/23 14:36:06.9    -379     58     -4    384    385 278.7  -0.7  34192  290.10 0854.43
2009/04/23 14:36:07.0    -373     31    120    375    394 274.8  17.8  34230  290.76 0854.43
2009/04/23 14:36:07.1    -347    -38    121    350    371 263.6  19.2  34238  290.91 0854.43
2009/04/23 14:36:07.2    -289    127    133    316    342 293.7  24.1  34210  290.42 0854.43
2009/04/23 14:36:07.3    -303      9      5    304    305 271.7   1.0  34200  290.26 0854.43
2009/04/23 14:36:07.4    -372    -28    -54    373    377 265.6  -8.4  34198  290.21 0854.43
2009/04/23 14:36:07.5    -294     51    -37    299    302 279.9  -7.2  34202  290.29 0854.43
2009/04/23 14:36:07.6    -345    182    -86    391    401 297.9 -12.5  34198  290.23 0854.43
2009/04/23 14:36:07.7    -345    185    -70    392    399 298.3 -10.2  34202  290.27 0854.43
2009/04/23 14:36:07.8    -313    196     18    370    371 302.0   2.8  34212  290.45 0854.43
2009/04/23 14:36:07.9    -408    103    -53    421    425 284.2  -7.2  34202  290.28 0854.43
2009/04/23 14:36:08.0    -301    189     -7    356    357 302.1  -1.3  34220  290.60 0854.43
2009/04/23 14:36:08.1    -272     90    132    287    315 288.4  26.3  34220  290.58 0854.43
2009/04/23 14:36:08.2    -161     96     65    188    200 300.9  19.2  34226  290.70 0854.43
2009/04/23 14:36:08.3    -135      2    149    136    201 270.9  52.7  34236  290.87 0854.43
2009/04/23 14:36:08.4    -114     37    123    121    172 288.2  50.1  34280  291.60 0854.43
2009/04/23 14:36:08.5    -168     39    146    173    226 283.3  44.1  34260  291.26 0854.43
2009/04/23 14:36:08.6    -339     21    -13    340    341 273.6  -2.2  34258  291.23 0854.43
2009/04/23 14:36:08.7    -208      3    -26    209    211 271.0  -7.3  34250  291.11 0854.42
2009/04/23 14:36:08.8    -132   -111    137    173    220 229.8  42.4  34262  291.30 0854.42
2009/04/23 14:36:08.9    -111    -84     75    140    158 232.7  30.6  34274  291.50 0854.42
2009/04/23 14:36:09.0     -58    -36    112     69    131 237.6  65.1  34282  291.64 0854.42
2009/04/23 14:36:09.1     -32     -8     98     34    103 254.9  81.2  34294  291.86 0854.42
2009/04/23 14:36:09.2      43     73    101     86    132  30.7  55.4  34256  291.21 0854.42
2009/04/23 14:36:09.3      50     68     94     85    126  36.5  52.7  34236  290.86 0854.42
2009/04/23 14:36:09.4     -30    179     74    182    196 350.4  23.4  34226  290.70 0854.42
2009/04/23 14:36:09.5      19    250    170    251    303   4.4  37.4  34222  290.63 0854.42
2009/04/23 14:36:09.6      -2    470    -28    471    472 359.7  -3.5  34222  290.61 0854.42
2009/04/23 14:36:09.7      58    413     -1    418    419   8.1  -0.3  34236  290.87 0854.42
2009/04/23 14:36:09.8      91    430     24    440    441  12.0   3.2  34256  291.21 0854.42
2009/04/23 14:36:09.9     126    430     36    449    451  16.4   4.7  34236  290.87 0854.42
2009/04/23 14:36:10.0     235    419    -60    481    485  29.3  -7.2  34256  291.20 0854.42
2009/04/23 14:36:10.1     180    508   -127    539    554  19.5 -13.3  34244  291.01 0854.42
2009/04/23 14:36:10.2     108    436   -107    450    463  14.0 -13.4  34206  290.34 0854.42
2009/04/23 14:36:10.3      94    353    -88    366    377  14.9 -13.6  34252  291.15 0854.42
2009/04/23 14:36:10.4     329    259    -16    420    421  51.8  -2.2  34286  291.70 0854.42
2009/04/23 14:36:10.5     252    304     19    396    397  39.6   2.8  34312  292.17 0854.42
2009/04/23 14:36:10.6     265    241    257    359    441  47.8  39.3  34336  292.57 0854.42
2009/04/23 14:36:10.7     270    313    288    414    504  40.8  38.3  34252  291.13 0854.39
2009/04/23 14:36:10.8     211    345    -29    405    406  31.4  -4.1  34230  290.77 0854.39
2009/04/23 14:36:10.9     430    162    -40    460    462  69.3  -5.1  34218  290.56 0854.39
2009/04/23 14:36:11.0     564    272    425    627    757  64.2  37.4  34258  291.25 0854.39
2009/04/23 14:36:11.1     599    182    320    627    703  73.1  29.2  34258  291.23 0854.39
2009/04/23 14:36:11.2     692    238    458    733    864  71.0  34.9  34234  290.82 0854.39
2009/04/23 14:36:11.3     535     89    695    543    881  80.5  58.2  34266  291.36 0854.39
2009/04/23 14:36:11.4     497     60    555    501    747  83.0  53.4  34256  291.21 0854.39
2009/04/23 14:36:11.5      37    250    141    253    289   8.5  31.4  34264  291.34 0854.39
2009/04/23 14:36:11.6     349    263   -114    438    453  53.0 -14.6  34260  291.28 0854.39
2009/04/23 14:36:11.7     570     66     93    574    582  83.3   9.2  34262  291.32 0854.39
2009/04/23 14:36:11.8     588     30    159    589    611  87.0  15.1  34292  291.82 0854.39
2009/04/23 14:36:11.9     583     44    259    585    639  85.6  25.6  34300  291.95 0854.39
2009/04/23 14:36:12.0     385    256    173    463    494  56.4  21.5  34228  290.74 0854.39
2009/04/23 14:36:12.1     219     98    127    241    272  65.8  30.2  34238  290.88 0854.39
2009/04/23 14:36:12.2     152    -59    -87    164    185 111.3 -34.5  34252  291.13 0854.39
2009/04/23 14:36:12.3     393    140    264    418    494  70.3  35.5  34208  290.39 0854.39
2009/04/23 14:36:12.4     353    330     60    484    488  46.9   7.1  34224  290.66 0854.39
2009/04/23 14:36:12.5     315    292     86    430    439  47.2  11.3  34214  290.50 0854.39
2009/04/23 14:36:12.6     338    287    104    444    457  49.7  13.2  34210  290.43 0854.39
2009/04/23 14:36:12.7     355    307    106    470    482  49.2  12.8  34198  290.22 0854.40
2009/04/23 14:36:12.8     427    309    134    528    545  54.1  14.3  34214  290.48 0854.40
2009/04/23 14:36:12.9     470    337    181    579    607  54.4  17.4  34212  290.46 0854.40
2009/04/23 14:36:13.0     431    246    196    497    534  60.2  22.8  34238  290.91 0854.40
2009/04/23 14:36:13.1     355    340    226    492    541  46.2  26.6  34298  291.93 0854.40
2009/04/23 14:36:13.2     356    370    238    514    566  43.9  26.6  34344  292.69 0854.40
2009/04/23 14:36:13.3     289    287    281    408    495  45.2  37.9  34358  292.94 0854.40
2009/04/23 14:36:13.4     213    313    278    379    470  34.3  40.0  34362  293.01 0854.40
2009/04/23 14:36:13.5     139    114    292    180    343  50.7  65.6  34370  293.13 0854.40
2009/04/23 14:36:13.6     -27    226    206    228    307 353.1  46.9  34346  292.74 0854.40
2009/04/23 14:36:13.7      -4    316    164    317    356 359.1  29.4  34362  292.99 0854.40
2009/04/23 14:36:13.8     381    116    171    399    434  73.1  24.8  34328  292.42 0854.40
2009/04/23 14:36:13.9     365    322    218    488    534  48.6  25.7  34288  291.75 0854.40
2009/04/23 14:36:14.0     453    317    173    554    581  55.0  17.4  34282  291.65 0854.40
2009/04/23 14:36:14.1     458    245    181    520    551  61.9  19.2  34290  291.79 0854.40
2009/04/23 14:36:14.2     452    265    189    525    557  59.6  20.6  34286  291.71 0854.40
2009/04/23 14:36:14.3     507    200    327    546    636  68.4  33.7  34308  292.09 0854.40
2009/04/23 14:36:14.4     546    211    260    586    641  68.8  25.6  34352  292.85 0854.40
2009/04/23 14:36:14.5     558    194    360    591    692  70.8  34.2  34344  292.71 0854.40
2009/04/23 14:36:14.6     574    165    314    598    675  74.0  30.0  34346  292.73 0854.40
2009/04/23 14:36:14.7     884    334    343    946   1006  69.3  20.9  34246  291.04 0854.42
2009/04/23 14:36:14.9     815    390    288    904    949  64.4  17.7  34190  290.08 0854.42
2009/04/23 14:36:14.9     854    386    288    938    982  65.7  17.1  34184  289.97 0854.42
2009/04/23 14:36:15.0     983    287    280   1025   1063  73.7  15.3  34180  289.92 0854.42
2009/04/23 14:36:15.1     873    303    251    925    959  70.8  15.2  34190  290.08 0854.42
2009/04/23 14:36:15.2     544    348    268    647    700  57.4  23.7  34188  290.04 0854.42
2009/04/23 14:36:15.4     331    251     89    416    426  52.8  12.1  34206  290.36 0854.42
2009/04/23 14:36:15.5     180    387    167    427    458  24.9  22.5  34204  290.31 0854.42
2009/04/23 14:36:15.5     116    577    154    589    609  11.4  14.7  34200  290.24 0854.42
2009/04/23 14:36:15.6     -73    598    100    603    612 353.0   9.5  34216  290.53 0854.42
2009/04/23 14:36:15.7     -53    580    101    583    592 354.7   9.9  34212  290.46 0854.42
2009/04/23 14:36:15.8    -124    478    -32    494    495 345.4  -3.7  34222  290.61 0854.42
2009/04/23 14:36:15.9    -283    443    -53    527    530 327.4  -5.8  34232  290.79 0854.42
2009/04/23 14:36:16.0    -198    427    -75    471    478 335.1  -9.1  34220  290.59 0854.42
2009/04/23 14:36:16.1    -205    355    -16    411    412 330.0  -2.2  34224  290.67 0854.42
2009/04/23 14:36:16.2    -241    186   -200    305    364 307.8 -40.7  34222  290.64 0854.42
2009/04/23 14:36:16.3    -169    281   -100    329    345 329.0 -16.9  34210  290.43 0854.42
2009/04/23 14:36:16.4    -234    164   -106    287    305 305.1 -25.4  34204  290.31 0854.42
2009/04/23 14:36:16.5    -277    179    -43    330    333 302.9  -7.6  34212  290.47 0854.42
2009/04/23 14:36:16.7     -50    261    128    266    295 349.1  27.3  34218  290.56 0854.41
2009/04/23 14:36:16.7     -50    268     74    273    283 349.4  15.2  34224  290.65 0854.41
2009/04/23 14:36:16.8    -136    239     -1    276    277 330.4  -0.3  34222  290.61 0854.41
2009/04/23 14:36:16.9       4    242    -83    243    256   1.1 -23.8  34216  290.53 0854.41
2009/04/23 14:36:17.0     -63    327   -102    334    349 349.0 -22.2  34198  290.23 0854.41
2009/04/23 14:36:17.1     -16    330   -118    331    351 357.1 -24.6  34202  290.28 0854.41
2009/04/23 14:36:17.2     200    255    -89    325    336  38.1 -20.0  34202  290.30 0854.41
2009/04/23 14:36:17.3      72    161    -63    177    189  24.1 -19.7  34194  290.14 0854.41
2009/04/23 14:36:17.4    -102    302   -119    319    340 341.3 -25.8  34196  290.18 0854.41
2009/04/23 14:36:17.5     -38    364   -124    367    387 354.0 -23.3  34194  290.16 0854.41
2009/04/23 14:36:17.6     121    322   -108    345    362  20.7 -17.5  34196  290.18 0854.41
2009/04/23 14:36:17.7     122    208    -80    242    255  30.5 -18.3  34200  290.26 0854.41
2009/04/23 14:36:17.8     223    186    -53    291    296  50.2 -10.4  34242  290.97 0854.41
2009/04/23 14:36:17.9     230    216   -105    316    332  46.9 -23.7  34192  290.10 0854.41
2009/04/23 14:36:18.0     250    222      2    335    336  48.3   0.5  34184  289.99 0854.41
2009/04/23 14:36:18.1     129    203    121    241    269  32.5  28.5  34200  290.24 0854.41
2009/04/23 14:36:18.2      89    264    115    279    301  18.7  23.4  34194  290.14 0854.41
2009/04/23 14:36:18.3     -56    275    119    281    305 348.4  24.3  34196  290.19 0854.41
2009/04/23 14:36:18.4     -63    340    195    346    397 349.4  31.9  34208  290.40 0854.41
2009/04/23 14:36:18.5     -69    316    170    324    365 347.6  30.0  34244  291.01 0854.41
2009/04/23 14:36:18.6    -270    252     20    370    371 313.1   3.1  34274  291.52 0854.41
2009/04/23 14:36:18.7    -220     89   -203    238    312 292.2 -49.2  34196  290.19 0854.37
2009/04/23 14:36:18.8    -303    -32    -65    305    313 263.9 -12.2  34214  290.48 0854.37
2009/04/23 14:36:18.9    -443      0    151    444    470 270.0  18.8  34224  290.65 0854.37
2009/04/23 14:36:19.0    -406   -225    109    465    478 241.0  13.3  34200  290.25 0854.37
2009/04/23 14:36:19.1    -529     44      6    531    532 274.8   0.7  34230  290.75 0854.37
2009/04/23 14:36:19.2    -530      0      7    531    532 269.9   0.8  34224  290.67 0854.37
2009/04/23 14:36:19.4    -477    243     70    536    541 297.0   7.5  34236  290.86 0854.37
2009/04/23 14:36:19.5    -412    284    -73    501    507 304.6  -8.4  34206  290.34 0854.37
2009/04/23 14:36:19.6    -365    214    -61    424    429 300.4  -8.2  34212  290.44 0854.37
2009/04/23 14:36:19.6    -291    175   -119    340    361 301.0 -19.3  34224  290.67 0854.37
2009/04/23 14:36:19.8    -325     72   -203    334    390 282.6 -38.6  34278  291.56 0854.34
2009/04/23 14:36:19.8    -300    100   -242    317    398 288.6 -45.6  34232  290.79 0854.34
2009/04/23 14:36:20.0    -106     82   -121    135    181 307.8 -51.3  34226  290.70 0854.34
2009/04/23 14:36:20.1    -264     13   -194    265    328 273.0 -44.3  34218  290.56 0854.34
2009/04/23 14:36:20.2    -202    198   -135    284    314 314.4 -31.6  34232  290.80 0854.34
2009/04/23 14:36:20.3    -103     34   -196    109    224 288.2 -73.2  34234  290.82 0854.34
2009/04/23 14:36:20.4       6     56    -61     57     83   6.2 -56.0  34232  290.81 0854.34
2009/04/23 14:36:20.5      12     24     -8     28     30  27.2 -15.5  34232  290.79 0854.34
2009/04/23 14:36:20.6      18     -6     69     19     71 108.4  84.8  34238  290.89 0854.34
2009/04/23 14:36:20.7     -71   -160    179    176    251 204.1  50.2  34252  291.13 0854.34
2009/04/23 14:36:20.8     173   -254    129    308    333 145.8  23.9  34266  291.36 0854.34
2009/04/23 14:36:20.9     103   -304    151    322    355 161.3  27.0  34258  291.25 0854.34
2009/04/23 14:36:21.0      52   -194    238    202    312 164.9  55.5  34256  291.21 0854.34
2009/04/23 14:36:21.1     108   -252    178    275    327 156.8  35.9  34260  291.26 0854.34
2009/04/23 14:36:21.2      42   -303    219    307    377 172.0  39.2  34250  291.11 0854.34
2009/04/23 14:36:21.3      16   -358     80    359    368 177.3  12.6  34258  291.22 0854.34
2009/04/23 14:36:21.4      60     -2    203     61    211  92.6  82.8  34258  291.23 0854.34
2009/04/23 14:36:21.5      43    -85    -87     96    129 153.3 -51.9  34246  291.04 0854.34
2009/04/23 14:36:21.6       6     51     61     52     80   7.1  55.4  34252  291.15 0854.34
2009/04/23 14:36:21.7    -112    -57    147    126    193 242.9  55.0  34272  291.47 0854.34
2009/04/23 14:36:21.8    -282      8     24    283    285 271.7   4.9  34262  291.29 0854.40
2009/04/23 14:36:21.9    -308     77    -26    318    320 284.2  -4.8  34254  291.17 0854.40
2009/04/23 14:36:22.0    -418    -78      8    426    427 259.4   1.1  34256  291.21 0854.40
2009/04/23 14:36:22.1    -406   -296    103    503    514 233.9  11.7  34248  291.08 0854.40
2009/04/23 14:36:22.2    -400    -68     98    406    418 260.3  13.7  34252  291.12 0854.40
2009/04/23 14:36:22.3    -291    -25    129    293    320 265.0  25.2  34258  291.22 0854.40
2009/04/23 14:36:22.4    -245    -87    115    261    285 250.3  25.2  34266  291.36 0854.40
2009/04/23 14:36:22.5    -289   -188     97    346    360 236.9  15.8  34254  291.17 0854.40
2009/04/23 14:36:22.6     -88    -80    -43    120    128 227.8 -19.7  34236  290.87 0854.40
2009/04/23 14:36:22.7     117     16    120    119    169  82.0  49.9  34246  291.03 0854.40
2009/04/23 14:36:22.8    -125    -34    118    130    175 254.5  47.1  34238  290.91 0854.40
2009/04/23 14:36:22.9    -258    -43    140    262    297 260.4  30.6  34242  290.97 0854.40
2009/04/23 14:36:23.0     -45   -163     90    170    192 195.4  30.3  34240  290.92 0854.40
2009/04/23 14:36:23.1     -24   -226    179    228    289 186.2  42.2  34238  290.90 0854.40
2009/04/23 14:36:23.2    -190   -121    203    226    303 237.4  46.6  34248  291.07 0854.40
2009/04/23 14:36:23.3    -369      6    128    370    392 271.0  19.1  34278  291.59 0854.40
2009/04/23 14:36:23.4    -345     64    159    351    385 280.6  26.2  34250  291.11 0854.40
2009/04/23 14:36:23.5    -313    142     -1    344    345 294.5  -0.3  34260  291.27 0854.40
2009/04/23 14:36:23.6    -233    280   -107    365    380 320.3 -21.4  34248  291.05 0854.40
2009/04/23 14:36:23.7     -78     66   -128    103    164 310.4 -61.5  34254  291.16 0854.40
2009/04/23 14:36:23.8    -161    -30    -27    164    167 259.2  -9.6  34254  291.18 0854.41
2009/04/23 14:36:23.9    -208    -70     39    220    224 251.4  10.1  34238  290.91 0854.41
2009/04/23 14:36:24.0    -167   -133     -4    214    215 231.4  -1.3  34242  290.98 0854.41
2009/04/23 14:36:24.1    -241   -114   -179    267    321 244.7 -41.4  34242  290.97 0854.41
2009/04/23 14:36:24.2    -132   -185    -98    228    248 215.6 -29.3  34238  290.88 0854.41
2009/04/23 14:36:24.3    -169   -264   -149    314    347 212.6 -31.6  34240  290.94 0854.41
2009/04/23 14:36:24.4    -134   -164   -180    212    278 219.2 -49.2  34248  291.07 0854.41
2009/04/23 14:36:24.5    -242    -40   -133    246    279 260.5 -35.2  34248  291.05 0854.41
2009/04/23 14:36:24.6    -229     54   -152    236    280 283.3 -40.0  34244  290.99 0854.41
2009/04/23 14:36:24.7     -28    -35   -182     46    187 218.7 -90.0  34252  291.13 0854.41
2009/04/23 14:36:24.8    -201   -211   -125    292    317 223.7 -28.9  34238  290.90 0854.41
2009/04/23 14:36:24.9    -270   -252    -42    370    373 227.0  -6.6  34236  290.86 0854.41
2009/04/23 14:36:25.0    -241   -152     14    285    286 237.8   2.9  34254  291.17 0854.41
2009/04/23 14:36:25.1    -147    -58     -1    159    160 248.3  -0.7  34250  291.09 0854.41
2009/04/23 14:36:25.2    -209    -89    -45    228    233 246.9 -11.3  34248  291.06 0854.41
2009/04/23 14:36:25.3    -142    -56     48    153    161 248.3  17.7  34254  291.16 0854.41
2009/04/23 14:36:25.4    -146   -127    119    194    227 228.9  34.8  34266  291.38 0854.41
2009/04/23 14:36:25.5    -147   -129    132    196    236 228.7  37.3  34264  291.33 0854.41
2009/04/23 14:36:25.6    -146   -189     84    239    254 217.8  19.4  34258  291.22 0854.41
2009/04/23 14:36:25.7     -56   -170    117    180    214 198.3  35.6  34258  291.23 0854.41
2009/04/23 14:36:25.8     -40   -132     76    139    158 197.0  31.0  34252  291.15 0854.38
2009/04/23 14:36:25.9    -131   -135     24    189    191 224.1   7.5  34250  291.09 0854.38
2009/04/23 14:36:26.0     -82    -50    102     97    140 238.5  52.1  34262  291.32 0854.38
2009/04/23 14:36:26.1     -35    -34     40     50     64 226.0  43.7  34264  291.35 0854.38
2009/04/23 14:36:26.2     -20     32     48     38     61 327.4  56.4  34272  291.47 0854.38
2009/04/23 14:36:26.3      -7     23     53     25     58 341.5  73.1  34278  291.59 0854.38
2009/04/23 14:36:26.4    -116    -59     81    131    154 243.0  35.5  34274  291.50 0854.38
2009/04/23 14:36:26.5     -75    -52    142     92    169 235.4  64.1  34278  291.59 0854.38
2009/04/23 14:36:26.6     -17    -26    112     32    116 212.6  83.3  34286  291.71 0854.38
2009/04/23 14:36:26.7    -119     30     90    123    152 284.2  39.7  34278  291.57 0854.38
2009/04/23 14:36:26.8     -76   -119    173    142    223 212.6  56.4  34286  291.72 0854.38
2009/04/23 14:36:26.9     -96   -136    126    167    209 215.2  40.9  34284  291.67 0854.38
2009/04/23 14:36:27.0      49     -9     98     50    110 101.5  71.4  34294  291.84 0854.38
2009/04/23 14:36:27.1      22   -184    169    186    251 172.9  47.0  34292  291.81 0854.38
2009/04/23 14:36:27.2      16   -315    166    316    356 177.1  30.0  34250  291.11 0854.38
2009/04/23 14:36:27.3      28   -381    137    382    405 175.7  20.4  34250  291.10 0854.38
2009/04/23 14:36:27.4       1   -360    235    361    430 179.8  36.3  34244  291.01 0854.38
2009/04/23 14:36:27.5     -49   -284    212    289    358 189.8  39.9  34244  291.00 0854.38
2009/04/23 14:36:27.6     -91   -309     93    323    337 196.5  16.1  34244  291.00 0854.38
2009/04/23 14:36:27.7    -205   -295    181    360    402 214.7  28.6  34270  291.45 0854.38
2009/04/23 14:36:27.8    -325   -219    266    393    474 236.0  37.4  34294  291.84 0854.40
2009/04/23 14:36:27.9    -220   -220    151    312    346 225.0  27.7  34272  291.47 0854.40
2009/04/23 14:36:28.0     -45   -292    210    296    362 188.9  39.0  34252  291.15 0854.40
2009/04/23 14:36:28.1      26   -339    197    341    393 175.5  32.7  34258  291.22 0854.40
2009/04/23 14:36:28.2    -123   -323     95    346    359 201.0  15.4  34250  291.10 0854.40
2009/04/23 14:36:28.3    -178   -184    101    257    276 224.1  22.8  34260  291.27 0854.40
2009/04/23 14:36:28.4    -194   -182    131    267    297 226.8  28.2  34268  291.39 0854.40
2009/04/23 14:36:28.5    -183   -188    -62    263    271 224.1 -13.4  34270  291.44 0854.40
2009/04/23 14:36:28.6    -203   -147    -31    252    255 234.0  -7.2  34274  291.51 0854.40
2009/04/23 14:36:28.7    -264   -264      6    374    375 225.0   1.0  34264  291.35 0854.40
2009/04/23 14:36:28.8    -112   -135     49    176    183 219.7  15.6  34264  291.33 0854.40
2009/04/23 14:36:28.9    -143    -40    173    149    228 254.1  55.0  34290  291.79 0854.40
2009/04/23 14:36:29.0    -159    -89    131    183    225 240.9  39.5  34286  291.72 0854.40
2009/04/23 14:36:29.1    -239    -48    -13    244    245 258.5  -3.2  34290  291.78 0854.40
2009/04/23 14:36:29.2    -401   -105    -18    415    416 255.3  -2.6  34264  291.33 0854.40
2009/04/23 14:36:29.3    -299    -60    -99    306    322 258.6 -18.0  34266  291.36 0854.40
2009/04/23 14:36:29.4    -121   -178     95    216    235 214.1  25.2  34264  291.33 0854.40
2009/04/23 14:36:29.5    -125   -137    153    186    240 222.5  43.7  34270  291.43 0854.40
2009/04/23 14:36:29.6    -334   -276     41    434    437 230.4   5.5  34252  291.14 0854.40
2009/04/23 14:36:29.7    -414   -158     36    444    446 249.1   4.7  34224  290.67 0854.40
2009/04/23 14:36:29.8    -495    -48     15    498    499 264.4   1.8  34248  291.08 0854.41
2009/04/23 14:36:29.9    -516    -23   -136    517    535 267.4 -14.8  34230  290.75 0854.41
2009/04/23 14:36:30.0    -587    104   -118    597    609 280.1 -11.2  34230  290.75 0854.41
2009/04/23 14:36:30.1    -453     77   -168    460    489 279.7 -25.4  34280  291.61 0854.41
2009/04/23 14:36:30.2    -433    211    -96    482    492 296.0 -11.3  34290  291.78 0854.41
2009/04/23 14:36:30.3    -325    179     89    372    383 298.9  13.6  34268  291.39 0854.41
2009/04/23 14:36:30.4    -380    163    108    414    428 293.3  14.7  34284  291.67 0854.41
2009/04/23 14:36:30.5    -255    193     52    320    325 307.1   9.2  34272  291.48 0854.41
2009/04/23 14:36:30.6    -243    201    116    316    336 309.5  21.1  34278  291.56 0854.41
2009/04/23 14:36:30.7    -243    268    177    363    403 317.8  27.9  34286  291.71 0854.41
2009/04/23 14:36:30.8    -285    301    156    415    443 316.6  21.5  34312  292.16 0854.41
2009/04/23 14:36:30.9    -268    357    117    447    463 323.1  14.7  34282  291.63 0854.41
2009/04/23 14:36:31.0    -352    317    134    474    493 312.0  15.8  34278  291.58 0854.41
2009/04/23 14:36:31.1    -316    388     87    501    509 320.8   9.9  34316  292.21 0854.41
2009/04/23 14:36:31.2    -391    378     65    545    549 314.0   6.9  34328  292.42 0854.41
2009/04/23 14:36:31.3    -372    325     97    495    505 311.2  11.1  34292  291.80 0854.41
2009/04/23 14:36:31.4    -211    321     89    385    396 326.7  13.1  34292  291.81 0854.41
2009/04/23 14:36:31.5    -214    303     91    372    384 324.8  13.8  34272  291.49 0854.41
2009/04/23 14:36:31.6     -26    267    108    269    289 354.4  23.0  34266  291.38 0854.41
2009/04/23 14:36:31.7      -5    287    145    288    322 358.9  28.6  34280  291.60 0854.41
2009/04/23 14:36:31.8      59    280    195    287    346  12.0  37.4  34292  291.80 0854.43
2009/04/23 14:36:31.9      90    226    222    244    329  21.9  47.0  34292  291.82 0854.43
2009/04/23 14:36:32.0     112    172    159    206    260  33.2  41.6  34294  291.85 0854.43
2009/04/23 14:36:32.1      77    173    148    190    240  24.1  42.0  34290  291.77 0854.43
2009/04/23 14:36:32.2     -23    304    123    306    329 355.5  22.9  34278  291.56 0854.43
2009/04/23 14:36:32.3     107     94    182    143    231  48.6  57.9  34278  291.59 0854.43
2009/04/23 14:36:32.4     170    193    165    258    306  41.5  35.6  34274  291.50 0854.43
2009/04/23 14:36:32.5      94    225     97    244    262  22.7  23.0  34272  291.48 0854.43
2009/04/23 14:36:32.6      42    232     75    236    248  10.5  17.7  34278  291.58 0854.43
2009/04/23 14:36:32.7      53    289    112    294    314  10.5  21.8  34282  291.65 0854.43
2009/04/23 14:36:32.8      97    224    155    245    289  23.4  35.5  34278  291.58 0854.43
2009/04/23 14:36:32.9     128    201    108    239    262  32.6  25.9  34276  291.53 0854.43
2009/04/23 14:36:33.0     139    336    102    364    379  22.5  15.7  34280  291.62 0854.43
2009/04/23 14:36:33.1      38    337    -55    340    345   6.5  -9.3  34292  291.83 0854.43
2009/04/23 14:36:33.2      85    334     40    345    348  14.4   6.7  34292  291.81 0854.43
2009/04/23 14:36:33.3      84    238     26    253    255  19.4   5.9  34292  291.82 0854.43
2009/04/23 14:36:33.4      50    240    111    246    269  11.8  26.2  34310  292.11 0854.43
2009/04/23 14:36:33.5     317    149    219    351    413  64.8  35.0  34340  292.63 0854.43
2009/04/23 14:36:33.6     225    185     -6    292    293  50.5  -1.3  34316  292.21 0854.43
2009/04/23 14:36:33.7     249    123     90    278    293  63.6  17.9  34292  291.80 0854.43
2009/04/23 14:36:33.8     367     80      3    376    377  77.6   0.5  34308  292.08 0854.43
2009/04/23 14:36:33.9     241    142    108    280    300  59.4  22.1  34342  292.65 0854.43
2009/04/23 14:36:34.0     223    246    128    333    356  42.2  22.2  34328  292.41 0854.43
2009/04/23 14:36:34.1     218    270    181    348    392  39.0  29.5  34318  292.27 0854.43
2009/04/23 14:36:34.2     373    307     72    484    490  50.5   8.5  34338  292.60 0854.43
2009/04/23 14:36:34.3     360    142    117    388    406  68.4  16.8  34374  293.21 0854.43
2009/04/23 14:36:34.4     443    189    144    482    504  66.8  16.7  34368  293.11 0854.43
2009/04/23 14:36:34.5     413    158     69    443    449  69.0   8.9  34336  292.55 0854.43
2009/04/23 14:36:34.6     493     96    186    503    536  78.9  21.1  34304  292.01 0854.43
2009/04/23 14:36:34.7     337    251     27    421    422  53.4   3.8  34310  292.11 0854.43
2009/04/23 14:36:34.8     402    226     57    462    466  60.6   7.1  34282  291.63 0854.43
2009/04/23 14:36:34.9     422    130    104    442    455  72.8  13.3  34358  292.93 0854.43
2009/04/23 14:36:35.0     396    210      5    449    450  62.1   0.7  34308  292.09 0854.43
2009/04/23 14:36:35.1     321    148    -11    354    355  65.3  -1.9  34302  291.97 0854.43
2009/04/23 14:36:35.2     320    149     35    354    356  65.0   5.8  34302  291.98 0854.43
2009/04/23 14:36:35.3     489    213    264    534    595  66.5  28.2  34350  292.79 0854.43
2009/04/23 14:36:35.4     537    218    336    580    670  67.9  32.8  34318  292.24 0854.43
2009/04/23 14:36:35.5     598    212    398    635    749  70.5  35.1  34302  291.98 0854.43
2009/04/23 14:36:35.6     381     -6    437    382    580  91.0  54.4  34314  292.20 0854.43
2009/04/23 14:36:35.7     216   -150    220    264    343 124.9  44.0  34294  291.85 0854.43
2009/04/23 14:36:35.8     471    -88    282    480    556 100.6  33.3  34290  291.77 0854.46
2009/04/23 14:36:35.9     354   -106    312    370    483 106.8  44.4  34286  291.72 0854.46
2009/04/23 14:36:36.0     454     34    362    456    582  85.6  42.7  34308  292.08 0854.46
2009/04/23 14:36:36.1     346     94    302    359    469  74.8  44.3  34302  291.98 0854.46
2009/04/23 14:36:36.2     407   -137    361    430    561 108.7  44.3  34296  291.88 0854.46
2009/04/23 14:36:36.3     365   -184    273    409    491 116.8  37.0  34288  291.73 0854.46
2009/04/23 14:36:36.4     279     -2    268    280    387  90.6  48.7  34272  291.47 0854.46
2009/04/23 14:36:36.5     337   -149    130    369    391 113.9  20.1  34268  291.40 0854.46
2009/04/23 14:36:36.6     318   -114     -3    339    340 109.8  -0.6  34240  290.94 0854.46
2009/04/23 14:36:36.7     331    -58     46    337    341 100.0   7.8  34248  291.08 0854.46
2009/04/23 14:36:36.8     269   -112      4    292    293 112.6   0.8  34272  291.48 0854.46
2009/04/23 14:36:36.9     209    -29     56    212    220  98.0  15.0  34268  291.42 0854.46
2009/04/23 14:36:37.0     205    -35     11    208    209  99.7   3.1  34270  291.45 0854.46
2009/04/23 14:36:37.1     217     29     11    219    220  82.3   2.9  34268  291.42 0854.46
2009/04/23 14:36:37.2     172    -41    111    177    208 103.7  35.5  34276  291.54 0854.46
2009/04/23 14:36:37.3     164    -52     80    173    190 107.5  27.0  34276  291.55 0854.46
2009/04/23 14:36:37.4     128    -53     71    139    156 112.6  29.1  34280  291.60 0854.46
2009/04/23 14:36:37.5     164   -198     84    258    272 140.3  18.1  34282  291.65 0854.46
2009/04/23 14:36:37.6     206   -241    142    318    348 139.5  25.8  34310  292.12 0854.46
2009/04/23 14:36:37.7     200   -226    136    302    331 138.5  25.9  34316  292.21 0854.46
2009/04/23 14:36:37.8     168   -255     59    306    312 146.6  11.0  34318  292.26 0854.45
2009/04/23 14:36:37.9     106   -241     27    264    266 156.2   5.9  34308  292.07 0854.45
2009/04/23 14:36:38.0      18   -238     47    239    244 175.6  11.1  34320  292.30 0854.45
2009/04/23 14:36:38.1      -6   -219     36    220    224 181.6   9.3  34322  292.34 0854.45
2009/04/23 14:36:38.2       8   -161    -12    162    163 176.9  -4.4  34324  292.35 0854.45
2009/04/23 14:36:38.3     124   -194     -4    231    232 147.3  -1.2  34326  292.40 0854.45
2009/04/23 14:36:38.4     117   -269     -6    294    295 156.4  -1.3  34332  292.48 0854.45
2009/04/23 14:36:38.5     -32   -157      0    161    162 191.8   0.2  34340  292.63 0854.45
2009/04/23 14:36:38.6    -110   -246    132    270    300 204.1  28.0  34328  292.43 0854.45
2009/04/23 14:36:38.7      26   -129    217    132    253 168.4  65.7  34308  292.10 0854.45
2009/04/23 14:36:38.8     -32    -43    -18     54     56 217.0 -23.6  34322  292.32 0854.45
2009/04/23 14:36:38.9    -108   -339    -72    356    364 197.7 -11.5  34228  290.74 0854.45
2009/04/23 14:36:39.0    -112   -446    -59    460    464 194.2  -7.3  34268  291.41 0854.45
2009/04/23 14:36:39.1     -93   -430     21    441    442 192.3   2.8  34270  291.43 0854.45
2009/04/23 14:36:39.2    -583   -230    -46    628    630 248.4  -4.2  34294  291.84 0854.45
2009/04/23 14:36:39.3    -634   -254   -209    684    716 248.2 -17.0  34220  290.59 0854.45
2009/04/23 14:36:39.4    -527   -318   -169    616    638 238.9 -20.0  34204  290.33 0854.45
2009/04/23 14:36:39.5    -446   -368   -167    579    602 230.5 -20.9  34208  290.37 0854.45
2009/04/23 14:36:39.6    -419   -315   -163    525    550 233.0 -17.3  34206  290.36 0854.45
2009/04/23 14:36:39.7    -412   -210   -122    463    479 242.9 -14.8  34202  290.29 0854.45
2009/04/23 14:36:39.8    -286   -202    -73    351    359 234.7 -11.8  34232  290.79 0854.46
2009/04/23 14:36:39.9    -221   -171     54    280    286 232.3  11.0  34238  290.90 0854.46
2009/04/23 14:36:40.0    -361   -176     93    402    413 243.9  13.1  34212  290.44 0854.46
2009/04/23 14:36:40.1    -208   -328     33    389    391 212.5   4.9  34208  290.38 0854.46
2009/04/23 14:36:40.2    -295   -209      7    362    363 234.6   1.1  34212  290.47 0854.46
2009/04/23 14:36:40.3    -176   -166    -31    243    245 226.7  -7.3  34216  290.53 0854.46
2009/04/23 14:36:40.4    -213   -256   -108    334    352 219.8 -17.9  34212  290.47 0854.46
2009/04/23 14:36:40.5    -346   -391   -156    523    546 221.5 -16.7  34202  290.30 0854.46
2009/04/23 14:36:40.6    -317   -217   -210    385    438 235.6 -35.7  34220  290.58 0854.46
2009/04/23 14:36:40.7    -310   -234     84    389    399 232.9  12.2  34232  290.79 0854.46
2009/04/23 14:36:40.8    -448   -200   -121    491    506 245.9 -13.9  34212  290.44 0854.48
2009/04/23 14:36:40.9    -500   -181   -229    532    579 250.1 -29.2  34218  290.55 0854.48
2009/04/23 14:36:41.0    -327    107   -126    345    367 288.2 -25.3  34210  290.42 0854.48
2009/04/23 14:36:41.1    -558   -164   -105    582    592 253.6 -10.3  34232  290.78 0854.48
2009/04/23 14:36:41.2    -411    -88   -116    421    437 257.9 -15.4  34230  290.75 0854.48
2009/04/23 14:36:41.3    -325      0    145    326    356 270.0  25.3  34254  291.17 0854.48
2009/04/23 14:36:41.4    -118   -297    114    320    339 201.8  20.3  34242  290.98 0854.48
2009/04/23 14:36:41.5    -276   -162    -65    321    328 239.6 -11.6  34234  290.82 0854.48
2009/04/23 14:36:41.6    -244   -101   -207    265    336 247.4 -46.4  34224  290.65 0854.48
2009/04/23 14:36:41.7    -176    -98    -13    202    203 240.7  -3.7  34230  290.75 0854.48
2009/04/23 14:36:41.8    -248    -81     15    262    263 251.8   3.3  34230  290.76 0854.48
2009/04/23 14:36:41.9    -188   -138     56    234    241 233.8  13.5  34238  290.88 0854.48
2009/04/23 14:36:42.0    -213    -91     85    232    247 246.7  21.0  34246  291.04 0854.48
2009/04/23 14:36:42.1    -214      0     98    215    236 270.1  26.2  34244  291.01 0854.48
2009/04/23 14:36:42.2     -63   -159    161    172    235 201.8  47.9  34234  290.84 0854.48
2009/04/23 14:36:42.3     -55   -162    108    172    203 198.9  35.5  34232  290.81 0854.48
2009/04/23 14:36:42.4      -3   -265    -48    266    271 180.7 -10.3  34236  290.87 0854.48
2009/04/23 14:36:42.5      75   -194   -158    209    262 158.8 -45.1  34236  290.85 0854.48
2009/04/23 14:36:42.6    -132   -177    -54    221    228 216.7 -13.9  34240  290.92 0854.48
2009/04/23 14:36:42.7    -125    -76    -68    147    161 238.5 -30.8  34240  290.94 0854.48
2009/04/23 14:36:42.8     -83    -20   -125     86    151 256.3 -67.0  34242  290.98 0854.53
2009/04/23 14:36:42.9     -59    -38   -150     71    165 236.7 -77.6  34246  291.03 0854.53
2009/04/23 14:36:43.0     -84     95    -49    127    136 318.6 -26.4  34238  290.89 0854.53
2009/04/23 14:36:43.1    -162      6      0    163    164 272.4  -0.3  34236  290.87 0854.53
2009/04/23 14:36:43.2    -181    124     10    220    221 304.4   2.8  34242  290.96 0854.53
2009/04/23 14:36:43.3    -183    100     93    209    228 298.9  25.7  34238  290.89 0854.53
2009/04/23 14:36:43.4    -299    113     42    320    323 290.8   7.6  34256  291.21 0854.53
2009/04/23 14:36:43.5    -261    145     64    299    306 299.1  12.1  34264  291.33 0854.53
2009/04/23 14:36:43.6    -154     36     97    159    186 283.2  34.8  34246  291.03 0854.53
2009/04/23 14:36:43.7    -209     81     67    225    235 291.3  16.6  34238  290.89 0854.53
2009/04/23 14:36:43.8    -253     80     51    266    271 287.5  11.0  34240  290.92 0854.53
2009/04/23 14:36:43.9    -217     16     65    218    228 274.4  16.8  34234  290.84 0854.53
2009/04/23 14:36:44.0    -117   -170    -48    207    213 214.7 -13.3  34236  290.86 0854.53
2009/04/23 14:36:44.1    -134   -194    -48    237    243 214.7 -11.6  34234  290.83 0854.53
2009/04/23 14:36:44.2    -105   -223      0    247    248 205.2   0.0  34234  290.83 0854.53
2009/04/23 14:36:44.3    -208    -56   -134    216    254 254.9 -39.4  34242  290.95 0854.53
2009/04/23 14:36:44.4    -100   -181   -151    208    257 209.0 -44.1  34254  291.17 0854.53
2009/04/23 14:36:44.5    -175   -117    -58    211    219 236.3 -15.5  34250  291.09 0854.53
2009/04/23 14:36:44.6    -229     -7      0    230    231 268.1   0.0  34250  291.11 0854.53
2009/04/23 14:36:44.8    -173    -69    -23    187    189 248.2  -7.2  34254  291.18 0854.53
2009/04/23 14:36:44.8    -351   -186   -129    398    418 242.1 -23.2  34256  291.21 0854.50
2009/04/23 14:36:44.9    -327    -17   -148    328    359 267.0 -30.3  34250  291.10 0854.50
2009/04/23 14:36:45.0    -229   -113   -110    256    278 243.6 -29.5  34262  291.31 0854.50
2009/04/23 14:36:45.1    -256    -81     32    269    271 252.3   6.9  34246  291.02 0854.50
2009/04/23 14:36:45.2    -334   -104    -19    350    351 252.7  -3.2  34248  291.05 0854.50
2009/04/23 14:36:45.3    -327   -117    -64    348    354 250.2 -10.5  34234  290.84 0854.50
2009/04/23 14:36:45.4    -373   -129   -120    395    414 250.8 -17.0  34220  290.60 0854.50
2009/04/23 14:36:45.5    -242    -43      3    246    247 259.9   0.8  34244  290.99 0854.50
2009/04/23 14:36:45.7    -298    -22      3    299    300 265.6   0.7  34282  291.65 0854.50
2009/04/23 14:36:45.8    -189    -33    106    192    219 259.9  31.4  34270  291.43 0854.50
2009/04/23 14:36:45.8    -190    -27     29    192    195 261.9   8.8  34264  291.33 0854.50
2009/04/23 14:36:46.0    -170   -170   -119    241    268 225.0 -32.6  34266  291.38 0854.50
2009/04/23 14:36:46.1    -187    -98   -162    212    266 242.2 -45.8  34278  291.56 0854.50
2009/04/23 14:36:46.2     -20    -77   -160     80    178 195.1 -76.1  34274  291.52 0854.50
2009/04/23 14:36:46.3      34   -164   -151    168    225 168.2 -51.0  34272  291.49 0854.50
2009/04/23 14:36:46.4      81   -158   -186    178    257 152.8 -55.8  34248  291.07 0854.50
2009/04/23 14:36:46.5      96    -96   -181    136    226 134.9 -63.6  34258  291.25 0854.50
2009/04/23 14:36:46.6     140    -99   -154    172    230 125.5 -51.0  34242  290.98 0854.50
2009/04/23 14:36:46.7     120    -83   -102    147    178 124.6 -42.8  34252  291.15 0854.50
2009/04/23 14:36:46.8     108    -78    -55    134    144 125.9 -27.4  34256  291.20 0854.50
2009/04/23 14:36:46.9     164    -59    -54    175    184 110.0 -17.3  34258  291.23 0854.45
2009/04/23 14:36:47.0     217    -30    -42    220    225  98.0 -10.9  34250  291.09 0854.45
2009/04/23 14:36:47.1     107   -105   -107    151    185 134.4 -43.2  34262  291.30 0854.45
2009/04/23 14:36:47.2     126   -165   -139    208    250 142.6 -41.1  34266  291.36 0854.45
2009/04/23 14:36:47.3     216   -142    -81    259    271 123.3 -22.8  34258  291.22 0854.45
2009/04/23 14:36:47.4     183   -167    -60    248    256 132.4 -13.7  34236  290.85 0854.45
2009/04/23 14:36:47.5     167   -173    -52    241    247 135.9 -12.2  34232  290.80 0854.45
2009/04/23 14:36:47.6     209   -193    -57    285    291 132.7 -11.5  34228  290.71 0854.45
2009/04/23 14:36:47.7     267   -243    -14    362    363 132.3  -2.2  34222  290.62 0854.45
2009/04/23 14:36:47.8     313   -237    -22    393    394 127.1  -3.3  34220  290.59 0854.45
2009/04/23 14:36:47.9     326   -171    -27    369    370 117.7  -4.2  34222  290.64 0854.45
2009/04/23 14:36:48.0     288   -153     10    327    328 118.0   1.9  34232  290.80 0854.45
2009/04/23 14:36:48.1     272   -173     22    323    324 122.4   4.0  34228  290.71 0854.45
2009/04/23 14:36:48.2     295   -133    113    324    344 114.4  19.2  34224  290.67 0854.45
2009/04/23 14:36:48.3     269    -96    107    286    305 109.7  21.3  34226  290.70 0854.45
2009/04/23 14:36:48.4     249    -75    159    261    305 106.9  34.4  34222  290.61 0854.45
2009/04/23 14:36:48.5     225   -146    111    269    291 123.1  23.8  34230  290.76 0854.45
2009/04/23 14:36:48.6     166    -91    186    190    265 118.9  49.4  34230  290.76 0854.45
2009/04/23 14:36:48.7     185    -49     18    192    193 105.0   5.4  34230  290.77 0854.45
2009/04/23 14:36:48.8     221    -73     88    233    249 108.4  21.5  34236  290.87 0854.45
2009/04/23 14:36:48.9     169    -72    121    184    220 113.1  36.3  34234  290.84 0854.42
2009/04/23 14:36:49.0     103    -75    113    128    170 126.0  45.8  34238  290.89 0854.42
2009/04/23 14:36:49.1     132    -57     94    144    171 113.5  36.0  34234  290.84 0854.42
2009/04/23 14:36:49.2     108    -28     74    112    134 105.0  36.0  34234  290.82 0854.42
2009/04/23 14:36:49.3      94    -36     52    101    113 111.3  28.7  34238  290.91 0854.42
2009/04/23 14:36:49.4      10    -52     57     54     78 168.5  51.6  34238  290.91 0854.42
2009/04/23 14:36:49.5     -12    -37     88     39     96 198.3  74.5  34254  291.16 0854.42
2009/04/23 14:36:49.6      -3     63     48     64     80 357.3  40.7  34244  290.99 0854.42
2009/04/23 14:36:49.7     -26    -78    114     83    141 198.3  60.5  34230  290.77 0854.42
2009/04/23 14:36:49.8       1    -59    126     60    139 178.2  72.8  34242  290.96 0854.42
2009/04/23 14:36:49.9      -6    -28    102     29    106 193.4  84.4  34260  291.28 0854.42
2009/04/23 14:36:50.0      -1     33     81     34     87 357.4  76.6  34274  291.50 0854.42
2009/04/23 14:36:50.1       0     -2    108      3    108 189.7  90.0  34274  291.50 0854.42
2009/04/23 14:36:50.2      20    -27    159     34    162 143.9  88.5  34276  291.54 0854.42
2009/04/23 14:36:50.3     -86   -103    197    135    238 219.6  62.4  34258  291.23 0854.42
2009/04/23 14:36:50.4     -98   -111    175    149    229 221.4  55.6  34258  291.25 0854.42
2009/04/23 14:36:50.5    -101   -115    173    154    231 221.4  54.0  34252  291.15 0854.42
2009/04/23 14:36:50.6    -190   -138    203    235    310 234.0  45.4  34264  291.34 0854.42
2009/04/23 14:36:50.7     -95    -83    170    127    212 229.1  59.8  34246  291.04 0854.42
2009/04/23 14:36:50.8    -229     -2    134    230    266 269.4  32.9  34268  291.41 0854.42
2009/04/23 14:36:50.9    -225     33    129    228    261 278.4  32.1  34266  291.38 0854.42
2009/04/23 14:36:51.0    -178    132      1    223    224 306.6   0.5  34256  291.21 0854.42
2009/04/23 14:36:51.1    -213     95      0    234    235 294.0   0.0  34262  291.29 0854.42
2009/04/23 14:36:51.2     -96    109    -33    146    150 318.5 -12.9  34266  291.38 0854.42
2009/04/23 14:36:51.3    -117     73    -41    139    144 302.0 -21.7  34250  291.11 0854.42
2009/04/23 14:36:51.4     -40    113    -36    120    126 340.4 -17.0  34258  291.25 0854.42
2009/04/23 14:36:51.5      53     63     -3     83     84  40.5  -2.2  34274  291.50 0854.42
2009/04/23 14:36:51.6      65    129     65    145    158  26.7  25.9  34270  291.43 0854.42
2009/04/23 14:36:51.7     126     30    131    130    184  76.3  49.9  34258  291.25 0854.42
2009/04/23 14:36:51.8     110    -74    139    133    192 124.1  51.2  34248  291.08 0854.42
2009/04/23 14:36:51.9      56     -4    103     57    117  94.3  68.8  34250  291.11 0854.42
2009/04/23 14:36:52.0     -23    -17     72     29     77 234.0  77.1  34272  291.47 0854.42
2009/04/23 14:36:52.1      21     19     22     29     36  48.7  41.7  34272  291.47 0854.42
2009/04/23 14:36:52.2      18     25     76     31     82  36.1  77.1  34264  291.35 0854.42
2009/04/23 14:36:52.3      99      5    109    100    147  87.0  52.2  34256  291.21 0854.42
2009/04/23 14:36:52.4     116      8     53    117    128  85.7  26.2  34248  291.08 0854.42
2009/04/23 14:36:52.5      62    -39     24     74     79 122.5  18.4  34258  291.25 0854.42
2009/04/23 14:36:52.6      -8    -47      4     48     49 189.8   4.9  34254  291.16 0854.42
2009/04/23 14:36:52.7     -57    -47     49     75     89 230.5  36.0  34260  291.26 0854.42
2009/04/23 14:36:52.8    -138    -71     92    156    181 242.9  33.1  34282  291.64 0854.42
2009/04/23 14:36:52.9     -70    -15     68     72     99 257.6  48.5  34292  291.83 0854.43
2009/04/23 14:36:53.0    -103    -21     94    106    141 258.5  46.4  34300  291.96 0854.43
2009/04/23 14:36:53.1    -158     -9     42    159    165 266.5  15.0  34292  291.83 0854.43
2009/04/23 14:36:53.2     -76     19     76     79    109 284.2  49.0  34290  291.79 0854.43
2009/04/23 14:36:53.3     -56     46     66     73     98 309.5  47.5  34286  291.71 0854.43
2009/04/23 14:36:53.4     -38     79     58     88    105 334.1  36.0  34282  291.64 0854.43
2009/04/23 14:36:53.5      93    112     76    146    164  39.7  29.8  34272  291.49 0854.43
2009/04/23 14:36:53.6     124    128     48    179    186  44.1  15.2  34276  291.55 0854.43
2009/04/23 14:36:53.7     182    108     41    212    217  59.3  11.1  34280  291.60 0854.43
2009/04/23 14:36:53.8       4    111    155    112    191   2.2  60.6  34292  291.81 0854.43
2009/04/23 14:36:53.9     -39    117     98    124    158 341.3  42.4  34284  291.69 0854.43
2009/04/23 14:36:54.0     -58     49     98     77    124 310.4  58.4  34296  291.89 0854.43
2009/04/23 14:36:54.1     -19     53     89     57    105 340.0  64.6  34300  291.96 0854.43
2009/04/23 14:36:54.2    -105    -62     82    123    147 239.3  36.5  34298  291.93 0854.43
2009/04/23 14:36:54.3     -66   -103    107    123    163 212.5  45.8  34298  291.91 0854.43
2009/04/23 14:36:54.4    -128     71     34    147    151 298.9  13.2  34320  292.30 0854.43
2009/04/23 14:36:54.5    -139    -88     65    165    177 237.6  22.8  34314  292.20 0854.43
2009/04/23 14:36:54.6    -165   -161    139    231    269 225.8  34.0  34274  291.51 0854.43
2009/04/23 14:36:54.7     -84   -162    100    183    208 207.6  31.0  34252  291.15 0854.43
2009/04/23 14:36:54.8    -109   -126    149    167    223 220.8  46.4  34280  291.62 0854.43
2009/04/23 14:36:54.9     -96   -116    137    151    203 219.6  47.5  34282  291.64 0854.46
2009/04/23 14:36:55.0     -52   -120    141    131    192 203.6  52.2  34260  291.26 0854.46
2009/04/23 14:36:55.1     -84   -171    164    191    251 206.3  44.9  34272  291.46 0854.46
2009/04/23 14:36:55.2     -58   -186    177    195    263 197.4  47.0  34280  291.61 0854.46
2009/04/23 14:36:55.3     -39    -94    160    103    190 202.7  64.6  34294  291.86 0854.46
2009/04/23 14:36:55.4     -10    -99    111    100    149 186.2  53.3  34306  292.05 0854.46
2009/04/23 14:36:55.5     -23   -116     76    119    141 191.6  35.5  34306  292.05 0854.46
2009/04/23 14:36:55.6       0    -62     47     63     78 180.0  41.2  34334  292.52 0854.46
2009/04/23 14:36:55.7      59      4     54     60     80  85.7  46.9  34344  292.71 0854.46
2009/04/23 14:36:55.8     127     30     19    131    133  76.3   8.5  34354  292.86 0854.46
2009/04/23 14:36:55.9     185     67     91    198    217  70.0  26.4  34370  293.15 0854.46
2009/04/23 14:36:56.0     216     49     43    222    227  77.0  11.0  34382  293.34 0854.46
2009/04/23 14:36:56.1     101     22     35    104    111  77.6  18.9  34384  293.39 0854.46
2009/04/23 14:36:56.2      63     46      6     79     80  54.1   4.4  34392  293.51 0854.46
2009/04/23 14:36:56.3       0     60     24     61     65 359.1  23.0  34384  293.39 0854.46
2009/04/23 14:36:56.4      59     41     74     73    103  54.9  49.7  34394  293.55 0854.46
2009/04/23 14:36:56.5     113      5    153    114    190  87.4  59.8  34382  293.36 0854.46
2009/04/23 14:36:56.6     181    -19    161    183    243  96.1  45.9  34370  293.14 0854.46
2009/04/23 14:36:56.7     126     -4    164    127    207  92.1  58.5  34370  293.15 0854.46
2009/04/23 14:36:56.8     210     43    181    215    281  78.3  44.5  34372  293.16 0854.46
2009/04/23 14:36:56.9     195     63    216    205    297  72.1  52.0  34386  293.42 0854.45
2009/04/23 14:36:57.0     158     53    201    167    261  71.2  56.3  34380  293.30 0854.45
2009/04/23 14:36:57.1      91    -30    136     97    167 108.6  61.1  34390  293.50 0854.45
2009/04/23 14:36:57.2      87    -47    140     99    171 118.4  61.3  34368  293.10 0854.45
2009/04/23 14:36:57.3     -33     36    147     50    155 317.7  81.2  34364  293.05 0854.45
2009/04/23 14:36:57.4      54     97    140    112    179  29.0  57.1  34334  292.52 0854.45
2009/04/23 14:36:57.5      26    192    113    194    224   7.8  33.1  34274  291.52 0854.45
2009/04/23 14:36:57.6      36    140    113    145    183  14.7  42.0  34322  292.32 0854.45
2009/04/23 14:36:57.7     108     37    163    115    199  70.9  61.3  34334  292.54 0854.45
2009/04/23 14:36:57.8     212     67    163    223    276  72.5  39.7  34362  293.01 0854.45
2009/04/23 14:36:57.9     254    141     92    291    306  60.9  17.7  34362  293.01 0854.45
2009/04/23 14:36:58.0     228     75    138    241    277  71.8  32.4  34370  293.13 0854.45
2009/04/23 14:36:58.1     264     45    132    268    298  80.3  28.2  34364  293.05 0854.45
2009/04/23 14:36:58.2     221    -23    121    223    253  96.1  31.3  34358  292.94 0854.45
2009/04/23 14:36:58.3     113    117    116    163    200  43.9  39.1  34368  293.10 0854.45
2009/04/23 14:36:58.4     255     51    197    261    327  78.5  40.9  34408  293.80 0854.45
2009/04/23 14:36:58.5     277     46    211    281    351  80.5  40.8  34430  294.17 0854.45
2009/04/23 14:36:58.6     279     93    262    295    394  71.6  46.2  34420  294.01 0854.45
2009/04/23 14:36:58.7     211    121    218    244    327  60.2  46.5  34416  293.93 0854.45
2009/04/23 14:36:58.8     202    128    211    240    319  57.6  45.8  34416  293.92 0854.45
2009/04/23 14:36:58.9     202    128    173    240    295  57.6  39.5  34420  294.00 0854.46
2009/04/23 14:36:59.0     242     96    183    261    318  68.2  38.6  34426  294.10 0854.46
2009/04/23 14:36:59.1     241    107    110    264    286  66.0  24.1  34398  293.61 0854.46
2009/04/23 14:36:59.2     256     93    125    273    300  70.0  26.2  34392  293.52 0854.46
2009/04/23 14:36:59.3     315     13    134    316    343  87.5  24.3  34384  293.38 0854.46
2009/04/23 14:36:59.4     276    -55    160    282    324 101.4  32.1  34330  292.45 0854.46
2009/04/23 14:36:59.5     295    -22     74    296    306  94.4  14.2  34314  292.18 0854.46
2009/04/23 14:36:59.6     332    -22    118    333    354  93.8  19.6  34308  292.10 0854.46
2009/04/23 14:36:59.7     294    -59    169    300    344 101.5  31.7  34290  291.79 0854.46
2009/04/23 14:36:59.8     298    -42     54    302    307  98.0  10.2  34288  291.75 0854.46
2009/04/23 14:36:59.9     249    -13    210    250    326  93.0  44.3  34284  291.67 0854.46
2009/04/23 14:37:00.0     248     -3    209    249    325  90.8  44.3  34306  292.04 0854.46
2009/04/23 14:37:00.1     200    -33    166    203    262  99.5  43.7  34332  292.50 0854.46
2009/04/23 14:37:00.2       5    -35     81     36     88 172.0  74.5  34362  293.02 0854.46
2009/04/23 14:37:00.3      66   -130     77    146    165 152.9  30.1  34360  292.98 0854.46
2009/04/23 14:37:00.4     127   -155    173    201    265 140.6  44.9  34272  291.48 0854.46
2009/04/23 14:37:00.5     141   -229    171    269    318 148.4  35.5  34330  292.45 0854.46
2009/04/23 14:37:00.6     149   -191    197    243    312 142.2  43.3  34366  293.08 0854.46
2009/04/23 14:37:00.7     157   -161    165    226    279 135.7  39.7  34280  291.61 0854.46
2009/04/23 14:37:00.8     127   -152    172    199    263 140.1  45.4  34264  291.34 0854.46
2009/04/23 14:37:00.9     164   -152    148    224    268 132.9  36.5  34254  291.16 0854.48
2009/04/23 14:37:01.0     207   -155    136    259    292 126.9  30.1  34258  291.22 0854.48
2009/04/23 14:37:01.1     241   -164    127    292    318 124.2  25.0  34256  291.19 0854.48
2009/04/23 14:37:01.2     231   -143    139    272    305 121.8  29.2  34254  291.17 0854.48
2009/04/23 14:37:01.3     231    -56    185    238    301 103.7  41.7  34262  291.31 0854.48
2009/04/23 14:37:01.4     217    -71    146    229    271 108.2  35.5  34258  291.22 0854.48
2009/04/23 14:37:01.5     235    -58    158    243    289 103.9  36.0  34254  291.17 0854.48
2009/04/23 14:37:01.6     274      0    170    275    323  90.0  34.8  34258  291.24 0854.48
2009/04/23 14:37:01.7     286    -11    142    287    320  92.4  28.2  34266  291.36 0854.48
2009/04/23 14:37:01.8     301    -11    145    302    335  92.1  27.3  34256  291.19 0854.48
2009/04/23 14:37:01.9     350     71    123    358    379  78.5  19.1  34238  290.88 0854.48
2009/04/23 14:37:02.0     300     17    129    301    327  86.6  24.6  34264  291.34 0854.48
2009/04/23 14:37:02.1     252     86    185    267    324  71.2  38.0  34236  290.85 0854.48
2009/04/23 14:37:02.2     275     73    218    285    358  75.0  41.3  34228  290.74 0854.48
2009/04/23 14:37:02.3     218    123    240    251    347  60.5  48.6  34250  291.10 0854.48
2009/04/23 14:37:02.4     200    -27    224    202    301  97.9  53.3  34248  291.07 0854.48
2009/04/23 14:37:02.5     136      8    217    137    256  86.5  64.7  34254  291.16 0854.48
2009/04/23 14:37:02.6     110    -15    222    112    248  98.0  71.4  34260  291.28 0854.48
2009/04/23 14:37:02.7      50     16    173     53    180  71.8  82.3  34270  291.45 0854.48
2009/04/23 14:37:02.8     144   -121    122    189    224 130.2  35.6  34248  291.06 0854.48
2009/04/23 14:37:02.9     197   -117    115    230    257 120.7  28.5  34258  291.24 0854.50
2009/04/23 14:37:03.0     199    -60    124    209    243 106.9  33.5  34256  291.21 0854.50
2009/04/23 14:37:03.1     249     80     61    262    270  72.2  13.2  34252  291.12 0854.50
2009/04/23 14:37:03.2     266    137     92    300    314  62.7  17.1  34286  291.72 0854.50
2009/04/23 14:37:03.3     217     61     93    226    244  74.3  23.4  34268  291.41 0854.50
2009/04/23 14:37:03.4     274    100     52    292    297  70.0  10.1  34336  292.57 0854.50
2009/04/23 14:37:03.5     341    136    122    368    388  68.2  18.4  34328  292.41 0854.50
2009/04/23 14:37:03.6     341    106     98    358    372  72.7  15.3  34306  292.05 0854.50
2009/04/23 14:37:03.7     340    122    146    362    390  70.2  23.1  34328  292.42 0854.50
2009/04/23 14:37:03.8     345    124    114    367    385  70.2  17.3  34384  293.38 0854.50
2009/04/23 14:37:03.9     282    161     58    326    332  60.2  10.2  34386  293.40 0854.47
2009/04/23 14:37:04.0     276     81     48    288    292  73.6   9.5  34384  293.39 0854.47
2009/04/23 14:37:04.1     299    111     33    320    322  69.6   5.9  34360  292.96 0854.47
2009/04/23 14:37:04.2     243     49     58    248    255  78.6  13.2  34346  292.72 0854.47
2009/04/23 14:37:04.3     336     33    118    338    359  84.3  19.3  34346  292.75 0854.47
2009/04/23 14:37:04.4     333     19    118    334    355  86.6  19.6  34342  292.66 0854.47
2009/04/23 14:37:04.5     329     22     99    330    345  86.1  16.7  34336  292.56 0854.47
2009/04/23 14:37:04.6     191      0     81    192    208  90.0  24.1  34350  292.81 0854.47
2009/04/23 14:37:04.7     274     20    177    275    327  85.7  35.7  34350  292.81 0854.47
2009/04/23 14:37:04.8     239     40     88    243    258  80.4  20.7  34358  292.94 0854.47
2009/04/23 14:37:04.9     363     53      6    367    368  81.7   1.0  34338  292.61 0854.47
2009/04/23 14:37:05.0     279     91    -37    294    297  71.8  -7.3  34320  292.30 0854.47
2009/04/23 14:37:05.1     142    152     -8    209    210  43.0  -2.2  34320  292.29 0854.47
2009/04/23 14:37:05.2     168     18    -18    170    172  83.6  -6.2  34284  291.69 0854.47
2009/04/23 14:37:05.3      91     91     15    130    131  45.0   6.9  34282  291.64 0854.47
2009/04/23 14:37:05.4      10    168    -53    169    178   3.6 -17.6  34300  291.95 0854.47
2009/04/23 14:37:05.5      82    221     59    237    245  20.5  14.2  34272  291.46 0854.47
2009/04/23 14:37:05.6     148    261      0    301    302  29.6   0.0  34282  291.65 0854.47
2009/04/23 14:37:05.7     161    125    156    205    257  52.2  40.9  34296  291.87 0854.47
2009/04/23 14:37:05.8     160    104    120    192    226  56.9  35.5  34294  291.84 0854.47
2009/04/23 14:37:05.9     270     52    -19    276    277  79.0  -4.1  34274  291.51 0854.49
2009/04/23 14:37:06.0     278     99    -32    296    298  70.3  -6.2  34266  291.38 0854.49
2009/04/23 14:37:06.1     268     57     23    275    277  77.8   4.9  34272  291.48 0854.49
2009/04/23 14:37:06.2     291     98    -39    308    311  71.4  -7.3  34266  291.36 0854.49
2009/04/23 14:37:06.3     213    124     25    247    249  59.8   5.9  34316  292.23 0854.49
2009/04/23 14:37:06.4     186    201     76    274    285  42.8  15.6  34384  293.37 0854.49
2009/04/23 14:37:06.5     135    206     74    247    258  33.4  16.8  34376  293.25 0854.49
2009/04/23 14:37:06.6     143    142      8    202    203  45.3   2.3  34314  292.20 0854.49
2009/04/23 14:37:06.7     163    128     53    208    215  51.8  14.3  34280  291.62 0854.49
2009/04/23 14:37:06.8     212    121      9    245    246  60.3   2.1  34284  291.68 0854.49
2009/04/23 14:37:06.9     246     72    -76    257    269  73.6 -16.6  34258  291.24 0854.49
2009/04/23 14:37:07.0     234     48    -84    240    255  78.3 -19.4  34274  291.50 0854.49
2009/04/23 14:37:07.1     205     48    -59    211    220  76.7 -15.8  34288  291.76 0854.49
2009/04/23 14:37:07.2     185    152    -17    240    241  50.5  -4.1  34360  292.98 0854.49
2009/04/23 14:37:07.3     174    109    -29    206    209  58.0  -8.0  34338  292.59 0854.49
2009/04/23 14:37:07.4     241     76    -18    253    254  72.3  -4.1  34320  292.28 0854.49
2009/04/23 14:37:07.5     223     68    -75    234    246  72.9 -17.9  34276  291.53 0854.49
2009/04/23 14:37:07.6     241     76     -9    253    254  72.3  -2.2  34312  292.14 0854.49
2009/04/23 14:37:07.7     348     60   -112    354    372  80.2 -17.6  34278  291.57 0854.49
2009/04/23 14:37:07.8     308     83   -102    320    335  74.9 -22.8  34262  291.32 0854.49
2009/04/23 14:37:07.9     239     77   -107    252    273  72.1 -28.7  34264  291.34 0854.51
2009/04/23 14:37:08.0     213    -54     34    220    223 104.4   8.9  34264  291.33 0854.51
2009/04/23 14:37:08.1     233    -25     46    235    240  96.2  11.1  34268  291.39 0854.51
2009/04/23 14:37:08.2     198    -14     98    199    221  94.3  28.0  34278  291.59 0854.51
2009/04/23 14:37:08.3     255      9     65    256    265  87.9  14.3  34296  291.87 0854.51
2009/04/23 14:37:08.4     232    -44    101    237    257 100.8  24.3  34288  291.75 0854.51
2009/04/23 14:37:08.5     188    -59     86    198    215 107.5  25.1  34288  291.74 0854.51
2009/04/23 14:37:08.6     289     -4     36    290    293  90.9   7.1  34312  292.16 0854.51
2009/04/23 14:37:08.7     276      3    100    277    294  89.2  20.9  34316  292.21 0854.51
2009/04/23 14:37:08.8     240     15    102    241    261  86.3  24.1  34314  292.19 0854.51
2009/04/23 14:37:08.9     221     16     69    222    233  85.7  17.4  34328  292.42 0854.51
2009/04/23 14:37:09.0     151     11     26    152    155  85.6   9.9  34318  292.27 0854.51
2009/04/23 14:37:09.1     152     11     21    153    155  85.6   7.8  34306  292.05 0854.51
2009/04/23 14:37:09.2     172     33     -3    176    177  79.2  -1.3  34300  291.95 0854.51
2009/04/23 14:37:09.3     182     50     76    189    203  74.5  23.0  34332  292.49 0854.51
2009/04/23 14:37:09.4     170     40     81    175    192  76.7  27.0  34346  292.73 0854.51
2009/04/23 14:37:09.5     176     29     51    179    187  80.5  16.0  34316  292.22 0854.51
2009/04/23 14:37:09.6     167     23     91    169    191  81.9  31.0  34344  292.69 0854.51
2009/04/23 14:37:09.7     190      0     97    191    214  90.0  29.2  34324  292.35 0854.51
2009/04/23 14:37:09.8     191    -26      5    193    194  97.9   1.6  34280  291.60 0854.51
2009/04/23 14:37:09.9     162     14     66    163    175  84.8  23.0  34332  292.51 0854.49
2009/04/23 14:37:10.0     178      7     70    179    192  87.6  22.5  34336  292.58 0854.49
2009/04/23 14:37:10.1     114      8      9    115    116  85.6   4.9  34270  291.45 0854.49
2009/04/23 14:37:10.2     117     31     25    122    125  75.0  11.6  34316  292.23 0854.49
2009/04/23 14:37:10.3      69     15     74     71    102  77.6  51.2  34364  293.05 0854.49
2009/04/23 14:37:10.4     107     -6    138    108    175  93.5  57.9  34334  292.52 0854.49
2009/04/23 14:37:10.5     198     30     39    201    205  81.2  11.1  34260  291.28 0854.49
2009/04/23 14:37:10.6     125     11     85    126    151  84.8  37.4  34298  291.93 0854.49
2009/04/23 14:37:10.7     156     36     78    161    178  76.8  27.4  34296  291.89 0854.49
2009/04/23 14:37:10.8     120     16     43    122    130  82.1  19.4  34286  291.72 0854.49
2009/04/23 14:37:10.9      78    -26     29     83     88 108.4  19.4  34302  292.00 0854.49
2009/04/23 14:37:11.0     108    -36     65    114    131 108.4  32.4  34330  292.46 0854.49
2009/04/23 14:37:11.1      81     -5     56     82     99  93.9  38.0  34332  292.51 0854.49
2009/04/23 14:37:11.2      50      5     27     51     57  83.9  30.3  34330  292.47 0854.49
2009/04/23 14:37:11.3      25    -36     37     45     58 144.8  43.8  34354  292.88 0854.49
2009/04/23 14:37:11.4      43    -24     47     50     68 119.8  49.0  34372  293.17 0854.49
2009/04/23 14:37:11.5      23     -7     37     25     44 108.4  63.6  34380  293.31 0854.49
2009/04/23 14:37:11.6       0     -7     33      8     33 182.7  86.9  34388  293.46 0854.49
2009/04/23 14:37:11.7     -26     -8     38     28     47 251.6  59.4  34374  293.22 0854.49
2009/04/23 14:37:11.8     -65    -17     37     68     77 254.9  31.3  34368  293.10 0854.49
2009/04/23 14:37:11.9     -62    -24     29     67     73 248.3  25.1  34366  293.07 0854.45
2009/04/23 14:37:12.0     -81    -19     -3     84     85 256.7  -2.2  34354  292.88 0854.45
2009/04/23 14:37:12.1     -77    -21    -10     80     81 254.5  -7.7  34350  292.80 0854.45
2009/04/23 14:37:12.2     -88    -53    -28    103    107 238.9 -15.4  34316  292.23 0854.45
2009/04/23 14:37:12.4     -80    -54    -70     97    119 235.8 -43.9  34286  291.72 0854.45
2009/04/23 14:37:12.4    -127    -38    -95    133    163 253.1 -43.5  34248  291.08 0854.45
2009/04/23 14:37:12.5    -105    -50    -85    117    144 244.6 -44.1  34238  290.91 0854.45
2009/04/23 14:37:12.7     -59    -42    -95     73    119 234.0 -62.9  34238  290.91 0854.45
2009/04/23 14:37:12.8     -89    -24    -72     93    117 254.9 -46.1  34274  291.52 0854.45
2009/04/23 14:37:12.9     -85    -14    -33     87     93 260.3 -25.9  34298  291.93 0854.45
2009/04/23 14:37:13.0     -75     15    -20     77     80 281.5 -14.5  34308  292.08 0854.45
2009/04/23 14:37:13.1     -73     76    -27    106    110 316.3 -14.5  34290  291.79 0854.45
2009/04/23 14:37:13.2    -100     71    -24    123    126 305.5 -11.3  34296  291.89 0854.45
2009/04/23 14:37:13.3     -88     82    -19    121    123 313.2  -9.3  34294  291.84 0854.45
2009/04/23 14:37:13.4    -103     80    -15    131    132 307.7  -6.7  34296  291.89 0854.45
2009/04/23 14:37:13.5    -107     77     -7    133    134 305.9  -3.2  34302  291.98 0854.45
2009/04/23 14:37:13.6     -95     31    -68    101    121 288.2 -41.8  34294  291.84 0854.45
2009/04/23 14:37:13.7    -141      0    -95    142    170 270.4 -41.1  34262  291.30 0854.45
2009/04/23 14:37:13.8    -140     28    -77    143    162 281.5 -35.2  34262  291.32 0854.45
2009/04/23 14:37:13.9    -155     51    -60    164    174 288.4 -24.8  34276  291.54 0854.45
2009/04/23 14:37:14.0    -159     31    -53    163    172 281.2 -18.1  34282  291.66 0854.45
2009/04/23 14:37:14.1    -119     44    -89    128    155 290.4 -42.0  34276  291.54 0854.45
2009/04/23 14:37:14.2    -130     30    -30    134    138 283.3 -12.9  34270  291.43 0854.45
2009/04/23 14:37:14.3     -92     28    -94     97    135 286.8 -54.3  34292  291.83 0854.45
2009/04/23 14:37:14.4     -67     47   -101     83    130 305.1 -60.8  34266  291.38 0854.45
2009/04/23 14:37:14.5     -95     21   -110     98    147 282.8 -58.1  34272  291.47 0854.45
2009/04/23 14:37:14.6     -80     29    -66     86    108 290.0 -46.1  34278  291.57 0854.45
2009/04/23 14:37:14.7     -62     64    -81     90    121 315.9 -51.3  34306  292.05 0854.45
2009/04/23 14:37:14.8    -105     50    -90    117    147 295.8 -46.1  34276  291.55 0854.45
2009/04/23 14:37:14.9    -150     16    -54    151    160 276.2 -24.6  34252  291.13 0854.45
2009/04/23 14:37:15.0    -140    -10    -84    141    164 265.6 -38.1  34266  291.37 0854.45
2009/04/23 14:37:15.1    -143     86      8    168    169 301.1   2.9  34298  291.93 0854.45
2009/04/23 14:37:15.2    -110     65    -37    129    135 300.7 -16.0  34308  292.10 0854.45
2009/04/23 14:37:15.3    -144     11    -47    145    153 274.4 -17.9  34232  290.81 0854.45
2009/04/23 14:37:15.4    -198    -31    -80    201    216 261.0 -27.4  34236  290.87 0854.45
2009/04/23 14:37:15.5    -232    -64    -98    241    260 254.5 -27.5  34246  291.02 0854.45
2009/04/23 14:37:15.6    -221    -87    -75    238    250 248.3 -17.6  34238  290.90 0854.45
2009/04/23 14:37:15.7    -228    -79    -79    242    255 250.9 -18.1  34248  291.07 0854.45
2009/04/23 14:37:15.8    -196    -71    -69    209    220 250.0 -23.8  34230  290.75 0854.45
2009/04/23 14:37:15.9    -204    -72    -85    217    233 250.5 -26.9  34226  290.69 0854.45
2009/04/23 14:37:16.0    -176    -65    -89    188    208 249.6 -31.5  34232  290.81 0854.43
2009/04/23 14:37:16.1    -213    -71   -110    225    250 251.6 -32.2  34276  291.53 0854.43
2009/04/23 14:37:16.2    -113    -82   -101    140    172 234.0 -43.5  34282  291.66 0854.43
2009/04/23 14:37:16.3     -54    -57     16     79     81 223.7  11.6  34286  291.71 0854.43
2009/04/23 14:37:16.4     -66   -160     66    174    186 202.3  22.0  34288  291.74 0854.43
2009/04/23 14:37:16.5     -81    -92    102    123    159 221.4  44.1  34304  292.03 0854.43
2009/04/23 14:37:16.6     -35   -176     97    180    204 191.5  30.8  34304  292.03 0854.43
2009/04/23 14:37:16.7     -13   -135     86    136    160 185.8  35.5  34304  292.01 0854.43
2009/04/23 14:37:16.8      24   -144    -26    147    150 170.2 -10.3  34292  291.81 0854.43
2009/04/23 14:37:16.9     -25   -157     -5    160    161 189.3  -1.8  34296  291.89 0854.43
2009/04/23 14:37:17.0     -47   -177     -5    184    185 194.9  -1.6  34302  291.98 0854.43
2009/04/23 14:37:17.1     -16   -164     44    165    171 185.6  15.0  34312  292.15 0854.43
2009/04/23 14:37:17.2     -42   -159     57    165    175 194.9  19.2  34314  292.20 0854.43
2009/04/23 14:37:17.3     -59   -147     81    159    178 201.9  29.3  34314  292.20 0854.43
2009/04/23 14:37:17.4    -114   -192     28    224    226 210.8   7.2  34324  292.35 0854.43
2009/04/23 14:37:17.5      64   -204     50    214    220 162.4  13.2  34286  291.71 0854.43
2009/04/23 14:37:17.6      22   -225     42    227    231 174.2  10.6  34280  291.62 0854.43
2009/04/23 14:37:17.7       2   -196    -39    197    201 179.3 -11.3  34286  291.72 0854.43
2009/04/23 14:37:17.8      57   -211    -50    219    225 164.9 -12.9  34292  291.83 0854.43
2009/04/23 14:37:17.9      86   -197    -21    216    218 156.4  -5.6  34294  291.86 0854.43
2009/04/23 14:37:18.0     105   -216    -38    241    245 154.1  -9.0  34298  291.90 0854.44
2009/04/23 14:37:18.1      25   -135   -146    138    200 169.3 -56.4  34320  292.30 0854.44
2009/04/23 14:37:18.2      44   -147   -102    154    184 163.1 -40.9  34306  292.06 0854.44
2009/04/23 14:37:18.3      78   -158    -60    177    186 153.5 -23.3  34288  291.76 0854.44
2009/04/23 14:37:18.4      60   -148    -50    160    167 157.7 -22.5  34296  291.89 0854.44
2009/04/23 14:37:18.5      69   -125    -28    143    146 151.1 -11.3  34304  292.03 0854.44
2009/04/23 14:37:18.6      58   -118     -9    132    133 153.7  -4.1  34312  292.15 0854.44
2009/04/23 14:37:18.7      73   -100     34    124    129 143.9  15.3  34356  292.90 0854.44
2009/04/23 14:37:18.8      23   -110     13    113    114 168.0   6.9  34322  292.32 0854.44
2009/04/23 14:37:18.9      32   -139     49    143    152 166.7  18.9  34312  292.17 0854.44
2009/04/23 14:37:19.0      11   -149     79    150    169 175.6  29.8  34340  292.64 0854.44
2009/04/23 14:37:19.1      19   -135     87    137    162 172.0  35.5  34366  293.07 0854.44
2009/04/23 14:37:19.2      22   -138     70    140    156 170.7  28.5  34356  292.92 0854.44
2009/04/23 14:37:19.3      10   -112     48    113    122 174.7  24.1  34340  292.63 0854.44
2009/04/23 14:37:19.4      30   -104     57    109    123 163.5  29.3  34314  292.18 0854.44
2009/04/23 14:37:19.5      44   -104     77    114    137 156.8  37.4  34336  292.58 0854.44
2009/04/23 14:37:19.6       1    -78     97     79    125 179.1  56.4  34326  292.39 0854.44
2009/04/23 14:37:19.7     -15    -96     74     98    122 188.9  41.2  34318  292.25 0854.44
2009/04/23 14:37:19.8      -2   -136     15    137    138 180.9   6.5  34302  292.00 0854.44
2009/04/23 14:37:19.9       2   -158    -67    159    172 179.1 -28.5  34302  291.98 0854.44
2009/04/23 14:37:20.0     -42   -173     64    179    190 193.8  20.0  34300  291.95 0854.43
2009/04/23 14:37:20.1     -49   -209     25    215    217 193.4   6.9  34292  291.81 0854.43
2009/04/23 14:37:20.2     -59   -211    -15    220    221 195.6  -3.9  34298  291.93 0854.43
2009/04/23 14:37:20.3    -115   -202     -2    233    234 209.6  -0.5  34296  291.87 0854.43
2009/04/23 14:37:20.4     -51   -188     74    195    208 195.2  21.5  34316  292.22 0854.43
2009/04/23 14:37:20.5     -21   -209     78    211    224 186.0  21.0  34296  291.88 0854.43
2009/04/23 14:37:20.6      11   -191     68    192    203 176.6  20.2  34286  291.72 0854.43
2009/04/23 14:37:20.7     -15   -175     89    176    197 185.1  28.7  34284  291.69 0854.43
2009/04/23 14:37:20.8     -38   -176     63    181    192 192.3  19.2  34292  291.83 0854.43
2009/04/23 14:37:20.9     -16   -175     47    176    183 185.3  15.2  34286  291.71 0854.43
2009/04/23 14:37:21.0     -25   -178     49    180    187 188.0  15.3  34290  291.79 0854.43
2009/04/23 14:37:21.1     -28   -239     25    241    243 186.7   6.1  34296  291.87 0854.43
2009/04/23 14:37:21.2     -45   -212     47    217    223 192.0  12.4  34296  291.89 0854.43
2009/04/23 14:37:21.3      -3   -205     40    206    210 180.9  11.1  34294  291.86 0854.43
2009/04/23 14:37:21.4       0   -182     68    183    195 180.0  20.7  34298  291.91 0854.43
2009/04/23 14:37:21.5      -5   -166     58    167    177 181.8  19.2  34284  291.69 0854.43
2009/04/23 14:37:21.6      16   -162     52    163    172 174.2  17.9  34280  291.62 0854.43
2009/04/23 14:37:21.7      41   -205     10    210    211 168.7   2.8  34256  291.20 0854.43
2009/04/23 14:37:21.8      22   -216     62    218    227 174.2  16.0  34248  291.08 0854.43
2009/04/23 14:37:21.9      16   -213     85    214    230 175.5  23.0  34246  291.04 0854.43
2009/04/23 14:37:22.0     -34   -210      3    213    214 189.3   1.0  34242  290.96 0854.43
2009/04/23 14:37:22.1     -51   -207     49    214    220 193.8  12.9  34244  290.99 0854.43
2009/04/23 14:37:22.2     -78   -217     82    231    245 200.0  20.0  34252  291.12 0854.43
2009/04/23 14:37:22.3      -1   -197    154    198    250 180.5  42.0  34264  291.34 0854.43
2009/04/23 14:37:22.4      -8   -211    129    212    248 182.2  34.4  34254  291.17 0854.43
2009/04/23 14:37:22.5      22   -187    111    189    219 173.3  33.4  34248  291.08 0854.43
2009/04/23 14:37:22.6     -20   -176     91    178    199 186.7  29.2  34242  290.96 0854.43
2009/04/23 14:37:22.7      33   -142     61    146    158 166.7  23.8  34242  290.98 0854.43
2009/04/23 14:37:22.8      -2   -155     78    156    174 180.9  28.5  34238  290.91 0854.43
2009/04/23 14:37:22.9      12   -189     40    190    195 176.4  12.0  34236  290.86 0854.43
2009/04/23 14:37:23.0      21   -200     69    202    214 173.8  18.9  34234  290.82 0854.43
2009/04/23 14:37:23.1       0   -198     52    199    206 180.0  14.7  34242  290.96 0854.43
2009/04/23 14:37:23.2      84   -261     33    275    278 162.2   6.9  34252  291.12 0854.43
2009/04/23 14:37:23.3     131   -321     70    347    354 157.8  11.4  34252  291.13 0854.43
2009/04/23 14:37:23.4      73   -286      5    296    297 165.7   1.0  34242  290.95 0854.43
2009/04/23 14:37:23.5      25   -335    100    336    351 175.7  16.7  34244  291.00 0854.43
2009/04/23 14:37:23.6      25   -337     97    338    352 175.7  16.1  34238  290.89 0854.43
2009/04/23 14:37:23.7      67   -354     92    361    373 169.3  14.4  34234  290.83 0854.43
2009/04/23 14:37:23.8     121   -362     73    382    389 161.4  10.8  34258  291.25 0854.43
2009/04/23 14:37:23.9     148   -382     98    410    422 158.8  13.5  34226  290.70 0854.43
2009/04/23 14:37:24.0     162   -340    131    377    400 154.5  19.2  34228  290.71 0854.42
2009/04/23 14:37:24.1     130   -306    129    333    357 157.0  22.3  34234  290.84 0854.42
2009/04/23 14:37:24.2     111   -297    107    318    336 159.5  18.6  34232  290.79 0854.42
2009/04/23 14:37:24.3      57   -282    163    288    330 168.5  32.1  34228  290.73 0854.42
2009/04/23 14:37:24.4     130   -237    159    271    314 151.3  33.0  34234  290.82 0854.42
2009/04/23 14:37:24.5     166   -228     50    283    288 143.9  10.1  34250  291.10 0854.42
2009/04/23 14:37:24.6      44   -235     98    240    259 169.3  23.1  34248  291.05 0854.42
2009/04/23 14:37:24.7      40   -263    159    267    310 171.3  33.5  34228  290.73 0854.42
2009/04/23 14:37:24.8      96   -230    147    250    290 157.3  33.4  34244  290.99 0854.42
2009/04/23 14:37:24.9      86   -330    197    341    393 165.4  32.7  34218  290.57 0854.42
2009/04/23 14:37:25.0      22   -290    175    291    339 175.5  34.0  34224  290.66 0854.44
2009/04/23 14:37:25.1      10   -268    194    269    331 177.8  39.3  34228  290.71 0854.44
2009/04/23 14:37:25.2     -26   -247    185    249    310 186.2  40.1  34226  290.70 0854.44
2009/04/23 14:37:25.3     -16   -274    200    275    340 183.5  39.5  34228  290.73 0854.44
2009/04/23 14:37:25.4     -46   -255    195    260    325 190.2  40.8  34230  290.76 0854.44
2009/04/23 14:37:25.5     -59   -239    164    247    296 194.0  36.5  34230  290.76 0854.44
2009/04/23 14:37:25.6     -12   -265    136    266    298 182.7  29.3  34242  290.95 0854.44
2009/04/23 14:37:25.7      32   -230    156    233    280 171.9  37.0  34248  291.07 0854.44
2009/04/23 14:37:25.8      33   -241    165    244    294 172.0  37.4  34244  290.99 0854.44
2009/04/23 14:37:25.9       9   -214    122    215    247 177.5  32.3  34246  291.02 0854.44
2009/04/23 14:37:26.0      25   -174    120    176    213 171.8  37.4  34244  290.99 0854.44
2009/04/23 14:37:26.1      22   -188    147    190    240 173.1  41.7  34240  290.92 0854.44
2009/04/23 14:37:26.2      29   -210    148    213    259 172.0  38.4  34250  291.10 0854.44
2009/04/23 14:37:26.3      23   -297    143    298    330 175.5  27.3  34248  291.07 0854.44
2009/04/23 14:37:26.4      28   -329    181    331    377 175.1  31.3  34248  291.05 0854.44
2009/04/23 14:37:26.5      27   -296    209    298    363 174.7  38.5  34258  291.23 0854.44
2009/04/23 14:37:26.6      45   -319    156    323    358 171.9  27.7  34244  291.01 0854.44
2009/04/23 14:37:26.7      13   -280    180    281    333 177.3  35.6  34254  291.16 0854.44
2009/04/23 14:37:26.8      10   -324    143    325    355 178.2  25.2  34252  291.13 0854.44
2009/04/23 14:37:26.9       1   -350    158    351    384 179.7  25.9  34290  291.79 0854.44
2009/04/23 14:37:27.0     -43   -319    217    322    388 187.7  37.2  34268  291.42 0854.46
2009/04/23 14:37:27.1       5   -300    194    301    358 179.0  35.7  34304  292.03 0854.46
2009/04/23 14:37:27.3     -45   -258    239    263    355 190.0  47.0  34302  291.97 0854.46
2009/04/23 14:37:27.3     -21   -334    191    335    385 183.6  32.3  34272  291.47 0854.46
2009/04/23 14:37:27.4      37   -309    194    312    367 173.1  35.0  34284  291.68 0854.46
2009/04/23 14:37:27.5       4   -277    202    278    343 179.1  39.7  34284  291.67 0854.46
2009/04/23 14:37:27.6      24   -362    136    363    387 176.2  21.4  34240  290.93 0854.46
2009/04/23 14:37:27.7      -5   -338    115    339    359 180.9  18.8  34238  290.91 0854.46
2009/04/23 14:37:27.8       0   -307    108    308    326 180.1  20.0  34242  290.95 0854.46
2009/04/23 14:37:27.9     -23   -297    181    298    348 184.5  34.2  34228  290.71 0854.46
2009/04/23 14:37:28.0     -33   -306    130    308    334 186.2  24.3  34224  290.66 0854.46
2009/04/23 14:37:28.1     -32   -260    194    263    326 187.1  40.1  34228  290.73 0854.46
2009/04/23 14:37:28.2     -73   -142    160    160    226 207.2  50.1  34268  291.42 0854.46
2009/04/23 14:37:28.3    -108   -130    222    170    279 219.6  58.5  34276  291.53 0854.46
2009/04/23 14:37:28.4     -52   -165     96    174    198 197.6  31.4  34246  291.04 0854.46
2009/04/23 14:37:28.5     -91    -75    138    118    181 230.5  55.0  34276  291.55 0854.46
2009/04/23 14:37:28.6    -112   -106    177    155    235 226.8  54.3  34248  291.08 0854.46
2009/04/23 14:37:28.7     -85   -124    156    151    217 214.3  51.2  34244  290.99 0854.46
2009/04/23 14:37:28.8    -118    -70    116    138    180 239.3  44.3  34264  291.33 0854.46
2009/04/23 14:37:28.9     -73     77    111    107    154 316.3  50.7  34254  291.18 0854.46
2009/04/23 14:37:29.0     -59    -13    105     61    121 257.6  67.2  34252  291.13 0854.48
2009/04/23 14:37:29.1      42     11    104     44    112  74.9  76.1  34254  291.16 0854.48
2009/04/23 14:37:29.2      -8   -105    122    106    161 184.5  54.6  34242  290.96 0854.48
2009/04/23 14:37:29.3     -64   -149    108    163    195 203.4  36.7  34238  290.91 0854.48
2009/04/23 14:37:29.4     -60   -128     53    142    151 205.3  21.0  34246  291.03 0854.48
2009/04/23 14:37:29.5     -58   -100     46    116    124 210.3  22.5  34250  291.09 0854.48
2009/04/23 14:37:29.6     -31    -66     28     74     79 205.5  21.5  34248  291.08 0854.48
2009/04/23 14:37:29.7     -10    -31     33     33     46 198.3  50.1  34260  291.26 0854.48
2009/04/23 14:37:29.8     -10    -31     19     33     38 198.7  35.5  34248  291.06 0854.48
2009/04/23 14:37:29.9      -1    -19     24     20     31 184.5  56.3  34246  291.04 0854.48
2009/04/23 14:37:30.0       3     -8     31      9     32 154.6  82.8  34258  291.23 0854.48
2009/04/23 14:37:30.1      23      5     44     24     50  76.7  68.8  34276  291.55 0854.48
2009/04/23 14:37:30.2      16     26     43     31     53  32.5  60.5  34266  291.37 0854.48
2009/04/23 14:37:30.3      39     22     26     45     51  60.2  32.4  34258  291.23 0854.48
2009/04/23 14:37:30.4      71      9     14     72     74  82.1  11.1  34240  290.92 0854.48
2009/04/23 14:37:30.5      92      0      4     93     94  90.0   2.9  34222  290.64 0854.48
2009/04/23 14:37:30.6      82     12    -29     83     87  81.6 -23.8  34232  290.79 0854.48
2009/04/23 14:37:30.7      42      7    -28     43     51  79.4 -40.0  34232  290.81 0854.48
2009/04/23 14:37:30.8      17      0    -41     18     44  90.8 -80.5  34246  291.04 0854.48
2009/04/23 14:37:30.9      30      9    -37     32     48  71.8 -57.7  34238  290.89 0854.48
2009/04/23 14:37:31.0      -1     33    -41     34     53 357.4 -60.7  34244  290.99 0854.50
2009/04/23 14:37:31.1     -39     26    -36     48     60 304.2 -45.1  34258  291.23 0854.50
2009/04/23 14:37:31.2     -43     16    -43     47     63 290.8 -52.3  34254  291.18 0854.50
2009/04/23 14:37:31.3     -68      5    -70     69     98 274.3 -54.5  34254  291.18 0854.50
2009/04/23 14:37:31.4     -76    -35    -50     84     97 244.8 -38.8  34248  291.06 0854.50
2009/04/23 14:37:31.5     -78    -19    -39     81     89 255.8 -31.7  34250  291.09 0854.50
2009/04/23 14:37:31.6     -56    -52    -14     77     79 226.8 -10.3  34244  291.01 0854.50
2009/04/23 14:37:31.7     -64    -19    -40     67     78 253.2 -38.8  34254  291.16 0854.50
2009/04/23 14:37:31.8     -76    -25     12     81     83 251.8   9.0  34272  291.49 0854.50
2009/04/23 14:37:31.9    -131    -57      9    143    144 246.5   3.8  34272  291.49 0854.50
2009/04/23 14:37:32.0     -88    -88     22    125    127 225.0  10.1  34276  291.55 0854.50
2009/04/23 14:37:32.1     -37    -79      0     88     89 204.9   0.2  34270  291.43 0854.50
2009/04/23 14:37:32.2     -20    -72    -13     75     77 196.0 -10.3  34264  291.35 0854.50
2009/04/23 14:37:32.3     -47    -76      1     90     91 211.6   1.2  34254  291.18 0854.50
2009/04/23 14:37:32.4     -30    -94     30     99    104 197.8  16.8  34250  291.09 0854.50
2009/04/23 14:37:32.5      -5    -73    -16     74     76 184.5 -12.4  34244  291.01 0854.50
2009/04/23 14:37:32.6      29    -84    -23     89     92 160.8 -14.5  34246  291.03 0854.50
2009/04/23 14:37:32.7      37    -83     -3     91     92 155.9  -2.2  34248  291.06 0854.50
2009/04/23 14:37:32.8      24   -165     20    167    169 171.5   6.9  34258  291.25 0854.50
2009/04/23 14:37:32.9      81   -127     -8    151    152 147.4  -3.1  34250  291.09 0854.50
2009/04/23 14:37:33.0      55    -83    -34    100    106 146.2 -19.1  34236  290.87 0854.51
2009/04/23 14:37:33.1      -1    -73     24     74     79 180.9  18.4  34236  290.87 0854.51
2009/04/23 14:37:33.2     -58      0     35     59     68 270.0  34.4  34234  290.84 0854.51
2009/04/23 14:37:33.3     -43     41     33     60     68 313.3  31.4  34232  290.79 0854.51
2009/04/23 14:37:33.4     -54     69     26     88     92 321.7  16.8  34236  290.86 0854.51
2009/04/23 14:37:33.5     -85     62    -10    106    107 306.0  -5.6  34236  290.87 0854.51
2009/04/23 14:37:33.6    -109     27     -1    113    114 284.2  -0.7  34230  290.77 0854.51
2009/04/23 14:37:33.7    -149      0     -3    150    151 270.0  -1.2  34244  291.01 0854.51
2009/04/23 14:37:33.8    -111    -13    -20    112    114 263.0 -10.3  34250  291.11 0854.51
2009/04/23 14:37:33.9     -73    -55     37     92     99 233.1  23.0  34242  290.96 0854.51
2009/04/23 14:37:34.0      44    -53    156     70    170 140.3  74.2  34256  291.21 0854.51
2009/04/23 14:37:34.1      87    -53    142    103    175 121.5  60.8  34240  290.92 0854.51
2009/04/23 14:37:34.2     -40    -19    115     45    123 244.7  77.6  34250  291.09 0854.51
2009/04/23 14:37:34.3     -32     21    152     39    156 304.2  85.9  34246  291.03 0854.51
2009/04/23 14:37:34.4     -38     71     86     81    118 331.5  52.1  34236  290.86 0854.51
2009/04/23 14:37:34.5     -75     31     71     82    108 292.6  45.4  34238  290.91 0854.51
2009/04/23 14:37:34.6     -57      0     90     58    107 269.2  64.6  34250  291.09 0854.51
2009/04/23 14:37:34.7     -89    -34     51     96    108 249.2  30.3  34250  291.09 0854.51
2009/04/23 14:37:34.8    -126    -17     24    128    131 262.1  11.0  34280  291.62 0854.51
2009/04/23 14:37:34.9    -128     -3     65    129    144 268.3  29.2  34280  291.62 0854.51
2009/04/23 14:37:35.0    -171     97     61    197    207 299.5  17.3  34268  291.42 0854.55
2009/04/23 14:37:35.1    -202     73     64    215    225 289.9  16.6  34280  291.60 0854.55
2009/04/23 14:37:35.2    -217     16     51    218    224 274.4  13.2  34288  291.76 0854.55
2009/04/23 14:37:35.3    -229    -17     80    230    244 265.7  19.2  34270  291.43 0854.55
2009/04/23 14:37:35.4    -197   -109     66    226    236 241.1  16.4  34234  290.82 0854.55
2009/04/23 14:37:35.5    -187    -78     47    203    209 247.2  13.2  34240  290.94 0854.55
2009/04/23 14:37:35.6    -190    -26     37    192    196 262.1  11.0  34240  290.94 0854.55
2009/04/23 14:37:35.7    -188    -12     67    189    200 266.3  20.2  34254  291.16 0854.55
2009/04/23 14:37:35.8    -193    -11     69    194    205 266.5  20.0  34246  291.03 0854.55
2009/04/23 14:37:35.9    -233    -64     18    242    243 254.5   4.4  34226  290.70 0854.55
2009/04/23 14:37:36.0    -197   -126    -74    234    246 237.4 -17.6  34234  290.82 0854.55
2009/04/23 14:37:36.1    -133    -36     90    138    164 254.9  36.0  34240  290.92 0854.55
2009/04/23 14:37:36.2    -212     98     37    234    237 294.8   9.0  34244  291.00 0854.55
2009/04/23 14:37:36.3    -269     54    -10    275    276 281.5  -2.1  34282  291.63 0854.55
2009/04/23 14:37:36.4    -282    -12    -48    283    288 267.4  -9.6  34252  291.14 0854.55
2009/04/23 14:37:36.5    -212     23    -63    214    223 276.2 -21.5  34238  290.91 0854.55
2009/04/23 14:37:36.6    -154      9    -90    155    179 273.5 -37.1  34234  290.84 0854.55
2009/04/23 14:37:36.7    -142    -20    -50    144    153 262.0 -19.4  34252  291.15 0854.55
2009/04/23 14:37:36.8    -119      0     21    120    122 270.0  10.1  34296  291.88 0854.55
2009/04/23 14:37:36.9    -119     51     10    130    131 293.5   4.4  34362  293.02 0854.55
2009/04/23 14:37:37.0    -109     60    -10    125    126 298.9  -4.6  34344  292.69 0854.58
2009/04/23 14:37:37.1     -76     25    -25     81     86 288.4 -17.6  34330  292.46 0854.58
2009/04/23 14:37:37.2     -97    -32    -33    103    109 251.8 -18.1  34310  292.12 0854.58
2009/04/23 14:37:37.3     -84    -95    -50    128    137 221.4 -27.4  34300  291.95 0854.58
2009/04/23 14:37:37.4     -47   -109     -5    119    120 203.6  -2.6  34304  292.03 0854.58
2009/04/23 14:37:37.5    -146    -69    -74    162    178 244.8 -30.6  34300  291.95 0854.58
2009/04/23 14:37:37.6    -158    -67    -35    172    176 246.9 -11.6  34346  292.75 0854.58
2009/04/23 14:37:37.7    -219     51     -4    225    226 283.2  -1.3  34312  292.17 0854.58
2009/04/23 14:37:37.8    -202     96     19    224    225 295.4   4.9  34334  292.54 0854.58
2009/04/23 14:37:37.9    -129     60     12    143    144 295.2   4.9  34298  291.91 0854.58
2009/04/23 14:37:38.0     -52    -13     23     54     58 255.8  23.0  34300  291.95 0854.58
2009/04/23 14:37:38.1     -33    -80     37     87     94 202.7  24.6  34302  292.00 0854.58
2009/04/23 14:37:38.2     -56   -140     68    151    165 201.8  25.7  34290  291.77 0854.58
2009/04/23 14:37:38.3     -58   -174     65    184    196 198.7  19.4  34256  291.21 0854.58
2009/04/23 14:37:38.4    -113   -177     28    211    213 212.5   7.8  34258  291.25 0854.58
2009/04/23 14:37:38.6    -106   -201     26    228    230 207.9   6.7  34264  291.35 0854.58
2009/04/23 14:37:38.7     -91   -242     17    259    260 200.7   3.9  34262  291.31 0854.58
2009/04/23 14:37:38.8    -181   -180    -42    256    260 225.1  -9.4  34302  291.99 0854.58
2009/04/23 14:37:38.9    -117   -256    -38    282    285 204.7  -7.7  34276  291.55 0854.58
2009/04/23 14:37:39.0     -88   -378    -21    389    390 193.1  -3.1  34252  291.15 0854.58
2009/04/23 14:37:39.1     -82   -364      6    374    375 192.7   1.0  34246  291.03 0854.58
2009/04/23 14:37:39.2     -98   -350     34    364    366 195.7   5.4  34244  291.01 0854.58
2009/04/23 14:37:39.3    -152   -344    -14    377    378 203.9  -2.2  34244  291.00 0854.58
2009/04/23 14:37:39.4    -148   -314     23    348    349 205.2   3.8  34254  291.17 0854.58
2009/04/23 14:37:39.5     -69   -269    -15    278    279 194.5  -3.1  34248  291.05 0854.58
2009/04/23 14:37:39.6     -51   -250     24    256    258 191.6   5.4  34240  290.92 0854.58
2009/04/23 14:37:39.7     -46   -227     30    232    234 191.6   7.5  34242  290.97 0854.58
2009/04/23 14:37:39.8     -56   -237     52    244    250 193.4  12.0  34238  290.88 0854.58
2009/04/23 14:37:39.9      35   -273     63    276    284 172.7  12.9  34244  290.99 0854.58
2009/04/23 14:37:40.0      14   -347     97    348    362 177.7  15.6  34248  291.06 0854.58
2009/04/23 14:37:40.1      43   -378     81    381    390 173.4  12.0  34244  291.01 0854.58
2009/04/23 14:37:40.2      42   -368     85    371    381 173.4  12.9  34252  291.15 0854.58
2009/04/23 14:37:40.3      -1   -352    106    353    369 180.3  16.8  34258  291.23 0854.58
2009/04/23 14:37:40.4      10   -349    126    350    371 178.3  20.6  34272  291.47 0854.58
2009/04/23 14:37:40.5      -4   -388    148    389    416 180.7  21.8  34268  291.41 0854.58
2009/04/23 14:37:40.6     -26   -343    124    344    366 184.4  19.9  34262  291.32 0854.58
2009/04/23 14:37:40.7      -4   -338    155    339    372 180.8  26.4  34252  291.15 0854.58
2009/04/23 14:37:40.8     -68   -272    206    281    348 194.0  39.8  34260  291.27 0854.58
2009/04/23 14:37:40.9      55   -270    167    276    322 168.4  34.1  34276  291.55 0854.58
2009/04/23 14:37:41.0     121   -206    181    240    300 149.5  40.7  34310  292.11 0854.58
2009/04/23 14:37:41.1      22   -124    153    127    198 169.8  56.3  34304  292.03 0854.57
2009/04/23 14:37:41.2     110    -97    144    148    206 131.4  49.4  34292  291.81 0854.57
2009/04/23 14:37:41.3     106   -106     51    151    160 135.1  18.9  34290  291.79 0854.57
2009/04/23 14:37:41.4     -58   -139      1    151    152 202.7   0.7  34256  291.20 0854.57
2009/04/23 14:37:41.5     -83   -157      5    178    179 208.1   1.8  34260  291.28 0854.57
2009/04/23 14:37:41.6     -68   -144     13    160    161 205.5   4.9  34242  290.96 0854.57
2009/04/23 14:37:41.7     -90   -161    -45    185    191 209.2 -13.9  34236  290.87 0854.57
2009/04/23 14:37:41.8     -81   -105    -17    133    135 217.8  -7.3  34246  291.04 0854.57
2009/04/23 14:37:41.9     -41    -20    -58     46     74 243.8 -60.8  34264  291.35 0854.57
2009/04/23 14:37:42.0      21     74     34     77     84  16.0  24.6  34268  291.42 0854.57
2009/04/23 14:37:42.1      42     46     61     63     87  42.3  50.0  34278  291.59 0854.57
2009/04/23 14:37:42.2      38      9     83     40     92  76.7  72.9  34286  291.72 0854.57
2009/04/23 14:37:42.3     -31     31     87     44     97 315.0  71.9  34294  291.84 0854.57
2009/04/23 14:37:42.4     -56     33     71     66     96 300.7  51.6  34284  291.67 0854.57
2009/04/23 14:37:42.5     -43     27     51     52     72 302.4  51.1  34294  291.86 0854.57
2009/04/23 14:37:42.6       4     61     46     62     77   4.5  39.7  34276  291.55 0854.57
2009/04/23 14:37:42.7      56     81     54     99    112  34.7  31.3  34278  291.57 0854.57
2009/04/23 14:37:42.8      60     57     51     83     97  46.4  35.5  34278  291.59 0854.57
2009/04/23 14:37:42.9      37     13      8     40     41  70.0  12.2  34276  291.55 0854.57
2009/04/23 14:37:43.0      26     27     16     38     41  43.4  24.1  34276  291.55 0854.57
2009/04/23 14:37:43.1      17     64     31     67     73  15.2  27.1  34278  291.57 0854.53
2009/04/23 14:37:43.2      -4     54     60     55     81 355.5  52.7  34280  291.62 0854.53
2009/04/23 14:37:43.3     -17     42     67     46     81 337.3  62.1  34288  291.76 0854.53
2009/04/23 14:37:43.4     -36     15     73     40     83 292.6  69.3  34300  291.95 0854.53
2009/04/23 14:37:43.5     -33      0     69     34     76 270.0  72.8  34298  291.91 0854.53
2009/04/23 14:37:43.6     -40    -21     49     46     67 242.0  52.1  34290  291.77 0854.53
2009/04/23 14:37:43.7       7    -26     26     27     37 164.9  52.0  34272  291.47 0854.53
2009/04/23 14:37:43.8     -10    -39      7     41     42 195.1  10.1  34266  291.37 0854.53
2009/04/23 14:37:43.9     -75    -15    -27     77     81 258.5 -24.4  34266  291.37 0854.53
2009/04/23 14:37:44.0     -71     19    -28     74     79 285.1 -25.9  34266  291.38 0854.53
2009/04/23 14:37:44.1     -49    -16    -21     52     56 251.8 -26.4  34262  291.32 0854.53
2009/04/23 14:37:44.2     -38    -74     28     84     89 207.6  18.9  34272  291.49 0854.53
2009/04/23 14:37:44.3     -32    -76     57     83    100 203.2  38.0  34270  291.43 0854.53
2009/04/23 14:37:44.4     -29    -79     65     85    107 200.5  41.2  34264  291.35 0854.53
2009/04/23 14:37:44.5     -49    -61     90     79    119 218.7  54.3  34260  291.28 0854.53
2009/04/23 14:37:44.6     -42    -67     78     80    111 212.5  50.0  34260  291.26 0854.53
2009/04/23 14:37:44.7     -14    -77     94     79    122 190.7  55.8  34266  291.37 0854.53
2009/04/23 14:37:44.8      36    -65     95     75    121 151.0  57.9  34278  291.59 0854.53
2009/04/23 14:37:44.9      77   -116    116    140    181 146.6  43.8  34258  291.25 0854.53
2009/04/23 14:37:45.0      89    -89     79    127    149 135.0  35.5  34252  291.13 0854.53
2009/04/23 14:37:45.1      47   -158     96    165    190 163.3  32.9  34244  291.01 0854.55
2009/04/23 14:37:45.2      32   -231    195    234    304 172.0  43.8  34238  290.90 0854.55
2009/04/23 14:37:45.3      51   -249    199    255    323 168.4  42.1  34240  290.93 0854.55
2009/04/23 14:37:45.4      26   -289    149    291    326 174.7  29.3  34250  291.09 0854.55
2009/04/23 14:37:45.5      -1   -296    147    297    331 180.2  28.4  34236  290.87 0854.55
2009/04/23 14:37:45.6     -65   -293    117    301    322 192.5  22.4  34244  291.00 0854.55
2009/04/23 14:37:45.7    -113   -257     39    282    285 203.8   8.0  34248  291.05 0854.55
2009/04/23 14:37:45.8     -69   -294     37    303    306 193.3   7.1  34250  291.10 0854.55
2009/04/23 14:37:45.9     -25   -312    109    314    333 184.7  19.2  34252  291.12 0854.55
2009/04/23 14:37:46.0     -32   -294     91    296    310 186.2  17.2  34256  291.19 0854.55
2009/04/23 14:37:46.1     -16   -297     52    298    303 183.1   9.9  34254  291.16 0854.55
2009/04/23 14:37:46.2      18   -250    107    251    272 175.8  24.3  34246  291.04 0854.55
2009/04/23 14:37:46.3      68   -201     86    213    229 161.3  23.0  34252  291.13 0854.55
2009/04/23 14:37:46.4      89   -166     51    189    196 151.7  15.2  34254  291.16 0854.55
2009/04/23 14:37:46.5      72   -164    -18    180    182 156.2  -6.0  34252  291.13 0854.55
2009/04/23 14:37:46.6      84   -227    -31    243    245 159.7  -7.3  34246  291.04 0854.55
2009/04/23 14:37:46.7      81   -244    -61    258    266 161.5 -13.4  34244  291.00 0854.55
2009/04/23 14:37:46.8     149   -195    -18    246    247 142.6  -4.4  34250  291.10 0854.55
2009/04/23 14:37:46.9      59   -272      1    279    280 167.6   0.2  34272  291.48 0854.55
2009/04/23 14:37:47.0      15   -204    -50    205    212 175.5 -13.9  34260  291.28 0854.55
2009/04/23 14:37:47.1      12   -155    -46    156    162 175.5 -21.5  34254  291.16 0854.53
2009/04/23 14:37:47.2      48   -205     33    211    214 166.7   9.0  34250  291.11 0854.53
2009/04/23 14:37:47.3     131   -205    144    244    283 147.4  33.5  34246  291.02 0854.53
2009/04/23 14:37:47.4     121   -226    172    257    309 151.7  37.0  34260  291.27 0854.53
2009/04/23 14:37:47.5      90   -233    196    250    317 158.8  42.1  34266  291.36 0854.53
2009/04/23 14:37:47.6      97   -296    147    312    344 161.7  27.1  34258  291.25 0854.53
2009/04/23 14:37:47.7      94   -292     91    307    321 162.1  16.6  34258  291.24 0854.53
2009/04/23 14:37:47.8     152   -295     12    332    333 152.7   2.2  34258  291.22 0854.53
2009/04/23 14:37:47.9     148   -187    -17    239    240 141.7  -4.1  34256  291.19 0854.53
2009/04/23 14:37:48.0     152   -152      7    216    217 135.0   2.1  34260  291.26 0854.53
2009/04/23 14:37:48.1     128   -125     95    180    203 134.4  30.1  34254  291.18 0854.56
2009/04/23 14:37:48.2     139   -179    227    227    321 142.2  50.1  34262  291.31 0854.56
2009/04/23 14:37:48.3      89    -95    174    131    217 136.8  59.4  34274  291.52 0854.56
2009/04/23 14:37:48.4     -21   -249    254    250    356 184.9  50.4  34256  291.21 0854.56
2009/04/23 14:37:48.5      55   -236    220    243    327 166.7  46.9  34256  291.19 0854.56
2009/04/23 14:37:48.6     130   -244    220    277    353 151.9  42.4  34240  290.93 0854.56
2009/04/23 14:37:48.7     -42   -340    125    343    365 187.1  20.9  34238  290.91 0854.56
2009/04/23 14:37:48.8      -5   -367    102    368    383 180.9  15.6  34240  290.93 0854.56
2009/04/23 14:37:48.9      72   -338     39    346    349 167.9   6.5  34236  290.86 0854.56
2009/04/23 14:37:49.0      -4   -289    -11    290    291 180.9  -2.2  34240  290.92 0854.56
2009/04/23 14:37:49.1      19   -240    -50    241    247 175.3 -11.9  34242  290.95 0854.56
2009/04/23 14:37:49.2      56   -157     -6    167    168 160.2  -2.1  34240  290.92 0854.56
2009/04/23 14:37:49.3     121   -246     70    275    284 153.7  14.3  34240  290.93 0854.56
2009/04/23 14:37:49.4      60   -319     97    325    340 169.3  16.7  34238  290.91 0854.56
2009/04/23 14:37:49.5      97   -298     61    314    320 162.0  11.0  34238  290.88 0854.56
2009/04/23 14:37:49.6      89   -343     59    355    360 165.3   9.4  34238  290.88 0854.56
2009/04/23 14:37:49.7     180   -243    176    303    350 143.5  32.9  34228  290.71 0854.56
2009/04/23 14:37:49.8     233   -258    123    349    371 137.9  19.5  34230  290.77 0854.56
2009/04/23 14:37:49.9     129   -262    131    293    320 153.7  25.7  34232  290.80 0854.56
2009/04/23 14:37:50.0      92   -224    154    243    287 157.7  35.5  34238  290.90 0854.56
2009/04/23 14:37:50.1     152   -184    158    239    286 140.4  36.5  34236  290.87 0854.51
2009/04/23 14:37:50.2     126   -255    195    285    345 153.7  37.7  34240  290.92 0854.51
2009/04/23 14:37:50.3      70   -337    211    345    404 168.2  34.4  34234  290.84 0854.51
2009/04/23 14:37:50.4      55   -362    153    367    397 171.3  24.1  34232  290.81 0854.51
2009/04/23 14:37:50.5     176   -272    211    325    387 147.0  35.9  34230  290.77 0854.51
2009/04/23 14:37:50.6      30   -266    152    268    308 173.5  32.1  34230  290.75 0854.51
2009/04/23 14:37:50.7      31   -401    255    403    476 175.5  35.5  34226  290.70 0854.51
2009/04/23 14:37:50.8      54   -321    227    326    397 170.3  38.4  34238  290.88 0854.51
2009/04/23 14:37:50.9      54   -319    168    324    364 170.3  29.5  34240  290.93 0854.51
2009/04/23 14:37:51.0      32   -228    189    231    298 171.9  43.7  34230  290.76 0854.51
2009/04/23 14:37:51.1      26   -142    221    145    264 169.3  63.9  34238  290.91 0854.51
2009/04/23 14:37:51.2      42    -73    154     85    175 149.7  68.8  34252  291.15 0854.51
2009/04/23 14:37:51.3      41   -184    204    189    278 167.3  52.2  34240  290.93 0854.51
2009/04/23 14:37:51.4     152   -265    248    306    393 150.1  43.3  34234  290.83 0854.51
2009/04/23 14:37:51.5      76   -202    201    217    295 159.3  47.9  34240  290.93 0854.51
2009/04/23 14:37:51.6      51    -77    183     93    205 146.2  71.1  34238  290.89 0854.51
2009/04/23 14:37:51.7     -15    -31    136     35    140 207.2  85.4  34248  291.08 0854.51
2009/04/23 14:37:51.8      31    -26    179     41    183 129.6  87.5  34258  291.23 0854.51
2009/04/23 14:37:51.9      31   -222    254    225    339 171.9  54.0  34232  290.80 0854.51
2009/04/23 14:37:52.0     145    -73    257    163    304 117.0  64.7  34252  291.14 0854.51
2009/04/23 14:37:52.1      24    -60    223     65    232 158.1  83.3  34238  290.91 0854.49
2009/04/23 14:37:52.2      12   -222    217    223    311 176.9  49.4  34240  290.93 0854.49
2009/04/23 14:37:52.3      35   -161    239    165    290 167.5  62.6  34242  290.95 0854.49
2009/04/23 14:37:52.4     105   -251    251    273    370 157.3  47.6  34244  291.00 0854.49
2009/04/23 14:37:52.5     131   -285    193    314    368 155.3  34.8  34238  290.91 0854.49
2009/04/23 14:37:52.6     123   -250     93    279    295 153.7  18.4  34238  290.90 0854.49
2009/04/23 14:37:52.7     252   -354     79    435    443 144.5  10.3  34222  290.63 0854.49
2009/04/23 14:37:52.8     244   -338    148    418    443 144.2  20.3  34208  290.39 0854.49
2009/04/23 14:37:52.9     231   -353    175    423    457 146.8  23.7  34212  290.44 0854.49
2009/04/23 14:37:53.0     176   -324    187    369    413 151.5  29.1  34214  290.49 0854.49
2009/04/23 14:37:53.1      84   -325    217    336    399 165.4  35.7  34214  290.50 0854.49
2009/04/23 14:37:53.2      71   -279    180    288    339 165.7  35.2  34218  290.54 0854.49
2009/04/23 14:37:53.3     150   -303    253    339    423 153.6  40.6  34216  290.52 0854.49
2009/04/23 14:37:53.4     135   -315    231    343    413 156.8  37.3  34224  290.67 0854.49
2009/04/23 14:37:53.5     143   -255    181    293    344 150.6  34.9  34224  290.66 0854.49
2009/04/23 14:37:53.6     159   -222    197    274    337 144.4  39.3  34224  290.65 0854.49
2009/04/23 14:37:53.7      96   -230    191    250    314 157.3  41.3  34218  290.54 0854.49
2009/04/23 14:37:53.8     116   -228    193    256    320 153.0  40.7  34218  290.56 0854.49
2009/04/23 14:37:53.9      91   -233    170    251    303 158.6  37.4  34224  290.65 0854.49
2009/04/23 14:37:54.0      63   -292    164    299    341 167.7  31.3  34224  290.65 0854.49
2009/04/23 14:37:54.1      18   -275    184    276    331 176.2  36.9  34228  290.71 0854.48
2009/04/23 14:37:54.2      44   -276    140    280    313 170.9  28.6  34226  290.68 0854.48
2009/04/23 14:37:54.3      66   -197     99    209    231 161.3  27.2  34226  290.70 0854.48
2009/04/23 14:37:54.4     129   -213     91    250    266 148.8  20.7  34226  290.70 0854.48
2009/04/23 14:37:54.5     121   -251     87    279    293 154.1  17.3  34224  290.66 0854.48
2009/04/23 14:37:54.6      66   -283    156    291    330 166.7  30.6  34226  290.70 0854.48
2009/04/23 14:37:54.7      70   -279    183    288    341 165.8  35.5  34226  290.70 0854.48
2009/04/23 14:37:54.8      42   -300    187    304    356 171.9  34.4  34228  290.71 0854.48
2009/04/23 14:37:54.9      22   -284    182    285    338 175.5  35.6  34226  290.68 0854.48
2009/04/23 14:37:55.0      78   -291    190    302    356 164.9  35.2  34218  290.54 0854.48
2009/04/23 14:37:55.1      64   -302    210    309    373 168.0  37.4  34220  290.60 0854.48
2009/04/23 14:37:55.2      60   -253    195    261    325 166.6  40.6  34226  290.70 0854.48
2009/04/23 14:37:55.3      38    -85    138     94    166 155.5  62.6  34234  290.84 0854.48
2009/04/23 14:37:55.4      32   -176    170    179    246 169.5  48.5  34236  290.86 0854.48
2009/04/23 14:37:55.5      33   -199    177    202    268 170.4  45.8  34230  290.76 0854.48
2009/04/23 14:37:55.6       2   -159    186    160    245 179.1  55.0  34238  290.91 0854.48
2009/04/23 14:37:55.7      51   -151    162    160    227 161.3  50.1  34244  291.01 0854.48
2009/04/23 14:37:55.8     135    -72    127    154    199 118.0  43.7  34236  290.86 0854.48
2009/04/23 14:37:55.9       4    -85    137     86    161 176.9  65.1  34238  290.91 0854.48
2009/04/23 14:37:56.0     -10    -71    119     72    139 188.0  66.2  34244  290.99 0854.48
2009/04/23 14:37:56.1      55    -53     74     77    106 134.1  49.0  34256  291.20 0854.49
2009/04/23 14:37:56.2     -14    -81    163     83    182 189.8  70.8  34252  291.15 0854.49
2009/04/23 14:37:56.3      16    -83    123     85    149 168.9  62.1  34254  291.16 0854.49
2009/04/23 14:37:56.4     -12   -135    155    136    206 185.3  54.3  34240  290.94 0854.49
2009/04/23 14:37:56.5      19    -54    129     58    141 160.8  74.5  34262  291.32 0854.49
2009/04/23 14:37:56.6     -16   -152    182    153    237 186.2  55.6  34242  290.98 0854.49
2009/04/23 14:37:56.7      83   -265    203    278    344 162.4  39.8  34244  290.99 0854.49
2009/04/23 14:37:56.8      20   -205    138    207    248 174.2  36.7  34244  291.00 0854.49
2009/04/23 14:37:56.9     -32   -252    173    255    308 187.3  37.4  34240  290.92 0854.49
2009/04/23 14:37:57.0     -90   -344    109    356    373 194.8  17.0  34244  291.00 0854.49
2009/04/23 14:37:57.1     -56   -320    123    326    348 190.0  21.6  34240  290.94 0854.49
2009/04/23 14:37:57.2    -159   -251     46    298    302 212.3   8.9  34244  291.00 0854.49
2009/04/23 14:37:57.3     -76   -204     38    218    222 200.5  10.1  34242  290.98 0854.49
2009/04/23 14:37:57.4     -26   -162     55    165    175 189.1  18.6  34238  290.89 0854.49
2009/04/23 14:37:57.5       0   -162     19    163    165 180.2   6.7  34240  290.94 0854.49
2009/04/23 14:37:57.6     -19   -140     -5    142    143 188.0  -2.2  34250  291.11 0854.49
2009/04/23 14:37:57.7      -2    -37     -4     38     39 184.5  -7.3  34250  291.11 0854.49
2009/04/23 14:37:57.8     -58     23    -31     63     70 291.7 -31.7  34254  291.18 0854.49
2009/04/23 14:37:57.9     -46     16    -50     49     70 290.0 -53.5  34260  291.26 0854.49
2009/04/23 14:37:58.0     -71      0    -59     72     93 270.0 -48.1  34266  291.37 0854.49
2009/04/23 14:37:58.1     -67    -36    -21     77     79 242.0 -20.2  34264  291.35 0854.53
2009/04/23 14:37:58.2     -13    -77     46     79     91 189.8  32.9  34266  291.38 0854.53
2009/04/23 14:37:58.3      84    -22    102     87    134 105.1  55.4  34264  291.35 0854.53
2009/04/23 14:37:58.4      81    -41     84     92    124 117.1  47.5  34264  291.35 0854.53
2009/04/23 14:37:58.5      85    -62     91    106    139 126.4  44.8  34256  291.20 0854.53
2009/04/23 14:37:58.6      94    -85     94    128    158 132.2  40.1  34248  291.08 0854.53
2009/04/23 14:37:58.7      95    -46     67    106    125 115.8  35.5  34246  291.03 0854.53
2009/04/23 14:37:58.8     132    -72    122    151    194 118.9  43.5  34262  291.30 0854.53
2009/04/23 14:37:58.9      10     -7     99     13     99 126.0  90.0  34260  291.28 0854.53
2009/04/23 14:37:59.0      93     67     53    115    126  54.0  26.6  34258  291.23 0854.53
2009/04/23 14:37:59.1     140     46     46    148    156  71.8  17.3  34268  291.40 0854.53
2009/04/23 14:37:59.2     120     71     45    140    148  59.3  17.9  34274  291.52 0854.53
2009/04/23 14:37:59.3     155     40     45    161    168  75.6  15.6  34276  291.54 0854.53
2009/04/23 14:37:59.4     123    -32     61    128    141 104.6  27.2  34268  291.42 0854.53
2009/04/23 14:37:59.5     119   -115     15    166    167 134.2   5.2  34264  291.33 0854.53
2009/04/23 14:37:59.6      15   -202    118    203    234 175.6  32.9  34242  290.96 0854.53
2009/04/23 14:37:59.7     104   -287    204    306    367 160.0  36.9  34238  290.91 0854.53
2009/04/23 14:37:59.8     152   -239    168    284    329 147.4  33.6  34238  290.90 0854.53
2009/04/23 14:37:59.9     213   -214    118    303    325 135.1  22.3  34248  291.07 0854.53
2009/04/23 14:38:00.0     138   -221    114    261    284 147.9  25.1  34242  290.97 0854.53
2009/04/23 14:38:00.1     136   -183     45    229    234 143.3  11.1  34256  291.21 0854.57
2009/04/23 14:38:00.2      69   -147     47    163    170 154.6  16.3  34252  291.13 0854.57
2009/04/23 14:38:00.3     -10    -95     56     96    111 186.2  32.9  34254  291.18 0854.57
2009/04/23 14:38:00.4     -70    -86     52    111    122 219.2  26.6  34246  291.04 0854.57
2009/04/23 14:38:00.5     -97   -173     77    199    213 209.2  22.0  34250  291.11 0854.57
2009/04/23 14:38:00.6    -107   -225     77    250    262 205.5  17.3  34252  291.12 0854.57
2009/04/23 14:38:00.7    -157   -227    131    277    306 214.7  27.1  34248  291.05 0854.57
2009/04/23 14:38:00.9     -68   -232    129    242    274 196.5  30.3  34246  291.02 0854.57
2009/04/23 14:38:00.9     -49   -139    143    148    205 199.6  49.0  34246  291.04 0854.57
2009/04/23 14:38:01.0      18     -7     80     20     82 111.7  85.9  34270  291.43 0854.57
2009/04/23 14:38:01.1       1    -75     90     76    117 179.1  55.4  34266  291.38 0854.57
2009/04/23 14:38:01.2      44    -53    131     69    148 140.4  69.8  34264  291.33 0854.57
2009/04/23 14:38:01.3      11    -58     97     60    114 168.5  64.7  34266  291.38 0854.57
2009/04/23 14:38:01.4      15   -108    150    110    186 171.9  60.3  34260  291.26 0854.57
2009/04/23 14:38:01.5      10   -128    135    129    186 175.1  51.4  34250  291.11 0854.57
2009/04/23 14:38:01.6      34   -217    164    220    274 170.9  40.6  34254  291.16 0854.57
2009/04/23 14:38:01.7     -10   -173    133    174    219 183.4  41.4  34252  291.15 0854.57
2009/04/23 14:38:01.8     -14   -136    156    137    207 186.2  54.3  34256  291.21 0854.57
2009/04/23 14:38:01.9      11     33    118     35    123  18.7  82.8  34280  291.62 0854.57
2009/04/23 14:38:02.0      34    -44    108     56    121 142.2  70.8  34274  291.52 0854.57
2009/04/23 14:38:02.1       8      8    126     12    126  46.9  90.0  34282  291.64 0854.57
2009/04/23 14:38:02.2      -8   -107    140    108    176 184.5  58.5  34260  291.28 0854.57
2009/04/23 14:38:02.3       0   -112    151    113    188 180.0  59.4  34266  291.37 0854.57
2009/04/23 14:38:02.4       8   -107    138    108    175 175.6  57.9  34268  291.42 0854.57
2009/04/23 14:38:02.5      16   -117    155    119    195 172.0  58.5  34266  291.37 0854.57
2009/04/23 14:38:02.6      -3     41     82     42     92 355.6  71.4  34276  291.55 0854.57
2009/04/23 14:38:02.7     -74      0    117     75    138 270.0  64.6  34264  291.33 0854.57
2009/04/23 14:38:02.8      -3    -94    107     95    143 182.2  53.7  34252  291.13 0854.57
2009/04/23 14:38:02.9       5   -109    125    110    166 177.3  54.3  34254  291.16 0854.57
2009/04/23 14:38:03.0      -9   -137    124    138    185 184.0  46.6  34266  291.37 0854.57
2009/04/23 14:38:03.1       0    -65    126     66    142 180.0  70.4  34288  291.74 0854.57
2009/04/23 14:38:03.2    -121   -101    107    158    190 230.0  37.3  34290  291.77 0854.57
2009/04/23 14:38:03.3     -91    -84     38    124    130 227.3  17.4  34304  292.01 0854.57
2009/04/23 14:38:03.4     -41   -124    118    131    176 198.7  46.9  34328  292.42 0854.57
2009/04/23 14:38:03.5     -74    -64     84     98    129 229.1  44.8  34332  292.51 0854.57
2009/04/23 14:38:03.6       3    -32     81     33     87 173.8  77.1  34332  292.49 0854.57
2009/04/23 14:38:03.7     -74    -45     69     87    111 238.5  43.3  34344  292.69 0854.57
2009/04/23 14:38:03.8     -36     36     48     51     70 315.0  48.0  34324  292.37 0854.57
2009/04/23 14:38:03.9     -27     12     33     30     44 295.2  52.2  34336  292.58 0854.57
2009/04/23 14:38:04.0       6    -79     40     80     89 175.5  28.2  34326  292.40 0854.57
2009/04/23 14:38:04.1     -44    -28     69     53     87 237.6  58.5  34342  292.66 0854.58
2009/04/23 14:38:04.2     -18     -7     50     20     53 248.3  78.2  34346  292.73 0854.58
2009/04/23 14:38:04.3       0      5      8      6     10 357.3  56.4  34340  292.64 0854.58
2009/04/23 14:38:04.4      31     93     27     99    103  18.7  15.3  34328  292.44 0854.58
2009/04/23 14:38:04.5      26     31     72     41     82  39.6  68.3  34314  292.20 0854.58
2009/04/23 14:38:04.6     -41    -36     54     55     77 228.7  51.1  34312  292.15 0854.58
2009/04/23 14:38:04.7     -68    -56     75     89    116 230.5  44.3  34342  292.66 0854.58
2009/04/23 14:38:04.8     -72    -89    101    115    153 219.2  45.9  34316  292.23 0854.58
2009/04/23 14:38:04.9     -97   -150     31    179    182 213.0   9.9  34328  292.42 0854.58
2009/04/23 14:38:05.0     -52   -125     62    136    149 202.7  27.1  34304  292.03 0854.58
2009/04/23 14:38:05.1     -53    -94     75    109    132 209.4  37.6  34286  291.72 0854.58
2009/04/23 14:38:05.2     -99    -51     61    112    127 242.9  31.3  34318  292.25 0854.58
2009/04/23 14:38:05.3    -173    -65     43    185    191 249.4  13.2  34336  292.58 0854.58
2009/04/23 14:38:05.4    -201    -45     65    207    218 257.2  17.4  34356  292.90 0854.58
2009/04/23 14:38:05.5    -173     -3     83    174    192 268.7  27.2  34360  292.98 0854.58
2009/04/23 14:38:05.6    -103    -89    157    137    208 229.1  54.3  34340  292.64 0854.58
2009/04/23 14:38:05.7     -86   -166    164    187    248 207.4  45.8  34316  292.23 0854.58
2009/04/23 14:38:05.8    -113   -194    148    225    269 210.3  36.5  34278  291.58 0854.58
2009/04/23 14:38:05.9     -87   -189    121    209    241 204.7  32.9  34288  291.76 0854.58
2009/04/23 14:38:06.0     -85   -153    181    176    252 209.2  50.7  34332  292.51 0854.58
2009/04/23 14:38:06.2    -132    -91     86    161    182 235.4  30.6  34350  292.80 0854.58
2009/04/23 14:38:06.3    -122    -68     68    140    155 240.7  27.3  34360  292.98 0854.58
2009/04/23 14:38:06.4     -71    -33     73     79    107 244.7  47.9  34368  293.10 0854.58
2009/04/23 14:38:06.5     -27    -27     78     39     87 225.0  71.9  34374  293.21 0854.58
2009/04/23 14:38:06.6     -93    -10     62     94    112 263.4  36.0  34396  293.58 0854.58
2009/04/23 14:38:06.7     -65    -33     64     74     97 242.9  45.8  34410  293.82 0854.58
2009/04/23 14:38:06.8     -27      2     83     28     87 274.3  81.0  34410  293.84 0854.58
2009/04/23 14:38:06.9      19     55     40     59     71  19.2  36.5  34394  293.55 0854.58
2009/04/23 14:38:07.0     -57      0     68     58     89 270.0  55.4  34422  294.03 0854.58
2009/04/23 14:38:07.1     -57     15     53     60     80 285.1  45.8  34424  294.08 0854.58
2009/04/23 14:38:07.2     -32     22     -8     40     41 305.1 -11.3  34420  294.01 0854.58
2009/04/23 14:38:07.3     -77    -49     -6     92     93 237.6  -4.1  34418  293.97 0854.58
2009/04/23 14:38:07.4     -68    -95      9    118    119 215.6   4.4  34406  293.75 0854.58
2009/04/23 14:38:07.5     -81   -124     48    149    157 213.0  17.9  34404  293.74 0854.58
2009/04/23 14:38:07.6     -17   -122     22    124    126 188.0  10.1  34414  293.89 0854.58
2009/04/23 14:38:07.7     -69    -34    -56     77     95 243.8 -44.1  34408  293.79 0854.58
2009/04/23 14:38:07.8    -111    -25    -14    114    115 257.2  -7.2  34404  293.72 0854.58
2009/04/23 14:38:07.9    -107      7     30    108    113 273.9  15.8  34404  293.74 0854.58
2009/04/23 14:38:08.0    -126    -12     50    127    136 264.3  22.5  34410  293.82 0854.58
2009/04/23 14:38:08.1     -74    -13     65     76    100 259.4  44.8  34412  293.87 0854.58
2009/04/23 14:38:08.2     -76     31     53     83     98 292.6  35.6  34410  293.82 0854.53
2009/04/23 14:38:08.3     -64     46     71     79    106 305.9  47.5  34414  293.89 0854.53
2009/04/23 14:38:08.4     -29     -2     60     30     67 265.7  71.9  34410  293.84 0854.53
2009/04/23 14:38:08.5     -77    -42      8     89     90 241.1   5.4  34418  293.96 0854.53
2009/04/23 14:38:08.6     -97      4     36     98    104 272.6  20.4  34418  293.97 0854.53
2009/04/23 14:38:08.7     -44    -30     79     54     95 235.8  63.2  34394  293.55 0854.53
2009/04/23 14:38:08.8     -23    -45     97     51    109 207.2  69.8  34332  292.51 0854.53
2009/04/23 14:38:08.9     -80    -28     45     85     96 250.5  30.3  34352  292.83 0854.53
2009/04/23 14:38:09.0    -192   -185     94    267    283 226.0  20.0  34362  292.99 0854.53
2009/04/23 14:38:09.1     -78   -236     48    249    254 198.5  11.1  34316  292.21 0854.53
2009/04/23 14:38:09.2    -160   -128     50    206    213 231.4  13.7  34380  293.33 0854.53
2009/04/23 14:38:09.3    -210    -75     79    224    238 250.3  19.4  34434  294.24 0854.53
2009/04/23 14:38:09.4    -205    -66    119    216    246 252.1  31.4  34416  293.93 0854.53
2009/04/23 14:38:09.5    -196    -53    115    204    234 254.9  31.9  34382  293.34 0854.53
2009/04/23 14:38:09.6     -60     30     81     68    105 297.1  55.8  34386  293.43 0854.53
2009/04/23 14:38:09.7    -126   -104    107    164    195 230.5  36.3  34362  293.02 0854.53
2009/04/23 14:38:09.8     -59   -236     93    244    261 194.2  22.0  34352  292.82 0854.53
2009/04/23 14:38:09.9    -180   -256    113    314    333 215.1  20.7  34344  292.70 0854.53
2009/04/23 14:38:10.0    -130   -175    178    219    282 216.5  43.3  34362  292.99 0854.53
2009/04/23 14:38:10.1    -163   -142    148    217    262 228.9  37.6  34272  291.46 0854.53
2009/04/23 14:38:10.2    -126   -127    112    180    212 224.8  35.5  34296  291.88 0854.53
2009/04/23 14:38:10.3    -112   -125     54    169    178 221.9  17.9  34312  292.15 0854.53
2009/04/23 14:38:10.4      -2   -161     40    162    167 180.9  13.9  34346  292.73 0854.53
2009/04/23 14:38:10.5     -23   -176    103    178    205 187.6  32.9  34302  291.98 0854.53
2009/04/23 14:38:10.6     -17   -170    187    171    253 186.0  52.5  34296  291.89 0854.53
2009/04/23 14:38:10.7     -33   -164    132    168    213 191.3  42.2  34294  291.84 0854.53
2009/04/23 14:38:10.8     -67   -168     57    181    190 201.8  17.7  34276  291.54 0854.53
2009/04/23 14:38:10.9      -2   -117     54    118    129 181.4  26.6  34282  291.66 0854.53
2009/04/23 14:38:11.0     -10    -99     89    100    133 186.2  46.4  34276  291.54 0854.53
2009/04/23 14:38:11.1     -90   -164     64    188    199 208.7  18.9  34266  291.37 0854.53
2009/04/23 14:38:11.2    -113   -203    108    233    256 209.0  26.6  34258  291.22 0854.56
2009/04/23 14:38:11.3    -137   -150     73    204    216 222.5  20.4  34296  291.88 0854.56
2009/04/23 14:38:11.4    -143   -167     77    221    235 220.5  19.2  34268  291.42 0854.56
2009/04/23 14:38:11.5    -164   -181     92    245    261 222.1  21.5  34286  291.70 0854.56
2009/04/23 14:38:11.6    -127   -229     61    262    269 209.0  13.1  34254  291.17 0854.56
2009/04/23 14:38:11.7    -155   -200     28    254    256 217.8   6.5  34276  291.53 0854.56
2009/04/23 14:38:11.8    -136   -207    143    248    286 213.4  32.7  34256  291.19 0854.56
2009/04/23 14:38:11.9    -122   -165    194    206    282 216.5  48.2  34276  291.53 0854.56
2009/04/23 14:38:12.0    -130   -125     88    181    201 226.0  27.8  34262  291.32 0854.56
2009/04/23 14:38:12.1     -43    -98    118    108    159 203.6  52.7  34260  291.28 0854.56
2009/04/23 14:38:12.2    -104   -140     63    175    185 216.5  20.2  34256  291.20 0854.56
2009/04/23 14:38:12.3     -47    -56     88     74    114 219.6  56.3  34260  291.26 0854.56
2009/04/23 14:38:12.4      26      3     84     27     88  82.1  81.2  34292  291.83 0854.56
2009/04/23 14:38:12.5      -5    -49     68     50     84 186.2  60.0  34300  291.95 0854.56
2009/04/23 14:38:12.6      28    -35     69     46     82 141.3  63.2  34306  292.06 0854.56
2009/04/23 14:38:12.7      -6    -76     60     77     97 184.5  42.2  34282  291.64 0854.56
2009/04/23 14:38:12.8      15   -127     90    128    156 172.9  38.6  34270  291.45 0854.56
2009/04/23 14:38:12.9      43   -193     38    198    202 167.3  11.1  34266  291.37 0854.56
2009/04/23 14:38:13.0      -2   -191     82    192    208 180.9  24.6  34268  291.42 0854.56
2009/04/23 14:38:13.1     -12   -270     74    271    281 182.7  15.3  34272  291.48 0854.56
2009/04/23 14:38:13.2      66   -139    136    154    205 154.5  45.9  34288  291.76 0854.54
2009/04/23 14:38:13.3      48   -162    132    170    215 163.3  41.7  34292  291.81 0854.54
2009/04/23 14:38:13.4      25   -170    129    172    215 171.5  40.4  34288  291.76 0854.54
2009/04/23 14:38:13.5     -69   -181     74    194    207 200.9  21.7  34260  291.26 0854.54
2009/04/23 14:38:13.6       1   -172     65    173    184 179.5  21.3  34270  291.45 0854.54
2009/04/23 14:38:13.7     -27   -195     96    197    219 188.0  27.8  34246  291.04 0854.54
2009/04/23 14:38:13.8      -8   -182     72    183    196 182.7  22.8  34252  291.13 0854.54
2009/04/23 14:38:13.9       8   -183     77    184    199 177.3  23.8  34248  291.08 0854.54
2009/04/23 14:38:14.0     -16   -211     72    212    225 184.5  18.9  34254  291.16 0854.54
2009/04/23 14:38:14.1     -32   -179     58    182    192 190.2  17.7  34254  291.16 0854.54
2009/04/23 14:38:14.2     -48   -153     63    161    172 197.4  22.3  34262  291.30 0854.54
2009/04/23 14:38:14.3      -7   -112     49    113    123 183.6  25.1  34264  291.35 0854.54
2009/04/23 14:38:14.4     -43    -58     40     73     83 217.0  30.8  34270  291.45 0854.54
2009/04/23 14:38:14.5     -95    -69     17    118    120 234.1   8.5  34266  291.37 0854.54
2009/04/23 14:38:14.6    -111   -107     20    155    157 226.0   7.5  34274  291.52 0854.54
2009/04/23 14:38:14.7    -141    -91     23    168    170 237.1   7.8  34272  291.49 0854.54
2009/04/23 14:38:14.8    -110   -119     66    163    175 222.8  23.0  34272  291.49 0854.54
2009/04/23 14:38:14.9    -108    -86     88    139    164 231.4  35.5  34274  291.52 0854.54
2009/04/23 14:38:15.0    -127    -75     83    148    169 239.3  31.9  34286  291.72 0854.54
2009/04/23 14:38:15.1     -85     40     78     95    122 295.2  43.7  34304  292.03 0854.54
2009/04/23 14:38:15.2    -161    124     45    204    210 307.8  12.6  34328  292.42 0854.50
2009/04/23 14:38:15.3    -135    107     41    173    178 308.4  13.5  34324  292.35 0854.50
2009/04/23 14:38:15.4    -121    100     -3    158    159 309.5  -1.1  34308  292.10 0854.50
2009/04/23 14:38:15.5    -159     -2     43    160    166 269.2  15.3  34322  292.34 0854.50
2009/04/23 14:38:15.6    -166    -63     97    178    202 248.9  31.3  34320  292.29 0854.50
2009/04/23 14:38:15.7    -156   -156    100    222    243 225.0  26.2  34282  291.65 0854.50
2009/04/23 14:38:15.8    -108   -153     93    188    209 215.2  28.0  34282  291.64 0854.50
2009/04/23 14:38:15.9     -83   -100     46    131    139 219.6  19.4  34278  291.59 0854.50
2009/04/23 14:38:16.0     -95    -96     26    136    139 224.5  11.1  34284  291.67 0854.50
2009/04/23 14:38:16.1    -154   -175     32    234    237 221.4   8.0  34244  290.99 0854.50
2009/04/23 14:38:16.2    -158   -200     14    256    257 218.3   3.1  34244  291.00 0854.50
2009/04/23 14:38:16.3    -106   -207    -13    233    234 207.2  -3.3  34252  291.12 0854.50
2009/04/23 14:38:16.4     -63   -161     -6    174    175 201.6  -2.2  34254  291.18 0854.50
2009/04/23 14:38:16.5     -68    -91     51    114    124 217.0  25.2  34256  291.21 0854.50
2009/04/23 14:38:16.6     -41    -78     49     89    101 208.1  31.4  34262  291.32 0854.50
2009/04/23 14:38:16.7     -28    -26     59     39     70 226.7  64.6  34262  291.30 0854.50
2009/04/23 14:38:16.8     -70     23     61     74     95 288.4  43.7  34286  291.71 0854.50
2009/04/23 14:38:16.9     -81     82     77    116    139 315.3  36.5  34330  292.46 0854.50
2009/04/23 14:38:17.0     -75     47     68     89    112 302.0  41.7  34334  292.54 0854.50
2009/04/23 14:38:17.1    -148     77    104    167    196 297.5  35.0  34336  292.56 0854.50
2009/04/23 14:38:17.2    -132     62     91    147    172 295.3  35.2  34332  292.51 0854.49
2009/04/23 14:38:17.3     -34    -13    131     37    136 248.3  83.9  34342  292.66 0854.49
2009/04/23 14:38:17.4     -14     -6    116     16    117 244.7  90.0  34360  292.98 0854.49
2009/04/23 14:38:17.5     -13    -44     82     47     94 196.9  67.2  34366  293.09 0854.49
2009/04/23 14:38:17.6       5    -11     61     13     62 154.6  89.0  34360  292.97 0854.49
2009/04/23 14:38:17.7      24    -29     58     38     69 140.4  64.6  34366  293.09 0854.49
2009/04/23 14:38:17.8      53    -50     45     74     86 133.2  34.4  34364  293.05 0854.49
2009/04/23 14:38:17.9      39    -51     38     65     75 142.2  33.5  34372  293.19 0854.49
2009/04/23 14:38:18.0      11    -73     46     74     87 171.1  35.5  34368  293.10 0854.49
2009/04/23 14:38:18.1       8   -110     38    111    118 175.6  18.9  34360  292.98 0854.49
2009/04/23 14:38:18.2      10   -107      5    108    109 174.7   2.8  34362  293.00 0854.49
2009/04/23 14:38:18.3       5    -71     30     72     78 175.5  23.1  34384  293.39 0854.49
2009/04/23 14:38:18.4      36    -87     45     95    105 157.3  27.2  34388  293.46 0854.49
2009/04/23 14:38:18.5     -26   -132     56    135    146 191.5  23.1  34366  293.07 0854.49
2009/04/23 14:38:18.6     -56   -153     88    164    186 200.3  30.6  34314  292.20 0854.49
2009/04/23 14:38:18.7     -69   -152     39    168    173 204.5  13.2  34306  292.05 0854.49
2009/04/23 14:38:18.8     -14   -134      5    135    136 186.2   2.3  34294  291.84 0854.49
2009/04/23 14:38:18.9      42   -140    -18    147    149 163.1  -7.2  34288  291.76 0854.49
2009/04/23 14:38:19.0     -14   -118    -34    119    124 187.1 -16.0  34292  291.83 0854.49
2009/04/23 14:38:19.1     -50   -148     16    157    158 198.7   5.9  34304  292.03 0854.49
2009/04/23 14:38:19.2     -11   -141      8    142    143 184.5   3.3  34352  292.85 0854.49
2009/04/23 14:38:19.3      32   -157     45    161    168 168.4  15.8  34392  293.53 0854.49
2009/04/23 14:38:19.4       6   -169     30    170    173 177.8  10.1  34386  293.41 0854.49
2009/04/23 14:38:19.5      70   -187    -46    200    206 159.3 -13.2  34366  293.07 0854.49
2009/04/23 14:38:19.6     108   -158      1    192    193 145.5   0.5  34308  292.08 0854.49
2009/04/23 14:38:19.7     -56   -112     74    126    146 206.7  33.5  34304  292.03 0854.49
2009/04/23 14:38:19.8     -26    -87     80     92    121 196.9  45.8  34310  292.13 0854.49
2009/04/23 14:38:19.9     -61    -55     70     83    108 227.8  44.3  34296  291.89 0854.49
2009/04/23 14:38:20.0     -60   -116    -84    131    155 207.6 -40.0  34280  291.60 0854.49
2009/04/23 14:38:20.1     -79   -126    -47    149    156 212.1 -22.5  34284  291.69 0854.49
2009/04/23 14:38:20.2     -46    -98    -34    109    115 205.5 -17.6  34290  291.79 0854.49
2009/04/23 14:38:20.3     -58    -36     45     69     82 237.6  36.5  34298  291.93 0854.49
2009/04/23 14:38:20.4       8     -8     78     12     78 135.0  90.0  34358  292.93 0854.49
2009/04/23 14:38:20.5      43    -14     66     46     80 108.2  61.5  34390  293.48 0854.49
2009/04/23 14:38:20.6      50    -22     49     55     73 114.4  47.9  34404  293.72 0854.49
2009/04/23 14:38:20.7      30    -35     77     47     90 139.5  65.1  34384  293.38 0854.49
2009/04/23 14:38:20.8      32    -21     79     39     88 124.2  71.9  34378  293.27 0854.49
2009/04/23 14:38:20.9     -20    -32     38     39     54 212.5  51.1  34366  293.09 0854.49
2009/04/23 14:38:21.0     -35    -63      8     73     74 209.0   6.9  34362  293.02 0854.49
2009/04/23 14:38:21.1     -56    -73     40     93    101 217.4  24.6  34390  293.48 0854.49
2009/04/23 14:38:21.2     -75   -114     48    137    146 213.4  19.4  34422  294.04 0854.50
2009/04/23 14:38:21.3     -77   -162     68    180    192 205.6  21.5  34416  293.92 0854.50
2009/04/23 14:38:21.4     -73   -170     52    186    194 203.4  15.6  34394  293.56 0854.50
2009/04/23 14:38:21.5     -57   -173     57    183    192 198.5  17.4  34404  293.72 0854.50
2009/04/23 14:38:21.6      -2   -156     89    157    180 180.9  31.9  34362  293.00 0854.50
2009/04/23 14:38:21.7     157    -31    101    161    190 101.4  35.5  34354  292.88 0854.50
2009/04/23 14:38:21.8     -37   -120    191    126    228 197.4  63.9  34340  292.64 0854.50
2009/04/23 14:38:21.9     -21   -149    129    151    198 188.1  45.1  34330  292.47 0854.50
2009/04/23 14:38:22.0     -21   -150    103    152    183 188.0  37.3  34298  291.93 0854.50
2009/04/23 14:38:22.1     -22    -92    149     95    176 193.4  64.6  34306  292.05 0854.50
2009/04/23 14:38:22.2     -23   -114    135    117    178 191.6  54.8  34296  291.89 0854.50
2009/04/23 14:38:22.3      24    -64     95     69    117 159.1  60.5  34302  292.00 0854.50
2009/04/23 14:38:22.4      96     53     97    110    146  61.1  45.9  34328  292.42 0854.50
2009/04/23 14:38:22.5      79     71    107    107    151  48.2  50.1  34326  292.39 0854.50
2009/04/23 14:38:22.6      27    101     60    105    120  15.1  32.4  34340  292.63 0854.50
2009/04/23 14:38:22.7      74     -9     76     75    106  97.0  49.7  34306  292.05 0854.50
2009/04/23 14:38:22.8     133    -48    102    142    174 110.0  39.1  34294  291.86 0854.50
2009/04/23 14:38:22.9     154     57    132    165    211  69.4  43.0  34284  291.69 0854.50
2009/04/23 14:38:23.0     162      5     20    163    165  87.9   7.2  34300  291.95 0854.50
2009/04/23 14:38:23.1       0    106     58    107    121   0.0  30.8  34290  291.79 0854.50
2009/04/23 14:38:23.2     -57    -83    100    101    142 214.7  50.0  34304  292.03 0854.50
2009/04/23 14:38:23.3      20      3    148     21    149  80.3  90.0  34292  291.81 0854.50
2009/04/23 14:38:23.4      15    -49    118     52    128 162.2  74.9  34284  291.69 0854.50
2009/04/23 14:38:23.5     -13    -21    105     25    107 212.5  86.9  34280  291.60 0854.50
2009/04/23 14:38:23.6       9   -123    174    124    213 175.6  61.1  34272  291.47 0854.50
2009/04/23 14:38:23.7      -8    -82    130     83    154 186.2  64.7  34280  291.60 0854.50
2009/04/23 14:38:23.8      10      0     83     11     83  94.4  90.0  34302  292.00 0854.50
2009/04/23 14:38:23.9     157     32    161    161    227  78.5  50.1  34294  291.86 0854.50
2009/04/23 14:38:24.0      88     83    140    122    185  46.8  54.6  34324  292.37 0854.50
2009/04/23 14:38:24.1     -17     98     96    100    138 349.8  49.0  34352  292.85 0854.50
2009/04/23 14:38:24.2      84     73    143    112    181  49.1  57.9  34402  293.68 0854.50
2009/04/23 14:38:24.3      28     89    131     94    161  17.8  60.8  34410  293.82 0854.50
2009/04/23 14:38:24.4      39     52    107     66    125  37.0  65.1  34414  293.91 0854.50
2009/04/23 14:38:24.5      -6    131    124    132    181 357.3  48.0  34410  293.84 0854.50
2009/04/23 14:38:24.6       9    171    113    172    205   3.1  36.3  34404  293.74 0854.50
2009/04/23 14:38:24.7     113    237    141    263    298  25.5  30.6  34430  294.16 0854.50
2009/04/23 14:38:24.8      83    209    120    226    255  21.8  30.3  34414  293.88 0854.50
2009/04/23 14:38:24.9     -21    271     98    272    289 355.5  20.7  34418  293.95 0854.50
2009/04/23 14:38:25.0     -82    224     44    239    244 339.7  10.6  34418  293.97 0854.50
2009/04/23 14:38:25.1     -62    183      7    194    195 341.1   2.1  34420  293.99 0854.50
2009/04/23 14:38:25.2     -13    135     63    136    149 354.2  27.1  34416  293.94 0854.51
2009/04/23 14:38:25.3     167     76    -38    184    189  65.6 -11.9  34414  293.91 0854.51
2009/04/23 14:38:25.4      91     75      9    118    119  50.5   4.4  34410  293.84 0854.51
2009/04/23 14:38:25.5     159    121    116    200    231  52.7  33.1  34414  293.89 0854.51
2009/04/23 14:38:25.6     176     60     41    187    192  71.2  12.6  34404  293.74 0854.51
2009/04/23 14:38:25.7     167     55    -58    177    187  71.6 -18.1  34428  294.13 0854.51
2009/04/23 14:38:25.8     328    142    -10    358    359  66.6  -1.6  34394  293.55 0854.51
2009/04/23 14:38:25.9     271    155     36    313    316  60.3   6.6  34364  293.05 0854.51
2009/04/23 14:38:26.0     228    138    105    267    286  58.7  22.8  34372  293.16 0854.51
2009/04/23 14:38:26.1     271    172     97    322    337  57.5  16.8  34404  293.72 0854.51
2009/04/23 14:38:26.2     443    176    193    477    514  68.3  23.2  34408  293.79 0854.51
2009/04/23 14:38:26.3     426     84    209    435    482  78.8  27.4  34396  293.60 0854.51
2009/04/23 14:38:26.4     397    183     22    438    439  65.3   2.9  34362  293.00 0854.51
2009/04/23 14:38:26.5     268    182    -41    324    327  55.8  -7.3  34350  292.79 0854.51
2009/04/23 14:38:26.6     309    210    -14    374    375  55.8  -2.2  34342  292.65 0854.51
2009/04/23 14:38:26.7     287    226     48    366    370  51.8   7.6  34262  291.32 0854.51
2009/04/23 14:38:26.8     316    240     62    398    403  52.8   8.9  34196  290.18 0854.51
2009/04/23 14:38:26.9     356    210     89    414    424  59.4  12.2  34256  291.19 0854.51
2009/04/23 14:38:27.0     360    137    141    386    410  69.2  20.9  34342  292.66 0854.51
2009/04/23 14:38:27.1     366    195     84    415    424  61.9  11.6  34254  291.18 0854.51
2009/04/23 14:38:27.2     336    151     60    369    375  65.7   9.3  34230  290.77 0854.51
2009/04/23 14:38:27.3     343    122    111    365    382  70.4  17.0  34268  291.42 0854.51
2009/04/23 14:38:27.4     289    184     66    343    350  57.5  11.0  34242  290.96 0854.51
2009/04/23 14:38:27.5     285    277    122    398    417  45.8  17.0  34330  292.45 0854.51
2009/04/23 14:38:27.6     256    232    175    346    387  47.8  28.9  34328  292.44 0854.51
2009/04/23 14:38:27.7     276    276    183    391    431  45.1  27.1  34342  292.66 0854.51
2009/04/23 14:38:27.8     320    255    190    410    451  51.4  26.9  34320  292.28 0854.51
2009/04/23 14:38:27.9     170    329    179    371    411  27.4  27.7  34290  291.79 0854.51
2009/04/23 14:38:28.0     244    258    191    356    404  43.4  30.5  34308  292.10 0854.51
2009/04/23 14:38:28.1     366    337     62    498    502  47.3   7.1  34278  291.56 0854.51
2009/04/23 14:38:28.2     217    300    100    371    385  35.8  15.2  34248  291.05 0854.51
2009/04/23 14:38:28.3     259    353    159    438    465  36.3  20.8  34270  291.45 0854.51
2009/04/23 14:38:28.4     282    286    115    402    419  44.6  16.0  34274  291.50 0854.51
2009/04/23 14:38:28.5     323    324    107    458    471  44.9  13.2  34258  291.24 0854.51
2009/04/23 14:38:28.6     222    287     88    364    375  37.7  13.7  34322  292.34 0854.51
2009/04/23 14:38:28.7     415    234    131    477    495  60.6  15.4  34338  292.60 0854.51
2009/04/23 14:38:28.8     518    215    102    561    571  67.4  10.4  34294  291.84 0854.51
2009/04/23 14:38:28.9     534    191    154    568    589  70.3  15.2  34286  291.72 0854.51
2009/04/23 14:38:29.0     546    243    174    598    623  66.0  16.3  34256  291.20 0854.51
2009/04/23 14:38:29.1     582    161    268    605    661  74.5  25.6  34316  292.22 0854.51
2009/04/23 14:38:29.2     567    133    190    583    614  76.8  18.0  34326  292.38 0854.52
2009/04/23 14:38:29.4     512    199    129    550    565  68.7  13.2  34286  291.71 0854.52
2009/04/23 14:38:29.5     578    156     72    599    604  74.9   6.9  34296  291.89 0854.52
2009/04/23 14:38:29.5     545    145     75    564    569  75.1   7.6  34352  292.85 0854.52
2009/04/23 14:38:29.6     440    104    100    453    465  76.7  12.5  34338  292.59 0854.52
2009/04/23 14:38:29.7     621    161     35    642    644  75.4   3.1  34358  292.95 0854.52
2009/04/23 14:38:29.8     474      4     71    475    481  89.5   8.6  34352  292.85 0854.52
2009/04/23 14:38:29.9     328    -54    -21    333    334  99.5  -3.7  34368  293.12 0854.52
2009/04/23 14:38:30.0     286     27     67    288    296  84.5  13.1  34366  293.06 0854.52
2009/04/23 14:38:30.1     430    -11    139    431    453  91.5  17.9  34362  293.01 0854.52
2009/04/23 14:38:30.2     386    -16    156    387    417  92.5  23.1  34370  293.15 0854.52
2009/04/23 14:38:30.3     372    -35    207    374    427  95.5  31.4  34380  293.32 0854.52
2009/04/23 14:38:30.4     372    -10    193    373    419  91.6  29.4  34376  293.25 0854.52
2009/04/23 14:38:30.6     397    -81    139    406    430 101.6  18.9  34346  292.72 0854.52
2009/04/23 14:38:30.7     350    -78     95    359    372 102.6  14.9  34338  292.60 0854.52
2009/04/23 14:38:30.7     468    -20     70    469    475  92.5   8.6  34280  291.61 0854.52
2009/04/23 14:38:30.8     452      7    145    453    476  89.1  17.8  34308  292.07 0854.52
2009/04/23 14:38:30.9     391     29    139    393    416  85.7  20.2  34324  292.37 0854.52
2009/04/23 14:38:31.0     336      0    219    337    401  90.0  36.2  34352  292.82 0854.52
2009/04/23 14:38:31.1     303     51    284    308    418  80.4  47.6  34354  292.87 0854.52
2009/04/23 14:38:31.2     291     78    242    302    386  74.9  43.0  34352  292.85 0854.53
2009/04/23 14:38:31.3     232    109    207    257    329  64.8  43.1  34332  292.48 0854.53
2009/04/23 14:38:31.4     191     42    139    196    240  77.4  38.8  34282  291.64 0854.53
2009/04/23 14:38:31.5     105     90    -27    139    142  49.6 -11.3  34282  291.64 0854.53
2009/04/23 14:38:31.6     -27   -100    117    104    156 195.1  53.7  34282  291.64 0854.53
2009/04/23 14:38:31.7      21    -96    185     99    209 167.5  69.6  34316  292.22 0854.53
2009/04/23 14:38:31.8     156    -21     93    158    183  98.0  33.5  34298  291.91 0854.53
2009/04/23 14:38:31.9     119     -1    -49    120    129  90.8 -27.4  34298  291.93 0854.53
2009/04/23 14:38:32.0     165    109    -64    198    208  56.5 -23.3  34302  292.00 0854.53
2009/04/23 14:38:32.1     243    123    -39    273    276  63.0  -8.2  34310  292.11 0854.53
2009/04/23 14:38:32.2     156     61     -9    168    169  68.7  -3.3  34304  292.03 0854.53
2009/04/23 14:38:32.3     115    170    -67    206    216  34.3 -23.3  34292  291.81 0854.53
2009/04/23 14:38:32.4      76    168    -66    185    196  24.5 -24.6  34288  291.74 0854.53
2009/04/23 14:38:32.5      71    206     57    219    227  19.2  14.7  34308  292.08 0854.53
2009/04/23 14:38:32.6     151     88     18    175    177  59.8   6.1  34300  291.96 0854.53
2009/04/23 14:38:32.7     206     13     34    207    210  86.3   9.3  34302  291.98 0854.53
2009/04/23 14:38:32.8     119     60    -77    134    154  63.0 -37.3  34316  292.23 0854.53
2009/04/23 14:38:32.9      75    208    -62    222    231  19.8 -15.8  34276  291.55 0854.53
2009/04/23 14:38:33.1     164    218     11    274    275  37.0   2.3  34288  291.73 0854.53
2009/04/23 14:38:33.1      67     87    161    111    195  37.8  62.4  34314  292.20 0854.53
2009/04/23 14:38:33.2      70    -71    197    100    220 135.3  71.1  34312  292.17 0854.53
2009/04/23 14:38:33.3     233    -77    168    246    297 108.4  37.6  34266  291.38 0854.53
2009/04/23 14:38:33.4     142     53     87    152    175  69.2  32.7  34274  291.52 0854.53
2009/04/23 14:38:33.5     124    -31    212    128    247 104.2  66.0  34282  291.64 0854.53
2009/04/23 14:38:33.6     200    125    141    237    275  58.0  33.5  34266  291.38 0854.53
2009/04/23 14:38:33.7     241     96    181    260    316  68.3  38.3  34246  291.04 0854.53
2009/04/23 14:38:33.8     206    169    160    267    311  50.5  33.7  34266  291.36 0854.53
2009/04/23 14:38:33.9     174     22    102    176    203  82.8  33.1  34272  291.47 0854.53
2009/04/23 14:38:34.1     171    -53    135    180    225 107.3  40.7  34274  291.50 0854.53
2009/04/23 14:38:34.2     188     66     90    200    219  70.5  25.9  34278  291.57 0854.53
2009/04/23 14:38:34.3     214     31    167    217    273  81.6  41.6  34292  291.82 0854.54
2009/04/23 14:38:34.4     255     83    175    269    320  71.8  36.2  34292  291.80 0854.54
2009/04/23 14:38:34.5     375    111    210    392    444  73.5  30.5  34288  291.74 0854.54
2009/04/23 14:38:34.6     187     12    129    188    228  86.1  37.6  34308  292.08 0854.54
2009/04/23 14:38:34.7     364     62    175    370    409  80.3  27.1  34298  291.91 0854.54
2009/04/23 14:38:34.8     287    109    192    308    362  69.2  35.1  34296  291.88 0854.54
2009/04/23 14:38:34.9     237    128    201    270    336  61.6  40.2  34302  291.99 0854.54
2009/04/23 14:38:35.0     170     67    161    183    243  68.5  45.9  34314  292.18 0854.54
2009/04/23 14:38:35.1     190     62    124    201    236  71.8  34.5  34282  291.64 0854.54
2009/04/23 14:38:35.2     122     33    115    127    171  74.5  46.9  34306  292.05 0854.54
2009/04/23 14:38:35.3      68     67     86     96    128  45.4  46.9  34316  292.22 0854.54
2009/04/23 14:38:35.4      18     62     40     65     76  16.9  35.5  34304  292.01 0854.54
2009/04/23 14:38:35.5     -30    121     49    125    134 345.7  22.0  34310  292.13 0854.54
2009/04/23 14:38:35.6     -38    131     49    137    145 343.5  20.0  34320  292.30 0854.54
2009/04/23 14:38:35.7     -59     94     15    111    113 327.9   8.0  34322  292.32 0854.54
2009/04/23 14:38:35.8      59    165    -13    176    177  19.8  -4.4  34314  292.18 0854.54
2009/04/23 14:38:35.9      21    210    -69    212    224   5.8 -18.1  34314  292.18 0854.54
2009/04/23 14:38:36.0     -40    169    -77    174    190 346.6 -30.1  34316  292.23 0854.54
2009/04/23 14:38:36.1     168    259   -110    309    327  33.0 -24.7  34288  291.75 0854.54
2009/04/23 14:38:36.2     251    118    136    278    309  64.8  27.8  34274  291.50 0854.54
2009/04/23 14:38:36.3      -3    285   -111    286    306 359.3 -26.7  34268  291.41 0854.54
2009/04/23 14:38:36.4     176    176     41    249    253  45.0   9.3  34270  291.43 0854.54
2009/04/23 14:38:36.5     171    130     76    216    228  52.7  20.0  34274  291.52 0854.54
2009/04/23 14:38:36.6     167    137    -75    217    230  50.7 -19.1  34264  291.33 0854.54
2009/04/23 14:38:36.7      11     96   -133     97    164   7.1 -64.9  34256  291.21 0854.54
2009/04/23 14:38:36.8     137    107    -54    175    183  52.0 -22.3  34268  291.42 0854.54
2009/04/23 14:38:36.9     174     99    -71    201    213  60.5 -24.4  34264  291.35 0854.54
2009/04/23 14:38:37.0     274    119    -77    299    309  66.5 -14.5  34246  291.04 0854.54
2009/04/23 14:38:37.1     345    185    -27    392    393  61.8  -4.0  34246  291.03 0854.54
2009/04/23 14:38:37.2     468    -52     61    471    475  96.4   7.5  34262  291.30 0854.54
2009/04/23 14:38:37.3     408   -306     91    511    520 126.9  10.1  34264  291.34 0854.54
2009/04/23 14:38:37.4     413   -416    148    587    606 135.2  14.2  34272  291.49 0854.54
2009/04/23 14:38:37.5     393   -406    185    566    596 135.9  18.1  34268  291.41 0854.54
2009/04/23 14:38:37.6     370   -389    213    537    577 136.4  23.0  34260  291.28 0854.54
2009/04/23 14:38:37.7      31   -548    -90    549    557 176.8  -9.4  34228  290.72 0854.54
2009/04/23 14:38:37.8     -81   -372   -102    381    395 192.4 -15.1  34248  291.06 0854.54
2009/04/23 14:38:37.9      58   -487    -84    491    499 173.1  -9.7  34208  290.39 0854.54
2009/04/23 14:38:38.0     142   -390    -68    416    422 160.0  -9.4  34202  290.29 0854.54
2009/04/23 14:38:38.1      66   -425      1    431    432 171.1   0.2  34214  290.50 0854.54
2009/04/23 14:38:38.2     139   -299    119    330    350 155.0  20.4  34216  290.52 0854.54
2009/04/23 14:38:38.3     268   -218    109    346    363 129.2  17.5  34212  290.47 0854.53
2009/04/23 14:38:38.4     385   -270    165    471    499 125.1  20.0  34222  290.64 0854.53
2009/04/23 14:38:38.5     418   -162    285    449    531 111.2  35.5  34228  290.73 0854.53
2009/04/23 14:38:38.6     184   -117    295    219    367 122.4  59.9  34230  290.76 0854.53
2009/04/23 14:38:38.7     178   -103    274    206    342 120.0  59.3  34242  290.95 0854.53
2009/04/23 14:38:38.8     126    -20    252    128    282  99.2  71.0  34258  291.24 0854.53
2009/04/23 14:38:38.9      19   -180    282    182    335 173.8  64.3  34244  291.00 0854.53
2009/04/23 14:38:39.0    -181   -321    354    369    511 209.5  48.7  34248  291.05 0854.53
2009/04/23 14:38:39.1     -68   -102    309    123    332 213.8  77.1  34262  291.29 0854.53
2009/04/23 14:38:39.2     -31   -264    313    266    410 186.7  55.4  34250  291.11 0854.53
2009/04/23 14:38:39.3      84   -132    238    157    285 147.4  63.6  34272  291.46 0854.53
2009/04/23 14:38:39.4    -122    -32    137    127    186 255.0  52.2  34246  291.04 0854.53
2009/04/23 14:38:39.5      42    227    231    231    326  10.5  50.1  34262  291.31 0854.53
2009/04/23 14:38:39.6     -54    387    223    391    450 352.0  32.3  34238  290.90 0854.53
2009/04/23 14:38:39.7     -51    154    251    163    299 341.7  64.1  34264  291.33 0854.53
2009/04/23 14:38:39.8       8     77    139     78    159   6.2  68.3  34260  291.26 0854.53
2009/04/23 14:38:39.9      66    433   -174    439    472   8.7 -27.2  34260  291.28 0854.53
2009/04/23 14:38:40.0      98    376    138    389    413  14.6  19.6  34240  290.92 0854.53
2009/04/23 14:38:40.1     266    338    -23    431    432  38.2  -3.2  34246  291.02 0854.53
2009/04/23 14:38:40.2     194    181    -28    266    268  46.9  -6.2  34248  291.07 0854.53
2009/04/23 14:38:40.3     364    144     62    392    397  68.4   9.0  34226  290.69 0854.53
2009/04/23 14:38:40.4     321    140     55    351    356  66.5   9.0  34234  290.84 0854.53
2009/04/23 14:38:40.5     305    107    126    324    347  70.6  22.4  34234  290.84 0854.53
2009/04/23 14:38:40.6     335    154     82    369    379  65.3  12.5  34232  290.81 0854.53
2009/04/23 14:38:40.7     336    247    211    418    468  53.6  28.8  34264  291.35 0854.53
2009/04/23 14:38:40.8     304    128    150    330    362  67.2  26.3  34258  291.22 0854.53
2009/04/23 14:38:40.9     238    173    188    295    349  54.1  35.5  34242  290.98 0854.53
2009/04/23 14:38:41.0     -72    347    178    355    397 348.2  28.6  34260  291.27 0854.53
2009/04/23 14:38:41.1    -155    483     61    508    512 342.2   6.9  34290  291.78 0854.53
2009/04/23 14:38:41.2     -86    505     58    513    517 350.3   6.5  34306  292.04 0854.53
2009/04/23 14:38:41.3      34    508     39    510    512   3.9   4.4  34310  292.12 0854.53
2009/04/23 14:38:41.4      99    468    -86    479    487  12.0 -10.3  34342  292.67 0854.53
2009/04/23 14:38:41.5     104    231    107    254    275  24.3  24.2  34358  292.94 0854.53
2009/04/23 14:38:41.6     200    149    108    250    272  53.4  24.9  34300  291.96 0854.53
2009/04/23 14:38:41.7     134    159    -84    209    225  40.1 -27.5  34288  291.74 0854.53
2009/04/23 14:38:41.8      80     68    -86    106    136  49.6 -48.1  34306  292.05 0854.53
2009/04/23 14:38:41.9     284    240    -43    373    376  49.8  -6.6  34222  290.64 0854.53
2009/04/23 14:38:42.0     291    297    -52    417    421  44.4  -7.2  34216  290.53 0854.53
2009/04/23 14:38:42.1     200    232    152    307    342  40.8  28.1  34230  290.76 0854.53
2009/04/23 14:38:42.2      34    278    169    281    327   7.1  34.0  34218  290.54 0854.53
2009/04/23 14:38:42.3     105    189    147    217    262  29.0  37.4  34214  290.49 0854.53
2009/04/23 14:38:42.4      86     66     98    109    146  52.7  46.9  34220  290.58 0854.53
2009/04/23 14:38:42.5      94   -100    160    138    211 136.8  54.8  34230  290.75 0854.53
2009/04/23 14:38:42.6      68   -134    292    151    328 152.8  70.7  34230  290.76 0854.53
2009/04/23 14:38:42.7     -81   -250    272    263    378 198.0  51.1  34218  290.54 0854.53
2009/04/23 14:38:42.8    -116   -261    320    286    429 204.1  53.7  34244  291.00 0854.53
2009/04/23 14:38:42.9      38   -105    262    112    284 160.0  75.3  34266  291.36 0854.53
2009/04/23 14:38:43.0     -11   -569    517    570    769 181.1  46.9  34282  291.63 0854.53
2009/04/23 14:38:43.1     -14   -544    331    545    637 181.5  34.2  34250  291.10 0854.53
2009/04/23 14:38:43.2    -173   -297    400    344    527 210.2  55.0  34272  291.47 0854.53
2009/04/23 14:38:43.3    -359   -176    213    400    453 243.9  30.3  34284  291.67 0854.53
2009/04/23 14:38:43.4    -386   -171     28    423    424 246.0   3.9  34284  291.67 0854.53
2009/04/23 14:38:43.5    -233     95    -31    252    255 292.2  -7.2  34276  291.53 0854.53
2009/04/23 14:38:43.6      -4    153   -178    154    235 358.2 -59.2  34276  291.55 0854.53
2009/04/23 14:38:43.7     -64    269     97    277    294 346.6  19.4  34282  291.63 0854.53
2009/04/23 14:38:43.8    -103    103    -56    146    156 315.0 -26.4  34286  291.72 0854.53
2009/04/23 14:38:43.9     -67    163    -56    177    185 337.7 -23.0  34268  291.42 0854.53
2009/04/23 14:38:44.0     -52    180    -22    188    190 343.7  -6.9  34268  291.42 0854.53
2009/04/23 14:38:44.1      75     76    143    108    179  44.7  59.4  34264  291.35 0854.53
2009/04/23 14:38:44.2       5     17    135     18    136  18.7  90.0  34274  291.50 0854.53
2009/04/23 14:38:44.3     161    107    156    194    248  56.3  43.0  34286  291.71 0854.53
2009/04/23 14:38:44.4      29    203    136    206    246   8.1  36.5  34282  291.63 0854.53
2009/04/23 14:38:44.5    -113    181    214    214    302 328.1  50.1  34272  291.46 0854.53
2009/04/23 14:38:44.6     -68    147    187    163    248 335.1  54.3  34278  291.59 0854.53
2009/04/23 14:38:44.7     -70    208    163    220    273 341.3  40.4  34282  291.65 0854.53
2009/04/23 14:38:44.8     -70    177    150    191    242 338.2  42.0  34284  291.67 0854.53
2009/04/23 14:38:44.9     -62    206    195    216    291 343.1  46.9  34274  291.51 0854.53
2009/04/23 14:38:45.0    -117    190    203    224    302 328.4  47.0  34262  291.31 0854.53
2009/04/23 14:38:45.1    -154    156    188    220    289 315.5  44.8  34270  291.43 0854.53
2009/04/23 14:38:45.2     -20    146    155    148    214 351.9  51.2  34288  291.74 0854.53
2009/04/23 14:38:45.3     -68    195    125    207    241 340.6  34.2  34286  291.72 0854.53
2009/04/23 14:38:45.4     -71    269    120    279    303 345.1  25.1  34282  291.65 0854.53
2009/04/23 14:38:45.5    -206    428     25    476    477 334.3   3.0  34322  292.34 0854.53
2009/04/23 14:38:45.6    -345    267   -113    437    452 307.8 -14.5  34294  291.86 0854.53
2009/04/23 14:38:45.7    -138    415   -156    438    466 341.5 -19.7  34280  291.62 0854.53
2009/04/23 14:38:45.8    -222    432   -154    486    510 332.8 -17.6  34262  291.29 0854.53
2009/04/23 14:38:45.9     117    475   -159    490    515  13.9 -23.2  34284  291.68 0854.53
2009/04/23 14:38:46.0     149    390   -166    418    449  20.9 -27.4  34278  291.57 0854.53
2009/04/23 14:38:46.1     135    388   -115    411    426  19.2 -20.3  34282  291.63 0854.53
2009/04/23 14:38:46.2     107    323    156    341    374  18.3  26.3  34318  292.25 0854.53
2009/04/23 14:38:46.3      30    316    159    318    355   5.6  28.5  34328  292.41 0854.52
2009/04/23 14:38:46.4    -120    253    115    281    303 334.6  23.4  34340  292.62 0854.52
2009/04/23 14:38:46.5     -50    290    167    295    338 350.2  32.0  34362  292.99 0854.52
2009/04/23 14:38:46.6    -101    293    211    311    375 340.9  37.4  34354  292.87 0854.52
2009/04/23 14:38:46.7    -127    435    181    454    488 343.7  23.0  34356  292.89 0854.52
2009/04/23 14:38:46.8    -229    454    143    509    529 333.2  15.8  34346  292.73 0854.52
2009/04/23 14:38:46.9    -105    338    135    355    379 342.7  21.7  34346  292.75 0854.52
2009/04/23 14:38:47.0    -238    447     35    507    509 332.0   4.0  34332  292.48 0854.52
2009/04/23 14:38:47.1    -106    390     57    405    410 344.7   8.0  34342  292.67 0854.52
2009/04/23 14:38:47.2      93    397     28    408    409  13.3   4.0  34344  292.71 0854.52
2009/04/23 14:38:47.3     -44    419     13    422    423 353.9   1.8  34324  292.35 0854.52
2009/04/23 14:38:47.4     -46    411     49    414    418 353.5   6.9  34318  292.26 0854.52
2009/04/23 14:38:47.5      44    296     36    300    303   8.5   6.9  34320  292.28 0854.52
2009/04/23 14:38:47.6     -70    275     70    284    293 345.7  13.9  34322  292.31 0854.52
2009/04/23 14:38:47.7      72    164     79    180    196  23.8  25.1  34314  292.18 0854.52
2009/04/23 14:38:47.8      44    188     50    194    201  13.1  14.5  34340  292.63 0854.52
2009/04/23 14:38:47.9     -83    409    232    418    478 348.5  31.6  34354  292.86 0854.52
2009/04/23 14:38:48.0     111    465    264    479    546  13.4  31.3  34332  292.51 0854.52
2009/04/23 14:38:48.1    -220    672    462    708    845 341.8  36.2  34290  291.77 0854.52
2009/04/23 14:38:48.2    -307    600     34    674    675 332.9   2.9  34292  291.80 0854.52
2009/04/23 14:38:48.3     -21    591   -230    592    635 357.9 -26.8  34294  291.86 0854.51
2009/04/23 14:38:48.4    -274    403   -213    488    532 325.8 -29.5  34250  291.10 0854.51
2009/04/23 14:38:48.5     -35    547   -296    549    623 356.3 -35.1  34262  291.31 0854.51
2009/04/23 14:38:48.6      44    409   -231    412    472   6.3 -36.3  34262  291.29 0854.51
2009/04/23 14:38:48.7     248    424    -19    492    493  30.3  -2.2  34272  291.47 0854.51
2009/04/23 14:38:48.8     215    202     56    296    302  46.8  10.8  34256  291.19 0854.51
2009/04/23 14:38:48.9     120    120    215    170    274  45.1  57.7  34276  291.55 0854.51
2009/04/23 14:38:49.0      19     26    161     33    164  36.1  89.0  34276  291.54 0854.51
2009/04/23 14:38:49.1     196    192    -55    275    281  45.6 -11.5  34260  291.27 0854.51
2009/04/23 14:38:49.2     224    204     75    304    314  47.7  13.9  34276  291.53 0854.51
2009/04/23 14:38:49.3     694     90    -38    700    702  82.6  -3.1  34306  292.05 0854.51
2009/04/23 14:38:49.4     486    231    277    539    606  64.6  29.3  34328  292.43 0854.51
2009/04/23 14:38:49.5     389    319    331    504    602  50.6  36.5  34344  292.69 0854.51
2009/04/23 14:38:49.6     512    227    349    561    660  66.1  34.9  34342  292.68 0854.51
2009/04/23 14:38:49.7     358    168    304    396    499  64.8  41.4  34362  293.01 0854.51
2009/04/23 14:38:49.8     442    133    261    462    530  73.2  31.9  34370  293.14 0854.51
2009/04/23 14:38:49.9     296      0    147    297    331  90.0  28.4  34332  292.48 0854.51
2009/04/23 14:38:50.0     321      0    118    322    342  90.0  21.1  34300  291.95 0854.51
2009/04/23 14:38:50.1     222     -7    233    223    322  91.9  51.3  34316  292.23 0854.51
2009/04/23 14:38:50.2     203   -290    129    355    377 145.0  20.9  34322  292.34 0854.51
2009/04/23 14:38:50.3     138   -309     73    339    348 155.9  12.3  34330  292.46 0854.50
2009/04/23 14:38:50.4     195   -281     55    343    348 145.3   9.2  34338  292.61 0854.50
2009/04/23 14:38:50.5     247   -205    128    322    346 129.6  23.0  34336  292.58 0854.50
2009/04/23 14:38:50.6      84   -108    -49    138    146 142.2 -24.4  34328  292.42 0854.50
2009/04/23 14:38:50.7     182    109    130    213    249  59.1  34.4  34298  291.90 0854.50
2009/04/23 14:38:50.8     417    165     22    449    450  68.3   2.9  34276  291.53 0854.50
2009/04/23 14:38:50.9     627    512    423    810    913  50.8  29.8  34300  291.95 0854.50
2009/04/23 14:38:51.0     698     47    248    700    743  86.1  19.5  34322  292.31 0854.50
2009/04/23 14:38:51.1     553    144    171    572    598  75.4  16.7  34288  291.75 0854.50
2009/04/23 14:38:51.2     629     16     79    630    636  88.5   7.2  34286  291.71 0854.50
2009/04/23 14:38:51.3     744     55     66    746    750  85.8   5.1  34268  291.42 0854.50
2009/04/23 14:38:51.4     432    -62    155    437    464  98.3  19.6  34296  291.87 0854.50
2009/04/23 14:38:51.5     715    -60    -57    718    721  94.9  -4.6  34264  291.34 0854.50
2009/04/23 14:38:51.6     468    219    -47    517    520  64.9  -5.2  34272  291.47 0854.50
2009/04/23 14:38:51.7     388    137   -239    412    476  70.5 -37.2  34286  291.72 0854.50
2009/04/23 14:38:51.8     640    212    145    675    691  71.7  12.2  34284  291.67 0854.50
2009/04/23 14:38:51.9     614    245    142    662    678  68.2  12.2  34262  291.29 0854.50
2009/04/23 14:38:52.0     402    207     48    453    456  62.7   6.1  34250  291.09 0854.50
2009/04/23 14:38:52.1     545    290    -55    618    621  62.0  -5.1  34238  290.89 0854.50
2009/04/23 14:38:52.2     621    168    -57    644    647  74.9  -5.1  34262  291.30 0854.50
2009/04/23 14:38:52.3     699   -144   -188    714    739 101.7 -14.8  34276  291.54 0854.49
2009/04/23 14:38:52.4     618   -182   -131    645    658 106.4 -11.5  34272  291.47 0854.49
2009/04/23 14:38:52.5     623    153   -142    642    658  76.2 -12.5  34268  291.39 0854.49
2009/04/23 14:38:52.6     386   -107   -171    401    435 105.6 -29.0  34282  291.65 0854.49
2009/04/23 14:38:52.7     304    -83   -166    316    356 105.3 -34.4  34290  291.78 0854.49
2009/04/23 14:38:52.8     387     29   -179    389    428  85.7 -30.9  34274  291.50 0854.49
2009/04/23 14:38:52.9     266    305     22    405    406  41.1   3.1  34268  291.41 0854.49
2009/04/23 14:38:53.0     313    170     28    357    359  61.5   4.6  34260  291.27 0854.49
2009/04/23 14:38:53.1     356    258   -139    440    462  54.0 -17.5  34254  291.18 0854.49
2009/04/23 14:38:53.2     330    304    164    449    478  47.4  21.0  34312  292.16 0854.49
2009/04/23 14:38:53.3     283    240    391    372    539  49.7  51.8  34300  291.95 0854.48
2009/04/23 14:38:53.4     344    341    203    485    525  45.2  24.1  34288  291.76 0854.48
2009/04/23 14:38:53.5     388    224    336    449    560  60.0  40.6  34288  291.76 0854.48
2009/04/23 14:38:53.6     376    255    428    455    624  55.8  48.2  34304  292.02 0854.48
2009/04/23 14:38:53.7     282    308    235    418    479  42.5  31.9  34292  291.82 0854.48
2009/04/23 14:38:53.8     342     61    372    348    509  79.9  52.2  34306  292.04 0854.48
2009/04/23 14:38:53.9     517    254    205    577    613  63.8  19.6  34300  291.94 0854.48
2009/04/23 14:38:54.0     360     82    108    370    386  77.1  16.3  34298  291.91 0854.48
2009/04/23 14:38:54.1     309    232    192    387    432  53.0  28.2  34280  291.60 0854.48
2009/04/23 14:38:54.2     473    297    163    559    583  57.9  16.3  34310  292.12 0854.48
2009/04/23 14:38:54.3     343    363    116    500    514  43.4  13.1  34282  291.63 0854.48
2009/04/23 14:38:54.4     513    303    201    596    630  59.4  18.7  34332  292.49 0854.48
2009/04/23 14:38:54.5     422    257    172    495    525  58.7  19.2  34302  292.00 0854.48
2009/04/23 14:38:54.6     333    291    157    443    471  48.8  19.6  34334  292.54 0854.48
2009/04/23 14:38:54.7     297    239    237    382    449  51.1  34.9  34330  292.45 0854.48
2009/04/23 14:38:54.8     414    335    256    533    591  51.0  27.4  34324  292.36 0854.48
2009/04/23 14:38:54.9     257    217    118    337    358  49.8  19.3  34342  292.65 0854.48
2009/04/23 14:38:55.0     225    165    169    280    327  53.8  34.0  34340  292.62 0854.48
2009/04/23 14:38:55.1     120    335    170    357    395  19.8  27.2  34300  291.95 0854.48
2009/04/23 14:38:55.2     115     16    -24    117    120  82.1 -11.9  34334  292.52 0854.48
2009/04/23 14:38:55.3     178    113     31    211    214  57.6   8.5  34356  292.90 0854.49
2009/04/23 14:38:55.4     153    117      1    193    194  52.5   0.5  34352  292.83 0854.49
2009/04/23 14:38:55.5     -70    194    -54    207    214 340.2 -14.7  34316  292.22 0854.49
2009/04/23 14:38:55.6    -348     70   -103    355    370 281.5 -16.2  34238  290.91 0854.49
2009/04/23 14:38:55.7    -397    -73   -147    404    429 259.5 -25.3  34244  291.01 0854.49
2009/04/23 14:38:55.8    -432    -87   -157    441    469 258.5 -19.7  34252  291.14 0854.49
2009/04/23 14:38:55.9    -481    -70   -174    487    518 261.6 -19.7  34240  290.93 0854.49
2009/04/23 14:38:56.0    -452    -59   -227    456    509 262.5 -32.9  34242  290.98 0854.49
2009/04/23 14:38:56.1    -548   -137   -253    565    619 255.9 -30.2  34242  290.95 0854.49
2009/04/23 14:38:56.2    -499   -180   -225    531    576 250.1 -28.7  34244  291.01 0854.49
2009/04/23 14:38:56.3    -380   -256   -200    459    500 236.0 -29.5  34250  291.10 0854.49
2009/04/23 14:38:56.4    -392   -261   -191    472    509 236.3 -27.6  34256  291.20 0854.49
2009/04/23 14:38:56.5    -408   -185   -171    449    480 245.6 -26.4  34268  291.41 0854.49
2009/04/23 14:38:56.6    -542   -205   -251    580    631 249.2 -29.3  34268  291.42 0854.49
2009/04/23 14:38:56.7    -280   -230   -172    363    401 230.6 -31.6  34280  291.61 0854.49
2009/04/23 14:38:56.8    -272   -270    -61    384    389 225.2  -9.1  34280  291.61 0854.49
2009/04/23 14:38:56.9    -291   -263   -177    393    431 227.9 -30.3  34306  292.06 0854.49
2009/04/23 14:38:57.0    -342   -342   -233    485    538 225.0 -31.7  34294  291.84 0854.49
2009/04/23 14:38:57.1    -342   -340    -18    483    484 225.2  -2.2  34298  291.93 0854.49
2009/04/23 14:38:57.2    -411   -424   -129    591    606 224.1 -12.4  34302  291.97 0854.49
2009/04/23 14:38:57.3    -462   -308   -108    556    567 236.3 -11.0  34292  291.82 0854.49
2009/04/23 14:38:57.4    -326    -90     18    339    340 254.5   3.1  34298  291.91 0854.49
2009/04/23 14:38:57.5    -258   -338    -24    426    427 217.4  -3.3  34314  292.20 0854.49
2009/04/23 14:38:57.6    -216   -260     68    339    346 219.7  11.4  34302  292.00 0854.49
2009/04/23 14:38:57.7    -303    -42     13    306    307 262.1   2.5  34290  291.77 0854.49
2009/04/23 14:38:57.8    -149   -186     -6    239    240 218.7  -1.6  34278  291.58 0854.49
2009/04/23 14:38:57.9    -224   -231    -91    322    334 224.1 -20.4  34276  291.54 0854.49
2009/04/23 14:38:58.0     -80   -393   -138    402    426 191.6 -19.0  34260  291.28 0854.49
2009/04/23 14:38:58.1     -58   -280    -91    287    301 191.8 -22.9  34272  291.48 0854.49
2009/04/23 14:38:58.2      41   -322   -117    325    345 172.7 -25.0  34284  291.68 0854.49
2009/04/23 14:38:58.3     153   -236    -46    282    286 147.0  -9.3  34274  291.51 0854.49
2009/04/23 14:38:58.4     112   -335    -32    354    356 161.4  -5.3  34268  291.42 0854.49
2009/04/23 14:38:58.5      73   -424    -16    431    432 170.2  -2.2  34262  291.29 0854.49
2009/04/23 14:38:58.6     157   -359    117    392    410 156.4  16.6  34250  291.09 0854.49
2009/04/23 14:38:58.7     120   -361    208    381    434 161.5  31.3  34270  291.43 0854.49
2009/04/23 14:38:58.8      -7   -304    227    305    380 181.4  40.2  34270  291.44 0854.49
2009/04/23 14:38:58.9     140   -232    192    272    332 148.8  38.8  34266  291.38 0854.49
2009/04/23 14:38:59.0      93   -393    164    404    436 166.6  23.2  34260  291.26 0854.49
2009/04/23 14:38:59.1     176   -422    182    458    492 157.3  23.0  34262  291.32 0854.49
2009/04/23 14:38:59.2     168   -214    180    273    327 141.9  36.5  34266  291.38 0854.49
2009/04/23 14:38:59.3     114   -289     49    311    315 158.4   9.0  34260  291.27 0854.48
2009/04/23 14:38:59.4      30   -381    -54    383    387 175.4  -8.1  34264  291.35 0854.48
2009/04/23 14:38:59.5     -86   -284     71    297    306 196.9  13.5  34272  291.48 0854.48
2009/04/23 14:38:59.6       0   -400    133    401    423 179.9  18.4  34282  291.63 0854.48
2009/04/23 14:38:59.7      95   -387    140    399    422 166.2  20.0  34278  291.58 0854.48
2009/04/23 14:38:59.8    -221   -454   -165    506    533 206.0 -18.1  34294  291.84 0854.48
2009/04/23 14:38:59.9     -86   -481     26    489    490 190.2   3.1  34292  291.81 0854.48
2009/04/23 14:39:00.0     -34   -510    130    512    529 183.9  14.3  34288  291.74 0854.48
2009/04/23 14:39:00.1    -126   -570    137    584    600 192.5  13.2  34292  291.80 0854.48
2009/04/23 14:39:00.2    -102   -659    122    667    678 188.8  10.4  34280  291.60 0854.48
2009/04/23 14:39:00.3     -33   -430    185    432    469 184.5  24.6  34270  291.45 0854.48
2009/04/23 14:39:00.4     -71   -488    219    494    540 188.4  25.6  34270  291.43 0854.48
2009/04/23 14:39:00.5       0   -527    220    528    572 180.1  24.1  34286  291.72 0854.48
2009/04/23 14:39:00.6     -25   -535     95    536    545 182.7  10.1  34284  291.67 0854.48
2009/04/23 14:39:00.7     -99   -550     48    559    562 190.2   5.0  34286  291.72 0854.48
2009/04/23 14:39:00.8     -90   -506    179    515    546 190.1  19.2  34290  291.79 0854.48
2009/04/23 14:39:00.9    -135   -563     90    579    587 193.5   8.9  34292  291.82 0854.48
2009/04/23 14:39:01.0    -113   -557     17    569    570 191.5   1.8  34302  291.99 0854.48
2009/04/23 14:39:01.1     -74   -476    117    482    497 188.9  13.7  34298  291.90 0854.48
2009/04/23 14:39:01.2    -285   -632    339    694    772 204.3  27.9  34286  291.70 0854.48
2009/04/23 14:39:01.3    -242   -467    151    527    549 207.4  16.0  34286  291.72 0854.48
2009/04/23 14:39:01.4    -135   -619     27    634    635 192.4   2.5  34292  291.83 0854.48
2009/04/23 14:39:01.6    -190   -569    -36    601    603 198.5  -3.5  34296  291.89 0854.48
2009/04/23 14:39:01.7     -82   -527    -92    534    543 188.9  -9.8  34292  291.82 0854.48
2009/04/23 14:39:01.8    -335   -387     -9    512    513 220.9  -1.1  34298  291.93 0854.48
2009/04/23 14:39:01.9    -269   -332     -1    428    429 219.0  -0.3  34296  291.87 0854.48
2009/04/23 14:39:02.0     -77   -230    202    243    315 198.7  44.1  34302  291.99 0854.48
2009/04/23 14:39:02.1    -118   -185    153    220    267 212.6  38.4  34302  291.97 0854.48
2009/04/23 14:39:02.2     -11   -158    120    159    199 184.0  40.9  34296  291.88 0854.48
2009/04/23 14:39:02.3      47   -222    124    227    258 168.0  31.3  34288  291.75 0854.48
2009/04/23 14:39:02.4     -34   -103    157    109    191 198.7  61.8  34260  291.28 0854.48
2009/04/23 14:39:02.5      -6    -80    205     81    220 184.9  77.1  34274  291.52 0854.48
2009/04/23 14:39:02.6      61    -33    256     70    265 118.9  84.8  34286  291.71 0854.48
2009/04/23 14:39:02.7       0   -148    217    149    263 180.0  62.6  34276  291.54 0854.48
2009/04/23 14:39:02.8      39    -62    246     74    256 147.5  82.8  34286  291.71 0854.48
2009/04/23 14:39:02.9     165   -105    345    196    396 122.4  67.9  34288  291.73 0854.48
2009/04/23 14:39:03.0     173     14    432    174    465  85.2  77.0  34290  291.78 0854.48
2009/04/23 14:39:03.1     154     -3    361    155    392  91.3  75.3  34294  291.85 0854.48
2009/04/23 14:39:03.2      28     69    239     75    250  22.7  81.8  34294  291.86 0854.48
2009/04/23 14:39:03.3     -18     31    231     37    233 329.3  90.0  34288  291.76 0854.48
2009/04/23 14:39:03.4      52     26    242     59    249  63.8  86.7  34250  291.09 0854.48
2009/04/23 14:39:03.5     121    -91    262    152    302 126.9  67.2  34228  290.71 0854.48
2009/04/23 14:39:03.6     114    -80    246    140    283 125.1  67.7  34230  290.75 0854.48
2009/04/23 14:39:03.7      36     68    337     78    345  28.1  87.4  34252  291.12 0854.48
2009/04/23 14:39:03.8     122   -118    251    170    303 134.0  62.7  34238  290.90 0854.48
2009/04/23 14:39:03.9     301     62    258    308    401  78.3  44.2  34238  290.91 0854.48
2009/04/23 14:39:04.0     271    112    222    294    368  67.4  40.9  34258  291.22 0854.48
2009/04/23 14:39:04.1     374     13    316    375    490  88.0  44.3  34268  291.41 0854.48
2009/04/23 14:39:04.2     220    -87    203    237    312 111.7  45.1  34266  291.38 0854.48
2009/04/23 14:39:04.3     202   -144    227    249    336 125.5  47.3  34258  291.24 0854.48
2009/04/23 14:39:04.4     110   -235    310    260    404 154.8  55.8  34230  290.77 0854.48
2009/04/23 14:39:04.5     244   -265    283    361    458 137.4  42.1  34234  290.82 0854.48
2009/04/23 14:39:04.6     209   -371    351    427    552 150.6  43.7  34212  290.45 0854.48
2009/04/23 14:39:04.7     388   -291    290    485    565 126.9  33.6  34250  291.09 0854.48
2009/04/23 14:39:04.8     401   -175    185    438    475 113.6  24.2  34238  290.90 0854.48
2009/04/23 14:39:04.9     237   -138    196    275    337 120.2  39.1  34224  290.66 0854.48
2009/04/23 14:39:05.0     105   -209    237    234    333 153.3  50.6  34206  290.34 0854.48
2009/04/23 14:39:05.1      27   -171    142    174    224 170.9  43.7  34208  290.40 0854.48
2009/04/23 14:39:05.2     101   -201    220    226    315 153.3  49.3  34196  290.19 0854.48
2009/04/23 14:39:05.3     256   -248    151    357    387 134.0  24.3  34196  290.18 0854.48
2009/04/23 14:39:05.4     319   -253    128    408    428 128.4  17.4  34210  290.43 0854.46
2009/04/23 14:39:05.5      70   -207    -10    219    220 161.3  -2.8  34204  290.33 0854.46
2009/04/23 14:39:05.6     -33   -183    -66    186    198 190.2 -19.7  34210  290.43 0854.46
2009/04/23 14:39:05.7    -117    -92    104    150    182 231.8  38.0  34206  290.35 0854.46
2009/04/23 14:39:05.8    -126   -194    229    232    325 213.0  49.9  34184  289.97 0854.46
2009/04/23 14:39:05.9    -118   -556    394    569    692 192.0  38.0  34156  289.52 0854.46
2009/04/23 14:39:06.0    -162   -531    294    556    628 197.0  30.1  34144  289.30 0854.46
2009/04/23 14:39:06.1      61   -559    109    563    574 173.7  11.0  34164  289.64 0854.46
2009/04/23 14:39:06.2     -45   -488     91    491    500 185.3  10.6  34162  289.61 0854.46
2009/04/23 14:39:06.3     -48   -438     89    441    450 186.3  11.5  34166  289.68 0854.46
2009/04/23 14:39:06.4      25   -214    197    216    292 173.1  47.1  34186  290.00 0854.46
2009/04/23 14:39:06.5     -21   -178    188    180    260 186.9  51.4  34184  289.98 0854.46
2009/04/23 14:39:06.6      -2    -64     59     65     87 181.8  47.5  34190  290.09 0854.46
2009/04/23 14:39:06.7     -97   -141     60    172    183 214.7  19.4  34164  289.63 0854.46
2009/04/23 14:39:06.8     -68   -202     71    214    226 198.7  18.5  34148  289.38 0854.46
2009/04/23 14:39:06.9     -80   -145    -47    166    173 209.0 -15.8  34144  289.30 0854.46
2009/04/23 14:39:07.0      70    -67    -32     98    103 133.6 -23.8  34152  289.43 0854.46
2009/04/23 14:39:07.1     245    -65    -27    254    256 105.0  -6.1  34160  289.56 0854.46
2009/04/23 14:39:07.2     271    -35    -32    274    276  97.5  -6.7  34166  289.66 0854.46
2009/04/23 14:39:07.3     378   -326    200    500    538 130.8  23.0  34136  289.18 0854.46
2009/04/23 14:39:07.4     485   -303     88    572    579 122.0   8.8  34152  289.44 0854.45
2009/04/23 14:39:07.5     455   -465    117    651    662 135.6  10.2  34148  289.38 0854.45
2009/04/23 14:39:07.6     343   -470    170    583    608 143.9  16.3  34154  289.47 0854.45
2009/04/23 14:39:07.7     330   -531     74    626    631 148.1   6.8  34142  289.28 0854.45
2009/04/23 14:39:07.8     388   -412      4    567    568 136.7   0.5  34140  289.24 0854.45
2009/04/23 14:39:07.9     446   -423    119    616    628 133.5  11.0  34154  289.47 0854.45
2009/04/23 14:39:08.0     413   -542    212    682    715 142.7  17.3  34140  289.22 0854.45
2009/04/23 14:39:08.1     396   -529     37    661    663 143.2   3.2  34150  289.41 0854.45
2009/04/23 14:39:08.2     321   -556      9    643    644 150.0   0.8  34154  289.47 0854.45
2009/04/23 14:39:08.3     290   -426    -33    516    518 145.8  -3.7  34152  289.45 0854.45
2009/04/23 14:39:08.4     209   -409    141    460    482 152.9  17.0  34152  289.45 0854.45
2009/04/23 14:39:08.5      74   -512    150    518    540 171.8  16.1  34154  289.46 0854.45
2009/04/23 14:39:08.6     116   -737    190    747    771 171.0  14.3  34160  289.56 0854.45
2009/04/23 14:39:08.7     266   -698     65    748    751 159.1   5.0  34158  289.55 0854.45
2009/04/23 14:39:08.8     243   -605      4    653    654 158.1   0.4  34158  289.55 0854.45
2009/04/23 14:39:08.9     112   -551    153    563    584 168.5  15.2  34156  289.52 0854.45
2009/04/23 14:39:09.0     -18   -416    195    417    460 182.6  27.1  34160  289.58 0854.45
2009/04/23 14:39:09.1    -277   -268    136    386    410 225.9  19.4  34164  289.64 0854.45
2009/04/23 14:39:09.2    -227   -147   -160    271    314 237.1 -37.7  34156  289.49 0854.45
2009/04/23 14:39:09.3     124   -315    -40    339    342 158.5  -6.8  34162  289.59 0854.45
2009/04/23 14:39:09.4      92   -274    261    290    390 161.3  46.8  34180  289.91 0854.44
2009/04/23 14:39:09.5     184   -153    -62    240    248 129.8 -14.5  34172  289.76 0854.44
2009/04/23 14:39:09.6      69     -9    -81     70    107  97.9 -59.2  34182  289.96 0854.44
2009/04/23 14:39:09.7     185    -83    -86    203    220 114.2 -28.7  34184  289.97 0854.44
2009/04/23 14:39:09.8     357   -377    -28    520    521 136.6  -3.1  34164  289.65 0854.44
2009/04/23 14:39:09.9     448   -738    121    864    873 148.7   8.0  34156  289.52 0854.44
2009/04/23 14:39:10.0     405   -590    263    716    762 145.5  21.0  34164  289.63 0854.44
2009/04/23 14:39:10.1     415   -470    146    628    645 138.6  13.1  34158  289.55 0854.44
2009/04/23 14:39:10.2     208   -315    134    378    401 146.5  20.2  34162  289.60 0854.44
2009/04/23 14:39:10.3     114   -422    310    438    536 164.8  38.7  34178  289.89 0854.44
2009/04/23 14:39:10.4     -36   -471    321    473    571 184.4  37.4  34176  289.84 0854.44
2009/04/23 14:39:10.5     253    -23    140    255    290  95.2  31.3  34174  289.80 0854.44
2009/04/23 14:39:10.6     187    -60    218    197    293 107.9  53.3  34178  289.88 0854.44
2009/04/23 14:39:10.7     414   -188    292    455    540 114.5  35.6  34178  289.88 0854.44
2009/04/23 14:39:10.8     282   -141    334    316    459 116.6  52.0  34176  289.83 0854.44
2009/04/23 14:39:10.9      -6    146    196    147    245 357.3  59.4  34186  290.02 0854.44
2009/04/23 14:39:11.0      13   -299    394    300    495 177.4  59.0  34184  289.97 0854.44
2009/04/23 14:39:11.1    -150   -430    250    456    520 199.3  31.3  34170  289.74 0854.44
2009/04/23 14:39:11.2    -258    -54    131    264    294 258.1  28.2  34172  289.78 0854.44
2009/04/23 14:39:11.3    -315    386    282    499    573 320.8  32.0  34208  290.38 0854.44
2009/04/23 14:39:11.4     112    421    180    436    471  14.9  23.7  34196  290.19 0854.44
2009/04/23 14:39:11.5     189    274    384    333    508  34.6  54.8  34196  290.19 0854.44
2009/04/23 14:39:11.6     170     76    470    187    505  65.8  77.1  34184  289.99 0854.44
2009/04/23 14:39:11.7       6   -106    347    107    363 176.4  82.5  34190  290.09 0854.44
2009/04/23 14:39:11.8     268    252    253    369    447  46.8  37.6  34194  290.16 0854.44
2009/04/23 14:39:11.9     344    317    151    468    492  47.4  17.9  34218  290.54 0854.44
2009/04/23 14:39:12.0     195    304    144    362    389  32.6  23.0  34222  290.62 0854.44
2009/04/23 14:39:12.1     268    400    117    482    497  33.9  13.7  34208  290.40 0854.44
2009/04/23 14:39:12.2     142    194    183    241    302  36.1  41.2  34190  290.07 0854.44
2009/04/23 14:39:12.3     134     18    317    136    344  82.1  75.4  34212  290.44 0854.44
2009/04/23 14:39:12.4      36    149    117    154    193  13.8  40.9  34208  290.40 0854.44
2009/04/23 14:39:12.5     -85    133     82    158    178 327.4  29.8  34212  290.47 0854.44
2009/04/23 14:39:12.6     -88     94     30    129    133 316.8  13.2  34204  290.33 0854.44
2009/04/23 14:39:12.7     -30     55     29     63     69 331.0  27.1  34200  290.26 0854.44
2009/04/23 14:39:12.8     -42     58      3     72     73 323.9   2.8  34198  290.23 0854.44
2009/04/23 14:39:12.9     179    263     79    319    329  34.3  13.9  34204  290.32 0854.44
2009/04/23 14:39:13.0     166    312    108    354    371  28.0  17.1  34230  290.76 0854.44
2009/04/23 14:39:13.1     -35    206    -38    210    214 350.2 -10.5  34222  290.62 0854.44
2009/04/23 14:39:13.2     -38     73     -6     83     84 332.4  -4.1  34212  290.45 0854.44
2009/04/23 14:39:13.3    -219     30    -56    222    230 278.0 -14.3  34214  290.48 0854.44
2009/04/23 14:39:13.4    -218     51    -76    224    237 283.3 -18.9  34204  290.32 0854.45
2009/04/23 14:39:13.5    -155     46    -46    162    168 286.8 -20.7  34218  290.55 0854.45
2009/04/23 14:39:13.6    -131     -3      7    132    133 268.3   3.3  34218  290.55 0854.45
2009/04/23 14:39:13.7    -194    115    -12    226    227 300.6  -3.1  34214  290.50 0854.45
2009/04/23 14:39:13.8    -129     90      0    158    159 305.1   0.0  34208  290.40 0854.45
2009/04/23 14:39:13.9    -150    -71    197    167    258 244.6  55.4  34216  290.53 0854.45
2009/04/23 14:39:14.0    -241      1    185    242    304 270.4  41.6  34222  290.63 0854.45
2009/04/23 14:39:14.1    -274    -28    213    276    348 264.1  41.5  34226  290.70 0854.45
2009/04/23 14:39:14.2    -175   -145    196    228    300 230.4  45.1  34222  290.63 0854.45
2009/04/23 14:39:14.3    -297   -163    121    340    360 241.2  20.3  34238  290.88 0854.45
2009/04/23 14:39:14.4    -242   -111     32    267    269 245.4   6.9  34226  290.68 0854.44
2009/04/23 14:39:14.5    -254    -67     77    263    275 255.2  16.3  34222  290.63 0854.44
2009/04/23 14:39:14.6    -373   -112    -52    390    394 253.2  -7.6  34214  290.50 0854.44
2009/04/23 14:39:14.7    -360    135   -138    385    410 290.6 -19.7  34222  290.62 0854.44
2009/04/23 14:39:14.8    -378    -17   -160    379    411 267.3 -28.6  34214  290.50 0854.44
2009/04/23 14:39:14.9    -270     -8     67    271    280 268.3  13.9  34212  290.44 0854.44
2009/04/23 14:39:15.0    -281     67    -19    290    291 283.5  -3.9  34234  290.83 0854.44
2009/04/23 14:39:15.1    -228    183   -111    293    313 308.9 -26.2  34226  290.68 0854.44
2009/04/23 14:39:15.2    -146     63    146    160    216 293.5  47.5  34228  290.72 0854.44
2009/04/23 14:39:15.3    -382    158    132    414    435 292.5  17.7  34238  290.89 0854.44
2009/04/23 14:39:15.4    -398    166    178    432    467 292.7  23.6  34210  290.43 0854.44
2009/04/23 14:39:15.5    -308    279    -30    416    418 312.2  -4.1  34224  290.67 0854.44
2009/04/23 14:39:15.6    -227    117    -32    256    259 297.3  -7.3  34214  290.49 0854.44
2009/04/23 14:39:15.7     -97    100     48    140    149 315.9  18.9  34212  290.45 0854.44
2009/04/23 14:39:15.8     -42     59     51     73     89 324.8  38.6  34214  290.50 0854.44
2009/04/23 14:39:15.9       6   -113     40    114    121 176.9  19.4  34216  290.53 0854.44
2009/04/23 14:39:16.0      -7    -94     44     95    104 184.4  26.6  34222  290.62 0854.44
2009/04/23 14:39:16.1     -24   -177     68    179    191 188.0  21.7  34212  290.47 0854.44
2009/04/23 14:39:16.2    -164   -276     -9    322    323 210.8  -1.7  34202  290.27 0854.44
2009/04/23 14:39:16.3    -224   -346     99    413    425 213.0  13.6  34198  290.21 0854.44
2009/04/23 14:39:16.4    -283   -182     47    337    341 237.1   8.0  34204  290.33 0854.43
2009/04/23 14:39:16.5    -188    -65    -56    199    207 250.9 -15.8  34228  290.72 0854.43
2009/04/23 14:39:16.6    -245   -121     -3    274    275 243.6  -0.7  34212  290.46 0854.43
2009/04/23 14:39:16.7    -268   -170     90    318    331 237.6  15.8  34198  290.22 0854.43
2009/04/23 14:39:16.8    -220   -345     53    410    414 212.6   7.5  34204  290.33 0854.43
2009/04/23 14:39:16.9    -224   -413    177    471    503 208.5  21.6  34226  290.68 0854.43
2009/04/23 14:39:17.0     -51   -472     62    475    479 186.2   7.5  34232  290.78 0854.43
2009/04/23 14:39:17.1    -125   -572    -22    586    587 192.4  -2.2  34232  290.78 0854.43
2009/04/23 14:39:17.2    -197   -418    -28    463    464 205.3  -3.5  34246  291.02 0854.43
2009/04/23 14:39:17.3    -231   -197    -86    304    316 229.6 -15.8  34252  291.12 0854.43
2009/04/23 14:39:17.4    -258   -224   -135    342    367 229.0 -27.1  34250  291.10 0854.43
2009/04/23 14:39:17.5    -313    -23    117    314    335 265.6  21.4  34260  291.28 0854.43
2009/04/23 14:39:17.6    -353    -26    298    354    462 265.7  44.2  34268  291.41 0854.43
2009/04/23 14:39:17.7    -168    -77    280    185    335 245.4  63.6  34302  291.99 0854.43
2009/04/23 14:39:17.8    -425     92    200    436    479 282.3  26.4  34282  291.63 0854.43
2009/04/23 14:39:17.9    -413    -33    239    415    478 265.3  32.7  34286  291.72 0854.43
2009/04/23 14:39:18.0    -296   -222    293    371    472 233.2  42.3  34268  291.40 0854.43
2009/04/23 14:39:18.1    -323     22    218    324    390 273.9  37.3  34276  291.54 0854.43
2009/04/23 14:39:18.2    -141    142    200    201    283 315.2  50.0  34250  291.09 0854.43
2009/04/23 14:39:18.3    -199     14    115    200    230 274.3  32.4  34284  291.67 0854.43
2009/04/23 14:39:18.4     526   -140    362    545    654 104.9  36.7  34250  291.10 0854.42
2009/04/23 14:39:18.5     476   -163    168    504    532 109.0  18.4  34268  291.40 0854.42
2009/04/23 14:39:18.6     243   -396    247    465    526 148.5  30.3  34258  291.24 0854.42
2009/04/23 14:39:18.7     201   -279    317    345    468 144.2  47.5  34312  292.15 0854.42
2009/04/23 14:39:18.8    -201   -493    525    533    748 202.2  49.7  34256  291.21 0854.42
2009/04/23 14:39:18.9     -20   -430    478    431    643 182.7  53.4  34194  290.14 0854.42
2009/04/23 14:39:19.0     -68   -415    406    421    584 189.4  49.0  34186  290.02 0854.42
2009/04/23 14:39:19.1     -78   -405    279    413    498 190.9  37.3  34216  290.51 0854.42
2009/04/23 14:39:19.2     119    -64    266    136    298 118.4  70.8  34274  291.50 0854.42
2009/04/23 14:39:19.3      31   -109    295    114    316 164.0  77.8  34250  291.10 0854.42
2009/04/23 14:39:19.4       5   -330    388    331    510 179.1  55.3  34218  290.56 0854.42
2009/04/23 14:39:19.5     120    -25    102    123    159 101.9  44.1  34228  290.72 0854.42
2009/04/23 14:39:19.6     -52   -196    108    203    229 194.9  30.3  34204  290.31 0854.42
2009/04/23 14:39:19.7    -102   -337    243    353    428 196.9  37.8  34232  290.78 0854.42
2009/04/23 14:39:19.8     -11   -252     95    253    270 182.5  21.5  34206  290.34 0854.42
2009/04/23 14:39:19.9     271      0    202    272    338  90.0  40.2  34232  290.78 0854.42
2009/04/23 14:39:20.0     231    277    176    361    401  39.8  27.9  34256  291.20 0854.42
2009/04/23 14:39:20.1    -118    -48    204    128    240 247.8  64.7  34244  291.01 0854.42
2009/04/23 14:39:20.2      17    -22    233     29    234 142.2  90.0  34228  290.74 0854.42
2009/04/23 14:39:20.3     139   -159    214    212    301 138.8  50.1  34222  290.61 0854.42
2009/04/23 14:39:20.4      20   -266    288    267    392 175.5  52.5  34206  290.35 0854.41
2009/04/23 14:39:20.5      -9   -220    404    221    460 182.5  69.0  34210  290.42 0854.41
2009/04/23 14:39:20.6      37   -129    272    135    303 164.0  71.9  34214  290.48 0854.41
2009/04/23 14:39:20.7     -42   -572    419    574    710 184.3  39.7  34200  290.24 0854.41
2009/04/23 14:39:20.8      59   -549    207    553    590 173.8  21.5  34200  290.24 0854.41
2009/04/23 14:39:20.9      93   -543    233    552    599 170.2  24.2  34198  290.22 0854.41
2009/04/23 14:39:21.0      94   -481    280    491    565 168.9  32.3  34202  290.30 0854.41
2009/04/23 14:39:21.1     -67   -316    104    324    341 192.1  17.9  34202  290.30 0854.41
2009/04/23 14:39:21.2      -5   -306     84    307    319 181.0  15.3  34200  290.26 0854.41
2009/04/23 14:39:21.3     129   -379    234    401    464 161.2  33.0  34190  290.09 0854.41
2009/04/23 14:39:21.4     377   -500    240    627    671 143.0  22.0  34194  290.16 0854.41
2009/04/23 14:39:21.5     149   -339    197    371    420 156.3  30.3  34204  290.31 0854.41
2009/04/23 14:39:21.6     -46   -380     94    383    395 187.0  13.9  34198  290.23 0854.41
2009/04/23 14:39:21.7     275   -245     30    369    371 131.7   4.7  34192  290.13 0854.41
2009/04/23 14:39:21.8     206   -364    147    419    445 150.5  19.4  34200  290.24 0854.41
2009/04/23 14:39:21.9     283   -301     49    414    417 136.8   6.8  34196  290.19 0854.41
2009/04/23 14:39:22.0     229   -221    175    319    363 134.0  31.3  34198  290.21 0854.41
2009/04/23 14:39:22.1     316   -380    202    495    534 140.2  23.5  34194  290.16 0854.41
2009/04/23 14:39:22.2     424   -685    147    806    820 148.3  10.4  34192  290.11 0854.41
2009/04/23 14:39:22.3     511   -673    290    846    895 142.8  18.9  34184  289.98 0854.41
2009/04/23 14:39:22.4     160   -783    266    800    843 168.4  18.4  34178  289.87 0854.42
2009/04/23 14:39:22.5     224   -704    448    739    864 162.3  34.0  34186  290.01 0854.42
2009/04/23 14:39:22.6      99   -432    246    444    507 167.0  31.4  34182  289.93 0854.42
2009/04/23 14:39:22.7     198   -480    146    520    541 157.5  15.7  34178  289.87 0854.42
2009/04/23 14:39:22.8     171   -560    188    586    616 163.0  17.8  34178  289.86 0854.42
2009/04/23 14:39:22.9      95   -556    217    565    605 170.3  22.1  34174  289.81 0854.42
2009/04/23 14:39:23.0      91   -515    175    524    553 169.9  18.5  34174  289.82 0854.42
2009/04/23 14:39:23.1     180   -469    193    503    538 159.0  22.2  34178  289.87 0854.42
2009/04/23 14:39:23.2     199   -464    193    505    540 156.8  22.0  34174  289.80 0854.42
2009/04/23 14:39:23.3     -23   -677    218    678    713 182.0  17.8  34182  289.93 0854.42
2009/04/23 14:39:23.4      96   -532    295    541    616 169.8  31.3  34174  289.81 0854.42
2009/04/23 14:39:23.5     116   -502    200    516    553 167.0  22.3  34168  289.72 0854.42
2009/04/23 14:39:23.6     156   -325    211    361    418 154.3  33.1  34178  289.86 0854.42
2009/04/23 14:39:23.7      27   -281    243    283    373 174.4  45.1  34172  289.79 0854.42
2009/04/23 14:39:23.8     -95   -207    140    228    267 204.7  34.5  34178  289.88 0854.42
2009/04/23 14:39:23.9      31   -266    166    268    315 173.3  34.8  34184  289.98 0854.42
2009/04/23 14:39:24.0     -23   -256    159    258    303 185.3  34.8  34186  290.00 0854.42
2009/04/23 14:39:24.1       8   -158    245    159    292 176.9  64.4  34196  290.17 0854.42
2009/04/23 14:39:24.2     -95   -157    238    184    300 211.4  58.5  34192  290.12 0854.42
2009/04/23 14:39:24.3     -77   -162    198    180    267 205.4  53.0  34186  290.00 0854.42
2009/04/23 14:39:24.4      23   -112    173    115    207 168.0  63.4  34194  290.14 0854.43
2009/04/23 14:39:24.5      30    -56    162     64    174 151.1  77.6  34196  290.18 0854.43
2009/04/23 14:39:24.6     -61   -183    256    194    321 198.5  59.2  34194  290.14 0854.43
2009/04/23 14:39:24.7     -46   -348    220    352    415 187.6  35.1  34192  290.13 0854.43
2009/04/23 14:39:24.8      57   -264    270    271    382 167.7  50.0  34206  290.35 0854.43
2009/04/23 14:39:24.9      44   -167    336    173    377 165.1  70.8  34222  290.63 0854.43
2009/04/23 14:39:25.0      15     74    147     76    165  11.5  70.6  34218  290.55 0854.43
2009/04/23 14:39:25.1       8      0    -11      9     14  90.0 -56.6  34216  290.53 0854.43
2009/04/23 14:39:25.2      54    123    250    135    284  23.7  69.6  34220  290.59 0854.43
2009/04/23 14:39:25.3     308    463    144    557    576  33.6  14.5  34230  290.76 0854.43
2009/04/23 14:39:25.4     498    324    -80    595    601  56.9  -7.7  34204  290.31 0854.43
2009/04/23 14:39:25.5     414    244   -200    481    520  59.5 -28.3  34242  290.96 0854.43
2009/04/23 14:39:25.6     200    385      5    434    435  27.5   0.7  34256  291.19 0854.43
2009/04/23 14:39:25.7     310    470    189    564    596  33.4  18.6  34332  292.50 0854.43
2009/04/23 14:39:25.8     301    497    174    582    608  31.2  16.7  34332  292.48 0854.43
2009/04/23 14:39:25.9     390    276    194    479    516  54.7  23.2  34264  291.34 0854.43
2009/04/23 14:39:26.0     389    214    195    445    485  61.2  25.2  34276  291.54 0854.43
2009/04/23 14:39:26.1     386    239    178    455    488  58.3  22.5  34282  291.66 0854.43
2009/04/23 14:39:26.2     379    295    166    481    509  52.2  19.1  34258  291.25 0854.43
2009/04/23 14:39:26.3     238    223    308    327    449  46.8  48.0  34324  292.37 0854.43
2009/04/23 14:39:26.4     274    370    250    461    524  36.5  30.8  34256  291.19 0854.44
2009/04/23 14:39:26.5     166    411    224    444    497  22.1  28.7  34232  290.79 0854.44
2009/04/23 14:39:26.6     137    290    263    321    414  25.3  43.7  34280  291.62 0854.44
2009/04/23 14:39:26.7     163    264    137    311    339  31.6  25.3  34250  291.10 0854.44
2009/04/23 14:39:26.8      99    178    160    205    260  29.2  42.0  34260  291.27 0854.44
2009/04/23 14:39:26.9       8    275      8    276    277   1.8   1.8  34250  291.10 0854.44
2009/04/23 14:39:27.0     201    202   -148    286    322  44.8 -34.0  34246  291.04 0854.44
2009/04/23 14:39:27.1     207    219    -11    302    303  43.3  -2.2  34258  291.24 0854.44
2009/04/23 14:39:27.2     257    341   -135    428    449  37.0 -17.5  34256  291.19 0854.44
2009/04/23 14:39:27.3     253    357    -24    438    439  35.3  -3.1  34270  291.45 0854.44
2009/04/23 14:39:27.4     297    347    106    457    470  40.6  13.1  34270  291.44 0854.44
2009/04/23 14:39:27.5     259    331    181    421    458  38.1  24.9  34288  291.75 0854.44
2009/04/23 14:39:27.6     119    359     84    379    389  18.4  12.5  34268  291.40 0854.44
2009/04/23 14:39:27.8     241    108    230    265    350  65.8  45.4  34264  291.33 0854.44
2009/04/23 14:39:27.8     235    111    210    261    334  64.7  43.0  34268  291.41 0854.44
2009/04/23 14:39:27.9     400    245    246    470    530  58.5  29.8  34322  292.31 0854.44
2009/04/23 14:39:28.0     351    195    380    402    553  61.0  48.4  34298  291.93 0854.44
2009/04/23 14:39:28.2     473    115    326    487    586  76.3  37.0  34316  292.22 0854.44
2009/04/23 14:39:28.2     393    113    197    410    454  73.9  27.3  34312  292.16 0854.44
2009/04/23 14:39:28.4     331    182    243    378    449  61.1  35.6  34282  291.63 0854.44
2009/04/23 14:39:28.5     341    154    284    375    470  65.7  40.9  34266  291.38 0854.45
2009/04/23 14:39:28.6     404     39    282    406    494  84.4  38.3  34274  291.51 0854.45
2009/04/23 14:39:28.7     403   -183    267    443    517 114.4  34.0  34268  291.41 0854.45
2009/04/23 14:39:28.8     389   -128    267    410    489 108.3  36.0  34248  291.08 0854.45
2009/04/23 14:39:28.9     394      5    218    395    451  89.2  31.3  34252  291.12 0854.45
2009/04/23 14:39:29.0     200     85    205    218    299  66.9  48.0  34270  291.43 0854.45
2009/04/23 14:39:29.1     194    -80    171    210    270 112.4  43.7  34278  291.56 0854.45
2009/04/23 14:39:29.2     182      0    188    183    262  89.9  50.9  34252  291.14 0854.45
2009/04/23 14:39:29.3     173    -35    194    177    262 101.7  52.7  34250  291.10 0854.45
2009/04/23 14:39:29.4     249    -31    174    251    305  97.1  38.0  34240  290.93 0854.45
2009/04/23 14:39:29.5     127      5    238    128    270  87.4  69.6  34268  291.39 0854.45
2009/04/23 14:39:29.6     210     38    208    214    298  79.6  49.2  34260  291.27 0854.45
2009/04/23 14:39:29.7     215     65    166    225    279  73.2  39.9  34260  291.27 0854.45
2009/04/23 14:39:29.8     137     42    242    144    281  72.7  66.7  34270  291.43 0854.45
2009/04/23 14:39:29.9     213     59    249    222    333  74.5  53.9  34286  291.72 0854.45
2009/04/23 14:39:30.0      68    -32    236     76    247 115.3  81.6  34292  291.81 0854.45
2009/04/23 14:39:30.1     171    -18    233    172    289  96.1  60.0  34314  292.19 0854.45
2009/04/23 14:39:30.2     162     87    303    185    355  61.6  65.8  34332  292.48 0854.45
2009/04/23 14:39:30.3     173     40    302    178    350  76.7  66.8  34342  292.67 0854.45
2009/04/23 14:39:30.4     176     35    325    180    371  78.5  68.8  34320  292.28 0854.45
2009/04/23 14:39:30.5     155     26    360    158    393  80.3  74.9  34310  292.12 0854.47
2009/04/23 14:39:30.6     362     71    365    370    519  78.8  49.8  34266  291.37 0854.47
2009/04/23 14:39:30.7     279    -14    357    280    453  93.0  58.0  34298  291.92 0854.47
2009/04/23 14:39:30.8     359    -26    385    360    527  94.3  52.2  34254  291.17 0854.47
2009/04/23 14:39:30.9     455    -10    296    456    543  91.3  35.9  34262  291.32 0854.47
2009/04/23 14:39:31.0     431     -5    238    432    493  90.7  31.4  34260  291.27 0854.47
2009/04/23 14:39:31.1     375      0    301    376    481  90.0  42.8  34242  290.95 0854.47
2009/04/23 14:39:31.2     341    -48    338    345    482  98.1  49.4  34236  290.85 0854.47
2009/04/23 14:39:31.3     366     -6    358    367    512  91.0  49.3  34246  291.03 0854.47
2009/04/23 14:39:31.4     363    -12    389    364    532  91.9  52.2  34252  291.12 0854.47
2009/04/23 14:39:31.5     279    -58    353    286    454 101.9  56.9  34268  291.40 0854.47
2009/04/23 14:39:31.6     271   -245    262    366    450 132.0  39.3  34260  291.28 0854.47
2009/04/23 14:39:31.7     277   -283    231    397    459 135.6  33.0  34262  291.31 0854.47
2009/04/23 14:39:31.8     374   -265    227    459    512 125.4  28.2  34248  291.08 0854.47
2009/04/23 14:39:31.9     353   -287    147    456    480 129.1  17.9  34256  291.20 0854.47
2009/04/23 14:39:32.0     376   -206    149    429    454 118.8  20.0  34248  291.07 0854.47
2009/04/23 14:39:32.1     341   -226     88    410    420 123.5  12.1  34252  291.12 0854.47
2009/04/23 14:39:32.2     422   -166     71    454    460 111.6   8.9  34220  290.58 0854.47
2009/04/23 14:39:32.3     343   -187    114    391    408 118.6  16.3  34220  290.58 0854.47
2009/04/23 14:39:32.4     358   -156    137    391    415 113.5  19.4  34212  290.44 0854.47
2009/04/23 14:39:32.5     378    -80    173    387    423 102.1  25.9  34214  290.50 0854.48
2009/04/23 14:39:32.6     317   -104     97    334    348 108.3  16.3  34216  290.52 0854.48
2009/04/23 14:39:32.7     290   -125    116    316    336 113.3  21.1  34218  290.55 0854.48
2009/04/23 14:39:32.8     234   -149     81    278    290 122.4  16.3  34232  290.80 0854.48
2009/04/23 14:39:32.9     248   -168     26    300    302 124.2   5.0  34228  290.73 0854.48
2009/04/23 14:39:33.0     311   -139     73    341    349 114.2  12.1  34210  290.43 0854.48
2009/04/23 14:39:33.1     249    -62    143    257    294 104.2  31.4  34194  290.15 0854.48
2009/04/23 14:39:33.2     193   -107    146    221    264 119.1  36.5  34208  290.37 0854.48
2009/04/23 14:39:33.3      83   -191    171    209    270 156.4  43.7  34246  291.02 0854.48
2009/04/23 14:39:33.4      67   -283    204    291    355 166.6  38.5  34212  290.45 0854.48
2009/04/23 14:39:33.5     124   -254    174    283    332 153.9  34.6  34204  290.31 0854.48
2009/04/23 14:39:33.6     120   -242     94    271    287 153.5  19.2  34204  290.31 0854.48
2009/04/23 14:39:33.7      55   -225     97    232    251 166.2  24.1  34212  290.44 0854.48
2009/04/23 14:39:33.8     -35   -216    156    219    268 189.3  39.1  34210  290.42 0854.48
2009/04/23 14:39:33.9     -45   -216    131    221    256 192.0  33.5  34210  290.42 0854.48
2009/04/23 14:39:34.0     -44   -258     92    262    277 189.8  20.2  34212  290.46 0854.48
2009/04/23 14:39:34.1     -99   -265    148    284    320 200.5  29.8  34228  290.73 0854.48
2009/04/23 14:39:34.2    -125   -308     85    333    344 202.1  14.4  34236  290.86 0854.48
2009/04/23 14:39:34.3     -83   -273    100    286    304 197.0  19.3  34232  290.78 0854.48
2009/04/23 14:39:34.4    -124   -262     15    290    291 205.3   3.1  34240  290.93 0854.48
2009/04/23 14:39:34.5     -52   -271    127    276    303 190.9  26.6  34224  290.65 0854.49
2009/04/23 14:39:34.6     -31   -289     85    291    304 186.2  16.3  34220  290.58 0854.49
2009/04/23 14:39:34.7      -1   -369     34    370    372 180.2   5.3  34220  290.59 0854.49
2009/04/23 14:39:34.8      23   -413     -8    414    415 176.8  -1.2  34246  291.04 0854.49
2009/04/23 14:39:34.9      63   -448    -29    453    454 171.9  -3.7  34238  290.89 0854.49
2009/04/23 14:39:35.0      38   -488    -56    490    494 175.5  -6.6  34226  290.69 0854.49
2009/04/23 14:39:35.1     123   -516    -11    531    532 166.6  -1.3  34206  290.35 0854.49
2009/04/23 14:39:35.2     125   -244    -97    275    292 152.8 -19.6  34214  290.48 0854.49
2009/04/23 14:39:35.3    -142   -135    -35    197    201 226.4 -10.1  34216  290.52 0854.49
2009/04/23 14:39:35.4    -223   -480   -152    530    552 204.9 -16.1  34220  290.60 0854.49
2009/04/23 14:39:35.5    -272   -239     56    363    368 228.7   8.9  34230  290.76 0854.49
2009/04/23 14:39:35.6    -291   -511    -82    589    595 209.6  -8.0  34210  290.41 0854.49
2009/04/23 14:39:35.7    -374   -466   -149    598    617 218.7 -14.0  34208  290.37 0854.49
2009/04/23 14:39:35.8    -321   -479    -11    577    578 213.9  -1.2  34218  290.56 0854.49
2009/04/23 14:39:35.9    -432   -456   -214    629    665 223.4 -18.8  34208  290.40 0854.49
2009/04/23 14:39:36.0    -336   -321    -90    465    474 226.3 -11.0  34226  290.68 0854.49
2009/04/23 14:39:36.1    -156   -513     30    537    538 197.0   3.3  34242  290.96 0854.49
2009/04/23 14:39:36.2     -45   -352    140    355    381 187.4  22.9  34242  290.98 0854.49
2009/04/23 14:39:36.3      13   -399    -58    400    405 178.1  -8.3  34230  290.75 0854.49
2009/04/23 14:39:36.4    -102   -323      0    339    340 197.6   0.1  34228  290.71 0854.49
2009/04/23 14:39:36.5    -162   -352    -25    388    389 204.7  -3.8  34232  290.79 0854.49
2009/04/23 14:39:36.6    -261   -377     34    459    461 214.8   4.2  34222  290.61 0854.49
2009/04/23 14:39:36.7    -246   -374    117    449    464 213.4  14.6  34212  290.44 0854.49
2009/04/23 14:39:36.8    -136   -288    140    319    348 205.3  25.2  34212  290.45 0854.49
2009/04/23 14:39:36.9    -365   -320     55    486    490 228.7   6.5  34218  290.57 0854.49
2009/04/23 14:39:37.0    -359   -367     38    514    516 224.3   4.2  34212  290.47 0854.49
2009/04/23 14:39:37.1    -301   -321     37    441    443 223.1   4.9  34214  290.50 0854.49
2009/04/23 14:39:37.2    -119   -235     21    264    265 207.0   4.6  34222  290.61 0854.49
2009/04/23 14:39:37.3    -127   -364      6    386    387 199.3   1.0  34212  290.45 0854.49
2009/04/23 14:39:37.4     -66   -403   -126    409    427 189.3 -22.2  34214  290.50 0854.49
2009/04/23 14:39:37.5     -53   -403   -139    407    431 187.6 -18.9  34218  290.55 0854.50
2009/04/23 14:39:37.6     -93   -420   -136    431    453 192.5 -17.6  34214  290.48 0854.50
2009/04/23 14:39:37.7     -64   -545   -182    549    578 186.7 -23.7  34210  290.42 0854.50
2009/04/23 14:39:37.8     -78   -479   -162    486    512 189.3 -23.6  34216  290.52 0854.50
2009/04/23 14:39:37.9     100   -559   -198    569    602 169.8 -24.3  34218  290.54 0854.50
2009/04/23 14:39:38.0     118   -579   -183    592    620 168.4 -17.2  34212  290.44 0854.50
2009/04/23 14:39:38.1      58   -455   -145    459    482 172.7 -17.5  34216  290.51 0854.50
2009/04/23 14:39:38.2     -49   -332   -120    336    357 188.5 -19.7  34218  290.55 0854.50
2009/04/23 14:39:38.3      -1   -409   -115    410    425 180.2 -20.3  34218  290.55 0854.50
2009/04/23 14:39:38.4     -99   -492   -160    502    526 191.4 -22.8  34206  290.36 0854.50
2009/04/23 14:39:38.5    -115   -465   -148    479    501 193.9 -22.2  34232  290.81 0854.50
2009/04/23 14:39:38.7    -147   -549   -167    569    593 195.0 -21.2  34230  290.75 0854.50
2009/04/23 14:39:38.7    -102   -457   -153    469    493 192.7 -23.3  34224  290.66 0854.50
2009/04/23 14:39:38.8     -22   -499   -181    500    531 182.6 -25.2  34224  290.67 0854.50
2009/04/23 14:39:38.9      26   -454   -131    455    473 176.6 -20.9  34222  290.61 0854.50
2009/04/23 14:39:39.0     117   -433     23    449    450 164.8   3.0  34214  290.48 0854.50
2009/04/23 14:39:39.1      58   -464     22    468    469 172.8   2.8  34208  290.40 0854.50
2009/04/23 14:39:39.2     118   -411     78    428    436 163.9  10.3  34214  290.50 0854.50
2009/04/23 14:39:39.3     159   -397    -85    428    437 158.2 -11.3  34208  290.39 0854.50
2009/04/23 14:39:39.4     116   -357   -124    376    395 162.0 -23.5  34214  290.49 0854.50
2009/04/23 14:39:39.5     -23   -668    -44    669    671 182.0  -3.8  34228  290.73 0854.50
2009/04/23 14:39:39.6     -35   -643   -109    645    655 183.1  -9.6  34228  290.72 0854.50
2009/04/23 14:39:39.7     -89   -647   -136    654    669 187.9 -11.8  34218  290.55 0854.50
2009/04/23 14:39:39.8     -34   -759     33    760    761 182.6   2.5  34234  290.82 0854.50
2009/04/23 14:39:39.9     -60   -768     71    771    775 184.5   5.3  34236  290.85 0854.50
2009/04/23 14:39:40.0      43   -623    109    625    635 176.0   9.9  34244  290.99 0854.50
2009/04/23 14:39:40.1    -101   -476     92    487    496 192.1  10.7  34242  290.95 0854.50
2009/04/23 14:39:40.2    -257   -426   -152    498    520 211.2 -21.8  34214  290.49 0854.50
2009/04/23 14:39:40.3    -102   -350   -179    365    406 196.3 -32.5  34218  290.54 0854.50
2009/04/23 14:39:40.4    -179   -368   -151    410    436 205.9 -25.4  34218  290.56 0854.50
2009/04/23 14:39:40.5      11   -486    -62    487    491 178.6  -7.3  34216  290.51 0854.50
2009/04/23 14:39:40.6       3   -372    -88    373    384 179.4 -13.3  34220  290.60 0854.50
2009/04/23 14:39:40.7     -67   -335   -177    342    385 191.3 -33.8  34228  290.72 0854.50
2009/04/23 14:39:40.8    -145   -295    -87    329    341 206.3 -14.8  34244  291.01 0854.50
2009/04/23 14:39:40.9      19   -361    -66    362    368 176.9 -10.4  34248  291.08 0854.50
2009/04/23 14:39:41.0     -30   -212   -143    215    258 188.2 -41.1  34244  291.00 0854.50
2009/04/23 14:39:41.1     -25   -215    -44    217    222 186.9 -11.6  34240  290.92 0854.50
2009/04/23 14:39:41.2      25   -230     27    232    234 173.8   6.7  34246  291.02 0854.50
2009/04/23 14:39:41.3      70   -360     62    367    373 168.9   9.7  34236  290.86 0854.50
2009/04/23 14:39:41.4     115   -289    157    312    349 158.2  28.6  34238  290.88 0854.50
2009/04/23 14:39:41.5      35   -277    112    280    301 172.8  23.0  34238  290.88 0854.49
2009/04/23 14:39:41.6      38   -263     66    266    275 171.8  13.9  34238  290.90 0854.49
2009/04/23 14:39:41.7      97   -296    174    312    357 161.7  31.6  34236  290.86 0854.49
2009/04/23 14:39:41.8     129   -358    241    381    450 160.2  35.5  34236  290.87 0854.49
2009/04/23 14:39:41.9     142   -444    160    467    494 162.2  18.9  34230  290.76 0854.49
2009/04/23 14:39:42.0     162   -600    117    622    634 164.8  10.7  34230  290.76 0854.49
2009/04/23 14:39:42.1     324   -563    141    650    666 150.1  12.3  34222  290.61 0854.49
2009/04/23 14:39:42.2     246   -530    126    585    599 155.1  12.2  34222  290.63 0854.49
2009/04/23 14:39:42.3     188   -495    176    530    559 159.2  18.4  34226  290.69 0854.49
2009/04/23 14:39:42.4    -110   -598     94    609    617 190.5   8.8  34220  290.58 0854.49
2009/04/23 14:39:42.5     -37   -532    239    534    585 184.0  25.6  34232  290.80 0854.49
2009/04/23 14:39:42.6     118   -463    186    478    512 165.7  22.4  34232  290.81 0854.49
2009/04/23 14:39:42.7     136   -497    263    516    579 164.7  29.2  34234  290.84 0854.49
2009/04/23 14:39:42.8      59   -497    222    501    547 173.2  25.6  34232  290.80 0854.49
2009/04/23 14:39:42.9     103   -394    177    408    444 165.3  25.1  34228  290.72 0854.49
2009/04/23 14:39:43.0     129   -498    269    515    581 165.5  29.8  34224  290.67 0854.49
2009/04/23 14:39:43.1     134   -416    268    438    513 162.1  34.4  34228  290.74 0854.49
2009/04/23 14:39:43.2     177   -323    222    369    430 151.3  33.7  34230  290.75 0854.49
2009/04/23 14:39:43.3     118   -438    259    454    522 164.9  32.3  34184  289.98 0854.49
2009/04/23 14:39:43.4    -122   -480    336    496    599 194.3  37.4  34196  290.18 0854.49
2009/04/23 14:39:43.5    -196   -437    184    480    514 204.2  22.0  34208  290.40 0854.49
2009/04/23 14:39:43.6     -35   -284    280    287    400 187.2  49.4  34216  290.52 0854.49
2009/04/23 14:39:43.7     -94   -220    339    240    415 203.2  61.4  34222  290.64 0854.49
2009/04/23 14:39:43.8    -189   -328     21    379    380 210.0   3.2  34220  290.60 0854.49
2009/04/23 14:39:43.9     -79   -249    165    262    309 197.6  35.5  34220  290.58 0854.49
2009/04/23 14:39:44.0     -10   -233    225    234    324 182.6  49.0  34234  290.83 0854.49
2009/04/23 14:39:44.1       0   -217    158    218    269 179.8  39.7  34230  290.76 0854.49
2009/04/23 14:39:44.2     -11   -169     53    170    179 183.8  17.3  34230  290.75 0854.49
2009/04/23 14:39:44.3     -31   -119     43    123    131 194.7  19.2  34226  290.70 0854.49
2009/04/23 14:39:44.4     -87    -16     69     89    112 259.4  42.2  34238  290.91 0854.49
2009/04/23 14:39:44.5     142     57    189    154    243  68.2  56.9  34226  290.69 0854.49
2009/04/23 14:39:44.6     192     84    184    210    279  66.3  45.8  34222  290.61 0854.49
2009/04/23 14:39:44.7     209    107    221    235    322  62.9  48.2  34218  290.56 0854.49
2009/04/23 14:39:44.8     293    316     68    432    438  42.8   9.0  34228  290.73 0854.49
2009/04/23 14:39:44.9     204    234     98    311    327  41.0  17.5  34230  290.75 0854.49
2009/04/23 14:39:45.0     208    251    188    327    377  39.6  32.4  34226  290.69 0854.49
2009/04/23 14:39:45.1     311    300    168    433    464  46.0  22.3  34238  290.90 0854.49
2009/04/23 14:39:45.2     358    181    212    402    454  63.1  30.2  34228  290.73 0854.49
2009/04/23 14:39:45.3     428    183    265    466    536  66.8  32.3  34232  290.79 0854.49
2009/04/23 14:39:45.4     567   -102    208    577    613 100.2  20.7  34234  290.83 0854.49
2009/04/23 14:39:45.5     569    -79    235    575    621  97.9  23.5  34228  290.73 0854.51
2009/04/23 14:39:45.6     357   -203    301    411    509 119.7  39.9  34232  290.81 0854.51
2009/04/23 14:39:45.7     358   -277    364    453    581 127.7  42.9  34218  290.55 0854.51
2009/04/23 14:39:45.8     607   -299    217    677    711 116.3  17.8  34238  290.91 0854.51
2009/04/23 14:39:45.9     382   -491    292    623    688 142.2  27.0  34228  290.73 0854.51
2009/04/23 14:39:46.0     346   -509    234    616    658 145.7  21.8  34220  290.59 0854.51
2009/04/23 14:39:46.1     210   -546    212    586    624 159.0  19.9  34226  290.68 0854.51
2009/04/23 14:39:46.2     108   -527    266    539    601 168.3  28.2  34222  290.61 0854.51
2009/04/23 14:39:46.3     177   -549    145    577    595 162.1  14.2  34230  290.75 0854.51
2009/04/23 14:39:46.4      -4   -327    285    328    434 180.7  45.6  34230  290.77 0854.51
2009/04/23 14:39:46.5     -70   -336    201    344    398 191.9  33.0  34228  290.74 0854.51
2009/04/23 14:39:46.6    -100   -362    280    376    468 195.6  40.4  34230  290.77 0854.51
2009/04/23 14:39:46.7     -80   -320    227    330    400 194.1  37.7  34232  290.81 0854.51
2009/04/23 14:39:46.8     -76   -296    138    306    335 194.5  25.9  34230  290.75 0854.51
2009/04/23 14:39:46.9     -79   -348     73    358    366 192.9  11.6  34234  290.83 0854.51
2009/04/23 14:39:47.0    -106   -349     99    365    379 197.0  15.3  34248  291.08 0854.51
2009/04/23 14:39:47.1     -21   -257    148    258    297 184.7  32.4  34250  291.09 0854.51
2009/04/23 14:39:47.2       1   -154   -105    155    187 179.5 -41.7  34240  290.94 0854.51
2009/04/23 14:39:47.3      20    -17   -150     27    152 131.3 -90.0  34252  291.13 0854.51
2009/04/23 14:39:47.4      16   -102   -152    104    184 171.1 -67.0  34250  291.09 0854.51
2009/04/23 14:39:47.5     162    -88   -138    185    230 118.6 -44.8  34244  290.99 0854.52
2009/04/23 14:39:47.6     124     -9   -132    125    181  94.3 -56.4  34248  291.08 0854.52
2009/04/23 14:39:47.7     137    123   -134    185    228  48.0 -43.9  34250  291.11 0854.52
2009/04/23 14:39:47.8     307    -42    -27    310    312  97.9  -5.1  34258  291.24 0854.52
2009/04/23 14:39:47.9     278    -21    -46    279    283  94.4  -9.4  34256  291.19 0854.52
2009/04/23 14:39:48.0     122   -141    -36    187    191 139.2 -10.9  34258  291.25 0854.52
2009/04/23 14:39:48.1     219   -103    -31    243    246 115.2  -7.5  34276  291.55 0854.52
2009/04/23 14:39:48.2      54    -87    188    103    214 148.4  68.9  34284  291.69 0854.52
2009/04/23 14:39:48.3      21     21    132     31    135  45.1  87.0  34292  291.83 0854.52
2009/04/23 14:39:48.4    -108      2    142    109    179 271.3  58.7  34272  291.47 0854.52
2009/04/23 14:39:48.5    -206    -61     80    215    229 253.4  21.0  34268  291.40 0854.52
2009/04/23 14:39:48.6     -55   -119    158    132    205 204.9  56.1  34278  291.59 0854.52
2009/04/23 14:39:48.7      34     49     69     60     91  35.2  54.8  34286  291.71 0854.52
2009/04/23 14:39:48.8     -16    217    108    218    243 355.8  28.2  34264  291.33 0854.52
2009/04/23 14:39:48.9     -44     44    118     63    133 315.0  69.8  34278  291.59 0854.52
2009/04/23 14:39:49.0     -59   -130    163    143    216 204.5  54.3  34264  291.33 0854.52
2009/04/23 14:39:49.1      78    -48    173     92    195 121.5  70.0  34262  291.30 0854.52
2009/04/23 14:39:49.2     209   -103    173    234    291 116.2  39.9  34256  291.19 0854.52
2009/04/23 14:39:49.3     176   -177    195    250    317 135.2  41.9  34256  291.19 0854.52
2009/04/23 14:39:49.4     312   -265    247    410    478 130.3  34.0  34244  291.01 0854.52
2009/04/23 14:39:49.5      38   -501    304    503    587 175.7  34.0  34238  290.89 0854.53
2009/04/23 14:39:49.6       5   -464    287    465    546 179.3  34.5  34238  290.89 0854.53
2009/04/23 14:39:49.7      86   -353    254    364    443 166.2  38.4  34238  290.90 0854.53
2009/04/23 14:39:49.8     187   -249    173    312    356 143.1  31.4  34240  290.93 0854.53
2009/04/23 14:39:49.9     144   -231    205    273    341 148.1  40.6  34242  290.95 0854.53
2009/04/23 14:39:50.0      58   -262    138    269    302 167.5  29.3  34240  290.92 0854.53
2009/04/23 14:39:50.1      93   -178    137    202    244 152.4  37.4  34242  290.96 0854.53
2009/04/23 14:39:50.2      68   -105    148    126    194 147.0  55.6  34232  290.79 0854.53
2009/04/23 14:39:50.3     -59   -330    198    336    390 190.3  33.4  34238  290.88 0854.53
2009/04/23 14:39:50.4      33   -223    147    226    269 171.5  35.7  34242  290.95 0854.53
2009/04/23 14:39:50.5      16   -216    187    217    286 175.6  45.4  34244  291.00 0854.53
2009/04/23 14:39:50.6     -48   -236      4    241    242 191.6   1.0  34242  290.95 0854.53
2009/04/23 14:39:50.7      55   -264     13    270    271 168.2   2.9  34236  290.87 0854.53
2009/04/23 14:39:50.8      55   -152    108    162    194 160.0  36.5  34240  290.92 0854.53
2009/04/23 14:39:50.9      50    -60     72     79    106 140.4  47.9  34242  290.98 0854.53
2009/04/23 14:39:51.0       0    -31    -27     32     41 180.9 -49.2  34248  291.06 0854.53
2009/04/23 14:39:51.1      41    -68     31     80     85 148.4  22.0  34254  291.18 0854.53
2009/04/23 14:39:51.2     -38   -121     -2    127    128 197.4  -1.2  34262  291.32 0854.53
2009/04/23 14:39:51.3    -114    -29     98    118    153 255.4  43.8  34274  291.50 0854.53
2009/04/23 14:39:51.4     -76     35     82     84    117 294.8  49.9  34276  291.55 0854.53
2009/04/23 14:39:51.5     -19     96     -9     99    100 348.4  -5.2  34278  291.59 0854.55
2009/04/23 14:39:51.6      27    121    -38    125    130  12.9 -21.8  34278  291.57 0854.55
2009/04/23 14:39:51.7     187     77     71    203    216  67.4  19.4  34354  292.86 0854.55
2009/04/23 14:39:51.8     135     69     80    152    171  62.9  29.8  34368  293.10 0854.55
2009/04/23 14:39:51.9      22    284     77    285    296   4.5  15.2  34336  292.55 0854.55
2009/04/23 14:39:52.0     -17    226    145    227    269 355.6  35.6  34364  293.03 0854.55
2009/04/23 14:39:52.1       4    274    -29    275    277   0.9  -6.2  34302  291.97 0854.55
2009/04/23 14:39:52.2       5    287    -30    288    290   1.0  -6.1  34288  291.75 0854.55
2009/04/23 14:39:52.3      74    354    -46    362    365  11.9  -7.4  34306  292.05 0854.55
2009/04/23 14:39:52.4     127    490    -15    507    508  14.5  -1.8  34332  292.51 0854.55
2009/04/23 14:39:52.5     293    447    125    535    550  33.3  13.2  34348  292.76 0854.55
2009/04/23 14:39:52.6     168    431    -20    463    464  21.3  -2.5  34224  290.67 0854.55
2009/04/23 14:39:52.7    -178   -181    183    254    313 224.5  39.2  34312  292.16 0854.55
2009/04/23 14:39:52.8    -290   -258     56    389    394 228.4   8.2  34322  292.31 0854.55
2009/04/23 14:39:52.9    -418    -91   -182    429    466 257.6 -28.7  34294  291.86 0854.55
2009/04/23 14:39:53.0    -458    152   -221    483    531 288.4 -30.8  34236  290.86 0854.55
2009/04/23 14:39:53.1    -345    254   -342    429    548 306.4 -47.1  34128  289.03 0854.55
2009/04/23 14:39:53.2    -288    265   -371    392    539 312.7 -52.6  34166  289.67 0854.55
2009/04/23 14:39:53.3    -202    167   -343    263    432 309.5 -63.0  34182  289.94 0854.55
2009/04/23 14:39:53.4    -309     66   -406    317    515 282.2 -62.7  34240  290.92 0854.55
2009/04/23 14:39:53.6    -365     12   -403    366    544 272.0 -57.6  34218  290.54 0854.56
2009/04/23 14:39:53.6    -163   -214   -312    270    412 217.4 -59.2  34216  290.52 0854.56
2009/04/23 14:39:53.7    -255   -230   -286    344    447 227.9 -48.2  34220  290.60 0854.56
2009/04/23 14:39:53.8      27    -67   -144     73    161 158.2 -75.8  34224  290.65 0854.56
2009/04/23 14:39:53.9      -9   -317   -236    318    396 181.8 -44.8  34230  290.76 0854.56
2009/04/23 14:39:54.0      -3   -209     10    210    211 181.0   2.8  34272  291.47 0854.56
2009/04/23 14:39:54.2      46   -277    -62    281    288 170.4 -12.6  34244  290.99 0854.56
2009/04/23 14:39:54.3     115   -242    -64    269    277 154.5 -13.4  34242  290.95 0854.56
2009/04/23 14:39:54.3      80   -283    -83    295    307 164.2 -15.7  34230  290.75 0854.56
2009/04/23 14:39:54.5      26   -347   -132    348    372 175.7 -26.2  34268  291.39 0854.56
2009/04/23 14:39:54.6     218   -458   -118    508    522 154.5 -13.2  34248  291.08 0854.56
2009/04/23 14:39:54.7     249   -560   -111    613    623 156.0 -10.3  34238  290.91 0854.56
2009/04/23 14:39:54.8     286   -655   -150    715    731 156.4 -11.9  34232  290.78 0854.56
2009/04/23 14:39:54.9     284   -706    -82    762    767 158.1  -6.2  34234  290.82 0854.56
2009/04/23 14:39:55.0     204   -716     -3    745    746 164.1  -0.3  34188  290.06 0854.56
2009/04/23 14:39:55.1     202   -613   -202    646    678 161.7 -17.4  34230  290.77 0854.56
2009/04/23 14:39:55.2     492   -434    179    657    682 131.4  15.3  34190  290.09 0854.56
2009/04/23 14:39:55.3     291   -481    259    563    619 148.8  26.6  34202  290.27 0854.56
2009/04/23 14:39:55.4     204   -694    101    724    732 163.6   8.0  34212  290.47 0854.56
2009/04/23 14:39:55.5     254   -495    222    557    599 152.8  23.0  34228  290.73 0854.56
2009/04/23 14:39:55.6     228   -543    112    590    601 157.2  10.8  34218  290.56 0854.57
2009/04/23 14:39:55.7     387   -467   -162    607    629 140.3 -15.0  34212  290.45 0854.57
2009/04/23 14:39:55.8     711   -271   -152    762    778 110.9 -11.3  34212  290.47 0854.57
2009/04/23 14:39:55.9     749    -89    235    755    791  96.8  17.3  34186  290.02 0854.57
2009/04/23 14:39:56.0     805   -173    143    824    837 102.2   9.9  34182  289.94 0854.57
2009/04/23 14:39:56.1     617   -418    228    746    781 124.1  17.0  34208  290.38 0854.57
2009/04/23 14:39:56.2     736   -363     76    821    825 116.3   5.3  34210  290.43 0854.57
2009/04/23 14:39:56.3     668   -321    265    742    787 115.7  20.4  34208  290.37 0854.57
2009/04/23 14:39:56.4     556   -336    390    650    758 121.2  33.7  34200  290.25 0854.57
2009/04/23 14:39:56.5     808   -380    180    894    912 115.2  11.4  34176  289.85 0854.57
2009/04/23 14:39:56.6     736     10    312    737    800  89.2  24.3  34204  290.32 0854.57
2009/04/23 14:39:56.7     700   -130    382    712    808 100.6  30.7  34210  290.42 0854.57
2009/04/23 14:39:56.8     324   -431    296    540    615 143.0  31.3  34200  290.25 0854.57
2009/04/23 14:39:56.9     482   -106    535    494    728 102.5  52.6  34204  290.33 0854.57
2009/04/23 14:39:57.0     534   -216    460    577    737 112.1  42.7  34214  290.49 0854.57
2009/04/23 14:39:57.1     544   -174    467    572    738 107.8  43.5  34214  290.49 0854.57
2009/04/23 14:39:57.2     414   -454    445    615    759 137.7  39.5  34208  290.37 0854.57
2009/04/23 14:39:57.3     336   -441    433    555    703 142.7  41.9  34206  290.34 0854.57
2009/04/23 14:39:57.4     223    -23    458    225    510  96.1  71.9  34226  290.70 0854.57
2009/04/23 14:39:57.5      53    -28    346     61    351 118.0  90.0  34238  290.88 0854.57
2009/04/23 14:39:57.6     130    -81    331    154    365 122.0  73.4  34232  290.78 0854.55
2009/04/23 14:39:57.7      15    -75    330     77    338 168.4  87.3  34252  291.14 0854.55
2009/04/23 14:39:57.8      54   -163    384    172    420 161.7  74.2  34254  291.18 0854.55
2009/04/23 14:39:57.9     251   -344    390    427    578 143.9  47.1  34236  290.86 0854.55
2009/04/23 14:39:58.0     167   -443    354    474    591 159.3  40.6  34228  290.72 0854.55
2009/04/23 14:39:58.1      67   -477    325    482    581 171.9  37.2  34234  290.84 0854.55
2009/04/23 14:39:58.2      39   -421    330    423    536 174.7  41.9  34242  290.98 0854.55
2009/04/23 14:39:58.3       0   -386    315    387    498 180.0  43.5  34258  291.24 0854.55
2009/04/23 14:39:58.4      31   -424    307    426    525 175.8  39.3  34254  291.17 0854.55
2009/04/23 14:39:58.5     -14   -548    263    549    608 181.5  27.3  34276  291.55 0854.55
2009/04/23 14:39:58.6      49   -484    293    487    568 174.2  33.8  34270  291.43 0854.54
2009/04/23 14:39:58.7      44   -379    241    382    451 173.3  35.5  34260  291.26 0854.54
2009/04/23 14:39:58.8     -23   -306    181    307    356 184.4  33.4  34242  290.98 0854.54
2009/04/23 14:39:58.9     -32    -88    218     94    237 200.0  75.3  34258  291.25 0854.54
2009/04/23 14:39:59.0    -128   -292    331    320    460 203.7  51.2  34276  291.53 0854.54
2009/04/23 14:39:59.1     125   -234    317    266    413 151.9  56.0  34274  291.51 0854.54
2009/04/23 14:39:59.2     -16   -206    329    207    388 184.5  64.7  34270  291.45 0854.54
2009/04/23 14:39:59.3     123    -30    249    127    279 103.7  71.0  34276  291.53 0854.54
2009/04/23 14:39:59.4      26   -112    233    116    260 166.6  71.9  34268  291.40 0854.54
2009/04/23 14:39:59.5     131   -163    246    210    323 141.3  55.4  34268  291.39 0854.54
2009/04/23 14:39:59.6     167   -109    196    200    280 123.3  49.9  34278  291.58 0854.54
2009/04/23 14:39:59.7     220    -94    159    240    287 113.3  36.5  34272  291.48 0854.54
2009/04/23 14:39:59.8     114   -173    106    208    233 146.6  29.2  34270  291.45 0854.54
2009/04/23 14:39:59.9      45   -136    168    144    221 161.7  55.0  34258  291.23 0854.54
2009/04/23 14:40:00.0     178   -303    231    352    421 149.5  36.4  34242  290.98 0854.54
2009/04/23 14:40:00.1     191   -223    127    294    320 139.4  24.8  34238  290.90 0854.54
2009/04/23 14:40:00.2     223   -375     78    437    445 149.3  10.2  34242  290.95 0854.54
2009/04/23 14:40:00.3     375   -425    163    568    591 138.6  16.0  34248  291.07 0854.54
2009/04/23 14:40:00.4     264   -301    218    401    456 138.7  31.0  34244  290.99 0854.54
2009/04/23 14:40:00.5     131   -306    228    334    404 156.8  37.6  34238  290.91 0854.54
2009/04/23 14:40:00.6     229   -279    196    361    410 140.6  30.9  34244  291.01 0854.54
2009/04/23 14:40:00.7     190   -260    192    323    375 143.9  33.5  34244  291.00 0854.54
2009/04/23 14:40:00.8     412   -194    140    456    478 115.2  17.1  34248  291.05 0854.54
2009/04/23 14:40:00.9     224   -261    199    344    397 139.4  32.7  34230  290.77 0854.54
2009/04/23 14:40:01.0     245   -266    268    362    450 137.4  40.1  34230  290.77 0854.54
2009/04/23 14:40:01.1     238   -184    183    302    353 127.8  34.0  34242  290.98 0854.54
2009/04/23 14:40:01.2     260    154     15    303    304  59.3   2.9  34280  291.61 0854.54
2009/04/23 14:40:01.3      49    251     12    256    257  11.1   2.8  34270  291.44 0854.54
2009/04/23 14:40:01.4    -156     73    114    173    207 295.1  36.3  34266  291.37 0854.54
2009/04/23 14:40:01.5      76    -52     84     93    125 124.6  46.9  34248  291.08 0854.54
2009/04/23 14:40:01.6     -13    -58    119     60    133 193.4  71.9  34254  291.16 0854.54
2009/04/23 14:40:01.7    -105   -115    121    156    197 222.3  41.7  34248  291.08 0854.54
2009/04/23 14:40:01.8    -192    -94     55    215    223 243.8  14.5  34246  291.03 0854.54
2009/04/23 14:40:01.9    -219    -87    109    236    259 248.3  26.4  34252  291.12 0854.54
2009/04/23 14:40:02.0    -334    -45    101    338    353 262.3  16.6  34258  291.22 0854.54
2009/04/23 14:40:02.1    -136   -136    140    193    238 225.2  39.7  34248  291.08 0854.54
2009/04/23 14:40:02.2    -106   -118    238    159    286 221.9  63.4  34256  291.19 0854.54
2009/04/23 14:40:02.3    -183     73     87    198    216 291.7  25.1  34290  291.79 0854.54
2009/04/23 14:40:02.4    -264    103     57    284    290 291.3  11.4  34306  292.04 0854.54
2009/04/23 14:40:02.5     -73    220    -36    232    235 341.5  -9.0  34298  291.90 0854.54
2009/04/23 14:40:02.6     131    -43    181    138    227 108.2  59.0  34272  291.47 0854.54
2009/04/23 14:40:02.7     155   -289    233    328    402 151.8  38.8  34254  291.17 0854.54
2009/04/23 14:40:02.8      25   -198    232    200    306 172.7  55.0  34252  291.14 0854.54
2009/04/23 14:40:02.9      11   -183    243    184    304 176.4  59.2  34252  291.12 0854.54
2009/04/23 14:40:03.0     -12    -62    193     64    203 191.5  80.7  34248  291.08 0854.54
2009/04/23 14:40:03.1     124    -36    169    130    213 106.4  58.5  34252  291.13 0854.54
2009/04/23 14:40:03.2      97      7    183     98    207  85.6  69.6  34270  291.45 0854.54
2009/04/23 14:40:03.3     224     86    205    241    316  68.9  44.8  34260  291.27 0854.54
2009/04/23 14:40:03.4     171     80    234    189    300  64.9  56.9  34262  291.31 0854.54
2009/04/23 14:40:03.5     151     78    197    171    260  62.5  54.6  34256  291.19 0854.54
2009/04/23 14:40:03.6     159     95    173    186    254  59.3  47.9  34258  291.24 0854.54
2009/04/23 14:40:03.7     136     64    142    151    207  64.8  48.0  34264  291.33 0854.54
2009/04/23 14:40:03.8     162    -12    216    163    270  94.4  59.4  34284  291.67 0854.54
2009/04/23 14:40:03.9       8    -81    164     82    183 174.2  71.4  34268  291.42 0854.54
2009/04/23 14:40:04.0      -1     20     93     21     95 355.5  88.0  34276  291.54 0854.54
2009/04/23 14:40:04.1      14      2     63     15     64  78.5  86.9  34280  291.62 0854.54
2009/04/23 14:40:04.2      42     46     73     63     96  42.3  54.8  34284  291.69 0854.54
2009/04/23 14:40:04.3       4     77     65     78    101   3.6  43.8  34292  291.81 0854.54
2009/04/23 14:40:04.4     -36    110     89    116    146 341.7  41.6  34278  291.59 0854.54
2009/04/23 14:40:04.5     -43    108     90    117    147 338.1  41.7  34272  291.47 0854.54
2009/04/23 14:40:04.6     -14    146     60    147    158 354.2  23.4  34280  291.62 0854.54
2009/04/23 14:40:04.7      59    136     84    149    171  23.6  31.9  34282  291.64 0854.54
2009/04/23 14:40:04.8      62    120     76    136    155  27.2  31.4  34308  292.10 0854.54
2009/04/23 14:40:04.9      46    234     47    239    244  11.3  11.1  34282  291.65 0854.54
2009/04/23 14:40:05.0      61    254      5    262    263  13.6   1.2  34292  291.82 0854.54
2009/04/23 14:40:05.1     -28    167    -53    170    179 350.4 -17.3  34266  291.38 0854.54
2009/04/23 14:40:05.2      -7    171    -41    172    177 357.5 -13.4  34284  291.67 0854.54
2009/04/23 14:40:05.3      -5    181    -63    182    193 358.4 -19.1  34288  291.76 0854.54
2009/04/23 14:40:05.4     -25    121    -61    124    138 348.0 -31.7  34286  291.71 0854.54
2009/04/23 14:40:05.5     -20    101    -95    104    140 348.4 -52.3  34300  291.96 0854.54
2009/04/23 14:40:05.6     -44    166   -110    172    204 345.1 -40.0  34298  291.91 0854.54
2009/04/23 14:40:05.7     -99     61    -65    117    133 301.5 -35.8  34292  291.83 0854.54
2009/04/23 14:40:05.8     -69     55    -47     89    100 308.6 -34.7  34278  291.57 0854.54
2009/04/23 14:40:05.9     -70     92    -70    116    135 322.6 -38.8  34288  291.76 0854.54
2009/04/23 14:40:06.0    -110    116     39    161    166 316.6  13.9  34272  291.49 0854.54
2009/04/23 14:40:06.1     -39    145     58    151    161 344.9  22.0  34272  291.49 0854.54
2009/04/23 14:40:06.2     -39    155     53    160    169 345.7  18.4  34282  291.66 0854.54
2009/04/23 14:40:06.3     -60     88     23    107    110 325.7  12.2  34292  291.83 0854.54
2009/04/23 14:40:06.4    -138     28    -58    141    152 281.5 -27.5  34288  291.74 0854.54
2009/04/23 14:40:06.5     -90   -194      1    214    215 204.9   0.5  34274  291.52 0854.54
2009/04/23 14:40:06.6    -155   -203     79    256    269 217.4  17.3  34274  291.51 0854.55
2009/04/23 14:40:06.7    -121   -140     64    186    197 220.8  19.2  34270  291.43 0854.55
2009/04/23 14:40:06.8     -79   -116    100    141    172 214.3  38.6  34286  291.72 0854.55
2009/04/23 14:40:06.9     -65   -159    169    172    241 202.3  49.9  34284  291.69 0854.55
2009/04/23 14:40:07.0     -30   -196    134    199    239 188.9  37.3  34274  291.52 0854.55
2009/04/23 14:40:07.1     -45   -185    182    191    263 193.8  48.7  34284  291.67 0854.55
2009/04/23 14:40:07.2      -5    -88    204     89    222 183.6  75.0  34318  292.27 0854.55
2009/04/23 14:40:07.3      14     14    137     20    138  45.0  90.0  34322  292.32 0854.55
2009/04/23 14:40:07.4      48    -31    107     58    121 122.5  69.3  34316  292.23 0854.55
2009/04/23 14:40:07.5      79     13    132     81    154  80.3  64.7  34300  291.95 0854.55
2009/04/23 14:40:07.6      16    -89    171     91    193 169.3  69.6  34302  292.00 0854.55
2009/04/23 14:40:07.7      93   -159    168    185    249 149.7  46.9  34280  291.62 0854.55
2009/04/23 14:40:07.8     330   -271     -1    427    428 129.4  -0.2  34254  291.16 0854.55
2009/04/23 14:40:07.9     447   -257     26    516    517 119.9   2.9  34242  290.95 0854.55
2009/04/23 14:40:08.0     135   -135    267    192    328 135.1  61.0  34274  291.51 0854.55
2009/04/23 14:40:08.1     132    -58    170    145    223 114.0  55.4  34252  291.13 0854.55
2009/04/23 14:40:08.2     175    -44     90    181    202 104.2  28.2  34242  290.98 0854.55
2009/04/23 14:40:08.3     124    -54     56    136    147 113.5  23.1  34242  290.96 0854.55
2009/04/23 14:40:08.4     188   -126     49    227    233 124.0  12.4  34238  290.91 0854.55
2009/04/23 14:40:08.5      65   -167     65    180    191 158.6  20.2  34230  290.77 0854.55
2009/04/23 14:40:08.6       2   -233    -25    234    236 179.3  -6.2  34242  290.95 0854.56
2009/04/23 14:40:08.7     -28   -379     52    380    384 184.2   7.9  34248  291.08 0854.56
2009/04/23 14:40:08.8      63   -304      6    311    312 168.2   1.1  34248  291.05 0854.56
2009/04/23 14:40:08.9     106   -318     13    336    337 161.5   2.2  34242  290.96 0854.56
2009/04/23 14:40:09.0      11   -251    -30    252    254 177.3  -6.9  34242  290.95 0854.56
2009/04/23 14:40:09.1     -77   -154    -57    173    182 206.7 -23.8  34244  291.01 0854.56
2009/04/23 14:40:09.2    -119   -116     69    167    180 225.6  23.6  34262  291.30 0854.56
2009/04/23 14:40:09.3    -124   -174    -85    214    230 215.6 -27.4  34274  291.50 0854.56
2009/04/23 14:40:09.4    -110   -130   -135    171    217 220.3 -46.6  34274  291.50 0854.56
2009/04/23 14:40:09.5    -240     63     21    249    250 284.8   5.0  34286  291.70 0854.56
2009/04/23 14:40:09.6    -333     75     -4    342    343 282.8  -0.7  34308  292.10 0854.56
2009/04/23 14:40:09.7    -333     30   -101    335    350 275.2 -16.8  34312  292.15 0854.56
2009/04/23 14:40:09.8    -145    206     55    253    260 324.8  12.4  34316  292.21 0854.56
2009/04/23 14:40:09.9     -58    215     74    223    235 344.9  18.4  34306  292.06 0854.56
2009/04/23 14:40:10.0      44    158    110    165    198  15.6  37.0  34292  291.83 0854.56
2009/04/23 14:40:10.1      85    134    111    160    194  32.5  38.0  34286  291.71 0854.56
2009/04/23 14:40:10.2      13      8    103     16    104  57.6  90.0  34292  291.81 0854.56
2009/04/23 14:40:10.3     -33     13    117     36    122 291.7  82.7  34286  291.72 0854.56
2009/04/23 14:40:10.4     -30    -67    100     74    124 204.5  60.0  34284  291.67 0854.56
2009/04/23 14:40:10.5      48    -45     95     67    116 133.2  61.5  34292  291.81 0854.56
2009/04/23 14:40:10.6      82    -16    115     84    142 101.5  60.5  34292  291.81 0854.50
2009/04/23 14:40:10.7      10    -16     89     19     91 147.4  89.0  34286  291.72 0854.50
2009/04/23 14:40:10.8      84    -89    115    123    168 136.7  48.2  34242  290.96 0854.50
2009/04/23 14:40:10.9      70     -7    160     71    175  96.1  74.5  34264  291.33 0854.50
2009/04/23 14:40:11.0     126    -29    194    130    233 103.2  63.4  34266  291.37 0854.50
2009/04/23 14:40:11.1     126     13    206    127    242  83.9  65.6  34270  291.45 0854.50
2009/04/23 14:40:11.2      61    -12    190     63    200 101.5  80.7  34288  291.74 0854.50
2009/04/23 14:40:11.3      39     -6    135     40    140  99.7  83.3  34284  291.67 0854.50
2009/04/23 14:40:11.4      47    -14    129     50    138 106.8  77.6  34286  291.72 0854.50
2009/04/23 14:40:11.5       4    -57    115     58    128 175.5  71.4  34280  291.62 0854.50
2009/04/23 14:40:11.6      98     21    130    101    164  77.6  58.5  34286  291.72 0854.50
2009/04/23 14:40:11.7     140    -47    186    148    237 108.6  57.5  34292  291.83 0854.50
2009/04/23 14:40:11.8      57    -55    107     80    133 134.1  60.0  34272  291.47 0854.50
2009/04/23 14:40:11.9      34   -164     82    168    186 168.2  27.4  34244  291.01 0854.50
2009/04/23 14:40:12.0      67   -152     94    167    191 156.2  31.6  34242  290.98 0854.50
2009/04/23 14:40:12.1     110    -84    144    139    200 127.3  50.9  34286  291.71 0854.50
2009/04/23 14:40:12.2      19   -178     99    180    205 173.8  31.4  34250  291.09 0854.50
2009/04/23 14:40:12.3      10     -6    151     12    151 122.4  90.0  34300  291.96 0854.50
2009/04/23 14:40:12.4      10    -85     73     86    112 172.9  44.3  34268  291.40 0854.50
2009/04/23 14:40:12.5      24    -50     52     56     76 154.6  48.0  34248  291.06 0854.50
2009/04/23 14:40:12.6      -5    -18     41     19     45 198.3  72.9  34262  291.30 0854.47
2009/04/23 14:40:12.7      -5    -86     66     87    109 183.6  41.2  34260  291.28 0854.47
2009/04/23 14:40:12.8     119   -138     28    183    186 139.2   8.8  34258  291.25 0854.47
2009/04/23 14:40:12.9     162    -61     30    174    177 110.8   9.9  34252  291.15 0854.47
2009/04/23 14:40:13.0     128    -42    113    135    176 108.2  44.3  34246  291.03 0854.47
2009/04/23 14:40:13.1     123   -104     69    162    176 130.4  24.3  34246  291.03 0854.47
2009/04/23 14:40:13.2      87   -160     51    183    191 151.3  15.8  34240  290.94 0854.47
2009/04/23 14:40:13.3      54   -164     25    173    175 161.5   8.2  34244  291.01 0854.47
2009/04/23 14:40:13.4     -82   -189     72    207    220 203.6  19.2  34242  290.96 0854.47
2009/04/23 14:40:13.5    -104   -508    146    519    540 191.6  15.8  34228  290.74 0854.47
2009/04/23 14:40:13.6     370   -648    347    747    823 150.3  26.7  34224  290.66 0854.47
2009/04/23 14:40:13.7     254   -495    377    557    672 152.8  37.4  34224  290.67 0854.47
2009/04/23 14:40:13.8     216   -578    234    618    660 159.5  21.7  34220  290.60 0854.47
2009/04/23 14:40:13.9     137   -508    135    527    545 164.9  14.4  34228  290.74 0854.47
2009/04/23 14:40:14.0      98   -546    126    555    570 169.8  12.8  34226  290.70 0854.47
2009/04/23 14:40:14.1     251   -410     39    482    484 148.5   4.7  34232  290.78 0854.47
2009/04/23 14:40:14.2     338     10   -141    339    367  88.2 -28.3  34248  291.05 0854.47
2009/04/23 14:40:14.3     247    -13   -194    248    314  93.0 -46.5  34240  290.93 0854.47
2009/04/23 14:40:14.4     237    -33   -148    240    281  97.9 -39.2  34248  291.05 0854.47
2009/04/23 14:40:14.5     256    -64    -75    264    274 104.1 -20.7  34246  291.02 0854.47
2009/04/23 14:40:14.6     277   -175    -39    328    331 122.2  -6.9  34240  290.93 0854.40
2009/04/23 14:40:14.7     290   -256    -60    387    392 131.4  -8.9  34244  291.00 0854.40
2009/04/23 14:40:14.8     294   -201   -127    357    380 124.4 -19.7  34240  290.94 0854.40
2009/04/23 14:40:14.9     268   -162    -88    314    327 121.1 -15.7  34246  291.02 0854.40
2009/04/23 14:40:15.0     231     -3   -108    232    255  90.9 -31.4  34228  290.73 0854.40
2009/04/23 14:40:15.1      28   -169    168    172    240 170.4  49.8  34246  291.03 0854.40
2009/04/23 14:40:15.2     112   -195    228    226    321 150.1  50.0  34246  291.04 0854.40
2009/04/23 14:40:15.3      46   -225     43    230    234 168.4  10.6  34234  290.82 0854.40
2009/04/23 14:40:15.4      31   -478    183    480    513 176.2  22.0  34232  290.79 0854.40
2009/04/23 14:40:15.5     123   -576    116    590    602 167.9  11.1  34242  290.95 0854.40
2009/04/23 14:40:15.6     297   -629     31    696    697 154.7   2.6  34238  290.88 0854.40
2009/04/23 14:40:15.7     306   -728    246    790    828 157.2  17.3  34228  290.74 0854.40
2009/04/23 14:40:15.8     376   -499     47    625    627 143.0   4.3  34238  290.89 0854.40
2009/04/23 14:40:15.9     334   -336    -97    474    485 135.2 -11.6  34238  290.90 0854.40
2009/04/23 14:40:16.0     300   -153     52    337    341 117.1   8.8  34220  290.59 0854.40
2009/04/23 14:40:16.1      14   -155    241    156    287 174.7  64.4  34242  290.97 0854.40
2009/04/23 14:40:16.2     -10   -138    188    139    233 184.5  60.3  34260  291.26 0854.40
2009/04/23 14:40:16.3      29   -148    212    151    260 168.9  61.1  34268  291.40 0854.40
2009/04/23 14:40:16.4     -28   -261    210    263    336 186.2  42.7  34248  291.05 0854.40
2009/04/23 14:40:16.5    -157   -418    238    447    506 200.7  30.3  34252  291.12 0854.40
2009/04/23 14:40:16.6    -164   -306   -111    348    365 208.2 -22.8  34254  291.18 0854.35
2009/04/23 14:40:16.7      81   -292     65    304    312 164.4  12.2  34246  291.04 0854.35
2009/04/23 14:40:16.8      32   -408     91    410    421 175.4  12.5  34236  290.85 0854.35
2009/04/23 14:40:16.9       6   -366    178    367    407 179.0  27.8  34240  290.94 0854.35
2009/04/23 14:40:17.0      65   -463    222    468    517 171.9  27.2  34236  290.86 0854.35
2009/04/23 14:40:17.1      39   -423    269    425    502 174.7  35.5  34238  290.90 0854.35
2009/04/23 14:40:17.2      74   -527    188    533    565 172.0  20.2  34244  290.99 0854.35
2009/04/23 14:40:17.3      75   -491     26    497    498 171.3   3.0  34236  290.85 0854.35
2009/04/23 14:40:17.4      82   -435     70    443    449 169.3   9.0  34244  290.99 0854.35
2009/04/23 14:40:17.5     128   -423     13    443    444 163.1   1.8  34234  290.82 0854.35
2009/04/23 14:40:17.6     171   -359     19    398    399 154.5   2.8  34234  290.83 0854.35
2009/04/23 14:40:17.7      88   -308     37    321    324 164.0   6.6  34228  290.73 0854.35
2009/04/23 14:40:17.8     181   -183     26    258    260 135.2   5.9  34244  290.99 0854.35
2009/04/23 14:40:17.9      82   -209     99    225    245 158.6  25.3  34242  290.95 0854.35
2009/04/23 14:40:18.0      -1   -268    196    269    332 180.2  39.7  34238  290.90 0854.35
2009/04/23 14:40:18.1     -26   -256    206    258    330 185.8  42.9  34240  290.92 0854.35
2009/04/23 14:40:18.2     -35   -197    100    201    224 190.2  28.5  34240  290.94 0854.35
2009/04/23 14:40:18.3      59   -150    170    162    234 158.6  51.4  34250  291.11 0854.35
2009/04/23 14:40:18.4     132    -78    160    154    222 120.7  51.2  34252  291.13 0854.35
2009/04/23 14:40:18.5      33    -33     80     47     92 135.0  66.8  34262  291.32 0854.35
2009/04/23 14:40:18.6     -28     78     87     84    120 340.0  51.2  34272  291.49 0854.36
2009/04/23 14:40:18.7     -49     87    104    100    144 330.6  50.7  34262  291.32 0854.36
2009/04/23 14:40:18.8     -26     73     34     78     85 340.0  25.1  34256  291.20 0854.36
2009/04/23 14:40:18.9      62     96     73    115    136  33.0  35.5  34256  291.20 0854.36
2009/04/23 14:40:19.0      52     97     56    111    124  28.1  29.2  34254  291.16 0854.36
2009/04/23 14:40:19.1     118     72     57    139    150  58.5  23.1  34252  291.13 0854.36
2009/04/23 14:40:19.2      94     44     92    104    138  64.8  46.4  34260  291.26 0854.36
2009/04/23 14:40:19.3     113     68    113    132    173  58.9  45.1  34254  291.16 0854.36
2009/04/23 14:40:19.4     112    112    159    159    224  45.1  50.1  34258  291.25 0854.36
2009/04/23 14:40:19.5     215     70     85    227    242  71.8  21.5  34284  291.68 0854.36
2009/04/23 14:40:19.6     -31     46    134     56    145 325.7  76.6  34284  291.69 0854.36
2009/04/23 14:40:19.7      -1     82    104     83    133 359.1  56.9  34278  291.59 0854.36
2009/04/23 14:40:19.8     -15     48    101     51    113 342.2  71.9  34272  291.49 0854.36
2009/04/23 14:40:19.9       0    -20     87     21     89 182.7  86.9  34270  291.43 0854.36
2009/04/23 14:40:20.0     -14     22     78     27     82 327.5  80.7  34272  291.47 0854.36
2009/04/23 14:40:20.1     -23     13     42     27     49 298.9  64.7  34274  291.52 0854.36
2009/04/23 14:40:20.2     109      8    112    110    156  85.7  50.4  34316  292.22 0854.36
2009/04/23 14:40:20.3      -8     23     97     25    100 340.0  85.4  34330  292.47 0854.36
2009/04/23 14:40:20.4      -5    -33    143     34    146 189.8  87.0  34312  292.15 0854.36
2009/04/23 14:40:20.5     -49     16    100     52    112 288.2  70.8  34320  292.29 0854.36
2009/04/23 14:40:20.6     -88     10    140     89    165 277.0  64.7  34306  292.06 0854.35
2009/04/23 14:40:20.8     -83     26     76     88    116 287.7  45.4  34270  291.45 0854.35
2009/04/23 14:40:20.9     -11      3     59     12     60 288.4  89.1  34268  291.40 0854.35
2009/04/23 14:40:20.9      15     -4     91     16     92 108.2  90.0  34264  291.35 0854.35
2009/04/23 14:40:21.1     -54   -164    136    173    220 198.3  42.2  34264  291.33 0854.35
2009/04/23 14:40:21.2     -56   -169    175    179    250 198.5  49.8  34262  291.32 0854.35
2009/04/23 14:40:21.2      10    -67     79     68    104 171.1  54.8  34278  291.57 0854.35
2009/04/23 14:40:21.4     117    -32     91    122    152 105.5  40.1  34282  291.64 0854.35
2009/04/23 14:40:21.5      95    -31     83    101    130 108.2  43.7  34284  291.67 0854.35
2009/04/23 14:40:21.6      58      4     69     59     90  85.7  55.4  34288  291.74 0854.35
2009/04/23 14:40:21.7     -46    -73    149     87    172 212.5  66.8  34264  291.33 0854.39
2009/04/23 14:40:21.8    -102   -126    169    163    234 219.0  51.2  34256  291.20 0854.39
2009/04/23 14:40:21.9     -84   -208    206    225    305 202.1  47.1  34254  291.16 0854.39
2009/04/23 14:40:22.0    -188   -252    145    315    346 216.7  26.6  34256  291.20 0854.39
2009/04/23 14:40:22.1    -234   -223    144    324    354 226.5  25.6  34256  291.20 0854.39
2009/04/23 14:40:22.2    -231   -122     32    262    265 242.1   7.1  34266  291.36 0854.39
2009/04/23 14:40:22.3    -147    -14    -16    148    149 264.3  -6.2  34262  291.30 0854.39
2009/04/23 14:40:22.4     -98      0     41     99    107 270.4  23.1  34270  291.45 0854.39
2009/04/23 14:40:22.5     -87     65     51    109    120 306.9  27.1  34282  291.66 0854.39
2009/04/23 14:40:22.6     -36    -15     88     40     96 246.5  74.0  34284  291.69 0854.39
2009/04/23 14:40:22.7      75    -81    160    111    194 137.2  62.1  34292  291.81 0854.39
2009/04/23 14:40:22.8     -36   -117    197    123    232 197.4  64.7  34278  291.59 0854.39
2009/04/23 14:40:22.9      44   -310    182    314    362 171.8  32.8  34258  291.22 0854.39
2009/04/23 14:40:23.0     -59   -228     20    236    237 194.5   4.9  34268  291.39 0854.39
2009/04/23 14:40:23.1      -7   -132    -36    133    138 183.1 -15.4  34266  291.38 0854.39
2009/04/23 14:40:23.2      47    -39     -8     62     63 129.6  -7.3  34262  291.32 0854.39
2009/04/23 14:40:23.3     233     16    -43    234    238  85.9 -10.5  34272  291.46 0854.39
2009/04/23 14:40:23.4      40   -101   -107    109    152 158.2 -54.4  34266  291.37 0854.39
2009/04/23 14:40:23.5      64    -17   -141     67    156 105.1 -77.3  34262  291.32 0854.39
2009/04/23 14:40:23.6     116   -134      3    178    179 139.0   1.2  34260  291.26 0854.39
2009/04/23 14:40:23.7     236   -131    -34    271    274 119.1  -7.3  34276  291.55 0854.39
2009/04/23 14:40:23.8     236    -21     76    237    250  95.2  17.9  34310  292.13 0854.39
2009/04/23 14:40:23.9     124   -201    138    237    274 148.4  32.7  34252  291.14 0854.39
2009/04/23 14:40:24.0      -2   -122    133    123    181 181.0  52.2  34260  291.26 0854.39
2009/04/23 14:40:24.1      73    -88     66    115    132 140.3  32.4  34264  291.35 0854.39
2009/04/23 14:40:24.2    -184   -254     76    314    324 216.0  13.6  34266  291.36 0854.39
2009/04/23 14:40:24.3    -107   -273    206    294    358 201.4  38.4  34276  291.54 0854.39
2009/04/23 14:40:24.4     -24   -210    115    212    241 186.7  30.8  34274  291.52 0854.39
2009/04/23 14:40:24.5    -168   -247     27    300    302 214.3   5.2  34268  291.41 0854.39
2009/04/23 14:40:24.6    -142   -387     20    413    414 200.2   2.9  34284  291.69 0854.39
2009/04/23 14:40:24.7    -129   -327    -55    352    357 201.6  -9.0  34284  291.68 0854.39
2009/04/23 14:40:24.8      -2   -212     58    213    221 180.7  15.3  34266  291.37 0854.39
2009/04/23 14:40:24.9      -5   -244     -1    245    246 181.4  -0.3  34278  291.58 0854.39
2009/04/23 14:40:25.0      23   -273     23    275    277 175.1   5.0  34280  291.60 0854.39
2009/04/23 14:40:25.1     105   -114     -1    156    157 137.2  -0.5  34276  291.54 0854.39
2009/04/23 14:40:25.2      54   -101    -36    115    120 151.5 -22.3  34278  291.57 0854.39
2009/04/23 14:40:25.3      18   -128    -16    130    132 171.9  -7.3  34270  291.43 0854.39
2009/04/23 14:40:25.4     154   -154     51    219    225 135.0  13.1  34270  291.43 0854.39
2009/04/23 14:40:25.5     109   -220     34    246    249 153.5   8.0  34264  291.34 0854.39
2009/04/23 14:40:25.6     176    -25     63    178    189  98.4  19.6  34266  291.37 0854.39
2009/04/23 14:40:25.7     210     20    147    212    257  84.3  38.4  34284  291.68 0854.41
2009/04/23 14:40:25.8     142     38    131    148    197  74.9  46.2  34288  291.74 0854.41
2009/04/23 14:40:25.9      11    -12     93     17     94 136.8  90.0  34290  291.79 0854.41
2009/04/23 14:40:26.0     -13    -63     61     65     89 191.6  48.5  34302  291.98 0854.41
2009/04/23 14:40:26.1     -37    -87     66     95    115 203.2  38.0  34288  291.74 0854.41
2009/04/23 14:40:26.2     -52   -125     31    136    140 202.7  13.1  34282  291.64 0854.41
2009/04/23 14:40:26.3     -14   -152     -1    153    154 185.3  -0.7  34270  291.43 0854.41
2009/04/23 14:40:26.4     -90   -240     80    257    270 200.7  17.3  34260  291.27 0854.41
2009/04/23 14:40:26.5    -151   -237     78    282    293 212.5  15.6  34250  291.10 0854.41
2009/04/23 14:40:26.6    -295   -295    -64    418    423 225.0  -8.8  34256  291.21 0854.41
2009/04/23 14:40:26.7    -274   -291     27    400    401 223.3   3.9  34260  291.28 0854.41
2009/04/23 14:40:26.8    -145   -293     10    328    329 206.4   1.9  34256  291.19 0854.41
2009/04/23 14:40:26.9    -423    -47   -241    426    489 263.6 -36.4  34188  290.03 0854.41
2009/04/23 14:40:27.0    -304    -13    -96    305    320 267.5 -17.5  34228  290.71 0854.41
2009/04/23 14:40:27.1    -405   -111    -63    421    426 254.6  -8.6  34222  290.63 0854.41
2009/04/23 14:40:27.2    -391     23   -116    392    408 273.5 -21.5  34222  290.61 0854.41
2009/04/23 14:40:27.3    -342   -289    -87    448    457 229.8 -11.0  34206  290.34 0854.41
2009/04/23 14:40:27.4    -277   -278     36    393    395 224.9   5.3  34208  290.40 0854.41
2009/04/23 14:40:27.5    -231   -351      5    421    422 213.4   0.8  34218  290.55 0854.41
2009/04/23 14:40:27.6    -202   -186     85    275    289 227.3  17.3  34224  290.66 0854.41
2009/04/23 14:40:27.7    -215   -189     84    287    300 228.7  16.3  34246  291.04 0854.45
2009/04/23 14:40:27.8    -214   -145     51    259    265 235.8  11.1  34256  291.21 0854.45
2009/04/23 14:40:27.9    -210   -139     56    252    259 236.5  12.6  34262  291.29 0854.45
2009/04/23 14:40:28.0    -217    -99     52    239    245 245.4  12.4  34274  291.50 0854.45
2009/04/23 14:40:28.1    -165     17     29    166    169 276.1  10.1  34286  291.72 0854.45
2009/04/23 14:40:28.2    -162     -4      8    163    164 268.5   2.9  34290  291.77 0854.45
2009/04/23 14:40:28.3    -231    131     64    266    274 299.7  13.5  34284  291.67 0854.45
2009/04/23 14:40:28.4    -232     72    -44    243    247 287.3 -10.3  34286  291.72 0854.45
2009/04/23 14:40:28.5    -229    144     -1    271    272 302.2  -0.3  34294  291.84 0854.45
2009/04/23 14:40:28.6    -164    276    -38    322    325 329.2  -6.9  34288  291.73 0854.45
2009/04/23 14:40:28.7    -322    323    -66    457    462 315.1  -8.2  34292  291.80 0854.45
2009/04/23 14:40:28.8    -347    346     -1    491    492 314.9  -0.2  34304  292.02 0854.45
2009/04/23 14:40:28.9    -332    347    103    481    493 316.2  12.2  34292  291.80 0854.45
2009/04/23 14:40:29.0    -373    309     76    485    492 309.7   8.9  34312  292.16 0854.45
2009/04/23 14:40:29.1    -371    343    -96    506    516 312.7 -10.8  34364  293.04 0854.45
2009/04/23 14:40:29.2    -386    245   -169    458    488 302.5 -25.7  34318  292.27 0854.45
2009/04/23 14:40:29.3    -382    354    -80    522    529 312.8  -8.7  34310  292.11 0854.45
2009/04/23 14:40:29.4    -406    135   -177    428    463 288.4 -28.1  34296  291.89 0854.45
2009/04/23 14:40:29.5    -233     77     15    246    247 288.4   3.6  34286  291.70 0854.45
2009/04/23 14:40:29.6    -151    113    196    189    272 306.9  51.2  34298  291.90 0854.45
2009/04/23 14:40:29.7    -164    165    126    233    264 315.1  30.6  34280  291.61 0854.34
2009/04/23 14:40:29.8     -69    256     81    266    279 344.9  17.1  34304  292.02 0854.34
2009/04/23 14:40:29.9    -100    351     -7    365    366 344.1  -1.2  34334  292.53 0854.34
2009/04/23 14:40:30.0    -143    344    -35    373    375 337.4  -5.5  34348  292.77 0854.34
2009/04/23 14:40:30.1     -50    358    -59    362    367 352.0  -9.3  34338  292.60 0854.34
2009/04/23 14:40:30.2     -73    306    -54    315    320 346.4  -9.8  34330  292.45 0854.34
2009/04/23 14:40:30.3     -69    285    -46    294    298 346.4  -9.0  34330  292.45 0854.34
2009/04/23 14:40:30.4     -57    260    -82    267    279 347.5 -21.8  34326  292.40 0854.34
2009/04/23 14:40:30.5     -72    198     95    211    231 340.0  25.9  34324  292.35 0854.34
2009/04/23 14:40:30.6      29    221    107    223    247   7.6  27.3  34328  292.41 0854.34
2009/04/23 14:40:30.7     122    118    148    171    226  46.0  45.4  34314  292.20 0854.34
2009/04/23 14:40:30.8     167    202    144    263    299  39.7  31.3  34334  292.52 0854.34
2009/04/23 14:40:30.9     -63    253    156    261    304 346.0  33.5  34348  292.77 0854.34
2009/04/23 14:40:31.0     -90    274    136    289    319 341.7  27.0  34330  292.47 0854.34
2009/04/23 14:40:31.1     -67    283    118    291    314 346.6  23.4  34328  292.41 0854.34
2009/04/23 14:40:31.2     -53    275     87    281    295 349.1  17.3  34318  292.24 0854.34
2009/04/23 14:40:31.3    -105    290     15    309    310 340.0   2.9  34326  292.38 0854.34
2009/04/23 14:40:31.4      -5    235    -74    236    248 358.6 -17.6  34350  292.81 0854.34
2009/04/23 14:40:31.5     -18    245    -91    246    262 355.8 -25.4  34346  292.74 0854.34
2009/04/23 14:40:31.6     -24    235    -26    237    239 354.0  -6.5  34350  292.79 0854.34
2009/04/23 14:40:31.7      22    252     91    254    269   5.1  20.2  34326  292.40 0854.36
2009/04/23 14:40:31.8    -127    253     92    284    299 333.3  17.9  34316  292.23 0854.36
2009/04/23 14:40:31.9    -335    255    -16    422    423 307.3  -2.2  34310  292.11 0854.36
2009/04/23 14:40:32.0    -231    184   -149    296    331 308.6 -33.1  34298  291.90 0854.36
2009/04/23 14:40:32.1    -104    114   -172    155    231 317.7 -57.7  34332  292.49 0854.36
2009/04/23 14:40:32.2    -129     60   -130    143    193 294.8 -51.9  34328  292.44 0854.36
2009/04/23 14:40:32.3    -224     60   -105    232    254 285.1 -30.6  34300  291.94 0854.36
2009/04/23 14:40:32.4    -141     77    165    161    230 298.6  50.4  34298  291.91 0854.36
2009/04/23 14:40:32.5    -242     20    161    243    291 274.8  36.5  34340  292.62 0854.36
2009/04/23 14:40:32.6    -218    137    189    258    319 302.2  39.9  34360  292.96 0854.36
2009/04/23 14:40:32.7    -139    204    155    248    292 325.7  35.5  34362  293.01 0854.36
2009/04/23 14:40:32.8     -93    162    164    187    248 330.1  45.8  34368  293.10 0854.36
2009/04/23 14:40:32.9    -100    149    158    180    239 325.9  45.8  34420  294.01 0854.36
2009/04/23 14:40:33.0    -115     92    150    148    210 308.6  50.1  34416  293.92 0854.36
2009/04/23 14:40:33.1     -86    119    141    148    204 324.0  48.7  34406  293.75 0854.36
2009/04/23 14:40:33.2       0    104    108    105    150   0.0  50.2  34402  293.70 0854.36
2009/04/23 14:40:33.3     -99     46     80    110    136 294.8  39.7  34394  293.55 0854.36
2009/04/23 14:40:33.4     -64     36     81     74    109 299.8  52.2  34408  293.79 0854.36
2009/04/23 14:40:33.5     -35     -7     89     36     96 258.5  77.1  34410  293.82 0854.36
2009/04/23 14:40:33.6      59     -3     76     60     96  93.5  57.5  34416  293.92 0854.36
2009/04/23 14:40:33.7     157     31     78    161    178  78.6  27.4  34434  294.25 0854.38
2009/04/23 14:40:33.8     171     23     29    173    176  82.3   9.5  34422  294.04 0854.38
2009/04/23 14:40:33.9     199     24     49    201    208  83.0  13.9  34408  293.79 0854.38
2009/04/23 14:40:34.0     151     58     98    162    189  68.9  34.2  34390  293.48 0854.38
2009/04/23 14:40:34.1     119    121    107    171    201  44.5  35.5  34394  293.55 0854.38
2009/04/23 14:40:34.2      61    130     84    144    166  25.4  32.9  34390  293.50 0854.38
2009/04/23 14:40:34.3     -92    180    102    203    227 332.8  28.5  34400  293.65 0854.38
2009/04/23 14:40:34.4    -138    203    136    246    281 325.7  31.4  34392  293.52 0854.38
2009/04/23 14:40:34.5     -23    351    151    352    383 356.2  24.8  34400  293.65 0854.38
2009/04/23 14:40:34.6     -77    236    170    249    301 342.0  37.6  34400  293.64 0854.38
2009/04/23 14:40:34.7     138    217    236    258    349  32.5  47.3  34414  293.88 0854.38
2009/04/23 14:40:34.8      74    290    143    300    332  14.3  27.3  34382  293.35 0854.38
2009/04/23 14:40:34.9      34    277    280    280    395   7.1  50.1  34372  293.16 0854.38
2009/04/23 14:40:35.0     -79    294    154    305    341 344.8  28.9  34362  293.02 0854.38
2009/04/23 14:40:35.1     -29    354     53    356    360 355.3   8.5  34326  292.39 0854.38
2009/04/23 14:40:35.2     -94    401    103    412    425 346.7  14.2  34334  292.54 0854.38
2009/04/23 14:40:35.3     -47    278     35    282    285 350.4   7.1  34330  292.45 0854.38
2009/04/23 14:40:35.4     -22    287    -33    288    290 355.5  -6.7  34316  292.21 0854.38
2009/04/23 14:40:35.5     -49    319     77    323    333 351.1  13.5  34314  292.19 0854.38
2009/04/23 14:40:35.6    -147    309    -68    343    350 334.5 -11.3  34302  291.98 0854.38
2009/04/23 14:40:35.7     245    155    -87    291    303  57.6 -21.7  34334  292.52 0854.44
2009/04/23 14:40:35.8     395     51    -81    399    408  82.5 -11.6  34334  292.54 0854.44
2009/04/23 14:40:35.9     408     49    170    411    444  83.1  23.8  34346  292.74 0854.44
2009/04/23 14:40:36.0     377    120    141    396    421  72.3  19.6  34352  292.84 0854.44
2009/04/23 14:40:36.1     433    170    274    466    540  68.6  33.3  34376  293.26 0854.44
2009/04/23 14:40:36.2     340    233    215    413    465  55.6  29.6  34358  292.95 0854.44
2009/04/23 14:40:36.3      -7    416    266    417    494 359.0  35.6  34346  292.72 0854.44
2009/04/23 14:40:36.4     -31    674    275    675    728 357.3  23.5  34302  292.00 0854.44
2009/04/23 14:40:36.5     -54    454    283    458    538 353.2  34.8  34304  292.02 0854.44
2009/04/23 14:40:36.6      37    527    199    529    565   4.0  21.6  34302  292.00 0854.44
2009/04/23 14:40:36.7      68    689     66    693    697   5.7   5.5  34282  291.63 0854.44
2009/04/23 14:40:36.8     352    833    -51    905    907  22.9  -3.3  34290  291.77 0854.44
2009/04/23 14:40:36.9     335    712    -79    787    792  25.2  -5.8  34246  291.03 0854.44
2009/04/23 14:40:37.0     222    529    -75    574    579  22.8  -7.5  34248  291.07 0854.44
2009/04/23 14:40:37.1      63    625   -225    629    668   5.8 -25.0  34240  290.94 0854.44
2009/04/23 14:40:37.2     304    559   -202    637    668  28.5 -22.6  34240  290.92 0854.44
2009/04/23 14:40:37.3     166    557    -56    582    585  16.6  -5.6  34250  291.09 0854.44
2009/04/23 14:40:37.4     360    467    -93    590    598  37.6  -9.0  34228  290.71 0854.44
2009/04/23 14:40:37.5     392    267   -175    475    506  55.7 -25.4  34234  290.83 0854.44
2009/04/23 14:40:37.6     295    203   -200    359    410  55.4 -35.8  34236  290.86 0854.44
2009/04/23 14:40:37.7     623     38     51    625    628  86.5   4.7  34230  290.76 0854.49
2009/04/23 14:40:37.8     340    272    244    436    499  51.3  31.6  34228  290.71 0854.49
2009/04/23 14:40:37.9    -186    240     -6    304    305 322.2  -1.2  34212  290.46 0854.49
2009/04/23 14:40:38.0      53    159    116    168    204  18.5  37.8  34252  291.13 0854.49
2009/04/23 14:40:38.1     117    238    186    266    324  26.1  38.4  34224  290.65 0854.49
2009/04/23 14:40:38.2     167    306     -1    349    350  28.6  -0.3  34204  290.32 0854.49
2009/04/23 14:40:38.3     305    469   -143    560    579  33.1 -14.4  34220  290.59 0854.49
2009/04/23 14:40:38.4     545    426     28    692    693  52.0   2.4  34266  291.36 0854.49
2009/04/23 14:40:38.5     376    305   -108    485    498  51.0 -12.6  34224  290.66 0854.49
2009/04/23 14:40:38.6     395    233     70    459    465  59.5   8.7  34252  291.14 0854.49
2009/04/23 14:40:38.7     355    226    107    422    436  57.5  14.3  34262  291.29 0854.49
2009/04/23 14:40:38.8     317    342    150    467    491  42.9  17.8  34278  291.58 0854.49
2009/04/23 14:40:38.9     346    122     14    368    369  70.5   2.2  34238  290.88 0854.49
2009/04/23 14:40:39.0     595    120    114    607    618  78.5  10.7  34238  290.91 0854.49
2009/04/23 14:40:39.1     623     86    213    629    665  82.1  18.7  34250  291.10 0854.49
2009/04/23 14:40:39.2     679    192    247    706    747  74.2  20.1  34230  290.75 0854.49
2009/04/23 14:40:39.3     537    307    169    619    642  60.3  15.3  34218  290.57 0854.49
2009/04/23 14:40:39.4     479    240    129    536    552  63.4  13.5  34220  290.60 0854.49
2009/04/23 14:40:39.5     440    284     83    524    531  57.1   9.0  34212  290.46 0854.49
2009/04/23 14:40:39.6     413    309    117    517    531  53.2  12.8  34220  290.60 0854.49
2009/04/23 14:40:39.7     451    232     76    508    514  62.8   8.6  34238  290.90 0854.50
2009/04/23 14:40:39.8     445    186     95    483    493  67.3  11.1  34272  291.47 0854.50
2009/04/23 14:40:39.9     365    300    107    473    486  50.5  12.8  34286  291.71 0854.50
2009/04/23 14:40:40.0     311    217    102    380    394  55.1  15.1  34282  291.64 0854.50
2009/04/23 14:40:40.1     259    557    423    615    746  24.9  37.9  34304  292.02 0854.50
2009/04/23 14:40:40.2     296    656    482    720    866  24.3  37.0  34276  291.55 0854.50
2009/04/23 14:40:40.3     231    760    426    795    901  16.9  30.5  34354  292.88 0854.50
2009/04/23 14:40:40.4     215    616    275    653    708  19.3  24.2  34234  290.83 0854.50
2009/04/23 14:40:40.5     610    487    243    781    818  51.4  17.3  34308  292.07 0854.50
2009/04/23 14:40:40.6     452    397     72    602    607  48.7   6.9  34306  292.06 0854.50
2009/04/23 14:40:40.7     495    485    -83    693    699  45.6  -6.9  34272  291.46 0854.50
2009/04/23 14:40:40.8     430    260    305    503    588  58.9  34.0  34298  291.93 0854.50
2009/04/23 14:40:40.9     579    244    230    629    669  67.2  21.0  34282  291.63 0854.50
2009/04/23 14:40:41.0     638    426     65    768    772  56.3   4.9  34290  291.78 0854.50
2009/04/23 14:40:41.1     614    528    122    811    821  49.3   8.6  34298  291.91 0854.50
2009/04/23 14:40:41.2     526    452    104    694    702  49.4   8.6  34238  290.88 0854.50
2009/04/23 14:40:41.3     754    525    -22    919    920  55.1  -1.4  34300  291.94 0854.50
2009/04/23 14:40:41.4     528    357    184    638    665  55.9  16.1  34292  291.83 0854.50
2009/04/23 14:40:41.5     442    533   -218    693    727  39.7 -17.5  34258  291.24 0854.50
2009/04/23 14:40:41.6     523    459   -126    696    708  48.7 -10.3  34308  292.07 0854.50
2009/04/23 14:40:41.7     574    574    -53    812    814  45.0  -3.8  34294  291.84 0854.50
2009/04/23 14:40:41.8     450    355    -94    574    582  51.8  -9.3  34292  291.80 0854.50
2009/04/23 14:40:41.9     743    256    -41    786    788  71.0  -3.0  34308  292.09 0854.50
2009/04/23 14:40:42.0     604    357    183    702    726  59.4  14.6  34292  291.81 0854.50
2009/04/23 14:40:42.1     593    268     53    651    654  65.7   4.7  34312  292.17 0854.50
2009/04/23 14:40:42.2     546    203    147    583    602  69.6  14.2  34312  292.16 0854.50
2009/04/23 14:40:42.3     369    215    196    428    470  59.8  26.3  34308  292.08 0854.50
2009/04/23 14:40:42.4     354    200    187    407    447  60.5  26.4  34312  292.15 0854.50
2009/04/23 14:40:42.5     495     41     -2    497    498  85.2  -0.3  34288  291.76 0854.50
2009/04/23 14:40:42.6     293     88    -73    307    316  73.2 -13.4  34290  291.77 0854.50
2009/04/23 14:40:42.7     383    127     -1    404    405  71.6  -0.3  34260  291.28 0854.50
2009/04/23 14:40:42.8     363    159    154    397    425  66.4  22.3  34284  291.67 0854.50
2009/04/23 14:40:42.9     223    175    106    284    303  51.8  21.3  34272  291.48 0854.50
2009/04/23 14:40:43.0     221    166    143    277    311  53.1  29.6  34312  292.14 0854.50
2009/04/23 14:40:43.1     192    187     89    269    284  45.8  18.5  34278  291.58 0854.50
2009/04/23 14:40:43.2     299    176     79    348    357  59.5  12.9  34266  291.37 0854.50
2009/04/23 14:40:43.3     304    140     72    335    343  65.3  12.3  34286  291.71 0854.50
2009/04/23 14:40:43.4     333     71     73    341    349  77.8  12.2  34300  291.95 0854.50
2009/04/23 14:40:43.5     349     45    132    352    375  82.6  21.5  34284  291.68 0854.50
2009/04/23 14:40:43.6     153     15    129    154    200  84.3  44.3  34302  291.98 0854.50
2009/04/23 14:40:43.7      61      1    103     62    120  88.3  66.7  34326  292.40 0854.48
2009/04/23 14:40:43.8       6     85     67     86    109   4.4  42.2  34316  292.23 0854.48
2009/04/23 14:40:43.9     -16    112     66    114    131 351.5  32.9  34304  292.03 0854.48
2009/04/23 14:40:44.0      71    194     76    207    220  20.3  20.9  34280  291.62 0854.48
2009/04/23 14:40:44.1     105     92    131    140    191  48.7  48.0  34312  292.15 0854.48
2009/04/23 14:40:44.2     126     91    170    156    230  54.0  52.5  34344  292.71 0854.48
2009/04/23 14:40:44.3      29     76     56     82     99  21.4  38.0  34334  292.52 0854.48
2009/04/23 14:40:44.4      51     46     41     69     80  47.8  33.5  34316  292.23 0854.48
2009/04/23 14:40:44.5     103     27     48    107    117  75.0  25.7  34324  292.35 0854.48
2009/04/23 14:40:44.6     113      4      5    114    115  87.9   2.8  34318  292.27 0854.48
2009/04/23 14:40:44.7      88     13      4     90     91  81.2   2.9  34324  292.35 0854.42
2009/04/23 14:40:44.8     129     22     67    131    147  80.3  29.2  34366  293.09 0854.42
2009/04/23 14:40:44.9     163    -24     64    165    176  98.4  22.5  34368  293.12 0854.42
2009/04/23 14:40:45.0      63   -105    150    123    193 148.8  56.4  34370  293.14 0854.42
2009/04/23 14:40:45.1      -5   -122     95    123    155 182.7  41.7  34372  293.19 0854.42
2009/04/23 14:40:45.2     -40   -128     67    135    150 197.4  27.8  34362  293.02 0854.42
2009/04/23 14:40:45.3     -47    -75     25     89     93 212.5  15.8  34348  292.78 0854.42
2009/04/23 14:40:45.4      28    -71     90     77    118 158.2  54.8  34344  292.69 0854.42
2009/04/23 14:40:45.5     102    -48     56    113    126 115.2  28.2  34352  292.83 0854.42
2009/04/23 14:40:45.6      99    -47     61    110    125 115.8  31.4  34350  292.81 0854.42
2009/04/23 14:40:45.7     102   -102     94    145    172 135.0  35.6  34346  292.75 0854.42
2009/04/23 14:40:45.8     122   -127     64    177    188 136.3  20.4  34334  292.52 0854.42
2009/04/23 14:40:45.9      72   -216    194    228    299 161.5  44.8  34358  292.93 0854.42
2009/04/23 14:40:46.0      90   -134    193    162    251 146.2  55.8  34312  292.15 0854.42
2009/04/23 14:40:46.1      54   -113    146    126    192 154.6  54.8  34324  292.37 0854.42
2009/04/23 14:40:46.2      -5    -67    200     68    211 184.5  81.2  34350  292.81 0854.42
2009/04/23 14:40:46.3      38    -53    113     66    130 143.9  66.8  34330  292.46 0854.42
2009/04/23 14:40:46.4     113    -22    118    116    165 101.4  49.9  34306  292.05 0854.42
2009/04/23 14:40:46.5     124    -25    120    127    174 101.5  48.7  34302  292.00 0854.42
2009/04/23 14:40:46.6     139     23    103    141    174  80.4  39.9  34298  291.93 0854.42
2009/04/23 14:40:46.8     111     59    112    126    168  62.0  46.4  34310  292.13 0854.48
2009/04/23 14:40:46.8     108     73     74    131    150  55.8  31.4  34318  292.25 0854.48
2009/04/23 14:40:46.9     120     97     68    155    169  50.9  25.3  34316  292.22 0854.48
2009/04/23 14:40:47.1     249     22     55    251    258  84.8  12.4  34322  292.31 0854.48
2009/04/23 14:40:47.2     238     78    135    251    285  71.8  30.3  34344  292.69 0854.48
2009/04/23 14:40:47.2     271    167     54    319    324  58.4   9.7  34302  291.99 0854.48
2009/04/23 14:40:47.4     244    145     77    285    296  59.3  15.2  34276  291.55 0854.48
2009/04/23 14:40:47.5     198    121    207    233    311  58.5  46.4  34306  292.06 0854.48
2009/04/23 14:40:47.5     120     57    192    133    233  64.6  62.4  34296  291.88 0854.48
2009/04/23 14:40:47.7     173      8    207    174    270  87.2  56.1  34274  291.51 0854.48
2009/04/23 14:40:47.8      66    101    155    121    196  33.4  58.2  34266  291.38 0854.48
2009/04/23 14:40:47.9     159    158     96    225    244  45.2  24.6  34276  291.53 0854.48
2009/04/23 14:40:48.0     217     81    123    232    262  69.4  30.3  34310  292.13 0854.48
2009/04/23 14:40:48.1     248    206    102    323    339  50.4  17.5  34332  292.49 0854.48
2009/04/23 14:40:48.2     306    344    161    461    488  41.7  20.0  34320  292.29 0854.48
2009/04/23 14:40:48.3     343    210     48    403    406  58.5   6.8  34304  292.03 0854.48
2009/04/23 14:40:48.4     247    164    135    297    326  56.3  26.2  34336  292.55 0854.48
2009/04/23 14:40:48.5     174    182     69    252    262  43.7  15.3  34320  292.30 0854.48
2009/04/23 14:40:48.6     101    139    -49    173    179  36.1 -20.7  34308  292.08 0854.48
2009/04/23 14:40:48.7     188      9    135    189    232  87.0  39.3  34298  291.91 0854.48
2009/04/23 14:40:48.8     188    -17    116    189    221  95.2  34.8  34294  291.86 0854.46
2009/04/23 14:40:48.9     136    -56    138    148    202 112.6  48.0  34288  291.76 0854.46
2009/04/23 14:40:49.0     134    -44    103    142    175 108.2  39.3  34294  291.86 0854.46
2009/04/23 14:40:49.1     -46   -141    175    149    229 198.3  55.6  34282  291.66 0854.46
2009/04/23 14:40:49.2      -4   -112    146    113    184 182.2  58.5  34276  291.55 0854.46
2009/04/23 14:40:49.3      35   -176    177    180    252 168.7  49.9  34280  291.60 0854.46
2009/04/23 14:40:49.4     -38   -189    211    193    285 191.5  53.0  34288  291.73 0854.46
2009/04/23 14:40:49.5     -25   -166    186    168    250 188.7  53.3  34294  291.84 0854.46
2009/04/23 14:40:49.6     -67   -191    207    203    289 199.4  50.2  34290  291.77 0854.46
2009/04/23 14:40:49.7     -52   -139    196    149    246 200.5  59.0  34296  291.89 0854.46
2009/04/23 14:40:49.8     -67   -171    161    184    244 201.6  45.6  34298  291.93 0854.46
2009/04/23 14:40:49.9     -71    -60    127     94    158 229.6  60.0  34308  292.08 0854.46
2009/04/23 14:40:50.0     -69   -117    165    136    213 210.7  56.4  34322  292.34 0854.46
2009/04/23 14:40:50.1     -56   -161    108    171    202 199.2  35.5  34316  292.22 0854.46
2009/04/23 14:40:50.2    -124   -147    121    193    227 220.1  35.5  34328  292.44 0854.46
2009/04/23 14:40:50.3    -182   -239     42    301    305 217.2   8.0  34296  291.87 0854.46
2009/04/23 14:40:50.4    -121   -278     61    304    311 203.6  11.4  34290  291.78 0854.46
2009/04/23 14:40:50.5     -96   -308     91    323    336 197.3  15.8  34274  291.52 0854.46
2009/04/23 14:40:50.6    -138   -252    -14    288    289 208.7  -2.8  34318  292.24 0854.46
2009/04/23 14:40:50.7    -207   -234    -40    313    316 221.4  -7.3  34376  293.23 0854.46
2009/04/23 14:40:50.8    -187   -254    -12    316    317 216.3  -2.2  34390  293.47 0854.42
2009/04/23 14:40:50.9    -308   -152     32    344    346 243.6   5.5  34416  293.94 0854.42
2009/04/23 14:40:51.0    -356   -174     31    397    399 243.9   4.6  34374  293.21 0854.42
2009/04/23 14:40:51.1    -268   -213      2    343    344 231.5   0.4  34346  292.75 0854.42
2009/04/23 14:40:51.2    -236   -347     61    420    425 214.3   8.3  34298  291.91 0854.42
2009/04/23 14:40:51.3    -197   -337     32    391    393 210.3   4.7  34272  291.49 0854.42
2009/04/23 14:40:51.4    -141   -298    120    330    351 205.3  20.9  34302  292.00 0854.42
2009/04/23 14:40:51.5    -134   -290     99    320    336 204.8  17.3  34302  291.98 0854.42
2009/04/23 14:40:51.6    -119   -358      0    378    379 198.4   0.0  34280  291.61 0854.42
2009/04/23 14:40:51.7    -105   -316     31    334    336 198.5   5.4  34284  291.68 0854.42
2009/04/23 14:40:51.8    -107   -296    110    315    333 200.0  20.0  34304  292.01 0854.42
2009/04/23 14:40:51.9    -135   -344     72    370    378 201.5  11.1  34280  291.62 0854.42
2009/04/23 14:40:52.0     -67   -394     81    400    409 189.8  11.5  34276  291.55 0854.42
2009/04/23 14:40:52.1     -68   -337     96    344    358 191.5  15.7  34278  291.59 0854.42
2009/04/23 14:40:52.2     -49   -348    123    352    373 188.1  19.3  34282  291.64 0854.42
2009/04/23 14:40:52.3     -53   -301    106    306    325 190.0  19.2  34282  291.65 0854.42
2009/04/23 14:40:52.4    -115   -344     63    363    369 198.6   9.9  34278  291.57 0854.42
2009/04/23 14:40:52.5     -82   -358     34    368    370 192.9   5.4  34278  291.57 0854.42
2009/04/23 14:40:52.6    -104   -333     -5    350    351 197.4  -0.9  34276  291.54 0854.42
2009/04/23 14:40:52.7     -63   -311     71    318    326 191.6  12.6  34282  291.65 0854.42
2009/04/23 14:40:52.8     -42   -284    127    288    314 188.5  25.3  34288  291.73 0854.43
2009/04/23 14:40:52.9     -38   -273    155    276    316 188.0  31.9  34292  291.80 0854.43
2009/04/23 14:40:53.0     -77   -254    101    266    284 196.9  21.7  34290  291.77 0854.43
2009/04/23 14:40:53.1       8   -219    119    220    250 177.8  30.6  34298  291.92 0854.43
2009/04/23 14:40:53.2      92   -186    212    208    296 153.5  50.4  34316  292.21 0854.43
2009/04/23 14:40:53.3     -28   -182    239    185    302 188.7  58.5  34320  292.28 0854.43
2009/04/23 14:40:53.4     -24   -149    200    152    251 189.3  59.2  34324  292.37 0854.43
2009/04/23 14:40:53.5    -101   -183    207    210    294 209.0  49.9  34306  292.06 0854.43
2009/04/23 14:40:53.6    -202   -248     35    321    324 219.2   6.4  34302  291.97 0854.43
2009/04/23 14:40:53.7    -139   -261    173    296    342 208.1  33.0  34320  292.28 0854.43
2009/04/23 14:40:53.8     -91   -260    134    276    306 199.4  27.4  34322  292.31 0854.43
2009/04/23 14:40:53.9    -167   -378    175    414    449 203.8  24.2  34292  291.80 0854.43
2009/04/23 14:40:54.0    -204   -295     78    359    368 214.7  12.3  34280  291.61 0854.43
2009/04/23 14:40:54.1    -186   -233     80    299    310 218.5  15.0  34280  291.61 0854.43
2009/04/23 14:40:54.2     -93   -213    131    233    267 203.7  31.9  34278  291.56 0854.43
2009/04/23 14:40:54.3    -187   -267    143    327    356 215.0  25.1  34282  291.66 0854.43
2009/04/23 14:40:54.4    -219   -193    102    293    311 228.6  19.3  34288  291.73 0854.43
2009/04/23 14:40:54.5    -214   -254     52    333    338 220.2   8.9  34280  291.62 0854.43
2009/04/23 14:40:54.6    -163   -202     51    260    266 219.0  11.1  34276  291.53 0854.43
2009/04/23 14:40:54.7     -88   -171     79    193    208 207.4  23.4  34256  291.20 0854.43
2009/04/23 14:40:54.8     -60   -178     16    188    189 198.7   4.9  34262  291.32 0854.45
2009/04/23 14:40:54.9     -79   -208    -21    223    225 200.9  -5.6  34258  291.23 0854.45
2009/04/23 14:40:55.0       8   -132     80    133    155 176.4  34.4  34268  291.40 0854.45
2009/04/23 14:40:55.1     -57   -164     83    174    192 199.4  27.2  34266  291.37 0854.45
2009/04/23 14:40:55.2     -12   -133     63    134    148 185.3  27.1  34268  291.40 0854.45
2009/04/23 14:40:55.3    -253   -207    109    328    346 230.7  18.4  34288  291.74 0854.45
2009/04/23 14:40:55.4    -138   -210    133    252    284 213.4  29.8  34276  291.53 0854.45
2009/04/23 14:40:55.5    -355    -52    140    359    385 261.6  22.4  34336  292.56 0854.45
2009/04/23 14:40:55.6    -268    -49     23    273    275 259.6   4.9  34328  292.43 0854.45
2009/04/23 14:40:55.7    -135   -134     -7    191    192 225.3  -2.1  34284  291.69 0854.45
2009/04/23 14:40:55.8     118   -295    -22    318    319 158.2  -4.0  34274  291.51 0854.45
2009/04/23 14:40:55.9     110   -216    -44    243    247 153.0 -10.3  34272  291.48 0854.45
2009/04/23 14:40:56.0     -18   -294     96    295    311 183.6  18.0  34262  291.29 0854.45
2009/04/23 14:40:56.1    -131   -330     72    356    364 201.7  11.6  34268  291.40 0854.45
2009/04/23 14:40:56.2      26   -257    209    259    332 174.0  43.1  34274  291.51 0854.45
2009/04/23 14:40:56.3      37   -408    173    410    445 174.8  24.2  34268  291.41 0854.45
2009/04/23 14:40:56.4     -26   -401    257    402    477 183.7  35.6  34282  291.63 0854.45
2009/04/23 14:40:56.5    -109   -334    263    352    439 198.1  40.6  34276  291.53 0854.45
2009/04/23 14:40:56.6     -10   -331    246    332    413 181.9  40.2  34266  291.37 0854.45
2009/04/23 14:40:56.7      53   -262    225    268    349 168.4  44.2  34268  291.39 0854.45
2009/04/23 14:40:56.8      47   -279    176    284    334 170.3  34.9  34288  291.73 0854.48
2009/04/23 14:40:56.9      22   -319    174    320    364 176.0  31.0  34290  291.78 0854.48
2009/04/23 14:40:57.0      47   -250    227    255    341 169.3  46.3  34298  291.92 0854.48
2009/04/23 14:40:57.1      54    -29    140     62    153 118.0  74.9  34300  291.95 0854.48
2009/04/23 14:40:57.2     -61     96    114    115    161 327.5  50.0  34298  291.91 0854.48
2009/04/23 14:40:57.3     -22     22    211     32    213 314.9  90.0  34308  292.10 0854.48
2009/04/23 14:40:57.4       7    -95    189     96    211 175.5  71.1  34302  291.98 0854.48
2009/04/23 14:40:57.5    -220   -350    273    414    495 212.1  36.5  34286  291.70 0854.48
2009/04/23 14:40:57.6    -231   -230    135    327    353 225.1  23.7  34268  291.40 0854.48
2009/04/23 14:40:57.7    -227   -181    150    291    327 231.4  29.4  34272  291.48 0854.48
2009/04/23 14:40:57.8    -213   -313    254    380    457 214.3  36.9  34280  291.62 0854.48
2009/04/23 14:40:57.9    -277   -391    169    480    509 215.3  19.4  34308  292.07 0854.48
2009/04/23 14:40:58.0    -355   -386     93    525    534 222.6  10.1  34328  292.42 0854.48
2009/04/23 14:40:58.1    -519   -230     16    568    569 246.1   1.7  34308  292.07 0854.48
2009/04/23 14:40:58.2    -404   -192    169    448    478 244.6  21.5  34326  292.39 0854.48
2009/04/23 14:40:58.3    -218   -304    291    375    474 215.6  41.7  34286  291.72 0854.48
2009/04/23 14:40:58.4    -321   -505     55    599    602 212.5   5.3  34254  291.17 0854.48
2009/04/23 14:40:58.5    -252   -414     45    485    488 211.3   5.3  34256  291.20 0854.48
2009/04/23 14:40:58.6    -127   -302    193    328    380 202.8  33.3  34270  291.45 0854.48
2009/04/23 14:40:58.7    -166   -348    204    386    436 205.6  30.2  34264  291.35 0854.48
2009/04/23 14:40:58.8    -166   -334    223    374    435 206.5  33.5  34264  291.35 0854.49
2009/04/23 14:40:58.9    -211   -410    170    462    492 207.2  21.3  34268  291.41 0854.49
2009/04/23 14:40:59.0    -248   -532    220    587    626 205.0  21.6  34242  290.96 0854.49
2009/04/23 14:40:59.1    -235   -490    134    544    561 205.7  13.9  34240  290.94 0854.49
2009/04/23 14:40:59.2    -229   -504    232    554    600 204.5  24.2  34238  290.90 0854.49
2009/04/23 14:40:59.3    -181   -322    231    370    436 209.4  35.0  34250  291.11 0854.49
2009/04/23 14:40:59.4     -87   -218    111    235    259 201.9  27.1  34260  291.27 0854.49
2009/04/23 14:40:59.5       6   -245     13    246    247 178.4   3.1  34252  291.14 0854.49
2009/04/23 14:40:59.6    -179   -336    -10    381    382 208.1  -1.6  34244  291.00 0854.49
2009/04/23 14:40:59.7    -213   -348     25    409    410 211.5   3.5  34244  290.99 0854.49
2009/04/23 14:40:59.8    -223   -270   -107    351    368 219.6 -16.9  34244  291.00 0854.49
2009/04/23 14:40:59.9    -276   -224    -98    356    370 230.9 -15.5  34232  290.81 0854.49
2009/04/23 14:41:00.0    -234   -193    -54    304    309 230.4 -10.1  34228  290.73 0854.49
2009/04/23 14:41:00.1    -204   -174    -89    269    283 229.6 -23.8  34222  290.61 0854.49
2009/04/23 14:41:00.2    -270   -132    -91    301    314 243.8 -21.7  34220  290.58 0854.49
2009/04/23 14:41:00.3    -283     66    -81    291    302 283.2 -20.2  34230  290.75 0854.49
2009/04/23 14:41:00.4    -204    -74     48    218    224 250.1  12.4  34236  290.87 0854.49
2009/04/23 14:41:00.5      19   -232    198    233    305 175.3  44.5  34242  290.97 0854.49
2009/04/23 14:41:00.6      51   -273    126    278    305 169.3  26.2  34244  291.00 0854.49
2009/04/23 14:41:00.7     164   -348     36    385    387 154.8   5.5  34238  290.89 0854.49
2009/04/23 14:41:00.8      58   -353    129    358    381 170.6  19.9  34242  290.98 0854.52
2009/04/23 14:41:00.9     172   -319    197    363    413 151.7  30.9  34226  290.69 0854.52
2009/04/23 14:41:01.0      95   -362    194    375    422 165.3  29.4  34232  290.80 0854.52
2009/04/23 14:41:01.1    -104   -521     76    532    538 191.4   8.2  34238  290.89 0854.52
2009/04/23 14:41:01.2    -108   -541     97    552    561 191.3  10.0  34234  290.82 0854.52
2009/04/23 14:41:01.3    -207   -583     80    619    625 199.6   7.4  34226  290.69 0854.52
2009/04/23 14:41:01.4    -323   -542     19    631    632 210.8   1.8  34234  290.84 0854.52
2009/04/23 14:41:01.5    -301   -543    -55    622    625 209.0  -5.1  34236  290.86 0854.52
2009/04/23 14:41:01.6    -373   -351    -46    513    516 226.8  -5.2  34256  291.19 0854.52
2009/04/23 14:41:01.7    -447   -405     -6    604    605 227.8  -0.6  34240  290.93 0854.52
2009/04/23 14:41:01.8    -459   -319   -112    560    572 235.2 -11.3  34208  290.40 0854.52
2009/04/23 14:41:01.9    -522   -101    155    532    555 259.0  16.3  34202  290.30 0854.52
2009/04/23 14:41:02.0    -281   -234    274    367    458 230.2  40.6  34222  290.63 0854.52
2009/04/23 14:41:02.1     -97   -407    284    419    506 193.5  37.3  34228  290.71 0854.52
2009/04/23 14:41:02.2     -45   -385    312    388    497 186.7  43.1  34242  290.98 0854.52
2009/04/23 14:41:02.3    -125   -361    192    383    428 199.2  28.5  34224  290.67 0854.52
2009/04/23 14:41:02.4     283   -180     98    336    351 122.5  16.3  34232  290.79 0854.52
2009/04/23 14:41:02.5     306      1    222    307    378  89.6  39.5  34236  290.86 0854.52
2009/04/23 14:41:02.6      74   -150    184    168    249 153.7  53.2  34238  290.89 0854.52
2009/04/23 14:41:02.7     -67   -287    283    295    408 193.3  48.8  34224  290.66 0854.52
2009/04/23 14:41:02.8    -199   -360    228    412    470 208.9  31.4  34216  290.51 0854.51
2009/04/23 14:41:02.9    -238   -327    120    405    423 216.1  16.5  34222  290.63 0854.51
2009/04/23 14:41:03.0     -57   -263     63    270    278 192.4  13.2  34236  290.85 0854.51
2009/04/23 14:41:03.1      32    -44    164     55    172 143.9  81.0  34254  291.16 0854.51
2009/04/23 14:41:03.2     -66     -5    101     67    121 265.6  63.2  34260  291.28 0854.51
2009/04/23 14:41:03.3      -5    -33    148     34    151 189.8  87.5  34264  291.33 0854.51
2009/04/23 14:41:03.4     114     67    140    133    193  59.4  51.6  34260  291.28 0854.51
2009/04/23 14:41:03.5     -14     75    180     77    195 349.3  75.5  34274  291.50 0854.51
2009/04/23 14:41:03.6    -324     68    135    332    358 281.9  23.2  34262  291.32 0854.51
2009/04/23 14:41:03.7    -269    -16     84    270    283 266.6  17.3  34282  291.63 0854.51
2009/04/23 14:41:03.8    -341    -41     42    344    347 263.1   7.1  34302  291.98 0854.51
2009/04/23 14:41:03.9    -269     37     77    272    283 277.9  15.8  34298  291.92 0854.51
2009/04/23 14:41:04.0    -246   -156    169    292    337 237.5  32.7  34278  291.58 0854.51
2009/04/23 14:41:04.1    -238    -48     85    243    258 258.6  19.4  34276  291.55 0854.51
2009/04/23 14:41:04.2     -50     77    136     92    164 327.0  62.8  34258  291.25 0854.51
2009/04/23 14:41:04.3     -82    -79    196    115    227 226.0  66.8  34256  291.21 0854.51
2009/04/23 14:41:04.4    -184   -290    246    344    422 212.5  39.2  34228  290.74 0854.51
2009/04/23 14:41:04.5    -221   -391    220    450    500 209.4  27.9  34252  291.15 0854.51
2009/04/23 14:41:04.6    -252   -304    153    395    423 219.6  22.3  34286  291.72 0854.51
2009/04/23 14:41:04.7    -188   -131    234    230    328 235.1  50.4  34294  291.85 0854.51
2009/04/23 14:41:04.8    -416    -58    264    421    496 262.0  35.2  34294  291.85 0854.50
2009/04/23 14:41:04.9    -394   -220    237    452    510 240.8  29.8  34304  292.02 0854.50
2009/04/23 14:41:05.0    -227   -203    209    305    369 228.2  37.6  34308  292.07 0854.50
2009/04/23 14:41:05.1    -112   -241    283    266    388 204.9  52.1  34242  290.96 0854.50
2009/04/23 14:41:05.2     -55   -283    180    289    340 191.1  35.1  34234  290.83 0854.50
2009/04/23 14:41:05.3    -110   -541    128    553    568 191.6  13.1  34210  290.43 0854.50
2009/04/23 14:41:05.4    -285   -322     33    431    433 221.5   4.5  34230  290.75 0854.50
2009/04/23 14:41:05.5      67   -668     34    672    673 174.2   2.9  34212  290.44 0854.50
2009/04/23 14:41:05.6     -34   -507    143    509    529 183.9  15.8  34196  290.19 0854.50
2009/04/23 14:41:05.7     -54   -463    186    467    502 186.7  23.0  34212  290.45 0854.50
2009/04/23 14:41:05.8    -188   -516    160    550    573 200.1  16.3  34202  290.30 0854.51
2009/04/23 14:41:05.9    -212   -585     96    623    631 200.0   8.8  34198  290.21 0854.51
2009/04/23 14:41:06.0     -50   -613    186    616    644 184.7  16.8  34198  290.21 0854.51
2009/04/23 14:41:06.1     -85   -559    236    566    613 188.7  24.1  34186  290.02 0854.51
2009/04/23 14:41:06.2    -208   -518    250    559    612 201.9  25.7  34200  290.24 0854.51
2009/04/23 14:41:06.3     -19   -538    246    539    592 182.1  26.2  34196  290.19 0854.51
2009/04/23 14:41:06.4      85   -641     80    647    653 172.4   7.1  34204  290.32 0854.51
2009/04/23 14:41:06.5    -205   -674    -15    705    706 197.0  -1.3  34214  290.50 0854.51
2009/04/23 14:41:06.6     -59   -593    124    596    609 185.7  11.8  34204  290.31 0854.51
2009/04/23 14:41:06.7    -135   -325     97    352    366 202.6  15.4  34202  290.27 0854.51
2009/04/23 14:41:06.8     -97   -416    199    428    472 193.1  26.6  34210  290.41 0854.51
2009/04/23 14:41:06.9     -49   -382    341    386    515 187.3  45.9  34196  290.17 0854.51
2009/04/23 14:41:07.0       5   -304    363    305    474 179.0  55.8  34204  290.33 0854.51
2009/04/23 14:41:07.1    -314   -495     40    587    589 212.4   3.9  34198  290.22 0854.51
2009/04/23 14:41:07.2    -183   -901     91    920    925 191.5   5.7  34200  290.24 0854.51
2009/04/23 14:41:07.3    -281   -819     66    867    870 199.0   4.4  34204  290.33 0854.51
2009/04/23 14:41:07.4     -47   -690    207    692    723 183.9  16.7  34188  290.06 0854.51
2009/04/23 14:41:07.5       8   -546    296    547    621 179.1  30.8  34182  289.93 0854.51
2009/04/23 14:41:07.6     -42   -553    201    555    591 184.4  19.9  34194  290.15 0854.51
2009/04/23 14:41:07.7      76   -677    154    682    700 173.5  12.8  34200  290.26 0854.51
2009/04/23 14:41:07.8     -65   -957   -207    960    983 183.9 -12.2  34188  290.06 0854.48
2009/04/23 14:41:07.9    -371   -736   -154    825    840 206.7 -10.6  34208  290.38 0854.48
2009/04/23 14:41:08.0    -159   -635   -211    655    688 194.1 -23.0  34214  290.49 0854.48
2009/04/23 14:41:08.1      53   -491   -176    494    525 173.8 -19.7  34206  290.35 0854.48
2009/04/23 14:41:08.2      71   -841   -171    845    862 175.1 -11.5  34210  290.41 0854.48
2009/04/23 14:41:08.3     163   -908     98    923    929 169.8   6.1  34202  290.28 0854.48
2009/04/23 14:41:08.4     256   -873    133    910    920 163.6   8.3  34186  290.02 0854.48
2009/04/23 14:41:08.5     -77   -828    355    832    904 185.3  24.5  34172  289.76 0854.48
2009/04/23 14:41:08.6      45   -702    463    704    842 176.3  36.5  34182  289.93 0854.48
2009/04/23 14:41:08.7     230   -728    448    764    885 162.4  33.1  34182  289.95 0854.48
2009/04/23 14:41:08.8     214   -793    276    822    868 164.9  18.6  34174  289.80 0854.48
2009/04/23 14:41:08.9     283   -740    347    793    865 159.1  25.2  34184  289.98 0854.48
2009/04/23 14:41:09.0      10   -811    357    812    887 179.3  25.2  34174  289.80 0854.48
2009/04/23 14:41:09.1      49   -607    393    610    725 175.3  35.8  34166  289.68 0854.48
2009/04/23 14:41:09.2      -7   -923    537    924   1068 180.5  32.8  34172  289.79 0854.48
2009/04/23 14:41:09.3    -250   -932    420    965   1052 195.1  25.1  34168  289.71 0854.48
2009/04/23 14:41:09.4    -296   -857    297    907    955 199.1  18.1  34162  289.62 0854.48
2009/04/23 14:41:09.5    -330   -988    -40   1042   1043 198.5  -2.2  34150  289.41 0854.48
2009/04/23 14:41:09.6     -70   -863    462    867    982 184.7  30.3  34158  289.54 0854.48
2009/04/23 14:41:09.7     131   -937    330    947   1002 172.0  20.0  34164  289.63 0854.48
2009/04/23 14:41:09.8    -239   -713    282    753    804 198.6  21.6  34176  289.83 0854.44
2009/04/23 14:41:09.9     172  -1073    226   1087   1111 170.9  11.8  34158  289.53 0854.44
2009/04/23 14:41:10.0     -72   -927    204    931    954 184.5  12.4  34172  289.76 0854.44
2009/04/23 14:41:10.1      73   -805    105    809    816 174.8   7.4  34168  289.72 0854.44
2009/04/23 14:41:10.2      34   -583    -55    585    588 176.6  -5.5  34184  289.98 0854.44
2009/04/23 14:41:10.3     250   -433    -76    501    507 150.0  -8.7  34182  289.93 0854.44
2009/04/23 14:41:10.4     491   -600     15    776    777 140.7   1.1  34156  289.52 0854.44
2009/04/23 14:41:10.5     185   -477     80    512    519 158.7   8.9  34182  289.93 0854.44
2009/04/23 14:41:10.6     359   -656     57    748    750 151.3   4.4  34170  289.75 0854.44
2009/04/23 14:41:10.7     377   -621    165    727    746 148.7  12.8  34170  289.73 0854.44
2009/04/23 14:41:10.8     488   -428    258    650    699 131.3  22.9  34174  289.82 0854.44
2009/04/23 14:41:10.9     376   -525    337    646    728 144.4  29.8  34170  289.74 0854.44
2009/04/23 14:41:11.0     188   -616    377    645    747 163.0  33.0  34180  289.91 0854.44
2009/04/23 14:41:11.1    -168   -583    456    607    759 196.1  40.6  34186  290.01 0854.44
2009/04/23 14:41:11.2     -79   -334    428    344    549 193.4  57.3  34178  289.88 0854.44
2009/04/23 14:41:11.3     -71    -69    407    100    419 225.6  86.3  34194  290.16 0854.44
2009/04/23 14:41:11.4     -24   -133    386    136    409 190.2  80.0  34200  290.25 0854.44
2009/04/23 14:41:11.5     -84   -236    247    251    352 199.8  49.7  34164  289.63 0854.44
2009/04/23 14:41:11.6    -155   -218    239    268    359 215.4  46.3  34168  289.72 0854.44
2009/04/23 14:41:11.7    -123   -361    211    382    436 198.8  31.4  34174  289.82 0854.44
2009/04/23 14:41:11.8    -222   -276    265    355    443 218.7  40.6  34164  289.65 0854.40
2009/04/23 14:41:11.9     -61    -75    153     97    181 219.2  64.7  34176  289.84 0854.40
2009/04/23 14:41:12.0    -176   -497    247    528    582 199.5  27.1  34172  289.79 0854.40
2009/04/23 14:41:12.1    -164   -523    267    549    610 197.4  27.8  34162  289.59 0854.40
2009/04/23 14:41:12.2    -204   -448    245    493    550 204.5  28.4  34168  289.70 0854.40
2009/04/23 14:41:12.3    -200   -311    205    371    423 212.8  31.4  34164  289.63 0854.40
2009/04/23 14:41:12.4     -71   -216    209    228    309 198.3  47.7  34190  290.07 0854.40
2009/04/23 14:41:12.5     345   -203    269    401    482 120.5  37.0  34188  290.05 0854.40
2009/04/23 14:41:12.6     172   -172    187    244    307 134.9  41.6  34188  290.03 0854.40
2009/04/23 14:41:12.7     -77   -453    233    460    515 189.7  29.1  34178  289.88 0854.40
2009/04/23 14:41:12.8      16   -324    360    325    485 177.1  53.4  34180  289.90 0854.40
2009/04/23 14:41:12.9     260   -311    320    406    516 140.1  42.2  34176  289.84 0854.40
2009/04/23 14:41:13.0     190   -522    446    556    712 160.0  42.8  34198  290.21 0854.40
2009/04/23 14:41:13.1      85   -649    -25    655    656 172.5  -2.2  34170  289.74 0854.40
2009/04/23 14:41:13.2     169   -627    123    650    662 164.9  10.7  34166  289.68 0854.40
2009/04/23 14:41:13.3     181   -479     38    513    515 159.3   4.3  34154  289.47 0854.40
2009/04/23 14:41:13.4      28   -378    204    379    430 175.6  30.6  34168  289.72 0854.40
2009/04/23 14:41:13.5    -409   -337     74    530    536 230.5   8.0  34184  289.97 0854.40
2009/04/23 14:41:13.6    -122   -375    189    395    437 198.1  27.3  34180  289.90 0854.40
2009/04/23 14:41:13.7     -16   -265    209    266    338 183.5  42.2  34190  290.09 0854.40
2009/04/23 14:41:13.8      -9   -178    182    179    255 182.9  50.4  34192  290.12 0854.36
2009/04/23 14:41:14.0      33    -11    180     35    183 108.6  89.8  34216  290.52 0854.36
2009/04/23 14:41:14.1     -92   -129    248    159    294 215.6  64.6  34194  290.15 0854.36
2009/04/23 14:41:14.2     -85   -134    134    160    208 212.5  44.1  34186  290.02 0854.36
2009/04/23 14:41:14.3     -77   -240    159    253    298 197.8  35.5  34184  289.98 0854.36
2009/04/23 14:41:14.4    -341   -232     90    413    423 235.8  12.4  34182  289.94 0854.36
2009/04/23 14:41:14.5    -226   -298    175    375    413 217.2  27.0  34182  289.94 0854.36
2009/04/23 14:41:14.6    -173   -283    312    332    455 211.4  48.0  34194  290.14 0854.36
2009/04/23 14:41:14.7      15   -713    262    714    760 178.8  21.0  34176  289.85 0854.36
2009/04/23 14:41:14.8      17   -487    272    488    558 177.9  31.5  34188  290.04 0854.36
2009/04/23 14:41:14.9     100   -580    398    589    710 170.2  37.3  34186  290.02 0854.36
2009/04/23 14:41:15.0     228   -532    306    579    654 156.8  30.1  34188  290.06 0854.36
2009/04/23 14:41:15.1     251   -628    277    677    731 158.2  23.5  34182  289.94 0854.36
2009/04/23 14:41:15.2     359   -697    184    785    807 152.7  13.2  34172  289.76 0854.36
2009/04/23 14:41:15.3    -282   -445     39    527    529 212.4   4.3  34178  289.89 0854.36
2009/04/23 14:41:15.4     -55   -343    341    348    487 189.1  49.4  34184  289.99 0854.36
2009/04/23 14:41:15.5     460   -541    262    711    757 139.6  21.0  34176  289.84 0854.36
2009/04/23 14:41:15.6     428   -610    285    746    798 144.9  22.0  34174  289.81 0854.36
2009/04/23 14:41:15.7     201   -383    262    433    506 152.3  34.0  34182  289.96 0854.36
2009/04/23 14:41:15.8     268   -407    215    488    533 146.6  25.2  34184  289.98 0854.36
2009/04/23 14:41:15.9      85   -380    246    390    461 167.3  35.5  34178  289.88 0854.37
2009/04/23 14:41:16.0      23   -300    274    301    407 175.5  47.0  34188  290.03 0854.37
2009/04/23 14:41:16.1      90   -414    277    424    506 167.6  36.0  34170  289.73 0854.37
2009/04/23 14:41:16.2     -17   -399    143    400    424 182.5  20.4  34172  289.78 0854.37
2009/04/23 14:41:16.3      -2   -299    120    300    323 180.5  23.0  34172  289.78 0854.37
2009/04/23 14:41:16.4      56   -204    108    212    237 164.6  29.2  34176  289.84 0854.37
2009/04/23 14:41:16.5     -50    -73    115     89    145 214.7  58.5  34178  289.89 0854.37
2009/04/23 14:41:16.6     -17   -167     85    168    188 186.0  28.7  34168  289.72 0854.37
2009/04/23 14:41:16.7     152   -139    221    207    302 132.4  52.1  34186  290.02 0854.37
2009/04/23 14:41:16.8     148   -275    123    313    336 151.7  22.8  34182  289.94 0854.37
2009/04/23 14:41:16.9      80   -502    148    509    531 170.9  16.3  34184  289.99 0854.37
2009/04/23 14:41:17.0    -226   -326    143    397    421 214.7  20.7  34176  289.85 0854.37
2009/04/23 14:41:17.1     586   -374    216    696    729 122.6  17.3  34188  290.03 0854.37
2009/04/23 14:41:17.2     314   -526    289    613    677 149.1  27.1  34166  289.66 0854.37
2009/04/23 14:41:17.3     172   -675    210    697    728 165.7  16.8  34188  290.03 0854.37
2009/04/23 14:41:17.4     371   -419    242    561    610 138.5  24.9  34186  290.02 0854.37
2009/04/23 14:41:17.5     307   -499    103    587    597 148.4  10.0  34184  289.98 0854.37
2009/04/23 14:41:17.6     335   -445    198    558    592 143.0  20.4  34184  289.97 0854.37
2009/04/23 14:41:17.7     168   -351    144    390    415 154.4  21.1  34188  290.04 0854.37
2009/04/23 14:41:17.8     293   -438    187    528    560 146.2  20.3  34168  289.70 0854.37
2009/04/23 14:41:17.9     260   -165    232    309    386 122.5  40.7  34176  289.84 0854.37
2009/04/23 14:41:18.0      64   -313    113    320    340 168.4  19.6  34178  289.89 0854.37
2009/04/23 14:41:18.1     -60   -238    -58    246    253 194.2 -13.4  34180  289.92 0854.37
2009/04/23 14:41:18.2     138   -462    162    483    510 163.3  18.6  34188  290.05 0854.37
2009/04/23 14:41:18.3     152   -517    301    539    617 163.6  31.5  34170  289.75 0854.37
2009/04/23 14:41:18.4     233   -451    371    508    629 152.6  39.8  34196  290.17 0854.37
2009/04/23 14:41:18.5     229   -374    203    439    483 148.5  26.6  34192  290.10 0854.37
2009/04/23 14:41:18.6     301   -354    383    465    602 139.6  43.7  34186  290.01 0854.37
2009/04/23 14:41:18.7     575   -417    325    711    781 126.0  26.3  34202  290.29 0854.37
2009/04/23 14:41:18.8     565   -496    177    752    773 131.3  13.3  34200  290.24 0854.37
2009/04/23 14:41:18.9     540   -540     23    764    765 135.0   1.8  34184  289.99 0854.37
2009/04/23 14:41:19.0     518   -495    167    717    737 133.7  13.1  34174  289.81 0854.37
2009/04/23 14:41:19.1     666   -624     51    913    915 133.1   3.2  34172  289.77 0854.37
2009/04/23 14:41:19.2     646   -408     21    765    766 122.3   1.6  34174  289.82 0854.37
2009/04/23 14:41:19.3     578   -536    195    789    813 132.8  13.9  34168  289.72 0854.37
2009/04/23 14:41:19.4     343   -520    160    624    645 146.6  14.4  34182  289.96 0854.37
2009/04/23 14:41:19.5     443   -696    119    826    835 147.5   8.2  34180  289.92 0854.37
2009/04/23 14:41:19.6     390   -789    241    881    914 153.7  15.3  34180  289.92 0854.37
2009/04/23 14:41:19.7     411   -577     47    709    711 144.5   3.8  34180  289.91 0854.37
2009/04/23 14:41:19.8     360   -698     99    786    793 152.7   7.2  34188  290.05 0854.37
2009/04/23 14:41:19.9     130   -841    240    851    885 171.2  15.8  34182  289.93 0854.36
2009/04/23 14:41:20.0     352   -647     77    737    742 151.4   6.0  34184  289.99 0854.36
2009/04/23 14:41:20.1     414   -828     47    926    928 153.4   2.9  34184  289.97 0854.36
2009/04/23 14:41:20.2     311   -586   -153    664    682 152.0 -13.0  34184  289.99 0854.36
2009/04/23 14:41:20.3     150   -399   -120    427    444 159.4 -15.8  34182  289.95 0854.36
2009/04/23 14:41:20.4     113   -775    214    784    813 171.7  15.3  34194  290.15 0854.36
2009/04/23 14:41:20.5     261   -965     36   1000   1001 164.9   2.1  34180  289.92 0854.36
2009/04/23 14:41:20.6     172   -894     37    911    912 169.1   2.3  34188  290.06 0854.36
2009/04/23 14:41:20.7     156   -913     71    927    930 170.3   4.4  34192  290.10 0854.36
2009/04/23 14:41:20.8      88   -884    316    889    944 174.3  19.6  34206  290.34 0854.36
2009/04/23 14:41:20.9     152   -959     64    972    975 171.0   3.8  34182  289.96 0854.36
2009/04/23 14:41:21.0     236   -980     21   1009   1010 166.4   1.2  34186  290.00 0854.36
2009/04/23 14:41:21.1     363   -896    -35    967    968 157.9  -2.1  34168  289.70 0854.36
2009/04/23 14:41:21.2     452   -885    110    994   1001 152.9   6.4  34182  289.93 0854.36
2009/04/23 14:41:21.3     326   -657     29    734    735 153.6   2.3  34174  289.80 0854.36
2009/04/23 14:41:21.4     339   -734    236    809    843 155.2  16.3  34180  289.92 0854.36
2009/04/23 14:41:21.5     408   -982    149   1064   1075 157.4   8.0  34184  289.98 0854.36
2009/04/23 14:41:21.6     123   -648     37    660    662 169.2   3.2  34178  289.87 0854.36
2009/04/23 14:41:21.7     138   -706    -93    720    726 168.9  -7.4  34172  289.79 0854.36
2009/04/23 14:41:21.8     263   -601     59    657    660 156.4   5.2  34188  290.04 0854.36
2009/04/23 14:41:21.9     294   -437    -71    527    532 146.1  -7.7  34186  290.01 0854.36
2009/04/23 14:41:22.0     495   -642    -26    811    812 142.4  -1.9  34194  290.16 0854.36
2009/04/23 14:41:22.1     474   -535    -74    716    720 138.5  -6.0  34196  290.18 0854.36
2009/04/23 14:41:22.2     348   -486    -23    598    599 144.4  -2.2  34196  290.19 0854.36
2009/04/23 14:41:22.3     290   -527   -173    602    627 151.1 -16.1  34204  290.32 0854.36
2009/04/23 14:41:22.4      -7   -436   -207    437    483 181.0 -31.6  34198  290.20 0854.36
2009/04/23 14:41:22.5     180   -461    -19    496    497 158.6  -2.2  34196  290.17 0854.36
2009/04/23 14:41:22.6      36   -464     13    466    467 175.5   1.6  34202  290.29 0854.36
2009/04/23 14:41:22.7     167   -710    -40    730    732 166.7  -3.2  34192  290.13 0854.36
2009/04/23 14:41:22.8      -3   -942    -44    943    945 180.2  -2.7  34190  290.07 0854.36
2009/04/23 14:41:22.9     227   -860    296    890    938 165.2  18.4  34178  289.89 0854.36
2009/04/23 14:41:23.0     276   -939    101    979    985 163.6   5.9  34172  289.77 0854.36
2009/04/23 14:41:23.1     286   -921    279    965   1005 162.7  16.1  34186  290.00 0854.36
2009/04/23 14:41:23.2     117   -928     83    936    940 172.8   5.1  34188  290.05 0854.36
2009/04/23 14:41:23.3     239   -915    230    946    974 165.3  13.7  34178  289.86 0854.36
2009/04/23 14:41:23.4     315   -948    128    999   1008 161.6   7.3  34174  289.81 0854.36
2009/04/23 14:41:23.5     324  -1002     93   1054   1059 162.1   5.1  34190  290.07 0854.36
2009/04/23 14:41:23.6      46   -850     33    852    853 176.9   2.2  34196  290.17 0854.36
2009/04/23 14:41:23.7     104   -841      0    848    849 172.9   0.0  34194  290.15 0854.36
2009/04/23 14:41:23.8     180   -858     44    877    879 168.1   2.9  34192  290.10 0854.36
2009/04/23 14:41:23.9     234   -911     11    941    942 165.6   0.7  34186  290.01 0854.41
2009/04/23 14:41:24.0     170   -716    -14    737    738 166.6  -1.2  34190  290.09 0854.41
2009/04/23 14:41:24.1       1   -972    203    973    995 179.9  11.8  34180  289.92 0854.41
2009/04/23 14:41:24.2      -5  -1117    124   1118   1125 180.3   6.4  34192  290.12 0854.41
2009/04/23 14:41:24.3     303  -1017     90   1062   1067 163.4   4.9  34186  290.01 0854.41
2009/04/23 14:41:24.4     255  -1050   -103   1081   1087 166.3  -5.5  34192  290.13 0854.41
2009/04/23 14:41:24.5      93   -916   -275    921    962 174.2 -16.6  34186  290.00 0854.41
2009/04/23 14:41:24.6     -24   -667   -338    668    748 182.1 -33.5  34206  290.34 0854.41
2009/04/23 14:41:24.7     -26   -655   -292    656    718 182.3 -30.1  34200  290.25 0854.41
2009/04/23 14:41:24.8    -242   -733   -303    772    829 198.3 -26.9  34210  290.43 0854.41
2009/04/23 14:41:24.9    -234   -702   -436    741    859 198.5 -37.5  34214  290.50 0854.41
2009/04/23 14:41:25.0    -336   -549   -428    644    773 211.5 -41.1  34198  290.20 0854.41
2009/04/23 14:41:25.1    -234   -366   -263    435    508 212.6 -38.4  34188  290.03 0854.41
2009/04/23 14:41:25.2    -213   -241    -28    322    324 221.5  -5.1  34190  290.09 0854.41
2009/04/23 14:41:25.3    -230   -297   -269    376    462 217.8 -43.7  34206  290.36 0854.41
2009/04/23 14:41:25.4     -24   -403   -272    404    487 183.5 -41.5  34202  290.28 0854.41
2009/04/23 14:41:25.5     108   -424   -252    438    505 165.7 -37.0  34206  290.35 0854.41
2009/04/23 14:41:25.6     227   -314   -127    388    408 144.1 -23.5  34198  290.20 0854.41
2009/04/23 14:41:25.7     237    -86    -74    253    263 110.0 -21.2  34206  290.34 0854.41
2009/04/23 14:41:25.8     145     95    164    174    239  56.7  48.5  34202  290.30 0854.41
2009/04/23 14:41:25.9     144     65    311    159    349  65.6  71.0  34212  290.44 0854.33
2009/04/23 14:41:26.0     -68   -237    351    247    429 196.0  61.5  34206  290.35 0854.33
2009/04/23 14:41:26.1     -80   -133    291    156    330 211.2  69.6  34206  290.34 0854.33
2009/04/23 14:41:26.2      40    -38    158     56    167 134.1  79.9  34212  290.45 0854.33
2009/04/23 14:41:26.3    -159   -331    301    368    475 205.7  43.4  34194  290.16 0854.33
2009/04/23 14:41:26.4    -297   -182    156    349    382 238.5  25.7  34198  290.20 0854.33
2009/04/23 14:41:26.5    -160   -213     91    267    283 217.0  18.9  34190  290.07 0854.33
2009/04/23 14:41:26.6     187   -204    260    277    379 137.5  48.0  34198  290.20 0854.33
2009/04/23 14:41:26.7     290   -414    364    506    623 144.9  39.3  34194  290.15 0854.33
2009/04/23 14:41:26.8     232   -496    462    548    716 155.0  44.4  34204  290.33 0854.33
2009/04/23 14:41:26.9     181   -560    369    589    695 162.1  35.1  34188  290.05 0854.33
2009/04/23 14:41:27.0      84   -450    323    458    560 169.4  38.6  34184  289.97 0854.33
2009/04/23 14:41:27.1     201   -603    436    636    771 161.5  37.7  34206  290.34 0854.33
2009/04/23 14:41:27.2     284   -312    312    423    525 137.7  40.1  34212  290.44 0854.33
2009/04/23 14:41:27.3     266   -544    117    606    618 153.9  11.0  34182  289.95 0854.33
2009/04/23 14:41:27.4     436   -521    228    680    718 140.1  18.6  34192  290.13 0854.33
2009/04/23 14:41:27.5     498   -419    131    651    665 130.1  11.4  34192  290.10 0854.33
2009/04/23 14:41:27.6     277   -371    175    464    495 143.3  21.6  34188  290.06 0854.33
2009/04/23 14:41:27.7     298   -798    118    853    862 159.5   7.9  34190  290.09 0854.33
2009/04/23 14:41:27.8     295   -672     56    735    737 156.3   4.4  34188  290.04 0854.33
2009/04/23 14:41:27.9     427   -627    -26    759    760 145.7  -2.0  34188  290.04 0854.21
2009/04/23 14:41:28.0     410   -594     11    722    723 145.4   0.9  34198  290.22 0854.21
2009/04/23 14:41:28.1     -76   -558    132    564    580 187.8  13.2  34192  290.10 0854.21
2009/04/23 14:41:28.2    -125   -775   -129    786    797 189.2  -9.3  34204  290.32 0854.21
2009/04/23 14:41:28.3    -266   -602   -136    659    674 203.8 -11.7  34206  290.34 0854.21
2009/04/23 14:41:28.4    -270   -489     17    559    560 208.9   1.8  34208  290.40 0854.21
2009/04/23 14:41:28.5    -190   -492   -164    528    553 201.2 -17.3  34214  290.50 0854.21
2009/04/23 14:41:28.6    -186   -497   -137    532    550 200.6 -14.5  34222  290.62 0854.21
2009/04/23 14:41:28.7    -316   -582   -209    663    696 208.5 -17.5  34200  290.26 0854.21
2009/04/23 14:41:28.8    -260   -559   -179    617    643 205.0 -16.2  34212  290.45 0854.21
2009/04/23 14:41:28.9    -138   -554   -117    571    584 194.0 -11.6  34212  290.47 0854.20
2009/04/23 14:41:29.0    -231   -417   -145    477    499 209.0 -17.0  34216  290.51 0854.20
2009/04/23 14:41:29.1    -156   -322     59    358    363 205.9   9.5  34210  290.43 0854.20
2009/04/23 14:41:29.2    -171   -483     -3    513    514 199.5  -0.4  34208  290.39 0854.20
2009/04/23 14:41:29.3    -292   -293    -16    415    416 224.9  -2.3  34206  290.34 0854.20
2009/04/23 14:41:29.4    -213   -390    -77    445    452 208.7  -9.9  34202  290.29 0854.20
2009/04/23 14:41:29.5     -68   -167     46    181    187 202.1  14.5  34194  290.14 0854.20
2009/04/23 14:41:29.6    -158   -100      3    188    189 237.6   1.0  34198  290.21 0854.20
2009/04/23 14:41:29.7     -81      8    -14     82     84 276.1 -10.3  34202  290.28 0854.20
2009/04/23 14:41:29.8      19   -184     24    186    188 174.0   7.5  34200  290.26 0854.20
2009/04/23 14:41:29.9     101   -138      5    172    173 143.7   1.8  34202  290.30 0854.20
2009/04/23 14:41:30.0     174   -322     -4    367    368 151.6  -0.7  34204  290.32 0854.20
2009/04/23 14:41:30.1     181   -304     11    354    355 149.3   1.8  34192  290.13 0854.20
2009/04/23 14:41:30.2     170   -325     -1    367    368 152.4  -0.2  34198  290.23 0854.20
2009/04/23 14:41:30.3      51   -314     55    319    324 170.7   9.9  34200  290.24 0854.20
2009/04/23 14:41:30.4     101   -457    -41    469    471 167.5  -5.1  34198  290.20 0854.20
2009/04/23 14:41:30.5     162   -393    -83    426    435 157.6 -11.1  34196  290.19 0854.20
2009/04/23 14:41:30.6      36   -354     27    356    358 174.1   4.5  34192  290.13 0854.20
2009/04/23 14:41:30.7     177   -524    -21    554    555 161.3  -2.2  34202  290.28 0854.20
2009/04/23 14:41:30.8     222   -588     55    629    632 159.3   5.1  34192  290.13 0854.20
2009/04/23 14:41:30.9     257   -520    117    581    593 153.7  11.4  34194  290.15 0854.23
2009/04/23 14:41:31.0     302   -278    288    411    501 132.6  38.5  34198  290.22 0854.23
2009/04/23 14:41:31.1     260   -453    263    523    585 150.1  28.7  34206  290.35 0854.23
2009/04/23 14:41:31.2     310   -534    167    618    641 149.9  15.2  34194  290.16 0854.23
2009/04/23 14:41:31.3     394   -318    228    507    555 128.9  26.0  34222  290.62 0854.23
2009/04/23 14:41:31.4     453   -321      8    556    557 125.3   0.9  34212  290.46 0854.23
2009/04/23 14:41:31.5     366   -278     66    460    465 127.2   8.2  34212  290.44 0854.23
2009/04/23 14:41:31.6     232   -114    123    259    286 116.2  27.2  34196  290.17 0854.23
2009/04/23 14:41:31.7     180    -26    189    182    262  98.4  51.2  34208  290.39 0854.23
2009/04/23 14:41:31.8       1    -65    147     66    161 179.0  74.5  34220  290.60 0854.23
2009/04/23 14:41:31.9    -138   -313    263    343    432 203.8  41.5  34204  290.33 0854.23
2009/04/23 14:41:32.0      59   -181    130    191    231 161.7  37.6  34192  290.13 0854.23
2009/04/23 14:41:32.1    -137   -364    197    390    436 200.7  29.1  34198  290.21 0854.23
2009/04/23 14:41:32.2    -181   -444    116    480    494 202.2  13.7  34202  290.30 0854.23
2009/04/23 14:41:32.3    -263   -333     -5    425    426 218.4  -0.7  34224  290.65 0854.23
2009/04/23 14:41:32.4     -44   -357    -23    360    361 187.1  -3.8  34222  290.62 0854.23
2009/04/23 14:41:32.5     100   -282    -80    300    311 160.4 -15.1  34204  290.31 0854.23
2009/04/23 14:41:32.6      88   -194    -67    214    225 155.5 -17.5  34214  290.48 0854.23
2009/04/23 14:41:32.7      40      0     61     41     73  90.0  63.6  34216  290.53 0854.23
2009/04/23 14:41:32.8     -66     63     59     92    109 314.0  35.6  34230  290.75 0854.23
2009/04/23 14:41:32.9    -256    198    -91    324    337 307.8 -15.8  34222  290.64 0854.27
2009/04/23 14:41:33.0    -346    -19   -171    347    386 266.8 -32.5  34222  290.62 0854.27
2009/04/23 14:41:33.1    -337   -100   -185    352    397 253.4 -34.4  34234  290.83 0854.27
2009/04/23 14:41:33.2    -221   -219    -90    312    324 225.2 -21.0  34226  290.70 0854.27
2009/04/23 14:41:33.3    -172   -222     73    281    291 217.8  14.7  34212  290.44 0854.27
2009/04/23 14:41:33.4    -275   -263     18    381    382 226.2   2.8  34208  290.40 0854.27
2009/04/23 14:41:33.5    -373   -297     -4    477    478 231.5  -0.6  34206  290.34 0854.27
2009/04/23 14:41:33.6    -433   -130   -121    453    469 253.3 -15.0  34202  290.29 0854.27
2009/04/23 14:41:33.7    -350   -156   -158    384    415 245.9 -28.1  34216  290.53 0854.27
2009/04/23 14:41:33.8    -461    114    -62    475    479 283.9  -7.5  34198  290.23 0854.27
2009/04/23 14:41:33.9    -421     10     13    422    423 271.4   1.9  34220  290.58 0854.27
2009/04/23 14:41:34.0    -348    -95     18    361    362 254.6   2.9  34228  290.74 0854.27
2009/04/23 14:41:34.1    -244    -53     96    250    267 257.7  22.1  34224  290.66 0854.27
2009/04/23 14:41:34.2     -73      1    117     74    138 270.8  64.7  34240  290.94 0854.27
2009/04/23 14:41:34.3     -59     42    140     73    157 306.0  70.6  34244  290.99 0854.27
2009/04/23 14:41:34.4     -44   -114    127    123    176 201.4  51.2  34242  290.98 0854.27
2009/04/23 14:41:34.5    -116   -123    143    170    222 223.2  44.3  34220  290.60 0854.27
2009/04/23 14:41:34.6      30    -54    162     62    173 151.0  78.4  34234  290.82 0854.27
2009/04/23 14:41:34.7    -101   -305    174    322    366 198.3  30.8  34208  290.37 0854.27
2009/04/23 14:41:34.8    -203   -329    152    387    415 211.7  22.7  34212  290.44 0854.27
2009/04/23 14:41:34.9    -173   -296    109    343    360 210.3  17.7  34208  290.40 0854.29
2009/04/23 14:41:35.0    -194   -289    121    349    370 213.8  19.2  34212  290.47 0854.29
2009/04/23 14:41:35.1     -65   -296     88    304    317 192.5  16.3  34216  290.51 0854.29
2009/04/23 14:41:35.2      59   -339     67    345    352 170.1  11.0  34212  290.47 0854.29
2009/04/23 14:41:35.3     205   -428     49    475    478 154.4   6.0  34212  290.44 0854.29
2009/04/23 14:41:35.4     239   -598     16    645    646 158.2   1.5  34214  290.48 0854.29
2009/04/23 14:41:35.5      23   -632    143    633    650 177.9  12.8  34218  290.55 0854.29
2009/04/23 14:41:35.6     298   -521    172    601    626 150.3  16.0  34218  290.55 0854.29
2009/04/23 14:41:35.7     327   -451     88    558    566 144.0   9.0  34206  290.35 0854.29
2009/04/23 14:41:35.8     332   -542     32    636    637 148.5   2.9  34218  290.57 0854.29
2009/04/23 14:41:35.9     251   -490     68    551    556 152.8   7.1  34208  290.40 0854.29
2009/04/23 14:41:36.0     274   -523     83    591    597 152.4   8.0  34210  290.42 0854.29
2009/04/23 14:41:36.1     245   -758    149    797    811 162.1  10.6  34202  290.30 0854.29
2009/04/23 14:41:36.2     197   -581    163    614    636 161.2  14.9  34204  290.33 0854.29
2009/04/23 14:41:36.3     249   -419    191    488    524 149.3  22.5  34208  290.39 0854.29
2009/04/23 14:41:36.4     287   -295    178    412    448 135.8  25.1  34218  290.55 0854.29
2009/04/23 14:41:36.5     136   -400    250    423    491 161.2  33.3  34222  290.62 0854.29
2009/04/23 14:41:36.6      38   -541     41    543    545 175.9   4.4  34222  290.62 0854.29
2009/04/23 14:41:36.7     -23   -446    -98    447    458 183.0 -12.4  34224  290.67 0854.29
2009/04/23 14:41:36.8     -43   -474      5    476    477 185.2   0.7  34216  290.51 0854.29
2009/04/23 14:41:36.9      37   -451     31    453    455 175.3   4.0  34216  290.51 0854.31
2009/04/23 14:41:37.0      23   -430    115    431    447 176.9  15.0  34210  290.43 0854.31
2009/04/23 14:41:37.1     -11   -482    151    483    507 181.4  17.4  34232  290.78 0854.31
2009/04/23 14:41:37.2     -17   -396    150    397    424 182.5  21.7  34238  290.90 0854.31
2009/04/23 14:41:37.3     -20   -394    153    395    423 183.0  22.3  34234  290.84 0854.31
2009/04/23 14:41:37.4      47   -534    146    537    557 174.9  15.3  34214  290.48 0854.31
2009/04/23 14:41:37.5     -19   -562     53    563    566 182.0   5.4  34214  290.50 0854.31
2009/04/23 14:41:37.6     -10   -538    -21    539    540 181.2  -2.2  34212  290.45 0854.31
2009/04/23 14:41:37.7      62   -513      1    517    518 173.0   0.2  34212  290.45 0854.31
2009/04/23 14:41:37.8     143   -419    -52    444    448 161.1  -6.7  34200  290.24 0854.31
2009/04/23 14:41:37.9     175   -370     25    410    411 154.7   3.6  34212  290.44 0854.31
2009/04/23 14:41:38.0     102   -382     31    396    398 165.0   4.5  34208  290.40 0854.31
2009/04/23 14:41:38.1     183   -360      5    404    405 153.0   0.7  34208  290.39 0854.31
2009/04/23 14:41:38.2     166   -250    132    301    328 146.4  25.2  34208  290.37 0854.31
2009/04/23 14:41:38.3     140   -193    128    239    271 143.9  30.6  34212  290.46 0854.31
2009/04/23 14:41:38.4     131   -182    128    225    258 144.4  32.1  34210  290.42 0854.31
2009/04/23 14:41:38.5     159   -205     76    260    271 142.2  16.3  34214  290.48 0854.31
2009/04/23 14:41:38.6      86   -291    122    304    327 163.5  23.0  34204  290.31 0854.31
2009/04/23 14:41:38.7      -9   -327    173    328    370 181.6  30.2  34214  290.49 0854.31
2009/04/23 14:41:38.8      57   -292    201    298    359 168.9  37.3  34220  290.59 0854.31
2009/04/23 14:41:38.9     -29   -392    107    394    409 184.3  15.3  34220  290.58 0854.35
2009/04/23 14:41:39.0      30   -397    144    399    424 175.7  20.7  34216  290.53 0854.35
2009/04/23 14:41:39.1      49   -402    142    406    431 173.0  19.3  34216  290.53 0854.35
2009/04/23 14:41:39.2      79   -462     71    469    475 170.3   8.7  34216  290.51 0854.35
2009/04/23 14:41:39.3     124   -322    153    346    378 159.0  25.3  34210  290.43 0854.35
2009/04/23 14:41:39.4     126   -299    172    325    367 157.1  30.1  34212  290.45 0854.35
2009/04/23 14:41:39.5     185   -290    106    345    362 147.5  17.2  34212  290.47 0854.35
2009/04/23 14:41:39.6     121   -414     -3    432    433 163.6  -0.5  34216  290.53 0854.35
2009/04/23 14:41:39.7     103   -343    -43    359    362 163.3  -6.9  34216  290.52 0854.35
2009/04/23 14:41:39.8      64   -328    -43    335    338 168.9  -7.5  34208  290.38 0854.35
2009/04/23 14:41:39.9     161   -259     53    306    311 148.1   9.9  34210  290.42 0854.35
2009/04/23 14:41:40.0      -5   -140    160    141    213 182.2  54.2  34210  290.43 0854.35
2009/04/23 14:41:40.1     178    -83    156    197    251 115.1  42.7  34222  290.63 0854.35
2009/04/23 14:41:40.2     127    -17    167    129    211  97.9  58.4  34226  290.70 0854.35
2009/04/23 14:41:40.3     172    -94    185    197    270 118.6  48.0  34234  290.83 0854.35
2009/04/23 14:41:40.4      38    144    173    150    228  15.1  54.8  34234  290.84 0854.35
2009/04/23 14:41:40.5      62    104    179    122    216  30.7  62.6  34236  290.86 0854.35
2009/04/23 14:41:40.6       6    156    164    157    227   2.2  51.6  34250  291.09 0854.35
2009/04/23 14:41:40.7      25     96    233    100    253  14.7  75.9  34244  290.99 0854.35
2009/04/23 14:41:40.8     -17    208     88    209    226 355.1  24.1  34240  290.92 0854.35
2009/04/23 14:41:40.9      92     31    230     98    250  71.4  75.5  34240  290.92 0854.36
2009/04/23 14:41:41.0     130    334     59    359    364  21.4   9.5  34248  291.06 0854.36
2009/04/23 14:41:41.1      95    362    118    375    394  14.8  17.5  34280  291.61 0854.36
2009/04/23 14:41:41.2     153    248     79    292    303  31.7  15.2  34250  291.10 0854.36
2009/04/23 14:41:41.3     174    132   -107    219    243  52.7 -32.6  34308  292.07 0854.36
2009/04/23 14:41:41.4     157    295     76    335    344  28.1  12.9  34338  292.61 0854.36
2009/04/23 14:41:41.5     194    289    -19    349    350  33.9  -3.2  34336  292.58 0854.36
2009/04/23 14:41:41.6     147    156     27    215    217  43.3   7.2  34314  292.20 0854.36
2009/04/23 14:41:41.8     222     52     75    229    242  76.7  18.1  34328  292.41 0854.36
2009/04/23 14:41:41.9     217     44     79    222    236  78.6  19.6  34274  291.52 0854.36
2009/04/23 14:41:42.0     220     47    100    226    247  77.8  25.3  34262  291.31 0854.36
2009/04/23 14:41:42.1     131     71    105    150    183  61.6  38.4  34304  292.01 0854.36
2009/04/23 14:41:42.2     232    122     17    263    264  62.2   3.8  34274  291.50 0854.36
2009/04/23 14:41:42.3     144     52     68    154    168  70.1  25.3  34280  291.62 0854.36
2009/04/23 14:41:42.4     141     31     74    145    162  77.6  29.1  34266  291.38 0854.36
2009/04/23 14:41:42.5      87     94    -67    129    145  42.8 -34.2  34310  292.13 0854.36
2009/04/23 14:41:42.6     132     48    -44    141    148  70.0 -17.6  34308  292.08 0854.36
2009/04/23 14:41:42.7     149    119     -3    191    192  51.4  -1.1  34312  292.15 0854.36
2009/04/23 14:41:42.8     179    108     32    210    213  58.9   8.8  34284  291.67 0854.36
2009/04/23 14:41:42.9     157    100     66    187    199  57.6  19.6  34254  291.16 0854.36
2009/04/23 14:41:43.0     138    112     31    178    181  50.9  10.1  34270  291.43 0854.37
2009/04/23 14:41:43.1     112    129     65    172    183  41.0  21.5  34320  292.30 0854.37
2009/04/23 14:41:43.2     206    170     97    268    286  50.4  19.9  34364  293.05 0854.37
2009/04/23 14:41:43.3     185    210     94    281    297  41.4  18.6  34368  293.10 0854.37
2009/04/23 14:41:43.4     131    246    108    280    300  28.1  22.1  34358  292.94 0854.37
2009/04/23 14:41:43.5     121    197    122    232    262  31.6  30.2  34362  292.99 0854.37
2009/04/23 14:41:43.6      73    181     50    196    203  22.1  14.5  34344  292.71 0854.37
2009/04/23 14:41:43.7      67    140     68    156    170  25.5  25.1  34338  292.61 0854.37
2009/04/23 14:41:43.8     115     79     53    140    149  55.4  21.0  34364  293.04 0854.37
2009/04/23 14:41:43.9     176     94      9    200    201  61.8   2.8  34366  293.07 0854.37
2009/04/23 14:41:44.0     127     58     11    140    141  65.2   4.9  34362  293.02 0854.37
2009/04/23 14:41:44.1      90    120      7    151    152  37.0   2.9  34358  292.93 0854.37
2009/04/23 14:41:44.2     116     87     -3    145    146  53.1  -1.3  34362  293.00 0854.37
2009/04/23 14:41:44.3     124     87     47    152    160  54.9  17.3  34358  292.93 0854.37
2009/04/23 14:41:44.4      85     98     46    130    137  41.0  20.4  34356  292.90 0854.37
2009/04/23 14:41:44.5      83     83     60    118    132  45.0  29.2  34360  292.97 0854.37
2009/04/23 14:41:44.6     102     32     79    108    133  72.3  39.7  34356  292.92 0854.37
2009/04/23 14:41:44.7      96     47    102    108    148  63.8  48.0  34354  292.86 0854.37
2009/04/23 14:41:44.8      25      2     86     26     89  83.9  82.3  34366  293.09 0854.37
2009/04/23 14:41:44.9       5     42     71     43     83   8.0  66.2  34370  293.14 0854.37
2009/04/23 14:41:45.0      -9     65     73     66     98 352.0  52.7  34364  293.04 0854.38
2009/04/23 14:41:45.1       7     97     89     98    132   4.5  47.5  34352  292.85 0854.38
2009/04/23 14:41:45.2     -32    158     24    162    164 348.4   8.5  34364  293.05 0854.38
2009/04/23 14:41:45.3     -60    222     71    231    242 344.8  17.3  34364  293.03 0854.38
2009/04/23 14:41:45.4     -48    280     65    285    293 350.2  12.9  34354  292.87 0854.38
2009/04/23 14:41:45.5     -27    249    128    251    281 353.7  29.2  34412  293.85 0854.38
2009/04/23 14:41:45.6     -17    224    124    225    256 355.6  31.4  34422  294.02 0854.38
2009/04/23 14:41:45.7      15    204     72    205    218   4.2  19.4  34382  293.34 0854.38
2009/04/23 14:41:45.8      12    241     24    242    244   2.9   5.7  34352  292.82 0854.38
2009/04/23 14:41:45.9      41    198     19    203    204  11.8   5.4  34352  292.85 0854.38
2009/04/23 14:41:46.0      -8    206     74    207    219 357.8  20.4  34364  293.04 0854.38
2009/04/23 14:41:46.1     -26    280      7    282    283 354.7   1.6  34334  292.52 0854.38
2009/04/23 14:41:46.2     -77    285     98    296    312 344.9  18.4  34384  293.39 0854.38
2009/04/23 14:41:46.3     -64    318    114    325    344 348.5  20.0  34356  292.92 0854.38
2009/04/23 14:41:46.4    -117    248     20    275    276 334.6   4.2  34278  291.56 0854.38
2009/04/23 14:41:46.5     -51    201     38    208    212 345.7  10.3  34348  292.78 0854.38
2009/04/23 14:41:46.6     -16    225     -6    226    227 355.8  -1.6  34352  292.83 0854.38
2009/04/23 14:41:46.7     -64    211    -19    221    222 343.1  -5.1  34348  292.78 0854.38
2009/04/23 14:41:46.8     -33    246    -11    249    250 352.2  -2.6  34350  292.81 0854.38
2009/04/23 14:41:46.9       5    199    -22    200    202   1.6  -6.5  34334  292.54 0854.38
2009/04/23 14:41:47.0     -16    227    -45    228    233 355.8 -11.3  34338  292.59 0854.37
2009/04/23 14:41:47.1      -2    235    -49    236    242 359.5 -11.9  34346  292.74 0854.37
2009/04/23 14:41:47.2       0    239     -1    240    241   0.2  -0.3  34336  292.57 0854.37
2009/04/23 14:41:47.3      49    256    -18    261    262  10.9  -4.1  34358  292.94 0854.37
2009/04/23 14:41:47.4       0    199     31    200    203   0.0   8.8  34374  293.22 0854.37
2009/04/23 14:41:47.5      37    158     59    163    173  13.3  20.4  34366  293.09 0854.37
2009/04/23 14:41:47.6     -57    166     74    176    190 340.8  24.1  34334  292.54 0854.37
2009/04/23 14:41:47.7      22    157     68    159    172   8.0  24.3  34348  292.78 0854.37
2009/04/23 14:41:47.8       2    132     50    133    142   0.9  21.0  34346  292.75 0854.37
2009/04/23 14:41:47.9      93    185     29    208    211  26.7   8.0  34328  292.44 0854.37
2009/04/23 14:41:48.0     -17    176    -37    177    181 354.4 -11.9  34308  292.10 0854.37
2009/04/23 14:41:48.1      42    125    -31    133    137  18.7 -13.4  34326  292.40 0854.37
2009/04/23 14:41:48.2     -57     66     30     88     94 319.0  19.2  34326  292.39 0854.37
2009/04/23 14:41:48.3     -53     53      3     76     77 315.0   2.8  34306  292.06 0854.37
2009/04/23 14:41:48.4     -46     34     -7     58     59 306.9  -7.3  34310  292.13 0854.37
2009/04/23 14:41:48.5     -24     44     -3     51     52 331.0  -4.1  34320  292.29 0854.37
2009/04/23 14:41:48.6     -14     64     18     66     69 347.5  15.3  34352  292.85 0854.37
2009/04/23 14:41:48.7      15     64     40     66     77  13.4  35.5  34386  293.43 0854.37
2009/04/23 14:41:48.8      19     53     47     57     73  20.0  43.8  34402  293.68 0854.37
2009/04/23 14:41:48.9       0     58     35     59     68   0.9  34.4  34398  293.63 0854.38
2009/04/23 14:41:49.0     -25     74     -7     79     80 341.3  -5.2  34390  293.48 0854.38
2009/04/23 14:41:49.1     -70     57    -28     91     95 309.5 -22.8  34376  293.26 0854.38
2009/04/23 14:41:49.2     -45     91    -17    102    104 333.3  -9.8  34370  293.14 0854.38
2009/04/23 14:41:49.3     -68    106     -4    127    128 327.4  -2.2  34348  292.78 0854.38
2009/04/23 14:41:49.4    -209    130    -39    247    251 301.8  -9.0  34284  291.68 0854.38
2009/04/23 14:41:49.5    -168     50   -185    176    255 286.6 -56.0  34262  291.30 0854.38
2009/04/23 14:41:49.6    -101    164    -53    193    201 328.4 -15.5  34320  292.29 0854.38
2009/04/23 14:41:49.7     -76     98   -107    125    164 322.2 -49.5  34276  291.54 0854.38
2009/04/23 14:41:49.8     -34     60     -3     70     71 330.1  -3.1  34302  292.00 0854.38
2009/04/23 14:41:49.9     -50     30    -23     59     63 300.7 -26.4  34288  291.76 0854.38
2009/04/23 14:41:50.0     -70    123     -9    142    143 330.1  -3.7  34270  291.43 0854.38
2009/04/23 14:41:50.1    -170    165     13    238    239 314.2   3.1  34274  291.50 0854.38
2009/04/23 14:41:50.2    -176    127   -110    218    244 305.9 -33.1  34282  291.65 0854.38
2009/04/23 14:41:50.3    -208     93   -116    229    256 294.2 -33.1  34276  291.53 0854.38
2009/04/23 14:41:50.4    -189    182    -85    263    277 313.8 -17.9  34274  291.50 0854.38
2009/04/23 14:41:50.5    -162    184     43    246    250 318.6  10.0  34288  291.75 0854.38
2009/04/23 14:41:50.6    -149    149     10    212    213 315.0   2.9  34302  291.98 0854.38
2009/04/23 14:41:50.7    -110     79     34    136    141 306.0  14.3  34324  292.35 0854.38
2009/04/23 14:41:50.8    -105     23     85    108    137 282.8  42.2  34346  292.75 0854.38
2009/04/23 14:41:50.9     -48     21     76     53     92 293.5  62.1  34384  293.39 0854.38
2009/04/23 14:41:51.0     -75    -69     85    103    133 227.3  43.7  34370  293.15 0854.37
2009/04/23 14:41:51.1     -70    -84     84    110    138 219.7  41.6  34370  293.14 0854.37
2009/04/23 14:41:51.2     -18    -91     55     93    108 191.6  34.0  34364  293.04 0854.37
2009/04/23 14:41:51.3      31    -81     59     87    105 159.1  37.0  34374  293.22 0854.37
2009/04/23 14:41:51.4     -35    -81     65     89    110 203.6  39.7  34392  293.53 0854.37
2009/04/23 14:41:51.5     -69    -95     57    118    131 216.0  27.3  34402  293.68 0854.37
2009/04/23 14:41:51.6     -49    -96     63    109    125 207.2  33.4  34390  293.48 0854.37
2009/04/23 14:41:51.7     -30   -108     60    113    127 195.6  29.8  34402  293.70 0854.37
2009/04/23 14:41:51.8     -23   -116     69    119    137 191.6  32.9  34402  293.70 0854.37
2009/04/23 14:41:51.9     -33   -169    105    173    202 191.3  34.2  34416  293.94 0854.37
2009/04/23 14:41:52.0     -42   -136     90    143    168 197.4  35.5  34408  293.80 0854.36
2009/04/23 14:41:52.1     -42   -125    113    132    173 198.7  45.1  34382  293.34 0854.36
2009/04/23 14:41:52.2     -47   -159    100    166    193 196.7  34.4  34384  293.38 0854.36
2009/04/23 14:41:52.3     -88   -190    134    210    249 204.9  35.6  34438  294.29 0854.36
2009/04/23 14:41:52.4     -58   -176    165    186    248 198.5  46.2  34454  294.57 0854.36
2009/04/23 14:41:52.5     -74   -101    155    126    199 216.1  56.6  34472  294.88 0854.36
2009/04/23 14:41:52.6     -92   -111     93    145    172 219.6  35.6  34448  294.47 0854.36
2009/04/23 14:41:52.7     -78   -131    126    153    198 210.8  43.7  34468  294.83 0854.36
2009/04/23 14:41:52.8       0    -47    157     48    164 180.9  82.5  34436  294.26 0854.36
2009/04/23 14:41:52.9     -24    -41    126     48    134 210.7  79.1  34454  294.57 0854.36
2009/04/23 14:41:53.0      -5    -17     88     18     89 198.5  89.0  34428  294.15 0854.36
2009/04/23 14:41:53.1      15     74     55     76     93  11.5  39.1  34426  294.09 0854.36
2009/04/23 14:41:53.2      75      0     94     76    120  90.0  56.4  34378  293.29 0854.36
2009/04/23 14:41:53.3      39     70     85     81    117  28.9  51.2  34398  293.62 0854.36
2009/04/23 14:41:53.4      10     97     73     98    122   6.2  40.7  34398  293.62 0854.36
2009/04/23 14:41:53.5       8    114     51    115    125   4.5  25.2  34374  293.22 0854.36
2009/04/23 14:41:53.6      19     32     61     38     71  30.7  64.7  34366  293.09 0854.36
2009/04/23 14:41:53.7      15    -11     29     19     34 126.0  64.6  34378  293.29 0854.36
2009/04/23 14:41:53.8      25     14     -1     29     30  61.1  -2.2  34368  293.10 0854.36
2009/04/23 14:41:53.9      33     29     12     44     46  48.7  15.3  34364  293.04 0854.36
2009/04/23 14:41:54.0       1     69     32     70     76   0.9  27.1  34364  293.04 0854.38
2009/04/23 14:41:54.1     -37     55     87     67    109 325.7  58.5  34358  292.93 0854.38
2009/04/23 14:41:54.2     -72     35     93     81    123 296.2  54.3  34358  292.95 0854.38
2009/04/23 14:41:54.3     -39     33    106     52    118 310.4  72.4  34374  293.22 0854.38
2009/04/23 14:41:54.4       7    -19     84     21     86 158.2  85.9  34378  293.29 0854.38
2009/04/23 14:41:54.5      18    -25     83     31     88 143.9  79.2  34372  293.17 0854.38
2009/04/23 14:41:54.6     -42     31    123     53    133 306.9  75.0  34356  292.92 0854.38
2009/04/23 14:41:54.7     -70     -2     55     71     89 268.3  42.2  34362  293.00 0854.38
2009/04/23 14:41:54.8     -96     -1     58     97    113 269.2  34.0  34372  293.17 0854.38
2009/04/23 14:41:54.9     -15      1      2     16     17 274.4   6.9  34380  293.33 0854.38
2009/04/23 14:41:55.0      54    -13     25     56     61 104.2  25.1  34374  293.21 0854.38
2009/04/23 14:41:55.1      42     20     64     47     79  64.7  60.0  34360  292.98 0854.38
2009/04/23 14:41:55.2      47    -27     14     55     57 119.8  14.3  34358  292.93 0854.38
2009/04/23 14:41:55.3      63    -40      5     75     76 122.4   3.8  34368  293.12 0854.38
2009/04/23 14:41:55.4      17    -64     32     67     74 164.8  27.1  34382  293.36 0854.38
2009/04/23 14:41:55.5      37    -55     23     67     72 145.7  19.4  34386  293.43 0854.38
2009/04/23 14:41:55.6      57    -31     35     66     74 118.9  30.3  34390  293.50 0854.38
2009/04/23 14:41:55.7      91    -45      5    102    103 116.6   2.8  34402  293.70 0854.38
2009/04/23 14:41:55.8      55    -24    -20     61     64 113.5 -23.8  34416  293.94 0854.38
2009/04/23 14:41:55.9      57    -34     -8     67     68 120.7  -7.3  34420  293.99 0854.38
2009/04/23 14:41:56.0      80    -38     -3     89     90 115.8  -2.2  34422  294.03 0854.39
2009/04/23 14:41:56.1     118    -46    -33    127    132 111.7 -14.5  34418  293.97 0854.39
2009/04/23 14:41:56.2      89    -76    -19    118    120 130.4  -9.3  34416  293.94 0854.39
2009/04/23 14:41:56.3      98    -23      3    101    102 103.3   1.8  34404  293.74 0854.39
2009/04/23 14:41:56.4      62    -39      3     74     75 122.4   2.8  34408  293.79 0854.39
2009/04/23 14:41:56.5      37    -49      7     62     63 143.0   6.9  34412  293.85 0854.39
2009/04/23 14:41:56.6     -31    -44     44     55     70 215.2  43.7  34398  293.63 0854.39
2009/04/23 14:41:56.7      26      3     82     27     86  82.1  80.7  34380  293.33 0854.39
2009/04/23 14:41:56.8     -10     68     -3     69     70 351.1  -3.1  34410  293.84 0854.39
2009/04/23 14:41:56.9     -65     17     49     68     83 285.1  39.7  34392  293.53 0854.39
2009/04/23 14:41:57.0      -8    239    123    240    269 358.0  29.2  34358  292.94 0854.39
2009/04/23 14:41:57.1    -129     52    182    140    229 291.8  58.5  34372  293.19 0854.39
2009/04/23 14:41:57.2    -130   -135    211    188    282 224.1  53.7  34380  293.32 0854.39
2009/04/23 14:41:57.3      93    -88    148    129    196 133.6  54.3  34366  293.07 0854.39
2009/04/23 14:41:57.4    -131    -17    156    133    205 262.5  55.4  34388  293.46 0854.39
2009/04/23 14:41:57.5    -176   -165    166    242    293 226.9  37.8  34382  293.35 0854.39
2009/04/23 14:41:57.6    -183   -183    159    259    303 225.0  34.4  34410  293.83 0854.39
2009/04/23 14:41:57.7    -158   -185    205    244    318 220.5  44.3  34450  294.51 0854.39
2009/04/23 14:41:57.8    -133   -241    184    276    331 209.0  36.9  34440  294.34 0854.39
2009/04/23 14:41:57.9    -155   -231    237    279    366 213.8  44.7  34400  293.67 0854.39
2009/04/23 14:41:58.0     -62   -176    234    187    299 199.4  57.5  34348  292.76 0854.39
2009/04/23 14:41:58.1     -46   -230    199    235    307 191.3  44.3  34364  293.03 0854.39
2009/04/23 14:41:58.2     -60   -203    184    212    280 196.7  45.8  34352  292.82 0854.39
2009/04/23 14:41:58.3     -87   -234    192    250    315 200.5  41.5  34430  294.17 0854.39
2009/04/23 14:41:58.4    -122   -170    185    210    279 215.6  45.9  34414  293.88 0854.39
2009/04/23 14:41:58.5    -196   -196    142    278    312 225.0  29.2  34440  294.34 0854.39
2009/04/23 14:41:58.6    -191   -149     98    243    262 232.2  23.0  34428  294.14 0854.39
2009/04/23 14:41:58.7    -104    -68    126    125    177 236.7  50.1  34394  293.56 0854.39
2009/04/23 14:41:58.8     -65   -166    176    179    251 201.6  49.9  34378  293.27 0854.39
2009/04/23 14:41:58.9    -117   -175    141    211    253 213.8  37.0  34362  293.01 0854.39
2009/04/23 14:41:59.0    -174   -251    119    306    328 214.7  22.3  34360  292.98 0854.39
2009/04/23 14:41:59.1    -206   -249    162    324    362 219.7  28.6  34336  292.58 0854.39
2009/04/23 14:41:59.2    -125   -379     39    400    402 198.3   5.7  34350  292.80 0854.39
2009/04/23 14:41:59.3    -164   -249     61    299    306 213.4  11.6  34404  293.73 0854.39
2009/04/23 14:41:59.4    -105   -314     89    332    344 198.6  15.0  34356  292.92 0854.39
2009/04/23 14:41:59.5     -70   -321     48    329    333 192.4   8.3  34334  292.54 0854.39
2009/04/23 14:41:59.6       4   -283    100    284    302 179.1  19.4  34304  292.01 0854.39
2009/04/23 14:41:59.7      -6   -259    142    260    296 181.4  31.3  34296  291.89 0854.39
2009/04/23 14:41:59.8     -62   -232    160    241    289 195.1  36.5  34316  292.21 0854.39
2009/04/23 14:41:59.9     -69   -213    151    224    270 198.0  37.3  34308  292.09 0854.39
2009/04/23 14:42:00.0     -50   -213    147    219    263 193.4  37.0  34326  292.40 0854.34
2009/04/23 14:42:00.1     -74   -183    113    198    227 202.1  32.1  34332  292.49 0854.34
2009/04/23 14:42:00.2     -87   -164     87    186    205 208.1  27.1  34296  291.89 0854.34
2009/04/23 14:42:00.3     -79   -168     65    186    198 205.3  19.4  34298  291.93 0854.34
2009/04/23 14:42:00.4     -93   -213     88    233    249 203.7  21.5  34296  291.89 0854.34
2009/04/23 14:42:00.5     -72   -200    111    213    240 200.0  29.8  34342  292.68 0854.34
2009/04/23 14:42:00.6     -72   -171    116    186    219 202.9  35.2  34356  292.92 0854.34
2009/04/23 14:42:00.7     -50   -158    102    166    194 197.8  35.0  34346  292.75 0854.34
2009/04/23 14:42:00.8     -31    -92    115     98    151 198.7  55.8  34360  292.97 0854.34
2009/04/23 14:42:00.9      56    -27     79     63    101 116.2  56.9  34350  292.80 0854.34
2009/04/23 14:42:01.0       8    -91     92     92    130 174.7  50.1  34326  292.39 0854.34
2009/04/23 14:42:01.1       0   -110     52    111    122 180.4  26.6  34328  292.42 0854.34
2009/04/23 14:42:01.2     -54   -135    153    146    211 201.8  51.4  34350  292.81 0854.34
2009/04/23 14:42:01.3    -102   -194    157    220    270 207.9  39.1  34396  293.57 0854.34
2009/04/23 14:42:01.4    -145   -163    107    219    243 221.7  28.2  34390  293.49 0854.34
2009/04/23 14:42:01.5     -37   -183    181    187    260 191.5  49.2  34418  293.95 0854.34
2009/04/23 14:42:01.6     -99   -179    174    205    268 209.0  44.5  34418  293.97 0854.34
2009/04/23 14:42:01.7    -128   -239    182    272    327 208.3  37.0  34378  293.27 0854.34
2009/04/23 14:42:01.8    -101   -241    171    262    312 202.8  36.3  34388  293.45 0854.34
2009/04/23 14:42:01.9     -15   -241    116    242    268 183.6  27.3  34380  293.32 0854.34
2009/04/23 14:42:02.0    -125   -280    156    307    344 204.1  28.9  34290  291.79 0854.36
2009/04/23 14:42:02.1    -136   -230    126    268    296 210.5  27.1  34282  291.65 0854.36
2009/04/23 14:42:02.2     -56   -175     97    184    208 197.8  29.8  34298  291.93 0854.36
2009/04/23 14:42:02.3     -30   -219    115    222    250 187.8  29.3  34310  292.13 0854.36
2009/04/23 14:42:02.4     -19   -308     95    309    324 183.6  17.1  34278  291.56 0854.36
2009/04/23 14:42:02.5     -18   -356     49    357    361 182.9   7.9  34272  291.49 0854.36
2009/04/23 14:42:02.6     -32   -334     19    336    337 185.6   3.2  34274  291.51 0854.36
2009/04/23 14:42:02.7      27   -293      6    295    296 174.7   1.2  34276  291.53 0854.36
2009/04/23 14:42:02.8     107   -317    -89    335    347 161.3 -15.0  34286  291.71 0854.36
2009/04/23 14:42:02.9     132   -328    -58    354    359 158.1  -9.3  34274  291.51 0854.36
2009/04/23 14:42:03.0    -117   -268    -59    293    299 203.7 -11.5  34282  291.63 0854.36
2009/04/23 14:42:03.1     -76   -233     47    246    251 198.0  10.8  34286  291.70 0854.36
2009/04/23 14:42:03.2     -70   -218     75    229    241 197.8  18.1  34288  291.75 0854.36
2009/04/23 14:42:03.3     -41   -204     58    209    218 191.3  15.6  34290  291.79 0854.36
2009/04/23 14:42:03.4     -67   -222     53    233    240 196.9  12.9  34268  291.41 0854.36
2009/04/23 14:42:03.5    -159   -250     47    297    301 212.5   9.0  34270  291.44 0854.36
2009/04/23 14:42:03.6    -296   -243     70    384    391 230.6  10.3  34252  291.13 0854.36
2009/04/23 14:42:03.7    -508   -274      7    578    579 241.6   0.7  34210  290.41 0854.36
2009/04/23 14:42:03.8    -472   -183    -97    507    517 248.8 -10.8  34212  290.45 0854.36
2009/04/23 14:42:03.9    -326    -53      5    331    332 260.8   0.9  34260  291.27 0854.36
2009/04/23 14:42:04.0    -202   -240    105    314    332 220.1  18.5  34262  291.31 0854.39
2009/04/23 14:42:04.1    -260   -152     92    302    316 239.6  17.0  34276  291.53 0854.39
2009/04/23 14:42:04.2    -263   -147     31    302    304 240.7   5.9  34286  291.72 0854.39
2009/04/23 14:42:04.3    -237   -112     11    263    264 244.6   2.5  34288  291.73 0854.39
2009/04/23 14:42:04.4    -167    -80     65    186    198 244.5  19.2  34294  291.86 0854.39
2009/04/23 14:42:04.5     -37   -197    141    201    245 190.9  38.6  34294  291.86 0854.39
2009/04/23 14:42:04.6    -159   -268    185    312    362 210.8  33.4  34292  291.83 0854.39
2009/04/23 14:42:04.7    -272   -265    142    380    405 225.8  21.4  34260  291.28 0854.39
2009/04/23 14:42:04.8    -361    -13    -88    362    373 267.9 -13.7  34240  290.93 0854.39
2009/04/23 14:42:04.9    -420      2    -93    421    432 270.4 -12.5  34192  290.12 0854.39
2009/04/23 14:42:05.0    -432    -32   -153    434    460 265.7 -24.5  34200  290.24 0854.39
2009/04/23 14:42:05.1    -356   -104   -175    371    410 253.7 -31.5  34210  290.42 0854.39
2009/04/23 14:42:05.2    -469     24   -153    470    495 273.0 -18.0  34230  290.76 0854.39
2009/04/23 14:42:05.3    -565     -8   -215    566    605 269.2 -26.2  34198  290.20 0854.39
2009/04/23 14:42:05.4    -628     28   -239    629    672 272.6 -26.2  34206  290.36 0854.39
2009/04/23 14:42:05.5    -599     17   -318    600    679 271.7 -34.6  34218  290.55 0854.39
2009/04/23 14:42:05.6    -604    102   -226    613    653 279.6 -25.5  34214  290.50 0854.39
2009/04/23 14:42:05.7    -557    114   -186    569    598 281.6 -23.3  34198  290.22 0854.39
2009/04/23 14:42:05.8    -537     91   -205    545    582 279.7 -26.0  34206  290.34 0854.39
2009/04/23 14:42:05.9    -511    154   -226    534    579 286.8 -28.7  34208  290.40 0854.39
2009/04/23 14:42:06.0    -612    103   -182    621    647 279.6 -21.1  34232  290.81 0854.42
2009/04/23 14:42:06.1    -429    121   -256    446    514 285.8 -36.8  34216  290.51 0854.42
2009/04/23 14:42:06.2    -544    -71   -189    549    580 262.5 -24.3  34228  290.71 0854.42
2009/04/23 14:42:06.3    -314   -144   -127    346    368 245.4 -25.4  34244  291.01 0854.42
2009/04/23 14:42:06.4    -301     56   -173    307    352 280.6 -36.3  34220  290.60 0854.42
2009/04/23 14:42:06.5    -311     57   -121    317    339 280.4 -26.2  34218  290.55 0854.42
2009/04/23 14:42:06.6    -405     56   -140    409    432 277.9 -24.0  34214  290.50 0854.42
2009/04/23 14:42:06.7    -388     64   -158    394    424 279.5 -27.5  34212  290.44 0854.42
2009/04/23 14:42:06.8    -330     69   -157    338    372 281.9 -31.3  34214  290.49 0854.42
2009/04/23 14:42:06.9    -297     31   -188    299    353 276.1 -39.6  34216  290.52 0854.42
2009/04/23 14:42:07.0    -322     35   -214    324    388 276.2 -40.8  34214  290.49 0854.42
2009/04/23 14:42:07.1    -282     24   -242    284    373 275.0 -49.2  34216  290.52 0854.42
2009/04/23 14:42:07.2    -281     35   -186    284    339 277.2 -40.7  34216  290.53 0854.42
2009/04/23 14:42:07.3    -245    -34   -180    248    306 262.1 -44.1  34216  290.53 0854.42
2009/04/23 14:42:07.4    -266    -32   -196    268    332 263.0 -44.2  34210  290.41 0854.42
2009/04/23 14:42:07.5    -289    -52   -181    294    345 259.6 -39.2  34216  290.52 0854.42
2009/04/23 14:42:07.6    -319    -55   -191    324    376 260.1 -37.7  34210  290.43 0854.42
2009/04/23 14:42:07.7    -322      4   -222    323    391 270.8 -42.2  34212  290.45 0854.42
2009/04/23 14:42:07.8    -382     40   -213    385    439 276.1 -35.8  34212  290.44 0854.42
2009/04/23 14:42:07.9    -325     43   -206    328    387 277.7 -39.9  34214  290.50 0854.42
2009/04/23 14:42:08.0    -316     57   -210    322    384 280.4 -40.4  34214  290.50 0854.43
2009/04/23 14:42:08.1    -279      8   -182    280    333 271.7 -40.6  34216  290.53 0854.43
2009/04/23 14:42:08.2    -319      5   -148    320    352 271.0 -31.0  34220  290.59 0854.43
2009/04/23 14:42:08.3    -225    -42    -79    229    242 259.4 -24.3  34224  290.66 0854.43
2009/04/23 14:42:08.4    -284     -8   -153    285    323 268.3 -34.9  34220  290.58 0854.43
2009/04/23 14:42:08.5    -295      8   -131    296    323 271.7 -30.0  34216  290.51 0854.43
2009/04/23 14:42:08.6    -300      0   -142    301    332 270.0 -31.5  34214  290.49 0854.43
2009/04/23 14:42:08.7    -270     -3   -156    271    312 269.2 -37.0  34216  290.51 0854.43
2009/04/23 14:42:08.8    -278    -21   -146    279    314 265.7 -34.2  34214  290.48 0854.43
2009/04/23 14:42:09.0    -249     37   -197    252    319 278.6 -46.4  34216  290.53 0854.43
2009/04/23 14:42:09.0    -275     18   -174    276    326 273.9 -39.7  34216  290.51 0854.43
2009/04/23 14:42:09.1    -270      0   -159    271    314 270.0 -37.4  34214  290.48 0854.43
2009/04/23 14:42:09.2    -230      3   -142    231    271 270.9 -39.2  34210  290.41 0854.43
2009/04/23 14:42:09.3    -124    -13    -89    125    153 263.9 -43.5  34224  290.65 0854.43
2009/04/23 14:42:09.4    -128     14   -113    129    171 276.6 -50.2  34218  290.55 0854.43
2009/04/23 14:42:09.6    -129     52   -111    140    178 292.2 -46.8  34218  290.55 0854.43
2009/04/23 14:42:09.7    -131     46   -112    140    179 289.5 -47.4  34216  290.52 0854.43
2009/04/23 14:42:09.8    -165      4    -90    166    188 271.5 -35.4  34214  290.48 0854.43
2009/04/23 14:42:09.9    -151     50   -109    160    193 288.6 -41.7  34218  290.57 0854.43
2009/04/23 14:42:10.0    -157     55   -100    167    194 289.3 -38.4  34226  290.69 0854.43
2009/04/23 14:42:10.1    -177     49   -136    184    228 285.5 -44.3  34222  290.62 0854.43
2009/04/23 14:42:10.2    -200     30   -126    203    238 278.6 -39.2  34224  290.67 0854.43
2009/04/23 14:42:10.3    -159    -27   -102    162    191 260.3 -39.9  34228  290.72 0854.43
2009/04/23 14:42:10.4     -46      3    -14     47     49 274.3 -22.8  34226  290.69 0854.43
2009/04/23 14:42:10.5    -237    101   -120    258    284 293.1 -31.5  34230  290.76 0854.43
2009/04/23 14:42:10.6    -340     17   -126    341    363 272.9 -25.5  34220  290.59 0854.43
2009/04/23 14:42:10.7    -282    102   -148    301    335 290.0 -32.4  34252  291.14 0854.43
2009/04/23 14:42:10.8    -175     90   -142    198    243 297.3 -43.5  34244  290.99 0854.43
2009/04/23 14:42:10.9     -85    152   -200    175    265 330.6 -58.7  34222  290.61 0854.43
2009/04/23 14:42:11.0    -134    245   -265    280    385 331.3 -52.4  34232  290.79 0854.43
2009/04/23 14:42:11.1    -139    204   -259    247    357 325.7 -55.9  34226  290.70 0854.43
2009/04/23 14:42:11.2     -52     73   -173     90    195 324.4 -75.0  34242  290.96 0854.43
2009/04/23 14:42:11.3      -9     66   -105     67    124 352.0 -69.0  34242  290.98 0854.43
2009/04/23 14:42:11.4     -29    199   -103    202    226 351.5 -33.5  34242  290.96 0854.43
2009/04/23 14:42:11.5     146    231    -15    274    275  32.3  -3.1  34234  290.82 0854.43
2009/04/23 14:42:11.6     167    179    -83    245    259  43.0 -18.7  34232  290.80 0854.43
2009/04/23 14:42:11.7     199    165    -85    259    273  50.4 -18.3  34230  290.75 0854.43
2009/04/23 14:42:11.8      87    255     38    270    273  18.9   8.0  34232  290.78 0854.43
2009/04/23 14:42:11.9      38    222      7    226    227   9.7   1.8  34232  290.81 0854.43
2009/04/23 14:42:12.0      24    227    -87    229    244   6.2 -26.4  34232  290.78 0854.43
2009/04/23 14:42:12.1      51    198    -73    205    218  14.7 -19.6  34230  290.77 0854.43
2009/04/23 14:42:12.2      63    233   -153    242    286  15.2 -39.9  34222  290.63 0854.43
2009/04/23 14:42:12.3      47    130   -212    139    253  20.0 -68.3  34232  290.81 0854.43
2009/04/23 14:42:12.4      55    106   -168    120    206  27.6 -65.5  34224  290.67 0854.43
2009/04/23 14:42:12.5       8    -43   -102     44    111 169.3 -79.4  34234  290.82 0854.43
2009/04/23 14:42:12.6    -216    102   -208    240    317 295.4 -49.8  34222  290.61 0854.43
2009/04/23 14:42:12.7    -137    134   -198    192    275 314.4 -55.6  34222  290.63 0854.43
2009/04/23 14:42:12.8    -139    185    -50    232    238 323.0 -12.2  34224  290.65 0854.43
2009/04/23 14:42:12.9     -19    258    -79    259    270 355.6 -22.3  34230  290.76 0854.43
2009/04/23 14:42:13.0     -21    110    -31    113    118 348.9 -15.5  34238  290.91 0854.43
2009/04/23 14:42:13.1     -41     42     59     59     83 315.9  50.1  34252  291.13 0854.43
2009/04/23 14:42:13.2     -14     70     82     72    109 348.5  53.7  34252  291.13 0854.43
2009/04/23 14:42:13.3     -22     -6    103     23    105 253.2  88.0  34248  291.06 0854.43
2009/04/23 14:42:13.4      14    -66     79     68    104 167.5  54.8  34242  290.98 0854.43
2009/04/23 14:42:13.5     -19    -41     62     46     77 204.5  60.5  34238  290.91 0854.43
2009/04/23 14:42:13.6     -37     31    -13     49     51 309.5 -15.5  34230  290.77 0854.43
2009/04/23 14:42:13.7       0      7     19      8     20 355.5  77.1  34232  290.81 0854.43
2009/04/23 14:42:13.8     -26    -42     49     50     70 212.5  51.1  34242  290.96 0854.43
2009/04/23 14:42:13.9     -45    -23    -58     51     77 242.9 -58.7  34230  290.75 0854.43
2009/04/23 14:42:14.0     -61   -168    -77    179    194 200.0 -29.3  34226  290.69 0854.43
2009/04/23 14:42:14.1    -205   -229    -47    308    312 221.9  -8.8  34242  290.97 0854.41
2009/04/23 14:42:14.2    -171   -247      2    301    302 214.7   0.5  34238  290.88 0854.41
2009/04/23 14:42:14.3    -154   -220    156    269    310 215.1  32.9  34240  290.92 0854.41
2009/04/23 14:42:14.4     -95    -32     97    101    140 250.9  49.0  34242  290.98 0854.41
2009/04/23 14:42:14.5    -111    -22    140    114    180 258.6  56.4  34270  291.43 0854.41
2009/04/23 14:42:14.6    -182     72     86    196    214 291.7  25.2  34238  290.91 0854.41
2009/04/23 14:42:14.7    -211     51    114    218    246 283.7  29.5  34246  291.04 0854.41
2009/04/23 14:42:14.8    -255     66     77    264    276 284.6  16.3  34232  290.80 0854.41
2009/04/23 14:42:14.9    -243     59     64    251    260 283.7  14.3  34244  291.00 0854.41
2009/04/23 14:42:15.0    -252     47    146    257    295 280.6  32.1  34232  290.78 0854.41
2009/04/23 14:42:15.1    -214     74    142    227    267 289.1  35.5  34240  290.92 0854.43
2009/04/23 14:42:15.2    -162    -29     79    165    182 259.6  27.4  34256  291.20 0854.43
2009/04/23 14:42:15.3    -296     94    -40    311    314 287.7  -7.5  34218  290.56 0854.43
2009/04/23 14:42:15.4    -362    147   -107    391    406 292.1 -15.4  34216  290.52 0854.43
2009/04/23 14:42:15.5    -371     91    -27    383    384 283.8  -4.1  34228  290.72 0854.43
2009/04/23 14:42:15.6    -364    146    -52    393    397 291.8  -7.6  34228  290.71 0854.43
2009/04/23 14:42:15.7    -356    182   -110    400    415 297.1 -15.4  34214  290.48 0854.43
2009/04/23 14:42:15.8    -317    221   -138    387    410 304.9 -24.7  34212  290.44 0854.43
2009/04/23 14:42:15.9    -299    230   -127    378    398 307.5 -23.5  34230  290.76 0854.43
2009/04/23 14:42:16.0    -305    232   -119    384    403 307.3 -17.3  34230  290.77 0854.43
2009/04/23 14:42:16.1    -267    206   -100    338    352 307.6 -21.4  34220  290.60 0854.43
2009/04/23 14:42:16.2    -261    204    -16    332    333 308.1  -2.8  34218  290.54 0854.43
2009/04/23 14:42:16.3    -223    265     38    347    350 319.8   6.4  34214  290.49 0854.43
2009/04/23 14:42:16.4     -76    375     87    383    393 348.5  12.9  34214  290.50 0854.43
2009/04/23 14:42:16.5    -133    183    -35    227    230 323.9  -9.0  34218  290.55 0854.43
2009/04/23 14:42:16.6    -196    321     19    377    378 328.6   2.9  34192  290.13 0854.43
2009/04/23 14:42:16.7    -353    454     18    576    577 322.1   1.8  34182  289.93 0854.43
2009/04/23 14:42:16.8    -443    205    -34    489    491 294.8  -4.0  34188  290.03 0854.43
2009/04/23 14:42:16.9    -409    299   -173    507    535 306.2 -23.9  34156  289.51 0854.43
2009/04/23 14:42:17.0    -491    347    -50    602    605 305.2  -4.8  34164  289.64 0854.43
2009/04/23 14:42:17.1    -531    308   -112    615    626 300.1 -10.4  34172  289.76 0854.46
2009/04/23 14:42:17.2    -453    293   -120    540    554 302.9 -12.6  34176  289.84 0854.46
2009/04/23 14:42:17.3    -421    215   -153    473    497 297.1 -23.2  34192  290.10 0854.46
2009/04/23 14:42:17.4    -418    290   -144    509    528 304.8 -20.3  34190  290.09 0854.46
2009/04/23 14:42:17.5    -363    260   -234    447    504 305.6 -34.3  34186  290.01 0854.46
2009/04/23 14:42:17.6    -426    248   -287    493    570 300.2 -37.3  34176  289.84 0854.46
2009/04/23 14:42:17.7    -240    517   -189    571    602 335.1 -18.3  34172  289.78 0854.46
2009/04/23 14:42:17.8       6    591   -362    592    693   0.6 -38.8  34178  289.88 0854.46
2009/04/23 14:42:17.9    -380    274   -277    469    544 305.9 -37.8  34178  289.87 0854.46
2009/04/23 14:42:18.0    -553    283    -17    622    623 297.1  -1.6  34180  289.91 0854.46
2009/04/23 14:42:18.1    -541    266   -187    603    632 296.2 -17.3  34178  289.86 0854.46
2009/04/23 14:42:18.2    -483    283   -194    561    594 300.4 -19.1  34182  289.93 0854.46
2009/04/23 14:42:18.3    -574    228   -266    618    672 291.7 -29.2  34190  290.09 0854.46
2009/04/23 14:42:18.4    -297    284    -83    412    421 313.7 -11.5  34174  289.80 0854.46
2009/04/23 14:42:18.5    -140    637   -155    653    672 347.6 -13.4  34188  290.04 0854.46
2009/04/23 14:42:18.6    -174    504   -183    534    565 340.9 -18.9  34190  290.07 0854.46
2009/04/23 14:42:18.7      67    462   -115    467    482   8.3 -13.9  34188  290.03 0854.46
2009/04/23 14:42:18.8     -24    320    -99    321    335 355.6 -22.2  34192  290.11 0854.46
2009/04/23 14:42:18.9     -15    259    -93    260    277 356.5 -19.7  34194  290.15 0854.46
2009/04/23 14:42:19.0     -13    365   -100    366    380 357.9 -15.4  34186  290.01 0854.46
2009/04/23 14:42:19.1    -393    516    -67    649    653 322.7  -6.0  34204  290.32 0854.46
2009/04/23 14:42:19.2    -438    470    125    643    656 317.0  11.0  34188  290.03 0854.46
2009/04/23 14:42:19.3    -268    444    311    519    605 328.8  33.7  34186  290.02 0854.46
2009/04/23 14:42:19.4    -237    544    260    594    648 336.5  25.2  34188  290.03 0854.46
2009/04/23 14:42:19.5     -74    478    175    484    514 351.1  20.8  34188  290.03 0854.46
2009/04/23 14:42:19.6    -107    485    128    497    514 347.5  14.5  34208  290.40 0854.46
2009/04/23 14:42:19.7    -255    428     90    499    508 329.3  10.2  34206  290.35 0854.46
2009/04/23 14:42:19.8     191    417    234    459    515  24.6  29.2  34192  290.10 0854.46
2009/04/23 14:42:19.9     237    591    172    637    661  21.9  15.1  34196  290.18 0854.46
2009/04/23 14:42:20.0     529    663    244    849    884  38.6  16.0  34188  290.03 0854.46
2009/04/23 14:42:20.1     473    515    207    700    731  42.6  16.5  34190  290.08 0854.46
2009/04/23 14:42:20.2     266    761    102    807    814  19.3   7.2  34192  290.13 0854.46
2009/04/23 14:42:20.3     396    418    -26    577    578  43.5  -2.6  34194  290.14 0854.46
2009/04/23 14:42:20.4     547    512    -96    750    757  46.9  -7.3  34196  290.18 0854.46
2009/04/23 14:42:20.5     461    710     72    847    851  33.0   4.9  34276  291.55 0854.46
2009/04/23 14:42:20.6     474    741    227    880    909  32.6  14.5  34260  291.28 0854.46
2009/04/23 14:42:20.7     504    570     91    762    768  41.5   6.9  34210  290.43 0854.46
2009/04/23 14:42:20.8     308    523    223    608    647  30.5  21.1  34270  291.45 0854.46
2009/04/23 14:42:20.9     623    581    113    853    861  47.0   7.6  34198  290.22 0854.46
2009/04/23 14:42:21.0     419    641     65    767    771  33.2   4.9  34214  290.50 0854.46
2009/04/23 14:42:21.1     742    373     65    831    834  63.3   4.5  34214  290.50 0854.48
2009/04/23 14:42:21.2     382    296    391    484    622  52.3  43.1  34242  290.97 0854.48
2009/04/23 14:42:21.3     268    423    435    501    663  32.4  45.5  34244  291.01 0854.48
2009/04/23 14:42:21.4     485    324    328    584    669  56.3  31.9  34226  290.69 0854.48
2009/04/23 14:42:21.5     331    453    432    562    708  36.1  41.5  34250  291.11 0854.48
2009/04/23 14:42:21.6     469    208    269    514    580  66.0  29.8  34222  290.63 0854.48
2009/04/23 14:42:21.7     398    385    357    554    659  46.0  35.7  34240  290.94 0854.48
2009/04/23 14:42:21.8     506    506    219    717    750  45.0  17.0  34238  290.91 0854.48
2009/04/23 14:42:21.9     473    574    277    744    793  39.5  21.5  34290  291.78 0854.48
2009/04/23 14:42:22.0     387    277    280    476    552  54.4  33.3  34288  291.76 0854.48
2009/04/23 14:42:22.1     444    473    363    650    744  43.2  31.5  34298  291.92 0854.48
2009/04/23 14:42:22.2     120    179    246    216    327  33.8  54.3  34314  292.18 0854.48
2009/04/23 14:42:22.3     395    315    198    506    543  51.4  22.5  34236  290.87 0854.48
2009/04/23 14:42:22.4     400    250    362    472    594  58.0  41.4  34266  291.37 0854.48
2009/04/23 14:42:22.5     590    303    346    664    748  62.8  29.6  34220  290.59 0854.48
2009/04/23 14:42:22.6     545    246    345    598    690  65.7  32.6  34244  290.99 0854.48
2009/04/23 14:42:22.7     345    150    137    377    401  66.5  20.8  34228  290.71 0854.48
2009/04/23 14:42:22.8     406     71    -44    413    416  80.0  -6.1  34212  290.44 0854.48
2009/04/23 14:42:22.9     548    124    -87    562    569  77.2  -8.9  34226  290.69 0854.48
2009/04/23 14:42:23.0     695    183     21    719    720  75.2   1.7  34236  290.86 0854.48
2009/04/23 14:42:23.1     590    100   -215    599    637  80.3 -19.8  34232  290.79 0854.50
2009/04/23 14:42:23.2     280    -30   -154    282    321  96.2 -35.4  34228  290.71 0854.50
2009/04/23 14:42:23.3     143     47    -61    151    162  71.8 -27.4  34248  291.08 0854.50
2009/04/23 14:42:23.4      85   -256     95    271    288 161.5  19.4  34242  290.97 0854.50
2009/04/23 14:42:23.5     316   -413    -10    521    522 142.6  -1.2  34228  290.72 0854.50
2009/04/23 14:42:23.6      65   -553     27    557    558 173.2   2.8  34224  290.67 0854.50
2009/04/23 14:42:23.7    -153   -533    140    555    573 196.0  14.2  34218  290.57 0854.50
2009/04/23 14:42:23.8    -432   -629    -53    764    766 214.5  -4.0  34210  290.41 0854.50
2009/04/23 14:42:23.9      91   -535   -134    543    560 170.3 -13.9  34216  290.52 0854.50
2009/04/23 14:42:24.0       3   -607    -72    608    613 179.7  -6.8  34242  290.97 0854.50
2009/04/23 14:42:24.1     -95   -689    -81    696    701 187.9  -6.7  34256  291.20 0854.50
2009/04/23 14:42:24.2    -101   -570    -80    580    586 190.1  -7.9  34262  291.31 0854.50
2009/04/23 14:42:24.3     -16   -488   -201    489    528 181.9 -28.0  34240  290.93 0854.50
2009/04/23 14:42:24.4     127   -472   -131    490    508 164.9 -15.1  34242  290.96 0854.50
2009/04/23 14:42:24.5      -7   -502     47    503    506 180.9   5.4  34252  291.13 0854.50
2009/04/23 14:42:24.6      18   -481     32    482    484 177.8   3.9  34246  291.02 0854.50
2009/04/23 14:42:24.7     -70   -470    141    476    497 188.5  16.5  34254  291.17 0854.50
2009/04/23 14:42:24.8    -100   -412    166    424    455 193.7  22.8  34276  291.55 0854.50
2009/04/23 14:42:24.9    -167   -298    216    342    404 209.3  35.5  34250  291.11 0854.50
2009/04/23 14:42:25.0    -389   -455     68    599    603 220.5   6.5  34242  290.97 0854.50
2009/04/23 14:42:25.1    -239   -476    159    533    557 206.7  16.7  34244  290.99 0854.53
2009/04/23 14:42:25.2    -313   -345     88    466    475 222.2  10.7  34244  291.00 0854.53
2009/04/23 14:42:25.3    -146   -345    315    375    489 203.0  44.3  34256  291.21 0854.53
2009/04/23 14:42:25.4      18   -402    328    403    519 177.3  43.3  34248  291.08 0854.53
2009/04/23 14:42:25.5       7   -130    151    131    199 176.9  54.6  34252  291.15 0854.53
2009/04/23 14:42:25.6     -42   -108      9    117    118 201.4   4.4  34252  291.15 0854.53
2009/04/23 14:42:25.7    -270   -328    326    425    535 219.5  41.3  34258  291.24 0854.53
2009/04/23 14:42:25.8    -276   -457    428    534    684 211.1  42.9  34268  291.39 0854.53
2009/04/23 14:42:25.9    -358   -560    420    665    786 212.6  35.3  34256  291.19 0854.53
2009/04/23 14:42:26.0    -354   -317    -34    476    478 228.2  -4.1  34272  291.47 0854.53
2009/04/23 14:42:26.1    -405   -168   -167    439    469 247.4 -26.4  34250  291.11 0854.53
2009/04/23 14:42:26.2    -347   -123     90    369    380 250.5  13.8  34284  291.68 0854.53
2009/04/23 14:42:26.3    -384   -161    -29    417    419 247.2  -4.0  34302  291.98 0854.53
2009/04/23 14:42:26.4    -218   -158     24    270    272 234.1   5.2  34292  291.82 0854.53
2009/04/23 14:42:26.5    -369    106    -75    385    393 286.1 -11.1  34280  291.61 0854.53
2009/04/23 14:42:26.6    -406    100   -287    419    507 283.9 -42.0  34254  291.17 0854.53
2009/04/23 14:42:26.7    -377    179   -126    418    436 295.5 -21.7  34270  291.45 0854.53
2009/04/23 14:42:26.8    -291     18   -169    292    337 273.7 -37.1  34268  291.41 0854.53
2009/04/23 14:42:26.9     -82     11   -197     83    213 277.9 -80.5  34260  291.28 0854.53
2009/04/23 14:42:27.0    -213    -84    -54    230    237 248.3 -13.3  34280  291.60 0854.53
2009/04/23 14:42:27.1    -275    -52   -127    280    307 259.2 -30.6  34256  291.19 0854.52
2009/04/23 14:42:27.2    -289     82    -92    301    314 285.9 -21.9  34258  291.22 0854.52
2009/04/23 14:42:27.3    -410     55   -227    414    472 277.7 -35.4  34240  290.94 0854.52
2009/04/23 14:42:27.4    -371      5   -118    372    390 270.9 -22.8  34240  290.94 0854.52
2009/04/23 14:42:27.5    -372     40   -151    375    404 276.3 -27.5  34260  291.27 0854.52
2009/04/23 14:42:27.6    -316     -9    -97    317    331 268.3 -22.2  34262  291.31 0854.52
2009/04/23 14:42:27.7    -137   -141   -120    197    230 224.1 -38.8  34270  291.45 0854.52
2009/04/23 14:42:27.8     -95   -261   -126    278    305 200.1 -30.6  34282  291.65 0854.52
2009/04/23 14:42:27.9     -97    -94   -123    136    183 226.0 -51.5  34278  291.59 0854.52
2009/04/23 14:42:28.0     -82   -110   -104    138    172 216.5 -45.3  34282  291.64 0854.52
2009/04/23 14:42:28.1     -49   -150   -125    159    202 198.3 -46.4  34284  291.67 0854.52
2009/04/23 14:42:28.2     -22   -112    -97    115    150 191.5 -48.2  34282  291.66 0854.52
2009/04/23 14:42:28.3     -44    -90    -39    101    108 206.3 -26.9  34282  291.64 0854.52
2009/04/23 14:42:28.4      17    -67    -38     70     79 165.7 -35.2  34286  291.71 0854.52
2009/04/23 14:42:28.5       9    -19    -31     22     38 154.6 -67.0  34284  291.69 0854.52
2009/04/23 14:42:28.6      18      1      0     19     20  85.6  -2.2  34290  291.77 0854.52
2009/04/23 14:42:28.7      32     30     24     45     51  46.9  30.3  34288  291.74 0854.52
2009/04/23 14:42:28.8      72    -20    108     75    131 105.9  62.1  34280  291.62 0854.52
2009/04/23 14:42:28.9      73    -52     99     90    133 125.5  52.7  34274  291.52 0854.52
2009/04/23 14:42:29.0      25    -37    133     45    140 145.7  81.2  34270  291.45 0854.52
2009/04/23 14:42:29.1      -9   -200    139    201    244 182.7  38.4  34260  291.28 0854.50
2009/04/23 14:42:29.2      87   -270    178    284    335 162.1  35.2  34242  290.95 0854.50
2009/04/23 14:42:29.3      66   -299    179    307    355 167.5  33.0  34244  291.00 0854.50
2009/04/23 14:42:29.4      71   -372    153    379    408 169.1  23.1  34252  291.13 0854.50
2009/04/23 14:42:29.5       5   -429    132    430    450 179.3  17.1  34246  291.02 0854.50
2009/04/23 14:42:29.6     -16   -335    157    336    370 182.8  27.0  34246  291.03 0854.50
2009/04/23 14:42:29.7      51   -273    163    278    322 169.3  33.1  34256  291.19 0854.50
2009/04/23 14:42:29.8     136   -221    204    260    330 148.4  42.1  34256  291.21 0854.50
2009/04/23 14:42:29.9     191   -166    148    254    293 130.9  32.9  34260  291.27 0854.50
2009/04/23 14:42:30.0     210   -353    209    411    461 149.3  29.2  34254  291.18 0854.50
2009/04/23 14:42:30.1     216   -272    120    348    369 141.6  19.1  34248  291.06 0854.50
2009/04/23 14:42:30.2     109   -304    186    324    373 160.2  32.6  34248  291.08 0854.50
2009/04/23 14:42:30.3      43   -111    151    120    192 158.6  57.5  34254  291.18 0854.50
2009/04/23 14:42:30.4    -213   -348     35    409    411 211.5   5.0  34246  291.04 0854.50
2009/04/23 14:42:30.5    -244   -502    175    559    586 205.9  17.4  34252  291.12 0854.50
2009/04/23 14:42:30.6    -255   -457    269    524    589 209.2  29.3  34252  291.14 0854.50
2009/04/23 14:42:30.7    -453   -380    165    592    615 230.0  15.6  34228  290.71 0854.50
2009/04/23 14:42:30.8    -541   -601   -146    809    823 222.0 -10.2  34212  290.47 0854.50
2009/04/23 14:42:30.9    -449   -323   -105    554    564 234.3 -10.8  34214  290.50 0854.50
2009/04/23 14:42:31.0    -554   -230   -403    601    723 247.4 -41.5  34196  290.17 0854.50
2009/04/23 14:42:31.1    -546   -375   -317    663    734 235.5 -31.7  34202  290.30 0854.53
2009/04/23 14:42:31.2    -400   -473   -193    620    649 220.2 -22.3  34228  290.72 0854.53
2009/04/23 14:42:31.3    -237   -412      1    476    477 209.9   0.2  34262  291.32 0854.53
2009/04/23 14:42:31.4    -192   -200    144    278    313 223.7  29.5  34278  291.56 0854.53
2009/04/23 14:42:31.5    -367   -138     34    393    395 249.4   5.1  34292  291.83 0854.53
2009/04/23 14:42:31.6    -234   -398    118    462    478 210.5  14.4  34264  291.34 0854.53
2009/04/23 14:42:31.7    -430   -141   -153    453    479 251.8 -18.7  34212  290.45 0854.53
2009/04/23 14:42:31.8    -524   -181   -188    555    585 250.9 -23.8  34196  290.19 0854.53
2009/04/23 14:42:31.9    -686    -15   -250    687    731 268.7 -25.3  34226  290.69 0854.53
2009/04/23 14:42:32.0    -468     65   -131    473    490 277.9 -20.1  34236  290.85 0854.53
2009/04/23 14:42:32.1    -246    -39   -147    250    290 261.0 -37.8  34234  290.82 0854.53
2009/04/23 14:42:32.2    -175    -82    -57    194    202 244.9 -21.2  34226  290.70 0854.53
2009/04/23 14:42:32.3    -423   -323     97    533    542 232.7  10.4  34190  290.09 0854.53
2009/04/23 14:42:32.4    -574   -198    163    608    630 250.9  15.0  34252  291.15 0854.53
2009/04/23 14:42:32.5    -514      4    -88    515    523 270.5  -9.7  34230  290.77 0854.53
2009/04/23 14:42:32.6    -684     44     79    686    691 273.7   6.6  34224  290.66 0854.53
2009/04/23 14:42:32.7    -551    108    152    562    583 281.1  15.1  34238  290.88 0854.53
2009/04/23 14:42:32.8     -79   -101    223    129    257 217.9  67.5  34240  290.94 0854.53
2009/04/23 14:42:32.9     -54    -50     -4     74     75 226.9  -3.2  34228  290.74 0854.53
2009/04/23 14:42:33.0     145     93    -24    173    175  57.1  -8.0  34232  290.79 0854.53
2009/04/23 14:42:33.1     212    225     15    310    311  43.2   2.8  34240  290.93 0854.51
2009/04/23 14:42:33.2      97     90    142    133    194  47.3  52.0  34238  290.91 0854.51
2009/04/23 14:42:33.3     368      0    148    369    397  90.0  23.0  34230  290.77 0854.51
2009/04/23 14:42:33.4     539     35     90    541    549  86.3   9.5  34224  290.65 0854.51
2009/04/23 14:42:33.5     494     77    209    501    542  81.1  23.9  34214  290.50 0854.51
2009/04/23 14:42:33.6     414     44    267    417    495  83.9  35.6  34208  290.37 0854.51
2009/04/23 14:42:33.7     493     53    246    496    553  83.8  28.4  34208  290.38 0854.51
2009/04/23 14:42:33.8     481     67    169    486    515  82.0  19.2  34216  290.52 0854.51
2009/04/23 14:42:33.9     420   -205    301    468    556 116.0  35.6  34216  290.53 0854.51
2009/04/23 14:42:34.0     417     11     90    418    428  88.4  12.2  34222  290.63 0854.51
2009/04/23 14:42:34.1     440    127     81    458    466  73.9  10.1  34226  290.70 0854.51
2009/04/23 14:42:34.2     400   -165    125    433    451 112.4  16.1  34218  290.56 0854.51
2009/04/23 14:42:34.3     297   -341    -42    453    456 138.9  -5.4  34216  290.53 0854.51
2009/04/23 14:42:34.4     211   -274    174    346    387 142.4  28.7  34214  290.49 0854.51
2009/04/23 14:42:34.5     260    -91    -98    276    294 109.3 -19.6  34212  290.46 0854.51
2009/04/23 14:42:34.6     382    -21   -128    383    405  93.2 -18.6  34216  290.52 0854.51
2009/04/23 14:42:34.7     251    -14     58    252    259  93.4  13.1  34208  290.39 0854.51
2009/04/23 14:42:34.8     318    -93     64    332    339 106.3  11.0  34220  290.59 0854.51
2009/04/23 14:42:34.9     193   -199    184    278    333 135.9  36.7  34222  290.61 0854.51
2009/04/23 14:42:35.0     180   -145    201    232    306 128.9  45.4  34232  290.80 0854.51
2009/04/23 14:42:35.1     212   -117    153    243    287 118.9  35.5  34228  290.71 0854.52
2009/04/23 14:42:35.2     251     12    158    252    297  87.2  35.5  34234  290.83 0854.52
2009/04/23 14:42:35.3     357    105     69    373    380  73.6  10.6  34226  290.69 0854.52
2009/04/23 14:42:35.4     429    109     46    443    446  75.7   6.0  34234  290.82 0854.52
2009/04/23 14:42:35.5     357    108     45    374    377  73.1   6.9  34232  290.79 0854.52
2009/04/23 14:42:35.6     251     11    247    252    352  87.4  49.4  34224  290.66 0854.52
2009/04/23 14:42:35.7     190    147    170    241    294  52.3  38.8  34232  290.80 0854.52
2009/04/23 14:42:35.8     256    141    151    293    329  61.2  29.4  34232  290.80 0854.52
2009/04/23 14:42:35.9     194    161    200    253    322  50.2  42.4  34242  290.97 0854.52
2009/04/23 14:42:36.0     378     16    204    379    430  87.5  30.6  34228  290.73 0854.52
2009/04/23 14:42:36.1     277    -36    115    280    302  97.5  23.1  34222  290.61 0854.53
2009/04/23 14:42:36.2      89    -53     74    104    127 121.1  39.5  34226  290.70 0854.53
2009/04/23 14:42:36.3     -43   -210    239    215    321 191.6  53.4  34224  290.66 0854.53
2009/04/23 14:42:36.4      -4   -256    250    257    358 181.0  49.3  34222  290.63 0854.53
2009/04/23 14:42:36.5      30   -217    170    220    278 172.0  41.7  34222  290.61 0854.53
2009/04/23 14:42:36.6    -128   -246    163    278    322 207.6  33.1  34224  290.65 0854.53
2009/04/23 14:42:36.7     -29   -238    100    240    260 187.1  24.1  34220  290.58 0854.53
2009/04/23 14:42:36.8     -87   -171     80    192    208 207.0  23.8  34220  290.58 0854.53
2009/04/23 14:42:37.0     -15    -44     -8     47     48 199.2 -10.3  34230  290.75 0854.53
2009/04/23 14:42:37.0     -67    -98      1    119    120 214.3   0.8  34236  290.87 0854.53
2009/04/23 14:42:37.2      58     89     34    107    113  33.0  17.9  34244  291.01 0854.53
2009/04/23 14:42:37.3       6      0     75      7     75  85.6  90.0  34244  290.99 0854.53
2009/04/23 14:42:37.4    -134   -173     48    220    226 217.8  12.4  34228  290.72 0854.53
2009/04/23 14:42:37.5    -181   -257     97    315    330 215.1  17.2  34220  290.58 0854.53
2009/04/23 14:42:37.6    -244     49     88    249    264 281.5  20.0  34226  290.68 0854.53
2009/04/23 14:42:37.7    -330    234      5    405    406 305.4   0.7  34252  291.14 0854.53
2009/04/23 14:42:37.8    -256    224    -89    341    353 311.2 -14.6  34268  291.42 0854.53
2009/04/23 14:42:37.9     -68     50   -115     85    143 306.4 -64.9  34250  291.09 0854.53
2009/04/23 14:42:38.0      61   -130    -84    144    166 154.6 -37.3  34254  291.18 0854.53
2009/04/23 14:42:38.1     115   -184    -91    218    236 147.9 -28.5  34236  290.87 0854.53
2009/04/23 14:42:38.2      38   -227     11    231    232 170.4   2.9  34242  290.96 0854.58
2009/04/23 14:42:38.3     211     49    207    217    299  76.7  48.7  34222  290.61 0854.58
2009/04/23 14:42:38.4     118    143    332    186    380  39.7  68.4  34254  291.17 0854.58
2009/04/23 14:42:38.5     299    161    299    340    452  61.7  45.8  34234  290.82 0854.58
2009/04/23 14:42:38.6     318    232    327    394    512  53.9  43.8  34226  290.69 0854.58
2009/04/23 14:42:38.7     416    136    445    438    624  71.8  50.6  34242  290.97 0854.58
2009/04/23 14:42:38.8     464    -54    277    468    543  96.7  33.4  34242  290.97 0854.58
2009/04/23 14:42:38.9     175    117    388    211    441  56.3  69.2  34252  291.13 0854.58
2009/04/23 14:42:39.0     194    182    206    267    337  46.9  41.5  34254  291.17 0854.58
2009/04/23 14:42:39.1      25     45    194     52    200  29.9  84.9  34272  291.47 0854.58
2009/04/23 14:42:39.2     206    200    148    288    323  45.8  29.3  34240  290.92 0854.58
2009/04/23 14:42:39.3     331    232    -36    405    407  54.9  -5.1  34262  291.29 0854.58
2009/04/23 14:42:39.4     222    166    194    278    338  53.2  38.4  34264  291.33 0854.58
2009/04/23 14:42:39.5      68    143    230    159    279  25.4  62.4  34268  291.41 0854.58
2009/04/23 14:42:39.6     -85    208    210    225    307 337.7  47.9  34256  291.21 0854.58
2009/04/23 14:42:39.7      48    171     65    178    189  15.8  20.7  34252  291.15 0854.58
2009/04/23 14:42:39.8      75     90    165    118    202  39.7  61.1  34268  291.40 0854.58
2009/04/23 14:42:39.9      16    161    141    162    214   5.8  45.6  34270  291.45 0854.58
2009/04/23 14:42:40.0      78    521    246    527    581   8.6  27.0  34272  291.48 0854.58
2009/04/23 14:42:40.1     -37    532    250    534    589 356.0  27.1  34288  291.73 0854.58
2009/04/23 14:42:40.2     -20    495    194    496    532 357.7  22.5  34284  291.69 0854.56
2009/04/23 14:42:40.3      98    684    203    692    722   8.2  16.4  34290  291.78 0854.56
2009/04/23 14:42:40.4      97    571     90    580    588   9.7   8.9  34302  291.99 0854.56
2009/04/23 14:42:40.5     231    381    137    446    467  31.3  17.2  34292  291.80 0854.56
2009/04/23 14:42:40.6     241    453    180    514    544  28.0  20.0  34310  292.13 0854.56
2009/04/23 14:42:40.7     -14    314    265    315    411 357.4  44.3  34320  292.29 0854.56
2009/04/23 14:42:40.8     -70    374    157    381    412 349.4  23.7  34340  292.62 0854.56
2009/04/23 14:42:40.9    -119    333    155    354    386 340.2  25.1  34324  292.37 0854.56
2009/04/23 14:42:41.0     -48    453     81    456    464 353.9  10.1  34324  292.35 0854.56
2009/04/23 14:42:41.1     -44    319    119    323    344 352.0  21.1  34328  292.44 0854.56
2009/04/23 14:42:41.2       0    262    247    263    360   0.2  48.0  34348  292.78 0854.56
2009/04/23 14:42:41.3     213    140    218    255    335  56.7  45.0  34350  292.81 0854.56
2009/04/23 14:42:41.4     405    257    297    480    564  57.6  34.6  34378  293.27 0854.56
2009/04/23 14:42:41.5     303    244    294    390    488  51.1  40.7  34382  293.34 0854.56
2009/04/23 14:42:41.6     196    117    309    229    384  59.1  60.0  34386  293.40 0854.56
2009/04/23 14:42:41.7      18    235    252    236    345   4.5  52.2  34392  293.52 0854.56
2009/04/23 14:42:41.8     147    177    189    231    298  39.7  43.7  34368  293.11 0854.56
2009/04/23 14:42:41.9     510    202    211    549    588  68.3  22.1  34312  292.14 0854.56
2009/04/23 14:42:42.0     328    252    212    414    465  52.5  29.3  34318  292.25 0854.56
2009/04/23 14:42:42.1     226    195    368    299    474  49.1  56.9  34318  292.26 0854.56
2009/04/23 14:42:42.2     404    339     30    528    529  50.0   3.3  34262  291.30 0854.51
2009/04/23 14:42:42.3     415    349    -39    543    545  49.9  -4.1  34254  291.16 0854.51
2009/04/23 14:42:42.4     459    338    -18    571    572  53.6  -1.9  34272  291.48 0854.51
2009/04/23 14:42:42.5     409    384     21    562    563  46.8   2.2  34278  291.59 0854.51
2009/04/23 14:42:42.6     317    317     88    449    458  45.0  11.1  34306  292.04 0854.51
2009/04/23 14:42:42.7     309    176     97    356    370  60.2  15.3  34292  291.83 0854.51
2009/04/23 14:42:42.8     308    144     46    341    345  64.9   7.8  34324  292.37 0854.51
2009/04/23 14:42:42.9     528     24     63    529    533  87.4   6.9  34340  292.64 0854.51
2009/04/23 14:42:43.0     558    -78     93    564    572  98.0   9.4  34330  292.46 0854.51
2009/04/23 14:42:43.1     421   -305     68    521    526 126.0   7.5  34342  292.68 0854.51
2009/04/23 14:42:43.2     111   -374     -6    391    392 163.4  -0.9  34334  292.53 0854.51
2009/04/23 14:42:43.3     164   -342    -48    380    384 154.3  -7.2  34308  292.08 0854.51
2009/04/23 14:42:43.4      12   -366     -4    367    368 178.1  -0.7  34308  292.08 0854.51
2009/04/23 14:42:43.5     -45   -334    238    337    412 187.7  38.7  34354  292.87 0854.51
2009/04/23 14:42:43.6    -126   -437    289    455    539 196.1  35.5  34342  292.68 0854.51
2009/04/23 14:42:43.7      -8   -419    372    420    561 181.1  46.1  34308  292.10 0854.51
2009/04/23 14:42:43.8     109   -329    313    347    467 161.5  46.9  34344  292.69 0854.51
2009/04/23 14:42:43.9      81   -167    255    186    315 154.1  60.4  34366  293.08 0854.51
2009/04/23 14:42:44.0      38     21    211     44    215  60.2  89.0  34374  293.22 0854.51
2009/04/23 14:42:44.1     -49   -103    287    115    309 205.5  77.1  34376  293.25 0854.51
2009/04/23 14:42:44.2    -250    -22    208    252    326 264.8  43.7  34364  293.03 0854.51
2009/04/23 14:42:44.3    -272      0    250    273    370 270.0  47.3  34368  293.12 0854.51
2009/04/23 14:42:44.4    -374   -216    228    433    489 240.0  30.1  34376  293.26 0854.51
2009/04/23 14:42:44.5    -402   -121    115    420    436 253.2  15.4  34366  293.08 0854.51
2009/04/23 14:42:44.6    -384    -96     70    396    403 255.9  10.0  34358  292.95 0854.51
2009/04/23 14:42:44.7    -357   -128    167    380    415 250.2  25.2  34340  292.64 0854.51
2009/04/23 14:42:44.8    -255    -15    299    256    393 266.5  55.3  34348  292.78 0854.51
2009/04/23 14:42:44.9      22    109     91    112    144  11.6  43.7  34326  292.39 0854.51
2009/04/23 14:42:45.0     193     58    190    202    277  73.2  48.0  34292  291.80 0854.51
2009/04/23 14:42:45.1     195     68    245    207    320  70.7  55.5  34292  291.82 0854.51
2009/04/23 14:42:45.2     510     63    416    514    661  82.9  43.3  34392  293.53 0854.51
2009/04/23 14:42:45.3      67    412    272    418    498   9.3  36.0  34382  293.35 0854.51
2009/04/23 14:42:45.4     242    531    336    584    673  24.5  32.6  34320  292.29 0854.51
2009/04/23 14:42:45.5     207    474    340    518    619  23.6  36.5  34310  292.12 0854.51
2009/04/23 14:42:45.6     168    463    363    493    612  20.0  39.9  34304  292.01 0854.51
2009/04/23 14:42:45.7     198    212    349    291    454  43.0  56.2  34308  292.09 0854.51
2009/04/23 14:42:45.8      84    256    316    270    415  18.3  55.3  34308  292.10 0854.51
2009/04/23 14:42:45.9     269    318    327    417    529  40.3  42.1  34346  292.75 0854.51
2009/04/23 14:42:46.0     307    226    206    382    434  53.7  30.7  34330  292.45 0854.51
2009/04/23 14:42:46.1     309    198    314    368    483  57.4  44.8  34346  292.74 0854.51
2009/04/23 14:42:46.2     375    208    375    430    570  61.0  45.6  34368  293.10 0854.51
2009/04/23 14:42:46.3     449    187    230    487    538  67.4  27.1  34356  292.90 0854.51
2009/04/23 14:42:46.4     426    231    189    485    520  61.5  22.5  34360  292.97 0854.51
2009/04/23 14:42:46.5     194    205    241    283    371  43.4  44.7  34372  293.17 0854.51
2009/04/23 14:42:46.6     323    173    363    367    516  61.7  49.9  34356  292.90 0854.51
2009/04/23 14:42:46.7     497     21    173    498    528  87.5  19.2  34356  292.89 0854.51
2009/04/23 14:42:46.8     503     60    257    507    568  83.2  29.1  34330  292.47 0854.51
2009/04/23 14:42:46.9     427    280    144    511    532  56.7  15.8  34316  292.22 0854.51
2009/04/23 14:42:47.0     477    138     96    497    507  73.8  11.0  34346  292.73 0854.51
2009/04/23 14:42:47.1     460    102    175    472    503  77.4  21.4  34336  292.55 0854.51
2009/04/23 14:42:47.2     422    219    280    476    552  62.5  33.3  34348  292.76 0854.51
2009/04/23 14:42:47.3     354    110    337    371    501  72.7  47.0  34338  292.59 0854.51
2009/04/23 14:42:47.4     358   -122    493    379    621 108.8  58.6  34342  292.68 0854.51
2009/04/23 14:42:47.5     362   -134    489    387    623 110.4  57.7  34308  292.10 0854.51
2009/04/23 14:42:47.6     391   -143    407    417    582 110.1  49.3  34328  292.44 0854.51
2009/04/23 14:42:47.7     342   -110    395    360    534 107.9  53.2  34304  292.02 0854.51
2009/04/23 14:42:47.8     439     27    264    440    513  86.4  33.7  34322  292.34 0854.51
2009/04/23 14:42:47.9     478    -25    331    479    582  93.0  38.0  34314  292.20 0854.51
2009/04/23 14:42:48.0     454     34    321    456    557  85.6  38.6  34306  292.06 0854.51
2009/04/23 14:42:48.1     168   -199    327    261    418 139.7  57.5  34356  292.92 0854.51
2009/04/23 14:42:48.2     134   -262    332    295    444 152.8  54.2  34342  292.68 0854.48
2009/04/23 14:42:48.3      80   -271    173    283    331 163.5  34.4  34346  292.72 0854.48
2009/04/23 14:42:48.4     105   -322    238    339    414 161.9  38.6  34356  292.92 0854.48
2009/04/23 14:42:48.5     127   -362    110    384    400 160.6  16.0  34330  292.46 0854.48
2009/04/23 14:42:48.6      57   -324     84    330    341 169.9  14.3  34328  292.41 0854.48
2009/04/23 14:42:48.7      54   -278     72    284    294 168.9  14.3  34326  292.40 0854.48
2009/04/23 14:42:48.8      83   -223    121    239    267 159.5  29.1  34320  292.28 0854.48
2009/04/23 14:42:48.9     144   -154    121    212    244 137.0  32.4  34324  292.35 0854.48
2009/04/23 14:42:49.0     250    -72     16    261    262 106.0   3.6  34286  291.70 0854.48
2009/04/23 14:42:49.1     241   -100     66    262    271 112.6  14.2  34286  291.70 0854.48
2009/04/23 14:42:49.2     221    -53     71    228    239 103.5  17.4  34268  291.41 0854.48
2009/04/23 14:42:49.3     227    -69    169    238    291 106.9  38.6  34290  291.77 0854.48
2009/04/23 14:42:49.4      74    -74    148    106    182 135.0  60.8  34314  292.18 0854.48
2009/04/23 14:42:49.5     171   -107    141    202    246 122.0  38.4  34284  291.67 0854.48
2009/04/23 14:42:49.6     115   -194    149    226    270 149.2  36.3  34288  291.73 0854.48
2009/04/23 14:42:49.7     149   -100    177    180    252 124.0  49.9  34310  292.12 0854.48
2009/04/23 14:42:49.8     118    -57    190    132    231 115.8  62.1  34312  292.17 0854.48
2009/04/23 14:42:49.9      55    -58    181     81    198 136.6  74.8  34312  292.15 0854.48
2009/04/23 14:42:50.0      17     65    150     68    164  15.2  74.0  34314  292.20 0854.48
2009/04/23 14:42:50.1      -8    -84    182     85    200 185.8  73.2  34296  291.89 0854.48
2009/04/23 14:42:50.2     -31     49    116     59    130 327.5  71.0  34296  291.89 0854.44
2009/04/23 14:42:50.3     -34    -16    206     38    209 244.6  90.0  34324  292.37 0854.44
2009/04/23 14:42:50.4    -163   -185    346    247    425 221.5  61.1  34328  292.44 0854.44
2009/04/23 14:42:50.5     -90   -235    342    252    424 201.0  60.1  34350  292.80 0854.44
2009/04/23 14:42:50.6    -242   -219    220    327    394 227.9  37.2  34338  292.60 0854.44
2009/04/23 14:42:50.7    -204   -320    247    380    453 212.5  36.0  34358  292.95 0854.44
2009/04/23 14:42:50.8    -155   -310     81    347    357 206.6  13.1  34388  293.46 0854.44
2009/04/23 14:42:50.9    -260   -313    178    408    445 219.7  25.1  34394  293.54 0854.44
2009/04/23 14:42:51.0    -317    -97    119    332    352 252.9  20.6  34378  293.29 0854.44
2009/04/23 14:42:51.1    -401   -193      6    446    447 244.2   0.9  34364  293.05 0854.44
2009/04/23 14:42:51.2    -350   -150     68    381    388 246.8  10.2  34374  293.21 0854.44
2009/04/23 14:42:51.3    -230   -163     91    282    297 234.7  17.9  34364  293.03 0854.44
2009/04/23 14:42:51.4    -269    -98    109    287    307 250.0  22.0  34368  293.10 0854.44
2009/04/23 14:42:51.5    -242   -154     90    288    302 237.5  17.4  34382  293.34 0854.44
2009/04/23 14:42:51.6    -283   -105     82    302    313 249.6  15.2  34324  292.35 0854.44
2009/04/23 14:42:51.7    -288   -146     24    323    324 243.1   4.4  34298  291.92 0854.44
2009/04/23 14:42:51.8    -229   -215     68    315    323 226.9  12.2  34310  292.11 0854.44
2009/04/23 14:42:51.9    -258   -255     68    363    370 225.4  10.6  34330  292.46 0854.44
2009/04/23 14:42:52.0    -328   -223     41    397    400 235.7   5.9  34340  292.63 0854.44
2009/04/23 14:42:52.1    -481   -325     28    581    582 235.9   2.8  34326  292.38 0854.44
2009/04/23 14:42:52.2    -353   -215    112    414    430 238.6  15.2  34330  292.45 0854.43
2009/04/23 14:42:52.3    -251   -266    -32    366    368 223.3  -5.1  34328  292.41 0854.43
2009/04/23 14:42:52.4    -426   -218     24    479    480 242.9   2.9  34356  292.90 0854.43
2009/04/23 14:42:52.5    -460   -151     18    485    486 251.8   2.2  34336  292.58 0854.43
2009/04/23 14:42:52.6    -386   -196    -50    434    437 243.0  -6.7  34298  291.91 0854.43
2009/04/23 14:42:52.7    -441    -83      3    449    450 259.3   0.5  34270  291.43 0854.43
2009/04/23 14:42:52.8    -403    -59    -44    408    411 261.7  -6.2  34276  291.55 0854.43
2009/04/23 14:42:52.9    -400    -60    -32    405    407 261.4  -4.6  34258  291.24 0854.43
2009/04/23 14:42:53.0    -391    -99    -37    404    406 255.7  -5.3  34302  291.98 0854.43
2009/04/23 14:42:53.1    -199   -126    118    236    263 237.5  28.2  34302  291.97 0854.43
2009/04/23 14:42:53.2    -178   -113    146    212    257 237.5  38.0  34290  291.78 0854.43
2009/04/23 14:42:53.3      28    -43    158     52    166 146.6  80.7  34290  291.79 0854.43
2009/04/23 14:42:53.4      98    -70    105    121    160 125.9  45.6  34282  291.64 0854.43
2009/04/23 14:42:53.5     -13    -93    109     94    143 188.0  54.3  34276  291.54 0854.43
2009/04/23 14:42:53.6     -40    -84     76     94    120 205.4  43.7  34264  291.35 0854.43
2009/04/23 14:42:53.7     -65    -91    147    113    185 215.6  58.5  34270  291.45 0854.43
2009/04/23 14:42:53.8    -119   -127    131    175    218 223.0  40.4  34258  291.25 0854.43
2009/04/23 14:42:53.9     -47   -170    162    177    239 195.6  47.1  34272  291.49 0854.43
2009/04/23 14:42:54.0     -50   -129    148    139    203 201.4  52.0  34282  291.64 0854.43
2009/04/23 14:42:54.1     -43   -152    136    159    209 196.0  44.8  34280  291.62 0854.43
2009/04/23 14:42:54.2     -58    -96    102    113    152 211.2  46.9  34272  291.49 0854.45
2009/04/23 14:42:54.3     -86   -103     54    135    145 219.6  23.0  34274  291.50 0854.45
2009/04/23 14:42:54.4     -90    -99     -1    134    135 222.3  -0.7  34284  291.67 0854.45
2009/04/23 14:42:54.5      45    -92     -2    103    104 153.7  -1.3  34294  291.86 0854.45
2009/04/23 14:42:54.6      19    -91     -3     94     95 168.0  -2.2  34298  291.93 0854.45
2009/04/23 14:42:54.7     -25    -30    -62     40     73 219.6 -69.0  34302  291.98 0854.45
2009/04/23 14:42:54.8      39    -40    -47     56     73 135.8 -48.2  34298  291.91 0854.45
2009/04/23 14:42:54.9     -57     22    -32     62     69 291.7 -33.7  34294  291.86 0854.45
2009/04/23 14:42:55.0    -112     51    -20    124    126 294.4  -9.4  34296  291.88 0854.45
2009/04/23 14:42:55.1     -83     83     24    118    121 315.0  11.6  34308  292.10 0854.45
2009/04/23 14:42:55.2       4    140    124    141    187   1.8  45.8  34352  292.85 0854.45
2009/04/23 14:42:55.3     -23     93     73     96    120 345.7  41.2  34354  292.86 0854.45
2009/04/23 14:42:55.4      55     58     73     81    109  43.3  47.5  34340  292.63 0854.45
2009/04/23 14:42:55.5     -79    171    166    189    251 335.3  45.8  34380  293.32 0854.45
2009/04/23 14:42:55.6    -125    229    123    262    289 331.3  27.1  34394  293.56 0854.45
2009/04/23 14:42:55.7    -146    245    110    286    306 329.3  22.1  34396  293.57 0854.45
2009/04/23 14:42:55.8    -176    214     32    278    280 320.6   6.7  34384  293.37 0854.45
2009/04/23 14:42:55.9     -80    189     78    206    220 337.1  21.5  34388  293.46 0854.45
2009/04/23 14:42:56.0    -127    137    109    188    217 317.2  32.7  34388  293.44 0854.45
2009/04/23 14:42:56.1     -90     74     64    117    133 309.5  31.4  34390  293.48 0854.45
2009/04/23 14:42:56.2     -46     52    107     70    127 318.6  64.1  34394  293.55 0854.45
2009/04/23 14:42:56.3    -153     43    134    160    208 285.9  44.1  34398  293.62 0854.45
2009/04/23 14:42:56.4     -91    160     91    185    206 330.4  28.0  34362  293.00 0854.45
2009/04/23 14:42:56.5     -76    105     21    130    132 324.0   9.5  34348  292.78 0854.45
2009/04/23 14:42:56.6     -11     56     88     58    105 348.4  64.1  34382  293.34 0854.45
2009/04/23 14:42:56.7    -102     19    107    104    149 281.0  50.7  34400  293.67 0854.45
2009/04/23 14:42:56.8     -38    -78    105     87    136 206.3  56.3  34404  293.74 0854.45
2009/04/23 14:42:56.9      45     13     90     47    101  73.2  70.4  34398  293.63 0854.45
2009/04/23 14:42:57.0      75     43     86     87    122  59.8  50.0  34374  293.21 0854.45
2009/04/23 14:42:57.1     148     36     95    153    180  76.3  35.0  34346  292.73 0854.45
2009/04/23 14:42:57.2     160     18    106    162    193  83.4  35.7  34324  292.37 0854.41
2009/04/23 14:42:57.3      99     96     17    139    141  46.0   7.1  34332  292.49 0854.41
2009/04/23 14:42:57.4      49    124    -22    134    136  21.9  -9.3  34368  293.12 0854.41
2009/04/23 14:42:57.5      26     92     18     96     98  16.0  10.6  34374  293.21 0854.41
2009/04/23 14:42:57.6       0     48      6     49     50 359.1   8.0  34372  293.17 0854.41
2009/04/23 14:42:57.7      61      1     59     62     85  88.3  49.0  34388  293.44 0854.41
2009/04/23 14:42:57.8     168     22     33    170    174  82.3  11.0  34398  293.63 0854.41
2009/04/23 14:42:57.9     248     52     28    254    256  78.1   6.5  34370  293.15 0854.41
2009/04/23 14:42:58.0     191     65     71    202    215  71.2  19.4  34352  292.83 0854.41
2009/04/23 14:42:58.1     165     86    107    187    215  62.5  32.1  34348  292.78 0854.41
2009/04/23 14:42:58.2     159     87    126    182    221  61.4  37.8  34342  292.66 0854.41
2009/04/23 14:42:58.3      -2    -36    146     37    150 184.4  85.9  34394  293.55 0854.41
2009/04/23 14:42:58.4     -39    -17    112     43    119 245.6  78.6  34378  293.27 0854.41
2009/04/23 14:42:58.5    -105    -33    112    111    157 252.7  50.1  34356  292.90 0854.41
2009/04/23 14:42:58.6      10    -51     83     53     98 168.4  64.6  34318  292.25 0854.41
2009/04/23 14:42:58.7      -1   -128     87    129    155 180.5  37.0  34294  291.86 0854.41
2009/04/23 14:42:58.8      14   -160    139    161    212 174.7  45.6  34298  291.93 0854.41
2009/04/23 14:42:58.9      -8   -158    173    159    234 183.1  52.7  34298  291.93 0854.41
2009/04/23 14:42:59.0      -2   -106    153    107    186 181.4  61.5  34306  292.05 0854.41
2009/04/23 14:42:59.1      10    -45    124     47    132 166.6  79.1  34314  292.18 0854.41
2009/04/23 14:42:59.2       9    -83    154     84    175 173.3  68.9  34304  292.03 0854.43
2009/04/23 14:42:59.3      -6   -111    192    112    222 183.1  67.0  34296  291.88 0854.43
2009/04/23 14:42:59.4      -1    -66    162     67    175 180.9  76.6  34308  292.10 0854.43
2009/04/23 14:42:59.5      39     26    106     48    116  55.8  73.5  34320  292.29 0854.43
2009/04/23 14:42:59.6      -7    -17    128     19    129 201.8  90.0  34316  292.23 0854.43
2009/04/23 14:42:59.7      28   -185    127    188    226 171.3  37.3  34300  291.95 0854.43
2009/04/23 14:42:59.8      37   -182    161    186    246 168.2  45.4  34302  291.98 0854.43
2009/04/23 14:42:59.9     127   -111    125    169    210 131.1  40.1  34314  292.20 0854.43
2009/04/23 14:43:00.0     151    -35    143    156    211 103.3  47.5  34330  292.47 0854.43
2009/04/23 14:43:00.1     108    -32    153    113    190 106.8  60.0  34320  292.29 0854.43
2009/04/23 14:43:00.2     106   -127    130    166    210 140.1  42.2  34306  292.05 0854.43
2009/04/23 14:43:00.3      49    -23    117     55    129 115.4  72.9  34322  292.32 0854.43
2009/04/23 14:43:00.4     -43     85    107     96    143 332.8  53.3  34330  292.46 0854.43
2009/04/23 14:43:00.5     -16    112     93    114    147 351.9  43.7  34324  292.37 0854.43
2009/04/23 14:43:00.7     -12    121     62    122    136 354.2  29.2  34316  292.22 0854.43
2009/04/23 14:43:00.7      37    113     75    120    141  18.3  35.5  34316  292.22 0854.43
2009/04/23 14:43:00.9      30     65     80     72    107  25.3  53.3  34320  292.30 0854.43
2009/04/23 14:43:01.0      25    116     59    119    132  12.5  27.8  34324  292.35 0854.43
2009/04/23 14:43:01.0      60    143     56    156    165  22.7  20.2  34336  292.56 0854.43
2009/04/23 14:43:01.1     -78    156     88    175    195 333.3  28.7  34334  292.54 0854.43
2009/04/23 14:43:01.2     -10    198     44    199    204 357.1  12.6  34364  293.05 0854.42
2009/04/23 14:43:01.3      13    171     58    172    182   4.4  18.9  34378  293.29 0854.42
2009/04/23 14:43:01.4     -20    142    111    144    181 352.0  41.7  34362  293.02 0854.42
2009/04/23 14:43:01.5       0    143    105    144    178 359.6  39.7  34358  292.95 0854.42
2009/04/23 14:43:01.6     -26    126    159    129    204 348.0  56.6  34356  292.90 0854.42
2009/04/23 14:43:01.7     -43     22     94     49    106 297.1  70.4  34362  293.00 0854.42
2009/04/23 14:43:01.8     -30      0     70     31     76 270.8  75.0  34372  293.17 0854.42
2009/04/23 14:43:01.9     -20     57     47     61     77 340.8  42.7  34372  293.17 0854.42
2009/04/23 14:43:02.0      19     93      4     95     96  11.6   2.9  34360  292.98 0854.42
2009/04/23 14:43:02.1     -24    130     57    133    144 349.3  24.6  34364  293.05 0854.42
2009/04/23 14:43:02.2     125     -1    128    126    179  90.9  50.1  34376  293.24 0854.42
2009/04/23 14:43:02.3     148     71     85    165    185  64.5  29.3  34406  293.77 0854.42
2009/04/23 14:43:02.4     154     75     57    172    182  64.0  18.6  34412  293.85 0854.42
2009/04/23 14:43:02.5     199     66    109    210    236  71.6  29.3  34406  293.77 0854.42
2009/04/23 14:43:02.6     164    144    105    219    242  48.6  27.4  34408  293.80 0854.42
2009/04/23 14:43:02.7     152     83      8    174    175  61.4   2.8  34402  293.68 0854.42
2009/04/23 14:43:02.8     255     71     24    265    267  74.3   5.2  34400  293.64 0854.42
2009/04/23 14:43:03.0     214     56    142    222    263  75.4  35.6  34402  293.68 0854.42
2009/04/23 14:43:03.1     250     22    287    252    381  84.8  54.3  34370  293.14 0854.42
2009/04/23 14:43:03.1     333     86    162    344    380  75.5  27.1  34348  292.77 0854.42
2009/04/23 14:43:03.2     296    187    127    351    373  57.7  20.9  34318  292.25 0854.43
2009/04/23 14:43:03.3     252    118    193    279    339  64.8  38.0  34312  292.14 0854.43
2009/04/23 14:43:03.4     319    112    161    339    375  70.6  27.2  34322  292.34 0854.43
2009/04/23 14:43:03.6     356    188     84    403    412  62.1  11.8  34340  292.64 0854.43
2009/04/23 14:43:03.7     278    163    120    323    344  59.5  21.3  34332  292.48 0854.43
2009/04/23 14:43:03.8     295    123    162    320    358  67.3  29.1  34338  292.61 0854.43
2009/04/23 14:43:03.9     374    123     35    394    396  71.7   5.1  34304  292.03 0854.43
2009/04/23 14:43:04.0     338    121     59    360    365  70.3   9.3  34332  292.48 0854.43
2009/04/23 14:43:04.1     432    198    134    476    495  65.4  15.8  34342  292.67 0854.43
2009/04/23 14:43:04.2     395    220    152    453    479  60.8  18.6  34364  293.04 0854.43
2009/04/23 14:43:04.3     414    221    188    470    506  61.9  23.0  34364  293.04 0854.43
2009/04/23 14:43:04.4     414     18    339    415    535  87.4  43.5  34372  293.19 0854.43
2009/04/23 14:43:04.5     385    -34    261    387    466  95.2  37.3  34366  293.08 0854.43
2009/04/23 14:43:04.6     324    -83    242    335    413 104.4  39.5  34346  292.75 0854.43
2009/04/23 14:43:04.7     197   -131    203    237    312 123.7  45.1  34322  292.31 0854.43
2009/04/23 14:43:04.8     218   -183    210    285    354 130.0  40.0  34290  291.79 0854.43
2009/04/23 14:43:04.9     269   -151    173    309    354 119.3  31.7  34312  292.14 0854.43
2009/04/23 14:43:05.0     145   -183    102    234    255 141.5  25.1  34328  292.41 0854.43
2009/04/23 14:43:05.1     183    -81     96    201    222 114.0  27.2  34330  292.47 0854.43
2009/04/23 14:43:05.2      35   -192     96    196    218 169.5  28.0  34362  293.00 0854.43
2009/04/23 14:43:05.3     -49   -262    119    267    292 190.7  25.3  34368  293.10 0854.40
2009/04/23 14:43:05.4      -9   -194    237    195    306 182.7  56.4  34364  293.03 0854.40
2009/04/23 14:43:05.5     -60   -232    249    240    345 194.7  51.2  34378  293.28 0854.40
2009/04/23 14:43:05.6     -66   -172    189    185    264 201.2  50.7  34384  293.39 0854.40
2009/04/23 14:43:05.7      65   -214    214    224    309 163.0  49.0  34380  293.32 0854.40
2009/04/23 14:43:05.8    -143   -300    265    333    425 205.5  42.7  34418  293.96 0854.40
2009/04/23 14:43:05.9    -182   -354    157    399    428 207.2  22.7  34392  293.51 0854.40
2009/04/23 14:43:06.0      53   -393    258    397    473 172.2  36.0  34356  292.91 0854.40
2009/04/23 14:43:06.1    -132   -239    214    274    347 209.0  42.1  34352  292.82 0854.40
2009/04/23 14:43:06.2       9   -126    190    127    228 175.5  63.4  34368  293.10 0854.40
2009/04/23 14:43:06.3      -1    -98    124     99    158 180.9  57.5  34346  292.75 0854.40
2009/04/23 14:43:06.4     131   -172    168    217    274 142.6  41.7  34294  291.85 0854.40
2009/04/23 14:43:06.5       4   -186    251    187    313 178.6  59.7  34324  292.36 0854.40
2009/04/23 14:43:06.6     -24   -328    238    329    406 184.2  39.5  34312  292.17 0854.40
2009/04/23 14:43:06.7     -61   -350    262    356    442 190.0  40.0  34320  292.28 0854.40
2009/04/23 14:43:06.8     -45   -288    272    292    399 188.9  47.9  34328  292.41 0854.40
2009/04/23 14:43:06.9    -126   -183    175    223    283 214.5  42.2  34320  292.30 0854.40
2009/04/23 14:43:07.0    -237   -196    123    308    331 230.4  23.0  34326  292.40 0854.40
2009/04/23 14:43:07.1    -325     26   -114    327    347 274.6 -19.3  34298  291.90 0854.40
2009/04/23 14:43:07.2    -296    -61   -247    303    390 258.3 -47.8  34266  291.37 0854.40
2009/04/23 14:43:07.3    -259     32   -210    262    335 277.1 -47.3  34284  291.67 0854.36
2009/04/23 14:43:07.4     -51    -42   -100     67    120 230.5 -67.1  34282  291.64 0854.36
2009/04/23 14:43:07.5      83   -190     11    208    209 156.3   3.1  34284  291.67 0854.36
2009/04/23 14:43:07.6      58   -114     53    129    139 152.8  23.1  34332  292.49 0854.36
2009/04/23 14:43:07.7     -16   -207    109    208    234 184.5  29.8  34332  292.51 0854.36
2009/04/23 14:43:07.8     -18   -247    116    248    273 184.2  27.1  34346  292.72 0854.36
2009/04/23 14:43:07.9     -23   -304    114    305    325 184.4  21.4  34322  292.31 0854.36
2009/04/23 14:43:08.0    -128   -255      4    286    287 206.7   1.0  34302  291.99 0854.36
2009/04/23 14:43:08.1     -13   -208    -74    209    222 183.6 -19.6  34304  292.03 0854.36
2009/04/23 14:43:08.2      24   -225    -77    227    240 173.8 -18.9  34296  291.87 0854.36
2009/04/23 14:43:08.3      33   -147     80    151    170 167.1  30.1  34308  292.08 0854.36
2009/04/23 14:43:08.4      14   -183    147    184    235 175.5  42.7  34330  292.47 0854.36
2009/04/23 14:43:08.5       3   -210    149    211    258 179.0  38.8  34334  292.53 0854.36
2009/04/23 14:43:08.6       0   -245     94    246    263 180.1  22.0  34310  292.13 0854.36
2009/04/23 14:43:08.7      57   -236     16    243    244 166.2   3.9  34304  292.01 0854.36
2009/04/23 14:43:08.8      21   -278     95    279    296 175.6  18.9  34290  291.78 0854.36
2009/04/23 14:43:08.9      38   -270     69    273    282 171.9  14.2  34290  291.78 0854.36
2009/04/23 14:43:09.0      79   -192     27    208    210 157.5   7.5  34282  291.64 0854.36
2009/04/23 14:43:09.1     -11   -220    -56    221    229 182.9 -14.3  34284  291.67 0854.36
2009/04/23 14:43:09.2      16   -372     -3    373    374 177.4  -0.6  34284  291.69 0854.36
2009/04/23 14:43:09.3     -11   -182     81    183    200 183.6  25.3  34302  291.98 0854.36
2009/04/23 14:43:09.4     -44   -167    123    173    212 194.9  38.8  34318  292.25 0854.36
2009/04/23 14:43:09.5    -105   -183     98    212    233 209.9  27.1  34298  291.91 0854.36
2009/04/23 14:43:09.6      -5    -82    149     83    170 183.6  68.5  34334  292.54 0854.36
2009/04/23 14:43:09.7     -22   -110    137    113    177 191.6  56.3  34356  292.92 0854.36
2009/04/23 14:43:09.8       8   -105    136    106    172 175.6  57.9  34368  293.10 0854.36
2009/04/23 14:43:09.9       0    -16    101     17    102 182.7  90.0  34374  293.21 0854.36
2009/04/23 14:43:10.0      85    -28    110     90    142 108.6  56.4  34360  292.98 0854.36
2009/04/23 14:43:10.1     130    -94     73    161    176 126.0  26.2  34288  291.76 0854.36
2009/04/23 14:43:10.2     159   -155     43    223    228 134.2  11.1  34276  291.55 0854.36
2009/04/23 14:43:10.3     171   -132     26    217    219 127.8   6.9  34288  291.74 0854.36
2009/04/23 14:43:10.4     184    -89     70    205    217 115.8  18.9  34296  291.89 0854.36
2009/04/23 14:43:10.5     178   -115     92    212    231 122.9  25.1  34304  292.01 0854.36
2009/04/23 14:43:10.6     121    -52    105    132    168 113.5  42.7  34350  292.81 0854.36
2009/04/23 14:43:10.7     123    -63     84    139    162 117.0  34.2  34350  292.80 0854.36
2009/04/23 14:43:10.8     159    -54    167    168    236 108.8  50.0  34338  292.61 0854.36
2009/04/23 14:43:10.9     165    -94    101    191    216 119.8  30.1  34298  291.93 0854.36
2009/04/23 14:43:11.0     140     -6    107    141    177  92.6  41.2  34362  293.02 0854.36
2009/04/23 14:43:11.1     109     49    115    120    166  65.6  49.0  34402  293.68 0854.36
2009/04/23 14:43:11.2     136     27    141    139    197  78.6  50.2  34406  293.75 0854.36
2009/04/23 14:43:11.3     176      0    114    177    210  90.0  35.6  34352  292.83 0854.37
2009/04/23 14:43:11.4     135     48     96    144    173  70.5  36.5  34370  293.14 0854.37
2009/04/23 14:43:11.5     190     62    109    201    228  71.8  31.0  34370  293.15 0854.37
2009/04/23 14:43:11.6     190     62    153    201    252  71.8  41.2  34380  293.32 0854.37
2009/04/23 14:43:11.7     240    106    137    263    296  66.0  29.8  34374  293.20 0854.37
2009/04/23 14:43:11.8     245    165    109    296    315  55.9  21.1  34376  293.23 0854.37
2009/04/23 14:43:11.9     266    131     80    297    308  63.8  15.2  34382  293.34 0854.37
2009/04/23 14:43:12.0     136    136    165    193    253  44.8  44.8  34396  293.59 0854.37
2009/04/23 14:43:12.1     187     57    189    196    272  72.9  49.0  34396  293.59 0854.37
2009/04/23 14:43:12.2     106      3    150    107    184  88.3  61.1  34416  293.92 0854.37
2009/04/23 14:43:12.3     154     86    154    177    234  60.9  45.6  34368  293.12 0854.37
2009/04/23 14:43:12.4     153     31    157    157    222  78.5  50.1  34372  293.19 0854.37
2009/04/23 14:43:12.5     210      9    124    211    244  87.4  33.4  34414  293.90 0854.37
2009/04/23 14:43:12.6     242     33     72    245    256  82.1  16.4  34444  294.39 0854.37
2009/04/23 14:43:12.7     195     92    100    216    238  64.8  26.6  34448  294.49 0854.37
2009/04/23 14:43:12.8     173     71    180    188    260  67.6  48.7  34446  294.43 0854.37
2009/04/23 14:43:12.9     152     21    199    154    251  82.1  58.4  34428  294.13 0854.37
2009/04/23 14:43:13.0      97    -25    156    101    185 104.6  64.6  34432  294.21 0854.37
2009/04/23 14:43:13.1     107    -14    173    108    203  97.5  64.9  34426  294.09 0854.37
2009/04/23 14:43:13.2     101     -7    188    102    213  94.4  69.1  34460  294.68 0854.37
2009/04/23 14:43:13.3     170    -41    172    175    245 103.7  49.8  34478  294.98 0854.38
2009/04/23 14:43:13.4      43   -159    145    165    219 164.6  45.8  34348  292.78 0854.38
2009/04/23 14:43:13.5     160    -17    154    161    222  96.2  48.7  34472  294.88 0854.38
2009/04/23 14:43:13.6      77    -85    154    115    192 137.7  59.8  34478  295.00 0854.38
2009/04/23 14:43:13.7     -15   -236    166    237    289 183.8  38.5  34326  292.38 0854.38
2009/04/23 14:43:13.8      41   -297    163    301    342 172.0  30.8  34262  291.32 0854.38
2009/04/23 14:43:13.9      19   -376    164    377    411 177.0  25.1  34258  291.23 0854.38
2009/04/23 14:43:14.0       5   -281    197    282    343 178.9  38.5  34272  291.46 0854.38
2009/04/23 14:43:14.1     -32   -310    270    312    412 186.0  45.4  34298  291.93 0854.38
2009/04/23 14:43:14.2     -61   -275    259    282    382 192.5  47.5  34278  291.59 0854.38
2009/04/23 14:43:14.3     193   -311    275    367    458 148.1  40.6  34272  291.46 0854.38
2009/04/23 14:43:14.4      56    -54    190     78    205 134.1  76.6  34284  291.69 0854.38
2009/04/23 14:43:14.5      32   -300    268    302    403 173.8  46.2  34268  291.40 0854.38
2009/04/23 14:43:14.6     -52   -348    270    352    443 188.6  41.5  34264  291.33 0854.38
2009/04/23 14:43:14.7      86   -314    130    326    350 164.6  23.0  34262  291.32 0854.38
2009/04/23 14:43:14.8      -6   -262    122    263    289 181.4  27.0  34254  291.16 0854.38
2009/04/23 14:43:14.9     -32   -232     87    235    250 188.0  21.0  34262  291.31 0854.38
2009/04/23 14:43:15.0      49   -135     66    144    158 160.0  26.2  34260  291.28 0854.38
2009/04/23 14:43:15.1      88   -125     90    154    178 144.8  32.9  34264  291.33 0854.38
2009/04/23 14:43:15.2      86    -36     73     94    119 113.1  41.7  34268  291.40 0854.38
2009/04/23 14:43:15.3      33     12     78     36     85  70.0  73.5  34262  291.30 0854.40
2009/04/23 14:43:15.4     -32    -64     36     72     80 207.2  28.7  34268  291.42 0854.40
2009/04/23 14:43:15.5       0    -68    -86     69    110 180.0 -60.8  34266  291.37 0854.40
2009/04/23 14:43:15.6       5      0   -137      6    137  94.4 -90.0  34268  291.42 0854.40
2009/04/23 14:43:15.7      -2     -7    -83      8     83 198.5 -90.0  34264  291.35 0854.40
2009/04/23 14:43:15.8     -52     19    -38     56     67 290.0 -42.0  34268  291.42 0854.40
2009/04/23 14:43:15.9     -30    -89    -27     94     97 198.7 -21.2  34262  291.32 0854.40
2009/04/23 14:43:16.0       0    -66   -168     67    180 180.0 -81.5  34286  291.72 0854.40
2009/04/23 14:43:16.1      14    -73   -164     75    180 168.5 -78.2  34302  292.00 0854.40
2009/04/23 14:43:16.2      12     16   -120     21    121  36.1 -90.0  34314  292.20 0854.40
2009/04/23 14:43:16.3     160     41   -126    166    208  75.4 -45.6  34314  292.18 0854.40
2009/04/23 14:43:16.4     114     68    -86    133    158  59.3 -40.4  34310  292.12 0854.40
2009/04/23 14:43:16.5     130    113    -20    173    175  49.1  -6.7  34310  292.13 0854.40
2009/04/23 14:43:16.6      57    127     -2    140    141  24.1  -1.2  34318  292.25 0854.40
2009/04/23 14:43:16.7      36     36      3     52     53  45.1   3.8  34318  292.25 0854.40
2009/04/23 14:43:16.8     208    114     28    238    240  61.1   6.9  34312  292.14 0854.40
2009/04/23 14:43:16.9     169    130     61    214    223  52.3  16.0  34314  292.18 0854.40
2009/04/23 14:43:17.0     136     28     58    140    151  78.1  23.6  34308  292.10 0854.40
2009/04/23 14:43:17.1      90     -5     46     91    101  93.5  28.7  34308  292.10 0854.40
2009/04/23 14:43:17.2     -17    -13     85     22     87 232.2  85.4  34336  292.56 0854.40
2009/04/23 14:43:17.3     142     42     97    149    177  73.6  36.0  34316  292.23 0854.42
2009/04/23 14:43:17.4     140     28    118    143    185  78.5  43.7  34314  292.20 0854.42
2009/04/23 14:43:17.5      84     16     67     86    109  79.0  42.2  34292  291.83 0854.42
2009/04/23 14:43:17.6      55      7    105     56    119  82.1  69.8  34276  291.54 0854.42
2009/04/23 14:43:17.7      26     31     62     41     74  39.6  64.6  34292  291.81 0854.42
2009/04/23 14:43:17.8     -25     -1     87     26     90 267.4  83.3  34288  291.74 0854.42
2009/04/23 14:43:17.9      18     31     85     37     92  30.7  75.0  34296  291.88 0854.42
2009/04/23 14:43:18.0      60     25     95     66    115  67.4  62.1  34286  291.71 0854.42
2009/04/23 14:43:18.1      55     12    102     57    116  77.6  68.8  34294  291.86 0854.42
2009/04/23 14:43:18.2      36     12    110     38    116  71.4  81.2  34308  292.08 0854.42
2009/04/23 14:43:18.3       6     -6     86      9     86 135.0  90.0  34322  292.34 0854.42
2009/04/23 14:43:18.4      18      3     81     19     83  78.5  86.9  34328  292.44 0854.42
2009/04/23 14:43:18.5       2     28     76     29     81   4.4  78.6  34318  292.27 0854.42
2009/04/23 14:43:18.6      -8     23     79     25     82 340.0  81.8  34320  292.30 0854.42
2009/04/23 14:43:18.7     -76    -10     66     77    101 262.1  44.8  34298  291.91 0854.42
2009/04/23 14:43:18.8    -110     15     79    112    137 277.9  39.1  34304  292.01 0854.42
2009/04/23 14:43:18.9     -64     19     43     67     79 286.8  36.0  34308  292.10 0854.42
2009/04/23 14:43:19.0      -3     10     46     11     47 341.5  86.9  34308  292.10 0854.42
2009/04/23 14:43:19.1     -12      4     44     13     45 288.6  82.8  34308  292.10 0854.42
2009/04/23 14:43:19.2     -64      0     43     65     77 270.8  35.6  34306  292.06 0854.42
2009/04/23 14:43:19.3     -43     -3     10     44     46 264.8  13.2  34294  291.84 0854.45
2009/04/23 14:43:19.4    -101    -92     62    137    150 227.8  26.2  34276  291.55 0854.45
2009/04/23 14:43:19.5     -87      1     74     88    114 271.3  43.8  34284  291.67 0854.45
2009/04/23 14:43:19.6    -170     32     11    174    175 280.8   3.6  34270  291.45 0854.45
2009/04/23 14:43:19.7    -125     14    -16    126    128 276.6  -7.3  34258  291.23 0854.45
2009/04/23 14:43:19.8     -47     59     39     76     85 321.3  29.3  34272  291.49 0854.45
2009/04/23 14:43:19.9     -18     -6     84     19     86 251.4  88.0  34286  291.72 0854.45
2009/04/23 14:43:20.0       0     -7     80      8     80 184.5  90.0  34292  291.83 0854.45
2009/04/23 14:43:20.1      53     27     84     60    103  62.9  61.1  34294  291.86 0854.45
2009/04/23 14:43:20.2      15     -8    132     18    133 118.9  90.0  34310  292.12 0854.45
2009/04/23 14:43:20.3       8   -261    207    262    333 178.2  42.3  34286  291.70 0854.48
2009/04/23 14:43:20.4      51   -238    237    244    340 167.7  49.2  34294  291.85 0854.48
2009/04/23 14:43:20.5     131   -174    233    218    319 143.0  52.1  34304  292.02 0854.48
2009/04/23 14:43:20.6      88    -10    189     89    208  96.6  73.1  34344  292.69 0854.48
2009/04/23 14:43:20.7      26     -8    177     28    179 108.6  90.0  34348  292.76 0854.48
2009/04/23 14:43:20.8      10    -54    233     55    239 169.3  86.9  34318  292.27 0854.48
2009/04/23 14:43:20.9      18   -124    238    126    269 171.5  69.9  34302  291.98 0854.48
2009/04/23 14:43:21.0     -44   -311    185    315    365 188.1  33.3  34298  291.90 0854.48
2009/04/23 14:43:21.1     -12   -333    206    334    392 182.1  34.4  34306  292.05 0854.48
2009/04/23 14:43:21.2       0   -337    159    338    373 180.1  27.1  34304  292.02 0854.48
2009/04/23 14:43:21.3       8   -280    134    281    311 178.2  27.2  34302  291.99 0854.48
2009/04/23 14:43:21.4      -6   -215    136    216    255 181.8  35.5  34314  292.19 0854.48
2009/04/23 14:43:21.5    -116   -222    189    251    314 207.6  40.9  34310  292.13 0854.48
2009/04/23 14:43:21.6    -161   -223    269    276    385 215.8  49.3  34334  292.54 0854.48
2009/04/23 14:43:21.7    -256   -173    225    310    383 235.9  39.7  34346  292.75 0854.48
2009/04/23 14:43:21.8    -152   -216    108    265    286 215.1  23.4  34338  292.60 0854.48
2009/04/23 14:43:21.9     -63   -100    115    119    165 212.5  49.2  34360  292.97 0854.48
2009/04/23 14:43:22.0     214     75     94    227    245  70.7  24.1  34354  292.86 0854.48
2009/04/23 14:43:22.1     226     31    136    229    266  82.0  33.5  34352  292.84 0854.48
2009/04/23 14:43:22.2     103    -97    159    142    213 133.1  53.7  34322  292.34 0854.48
2009/04/23 14:43:22.3     239   -104    184    261    319 113.5  38.7  34326  292.38 0854.48
2009/04/23 14:43:22.4     106   -171    169    202    263 148.1  43.8  34282  291.65 0854.48
2009/04/23 14:43:22.5      33   -236    140    239    276 172.0  33.1  34278  291.58 0854.48
2009/04/23 14:43:22.6     -20   -155     99    157    185 187.6  35.5  34278  291.59 0854.48
2009/04/23 14:43:22.7      52   -147     48    157    165 160.4  17.1  34314  292.20 0854.48
2009/04/23 14:43:22.8      68    -37     35     78     85 118.9  25.7  34316  292.23 0854.48
2009/04/23 14:43:22.9      47    -38    -19     61     63 128.6 -23.8  34324  292.35 0854.48
2009/04/23 14:43:23.0     149     10    -73    150    166  86.1 -31.8  34326  292.39 0854.48
2009/04/23 14:43:23.1     262    109    -49    284    289  67.4  -9.8  34288  291.75 0854.48
2009/04/23 14:43:23.2     212     50     24    218    220  76.7   6.5  34290  291.77 0854.48
2009/04/23 14:43:23.3     108    115      9    158    159  43.2   3.3  34284  291.69 0854.48
2009/04/23 14:43:23.4      41    152     39    158    163  15.2  13.9  34294  291.84 0854.48
2009/04/23 14:43:23.5      23     98     70    101    122  13.4  38.0  34308  292.08 0854.48
2009/04/23 14:43:23.6      28     50    104     58    119  29.9  68.8  34318  292.27 0854.48
2009/04/23 14:43:23.7    -144    -33     55    148    157 256.8  21.3  34310  292.13 0854.48
2009/04/23 14:43:23.8    -160    -32     29    164    167 258.6  10.1  34310  292.12 0854.48
2009/04/23 14:43:23.9    -190      3     41    191    196 271.0  12.2  34310  292.13 0854.48
2009/04/23 14:43:24.0    -133     35     11    138    139 285.1   4.9  34312  292.15 0854.48
2009/04/23 14:43:24.1     -73     26     86     78    116 290.0  52.7  34328  292.42 0854.48
2009/04/23 14:43:24.2      18     20    100     28    103  41.4  83.9  34318  292.27 0854.48
2009/04/23 14:43:24.3     -59     61     71     85    110 315.9  43.8  34318  292.25 0854.49
2009/04/23 14:43:24.4    -117    104     54    157    167 311.6  19.2  34324  292.35 0854.49
2009/04/23 14:43:24.5    -120     82     -4    146    147 304.2  -1.8  34324  292.35 0854.49
2009/04/23 14:43:24.6    -118     84    -13    146    147 305.5  -5.2  34326  292.40 0854.49
2009/04/23 14:43:24.7    -110     47     54    120    131 293.1  26.2  34324  292.37 0854.49
2009/04/23 14:43:24.8     -96     85     51    129    138 311.3  23.0  34322  292.32 0854.49
2009/04/23 14:43:24.9     -49    103     21    115    117 334.7  10.6  34324  292.37 0854.49
2009/04/23 14:43:25.0     -67     82     21    107    110 320.8  11.1  34320  292.29 0854.49
2009/04/23 14:43:25.1    -122     62     28    138    141 297.0  11.6  34320  292.29 0854.49
2009/04/23 14:43:25.2    -215     26     79    217    230 277.0  20.7  34326  292.39 0854.49
2009/04/23 14:43:25.3    -190     63     56    201    209 288.4  15.6  34322  292.34 0854.49
2009/04/23 14:43:25.4    -157     -7     61    158    169 267.4  22.0  34348  292.78 0854.49
2009/04/23 14:43:25.5    -207     22    145    209    254 276.2  38.5  34396  293.57 0854.49
2009/04/23 14:43:25.6    -237    -70     26    248    250 253.6   6.1  34384  293.37 0854.49
2009/04/23 14:43:25.7    -214    -61     99    223    243 254.1  25.7  34416  293.93 0854.49
2009/04/23 14:43:25.8    -218    -69    140    229    268 252.3  34.4  34418  293.95 0854.49
2009/04/23 14:43:25.9    -198    -86    151    216    263 246.5  38.5  34386  293.40 0854.49
2009/04/23 14:43:26.0    -106   -113    139    156    208 223.2  46.4  34380  293.33 0854.49
2009/04/23 14:43:26.1    -115   -128    206    173    269 221.9  56.1  34390  293.49 0854.49
2009/04/23 14:43:26.2    -220   -157    196    271    334 234.5  39.5  34380  293.32 0854.49
2009/04/23 14:43:26.3     -59   -210    184    219    286 195.8  44.1  34324  292.36 0854.51
2009/04/23 14:43:26.4     -16   -164    187    165    249 185.8  54.2  34310  292.13 0854.51
2009/04/23 14:43:26.5      10   -136    136    137    193 175.5  50.2  34310  292.12 0854.51
2009/04/23 14:43:26.6      67   -222    112    233    258 163.1  27.3  34320  292.28 0854.51
2009/04/23 14:43:26.7     174   -226     55    286    292 142.4  11.0  34286  291.70 0854.51
2009/04/23 14:43:26.8     136   -227    184    265    322 149.0  38.0  34288  291.75 0854.51
2009/04/23 14:43:26.9     122   -270    237    297    379 155.7  42.7  34288  291.73 0854.51
2009/04/23 14:43:27.0     217   -241    196    325    379 138.1  34.0  34282  291.66 0854.51
2009/04/23 14:43:27.1     183   -183    153    259    300 135.0  33.5  34280  291.60 0854.51
2009/04/23 14:43:27.2     160   -236    204    286    351 145.8  39.1  34274  291.52 0854.51
2009/04/23 14:43:27.3     263   -191    216    326    391 126.0  36.6  34276  291.54 0854.51
2009/04/23 14:43:27.4     257    -82    113    270    292 107.7  23.8  34282  291.63 0854.51
2009/04/23 14:43:27.5     177   -121    121    215    246 124.4  32.1  34276  291.55 0854.51
2009/04/23 14:43:27.6     137   -195     52    239    245 145.0  12.4  34286  291.70 0854.51
2009/04/23 14:43:27.7     259   -426    160    499    525 148.7  17.8  34278  291.58 0854.51
2009/04/23 14:43:27.8     -13   -463    177    464    496 181.7  22.0  34272  291.47 0854.51
2009/04/23 14:43:27.9      78   -456    283    463    542 170.3  34.4  34278  291.56 0854.51
2009/04/23 14:43:28.0      81   -389    238    398    463 168.1  33.6  34280  291.62 0854.51
2009/04/23 14:43:28.1     -49   -353    211    357    414 187.9  33.4  34294  291.86 0854.51
2009/04/23 14:43:28.2     -61   -255    232    263    350 193.6  46.1  34302  291.97 0854.51
2009/04/23 14:43:28.3     -53   -440     69    444    450 186.9   8.9  34280  291.62 0854.53
2009/04/23 14:43:28.4     -59   -459     73    463    469 187.4   9.0  34286  291.70 0854.53
2009/04/23 14:43:28.5     -53   -506   -100    509    519 186.1 -11.1  34282  291.64 0854.53
2009/04/23 14:43:28.6      19   -451     11    452    453 177.5   1.5  34280  291.62 0854.53
2009/04/23 14:43:28.7     -31   -399     86    401    411 184.6  12.2  34290  291.79 0854.53
2009/04/23 14:43:28.8     -33   -370     72    372    379 185.2  11.0  34290  291.79 0854.53
2009/04/23 14:43:28.9       5   -358     94    359    372 179.2  14.7  34286  291.71 0854.53
2009/04/23 14:43:29.0      46   -594    -19    596    597 175.5  -1.9  34272  291.46 0854.53
2009/04/23 14:43:29.1      67   -472      4    477    478 171.9   0.5  34280  291.61 0854.53
2009/04/23 14:43:29.3     212   -578     31    616    617 159.8   2.9  34282  291.66 0854.53
2009/04/23 14:43:29.3     273   -471   -150    545    566 149.9 -15.4  34282  291.65 0854.53
2009/04/23 14:43:29.5     173   -298     38    345    348 149.9   6.4  34282  291.66 0854.53
2009/04/23 14:43:29.6      23   -476     97    477    488 177.2  11.6  34298  291.90 0854.53
2009/04/23 14:43:29.7     -22   -611    298    612    680 182.1  27.9  34310  292.13 0854.53
2009/04/23 14:43:29.8      10   -596    236    597    641 179.0  22.7  34310  292.13 0854.53
2009/04/23 14:43:29.9     207   -405    327    455    560 152.9  39.3  34320  292.28 0854.53
2009/04/23 14:43:30.0     431   -520    417    676    794 140.4  34.6  34270  291.45 0854.53
2009/04/23 14:43:30.1     278   -383    306    474    564 144.0  35.9  34272  291.48 0854.53
2009/04/23 14:43:30.2     185   -331    225    380    441 150.7  33.4  34278  291.57 0854.53
2009/04/23 14:43:30.3     145   -434    176    458    490 161.4  22.2  34276  291.53 0854.53
2009/04/23 14:43:30.4     -12   -399    113    400    416 181.8  15.8  34276  291.55 0854.52
2009/04/23 14:43:30.5      31   -362    -94    364    376 175.0 -14.5  34280  291.61 0854.52
2009/04/23 14:43:30.6     130   -204     -6    243    244 147.4  -1.6  34274  291.51 0854.52
2009/04/23 14:43:30.7      96   -143    -51    173    180 146.2 -21.5  34278  291.57 0854.52
2009/04/23 14:43:30.8     121    -15     30    123    127  97.5  13.7  34280  291.62 0854.52
2009/04/23 14:43:30.9     169    -16    110    170    202  95.7  35.7  34284  291.69 0854.52
2009/04/23 14:43:31.0     151    -40    114    157    194 105.1  39.5  34290  291.79 0854.52
2009/04/23 14:43:31.1      75      1     77     76    108  89.2  49.7  34284  291.69 0854.52
2009/04/23 14:43:31.2     180     71     -8    194    195  68.3  -2.6  34286  291.72 0854.52
2009/04/23 14:43:31.3     197     81    -38    214    218  67.6 -10.3  34284  291.67 0854.52
2009/04/23 14:43:31.4     148     90      7    174    175  58.5   2.3  34284  291.67 0854.52
2009/04/23 14:43:31.5     146    -34     40    150    156 103.3  15.0  34286  291.71 0854.52
2009/04/23 14:43:31.6     190     -7     31    191    194  92.1   9.3  34284  291.69 0854.52
2009/04/23 14:43:31.7     123     41     54    130    140  71.4  23.6  34286  291.72 0854.52
2009/04/23 14:43:31.8      50     65     82     83    116  37.4  50.5  34308  292.10 0854.52
2009/04/23 14:43:31.9      74     24     49     78     92  71.8  35.5  34298  291.93 0854.52
2009/04/23 14:43:32.0      74     24     54     78     94  71.8  37.6  34298  291.91 0854.52
2009/04/23 14:43:32.1      -7     94     64     95    114 355.5  36.5  34308  292.08 0854.52
2009/04/23 14:43:32.2     -29     88     55     93    108 341.7  34.0  34306  292.05 0854.52
2009/04/23 14:43:32.3     -24    139     37    142    147 350.2  14.7  34308  292.10 0854.52
2009/04/23 14:43:32.4      -5    146     34    147    151 357.8  13.2  34308  292.10 0854.56
2009/04/23 14:43:32.5     -19     70    100     73    123 344.9  60.5  34312  292.15 0854.56
2009/04/23 14:43:32.6     -23     35    116     43    123 326.6  79.2  34318  292.27 0854.56
2009/04/23 14:43:32.7    -172    171     94    243    260 314.8  22.1  34310  292.11 0854.56
2009/04/23 14:43:32.8     -99    222     47    244    249 335.9  11.1  34298  291.90 0854.56
2009/04/23 14:43:32.9     -93    146     59    174    184 327.5  18.9  34300  291.96 0854.56
2009/04/23 14:43:33.0    -134    151     39    203    207 318.5  11.0  34304  292.01 0854.56
2009/04/23 14:43:33.1    -149    -56      8    160    161 249.2   3.1  34300  291.96 0854.56
2009/04/23 14:43:33.2    -111   -124     52    167    175 221.9  17.3  34306  292.05 0854.56
2009/04/23 14:43:33.3     -46    -63    140     79    160 216.0  68.3  34328  292.44 0854.56
2009/04/23 14:43:33.4     -20     76    134     79    155 344.9  66.8  34324  292.35 0854.56
2009/04/23 14:43:33.5    -274    -25     75    276    287 264.7  15.2  34310  292.11 0854.56
2009/04/23 14:43:33.6    -237     28     60    239    247 276.8  14.3  34318  292.26 0854.56
2009/04/23 14:43:33.7     -57     79     55     98    112 324.4  31.4  34322  292.34 0854.56
2009/04/23 14:43:33.8       1    117     77    118    140   0.5  36.0  34320  292.29 0854.56
2009/04/23 14:43:33.9      -8      3    170      9    170 295.3  90.0  34328  292.44 0854.56
2009/04/23 14:43:34.0      -3     -3    285      5    285 225.0  90.0  34294  291.84 0854.56
2009/04/23 14:43:34.1      -6   -153    373    154    403 182.6  76.4  34274  291.52 0854.56
2009/04/23 14:43:34.2    -177   -177    275    251    372 225.0  52.9  34278  291.57 0854.56
2009/04/23 14:43:34.3    -187   -298    102    352    367 212.1  16.3  34278  291.57 0854.56
2009/04/23 14:43:34.4    -167   -305    -16    348    349 208.7  -2.8  34278  291.56 0854.57
2009/04/23 14:43:34.5     -16   -214     31    215    218 184.4   8.2  34278  291.57 0854.57
2009/04/23 14:43:34.6      57   -105     81    120    144 151.5  37.0  34290  291.79 0854.57
2009/04/23 14:43:34.7     171     89    137    193    236  62.5  38.8  34322  292.34 0854.57
2009/04/23 14:43:34.8     212     29    128    214    249  82.1  33.7  34304  292.02 0854.57
2009/04/23 14:43:34.9      54    -93    163    108    195 149.7  63.4  34306  292.06 0854.57
2009/04/23 14:43:35.0       7   -242    262    243    357 178.2  52.3  34292  291.82 0854.57
2009/04/23 14:43:35.1     276   -357     73    452    458 142.3   9.2  34282  291.63 0854.57
2009/04/23 14:43:35.2     299   -264    169    400    434 131.4  24.2  34274  291.52 0854.57
2009/04/23 14:43:35.3     157   -212    137    264    297 143.5  29.3  34272  291.46 0854.57
2009/04/23 14:43:35.4      75   -266    197    277    339 164.2  39.0  34276  291.55 0854.57
2009/04/23 14:43:35.5    -136   -349    158    375    406 201.3  24.2  34274  291.51 0854.57
2009/04/23 14:43:35.6    -348   -380    -16    516    517 222.4  -1.8  34276  291.54 0854.57
2009/04/23 14:43:35.7    -312   -319    -17    447    448 224.4  -2.2  34276  291.55 0854.57
2009/04/23 14:43:35.8    -328   -378    -11    501    502 221.0  -1.3  34268  291.41 0854.57
2009/04/23 14:43:35.9    -204   -565     64    601    605 199.9   6.1  34282  291.63 0854.57
2009/04/23 14:43:36.0     -38   -531   -102    533    543 184.1 -10.9  34278  291.59 0854.57
2009/04/23 14:43:36.1     139   -493    -98    513    523 164.2 -10.8  34256  291.20 0854.57
2009/04/23 14:43:36.2     238   -407   -162    472    500 149.7 -19.0  34252  291.13 0854.57
2009/04/23 14:43:36.3     120   -490    -22    505    506 166.2  -2.6  34256  291.19 0854.57
2009/04/23 14:43:36.4      39   -465   -102    467    479 175.1 -12.4  34262  291.29 0854.58
2009/04/23 14:43:36.5      23   -700    -79    701    706 178.1  -6.5  34252  291.15 0854.58
2009/04/23 14:43:36.6     265   -481    126    550    565 151.2  12.9  34232  290.80 0854.58
2009/04/23 14:43:36.7     473   -455    196    657    686 133.9  16.6  34236  290.85 0854.58
2009/04/23 14:43:36.8     408   -263    250    486    546 122.9  29.3  34216  290.52 0854.58
2009/04/23 14:43:36.9     149   -415    346    442    561 160.2  42.1  34236  290.87 0854.58
2009/04/23 14:43:37.0      -3   -758    258    759    802 180.3  18.8  34222  290.61 0854.58
2009/04/23 14:43:37.1     -85   -663    302    669    734 187.3  26.0  34206  290.35 0854.58
2009/04/23 14:43:37.2     -10   -605    302    606    677 181.0  28.5  34200  290.26 0854.58
2009/04/23 14:43:37.3     -14   -838    300    839    892 181.0  19.7  34228  290.71 0854.58
2009/04/23 14:43:37.4      12   -852    342    853    919 179.2  23.1  34212  290.47 0854.58
2009/04/23 14:43:37.5       1   -760    275    761    810 179.9  19.9  34212  290.47 0854.58
2009/04/23 14:43:37.6     -82   -816    229    821    853 185.8  15.6  34226  290.68 0854.58
2009/04/23 14:43:37.7    -245   -873    213    907    932 195.7  13.2  34226  290.70 0854.58
2009/04/23 14:43:37.8    -344   -788    124    861    871 203.6   8.2  34224  290.65 0854.58
2009/04/23 14:43:37.9    -196   -922     53    943    945 192.0   3.2  34216  290.52 0854.58
2009/04/23 14:43:38.0    -245   -827     58    863    865 196.5   3.9  34218  290.56 0854.58
2009/04/23 14:43:38.1    -304   -827    -38    882    883 200.2  -2.5  34218  290.54 0854.58
2009/04/23 14:43:38.2    -327   -855    -36    916    917 201.0  -2.3  34216  290.51 0854.58
2009/04/23 14:43:38.3    -315   -710   -202    777    803 204.0 -14.6  34218  290.56 0854.58
2009/04/23 14:43:38.4    -457   -686    -87    825    830 213.7  -6.1  34222  290.62 0854.56
2009/04/23 14:43:38.5    -598   -942    105   1116   1122 212.4   5.4  34216  290.53 0854.56
2009/04/23 14:43:38.6    -413   -670   -106    788    796 211.6  -7.7  34212  290.47 0854.56
2009/04/23 14:43:38.7    -256   -516     37    576    578 206.4   3.7  34216  290.51 0854.56
2009/04/23 14:43:38.8    -165   -138    -35    216    219 230.0  -9.4  34228  290.74 0854.56
2009/04/23 14:43:38.9    -206   -601      9    636    637 198.9   0.9  34218  290.54 0854.56
2009/04/23 14:43:39.0    -359   -381     76    524    530 223.3   8.3  34220  290.60 0854.56
2009/04/23 14:43:39.1    -398   -397    -79    563    569 225.1  -8.0  34224  290.67 0854.56
2009/04/23 14:43:39.2    -152   -208   -171    258    309 216.1 -40.9  34224  290.65 0854.56
2009/04/23 14:43:39.3    -163    -91   -197    188    272 240.7 -55.8  34212  290.44 0854.56
2009/04/23 14:43:39.4    -165   -422    147    454    478 201.4  17.9  34222  290.61 0854.56
2009/04/23 14:43:39.5    -121   -524     85    538    545 193.0   9.0  34218  290.57 0854.56
2009/04/23 14:43:39.6      17   -172   -104    173    201 174.2 -38.4  34224  290.65 0854.56
2009/04/23 14:43:39.7    -319   -180     -1    367    368 240.5  -0.2  34250  291.10 0854.56
2009/04/23 14:43:39.8     -23   -162     -6    164    165 188.2  -2.2  34240  290.92 0854.56
2009/04/23 14:43:39.9      54   -493   -236    497    550 173.7 -31.7  34224  290.67 0854.56
2009/04/23 14:43:40.0      90   -381   -179    392    430 166.6 -30.6  34198  290.21 0854.56
2009/04/23 14:43:40.1     123   -470     24    486    487 165.3   2.9  34212  290.45 0854.56
2009/04/23 14:43:40.2     141   -465   -126    487    504 163.1 -14.5  34218  290.57 0854.56
2009/04/23 14:43:40.3      23   -299   -242    300    385 175.5 -47.7  34232  290.81 0854.56
2009/04/23 14:43:40.4     469   -515    141    697    712 137.7  11.4  34214  290.49 0854.56
2009/04/23 14:43:40.5     572   -509     59    766    769 131.7   4.5  34212  290.45 0854.56
2009/04/23 14:43:40.6     569   -453    258    728    773 128.5  19.5  34222  290.62 0854.56
2009/04/23 14:43:40.7     208   -572    181    610    637 160.0  16.5  34208  290.38 0854.56
2009/04/23 14:43:40.8     260   -329    -65    420    425 141.7  -8.8  34220  290.58 0854.56
2009/04/23 14:43:40.9     386   -539     52    664    667 144.4   4.5  34218  290.56 0854.56
2009/04/23 14:43:41.0     271   -742     86    791    796 159.9   6.2  34220  290.59 0854.56
2009/04/23 14:43:41.1     408   -696    173    807    826 149.6  12.2  34214  290.48 0854.56
2009/04/23 14:43:41.2     558   -687    198    886    908 140.9  12.6  34208  290.40 0854.56
2009/04/23 14:43:41.3     569   -565    183    803    824 134.8  12.9  34208  290.40 0854.56
2009/04/23 14:43:41.4     368   -617    194    719    745 149.2  15.1  34218  290.57 0854.56
2009/04/23 14:43:41.5     231   -696    282    734    786 161.6  22.2  34214  290.48 0854.56
2009/04/23 14:43:41.6     272   -676    328    729    799 158.0  25.8  34212  290.46 0854.56
2009/04/23 14:43:41.7     290   -508    354    586    684 150.3  34.0  34216  290.52 0854.56
2009/04/23 14:43:41.8     233   -568    403    614    734 157.7  36.4  34222  290.62 0854.56
2009/04/23 14:43:41.9     320   -728    398    796    889 156.3  28.6  34214  290.49 0854.56
2009/04/23 14:43:42.0     402   -725    276    830    875 151.0  18.4  34210  290.41 0854.56
2009/04/23 14:43:42.1     507   -674    183    844    864 143.0  12.3  34206  290.34 0854.56
2009/04/23 14:43:42.2     442   -486    180    658    683 137.7  15.3  34208  290.38 0854.56
2009/04/23 14:43:42.3     393   -449    347    597    690 138.8  32.8  34210  290.41 0854.56
2009/04/23 14:43:42.4     235   -394    226    459    511 149.2  28.2  34196  290.17 0854.56
2009/04/23 14:43:42.5     237   -430    139    491    511 151.1  15.8  34222  290.61 0854.56
2009/04/23 14:43:42.6     382   -295    104    483    495 127.7  12.2  34222  290.61 0854.56
2009/04/23 14:43:42.7     460   -366     92    589    597 128.5   8.9  34216  290.53 0854.56
2009/04/23 14:43:42.8     439   -453    250    631    678 135.9  22.9  34202  290.27 0854.56
2009/04/23 14:43:42.9     127   -621    110    635    645 168.4   9.9  34208  290.37 0854.56
2009/04/23 14:43:43.0     347   -455    133    573    589 142.7  13.1  34204  290.31 0854.56
2009/04/23 14:43:43.1     269   -375    161    462    490 144.4  19.2  34212  290.45 0854.56
2009/04/23 14:43:43.2     308   -528    165    612    635 149.7  15.1  34208  290.38 0854.56
2009/04/23 14:43:43.3     305   -382     99    490    500 141.4  11.4  34218  290.56 0854.56
2009/04/23 14:43:43.4     300   -606    103    677    685 153.6   8.7  34220  290.60 0854.52
2009/04/23 14:43:43.5     407   -622    -41    744    746 146.8  -3.2  34210  290.41 0854.52
2009/04/23 14:43:43.6     228   -593    -73    636    641 159.0  -6.6  34204  290.32 0854.52
2009/04/23 14:43:43.7      51   -471    187    474    509 173.8  22.7  34212  290.45 0854.52
2009/04/23 14:43:43.8      48   -416    245    419    485 173.3  33.0  34218  290.54 0854.52
2009/04/23 14:43:43.9     -18   -408    272    409    491 182.6  36.9  34222  290.62 0854.52
2009/04/23 14:43:44.0     -26   -411    340    412    534 183.6  43.7  34222  290.62 0854.52
2009/04/23 14:43:44.1    -124   -313    302    337    452 201.7  46.5  34226  290.68 0854.52
2009/04/23 14:43:44.2     -72   -345    333    353    485 191.8  48.2  34226  290.68 0854.52
2009/04/23 14:43:44.3    -146   -310    325    343    472 205.3  48.4  34224  290.65 0854.52
2009/04/23 14:43:44.4     -30   -246    242    248    346 187.1  49.3  34226  290.68 0854.52
2009/04/23 14:43:44.5       0   -133    189    134    231 180.4  61.3  34232  290.79 0854.52
2009/04/23 14:43:44.6     -87   -288    -77    302    312 196.9 -14.4  34220  290.59 0854.52
2009/04/23 14:43:44.7     -51   -298   -117    303    324 189.7 -26.6  34226  290.70 0854.52
2009/04/23 14:43:44.8      12   -261    -90    262    277 177.3 -24.0  34220  290.59 0854.52
2009/04/23 14:43:44.9     -38   -411     -4    413    414 185.4  -0.6  34212  290.44 0854.52
2009/04/23 14:43:45.0      85   -349    -99    360    374 166.2 -15.4  34212  290.47 0854.52
2009/04/23 14:43:45.1     -27   -497      1    498    499 183.1   0.2  34212  290.44 0854.52
2009/04/23 14:43:45.2      -6   -425    167    426    457 180.9  22.7  34216  290.51 0854.52
2009/04/23 14:43:45.3      -7   -459    209    460    505 180.9  26.2  34216  290.51 0854.52
2009/04/23 14:43:45.4     -88   -394    164    404    436 192.6  23.2  34214  290.50 0854.50
2009/04/23 14:43:45.5    -102   -376    210    390    442 195.2  30.7  34210  290.43 0854.50
2009/04/23 14:43:45.6    -144   -260    271    298    402 209.0  47.0  34212  290.45 0854.50
2009/04/23 14:43:45.7    -244   -214    260    325    416 228.7  42.7  34206  290.35 0854.50
2009/04/23 14:43:45.8    -400     18    209    401    452 272.6  29.6  34206  290.36 0854.50
2009/04/23 14:43:45.9    -260    133     14    292    293 297.1   2.9  34194  290.15 0854.50
2009/04/23 14:43:46.0    -328    -65    165    335    373 258.8  28.1  34212  290.45 0854.50
2009/04/23 14:43:46.1    -501   -166   -129    528    544 251.6 -13.8  34204  290.33 0854.50
2009/04/23 14:43:46.2    -509   -318   -165    601    623 238.0 -20.1  34190  290.09 0854.50
2009/04/23 14:43:46.3    -571   -440   -152    722    738 232.4 -11.9  34188  290.06 0854.50
2009/04/23 14:43:46.4    -626   -224   -210    666    698 250.3 -22.6  34192  290.12 0854.50
2009/04/23 14:43:46.5    -910   -267   -337    949   1007 253.6 -24.7  34180  289.92 0854.50
2009/04/23 14:43:46.6   -1160    -54   -400   1162   1228 267.3 -24.3  34190  290.09 0854.50
2009/04/23 14:43:46.7    -958    -72   -402    961   1041 265.7 -28.5  34194  290.16 0854.50
2009/04/23 14:43:46.8    -817      8   -445    818    931 270.6 -35.3  34196  290.18 0854.50
2009/04/23 14:43:46.9    -812    -84   -443    817    929 264.0 -35.3  34184  289.98 0854.50
2009/04/23 14:43:47.0    -740   -104   -472    748    884 262.0 -39.7  34180  289.92 0854.50
2009/04/23 14:43:47.1    -725   -146   -505    740    895 258.6 -42.0  34200  290.24 0854.50
2009/04/23 14:43:47.2    -892   -219   -340    919    979 256.2 -25.7  34200  290.25 0854.50
2009/04/23 14:43:47.3    -741   -281   -354    793    868 249.2 -30.1  34192  290.10 0854.50
2009/04/23 14:43:47.4    -694   -352   -264    779    822 243.1 -23.8  34184  289.99 0854.50
2009/04/23 14:43:47.5    -722   -185   -378    746    836 255.6 -33.3  34194  290.14 0854.50
2009/04/23 14:43:47.6    -666    -36   -264    668    718 266.9 -27.2  34212  290.45 0854.50
2009/04/23 14:43:47.7    -584   -193   -400    615    733 251.7 -40.4  34200  290.25 0854.50
2009/04/23 14:43:47.8    -768   -168   -346    787    859 257.6 -29.6  34208  290.38 0854.50
2009/04/23 14:43:47.9    -618    -39   -223    620    660 266.4 -19.8  34212  290.45 0854.50
2009/04/23 14:43:48.0    -568   -203    -76    604    609 250.3  -7.2  34212  290.46 0854.50
2009/04/23 14:43:48.1    -395   -194   -139    441    463 243.8 -17.5  34218  290.55 0854.50
2009/04/23 14:43:48.2    -676    -17    -37    677    679 268.5  -3.1  34246  291.02 0854.50
2009/04/23 14:43:48.3    -592     36   -232    594    637 273.5 -26.9  34210  290.42 0854.50
2009/04/23 14:43:48.4    -374    -71   -255    381    458 259.2 -41.4  34218  290.56 0854.50
2009/04/23 14:43:48.5    -389   -231   -162    453    482 239.3 -19.7  34222  290.62 0854.50
2009/04/23 14:43:48.6    -183   -311   -110    362    378 210.5 -21.8  34218  290.55 0854.50
2009/04/23 14:43:48.7     -48   -317   -101    321    336 188.7 -22.6  34222  290.64 0854.50
2009/04/23 14:43:48.8    -254   -210   -161    330    367 230.4 -32.3  34222  290.62 0854.50
2009/04/23 14:43:48.9    -198   -121   -227    233    325 238.5 -53.8  34216  290.51 0854.50
2009/04/23 14:43:49.0    -152   -231   -246    277    370 213.4 -50.7  34206  290.35 0854.50
2009/04/23 14:43:49.1    -275   -157   -300    317    436 240.2 -52.6  34218  290.57 0854.50
2009/04/23 14:43:49.2    -451   -232   -263    508    572 242.7 -33.9  34206  290.36 0854.50
2009/04/23 14:43:49.3    -394   -131   -244    416    482 251.6 -37.5  34206  290.36 0854.50
2009/04/23 14:43:49.4    -351   -102   -287    366    465 253.8 -46.4  34212  290.44 0854.55
2009/04/23 14:43:49.5    -471   -205   -144    514    533 246.5 -20.2  34232  290.80 0854.55
2009/04/23 14:43:49.6    -325   -202   -138    383    408 238.1 -19.8  34238  290.89 0854.55
2009/04/23 14:43:49.7    -218   -248   -117    331    352 221.3 -19.6  34228  290.74 0854.55
2009/04/23 14:43:49.8    -124   -337     89    360    371 200.2  13.9  34216  290.52 0854.55
2009/04/23 14:43:49.9    -197     12   -155    198    251 273.5 -46.6  34222  290.61 0854.55
2009/04/23 14:43:50.0    -192   -103   -139    218    258 241.8 -39.9  34214  290.48 0854.55
2009/04/23 14:43:50.1    -142   -231   -143    272    307 211.7 -34.5  34224  290.65 0854.55
2009/04/23 14:43:50.2    -156   -156    -44    221    226 225.0 -11.5  34216  290.52 0854.55
2009/04/23 14:43:50.3    -146    -79    -99    167    194 241.6 -38.1  34224  290.67 0854.55
2009/04/23 14:43:50.4    -103    -34    -76    109    132 251.4 -42.4  34222  290.62 0854.55
2009/04/23 14:43:50.5     -88   -193    -44    213    218 204.5 -11.9  34210  290.43 0854.55
2009/04/23 14:43:50.6    -116      0     15    117    118 270.4   7.5  34218  290.57 0854.55
2009/04/23 14:43:50.7    -107    -42    -72    116    136 248.3 -39.9  34214  290.50 0854.55
2009/04/23 14:43:50.8     -80    -11    -78     81    112 261.6 -53.4  34222  290.62 0854.55
2009/04/23 14:43:50.9      37      1   -107     38    113  87.4 -85.1  34226  290.70 0854.55
2009/04/23 14:43:51.0      76     35   -131     84    155  65.2 -69.0  34218  290.57 0854.55
2009/04/23 14:43:51.1      67     20    -97     70    119  73.2 -65.0  34214  290.50 0854.55
2009/04/23 14:43:51.2      85   -110   -137    140    195 142.2 -54.3  34216  290.52 0854.55
2009/04/23 14:43:51.3     121   -139   -157    185    242 138.8 -49.2  34210  290.43 0854.55
2009/04/23 14:43:51.4     151   -159   -141    220    261 136.6 -40.0  34206  290.34 0854.49
2009/04/23 14:43:51.5     231   -159    -84    281    294 124.6 -16.6  34204  290.32 0854.49
2009/04/23 14:43:51.6     230   -100      7    251    252 113.5   1.8  34204  290.31 0854.49
2009/04/23 14:43:51.7      61   -168     86    179    198 160.0  27.4  34208  290.38 0854.49
2009/04/23 14:43:51.8     120   -205     -9    238    239 149.5  -2.2  34204  290.32 0854.49
2009/04/23 14:43:51.9     109   -213    -11    240    241 152.8  -2.8  34206  290.34 0854.49
2009/04/23 14:43:52.0      86   -340    -41    351    354 165.7  -6.8  34204  290.33 0854.49
2009/04/23 14:43:52.1     116   -559    112    572    584 168.2  11.1  34206  290.36 0854.49
2009/04/23 14:43:52.2     -36   -557    151    559    580 183.7  15.2  34210  290.42 0854.49
2009/04/23 14:43:52.3     -87   -533    110    541    553 189.3  11.6  34210  290.43 0854.49
2009/04/23 14:43:52.4      45   -620    257    622    673 175.8  23.7  34208  290.38 0854.49
2009/04/23 14:43:52.5     167   -712    422    732    844 166.8  32.6  34222  290.62 0854.49
2009/04/23 14:43:52.6       8   -827    623    828   1036 179.4  40.7  34206  290.35 0854.49
2009/04/23 14:43:52.7    -164   -846    527    862   1010 191.0  34.3  34208  290.38 0854.49
2009/04/23 14:43:52.8      13   -719    347    720    799 178.9  27.7  34202  290.30 0854.49
2009/04/23 14:43:52.9    -127   -876    396    886    970 188.3  25.8  34210  290.42 0854.49
2009/04/23 14:43:53.0    -348  -1044    144   1101   1111 198.5   7.5  34202  290.30 0854.49
2009/04/23 14:43:53.1    -481  -1018   -127   1126   1134 205.3  -6.5  34178  289.86 0854.49
2009/04/23 14:43:53.2    -379   -998   -167   1068   1082 200.8  -8.9  34188  290.05 0854.49
2009/04/23 14:43:53.3     -92  -1209   -155   1213   1223 184.4  -7.3  34174  289.80 0854.49
2009/04/23 14:43:53.4    -199   -977     57    998   1000 191.6   3.3  34178  289.87 0854.43
2009/04/23 14:43:53.5    -383   -990    -49   1062   1064 201.2  -2.7  34166  289.66 0854.43
2009/04/23 14:43:53.6    -521   -634   -159    821    837 219.4 -11.0  34168  289.72 0854.43
2009/04/23 14:43:53.7    -111   -790     93    798    804 188.0   6.7  34182  289.95 0854.43
2009/04/23 14:43:53.8      19   -817     55    818    820 178.6   3.9  34186  290.01 0854.43
2009/04/23 14:43:53.9     -39   -833    -66    835    838 182.7  -4.6  34186  290.01 0854.43
2009/04/23 14:43:54.0      10   -981   -106    982    988 179.4  -6.2  34194  290.15 0854.43
2009/04/23 14:43:54.1    -139   -908   -138    919    930 188.7  -8.6  34190  290.09 0854.43
2009/04/23 14:43:54.2    -130   -725   -263    737    783 190.2 -19.7  34184  289.97 0854.43
2009/04/23 14:43:54.3     -91   -953   -298    958   1004 185.5 -17.3  34184  289.97 0854.43
2009/04/23 14:43:54.4    -124   -965   -321    973   1025 187.4 -18.3  34192  290.12 0854.43
2009/04/23 14:43:54.5    -112   -732   -264    741    786 188.7 -24.8  34178  289.86 0854.43
2009/04/23 14:43:54.6     -77   -503   -184    509    541 188.8 -25.2  34210  290.41 0854.43
2009/04/23 14:43:54.7     -27   -777   -245    778    815 182.0 -22.5  34210  290.41 0854.43
2009/04/23 14:43:54.8      83   -893   -316    898    951 174.7 -24.6  34196  290.17 0854.43
2009/04/23 14:43:54.9    -118   -727   -222    737    769 189.2 -21.7  34164  289.65 0854.43
2009/04/23 14:43:55.0    -192   -193   -150    273    311 224.8 -35.7  34198  290.20 0854.43
2009/04/23 14:43:55.2    -243     -8   -176    244    300 268.1 -43.9  34224  290.66 0854.43
2009/04/23 14:43:55.2     -31    155    -39    159    164 348.5 -13.9  34218  290.57 0854.43
2009/04/23 14:43:55.3      22     67   -107     71    128  18.3 -68.0  34224  290.65 0854.43
2009/04/23 14:43:55.4      84    131    -95    156    182  32.6 -38.8  34216  290.53 0854.44
2009/04/23 14:43:55.5      40    -37     63     55     83 133.1  53.7  34216  290.52 0854.44
2009/04/23 14:43:55.6     -58     -4     80     59     99 265.6  60.5  34214  290.50 0854.44
2009/04/23 14:43:55.7     -48    103    -16    114    116 334.7  -8.2  34212  290.45 0854.44
2009/04/23 14:43:55.9       1    117    -43    118    125   0.5 -24.8  34214  290.50 0854.44
2009/04/23 14:43:55.9     -99     -9   -226    100    247 264.3 -79.2  34210  290.43 0854.44
2009/04/23 14:43:56.1    -183    -30   -108    186    215 260.5 -37.3  34214  290.48 0854.44
2009/04/23 14:43:56.2     -94   -151    -74    179    193 211.9 -27.8  34214  290.48 0854.44
2009/04/23 14:43:56.3       0   -151     71    152    167 180.0  27.0  34218  290.55 0854.44
2009/04/23 14:43:56.4     280   -128    128    309    334 114.6  23.8  34206  290.36 0854.44
2009/04/23 14:43:56.5     288     19    -16    289    290  86.1  -3.2  34204  290.32 0854.44
2009/04/23 14:43:56.6      19    125   -164    127    207   8.9 -62.9  34220  290.58 0854.44
2009/04/23 14:43:56.7       2    276    -87    277    291   0.5 -17.5  34202  290.27 0854.44
2009/04/23 14:43:56.8     -89    173    -96    195    217 332.6 -32.2  34210  290.43 0854.44
2009/04/23 14:43:56.9     -68    107   -100    128    162 327.4 -46.6  34214  290.50 0854.44
2009/04/23 14:43:57.0     -87     69    -27    112    116 308.6 -13.9  34216  290.52 0854.44
2009/04/23 14:43:57.1     -22     39    -76     46     88 330.1 -70.1  34222  290.64 0854.44
2009/04/23 14:43:57.2      16     47    -45     50     67  18.7 -52.3  34230  290.77 0854.44
2009/04/23 14:43:57.3    -145     41   -126    151    196 285.9 -48.5  34216  290.52 0854.44
2009/04/23 14:43:57.4    -247    106    -60    270    277 293.3 -12.6  34216  290.51 0854.44
2009/04/23 14:43:57.5     -98    183   -155    208    259 331.7 -44.8  34222  290.61 0854.36
2009/04/23 14:43:57.6       0     30   -117     31    121   0.9 -89.3  34222  290.62 0854.36
2009/04/23 14:43:57.7       0    -10    -76     11     76 184.5 -90.0  34226  290.69 0854.36
2009/04/23 14:43:57.8     -58    -13   -168     60    178 256.7 -84.1  34222  290.62 0854.36
2009/04/23 14:43:57.9      73   -220   -150    233    277 161.5 -40.0  34210  290.41 0854.36
2009/04/23 14:43:58.0     -56   -148    -72    159    174 200.9 -30.6  34218  290.55 0854.36
2009/04/23 14:43:58.1    -206   -277   -109    346    363 216.7 -17.6  34218  290.57 0854.36
2009/04/23 14:43:58.2    -241   -231   -226    334    403 226.2 -41.8  34202  290.27 0854.36
2009/04/23 14:43:58.3     -93   -196     36    218    222 205.5   9.5  34214  290.50 0854.36
2009/04/23 14:43:58.4    -150   -250    118    292    314 211.0  23.4  34216  290.53 0854.36
2009/04/23 14:43:58.5    -234   -201     35    309    312 229.3   6.6  34216  290.53 0854.36
2009/04/23 14:43:58.6    -116   -107     55    158    168 227.3  19.4  34216  290.53 0854.36
2009/04/23 14:43:58.7      22   -216   -120    218    248 174.2 -35.8  34224  290.66 0854.36
2009/04/23 14:43:58.8     114   -223     39    251    255 152.8   9.0  34214  290.48 0854.36
2009/04/23 14:43:58.9     -59    -59      2     84     85 225.0   1.8  34216  290.52 0854.36
2009/04/23 14:43:59.0    -135    -86    -45    161    167 237.6 -20.4  34234  290.82 0854.36
2009/04/23 14:43:59.1    -248    -22    -95    250    267 264.8 -26.4  34230  290.76 0854.36
2009/04/23 14:43:59.2    -262   -155    -71    305    314 239.3 -13.2  34226  290.68 0854.36
2009/04/23 14:43:59.3    -183   -182    -47    259    264 225.1 -10.4  34232  290.80 0854.36
2009/04/23 14:43:59.4    -183   -261      6    320    321 215.1   1.2  34222  290.61 0854.36
2009/04/23 14:43:59.5    -209   -439    -93    487    496 205.5 -10.9  34228  290.71 0854.32
2009/04/23 14:43:59.6    -111   -593     22    604    605 190.6   2.1  34238  290.90 0854.32
2009/04/23 14:43:59.7    -247   -829     33    866    867 196.6   2.2  34226  290.68 0854.32
2009/04/23 14:43:59.8      78   -739     47    744    746 173.9   3.6  34214  290.48 0854.32
2009/04/23 14:43:59.9      97   -713      6    720    721 172.2   0.5  34206  290.35 0854.32
2009/04/23 14:44:00.0      56   -745    -29    747    748 175.7  -2.2  34224  290.65 0854.32
2009/04/23 14:44:00.1    -132   -597   -151    612    631 192.5 -13.9  34196  290.18 0854.32
2009/04/23 14:44:00.2    -108   -760     44    768    770 188.1   3.3  34212  290.46 0854.32
2009/04/23 14:44:00.3    -404   -789    209    887    912 207.1  13.3  34226  290.70 0854.32
2009/04/23 14:44:00.4    -680   -405    -36    792    793 239.2  -2.6  34232  290.81 0854.32
2009/04/23 14:44:00.5    -153   -455    478    481    678 198.6  49.9  34222  290.64 0854.32
2009/04/23 14:44:00.6     -95   -565    111    574    585 189.6  11.0  34246  291.04 0854.32
2009/04/23 14:44:00.7    -326   -436     88    545    553 216.8   9.2  34206  290.36 0854.32
2009/04/23 14:44:00.8    -506   -137    -95    525    534 254.9 -10.3  34214  290.50 0854.32
2009/04/23 14:44:00.9    -128   -215     13    251    252 210.7   3.1  34232  290.78 0854.32
2009/04/23 14:44:01.0     -91   -110     72    144    160 219.6  28.5  34238  290.91 0854.32
2009/04/23 14:44:01.1     -64   -116    -41    133    139 209.0 -22.3  34222  290.64 0854.32
2009/04/23 14:44:01.2     -52   -138    146    148    207 200.9  50.0  34208  290.40 0854.32
2009/04/23 14:44:01.3    -161   -517    205    542    579 197.3  21.8  34206  290.35 0854.32
2009/04/23 14:44:01.4     -84   -424    133    433    453 191.2  17.1  34210  290.43 0854.32
2009/04/23 14:44:01.5    -135   -505    274    523    590 195.0  29.8  34216  290.51 0854.32
2009/04/23 14:44:01.6     -38   -517    194    519    554 184.3  21.5  34212  290.46 0854.32
2009/04/23 14:44:01.7      17   -389    261    390    469 177.4  37.0  34212  290.46 0854.32
2009/04/23 14:44:01.8     -91   -582    351    590    686 188.9  33.5  34210  290.42 0854.32
2009/04/23 14:44:01.9    -140   -583    195    600    631 193.6  18.0  34214  290.50 0854.32
2009/04/23 14:44:02.0    -223   -685    270    721    769 198.0  21.5  34212  290.45 0854.32
2009/04/23 14:44:02.1    -222   -703    258    738    783 197.5  19.3  34204  290.31 0854.32
2009/04/23 14:44:02.2     -26   -938    204    939    962 181.6  12.3  34206  290.35 0854.32
2009/04/23 14:44:02.3     -76   -817    292    821    872 185.3  19.6  34188  290.04 0854.32
2009/04/23 14:44:02.4      18   -834    322    835    894 178.7  22.2  34208  290.40 0854.32
2009/04/23 14:44:02.5     167   -930    206    946    969 169.8  12.3  34202  290.28 0854.39
2009/04/23 14:44:02.6     398   -865    182    953    971 155.3  10.8  34206  290.36 0854.39
2009/04/23 14:44:02.7     490   -790    276    930    971 148.2  16.5  34194  290.16 0854.39
2009/04/23 14:44:02.8     355   -617    310    712    776 150.1  25.1  34182  289.94 0854.39
2009/04/23 14:44:02.9      49   -578    323    581    664 175.1  31.5  34208  290.37 0854.39
2009/04/23 14:44:03.0      58   -433    246    437    501 172.3  31.9  34196  290.17 0854.39
2009/04/23 14:44:03.1     -21   -553    299    554    629 182.2  30.7  34212  290.44 0854.39
2009/04/23 14:44:03.2    -290   -403    125    497    513 215.8  14.2  34218  290.54 0854.39
2009/04/23 14:44:03.3    -262   -354    142    441    464 216.5  17.9  34214  290.50 0854.39
2009/04/23 14:44:03.4    -379   -443     -2    584    585 220.6  -0.2  34210  290.41 0854.39
2009/04/23 14:44:03.5    -265   -339     12    431    432 218.0   1.7  34208  290.38 0854.39
2009/04/23 14:44:03.6     -69   -109     93    130    159 212.5  39.1  34216  290.52 0854.39
2009/04/23 14:44:03.7    -173   -361    192    401    444 205.6  27.3  34218  290.56 0854.39
2009/04/23 14:44:03.8    -289   -248    233    381    446 229.4  34.4  34212  290.46 0854.39
2009/04/23 14:44:03.9    -439   -424    218    611    650 226.0  19.7  34216  290.52 0854.39
2009/04/23 14:44:04.0    -534   -498    211    731    761 227.0  16.1  34208  290.40 0854.39
2009/04/23 14:44:04.1    -603   -118     19    615    616 258.9   1.8  34218  290.54 0854.39
2009/04/23 14:44:04.2    -593   -607    199    849    873 224.3  13.2  34210  290.41 0854.39
2009/04/23 14:44:04.3    -895   -421    224    990   1016 244.8  12.8  34214  290.48 0854.39
2009/04/23 14:44:04.4    -861    205   -159    886    901 283.4 -10.2  34200  290.25 0854.39
2009/04/23 14:44:04.5   -1161    111   -213   1167   1187 275.5 -10.4  34160  289.58 0854.29
2009/04/23 14:44:04.6    -974    129   -300    983   1028 277.6 -17.0  34150  289.40 0854.29
2009/04/23 14:44:04.7    -985    -72   -183    988   1005 265.8 -10.5  34158  289.53 0854.29
2009/04/23 14:44:04.8    -939     28   -307    940    988 271.7 -23.2  34180  289.91 0854.29
2009/04/23 14:44:04.9    -946    161   -555    960   1108 279.7 -37.1  34182  289.94 0854.29
2009/04/23 14:44:05.0   -1075    364    220   1136   1158 288.7  11.0  34220  290.60 0854.29
2009/04/23 14:44:05.1    -836    508    -42    979    980 301.3  -2.5  34190  290.09 0854.29
2009/04/23 14:44:05.2    -723    290   -231    780    814 291.9 -16.5  34218  290.56 0854.29
2009/04/23 14:44:05.3    -719     -4   -137    720    733 269.6 -10.8  34210  290.42 0854.29
2009/04/23 14:44:05.4    -629    188    -55    657    660 286.7  -4.8  34220  290.60 0854.29
2009/04/23 14:44:05.5    -495     54   -206    498    538 276.3 -28.2  34216  290.53 0854.29
2009/04/23 14:44:05.6     581    178   -187    608    636  73.0 -22.1  34196  290.18 0854.29
2009/04/23 14:44:05.7     766    382   -164    856    872  63.5 -10.9  34194  290.14 0854.29
2009/04/23 14:44:05.8     509    450    189    680    707  48.5  15.6  34202  290.27 0854.29
2009/04/23 14:44:05.9     216    531   -100    574    583  22.2  -9.9  34194  290.14 0854.29
2009/04/23 14:44:06.0      89    521   -228    529    576   9.8 -29.3  34192  290.13 0854.29
2009/04/23 14:44:06.1     -91    643   -389    650    757 351.9 -38.0  34198  290.20 0854.29
2009/04/23 14:44:06.2     312    450   -496    548    739  34.8 -51.3  34200  290.24 0854.29
2009/04/23 14:44:06.3     163    535   -216    560    600  17.0 -26.5  34196  290.19 0854.29
2009/04/23 14:44:06.4     127    566   -200    581    614  12.7 -24.0  34190  290.07 0854.29
2009/04/23 14:44:06.5     430    626   -209    760    789  34.5 -15.4  34192  290.12 0854.29
2009/04/23 14:44:06.6     507    310    -42    595    597  58.6  -4.1  34194  290.15 0854.29
2009/04/23 14:44:06.7     534    233    -52    583    586  66.4  -5.2  34204  290.31 0854.29
2009/04/23 14:44:06.8     397    236   -131    463    481  59.3 -20.5  34196  290.17 0854.29
2009/04/23 14:44:06.9     397    472   -129    617    631  40.1 -11.9  34180  289.91 0854.29
2009/04/23 14:44:07.0     690    561     93    890    895  50.9   6.0  34202  290.30 0854.29
2009/04/23 14:44:07.1     456    401    101    608    617  48.7   9.4  34206  290.36 0854.29
2009/04/23 14:44:07.2     475    400    119    622    634  49.9  10.9  34178  289.86 0854.29
2009/04/23 14:44:07.3     517    430     83    673    679  50.2   7.1  34192  290.10 0854.29
2009/04/23 14:44:07.4     449    405    106    605    615  48.0  10.0  34200  290.25 0854.29
2009/04/23 14:44:07.5     421    349    197    548    582  50.3  20.4  34216  290.53 0854.29
2009/04/23 14:44:07.6     628    435     52    765    767  55.3   3.9  34208  290.38 0854.29
2009/04/23 14:44:07.7     491    368    176    614    639  53.1  16.0  34254  291.18 0854.29
2009/04/23 14:44:07.8     371    233    343    438    556  57.9  42.1  34288  291.76 0854.29
2009/04/23 14:44:07.9     632    380    310    738    800  59.0  24.2  34282  291.66 0854.29
2009/04/23 14:44:08.0     561    299    250    636    683  61.9  22.7  34288  291.75 0854.29
2009/04/23 14:44:08.1     435    414    129    601    615  46.4  12.2  34262  291.31 0854.29
2009/04/23 14:44:08.2     293    331    126    443    461  41.5  15.9  34290  291.79 0854.29
2009/04/23 14:44:08.3     217    245    127    328    351  41.4  22.3  34278  291.59 0854.29
2009/04/23 14:44:08.4     221    235    156    323    358  43.3  27.7  34284  291.68 0854.29
2009/04/23 14:44:08.5     224    384    110    445    459  30.3  13.9  34280  291.60 0854.31
2009/04/23 14:44:08.6     199    199    124    282    308  45.0  25.2  34278  291.56 0854.31
2009/04/23 14:44:08.7     342    300    180    456    490  48.7  22.9  34302  292.00 0854.31
2009/04/23 14:44:08.8     154    416    129    444    463  20.4  16.3  34294  291.86 0854.31
2009/04/23 14:44:08.9    -159    385    122    417    435 337.6  16.3  34296  291.89 0854.31
2009/04/23 14:44:09.0    -260    149    -54    300    305 299.8 -10.3  34272  291.46 0854.31
2009/04/23 14:44:09.1    -293    185    -52    347    351 302.4  -8.6  34262  291.30 0854.31
2009/04/23 14:44:09.2    -258     69     42    268    272 285.0   8.9  34240  290.92 0854.31
2009/04/23 14:44:09.3    -561    255     50    617    620 294.4   4.7  34274  291.50 0854.31
2009/04/23 14:44:09.4    -725     64    -64    728    731 275.1  -5.1  34192  290.13 0854.31
2009/04/23 14:44:09.5    -821    -94   -240    827    862 263.4 -16.2  34168  289.70 0854.31
2009/04/23 14:44:09.6    -913   -393   -229    995   1022 246.7 -13.0  34172  289.79 0854.31
2009/04/23 14:44:09.7   -1254   -491   -283   1348   1378 248.6 -11.9  34200  290.25 0854.31
2009/04/23 14:44:09.8   -1159   -216   -133   1179   1187 259.4  -6.5  34162  289.59 0854.31
2009/04/23 14:44:09.9    -784   -104   -160    791    807 262.4 -11.5  34212  290.47 0854.31
2009/04/23 14:44:10.0    -643   -230   -163    684    704 250.3 -13.4  34212  290.45 0854.31
2009/04/23 14:44:10.1    -701   -312   -349    768    843 246.0 -30.6  34206  290.35 0854.31
2009/04/23 14:44:10.2    -766   -405   -315    867    922 242.1 -25.3  34208  290.40 0854.31
2009/04/23 14:44:10.3    -606   -486   -183    778    800 231.3 -13.3  34198  290.20 0854.31
2009/04/23 14:44:10.4    -498   -317   -204    591    626 237.5 -19.1  34202  290.28 0854.31
2009/04/23 14:44:10.5    -389   -206    -27    441    442 242.1  -3.5  34226  290.70 0854.32
2009/04/23 14:44:10.6    -277   -350    -17    447    448 218.4  -2.3  34254  291.18 0854.32
2009/04/23 14:44:10.7    -349   -192    -64    399    405 241.2  -9.1  34246  291.02 0854.32
2009/04/23 14:44:10.8    -217   -284   -100    358    372 217.4 -15.7  34238  290.88 0854.32
2009/04/23 14:44:10.9    -328   -107    -96    346    360 251.8 -15.5  34228  290.74 0854.32
2009/04/23 14:44:11.0    -108    -68    -86    128    154 237.6 -41.4  34236  290.86 0854.32
2009/04/23 14:44:11.1       2    -28     -3     29     30 175.5  -7.3  34236  290.86 0854.32
2009/04/23 14:44:11.2     -49      5    120     50    130 276.1  76.1  34238  290.89 0854.32
2009/04/23 14:44:11.3     -91     41     34    101    107 294.4  18.9  34244  291.01 0854.32
2009/04/23 14:44:11.4    -244     15    116    245    271 273.7  27.1  34250  291.09 0854.32
2009/04/23 14:44:11.5     -88    400   -113    410    426 347.5 -15.5  34250  291.11 0854.32
2009/04/23 14:44:11.6    -150    170   -141    228    268 318.6 -39.2  34244  291.00 0854.32
2009/04/23 14:44:11.7      -9    128    176    129    218 355.6  60.5  34236  290.86 0854.32
2009/04/23 14:44:11.8    -524    268    -26    589    590 297.1  -2.6  34220  290.58 0854.32
2009/04/23 14:44:11.9    -191    416    134    458    478 335.3  16.3  34252  291.13 0854.32
2009/04/23 14:44:12.0    -183    459     57    495    499 338.2   6.6  34228  290.73 0854.32
2009/04/23 14:44:12.1     -51    339   -130    343    366 351.4 -26.1  34226  290.69 0854.32
2009/04/23 14:44:12.2    -274    240    -98    365    378 311.2 -15.1  34168  289.72 0854.32
2009/04/23 14:44:12.3    -145    338   -123    368    388 336.7 -23.6  34202  290.28 0854.32
2009/04/23 14:44:12.4    -125    262   -164    291    334 334.4 -36.1  34208  290.37 0854.32
2009/04/23 14:44:12.5      69    351   -164    358    393  11.2 -30.7  34222  290.64 0854.32
2009/04/23 14:44:12.6     156    433   -154    461    486  19.8 -23.6  34224  290.66 0854.32
2009/04/23 14:44:12.7     223    561   -198    604    636  21.7 -18.2  34222  290.62 0854.32
2009/04/23 14:44:12.8      80    465    -85    473    481   9.8 -10.2  34218  290.57 0854.32
2009/04/23 14:44:12.9    -105    296    288    315    426 340.4  47.1  34220  290.60 0854.32
2009/04/23 14:44:13.0    -149    182    316    236    394 320.8  59.7  34220  290.59 0854.32
2009/04/23 14:44:13.1     -25    153    270    156    311 350.7  67.2  34224  290.66 0854.32
2009/04/23 14:44:13.2     107    119    177    161    239  41.9  53.2  34282  291.64 0854.32
2009/04/23 14:44:13.3     125    193    197    231    303  33.0  44.8  34338  292.59 0854.32
2009/04/23 14:44:13.4     -91    359    134    371    395 345.7  19.9  34328  292.44 0854.32
2009/04/23 14:44:13.5     -32    446    -49    448    451 355.9  -6.3  34282  291.65 0854.32
2009/04/23 14:44:13.6     202    291    -41    355    358  34.7  -6.6  34302  291.97 0854.32
2009/04/23 14:44:13.7     195    209    -70    287    296  43.0 -13.7  34316  292.21 0854.32
2009/04/23 14:44:13.8     146    219    -40    264    268  33.6  -8.6  34296  291.89 0854.32
2009/04/23 14:44:13.9     151    282    -52    321    326  28.2  -9.3  34266  291.38 0854.32
2009/04/23 14:44:14.0     239    348    -28    423    424  34.5  -3.8  34232  290.80 0854.32
2009/04/23 14:44:14.1     335    391    -35    515    517  40.6  -3.9  34234  290.83 0854.32
2009/04/23 14:44:14.2     280    273    -54    392    396  45.7  -7.9  34268  291.39 0854.32
2009/04/23 14:44:14.3     207    227    141    308    338  42.3  26.3  34356  292.90 0854.32
2009/04/23 14:44:14.4     423    208    253    472    535  63.8  30.6  34380  293.33 0854.32
2009/04/23 14:44:14.5     675    198    380    704    800  73.6  30.8  34322  292.31 0854.32
2009/04/23 14:44:14.6     222    206    313    304    436  47.1  50.9  34318  292.25 0854.32
2009/04/23 14:44:14.7     422    236    211    484    527  60.7  25.1  34288  291.76 0854.32
2009/04/23 14:44:14.8     377    566    299    681    743  33.7  25.2  34228  290.71 0854.32
2009/04/23 14:44:14.9     128    533     96    549    558  13.6  10.0  34238  290.91 0854.32
2009/04/23 14:44:15.0      80    471     18    478    479   9.7   2.2  34238  290.91 0854.32
2009/04/23 14:44:15.1      38    508      7    510    511   4.4   0.9  34226  290.69 0854.32
2009/04/23 14:44:15.2      43    430    134    433    454   5.8  17.3  34228  290.72 0854.32
2009/04/23 14:44:15.3    -201    379    193    430    471 332.0  25.7  34238  290.90 0854.32
2009/04/23 14:44:15.4    -157    256    119    301    323 328.4  22.8  34240  290.93 0854.32
2009/04/23 14:44:15.5    -163    102      0    193    194 302.2  -0.3  34242  290.98 0854.32
2009/04/23 14:44:15.6    -143     47   -105    151    183 288.4 -42.8  34236  290.87 0854.32
2009/04/23 14:44:15.7     100    -15      7    102    103  98.8   4.4  34230  290.77 0854.32
2009/04/23 14:44:15.8     339    375    173    506    535  42.1  18.9  34294  291.86 0854.32
2009/04/23 14:44:15.9     242    429    275    493    564  29.5  31.6  34250  291.11 0854.32
2009/04/23 14:44:16.0     256    462    270    529    593  29.0  29.2  34312  292.14 0854.32
2009/04/23 14:44:16.1      42    430    157    433    460   5.6  20.9  34236  290.87 0854.32
2009/04/23 14:44:16.2     -76    329     61    338    344 346.9  10.2  34224  290.66 0854.32
2009/04/23 14:44:16.3    -169    354    107    393    408 334.5  15.3  34224  290.67 0854.32
2009/04/23 14:44:16.4    -151     16    -51    152    160 276.2 -23.6  34234  290.82 0854.32
2009/04/23 14:44:16.5     123     63    -94    139    167  63.0 -41.7  34226  290.70 0854.32
2009/04/23 14:44:16.6     204    204    153    289    327  45.0  30.2  34224  290.65 0854.32
2009/04/23 14:44:16.7       9    245    132    246    279   2.2  30.6  34238  290.88 0854.32
2009/04/23 14:44:16.8     -30    192     81    195    211 351.1  23.8  34226  290.70 0854.32
2009/04/23 14:44:16.9      42    300    147    304    337   8.0  27.7  34270  291.43 0854.32
2009/04/23 14:44:17.0      63    278    157    286    326  12.9  31.3  34328  292.43 0854.32
2009/04/23 14:44:17.1     -38    378    181    380    420 354.2  27.3  34330  292.47 0854.32
2009/04/23 14:44:17.2      37    371     24    373    374   5.8   3.8  34292  291.81 0854.32
2009/04/23 14:44:17.3     -72    269     76    279    290 344.9  15.3  34306  292.04 0854.32
2009/04/23 14:44:17.4    -236    321    -15    399    400 323.7  -2.2  34298  291.90 0854.32
2009/04/23 14:44:17.5    -403    276   -125    489    505 304.4 -14.4  34242  290.96 0854.32
2009/04/23 14:44:17.6    -242    384   -145    455    477 327.8 -22.8  34208  290.37 0854.32
2009/04/23 14:44:17.7    -346    173    -32    387    389 296.6  -4.9  34228  290.74 0854.32
2009/04/23 14:44:17.8    -364     -7    120    365    385 268.8  18.2  34230  290.76 0854.32
2009/04/23 14:44:17.9    -209   -173    226    272    353 230.5  44.0  34302  291.97 0854.32
2009/04/23 14:44:18.0     -98   -291     86    308    320 198.7  15.7  34344  292.70 0854.32
2009/04/23 14:44:18.1    -105   -290     65    309    316 200.0  12.0  34336  292.57 0854.32
2009/04/23 14:44:18.2     -60    -42     25     74     79 234.9  19.2  34326  292.39 0854.32
2009/04/23 14:44:18.3     -25     41     17     49     52 328.4  19.4  34332  292.51 0854.32
2009/04/23 14:44:18.4     -82     32     35     89     95 291.7  22.5  34334  292.54 0854.32
2009/04/23 14:44:18.5    -178     79    -25    195    197 294.0  -7.5  34322  292.34 0854.35
2009/04/23 14:44:18.6    -421     75   -135    428    449 280.1 -17.5  34296  291.89 0854.35
2009/04/23 14:44:18.7    -593     95   -195    601    632 279.1 -18.0  34232  290.81 0854.35
2009/04/23 14:44:18.8    -627    407    -66    748    752 303.0  -5.1  34268  291.42 0854.35
2009/04/23 14:44:18.9    -538   -219   -105    581    591 247.8 -10.3  34326  292.38 0854.35
2009/04/23 14:44:19.0    -321   -188    -20    373    374 239.6  -3.1  34328  292.41 0854.35
2009/04/23 14:44:19.1    -344   -237   -166    418    449 235.4 -27.4  34270  291.45 0854.35
2009/04/23 14:44:19.2    -480    -41   -172    482    513 265.0 -19.7  34272  291.49 0854.35
2009/04/23 14:44:19.3    -614   -144   -205    631    663 256.8 -23.1  34268  291.39 0854.35
2009/04/23 14:44:19.4    -473   -267   -154    544    566 240.6 -15.8  34258  291.23 0854.35
2009/04/23 14:44:19.5    -410   -234   -259    473    539 240.3 -35.7  34252  291.13 0854.35
2009/04/23 14:44:19.6    -393   -374    -94    543    552 226.5  -9.9  34248  291.06 0854.35
2009/04/23 14:44:19.7    -368   -307   -134    480    498 230.2 -20.2  34222  290.62 0854.35
2009/04/23 14:44:19.8    -355   -125   -239    377    446 250.6 -39.9  34270  291.45 0854.35
2009/04/23 14:44:19.9    -206   -160   -194    262    326 232.2 -44.6  34276  291.55 0854.35
2009/04/23 14:44:20.0    -101   -152   -103    183    209 213.8 -36.3  34288  291.76 0854.35
2009/04/23 14:44:20.1     -97   -104     46    143    151 223.2  17.9  34274  291.50 0854.35
2009/04/23 14:44:20.2    -214   -101    148    237    279 244.6  35.0  34260  291.26 0854.35
2009/04/23 14:44:20.3     -99    -53     60    113    127 241.6  29.8  34264  291.33 0854.35
2009/04/23 14:44:20.4     -36    -61     73     72    102 210.7  50.1  34274  291.50 0854.35
2009/04/23 14:44:20.5     -87   -343    209    354    411 194.3  33.4  34268  291.40 0854.36
2009/04/23 14:44:20.6    -260   -369    160    452    479 215.2  20.3  34268  291.41 0854.36
2009/04/23 14:44:20.7    -201   -332    133    389    412 211.2  18.9  34264  291.33 0854.36
2009/04/23 14:44:20.8      83   -107    161    136    210 142.1  55.8  34266  291.37 0854.36
2009/04/23 14:44:20.9      84   -236    192    251    316 160.2  41.2  34256  291.21 0854.36
2009/04/23 14:44:21.0     105   -179    131    208    245 149.5  35.5  34254  291.17 0854.36
2009/04/23 14:44:21.1     -11   -165    102    166    194 184.0  35.0  34240  290.92 0854.36
2009/04/23 14:44:21.2     -85   -231    136    247    281 200.3  31.4  34250  291.10 0854.36
2009/04/23 14:44:21.3     -98   -245    109    265    286 201.8  23.6  34232  290.80 0854.36
2009/04/23 14:44:21.4     -60   -251    245    259    356 193.6  48.4  34238  290.90 0854.36
2009/04/23 14:44:21.5     -67   -443    262    449    519 188.7  32.9  34222  290.64 0854.36
2009/04/23 14:44:21.6      38   -417    308    419    520 174.7  40.0  34234  290.83 0854.36
2009/04/23 14:44:21.7     181   -548    202    578    613 161.7  19.3  34228  290.73 0854.36
2009/04/23 14:44:21.9     162   -665     70    685    689 166.3   5.9  34256  291.19 0854.36
2009/04/23 14:44:22.0     416   -412    125    586    600 134.7  12.1  34238  290.90 0854.36
2009/04/23 14:44:22.1     342   -457    387    571    689 143.2  37.4  34248  291.05 0854.36
2009/04/23 14:44:22.1     474   -604    365    768    850 141.9  27.3  34244  291.01 0854.36
2009/04/23 14:44:22.3     449   -744    148    870    883 148.9   9.7  34234  290.83 0854.36
2009/04/23 14:44:22.4     398   -776    240    873    906 152.8  15.4  34194  290.15 0854.36
2009/04/23 14:44:22.5     346   -762    114    837    845 155.6   7.8  34202  290.27 0854.36
2009/04/23 14:44:22.6     273   -749     62    798    801 160.0   4.5  34204  290.32 0854.38
2009/04/23 14:44:22.7     197   -594    138    626    642 161.6  12.5  34194  290.16 0854.38
2009/04/23 14:44:22.8     105   -513    101    524    534 168.3  11.0  34206  290.36 0854.38
2009/04/23 14:44:22.9     351   -631     -4    723    724 150.9  -0.4  34232  290.81 0854.38
2009/04/23 14:44:23.0     150   -585   -130    604    618 165.6 -12.2  34226  290.70 0854.38
2009/04/23 14:44:23.1     218   -924   -213    950    974 166.7 -12.7  34234  290.84 0854.38
2009/04/23 14:44:23.2      26  -1004    -37   1005   1006 178.5  -2.1  34214  290.48 0854.38
2009/04/23 14:44:23.3     -39  -1004    -39   1005   1006 182.3  -2.2  34186  290.00 0854.38
2009/04/23 14:44:23.4      41  -1055     27   1056   1057 177.8   1.5  34184  289.97 0854.38
2009/04/23 14:44:23.5     125   -926     27    935    936 172.3   1.7  34180  289.90 0854.38
2009/04/23 14:44:23.6      47   -831    -13    833    834 176.8  -0.9  34178  289.86 0854.38
2009/04/23 14:44:23.7    -169   -958    -34    973    974 190.0  -2.0  34180  289.91 0854.38
2009/04/23 14:44:23.8    -224   -963     27    989    990 193.1   1.6  34180  289.92 0854.38
2009/04/23 14:44:23.9    -129   -910    -83    920    924 188.1  -5.2  34190  290.09 0854.38
2009/04/23 14:44:24.0      50   -665    -60    667    670 175.7  -5.2  34190  290.09 0854.38
2009/04/23 14:44:24.1     236   -699    141    739    753 161.3  10.8  34178  289.87 0854.38
2009/04/23 14:44:24.2     319   -681   -219    753    784 154.9 -21.0  34196  290.17 0854.38
2009/04/23 14:44:24.3     554   -740   -193    925    946 143.2 -11.8  34180  289.91 0854.38
2009/04/23 14:44:24.4     218   -695     90    729    735 162.6   7.1  34178  289.88 0854.38
2009/04/23 14:44:24.5      48   -566    110    569    580 175.1  11.0  34212  290.46 0854.38
2009/04/23 14:44:24.6     123   -609    161    622    643 168.5  14.5  34208  290.40 0854.40
2009/04/23 14:44:24.7      57   -282   -294    288    411 168.4 -55.2  34208  290.38 0854.40
2009/04/23 14:44:24.8     206   -170   -123    268    294 129.5 -30.8  34212  290.46 0854.40
2009/04/23 14:44:24.9      73    -78   -108    108    152 136.8 -54.5  34218  290.57 0854.40
2009/04/23 14:44:25.0     -41   -152    -64    158    170 195.2 -27.8  34210  290.41 0854.40
2009/04/23 14:44:25.1    -122   -132     19    181    183 222.8   6.1  34204  290.33 0854.40
2009/04/23 14:44:25.2     -94    -83     -8    126    127 228.7  -3.7  34198  290.23 0854.40
2009/04/23 14:44:25.3     -13   -140    102    141    174 185.3  39.3  34206  290.36 0854.40
2009/04/23 14:44:25.4    -127    -91    -54    157    167 234.5 -18.9  34198  290.21 0854.40
2009/04/23 14:44:25.5     -36   -100    -34    107    113 200.0 -17.6  34188  290.06 0854.40
2009/04/23 14:44:25.6      38   -142    -44    148    154 164.8 -21.8  34188  290.04 0854.40
2009/04/23 14:44:25.7     158   -100    -90    188    208 122.4 -31.7  34190  290.09 0854.40
2009/04/23 14:44:25.8     129   -186   -159    227    277 145.3 -42.9  34186  290.02 0854.40
2009/04/23 14:44:25.9     158   -170   -132    233    267 137.2 -36.5  34192  290.10 0854.40
2009/04/23 14:44:26.0     223   -280      3    359    360 141.5   0.5  34188  290.03 0854.40
2009/04/23 14:44:26.1     253   -150    -42    295    299 120.7  -8.2  34188  290.05 0854.40
2009/04/23 14:44:26.2     353   -205     49    409    412 120.1   6.9  34186  290.02 0854.40
2009/04/23 14:44:26.3     178   -138     -4    226    227 127.8  -1.3  34190  290.09 0854.40
2009/04/23 14:44:26.4     254   -115     92    279    294 114.4  18.4  34194  290.15 0854.40
2009/04/23 14:44:26.5     196   -167     82    258    271 130.5  17.7  34192  290.12 0854.40
2009/04/23 14:44:26.6     231    -22    -83    233    247  95.5 -24.8  34194  290.14 0854.41
2009/04/23 14:44:26.7     189     41    -45    194    200  77.6 -13.2  34198  290.21 0854.41
2009/04/23 14:44:26.8      80     97   -121    126    174  39.6 -53.6  34200  290.25 0854.41
2009/04/23 14:44:26.9     162    152    -85    223    238  46.9 -26.4  34198  290.20 0854.41
2009/04/23 14:44:27.0     161    202     63    259    267  38.5  13.7  34204  290.31 0854.41
2009/04/23 14:44:27.1      87     48    114    100    151  61.2  54.3  34212  290.47 0854.41
2009/04/23 14:44:27.2     -56     19    115     60    129 288.6  70.8  34220  290.60 0854.41
2009/04/23 14:44:27.3      90      6    213     91    231  85.6  75.5  34208  290.40 0854.41
2009/04/23 14:44:27.4      96    158    236    186    300  31.4  57.7  34204  290.32 0854.41
2009/04/23 14:44:27.5      96   -116    290    151    326 140.4  70.5  34204  290.31 0854.41
2009/04/23 14:44:27.6     273   -252    277    372    463 132.7  40.2  34208  290.38 0854.42
2009/04/23 14:44:27.7     274   -401    273    486    557 145.6  31.9  34198  290.23 0854.42
2009/04/23 14:44:27.8     128   -398    194    419    461 162.1  26.9  34196  290.19 0854.42
2009/04/23 14:44:27.9      17   -228    256    229    343 175.6  53.6  34202  290.27 0854.42
2009/04/23 14:44:28.0     109   -171    252    204    324 147.4  56.9  34202  290.29 0854.42
2009/04/23 14:44:28.1     -87    -29    215     92    233 251.6  75.9  34202  290.28 0854.42
2009/04/23 14:44:28.2    -132   -281    318    311    444 205.2  50.7  34226  290.68 0854.42
2009/04/23 14:44:28.3     -78   -220    350    234    421 199.6  63.2  34224  290.66 0854.42
2009/04/23 14:44:28.4     394     18    149    395    422  87.3  21.8  34242  290.97 0854.42
2009/04/23 14:44:28.5     439    -83    198    447    488 100.7  25.6  34220  290.59 0854.42
2009/04/23 14:44:28.6      94    -97    151    136    203 135.9  53.3  34216  290.53 0854.42
2009/04/23 14:44:28.7      55     -2   -109     56    122  92.6 -75.2  34224  290.67 0854.42
2009/04/23 14:44:28.8    -187   -221    -52    290    295 220.3 -10.3  34220  290.59 0854.42
2009/04/23 14:44:28.9    -256   -211   -220    332    398 230.5 -40.9  34224  290.67 0854.42
2009/04/23 14:44:29.0    -252   -160   -169    299    343 237.6 -36.3  34222  290.62 0854.42
2009/04/23 14:44:29.1    -210   -193   -102    286    304 227.3 -19.7  34224  290.66 0854.42
2009/04/23 14:44:29.2     -78   -198   -147    214    259 201.6 -42.2  34224  290.66 0854.42
2009/04/23 14:44:29.3      -4   -151   -108    152    186 181.8 -43.7  34226  290.70 0854.42
2009/04/23 14:44:29.4     -43     -4    -61     44     75 263.9 -65.0  34230  290.75 0854.42
2009/04/23 14:44:29.5      26     34    -20     44     48  37.8 -29.5  34232  290.81 0854.42
2009/04/23 14:44:29.6      73     -4    106     74    129  93.5  62.1  34230  290.77 0854.43
2009/04/23 14:44:29.7     -14     -2    105     15    106 258.5  90.0  34236  290.86 0854.43
2009/04/23 14:44:29.8      14     20     59     25     64  36.1  77.0  34238  290.91 0854.43
2009/04/23 14:44:29.9     229   -131    185    264    322 119.8  38.4  34218  290.54 0854.43
2009/04/23 14:44:30.0     262   -238    234    355    425 132.3  36.5  34220  290.60 0854.43
2009/04/23 14:44:30.1     355    -35    256    357    439  95.7  39.2  34224  290.65 0854.43
2009/04/23 14:44:30.2     555    101     20    565    566  79.7   2.1  34230  290.75 0854.43
2009/04/23 14:44:30.3     490     56    203    494    534  83.4  23.6  34224  290.67 0854.43
2009/04/23 14:44:30.4     465    129     90    483    492  74.5  10.6  34242  290.98 0854.43
2009/04/23 14:44:30.5     412     91     93    423    434  77.5  12.4  34236  290.87 0854.43
2009/04/23 14:44:30.6     231    125    141    263    298  61.6  30.6  34230  290.76 0854.43
2009/04/23 14:44:30.7     260    -85     89    274    289 108.2  18.1  34222  290.61 0854.43
2009/04/23 14:44:30.8       0   -410    164    411    442 180.0  23.0  34214  290.48 0854.43
2009/04/23 14:44:30.9     225   -581     39    624    626 158.8   3.6  34222  290.64 0854.43
2009/04/23 14:44:31.0      68   -484     82    489    496 171.9   9.6  34228  290.73 0854.43
2009/04/23 14:44:31.1     131   -309    -10    336    337 157.0  -1.7  34228  290.71 0854.43
2009/04/23 14:44:31.2     -77   -172     44    189    195 204.3  13.1  34220  290.58 0854.43
2009/04/23 14:44:31.3    -110   -214    139    241    278 207.4  32.7  34218  290.54 0854.43
2009/04/23 14:44:31.4    -366   -499     89    620    627 216.3   8.2  34204  290.33 0854.43
2009/04/23 14:44:31.5     -84   -540     65    547    551 188.9   6.8  34202  290.28 0854.43
2009/04/23 14:44:31.6     -24   -831    155    832    847 181.7  10.6  34210  290.43 0854.41
2009/04/23 14:44:31.7      -9   -618    107    619    629 180.9   9.9  34208  290.38 0854.41
2009/04/23 14:44:31.8      40   -532    -68    534    539 175.7  -7.3  34214  290.48 0854.41
2009/04/23 14:44:31.9       9   -679   -239    680    721 179.2 -19.4  34208  290.40 0854.41
2009/04/23 14:44:32.0     104   -626   -126    635    648 170.6 -11.2  34204  290.33 0854.41
2009/04/23 14:44:32.1       3   -477   -128    478    495 179.6 -15.0  34194  290.15 0854.41
2009/04/23 14:44:32.2      81   -417    -91    425    435 169.0 -12.2  34182  289.94 0854.41
2009/04/23 14:44:32.3     101   -535   -183    545    576 169.3 -18.6  34190  290.07 0854.41
2009/04/23 14:44:32.4    -142   -750    -64    764    767 190.7  -4.8  34202  290.28 0854.41
2009/04/23 14:44:32.5    -125   -607    -96    620    628 191.7  -8.8  34190  290.09 0854.41
2009/04/23 14:44:32.6    -143   -188     75    237    249 217.4  17.7  34200  290.24 0854.41
2009/04/23 14:44:32.7    -132   -447    110    467    480 196.5  13.3  34202  290.27 0854.41
2009/04/23 14:44:32.8      91   -501    387    510    640 169.7  41.1  34212  290.44 0854.41
2009/04/23 14:44:32.9     254   -398    347    473    586 147.4  39.9  34210  290.41 0854.41
2009/04/23 14:44:33.0     436   -275    347    516    621 122.2  37.2  34220  290.58 0854.41
2009/04/23 14:44:33.1     544   -110    231    555    601 101.5  24.1  34204  290.31 0854.41
2009/04/23 14:44:33.2     495    -24    283    496    571  92.8  32.3  34208  290.38 0854.41
2009/04/23 14:44:33.3     259   -467    243    535    587 151.0  26.2  34210  290.42 0854.41
2009/04/23 14:44:33.4     297   -480    278    565    629 148.3  28.1  34184  289.97 0854.41
2009/04/23 14:44:33.5     278   -508    291    580    648 151.3  28.7  34188  290.03 0854.41
2009/04/23 14:44:33.6     317   -554    325    639    716 150.2  29.1  34212  290.46 0854.43
2009/04/23 14:44:33.7     166   -507    274    534    600 161.8  29.3  34214  290.49 0854.43
2009/04/23 14:44:33.8     263   -659    567    710    908 158.2  42.7  34202  290.29 0854.43
2009/04/23 14:44:33.9     166   -464    459    493    673 160.3  47.8  34192  290.13 0854.43
2009/04/23 14:44:34.0     294   -275    291    403    497 133.1  39.5  34202  290.29 0854.43
2009/04/23 14:44:34.1     409   -263    224    487    536 122.8  26.5  34204  290.31 0854.43
2009/04/23 14:44:34.2      81   -301     75    312    321 164.9  13.5  34198  290.22 0854.43
2009/04/23 14:44:34.3      76   -297     62    307    314 165.5  11.4  34216  290.53 0854.43
2009/04/23 14:44:34.4      10   -207     85    208    224 177.1  23.1  34214  290.50 0854.43
2009/04/23 14:44:34.5       6   -136     28    137    140 177.4  11.6  34224  290.65 0854.43
2009/04/23 14:44:34.6      76   -139     56    159    168 151.1  20.0  34214  290.50 0854.43
2009/04/23 14:44:34.7     173   -127    121    215    246 126.4  32.1  34218  290.54 0854.43
2009/04/23 14:44:34.8     273    -15     38    274    277  93.3   8.0  34216  290.51 0854.43
2009/04/23 14:44:34.9     357    -25    119    358    378  94.1  18.4  34214  290.50 0854.43
2009/04/23 14:44:35.0     281     70     -6    290    291  75.9  -1.3  34216  290.53 0854.43
2009/04/23 14:44:35.1     306     57     32    312    314  79.4   5.9  34212  290.46 0854.43
2009/04/23 14:44:35.2     319    -18    -70    320    328  93.4 -12.4  34216  290.53 0854.43
2009/04/23 14:44:35.3    -114   -317    155    337    370 199.8  26.5  34202  290.28 0854.43
2009/04/23 14:44:35.4     388   -399     27    557    558 135.8   2.8  34210  290.41 0854.43
2009/04/23 14:44:35.5     159   -303    152    343    375 152.3  25.3  34214  290.49 0854.43
2009/04/23 14:44:35.6     103   -502    209    513    553 168.3  23.5  34204  290.31 0854.45
2009/04/23 14:44:35.7     -21   -464    241    465    523 182.7  29.5  34178  289.89 0854.45
2009/04/23 14:44:35.8     -17   -312    207    313    375 183.1  36.6  34162  289.60 0854.45
2009/04/23 14:44:35.9    -157   -288    223    329    397 208.6  37.4  34186  290.01 0854.45
2009/04/23 14:44:36.0     -93   -239    107    257    278 201.4  24.1  34194  290.15 0854.45
2009/04/23 14:44:36.1    -133   -107     -6    172    173 231.1  -2.2  34192  290.13 0854.45
2009/04/23 14:44:36.2     -84    -65    -86    107    137 232.2 -48.1  34190  290.08 0854.45
2009/04/23 14:44:36.3       2    -44    -30     45     54 177.3 -40.9  34204  290.31 0854.45
2009/04/23 14:44:36.4      62   -102     21    120    122 148.8  10.1  34202  290.28 0854.45
2009/04/23 14:44:36.5      97      0     78     98    125  89.6  42.7  34204  290.31 0854.45
2009/04/23 14:44:36.6      38    -25    151     46    157 124.2  82.8  34212  290.45 0854.45
2009/04/23 14:44:36.7      18     49    158     53    166  20.0  81.0  34230  290.77 0854.45
2009/04/23 14:44:36.8       5     10    196     12    196  29.0  90.0  34236  290.86 0854.45
2009/04/23 14:44:36.9     -49    150    148    158    216 341.7  48.0  34218  290.55 0854.45
2009/04/23 14:44:37.0     -78    153     81    172    190 332.8  27.1  34216  290.52 0854.45
2009/04/23 14:44:37.1     -75    -25     98     80    126 251.4  56.4  34234  290.84 0854.45
2009/04/23 14:44:37.2    -174    -75     63    190    201 246.5  18.4  34222  290.64 0854.45
2009/04/23 14:44:37.3    -186     54    -86    194    212 286.2 -29.7  34212  290.45 0854.45
2009/04/23 14:44:37.4     -29    344    -16    346    347 355.1  -2.8  34206  290.35 0854.45
2009/04/23 14:44:37.5      13    170    119    171    208   4.5  38.0  34254  291.18 0854.45
2009/04/23 14:44:37.6    -124    104    141    162    214 310.0  45.6  34270  291.43 0854.46
2009/04/23 14:44:37.7      24    -50     96     56    111 154.6  67.2  34256  291.21 0854.46
2009/04/23 14:44:37.8      56    -59    122     82    146 136.8  63.2  34230  290.75 0854.46
2009/04/23 14:44:37.9     -41   -243    163    247    295 189.8  36.5  34218  290.54 0854.46
2009/04/23 14:44:38.0      14   -462    201    463    504 178.2  25.1  34166  289.67 0854.46
2009/04/23 14:44:38.1     247   -567    222    619    657 156.4  20.6  34200  290.25 0854.46
2009/04/23 14:44:38.2     216   -593    105    632    641 159.9   9.4  34198  290.20 0854.46
2009/04/23 14:44:38.3     215   -475    153    522    545 155.6  16.4  34192  290.11 0854.46
2009/04/23 14:44:38.4    -259   -526     44    587    589 206.3   4.4  34176  289.85 0854.46
2009/04/23 14:44:38.5    -273   -691     -9    744    745 201.6  -0.7  34178  289.87 0854.46
2009/04/23 14:44:38.6    -360   -672    188    763    786 208.2  13.9  34172  289.76 0854.46
2009/04/23 14:44:38.7    -202   -391    103    441    453 207.4  13.2  34170  289.75 0854.46
2009/04/23 14:44:38.8     -77   -516     65    522    527 188.5   7.1  34178  289.87 0854.46
2009/04/23 14:44:38.9      25   -573    -58    574    578 177.5  -5.8  34184  289.98 0854.46
2009/04/23 14:44:39.0    -301   -842   -347    895    959 199.7 -26.7  34158  289.54 0854.46
2009/04/23 14:44:39.1    -146   -299   -177    334    378 206.1 -34.6  34166  289.69 0854.46
2009/04/23 14:44:39.2    -167    -95    343    193    393 240.2  68.2  34190  290.08 0854.46
2009/04/23 14:44:39.3    -242   -440    391    503    637 208.9  41.9  34180  289.90 0854.46
2009/04/23 14:44:39.4      23   -396    251    397    469 176.6  35.3  34186  290.00 0854.46
2009/04/23 14:44:39.5      50   -479    321    482    579 173.9  36.9  34168  289.72 0854.46
2009/04/23 14:44:39.6    -193   -581    406    613    735 198.4  36.6  34162  289.59 0854.46
2009/04/23 14:44:39.7    -314   -570    390    651    758 208.9  33.7  34156  289.50 0854.46
2009/04/23 14:44:39.8      -2   -745    622    746    971 180.2  44.0  34138  289.21 0854.46
2009/04/23 14:44:39.9      94   -751    468    757    889 172.8  34.6  34134  289.14 0854.46
2009/04/23 14:44:40.0       0   -640    432    641    772 180.0  37.2  34144  289.30 0854.46
2009/04/23 14:44:40.1      15   -517    415    518    663 178.3  42.7  34152  289.42 0854.46
2009/04/23 14:44:40.2     109   -172    319    204    378 147.5  64.6  34160  289.57 0854.46
2009/04/23 14:44:40.3     364   -239    255    436    505 123.3  32.9  34166  289.69 0854.46
2009/04/23 14:44:40.4     103   -480    206    492    533 167.9  24.1  34126  288.99 0854.46
2009/04/23 14:44:40.5     -34   -330    243    332    411 186.0  39.8  34136  289.15 0854.46
2009/04/23 14:44:40.6    -236   -212    172    318    361 228.0  30.8  34138  289.21 0854.46
2009/04/23 14:44:40.7    -265   -330    309    424    524 218.7  39.7  34132  289.10 0854.46
2009/04/23 14:44:40.8      25      1    345     26    345  87.4  90.0  34134  289.12 0854.46
2009/04/23 14:44:40.9      -1    -16    294     17    294 184.5  90.0  34156  289.49 0854.46
2009/04/23 14:44:41.0     -25   -326    158    328    364 184.5  27.4  34130  289.06 0854.46
2009/04/23 14:44:41.1    -170   -546    156    572    593 197.3  15.3  34140  289.22 0854.46
2009/04/23 14:44:41.2    -220   -438     65    491    496 206.7   7.6  34142  289.25 0854.46
2009/04/23 14:44:41.3      28   -422    150    423    450 176.2  19.6  34132  289.11 0854.46
2009/04/23 14:44:41.4      83   -172    114    192    223 154.1  33.5  34140  289.24 0854.46
2009/04/23 14:44:41.5      74     22     48     78     91  73.2  35.0  34144  289.30 0854.46
2009/04/23 14:44:41.6      40    -33     -1     52     53 129.5  -1.3  34148  289.38 0854.46
2009/04/23 14:44:41.7    -104   -228     49    251    256 204.5  11.1  34152  289.42 0854.46
2009/04/23 14:44:41.8    -387   -498    -59    631    634 217.9  -5.4  34138  289.20 0854.46
2009/04/23 14:44:41.9    -585   -357      5    686    687 238.6   0.5  34144  289.31 0854.46
2009/04/23 14:44:42.0    -408   -285    181    498    529 235.0  20.9  34154  289.48 0854.46
2009/04/23 14:44:42.1     -77   -253    298    265    398 196.9  53.9  34162  289.60 0854.46
2009/04/23 14:44:42.2     -87   -286      5    300    301 196.9   1.0  34154  289.47 0854.46
2009/04/23 14:44:42.3    -172   -415    179    450    484 202.6  22.8  34160  289.57 0854.46
2009/04/23 14:44:42.4    -398   -488    154    630    649 219.2  13.8  34148  289.38 0854.46
2009/04/23 14:44:42.5     -52   -509    185    512    545 185.9  19.9  34148  289.38 0854.46
2009/04/23 14:44:42.6      47   -560    392    563    686 175.1  38.3  34156  289.52 0854.46
2009/04/23 14:44:42.7      53   -747    368    749    834 175.9  28.1  34162  289.60 0854.46
2009/04/23 14:44:42.8       7   -632    413    633    755 179.3  36.3  34154  289.47 0854.46
2009/04/23 14:44:42.9     176   -624    417    649    771 164.2  35.6  34150  289.39 0854.46
2009/04/23 14:44:43.0     205   -534    510    573    767 159.0  46.2  34166  289.69 0854.46
2009/04/23 14:44:43.1     151   -531    458    553    718 164.1  43.8  34156  289.49 0854.46
2009/04/23 14:44:43.2     -69   -480    506    486    701 188.2  51.3  34154  289.47 0854.46
2009/04/23 14:44:43.3      14   -318    425    319    531 177.3  59.4  34168  289.71 0854.46
2009/04/23 14:44:43.4     182   -422    361    460    584 156.7  42.1  34158  289.55 0854.46
2009/04/23 14:44:43.5     186   -433    239    472    529 156.7  29.1  34156  289.50 0854.46
2009/04/23 14:44:43.6     304   -622    209    693    724 153.9  16.8  34162  289.59 0854.47
2009/04/23 14:44:43.7     414   -660    111    780    789 147.9   8.1  34162  289.61 0854.47
2009/04/23 14:44:43.8     340   -620    142    708    723 151.3  11.3  34156  289.52 0854.47
2009/04/23 14:44:43.9     378   -662    153    763    779 150.3  11.3  34166  289.66 0854.47
2009/04/23 14:44:44.0     398   -504    174    643    667 141.7  15.2  34156  289.51 0854.47
2009/04/23 14:44:44.1     311   -406     93    512    521 142.5  10.3  34166  289.69 0854.47
2009/04/23 14:44:44.2     263   -248    259    362    445 133.3  39.1  34154  289.46 0854.47
2009/04/23 14:44:44.3     200   -173    152    265    305 130.9  32.4  34156  289.51 0854.47
2009/04/23 14:44:44.4     -36   -154    230    159    279 193.4  62.4  34152  289.44 0854.47
2009/04/23 14:44:44.5       3     65    174     66    186   2.7  78.2  34174  289.80 0854.47
2009/04/23 14:44:44.6    -146   -130    271    196    334 228.2  60.6  34168  289.71 0854.47
2009/04/23 14:44:44.7     -20    -26    124     34    128 217.8  84.8  34176  289.84 0854.47
2009/04/23 14:44:44.8      23    140    192    142    238   9.3  59.8  34184  289.99 0854.47
2009/04/23 14:44:44.9     -42    125    244    133    277 341.3  69.1  34178  289.86 0854.47
2009/04/23 14:44:45.0      67    -53    214     86    230 128.2  77.1  34172  289.79 0854.47
2009/04/23 14:44:45.1    -180    -66    315    192    368 249.8  65.8  34182  289.93 0854.47
2009/04/23 14:44:45.2     -39     98    329    106    345 338.2  81.6  34184  289.97 0854.47
2009/04/23 14:44:45.3     318    -44    396    321    509  97.9  57.0  34178  289.87 0854.47
2009/04/23 14:44:45.4     516     10    371    517    636  88.8  39.2  34162  289.59 0854.47
2009/04/23 14:44:45.5     632     78    254    637    685  82.9  23.0  34166  289.68 0854.47
2009/04/23 14:44:45.6     578     80    152    584    604  82.1  14.6  34162  289.61 0854.49
2009/04/23 14:44:45.7     331     -1    331    332    468  90.3  50.0  34162  289.61 0854.49
2009/04/23 14:44:45.8     568     74    269    573    633  82.6  27.0  34156  289.50 0854.49
2009/04/23 14:44:45.9     465     72    189    471    507  81.1  23.1  34170  289.73 0854.49
2009/04/23 14:44:46.0     551    -25     69    552    557  92.6   7.2  34156  289.50 0854.49
2009/04/23 14:44:46.1     502   -101    261    513    575 101.4  29.1  34162  289.60 0854.49
2009/04/23 14:44:46.2     313   -109    270    332    427 109.2  43.5  34162  289.60 0854.49
2009/04/23 14:44:46.3     188    -33     59    191    201 100.1  17.3  34182  289.94 0854.49
2009/04/23 14:44:46.4      77    -82   -121    113    165 136.7 -56.4  34178  289.87 0854.49
2009/04/23 14:44:46.5     214     90    -71    233    243  67.2 -22.1  34194  290.14 0854.49
2009/04/23 14:44:46.6     274    154   -120    315    337  60.7 -26.2  34202  290.30 0854.49
2009/04/23 14:44:46.7     250    198   -108    319    336  51.6 -23.6  34240  290.94 0854.49
2009/04/23 14:44:46.8     383    298   -101    486    497  52.1 -11.8  34310  292.12 0854.49
2009/04/23 14:44:46.9     384    263    -13    466    467  55.6  -1.7  34318  292.26 0854.49
2009/04/23 14:44:47.0     327    247     31    410    412  52.9   4.3  34346  292.74 0854.49
2009/04/23 14:44:47.1     415    394     58    573    576  46.5   5.8  34262  291.31 0854.49
2009/04/23 14:44:47.2     363    125    273    385    471  71.0  38.8  34220  290.58 0854.49
2009/04/23 14:44:47.3     429    100    274    441    519  76.8  34.9  34308  292.10 0854.49
2009/04/23 14:44:47.4     315    177    135    362    386  60.7  21.3  34328  292.44 0854.49
2009/04/23 14:44:47.5     423    223     84    479    487  62.2  10.0  34380  293.30 0854.49
2009/04/23 14:44:47.6     436     31    204    438    483  85.9  26.9  34374  293.21 0854.50
2009/04/23 14:44:47.7     235    -47    119    240    267 101.5  28.2  34322  292.33 0854.50
2009/04/23 14:44:47.8      -8    102    137    103    171 355.5  59.2  34270  291.43 0854.50
2009/04/23 14:44:47.9      68    230    273    240    363  16.5  54.3  34332  292.50 0854.50
2009/04/23 14:44:48.0     268    401    223    483    531  33.7  26.6  34276  291.53 0854.50
2009/04/23 14:44:48.1      69    486    184    492    525   8.1  21.5  34270  291.44 0854.50
2009/04/23 14:44:48.2     287    390    300    485    570  36.4  34.6  34270  291.43 0854.50
2009/04/23 14:44:48.3     -79    589    414    595    724 352.3  38.4  34274  291.50 0854.50
2009/04/23 14:44:48.4    -397    705    236    810    844 330.6  16.3  34284  291.69 0854.50
2009/04/23 14:44:48.5    -243    548    423    600    734 336.0  38.6  34266  291.36 0854.50
2009/04/23 14:44:48.6    -137    275    274    308    412 333.5  46.4  34248  291.05 0854.52
2009/04/23 14:44:48.7     203    191    296    279    406  46.8  52.0  34270  291.45 0854.52
2009/04/23 14:44:48.8     126    127    387    179    426  44.8  73.4  34264  291.35 0854.52
2009/04/23 14:44:48.9    -188    134     75    231    244 305.5  18.1  34260  291.27 0854.52
2009/04/23 14:44:49.0     -26    138     93    141    168 349.3  36.5  34260  291.26 0854.52
2009/04/23 14:44:49.1     531    237    262    582    638  65.9  25.9  34258  291.22 0854.52
2009/04/23 14:44:49.2     570    270    231    631    671  64.6  21.0  34280  291.60 0854.52
2009/04/23 14:44:49.3     523    209    343    564    660  68.2  34.2  34280  291.62 0854.52
2009/04/23 14:44:49.4     699    232     62    737    740  71.6   4.9  34262  291.30 0854.52
2009/04/23 14:44:49.6     625    301    -27    694    695  64.2  -2.2  34230  290.77 0854.52
2009/04/23 14:44:49.7     638    406    -16    757    758  57.5  -1.3  34258  291.25 0854.52
2009/04/23 14:44:49.8     697    383    124    796    806  61.2   8.9  34266  291.37 0854.52
2009/04/23 14:44:49.9     682    375    -12    779    780  61.2  -0.9  34246  291.02 0854.52
2009/04/23 14:44:50.0     785    279     52    834    836  70.4   3.6  34278  291.59 0854.52
2009/04/23 14:44:50.1     785    287     74    837    841  69.9   5.1  34222  290.61 0854.52
2009/04/23 14:44:50.2     612    200    192    644    673  71.9  16.6  34220  290.58 0854.52
2009/04/23 14:44:50.3     708    417   -149    822    836  59.5 -10.3  34226  290.70 0854.52
2009/04/23 14:44:50.4     569    152     18    589    590  75.0   1.8  34212  290.47 0854.52
2009/04/23 14:44:50.5     225    162    193    278    338  54.3  38.3  34224  290.65 0854.52
2009/04/23 14:44:50.6     273    198    255    338    423  54.0  40.8  34208  290.38 0854.52
2009/04/23 14:44:50.7     219     87    325    236    401  68.3  60.5  34212  290.47 0854.53
2009/04/23 14:44:50.8    -343     -5    151    344    375 269.1  25.2  34228  290.71 0854.53
2009/04/23 14:44:50.9    -351    247    -68    430    436 305.1  -9.0  34228  290.73 0854.53
2009/04/23 14:44:51.0    -305    225   -127    380    401 306.4 -18.6  34212  290.45 0854.53
2009/04/23 14:44:51.1    -305    141   -197    337    390 294.8 -37.4  34222  290.64 0854.53
2009/04/23 14:44:51.2    -249     67   -274    258    376 285.1 -56.5  34228  290.71 0854.53
2009/04/23 14:44:51.3     -88   -231   -106    248    269 200.9 -29.0  34214  290.48 0854.53
2009/04/23 14:44:51.4     -15   -250   -131    251    283 183.6 -34.2  34222  290.61 0854.53
2009/04/23 14:44:51.5      67   -332   -143    339    367 168.5 -28.6  34238  290.89 0854.53
2009/04/23 14:44:51.6     142   -259   -190    296    351 151.3 -40.1  34230  290.77 0854.53
2009/04/23 14:44:51.7     155   -107   -133    189    231 124.6 -43.0  34226  290.69 0854.53
2009/04/23 14:44:51.8     134   -124    -23    183    185 132.7  -7.3  34226  290.70 0854.53
2009/04/23 14:44:51.9      93   -282      3    298    299 161.7   0.7  34232  290.78 0854.53
2009/04/23 14:44:52.0     180   -394     38    434    436 155.5   5.1  34212  290.46 0854.53
2009/04/23 14:44:52.1     238   -363    159    435    463 146.7  21.0  34228  290.73 0854.53
2009/04/23 14:44:52.2     160   -334    247    371    445 154.4  36.7  34250  291.09 0854.53
2009/04/23 14:44:52.3     170   -266    183    316    365 147.4  32.8  34244  291.01 0854.53
2009/04/23 14:44:52.4     274   -303     59    409    414 137.8   8.3  34248  291.07 0854.53
2009/04/23 14:44:52.5     -65   -380    120    386    405 189.8  17.3  34264  291.35 0854.53
2009/04/23 14:44:52.6    -119   -282     -1    307    308 202.9  -0.3  34260  291.27 0854.53
2009/04/23 14:44:52.7     -69   -305    -12    313    314 192.9  -2.2  34258  291.24 0854.56
2009/04/23 14:44:52.8    -115   -372     48    390    394 197.3   7.1  34268  291.39 0854.56
2009/04/23 14:44:52.9    -152   -447     38    473    475 198.8   4.7  34272  291.47 0854.56
2009/04/23 14:44:53.0    -187   -527     53    560    563 199.6   5.4  34242  290.96 0854.56
2009/04/23 14:44:53.1    -140   -479    -42    500    502 196.3  -4.9  34268  291.39 0854.56
2009/04/23 14:44:53.2    -251   -446    -28    513    514 209.4  -3.2  34314  292.19 0854.56
2009/04/23 14:44:53.3    -231   -430   -149    489    512 208.3 -17.0  34252  291.12 0854.56
2009/04/23 14:44:53.4    -173   -250    -98    305    320 214.7 -22.9  34288  291.73 0854.56
2009/04/23 14:44:53.5    -326   -309     -9    450    451 226.5  -1.2  34304  292.03 0854.56
2009/04/23 14:44:53.6    -304   -270   -122    407    424 228.4 -21.6  34276  291.53 0854.56
2009/04/23 14:44:53.7    -351   -219   -154    414    441 238.0 -25.8  34226  290.68 0854.56
2009/04/23 14:44:53.8    -289   -142    -47    323    327 243.8  -8.4  34266  291.38 0854.56
2009/04/23 14:44:53.9    -259   -141    -94    296    310 241.4 -22.9  34268  291.41 0854.56
2009/04/23 14:44:54.0    -251   -195    -37    318    321 232.2  -6.7  34238  290.88 0854.56
2009/04/23 14:44:54.1    -301     67    142    309    340 282.6  26.4  34240  290.94 0854.56
2009/04/23 14:44:54.2    -290    196    110    351    368 304.1  17.4  34208  290.37 0854.56
2009/04/23 14:44:54.3    -314    104    -15    331    332 288.4  -2.7  34202  290.28 0854.56
2009/04/23 14:44:54.4    -288     36    -15    291    292 277.2  -3.1  34206  290.36 0854.56
2009/04/23 14:44:54.5    -384     78    -41    392    395 281.5  -6.1  34210  290.42 0854.56
2009/04/23 14:44:54.6    -319    -49    195    323    377 261.2  34.0  34298  291.90 0854.56
2009/04/23 14:44:54.7    -308     93     64    322    329 286.8  11.3  34266  291.38 0854.56
2009/04/23 14:44:54.8    -250    -55    114    257    281 257.6  25.2  34280  291.61 0854.56
2009/04/23 14:44:54.9     -24    -15    147     29    149 237.6  89.1  34294  291.84 0854.56
2009/04/23 14:44:55.0     -55     73    144     92    170 323.0  64.6  34278  291.59 0854.56
2009/04/23 14:44:55.1      22     71    148     75    165  17.8  71.1  34242  290.96 0854.56
2009/04/23 14:44:55.2      28     -3    110     29    113  97.9  84.9  34226  290.70 0854.56
2009/04/23 14:44:55.3       9    -41    142     42    148 167.5  82.8  34224  290.65 0854.56
2009/04/23 14:44:55.4     -20    -51    176     56    184 201.8  81.2  34234  290.82 0854.56
2009/04/23 14:44:55.5      10   -129    232    130    265 175.5  68.5  34216  290.53 0854.56
2009/04/23 14:44:55.6     -32   -117    214    122    246 195.6  67.7  34210  290.41 0854.56
2009/04/23 14:44:55.7     -76     -5    151     77    169 265.6  71.1  34212  290.45 0854.56
2009/04/23 14:44:55.8    -139      0    108    140    176 270.4  41.7  34226  290.70 0854.56
2009/04/23 14:44:55.9     -79     79    106    112    154 315.0  48.5  34228  290.72 0854.56
2009/04/23 14:44:56.0    -191   -130    112    232    257 235.8  27.4  34236  290.85 0854.56
2009/04/23 14:44:56.1    -267    -50     13    272    273 259.4   2.8  34248  291.05 0854.56
2009/04/23 14:44:56.2    -291    -49     25    296    298 260.3   4.9  34252  291.12 0854.56
2009/04/23 14:44:56.3    -283     48    -37    288    291 279.7  -7.3  34284  291.68 0854.56
2009/04/23 14:44:56.4    -229     67      4    239    240 286.4   1.0  34284  291.68 0854.56
2009/04/23 14:44:56.5    -246    167    -64    298    305 304.2 -12.2  34258  291.24 0854.56
2009/04/23 14:44:56.6    -144    238     60    279    286 328.8  12.2  34232  290.78 0854.56
2009/04/23 14:44:56.7     -65    252     11    261    262 345.5   2.5  34230  290.76 0854.54
2009/04/23 14:44:56.8     -57    217    -71    225    237 345.3 -17.6  34220  290.58 0854.54
2009/04/23 14:44:56.9      41    193    -38    198    202  12.0 -11.1  34228  290.72 0854.54
2009/04/23 14:44:57.0     213     78   -139    227    266  69.8 -38.9  34238  290.88 0854.54
2009/04/23 14:44:57.1      65    225     35    235    238  16.3   8.5  34258  291.24 0854.54
2009/04/23 14:44:57.2     145     47     66    153    166  71.8  24.9  34248  291.06 0854.54
2009/04/23 14:44:57.3      33    201      0    204    205   9.3   0.0  34246  291.04 0854.54
2009/04/23 14:44:57.4     272    154     94    313    327  60.5  16.8  34220  290.58 0854.54
2009/04/23 14:44:57.5     218    218    225    309    382  45.0  39.7  34218  290.54 0854.54
2009/04/23 14:44:57.6     128    363    206    386    437  19.5  30.3  34230  290.75 0854.54
2009/04/23 14:44:57.7     168    357    190    395    438  25.2  27.4  34236  290.85 0854.54
2009/04/23 14:44:57.8     150    294    247    331    413  27.1  40.6  34242  290.98 0854.54
2009/04/23 14:44:57.9     177    404    253    442    509  23.6  32.3  34248  291.08 0854.54
2009/04/23 14:44:58.0     204    398    262    448    518  27.1  33.0  34262  291.30 0854.54
2009/04/23 14:44:58.1     245     41    286    249    379  80.5  54.6  34228  290.74 0854.54
2009/04/23 14:44:58.2     140     88    208    166    266  58.0  57.1  34238  290.88 0854.54
2009/04/23 14:44:58.3     158    167    202    231    306  43.4  45.8  34280  291.61 0854.54
2009/04/23 14:44:58.4      25    202    192    204    280   7.3  48.0  34326  292.38 0854.54
2009/04/23 14:44:58.5       0    212    101    213    235 359.8  27.2  34364  293.04 0854.54
2009/04/23 14:44:58.6      41     97     58    106    120  23.2  31.3  34342  292.66 0854.54
2009/04/23 14:44:58.7      22     39     49     46     67  29.9  52.1  34324  292.35 0854.55
2009/04/23 14:44:58.8      18     -7     70     20     72 111.7  83.9  34296  291.88 0854.55
2009/04/23 14:44:58.9     -26     16     89     31     94 302.5  81.2  34280  291.62 0854.55
2009/04/23 14:44:59.0      28     85    100     90    134  18.3  53.3  34274  291.52 0854.55
2009/04/23 14:44:59.1     -75     58     83     95    126 307.8  45.8  34284  291.67 0854.55
2009/04/23 14:44:59.2     -89     20     98     92    134 282.8  51.6  34290  291.77 0854.55
2009/04/23 14:44:59.3      -5    -13     75     15     76 201.8  89.0  34288  291.74 0854.55
2009/04/23 14:44:59.4       2    -43     62     44     76 176.4  60.6  34252  291.13 0854.55
2009/04/23 14:44:59.5       5     11     34     13     36  25.4  81.2  34242  290.98 0854.55
2009/04/23 14:44:59.6     -66      8     19     67     70 277.0  16.3  34242  290.98 0854.55
2009/04/23 14:44:59.7     -17    -52     63     55     83 198.3  53.7  34224  290.67 0854.55
2009/04/23 14:44:59.8     111      0     70    112    132  90.0  35.5  34258  291.23 0854.55
2009/04/23 14:44:59.9     134    -66     74    150    167 116.2  28.0  34216  290.52 0854.55
2009/04/23 14:45:00.0     155    -40     49    161    169 104.4  17.1  34298  291.91 0854.55
2009/04/23 14:45:00.1      79    -36     67     88    110 114.8  41.2  34320  292.30 0854.55
2009/04/23 14:45:00.2     -27   -100     77    104    129 195.6  40.1  34214  290.50 0854.55
2009/04/23 14:45:00.3     -39    -60     83     72    109 213.4  55.4  34228  290.72 0854.55
2009/04/23 14:45:00.4      33      6     67     34     75  78.6  71.9  34230  290.77 0854.55
2009/04/23 14:45:00.5      52    -82     67     98    118 147.5  37.6  34212  290.47 0854.55
2009/04/23 14:45:00.6     -44   -134    156    142    210 198.3  53.0  34216  290.52 0854.55
2009/04/23 14:45:00.7     -24    -47    159     53    167 207.2  81.0  34214  290.48 0854.55
2009/04/23 14:45:00.8     -14   -101    159    103    189 188.0  64.4  34210  290.43 0854.55
2009/04/23 14:45:00.9     -63   -163    102    175    202 201.2  33.1  34200  290.26 0854.55
2009/04/23 14:45:01.0     -26   -196     90    198    217 187.6  26.2  34202  290.28 0854.55
2009/04/23 14:45:01.1    -103    -21    -45    106    115 258.5 -28.5  34206  290.36 0854.55
2009/04/23 14:45:01.2    -194     -6    -78    195    210 268.1 -27.4  34232  290.81 0854.55
2009/04/23 14:45:01.3    -107     -3    -66    108    126 268.3 -39.4  34238  290.89 0854.55
2009/04/23 14:45:01.4    -108    -84    -70    137    153 232.2 -33.6  34230  290.77 0854.55
2009/04/23 14:45:01.5    -166    -93    -67    191    202 240.7 -24.4  34212  290.47 0854.55
2009/04/23 14:45:01.6     -92    -96    -18    134    136 223.7  -7.7  34208  290.38 0854.55
2009/04/23 14:45:01.7    -102    -10     42    103    111 263.9  23.1  34226  290.70 0854.55
2009/04/23 14:45:01.8    -105     12     -4    106    107 276.6  -2.2  34228  290.74 0854.55
2009/04/23 14:45:01.9     -38      0     64     39     74 269.2  64.7  34238  290.89 0854.55
2009/04/23 14:45:02.0     -56     22     67     61     90 291.8  52.7  34242  290.98 0854.55
2009/04/23 14:45:02.1     -18    -95     60     97    114 191.1  35.5  34246  291.03 0854.55
2009/04/23 14:45:02.2    -102   -169      4    198    199 211.2   1.2  34232  290.79 0854.55
2009/04/23 14:45:02.3     -31   -338     74    340    349 185.4  12.3  34224  290.66 0854.55
2009/04/23 14:45:02.4     -27   -352     92    354    366 184.5  14.6  34200  290.25 0854.55
2009/04/23 14:45:02.5     -99   -426    147    438    463 193.2  18.6  34192  290.11 0854.55
2009/04/23 14:45:02.6     -76   -329    170    338    378 193.1  28.7  34178  289.89 0854.55
2009/04/23 14:45:02.7     -94   -365    216    377    434 194.5  32.4  34168  289.72 0854.57
2009/04/23 14:45:02.8    -378   -208    -24    432    433 241.1  -3.2  34186  290.02 0854.57
2009/04/23 14:45:02.9    -345   -113    -39    364    367 251.8  -6.2  34178  289.86 0854.57
2009/04/23 14:45:03.0      44   -157     50    164    172 164.4  17.1  34162  289.62 0854.57
2009/04/23 14:45:03.1     145   -213    -70    258    268 145.7 -15.2  34166  289.68 0854.57
2009/04/23 14:45:03.2     260   -225   -107    345    361 130.9 -22.3  34162  289.60 0854.57
2009/04/23 14:45:03.3     210   -136    -89    251    266 122.9 -24.4  34166  289.66 0854.57
2009/04/23 14:45:03.4     283   -147    -47    320    324 117.5  -8.4  34170  289.75 0854.57
2009/04/23 14:45:03.5     216   -161    -28    270    272 126.8  -6.0  34170  289.75 0854.57
2009/04/23 14:45:03.6     212   -267     79    342    352 141.5  13.1  34172  289.79 0854.57
2009/04/23 14:45:03.7     157   -426     64    455    460 159.8   8.0  34162  289.61 0854.57
2009/04/23 14:45:03.8     116   -494    189    508    542 166.7  21.3  34152  289.45 0854.57
2009/04/23 14:45:03.9     185   -340    207    388    439 151.4  30.3  34154  289.48 0854.57
2009/04/23 14:45:04.0     193   -259    148    324    356 143.3  26.2  34156  289.50 0854.57
2009/04/23 14:45:04.1     270   -183    116    327    348 124.2  19.6  34158  289.55 0854.57
2009/04/23 14:45:04.2     143   -184     -9    234    235 142.1  -2.2  34156  289.51 0854.57
2009/04/23 14:45:04.3      68    -55   -111     88    141 129.1 -61.9  34166  289.67 0854.57
2009/04/23 14:45:04.4    -104   -104   -202    148    250 225.0 -64.7  34178  289.89 0854.57
2009/04/23 14:45:04.5    -154   -327    -42    362    365 205.3  -6.7  34168  289.72 0854.57
2009/04/23 14:45:04.6     -84   -413     10    422    423 191.6   1.5  34158  289.55 0854.57
2009/04/23 14:45:04.7     -88   -417      1    427    428 192.0   0.2  34172  289.78 0854.56
2009/04/23 14:45:04.8      45   -263    -65    267    275 170.2 -13.7  34172  289.76 0854.56
2009/04/23 14:45:04.9    -100   -278    -38    296    299 200.0  -7.3  34168  289.71 0854.56
2009/04/23 14:45:05.0      -3   -532   -114    533    546 180.4 -12.2  34172  289.77 0854.56
2009/04/23 14:45:05.1    -213   -472   -216    518    561 204.3 -28.5  34166  289.67 0854.56
2009/04/23 14:45:05.2    -144   -336   -126    366    387 203.2 -23.8  34166  289.67 0854.56
2009/04/23 14:45:05.3    -143   -408    148    433    458 199.3  18.9  34168  289.72 0854.56
2009/04/23 14:45:05.4    -219   -252     -5    334    335 221.0  -0.9  34168  289.71 0854.56
2009/04/23 14:45:05.5    -219    -73    -93    232    249 251.4 -27.4  34168  289.71 0854.56
2009/04/23 14:45:05.6    -120    -16    -98    122    156 262.1 -47.4  34166  289.69 0854.56
2009/04/23 14:45:05.7    -177    151     11    233    234 310.4   2.9  34168  289.71 0854.56
2009/04/23 14:45:05.8    -102     78    128    129    181 307.8  50.0  34178  289.89 0854.56
2009/04/23 14:45:05.9      32     -9     87     34     93 106.8  78.2  34200  290.26 0854.56
2009/04/23 14:45:06.0     116      0    112    117    161  90.0  49.0  34184  289.97 0854.56
2009/04/23 14:45:06.1     303   -273    117    409    426 132.0  16.0  34164  289.65 0854.56
2009/04/23 14:45:06.2     320   -405     81    517    524 141.7   8.9  34146  289.33 0854.56
2009/04/23 14:45:06.3     315   -171   -125    359    380 118.5 -24.3  34156  289.50 0854.56
2009/04/23 14:45:06.4      76    -47      1     90     91 121.5   1.2  34162  289.60 0854.56
2009/04/23 14:45:06.5     265    -17     92    266    282  93.7  19.2  34164  289.64 0854.56
2009/04/23 14:45:06.6     144    135    -41    198    203  46.9 -11.9  34158  289.53 0854.56
2009/04/23 14:45:06.7      86    -77     29    116    120 131.8  14.3  34168  289.72 0854.57
2009/04/23 14:45:06.8     106   -237    196    260    325 155.9  40.8  34164  289.63 0854.57
2009/04/23 14:45:06.9      60   -263    181    270    325 167.1  37.0  34158  289.53 0854.57
2009/04/23 14:45:07.1     -12   -226    164    227    280 183.1  39.5  34164  289.64 0854.57
2009/04/23 14:45:07.1       1   -226    124    227    258 179.5  31.3  34162  289.61 0854.57
2009/04/23 14:45:07.2     288   -259     34    388    390 131.9   5.1  34152  289.45 0854.57
2009/04/23 14:45:07.3     335   -213    177    398    435 122.5  25.3  34154  289.48 0854.57
2009/04/23 14:45:07.4     322   -127    208    347    404 111.5  33.7  34156  289.50 0854.57
2009/04/23 14:45:07.5     167    -55    198    176    264 108.4  54.0  34160  289.58 0854.57
2009/04/23 14:45:07.6      91   -104    -27    139    142 139.0 -11.3  34166  289.67 0854.57
2009/04/23 14:45:07.7       4   -103    -76    104    128 177.3 -44.1  34164  289.63 0854.57
2009/04/23 14:45:07.8      33     69    -66     77    101  25.5 -49.2  34182  289.94 0854.57
2009/04/23 14:45:07.9      72    214     31    226    229  18.7   7.8  34172  289.79 0854.57
2009/04/23 14:45:08.0      59    334     63    340    346  10.0  10.6  34176  289.84 0854.57
2009/04/23 14:45:08.1      53    370     -1    374    375   8.2  -0.3  34178  289.86 0854.57
2009/04/23 14:45:08.2      -1    415    -23    416    417 359.8  -3.2  34174  289.82 0854.57
2009/04/23 14:45:08.3      62    186     23    197    199  18.5   6.7  34168  289.72 0854.57
2009/04/23 14:45:08.4     -86    214     68    231    241 337.9  16.4  34178  289.86 0854.57
2009/04/23 14:45:08.5    -237     48   -110    242    265 281.5 -30.6  34180  289.92 0854.57
2009/04/23 14:45:08.6    -417   -145    -69    442    448 250.8  -8.9  34180  289.90 0854.57
2009/04/23 14:45:08.7    -518   -265    -96    582    590 242.9  -9.4  34174  289.81 0854.59
2009/04/23 14:45:08.8    -442    150   -146    467    489 288.8 -22.3  34156  289.50 0854.59
2009/04/23 14:45:08.9    -540      2   -319    541    628 270.3 -37.7  34166  289.69 0854.59
2009/04/23 14:45:09.0    -749   -160   -213    767    796 257.9 -20.2  34162  289.59 0854.59
2009/04/23 14:45:09.1    -792    -29   -282    793    841 267.9 -24.8  34184  289.97 0854.59
2009/04/23 14:45:09.2    -689     -7   -199    690    719 269.4 -16.1  34202  290.30 0854.59
2009/04/23 14:45:09.3    -687     38   -143    689    704 273.2 -11.8  34200  290.25 0854.59
2009/04/23 14:45:09.4    -834    -34   -256    835    873 267.6 -21.9  34164  289.63 0854.59
2009/04/23 14:45:09.5    -772     12   -340    773    844 270.9 -29.6  34190  290.08 0854.59
2009/04/23 14:45:09.7    -724      0   -335    725    798 270.0 -31.0  34174  289.80 0854.59
2009/04/23 14:45:09.8    -528      7   -167    529    555 270.8 -17.6  34196  290.18 0854.59
2009/04/23 14:45:09.8    -341    -62     61    347    353 259.7  10.0  34192  290.10 0854.59
2009/04/23 14:45:09.9    -295    -45     58    299    305 261.2  11.1  34218  290.54 0854.59
2009/04/23 14:45:10.0    -112   -112    102    159    188 224.9  35.6  34214  290.48 0854.59
2009/04/23 14:45:10.1     -85    -28      6     90     91 251.6   3.8  34216  290.52 0854.59
2009/04/23 14:45:10.2      85   -195   -115    213    242 156.4 -35.2  34192  290.10 0854.59
2009/04/23 14:45:10.3      11   -109    -65    110    127 174.2 -37.9  34174  289.80 0854.59
2009/04/23 14:45:10.4    -173   -209   -125    272    299 219.6 -30.8  34170  289.73 0854.59
2009/04/23 14:45:10.5    -144   -199    -88    246    262 216.0 -19.7  34176  289.85 0854.59
2009/04/23 14:45:10.6    -209    -96   -108    231    255 245.2 -31.4  34202  290.27 0854.59
2009/04/23 14:45:10.8    -272      0   -240    273    363 270.0 -50.2  34202  290.28 0854.59
2009/04/23 14:45:10.8    -178    146    -86    231    246 309.5 -25.7  34196  290.19 0854.59
2009/04/23 14:45:10.9     -27     32   -210     43    214 319.5 -90.0  34202  290.28 0854.59
2009/04/23 14:45:11.0      67   -105   -168    125    209 147.5 -64.2  34194  290.14 0854.59
2009/04/23 14:45:11.1      82    -61   -140    103    173 126.4 -64.7  34196  290.18 0854.59
2009/04/23 14:45:11.2     133   -173    -90    219    236 142.4 -28.0  34184  289.97 0854.59
2009/04/23 14:45:11.3      55   -139    -26    150    153 158.2 -10.1  34192  290.13 0854.59
2009/04/23 14:45:11.4      30   -169     82    172    190 169.8  27.3  34188  290.04 0854.59
2009/04/23 14:45:11.5      27    -65    153     71    168 157.3  73.2  34206  290.35 0854.59
2009/04/23 14:45:11.6      38   -227     57    231    238 170.4  13.9  34188  290.03 0854.59
2009/04/23 14:45:11.7     -91   -261      8    277    278 199.2   1.7  34182  289.93 0854.51
2009/04/23 14:45:11.8    -113   -392      5    408    409 196.1   0.7  34182  289.95 0854.51
2009/04/23 14:45:11.9    -203   -357     10    411    412 209.7   1.5  34184  289.97 0854.51
2009/04/23 14:45:12.1    -223   -338     48    406    409 213.4   6.8  34192  290.11 0854.51
2009/04/23 14:45:12.1      12   -410    -47    411    414 178.2  -6.6  34174  289.82 0854.51
2009/04/23 14:45:12.2      49   -576    169    579    604 175.1  16.3  34180  289.91 0854.51
2009/04/23 14:45:12.3     110   -538    150    550    571 168.4  15.3  34182  289.94 0854.51
2009/04/23 14:45:12.4     126   -613    358    627    722 168.3  32.3  34186  290.02 0854.51
2009/04/23 14:45:12.5     221   -757    234    789    824 163.7  16.5  34178  289.86 0854.51
2009/04/23 14:45:12.6     314   -687    147    756    771 155.4  11.0  34180  289.90 0854.51
2009/04/23 14:45:12.7     267   -678    137    729    742 158.5  10.7  34158  289.55 0854.51
2009/04/23 14:45:12.8     180   -589    152    617    636 163.0  13.9  34168  289.72 0854.51
2009/04/23 14:45:12.9     138   -541    146    559    578 165.7  14.7  34170  289.73 0854.51
2009/04/23 14:45:13.0     249   -410     20    480    481 148.7   2.5  34166  289.67 0854.51
2009/04/23 14:45:13.1     187   -405     70    447    453 155.2   9.0  34170  289.73 0854.51
2009/04/23 14:45:13.2     139   -402    -23    426    427 160.8  -3.1  34172  289.77 0854.51
2009/04/23 14:45:13.3     -35   -341     83    343    353 186.0  13.7  34174  289.81 0854.51
2009/04/23 14:45:13.4      27   -345    -18    347    348 175.5  -3.0  34178  289.87 0854.51
2009/04/23 14:45:13.5      39   -277     55    280    286 171.9  11.1  34182  289.93 0854.51
2009/04/23 14:45:13.6     112   -192   -122    223    254 149.7 -35.7  34186  290.00 0854.51
2009/04/23 14:45:13.7     124   -170    -75    211    223 143.7 -24.6  34184  289.97 0854.53
2009/04/23 14:45:13.8     112   -235     92    261    277 154.5  19.4  34182  289.95 0854.53
2009/04/23 14:45:13.9      85   -258     68    272    281 161.7  14.2  34188  290.05 0854.53
2009/04/23 14:45:14.0      85   -297     33    310    312 164.0   6.1  34194  290.14 0854.53
2009/04/23 14:45:14.1     120   -339     -5    360    361 160.4  -0.9  34188  290.04 0854.53
2009/04/23 14:45:14.2      73   -228     33    240    243 162.2   8.0  34192  290.10 0854.53
2009/04/23 14:45:14.3      58   -296    123    302    326 168.9  23.5  34194  290.14 0854.53
2009/04/23 14:45:14.4       1   -333    158    334    369 179.8  27.1  34196  290.18 0854.53
2009/04/23 14:45:14.5      43   -230    171    235    290 169.3  39.7  34198  290.22 0854.53
2009/04/23 14:45:14.6      80   -264    188    277    334 163.1  37.4  34206  290.34 0854.53
2009/04/23 14:45:14.7      91   -183    149    205    253 153.5  39.7  34204  290.32 0854.53
2009/04/23 14:45:14.8      49    -72    190     88    209 145.7  73.2  34224  290.65 0854.53
2009/04/23 14:45:14.9     162   -247    241    296    381 146.6  43.5  34216  290.52 0854.53
2009/04/23 14:45:15.0     125   -305    197    330    384 157.7  33.6  34214  290.49 0854.53
2009/04/23 14:45:15.1      98   -233    169    253    304 157.2  37.0  34208  290.39 0854.53
2009/04/23 14:45:15.2      84   -133    210    158    262 147.5  59.4  34222  290.61 0854.53
2009/04/23 14:45:15.3      30   -126    189    130    229 166.6  62.6  34226  290.70 0854.53
2009/04/23 14:45:15.4      27    -97    163    101    191 164.0  64.7  34226  290.69 0854.53
2009/04/23 14:45:15.5      -6    -17    121     19    122 198.7  90.0  34230  290.77 0854.53
2009/04/23 14:45:15.6     -28    -47    115     55    127 210.7  72.9  34238  290.91 0854.53
2009/04/23 14:45:15.7     -32    -96    173    102    200 198.5  66.8  34244  290.99 0854.56
2009/04/23 14:45:15.8     -51     67     94     85    126 322.6  52.7  34244  291.01 0854.56
2009/04/23 14:45:15.9       0     35     66     36     75 359.1  68.8  34240  290.94 0854.56
2009/04/23 14:45:16.0      55    -68     64     88    108 141.3  39.7  34228  290.72 0854.56
2009/04/23 14:45:16.1       7    -41    130     42    136 170.2  80.7  34252  291.13 0854.56
2009/04/23 14:45:16.2     -15     45    168     48    174 340.8  83.3  34250  291.09 0854.56
2009/04/23 14:45:16.3      45     31    105     55    118  54.9  70.4  34234  290.84 0854.56
2009/04/23 14:45:16.4      22     69    115     73    136  18.3  64.7  34218  290.57 0854.56
2009/04/23 14:45:16.5     -66     48     90     82    121 306.0  52.7  34236  290.86 0854.56
2009/04/23 14:45:16.6     -91     18      4     93     94 281.5   2.8  34232  290.79 0854.56
2009/04/23 14:45:16.7     -43    -21    -90     49    102 243.8 -73.3  34236  290.87 0854.56
2009/04/23 14:45:16.8       8    -29    -32     31     44 164.9 -53.5  34226  290.69 0854.56
2009/04/23 14:45:16.9      74    -10     -9     75     76  97.9  -7.2  34220  290.60 0854.56
2009/04/23 14:45:17.0     154     36      3    159    160  76.7   1.2  34204  290.33 0854.56
2009/04/23 14:45:17.1     165     68     61    179    190  67.6  18.9  34202  290.30 0854.56
2009/04/23 14:45:17.2     188    125    -73    227    238  56.3 -22.9  34204  290.31 0854.56
2009/04/23 14:45:17.4     256    107    -35    278    281  67.3  -7.3  34274  291.51 0854.56
2009/04/23 14:45:17.5     338     68     36    345    347  78.6   6.0  34356  292.92 0854.56
2009/04/23 14:45:17.6     272     20    206    273    342  85.6  40.8  34350  292.79 0854.56
2009/04/23 14:45:17.7     247     74    179    259    314  73.2  38.0  34340  292.64 0854.56
2009/04/23 14:45:17.8     301    -11    336    302    451  92.1  53.4  34380  293.30 0854.54
2009/04/23 14:45:17.9     314    135    267    342    433  66.7  41.9  34298  291.92 0854.54
2009/04/23 14:45:18.0     435    139    227    457    510  72.2  28.5  34276  291.53 0854.54
2009/04/23 14:45:18.1     680    138    188    694    720  78.5  15.2  34222  290.64 0854.54
2009/04/23 14:45:18.2     448    -18    181    449    484  92.4  23.1  34248  291.08 0854.54
2009/04/23 14:45:18.3     221   -163    150    275    313 126.4  30.9  34258  291.24 0854.54
2009/04/23 14:45:18.4     268    -85    157    282    322 107.7  31.6  34254  291.16 0854.54
2009/04/23 14:45:18.5     262   -136    131    296    323 117.5  25.6  34260  291.26 0854.54
2009/04/23 14:45:18.6     175   -225    228    286    365 142.2  42.7  34246  291.03 0854.54
2009/04/23 14:45:18.7     205   -247    200    322    379 140.3  35.1  34272  291.49 0854.54
2009/04/23 14:45:18.8     224   -166    265    280    385 126.6  48.0  34246  291.03 0854.54
2009/04/23 14:45:18.9     143   -517    154    537    559 164.5  16.0  34288  291.76 0854.54
2009/04/23 14:45:19.0      99   -205    189    228    296 154.1  43.8  34318  292.24 0854.54
2009/04/23 14:45:19.1     -56   -361    269    366    454 188.8  39.8  34302  291.98 0854.54
2009/04/23 14:45:19.2    -195   -465    124    505    521 202.8  13.8  34288  291.76 0854.54
2009/04/23 14:45:19.3    -341   -536     17    636    637 212.5   1.6  34314  292.19 0854.54
2009/04/23 14:45:19.4    -184   -428     65    466    471 203.3   8.0  34258  291.22 0854.54
2009/04/23 14:45:19.5    -295   -227    149    373    401 232.4  23.0  34268  291.39 0854.54
2009/04/23 14:45:19.6    -342      0    211    343    402 270.0  34.5  34268  291.42 0854.54
2009/04/23 14:45:19.7    -354    150     70    385    392 293.1  10.4  34264  291.34 0854.54
2009/04/23 14:45:19.8    -543    257    -39    601    603 295.4  -3.8  34238  290.90 0854.49
2009/04/23 14:45:19.9    -294    103    -34    312    314 289.3  -6.3  34230  290.75 0854.49
2009/04/23 14:45:20.0    -117    238     13    266    267 333.7   2.9  34226  290.70 0854.49
2009/04/23 14:45:20.1    -389     78   -180    397    435 281.4 -30.4  34232  290.78 0854.49
2009/04/23 14:45:20.2    -273   -220   -174    351    391 231.2 -32.6  34230  290.76 0854.49
2009/04/23 14:45:20.3    -505   -168    -11    533    534 251.5  -1.3  34230  290.77 0854.49
2009/04/23 14:45:20.4    -504   -428     41    662    664 229.7   3.6  34240  290.92 0854.49
2009/04/23 14:45:20.5    -393   -510    142    644    660 217.6  12.5  34224  290.65 0854.49
2009/04/23 14:45:20.6    -236   -175    209    295    361 233.4  38.8  34218  290.55 0854.49
2009/04/23 14:45:20.7      -1    -28    217     29    218 182.7  90.0  34250  291.11 0854.49
2009/04/23 14:45:20.8     106    -98    151    145    209 132.7  50.9  34234  290.84 0854.49
2009/04/23 14:45:20.9     155    -86    206    178    272 119.1  54.8  34252  291.12 0854.49
2009/04/23 14:45:21.0      93     24    210     97    231  75.4  73.2  34244  290.99 0854.49
2009/04/23 14:45:21.1     -53    -28    258     61    265 242.0  87.0  34230  290.77 0854.49
2009/04/23 14:45:21.2      -3     72    208     73    220 357.3  80.5  34242  290.98 0854.49
2009/04/23 14:45:21.3     -33     -6    192     34    194 258.5  90.0  34246  291.03 0854.49
2009/04/23 14:45:21.4     -12    -72    233     74    244 189.8  81.8  34224  290.67 0854.49
2009/04/23 14:45:21.5    -149   -133    123    200    234 228.2  34.4  34214  290.48 0854.49
2009/04/23 14:45:21.6    -179     36    -41    183    188 281.5 -12.6  34214  290.50 0854.49
2009/04/23 14:45:21.7    -154   -173     68    232    242 221.7  16.4  34216  290.51 0854.49
2009/04/23 14:45:21.8     122    -57    165    135    213 115.3  56.4  34214  290.48 0854.52
2009/04/23 14:45:21.9     160   -216    269    269    380 143.5  50.1  34208  290.38 0854.52
2009/04/23 14:45:22.0     129    -20    231    131    265  98.8  68.1  34228  290.72 0854.52
2009/04/23 14:45:22.1     433   -144    354    457    578 108.4  41.7  34228  290.74 0854.52
2009/04/23 14:45:22.2     496    -38    195    498    534  94.4  22.5  34202  290.30 0854.52
2009/04/23 14:45:22.3     571   -164     29    595    596 106.0   2.8  34218  290.54 0854.52
2009/04/23 14:45:22.4     478    -36    210    480    523  94.4  25.2  34222  290.62 0854.52
2009/04/23 14:45:22.5     301    -26    125    303    327  95.0  23.7  34206  290.34 0854.52
2009/04/23 14:45:22.6      45      7    279     46    282  80.3  90.0  34210  290.42 0854.52
2009/04/23 14:45:22.7     -49   -137    182    146    233 200.0  56.9  34210  290.41 0854.52
2009/04/23 14:45:22.8     102   -233    214    255    332 156.4  44.2  34220  290.58 0854.52
2009/04/23 14:45:22.9     -29   -314    266    316    413 185.3  44.4  34198  290.23 0854.52
2009/04/23 14:45:23.0     -24   -303    147    305    338 184.7  27.7  34194  290.15 0854.52
2009/04/23 14:45:23.1     146     -4    209    147    255  91.7  61.5  34212  290.45 0854.52
2009/04/23 14:45:23.2     570     89    629    578    854  81.1  52.8  34218  290.54 0854.52
2009/04/23 14:45:23.3     351   -179    150    395    422 117.1  22.0  34204  290.33 0854.52
2009/04/23 14:45:23.4      76   -485    421    492    647 171.0  44.9  34238  290.88 0854.52
2009/04/23 14:45:23.5     298   -479    506    565    758 148.1  46.4  34220  290.59 0854.52
2009/04/23 14:45:23.6      30   -323    399    325    514 174.6  56.9  34214  290.48 0854.52
2009/04/23 14:45:23.7      77   -414    535    422    681 169.4  57.9  34216  290.53 0854.52
2009/04/23 14:45:23.8     236   -396    470    462    659 149.2  50.6  34226  290.70 0854.55
2009/04/23 14:45:23.9     419   -467    488    628    795 138.1  41.7  34220  290.58 0854.55
2009/04/23 14:45:24.0     429   -484    478    647    804 138.5  40.1  34218  290.55 0854.55
2009/04/23 14:45:24.1     170   -374    368    411    551 155.5  46.4  34198  290.23 0854.55
2009/04/23 14:45:24.2     127   -581    222    595    635 167.6  21.4  34192  290.11 0854.55
2009/04/23 14:45:24.3     114   -689    506    699    862 170.6  39.5  34224  290.67 0854.55
2009/04/23 14:45:24.4      94   -393    529    405    666 166.5  58.9  34190  290.08 0854.55
2009/04/23 14:45:24.5     128   -163    248    208    323 141.9  56.0  34214  290.49 0854.55
2009/04/23 14:45:24.6     -93    120     71    153    168 322.1  27.0  34212  290.47 0854.55
2009/04/23 14:45:24.7     215    299    238    369    439  35.7  35.6  34202  290.29 0854.55
2009/04/23 14:45:24.8      48     75    474     90    482  33.0  89.8  34224  290.67 0854.55
2009/04/23 14:45:24.9     -35     53    263     64    270 326.6  86.7  34234  290.82 0854.55
2009/04/23 14:45:25.0     210    229    218    311    379  42.5  38.5  34208  290.37 0854.55
2009/04/23 14:45:25.1     187    308    107    361    377  31.3  16.5  34208  290.40 0854.55
2009/04/23 14:45:25.2     331    510    -27    609    610  33.0  -2.6  34202  290.29 0854.55
2009/04/23 14:45:25.3     469    418    104    629    638  48.3   9.4  34186  290.01 0854.55
2009/04/23 14:45:25.4     679    383    121    780    790  60.6   8.8  34188  290.03 0854.55
2009/04/23 14:45:25.5     762    350    293    839    889  65.3  19.3  34182  289.94 0854.55
2009/04/23 14:45:25.6     550    376     88    667    673  55.6   7.6  34178  289.88 0854.55
2009/04/23 14:45:25.7     101    489    209    500    541  11.7  24.1  34194  290.14 0854.55
2009/04/23 14:45:25.8     305    647    249    716    759  25.2  19.2  34210  290.43 0854.58
2009/04/23 14:45:25.9     156    409    244    438    501  20.9  31.5  34228  290.71 0854.58
2009/04/23 14:45:26.0     497    348    395    607    724  55.0  36.2  34176  289.83 0854.58
2009/04/23 14:45:26.1     611    493    348    786    859  51.1  25.6  34184  289.99 0854.58
2009/04/23 14:45:26.2     877    347    480    944   1059  68.4  29.1  34174  289.81 0854.58
2009/04/23 14:45:26.3     558    -46    458    560    723  94.8  43.5  34204  290.31 0854.58
2009/04/23 14:45:26.4     285   -603     27    667    668 154.7   2.4  34204  290.31 0854.58
2009/04/23 14:45:26.5     146   -190   -150    240    283 142.4 -39.9  34210  290.41 0854.58
2009/04/23 14:45:26.6     545   -306    -13    626    627 119.3  -1.3  34200  290.26 0854.58
2009/04/23 14:45:26.7     427   -439   -159    613    634 135.8 -14.6  34198  290.20 0854.58
2009/04/23 14:45:26.8     432   -380     28    576    577 131.3   2.8  34198  290.20 0854.58
2009/04/23 14:45:26.9     550   -414    -83    689    694 127.0  -6.9  34204  290.31 0854.58
2009/04/23 14:45:27.0     413   -484   -206    637    669 139.5 -23.0  34198  290.22 0854.58
2009/04/23 14:45:27.1     260   -410   -130    486    504 147.6 -15.1  34206  290.35 0854.58
2009/04/23 14:45:27.2     287   -499   -236    576    622 150.1 -27.9  34198  290.20 0854.58
2009/04/23 14:45:27.3     294   -324    -45    438    441 137.8  -6.0  34202  290.28 0854.58
2009/04/23 14:45:27.4     312   -353    211    472    517 138.5  25.7  34208  290.40 0854.58
2009/04/23 14:45:27.5     165   -364    280    400    488 155.5  38.5  34200  290.26 0854.58
2009/04/23 14:45:27.6    -117   -464    246    479    538 194.2  29.3  34212  290.46 0854.58
2009/04/23 14:45:27.7    -211   -632    302    667    732 198.5  26.2  34208  290.37 0854.58
2009/04/23 14:45:27.8       2   -646   -184    647    673 179.8 -15.9  34142  289.27 0854.56
2009/04/23 14:45:27.9     -11   -783    273    784    831 180.8  19.2  34200  290.26 0854.56
2009/04/23 14:45:28.0    -192   -773    388    797    886 194.0  27.9  34194  290.15 0854.56
2009/04/23 14:45:28.1    -858   -614    186   1056   1073 234.4  10.0  34208  290.37 0854.56
2009/04/23 14:45:28.2    -372   -402    193    548    580 222.8  20.1  34200  290.25 0854.56
2009/04/23 14:45:28.3    -418   -382     31    567    568 227.6   3.1  34188  290.04 0854.56
2009/04/23 14:45:28.4      -5   -548    246    549    601 180.6  25.8  34238  290.88 0854.56
2009/04/23 14:45:28.5     -67   -552    202    557    592 187.0  20.9  34232  290.80 0854.56
2009/04/23 14:45:28.6    -319   -730    132    797    808 203.6   9.4  34198  290.20 0854.56
2009/04/23 14:45:28.7    -809   -423   -324    913    970 242.4 -19.6  34218  290.57 0854.56
2009/04/23 14:45:28.8    -538   -196    -16    573    574 249.9  -1.6  34216  290.53 0854.56
2009/04/23 14:45:28.9    -402   -214   -271    456    530 242.0 -37.9  34198  290.22 0854.56
2009/04/23 14:45:29.0    -453   -439   -175    632    655 225.9 -20.0  34202  290.30 0854.56
2009/04/23 14:45:29.1    -283   -316   -249    425    492 221.8 -37.4  34202  290.27 0854.56
2009/04/23 14:45:29.2      53   -485   -135    489    507 173.7 -20.2  34222  290.64 0854.56
2009/04/23 14:45:29.3     -60   -341   -164    347    383 190.0 -31.5  34222  290.62 0854.56
2009/04/23 14:45:29.4     220   -416    -68    471    476 152.1  -8.2  34212  290.44 0854.56
2009/04/23 14:45:29.5     101   -411   -105    424    437 166.1 -13.9  34210  290.41 0854.56
2009/04/23 14:45:29.6      66   -470     -7    475    476 172.0  -0.9  34216  290.52 0854.56
2009/04/23 14:45:29.7      10   -593    115    594    606 179.0  11.0  34202  290.27 0854.56
2009/04/23 14:45:29.8     326   -711    104    783    790 155.4   7.6  34172  289.78 0854.55
2009/04/23 14:45:29.9     334   -594    430    682    806 150.6  35.3  34182  289.95 0854.55
2009/04/23 14:45:30.0     -15   -793    304    794    850 181.1  22.1  34184  289.99 0854.55
2009/04/23 14:45:30.1     322   -953    258   1007   1040 161.3  14.4  34168  289.71 0854.55
2009/04/23 14:45:30.2     404   -811    218    907    933 153.5  13.6  34164  289.63 0854.55
2009/04/23 14:45:30.3     295   -586    421    657    780 153.3  35.7  34176  289.85 0854.55
2009/04/23 14:45:30.4     423   -634    273    763    810 146.3  20.6  34150  289.41 0854.55
2009/04/23 14:45:30.5     493   -623    154    795    810 141.6  11.0  34164  289.64 0854.55
2009/04/23 14:45:30.6     363   -586    246    690    733 148.2  19.7  34156  289.52 0854.55
2009/04/23 14:45:30.7     271   -278    317    389    501 135.8  43.5  34162  289.59 0854.55
2009/04/23 14:45:30.8     223   -239    297    328    442 137.0  46.9  34160  289.58 0854.51
2009/04/23 14:45:30.9      73    -47    243     88    258 122.9  79.5  34188  290.04 0854.51
2009/04/23 14:45:31.0     316   -314    166    446    475 134.8  21.4  34162  289.59 0854.51
2009/04/23 14:45:31.1     267   -184    307    325    447 124.6  48.2  34174  289.80 0854.51
2009/04/23 14:45:31.2     218    -70    316    230    390 107.9  60.5  34192  290.13 0854.51
2009/04/23 14:45:31.3     326    -80    290    336    443 103.8  45.2  34180  289.92 0854.51
2009/04/23 14:45:31.4     378   -174    347    417    542 114.7  43.8  34176  289.84 0854.51
2009/04/23 14:45:31.5      22   -288    310    289    423 175.6  52.2  34162  289.62 0854.51
2009/04/23 14:45:31.6     -75   -233    251    245    350 197.9  50.6  34172  289.78 0854.51
2009/04/23 14:45:31.7     -11   -177    215    178    279 183.6  56.3  34168  289.71 0854.51
2009/04/23 14:45:31.8      -1    -14    128     15    128 184.4  90.0  34180  289.91 0854.51
2009/04/23 14:45:31.9     -29    -99    118    104    157 196.5  54.0  34178  289.89 0854.51
2009/04/23 14:45:32.0      68     75    179    102    206  42.3  68.1  34202  290.30 0854.51
2009/04/23 14:45:32.1     -40    -17     91     44    101 246.5  72.8  34184  289.97 0854.51
2009/04/23 14:45:32.2     -58    146     87    158    180 338.2  31.3  34166  289.67 0854.51
2009/04/23 14:45:32.3     -21    433     87    434    443 357.2  11.4  34194  290.16 0854.51
2009/04/23 14:45:32.4     -70    400    194    407    450 350.0  27.3  34184  289.97 0854.51
2009/04/23 14:45:32.5    -224    316    205    388    438 324.6  30.2  34220  290.58 0854.51
2009/04/23 14:45:32.6     -17    578    237    579    625 358.3  23.6  34238  290.88 0854.51
2009/04/23 14:45:32.7     -30    307    108    309    328 354.4  19.3  34210  290.41 0854.51
2009/04/23 14:45:32.8     223    -44    256    228    342 101.4  53.7  34234  290.82 0854.54
2009/04/23 14:45:32.9     -25     25    142     36    146 315.0  85.9  34230  290.75 0854.54
2009/04/23 14:45:33.0     -43    391    197    394    440 353.7  28.5  34244  291.01 0854.54
2009/04/23 14:45:33.1     -42    442    275    445    523 354.6  34.8  34274  291.51 0854.54
2009/04/23 14:45:33.2      24    444    277    204    344 360.0  60.1  34278  291.56 0854.54
2009/04/23 14:45:33.3    -155    453    309    479    570 341.1  35.9  34290  291.79 0854.54
2009/04/23 14:45:33.4    -374    339    386    506    636 312.2  41.2  34232  290.78 0854.54
2009/04/23 14:45:33.5    -400    457    474    608    770 318.8  41.9  34262  291.30 0854.54
2009/04/23 14:45:33.6      98    553    455    562    723  10.1  43.1  34312  292.16 0854.54
2009/04/23 14:45:33.7      84    420    481    429    644  11.4  53.9  34282  291.66 0854.54
2009/04/23 14:45:33.8     234    366    379    435    576  32.6  45.5  34266  291.38 0854.54
2009/04/23 14:45:33.9     284    529    209    601    637  28.3  19.2  34268  291.39 0854.54
2009/04/23 14:45:34.0     268    502    423    570    709  28.1  40.2  34290  291.77 0854.54
2009/04/23 14:45:34.1     529    526    320    747    812  45.2  24.6  34264  291.34 0854.54
2009/04/23 14:45:34.2     581    797    294    987   1030  36.1  16.6  34184  289.99 0854.54
2009/04/23 14:45:34.3     627    627    224    888    916  45.0  14.2  34218  290.55 0854.54
2009/04/23 14:45:34.4     837    633    -64   1050   1052  52.9  -3.5  34266  291.38 0854.54
2009/04/23 14:45:34.5     762    624    172    986   1002  50.7   9.9  34226  290.70 0854.54
2009/04/23 14:45:34.6     934    634   -163   1129   1141  55.8  -8.2  34230  290.76 0854.54
2009/04/23 14:45:34.7     370    809     79    890    894  24.6   5.1  34184  289.99 0854.54
2009/04/23 14:45:34.8     391    752     64    848    851  27.5   4.3  34180  289.90 0854.49
2009/04/23 14:45:34.9     631    608   -159    877    892  46.1 -10.3  34162  289.59 0854.49
2009/04/23 14:45:35.0     655    334    150    736    752  63.0  11.6  34204  290.33 0854.49
2009/04/23 14:45:35.1    1088    328    245   1137   1164  73.2  12.2  34194  290.15 0854.49
2009/04/23 14:45:35.2     586    800     19    992    993  36.2   1.1  34156  289.49 0854.49
2009/04/23 14:45:35.3     753    607     61    968    970  51.1   3.6  34158  289.55 0854.49
2009/04/23 14:45:35.4     662    469     -8    812    813  54.7  -0.6  34144  289.31 0854.49
2009/04/23 14:45:35.5     818    365     92    896    901  65.9   5.9  34186  290.02 0854.49
2009/04/23 14:45:35.6     595    264    -24    652    653  66.0  -2.1  34166  289.69 0854.49
2009/04/23 14:45:35.7     509    217    165    554    579  66.9  16.6  34154  289.46 0854.49
2009/04/23 14:45:35.8     497    267    193    565    598  61.8  18.9  34166  289.68 0854.49
2009/04/23 14:45:35.9     344    467    208    581    617  36.4  20.4  34234  290.83 0854.49
2009/04/23 14:45:36.0     102    370    232    384    448  15.5  34.0  34242  290.97 0854.49
2009/04/23 14:45:36.1     162    515    165    541    566  17.5  17.0  34156  289.50 0854.49
2009/04/23 14:45:36.2     171    427    191    461    499  21.9  23.9  34172  289.79 0854.49
2009/04/23 14:45:36.3      28    377    194    378    424   4.4  29.3  34204  290.33 0854.49
2009/04/23 14:45:36.4     -28    357    127    359    382 355.5  19.6  34220  290.60 0854.49
2009/04/23 14:45:36.5     -55    352    192    357    405 351.0  30.6  34228  290.72 0854.49
2009/04/23 14:45:36.6      83    143    120    166    204  30.1  39.5  34234  290.82 0854.49
2009/04/23 14:45:36.7     138    101    198    172    262  53.8  54.3  34214  290.49 0854.49
2009/04/23 14:45:36.8     326    257    130    416    437  51.7  17.4  34164  289.65 0854.57
2009/04/23 14:45:36.9     100    317    164    333    371  17.6  28.1  34244  291.01 0854.57
2009/04/23 14:45:37.0     117    368    224    387    447  17.7  32.7  34246  291.04 0854.57
2009/04/23 14:45:37.1      15    490    111    491    504   1.8  12.8  34190  290.08 0854.57
2009/04/23 14:45:37.2      38    512    181    514    546   4.3  19.4  34236  290.86 0854.57
2009/04/23 14:45:37.3    -168    425    120    458    474 338.4  14.7  34174  289.81 0854.57
2009/04/23 14:45:37.4    -107    450    126    463    481 346.6  15.3  34178  289.86 0854.57
2009/04/23 14:45:37.5      30    375    148    377    405   4.7  22.5  34208  290.38 0854.57
2009/04/23 14:45:37.6     -15    729    -51    730    732 358.8  -4.0  34166  289.67 0854.57
2009/04/23 14:45:37.7      -3    592   -202    593    627 359.7 -18.8  34168  289.70 0854.57
2009/04/23 14:45:37.8       8    516    -69    517    522   1.0  -7.7  34158  289.53 0854.57
2009/04/23 14:45:37.9     -10    679    -26    680    681 359.1  -2.2  34156  289.49 0854.57
2009/04/23 14:45:38.0    -437    865    -37    970    971 333.2  -2.2  34154  289.48 0854.57
2009/04/23 14:45:38.1    -399    467   -234    615    658 319.5 -26.4  34168  289.72 0854.57
2009/04/23 14:45:38.2      18    643     23    644    645   1.6   2.1  34208  290.40 0854.57
2009/04/23 14:45:38.3     129    544     42    560    562  13.4   4.3  34232  290.79 0854.57
2009/04/23 14:45:38.4     150    723    392    739    836  11.8  30.2  34190  290.09 0854.57
2009/04/23 14:45:38.5     -86    665    275    671    725 352.6  23.6  34188  290.03 0854.57
2009/04/23 14:45:38.6     187    553    159    584    606  18.7  15.3  34246  291.04 0854.57
2009/04/23 14:45:38.7     110    742    132    751    763   8.5  10.0  34200  290.26 0854.57
2009/04/23 14:45:38.8    -483    458    -85    667    673 313.5  -7.3  34196  290.19 0854.54
2009/04/23 14:45:38.9    -180    618    180    644    669 343.7  15.7  34190  290.07 0854.54
2009/04/23 14:45:39.0      97    420    248    432    498  13.0  32.4  34218  290.57 0854.54
2009/04/23 14:45:39.1     204    320    103    380    394  32.6  15.2  34236  290.86 0854.54
2009/04/23 14:45:39.2    -182    250    115    310    330 323.9  21.1  34182  289.95 0854.54
2009/04/23 14:45:39.3     -88    461     22    470    471 349.1   2.8  34182  289.96 0854.54
2009/04/23 14:45:39.4     -56    485     46    489    492 353.4   5.4  34186  290.01 0854.54
2009/04/23 14:45:39.5    -376    458     24    593    594 320.6   2.4  34174  289.80 0854.54
2009/04/23 14:45:39.6    -543    178   -136    572    588 288.2 -13.4  34172  289.76 0854.54
2009/04/23 14:45:39.7    -195   -165     93    256    272 229.8  20.7  34186  290.02 0854.54
2009/04/23 14:45:39.8    -178   -102    145    206    251 240.2  38.5  34200  290.26 0854.54
2009/04/23 14:45:39.9     251   -170    205    304    366 124.1  37.3  34230  290.76 0854.54
2009/04/23 14:45:40.0     118    -46    280    127    307 111.3  74.0  34266  291.36 0854.54
2009/04/23 14:45:40.1     306   -156    259    344    430 117.1  40.7  34232  290.78 0854.54
2009/04/23 14:45:40.2     223     75     97    236    255  71.4  23.6  34202  290.27 0854.54
2009/04/23 14:45:40.3     226     72     71    238    249  72.3  16.6  34206  290.36 0854.54
2009/04/23 14:45:40.4     368    233    111    436    450  57.6  14.3  34202  290.29 0854.54
2009/04/23 14:45:40.5     287    581     96    649    657  26.3   8.5  34192  290.13 0854.54
2009/04/23 14:45:40.6     344    487    326    597    680  35.2  31.0  34206  290.35 0854.54
2009/04/23 14:45:40.7     113    523    398    536    667  12.3  40.4  34198  290.23 0854.54
2009/04/23 14:45:40.8     173    749    286    769    820  13.0  21.4  34178  289.87 0854.54
2009/04/23 14:45:40.9     358    604    368    703    793  30.7  29.9  34216  290.51 0854.54
2009/04/23 14:45:41.0     370    433    344    570    665  40.5  34.0  34208  290.38 0854.54
2009/04/23 14:45:41.1     285    312    432    423    604  42.4  50.7  34208  290.38 0854.54
2009/04/23 14:45:41.2     244    494    140    551    569  26.3  14.3  34218  290.57 0854.54
2009/04/23 14:45:41.3     157    481    227    506    554  18.1  25.7  34172  289.79 0854.54
2009/04/23 14:45:41.4      70    526    250    531    586   7.6  27.1  34204  290.32 0854.54
2009/04/23 14:45:41.5     -50    544    278    547    613 354.7  29.2  34274  291.51 0854.54
2009/04/23 14:45:41.6       0    411    198    412    457 359.9  27.3  34272  291.46 0854.54
2009/04/23 14:45:41.7    -139    369    171    395    430 339.3  25.1  34270  291.43 0854.54
2009/04/23 14:45:41.8     234    389    277    455    532  31.0  34.2  34198  290.23 0854.54
2009/04/23 14:45:41.9     419    615     50    745    747  34.3   3.9  34190  290.07 0854.54
2009/04/23 14:45:42.0     472    444      1    649    650  46.8   0.1  34188  290.03 0854.54
2009/04/23 14:45:42.1     244    370    216    444    493  33.5  27.8  34178  289.88 0854.54
2009/04/23 14:45:42.2     195    444    425    486    645  23.7  45.7  34170  289.73 0854.54
2009/04/23 14:45:42.3     415    436    487    602    774  43.6  43.1  34192  290.13 0854.54
2009/04/23 14:45:42.4     177    532    294    562    634  18.5  29.8  34180  289.90 0854.54
2009/04/23 14:45:42.5     343    343    375    486    613  45.0  41.6  34222  290.61 0854.54
2009/04/23 14:45:42.6    -127    279    180    307    355 335.5  33.1  34204  290.33 0854.54
2009/04/23 14:45:42.7    -592    193    -76    623    628 288.1  -7.0  34184  289.99 0854.54
2009/04/23 14:45:42.8    -429    191   -232    470    524 294.0 -32.6  34200  290.25 0854.56
2009/04/23 14:45:42.9    -329    -63     40    336    339 259.1   6.9  34200  290.25 0854.56
2009/04/23 14:45:43.0    -550     16     30    551    552 271.7   3.1  34186  290.01 0854.56
2009/04/23 14:45:43.1    -636    -18     52    637    640 268.3   4.7  34198  290.20 0854.56
2009/04/23 14:45:43.2    -362    484    219    605    643 323.2  20.8  34192  290.11 0854.56
2009/04/23 14:45:43.3     -57    258    302    265    401 347.5  54.3  34192  290.13 0854.56
2009/04/23 14:45:43.4    -235    335    157    410    439 325.0  22.0  34182  289.94 0854.56
2009/04/23 14:45:43.5      72    254    239    265    356  15.8  46.8  34188  290.06 0854.56
2009/04/23 14:45:43.6    -117    114      2    164    165 314.4   0.8  34188  290.04 0854.56
2009/04/23 14:45:43.7    -376    136   -140    401    424 290.0 -24.4  34188  290.05 0854.56
2009/04/23 14:45:43.8    -302    198   -128    362    385 303.2 -19.5  34178  289.89 0854.56
2009/04/23 14:45:43.9    -294    192   -150    352    382 303.2 -29.0  34174  289.82 0854.56
2009/04/23 14:45:44.0    -180     48     19    187    189 285.0   6.1  34190  290.08 0854.56
2009/04/23 14:45:44.1    -120     99      6    156    157 309.5   2.3  34192  290.13 0854.56
2009/04/23 14:45:44.2    -465    337   -174    575    600 306.0 -21.7  34188  290.03 0854.56
2009/04/23 14:45:44.3    -454    278   -169    533    559 301.5 -22.8  34196  290.19 0854.56
2009/04/23 14:45:44.4    -361    -53   -230    365    431 261.6 -39.7  34194  290.16 0854.56
2009/04/23 14:45:44.5    -135    -36   -167    140    217 254.9 -60.5  34188  290.04 0854.56
2009/04/23 14:45:44.6      48     -7   -104     49    114  98.8 -77.5  34204  290.31 0854.56
2009/04/23 14:45:44.7     -15    -14   -139     21    140 226.9 -90.0  34206  290.36 0854.56
2009/04/23 14:45:44.8      -8     93   -176     94    199 354.7 -74.0  34204  290.33 0854.54
2009/04/23 14:45:44.9     -12     53   -121     55    132 346.6 -78.4  34218  290.55 0854.54
2009/04/23 14:45:45.0      33     73   -139     81    160  24.5 -71.6  34222  290.64 0854.54
2009/04/23 14:45:45.2      46    -97   -169    108    200 154.5 -69.0  34218  290.55 0854.54
2009/04/23 14:45:45.3      38      0   -142     39    147  90.8 -89.2  34224  290.65 0854.54
2009/04/23 14:45:45.4      81   -127   -135    151    202 147.5 -51.0  34222  290.62 0854.54
2009/04/23 14:45:45.5     109   -155   -107    190    218 144.8 -36.0  34220  290.58 0854.54
2009/04/23 14:45:45.6     184   -317   -111    367    383 149.8 -21.7  34212  290.47 0854.54
2009/04/23 14:45:45.7     232   -318     21    394    395 143.9   3.1  34206  290.35 0854.54
2009/04/23 14:45:45.8     310   -197    -96    368    381 122.4 -14.6  34208  290.38 0854.54
2009/04/23 14:45:45.9     433   -139   -108    455    468 107.8 -13.4  34180  289.92 0854.54
2009/04/23 14:45:46.0     476   -261    128    543    558 118.8  13.3  34188  290.04 0854.54
2009/04/23 14:45:46.1     547   -333     83    641    647 121.3   7.4  34198  290.21 0854.54
2009/04/23 14:45:46.2     479   -227    129    531    547 115.4  13.7  34188  290.06 0854.54
2009/04/23 14:45:46.3     426   -206    111    474    487 115.9  13.2  34192  290.13 0854.54
2009/04/23 14:45:46.4     590   -161    334    612    697 105.3  31.0  34180  289.90 0854.54
2009/04/23 14:45:46.5     467   -284    351    547    649 121.3  35.7  34178  289.89 0854.54
2009/04/23 14:45:46.6     461   -201    263    504    568 113.6  29.8  34192  290.13 0854.54
2009/04/23 14:45:46.7     216    -94    149    236    279 113.7  35.5  34188  290.03 0854.54
2009/04/23 14:45:46.8     385     86    359    395    533  77.3  47.0  34192  290.12 0854.54
2009/04/23 14:45:46.9     282     35    373    285    469  82.8  59.0  34192  290.12 0854.52
2009/04/23 14:45:47.0     197     -4    375    198    424  91.3  69.9  34200  290.25 0854.52
2009/04/23 14:45:47.1     260     35    363    263    448  82.3  60.6  34194  290.15 0854.52
2009/04/23 14:45:47.2     196    152    319    249    404  52.2  58.2  34194  290.15 0854.52
2009/04/23 14:45:47.3     277    256    310    378    488  47.2  43.7  34184  289.99 0854.52
2009/04/23 14:45:47.4     279    288    263    402    480  44.1  36.3  34182  289.95 0854.52
2009/04/23 14:45:47.5     356    237    262    428    501  56.3  34.4  34180  289.91 0854.52
2009/04/23 14:45:47.6     325    290    240    436    497  48.2  31.4  34182  289.95 0854.52
2009/04/23 14:45:47.7     349    284    262    451    521  50.9  32.9  34192  290.13 0854.52
2009/04/23 14:45:47.8     328    249    379    413    560  52.8  47.3  34192  290.10 0854.52
2009/04/23 14:45:47.9     297    163    181    339    384  61.2  30.6  34196  290.18 0854.52
2009/04/23 14:45:48.0     270    155    187    312    363  60.2  33.7  34198  290.20 0854.52
2009/04/23 14:45:48.1     285    150    292    323    435  62.3  46.9  34186  290.01 0854.52
2009/04/23 14:45:48.2     158    139    288    211    357  48.7  60.4  34190  290.09 0854.52
2009/04/23 14:45:48.3     123    101    290    160    331  50.5  68.8  34202  290.27 0854.52
2009/04/23 14:45:48.4      -6     81    192     82    208 355.6  75.5  34216  290.53 0854.52
2009/04/23 14:45:48.5    -145    -58    142    157    211 248.3  46.9  34226  290.70 0854.52
2009/04/23 14:45:48.6      12   -118     75    119    140 173.8  35.5  34228  290.72 0854.52
2009/04/23 14:45:48.7    -119    -68     47    138    146 240.2  18.9  34228  290.72 0854.52
2009/04/23 14:45:48.8    -155   -105    -52    188    196 235.8 -15.5  34218  290.57 0854.52
2009/04/23 14:45:48.9    -271    -91    115    286    308 251.4  23.0  34212  290.44 0854.53
2009/04/23 14:45:49.0    -235    174     95    293    309 306.6  18.0  34224  290.66 0854.53
2009/04/23 14:45:49.1    -314    -99    -98    330    344 252.5 -21.5  34228  290.72 0854.53
2009/04/23 14:45:49.2     -25   -362    187    363    408 184.0  29.3  34204  290.32 0854.53
2009/04/23 14:45:49.3      -4   -283    255    284    381 181.0  46.5  34202  290.28 0854.53
2009/04/23 14:45:49.4     -15   -200    257    201    326 184.5  58.0  34206  290.36 0854.53
2009/04/23 14:45:49.5     -98     -3    121     99    156 267.9  56.4  34210  290.41 0854.53
2009/04/23 14:45:49.6    -401    147     93    428    439 290.2  12.3  34194  290.16 0854.53
2009/04/23 14:45:49.7    -537     91    107    545    556 279.7  11.1  34214  290.48 0854.53
2009/04/23 14:45:49.8    -423    187    178    463    496 293.9  22.1  34216  290.51 0854.53
2009/04/23 14:45:49.9    -197    -59    111    206    234 253.1  30.8  34206  290.36 0854.53
2009/04/23 14:45:50.0      78   -142    270    163    315 151.1  66.2  34218  290.54 0854.53
2009/04/23 14:45:50.1     -48    -71    199     87    217 214.3  75.0  34224  290.67 0854.53
2009/04/23 14:45:50.2     -50     50    222     71    233 314.9  81.2  34234  290.84 0854.53
2009/04/23 14:45:50.3      94     30    210     99    232  72.3  73.1  34236  290.86 0854.53
2009/04/23 14:45:50.4      23    -30    170     39    174 142.2  87.7  34236  290.86 0854.53
2009/04/23 14:45:50.5     222    -62    186    231    296 105.7  43.3  34228  290.73 0854.53
2009/04/23 14:45:50.6     412   -151     85    440    449 110.2  11.0  34224  290.67 0854.53
2009/04/23 14:45:50.7     364    229    162    431    460  57.8  21.6  34210  290.43 0854.53
2009/04/23 14:45:50.8     477    169    103    507    518  70.5  11.6  34216  290.52 0854.53
2009/04/23 14:45:50.9     524    204     -8    563    564  68.7  -0.9  34214  290.48 0854.55
2009/04/23 14:45:51.0     457    315     28    556    557  55.4   2.9  34254  291.18 0854.55
2009/04/23 14:45:51.1     383    391     82    548    555  44.4   8.6  34280  291.60 0854.55
2009/04/23 14:45:51.2     310    173    -36    356    358  60.8  -5.9  34228  290.72 0854.55
2009/04/23 14:45:51.3     229     49    -55    235    242  77.8 -13.3  34232  290.78 0854.55
2009/04/23 14:45:51.4     177     44    107    183    211  75.8  33.4  34222  290.62 0854.55
2009/04/23 14:45:51.5     127    161     80    206    220  38.3  22.5  34248  291.08 0854.55
2009/04/23 14:45:51.6     305    182     65    356    362  59.3  10.4  34318  292.27 0854.55
2009/04/23 14:45:51.7     258    275     85    378    388  43.2  12.8  34308  292.07 0854.55
2009/04/23 14:45:51.8     132    290    153    319    353  24.5  27.4  34294  291.85 0854.55
2009/04/23 14:45:51.9     226    211    279    310    417  46.9  46.8  34282  291.66 0854.55
2009/04/23 14:45:52.0     209    368    263    424    498  29.6  34.9  34248  291.05 0854.55
2009/04/23 14:45:52.1     257    275    188    377    421  43.0  28.4  34282  291.65 0854.55
2009/04/23 14:45:52.2     141    327    205    357    411  23.3  32.4  34242  290.96 0854.55
2009/04/23 14:45:52.3     337    244    151    417    444  54.0  19.9  34288  291.74 0854.55
2009/04/23 14:45:52.4     427    257    184    499    531  58.9  21.0  34294  291.84 0854.55
2009/04/23 14:45:52.5     354    221    210    418    467  58.0  28.7  34306  292.04 0854.55
2009/04/23 14:45:52.6     485     22    220    486    533  87.4  26.2  34298  291.93 0854.55
2009/04/23 14:45:52.7     356    -50    127    360    382  98.0  19.5  34312  292.14 0854.55
2009/04/23 14:45:52.8     444    -13    239    445    505  91.7  30.7  34312  292.16 0854.55
2009/04/23 14:45:52.9     446    -97    345    457    572 102.3  40.7  34306  292.05 0854.53
2009/04/23 14:45:53.0     508    -16    334    509    608  91.9  36.5  34314  292.19 0854.53
2009/04/23 14:45:53.1     340     10    303    341    456  88.3  46.3  34312  292.15 0854.53
2009/04/23 14:45:53.2      47   -197    280    203    345 166.6  60.6  34252  291.14 0854.53
2009/04/23 14:45:53.3      75   -384    335    392    515 168.9  45.0  34226  290.68 0854.53
2009/04/23 14:45:53.4      34   -458    349    460    577 175.7  40.9  34214  290.50 0854.53
2009/04/23 14:45:53.5     -47   -430    316    433    536 186.3  39.7  34224  290.66 0854.53
2009/04/23 14:45:53.6      62   -229    246    238    342 164.9  51.2  34222  290.63 0854.53
2009/04/23 14:45:53.7     -53   -198    184    206    276 195.2  46.4  34222  290.63 0854.53
2009/04/23 14:45:53.8       0    -45    178     46    183 180.9  85.2  34240  290.92 0854.53
2009/04/23 14:45:53.9      22   -112    131    115    174 168.5  54.3  34234  290.84 0854.49
2009/04/23 14:45:54.0     -12   -185    206    186    277 183.8  53.3  34230  290.76 0854.49
2009/04/23 14:45:54.1     -74   -264    168    275    322 195.8  34.3  34220  290.58 0854.49
2009/04/23 14:45:54.2     -98   -333     41    348    351 196.4   6.9  34224  290.66 0854.49
2009/04/23 14:45:54.3    -127   -343    103    366    381 200.4  15.8  34218  290.55 0854.49
2009/04/23 14:45:54.4     -95   -348     43    361    364 195.3   6.9  34228  290.71 0854.49
2009/04/23 14:45:54.5     -76   -357     54    366    371 192.0   8.5  34232  290.79 0854.49
2009/04/23 14:45:54.6     -16   -272     69    273    282 183.5  14.3  34234  290.82 0854.49
2009/04/23 14:45:54.7      42   -207     76    212    225 168.4  20.4  34232  290.79 0854.49
2009/04/23 14:45:54.8      60   -181    120    191    225 161.5  35.5  34232  290.81 0854.49
2009/04/23 14:45:54.9      70   -173     66    187    199 157.7  19.6  34236  290.87 0854.49
2009/04/23 14:45:55.0      36    -96     78    103    129 159.5  41.2  34240  290.92 0854.49
2009/04/23 14:45:55.1      23    -30     75     39     84 142.2  70.4  34248  291.06 0854.49
2009/04/23 14:45:55.2      19    -19     61     27     66 134.9  75.0  34244  291.01 0854.49
2009/04/23 14:45:55.3     -87    -83     78    121    143 226.4  35.6  34240  290.94 0854.49
2009/04/23 14:45:55.4    -108   -106    121    152    194 225.6  42.7  34240  290.92 0854.49
2009/04/23 14:45:55.5    -103   -227    129    250    281 204.5  29.3  34244  291.00 0854.49
2009/04/23 14:45:55.6    -114   -189    115    222    250 211.2  29.3  34250  291.10 0854.49
2009/04/23 14:45:55.7     -44   -164     80    170    187 195.1  27.1  34246  291.04 0854.49
2009/04/23 14:45:55.8     -54   -135    186    146    236 201.8  57.9  34248  291.08 0854.49
2009/04/23 14:45:55.9      48    -51    108     71    129 136.8  64.1  34256  291.20 0854.48
2009/04/23 14:45:56.0      90   -164     93    188    209 151.1  28.0  34244  291.01 0854.48
2009/04/23 14:45:56.1      52   -142     58    152    162 160.0  21.7  34244  291.01 0854.48
2009/04/23 14:45:56.2     -60   -205     56    214    222 196.5  14.7  34242  290.98 0854.48
2009/04/23 14:45:56.3    -112   -172     72    206    218 213.2  20.0  34244  291.01 0854.48
2009/04/23 14:45:56.4     -92   -151     34    177    181 211.4  11.0  34248  291.06 0854.48
2009/04/23 14:45:56.5    -105   -368    -14    383    384 196.0  -2.2  34238  290.91 0854.48
2009/04/23 14:45:56.6    -244   -404    -56    472    476 211.1  -6.9  34242  290.98 0854.48
2009/04/23 14:45:56.7    -257   -450    -94    519    528 209.7 -10.3  34228  290.74 0854.48
2009/04/23 14:45:56.8    -171   -188    121    255    282 222.3  27.3  34238  290.90 0854.48
2009/04/23 14:45:56.9     -96   -201      9    223    224 205.6   2.5  34246  291.03 0854.48
2009/04/23 14:45:57.0    -159   -114      9    196    197 234.3   2.9  34256  291.20 0854.48
2009/04/23 14:45:57.1    -139   -234    -46    273    277 210.7  -9.6  34242  290.97 0854.48
2009/04/23 14:45:57.2     -64   -263    101    271    289 193.8  21.0  34230  290.76 0854.48
2009/04/23 14:45:57.3    -107   -387     58    402    407 195.5   8.2  34226  290.68 0854.48
2009/04/23 14:45:57.4     -48   -515     44    518    521 185.4   4.9  34216  290.52 0854.48
2009/04/23 14:45:57.5       0   -492     99    493    503 180.0  11.4  34212  290.47 0854.48
2009/04/23 14:45:57.6     -38   -409     49    411    414 185.3   6.9  34220  290.58 0854.48
2009/04/23 14:45:57.7     -75   -300    230    310    386 194.0  40.1  34242  290.98 0854.48
2009/04/23 14:45:57.8      -2   -239    264    240    356 180.7  53.2  34238  290.88 0854.48
2009/04/23 14:45:57.9    -136   -299     70    329    337 204.5  12.2  34232  290.79 0854.47
2009/04/23 14:45:58.0    -199   -354    139    407    431 209.3  18.9  34214  290.48 0854.47
2009/04/23 14:45:58.1    -119   -325     81    347    357 200.2  13.1  34234  290.83 0854.47
2009/04/23 14:45:58.2    -131   -277    -26    307    309 205.4  -4.9  34252  291.14 0854.47
2009/04/23 14:45:58.3    -160   -147    -10    218    219 227.3  -2.8  34232  290.79 0854.47
2009/04/23 14:45:58.4    -332   -336    -96    473    484 224.6 -11.6  34222  290.61 0854.47
2009/04/23 14:45:58.5    -296   -232     30    377    379 231.9   4.6  34220  290.59 0854.47
2009/04/23 14:45:58.6     -42   -393    138    396    420 186.2  19.2  34200  290.24 0854.47
2009/04/23 14:45:58.7     -47   -543    206    546    583 185.0  21.7  34212  290.47 0854.47
2009/04/23 14:45:58.8     -89   -443    220    452    502 191.4  27.8  34206  290.34 0854.47
2009/04/23 14:45:58.9    -253   -385    174    461    492 213.3  21.7  34210  290.42 0854.47
2009/04/23 14:45:59.0    -285   -370    178    468    500 217.6  22.0  34220  290.59 0854.47
2009/04/23 14:45:59.1    -252   -259    120    362    382 224.3  18.5  34218  290.54 0854.47
2009/04/23 14:45:59.2    -218   -192     24    291    293 228.6   4.9  34220  290.59 0854.47
2009/04/23 14:45:59.3    -163     39    185    168    249 283.5  53.3  34232  290.79 0854.47
2009/04/23 14:45:59.4    -234    202     79    310    320 310.9  14.3  34230  290.76 0854.47
2009/04/23 14:45:59.5     -33    139     -5    143    144 346.6  -2.2  34232  290.79 0854.47
2009/04/23 14:45:59.6     -20     82     11     85     86 346.2   8.0  34238  290.89 0854.47
2009/04/23 14:45:59.7       5    -86    112     87    141 176.4  58.4  34238  290.89 0854.47
2009/04/23 14:45:59.8      76    -67    114    102    152 131.3  53.3  34232  290.81 0854.47
2009/04/23 14:45:59.9     185   -106    123    214    246 119.8  32.4  34228  290.73 0854.46
2009/04/23 14:46:00.0     107   -196    177    224    285 151.3  42.4  34218  290.54 0854.46
2009/04/23 14:46:00.1     140   -295    216    327    391 154.6  36.5  34216  290.52 0854.46
2009/04/23 14:46:00.2     271   -217    338    348    485 128.8  49.3  34206  290.36 0854.46
2009/04/23 14:46:00.3     211   -165    292    268    396 128.0  52.9  34202  290.28 0854.46
2009/04/23 14:46:00.4     144   -309    199    342    395 155.0  32.8  34208  290.37 0854.46
2009/04/23 14:46:00.5     397   -307    311    503    591 127.7  34.6  34192  290.13 0854.46
2009/04/23 14:46:00.6     377   -348    258    514    575 132.7  28.7  34202  290.30 0854.46
2009/04/23 14:46:00.7     469   -437     63    642    646 133.0   5.7  34214  290.48 0854.46
2009/04/23 14:46:00.8     383   -316    115    497    511 129.5  13.1  34202  290.29 0854.46
2009/04/23 14:46:00.9     320    -77    241    330    408 103.6  39.7  34204  290.32 0854.46
2009/04/23 14:46:01.0     262    -32    118    264    289  97.0  25.9  34196  290.17 0854.46
2009/04/23 14:46:01.1     183      2     98    184    208  89.1  30.3  34188  290.06 0854.46
2009/04/23 14:46:01.2     126     14    100    127    161  83.4  42.2  34216  290.53 0854.46
2009/04/23 14:46:01.3     -22    -35    153     42    158 212.5  84.6  34216  290.52 0854.46
2009/04/23 14:46:01.4    -225    -72    -34    237    240 252.1  -8.3  34210  290.41 0854.46
2009/04/23 14:46:01.5    -406    -57    -71    411    418 262.0  -9.9  34202  290.29 0854.46
2009/04/23 14:46:01.6    -318     68   -117    326    346 282.2 -24.8  34206  290.35 0854.46
2009/04/23 14:46:01.7    -200   -258    -55    327    332 217.8  -9.6  34214  290.50 0854.46
2009/04/23 14:46:01.8    -153   -198    -28    251    253 217.6  -6.5  34210  290.42 0854.46
2009/04/23 14:46:01.9    -101   -193     -4    218    219 207.6  -1.3  34216  290.52 0854.46
2009/04/23 14:46:02.0    -115   -170    161    206    261 214.2  42.0  34230  290.76 0854.46
2009/04/23 14:46:02.1    -136    -87    164    162    230 237.5  50.1  34236  290.86 0854.46
2009/04/23 14:46:02.2     -67   -147     69    162    176 204.5  24.3  34228  290.72 0854.46
2009/04/23 14:46:02.3       1   -102    113    103    152 179.1  52.2  34228  290.74 0854.46
2009/04/23 14:46:02.4      41    -98     85    107    136 157.3  43.3  34224  290.65 0854.46
2009/04/23 14:46:02.5     -68   -134    138    151    204 207.2  47.7  34216  290.52 0854.46
2009/04/23 14:46:02.6    -214   -171     82    275    288 231.4  16.6  34208  290.39 0854.46
2009/04/23 14:46:02.7    -492   -174   -119    523    537 250.5 -12.9  34198  290.21 0854.46
2009/04/23 14:46:02.8    -524   -157   -272    548    611 253.3 -32.6  34190  290.07 0854.46
2009/04/23 14:46:02.9    -263    -72    -17    273    274 254.7  -3.7  34192  290.10 0854.46
2009/04/23 14:46:03.0    -167   -356    155    394    423 205.2  22.7  34198  290.22 0854.46
2009/04/23 14:46:03.1    -461   -452    -65    646    650 225.6  -5.8  34202  290.30 0854.46
2009/04/23 14:46:03.2    -142   -436   -113    459    473 198.1 -13.9  34188  290.03 0854.46
2009/04/23 14:46:03.3     -92   -305     77    319    329 196.8  13.7  34196  290.17 0854.46
2009/04/23 14:46:03.4    -232   -197    -11    305    306 229.6  -2.2  34202  290.27 0854.46
2009/04/23 14:46:03.5    -361   -125   -137    383    407 250.9 -19.7  34208  290.40 0854.46
2009/04/23 14:46:03.6    -530    -90   -180    538    568 260.3 -18.6  34190  290.09 0854.46
2009/04/23 14:46:03.7    -283   -261   -115    386    403 227.4 -16.7  34204  290.32 0854.46
2009/04/23 14:46:03.8    -750   -109   -251    759    799 261.7 -23.5  34192  290.13 0854.46
2009/04/23 14:46:03.9    -303   -303   -208    429    476 225.0 -32.2  34202  290.29 0854.47
2009/04/23 14:46:04.0    -161   -204    -57    260    267 218.3 -12.4  34208  290.39 0854.47
2009/04/23 14:46:04.1    -205   -233   -136    311    339 221.4 -29.5  34208  290.38 0854.47
2009/04/23 14:46:04.2    -478   -258   -107    544    555 241.6 -11.2  34196  290.19 0854.47
2009/04/23 14:46:04.3    -529   -206   -134    568    584 248.7 -13.3  34194  290.14 0854.47
2009/04/23 14:46:04.4    -435   -167   -166    467    496 249.0 -19.6  34212  290.45 0854.47
2009/04/23 14:46:04.5    -299    -86    -12    312    313 253.8  -2.2  34226  290.68 0854.47
2009/04/23 14:46:04.6    -264   -213   -161    340    376 231.0 -31.5  34224  290.67 0854.47
2009/04/23 14:46:04.7    -287   -270   -194    395    440 226.8 -32.5  34214  290.48 0854.47
2009/04/23 14:46:04.8    -358   -129   -113    381    398 250.2 -16.6  34204  290.33 0854.47
2009/04/23 14:46:04.9    -571    -88   -202    578    613 261.2 -19.3  34210  290.42 0854.47
2009/04/23 14:46:05.0    -627   -213     10    663    664 251.2   0.9  34206  290.34 0854.47
2009/04/23 14:46:05.1    -597    -17   -134    598    613 268.3 -12.7  34212  290.44 0854.47
2009/04/23 14:46:05.2    -658   -111   -172    668    690 260.4 -14.5  34206  290.36 0854.47
2009/04/23 14:46:05.3    -495   -162   -136    521    539 251.8 -14.7  34218  290.55 0854.47
2009/04/23 14:46:05.4    -359    -45   -217    362    422 262.8 -38.1  34220  290.60 0854.47
2009/04/23 14:46:05.5    -328     -7   -143    329    358 268.6 -29.5  34228  290.71 0854.47
2009/04/23 14:46:05.6    -298   -118    -90    321    333 248.3 -20.2  34212  290.47 0854.47
2009/04/23 14:46:05.7    -189   -183    -14    264    265 226.0  -3.1  34214  290.48 0854.47
2009/04/23 14:46:05.8    -180   -428     73    465    471 202.8   9.0  34212  290.45 0854.47
2009/04/23 14:46:05.9    -151   -514    129    536    552 196.4  13.5  34202  290.30 0854.46
2009/04/23 14:46:06.0    -187   -532     50    565    568 199.4   5.1  34200  290.24 0854.46
2009/04/23 14:46:06.1    -133   -541    108    558    569 193.8  11.0  34202  290.28 0854.46
2009/04/23 14:46:06.2    -227   -487     19    538    539 205.0   2.1  34196  290.19 0854.46
2009/04/23 14:46:06.3    -348   -447    -11    567    568 217.9  -1.2  34196  290.18 0854.46
2009/04/23 14:46:06.4    -251   -467   -168    531    558 208.3 -17.6  34194  290.14 0854.46
2009/04/23 14:46:06.5    -138   -456    -18    477    478 196.9  -2.2  34198  290.23 0854.46
2009/04/23 14:46:06.6    -174   -456    -28    489    490 200.9  -3.3  34202  290.29 0854.46
2009/04/23 14:46:06.7    -145   -572    -55    591    594 194.3  -5.4  34200  290.25 0854.46
2009/04/23 14:46:06.8     -10   -528    -24    529    530 181.1  -2.6  34202  290.30 0854.46
2009/04/23 14:46:06.9     -37   -572    -31    574    575 183.7  -3.2  34198  290.22 0854.46
2009/04/23 14:46:07.0     -63   -448    -14    453    454 188.1  -1.8  34194  290.14 0854.46
2009/04/23 14:46:07.1    -103   -349     27    365    366 196.5   4.3  34200  290.25 0854.46
2009/04/23 14:46:07.2    -133   -219     16    257    258 211.2   3.6  34212  290.46 0854.46
2009/04/23 14:46:07.3    -204   -157    -85    258    271 232.3 -23.8  34202  290.27 0854.46
2009/04/23 14:46:07.4      99   -135    -81    168    186 143.5 -31.7  34212  290.47 0854.46
2009/04/23 14:46:07.5    -331   -183   -166    379    413 241.1 -29.6  34234  290.82 0854.46
2009/04/23 14:46:07.6    -363   -150   -184    393    433 247.5 -31.4  34206  290.36 0854.46
2009/04/23 14:46:07.7    -465   -140   -173    486    515 253.2 -24.8  34222  290.64 0854.46
2009/04/23 14:46:07.8    -271   -264    -79    379    388 225.8 -11.8  34228  290.72 0854.46
2009/04/23 14:46:07.9    -116   -339     44    359    362 198.9   7.1  34232  290.79 0854.45
2009/04/23 14:46:08.0     133   -360     -2    384    385 159.7  -0.4  34208  290.37 0854.45
2009/04/23 14:46:08.1     172   -375     17    413    414 155.3   2.4  34188  290.05 0854.45
2009/04/23 14:46:08.2     162   -544     23    568    569 163.4   2.4  34192  290.12 0854.45
2009/04/23 14:46:08.3     126   -382    131    403    424 161.7  18.0  34188  290.04 0854.45
2009/04/23 14:46:08.4      -6   -346     59    347    352 181.0   9.7  34208  290.38 0854.45
2009/04/23 14:46:08.5     -27   -175     11    178    179 188.9   3.8  34210  290.43 0854.45
2009/04/23 14:46:08.6      32   -283      3    285    286 173.5   0.7  34202  290.27 0854.45
2009/04/23 14:46:08.7      56   -257    -23    264    266 167.7  -5.1  34210  290.41 0854.45
2009/04/23 14:46:08.8    -220   -294    -66    368    374 216.8 -10.3  34224  290.66 0854.45
2009/04/23 14:46:08.9    -292   -285    -46    409    412 225.7  -6.5  34228  290.73 0854.45
2009/04/23 14:46:09.0    -183   -306     11    357    358 210.9   1.8  34228  290.72 0854.45
2009/04/23 14:46:09.1    -171   -482     99    512    522 199.6  11.0  34232  290.78 0854.45
2009/04/23 14:46:09.2    -197   -645      0    675    676 197.0   0.0  34214  290.48 0854.45
2009/04/23 14:46:09.3    -331   -518    -12    615    616 212.6  -1.2  34220  290.60 0854.45
2009/04/23 14:46:09.4    -354   -449     54    572    575 218.3   5.4  34222  290.61 0854.45
2009/04/23 14:46:09.5    -329   -401     97    519    528 219.4  10.6  34218  290.55 0854.45
2009/04/23 14:46:09.6    -187   -560    244    591    639 198.5  23.7  34198  290.21 0854.45
2009/04/23 14:46:09.7    -163   -607     65    629    633 195.1   6.0  34196  290.18 0854.45
2009/04/23 14:46:09.8    -152   -711    -79    728    733 192.1  -6.3  34194  290.15 0854.45
2009/04/23 14:46:09.9    -287   -721    189    777    800 201.7  13.7  34178  289.86 0854.48
2009/04/23 14:46:10.0    -187   -561    353    592    689 198.5  33.5  34190  290.09 0854.48
2009/04/23 14:46:10.1     -89   -426    211    436    484 191.9  27.7  34192  290.13 0854.48
2009/04/23 14:46:10.2     137   -263    158    297    336 152.4  30.3  34224  290.66 0854.48
2009/04/23 14:46:10.3     116   -340     43    360    363 161.1   6.9  34230  290.76 0854.48
2009/04/23 14:46:10.4     177   -229    -42    290    294 142.4  -8.2  34230  290.76 0854.48
2009/04/23 14:46:10.5      86   -197    -78    216    229 156.4 -25.1  34216  290.53 0854.48
2009/04/23 14:46:10.6    -152   -353   -128    385    405 203.3 -23.7  34214  290.49 0854.48
2009/04/23 14:46:10.7    -255   -185    -89    316    328 234.0 -20.4  34200  290.26 0854.48
2009/04/23 14:46:10.8    -286   -264     12    390    391 227.4   1.8  34204  290.33 0854.48
2009/04/23 14:46:10.9    -499    -92   -125    508    524 259.5 -13.9  34212  290.47 0854.48
2009/04/23 14:46:11.0    -408    -35    -31    410    412 265.0  -4.4  34232  290.80 0854.48
2009/04/23 14:46:11.2    -419   -115     79    435    443 254.6  10.4  34220  290.60 0854.48
2009/04/23 14:46:11.2    -239   -152    -41    284    287 237.6  -8.2  34214  290.49 0854.48
2009/04/23 14:46:11.4    -222     45   -151    227    272 281.7 -40.9  34208  290.39 0854.48
2009/04/23 14:46:11.4    -163      4    125    164    206 271.5  41.4  34220  290.58 0854.48
2009/04/23 14:46:11.5    -324   -360     -1    485    486 221.9  -0.2  34210  290.42 0854.48
2009/04/23 14:46:11.7    -414   -330    -20    530    531 231.5  -2.2  34210  290.41 0854.48
2009/04/23 14:46:11.8    -248    -25     90    250    265 264.1  20.4  34212  290.46 0854.48
2009/04/23 14:46:11.9    -143    105     94    178    201 306.4  30.1  34230  290.77 0854.48
2009/04/23 14:46:12.0    -284    -23    121    286    310 265.2  24.2  34208  290.37 0854.57
2009/04/23 14:46:12.1    -321     -5    -45    322    326 269.0  -8.0  34214  290.49 0854.57
2009/04/23 14:46:12.2    -292     47    182    296    347 279.2  34.8  34246  291.03 0854.57
2009/04/23 14:46:12.3     -15   -195      4    196    197 184.5   1.2  34230  290.75 0854.57
2009/04/23 14:46:12.4     219   -211   -131    305    331 134.0 -29.2  34210  290.42 0854.57
2009/04/23 14:46:12.5    -175    109    -66    207    217 302.0 -22.5  34200  290.25 0854.57
2009/04/23 14:46:12.6    -301    -76    166    311    352 255.8  30.3  34192  290.11 0854.57
2009/04/23 14:46:12.7    -476    -51    217    479    525 263.8  26.2  34198  290.23 0854.57
2009/04/23 14:46:12.8    -745   -188     24    769    770 255.8   1.8  34210  290.41 0854.57
2009/04/23 14:46:12.9    -426   -662    313    788    847 212.8  23.0  34164  289.64 0854.57
2009/04/23 14:46:13.0      33   -652     66    653    657 177.1   5.8  34178  289.89 0854.57
2009/04/23 14:46:13.1     -17   -589    118    590    602 181.7  11.3  34178  289.86 0854.57
2009/04/23 14:46:13.2     -82   -315     99    326    341 194.7  17.0  34192  290.10 0854.57
2009/04/23 14:46:13.3    -208   -443    234    490    543 205.2  27.3  34190  290.07 0854.57
2009/04/23 14:46:13.4    -200   -500    348    539    641 201.9  35.9  34200  290.24 0854.57
2009/04/23 14:46:13.5    -126   -621     58    634    637 191.5   5.3  34188  290.04 0854.57
2009/04/23 14:46:13.6     -37   -818    153    819    834 182.6  10.6  34184  289.97 0854.57
2009/04/23 14:46:13.7     479  -1277    365   1365   1413 159.4  15.0  34184  289.99 0854.57
2009/04/23 14:46:13.8     398  -1232    620   1295   1435 162.1  27.4  34162  289.59 0854.57
2009/04/23 14:46:13.9     122   -956    576    964   1122 172.7  33.6  34156  289.49 0854.57
2009/04/23 14:46:14.0     -89  -1141    220   1145   1167 184.5  10.9  34190  290.08 0854.63
2009/04/23 14:46:14.1    -188   -920    747    940   1200 191.6  42.6  34162  289.61 0854.63
2009/04/23 14:46:14.2    -281   -909    555    952   1101 197.2  32.9  34188  290.04 0854.63
2009/04/23 14:46:14.3    -155   -832    334    847    910 190.6  22.8  34168  289.71 0854.63
2009/04/23 14:46:14.4    -481  -1129   -130   1228   1236 203.1  -6.1  34168  289.71 0854.63
2009/04/23 14:46:14.5   -1107   -668   -254   1294   1319 238.9 -11.1  34150  289.39 0854.63
2009/04/23 14:46:14.6    -894   -577     61   1065   1067 237.2   3.3  34170  289.73 0854.63
2009/04/23 14:46:14.7    -363   -680     39    771    773 208.1   2.9  34152  289.42 0854.63
2009/04/23 14:46:14.8    -412  -1105     38   1180   1181 200.5   1.9  34168  289.70 0854.63
2009/04/23 14:46:14.9    -406   -890   -240    979   1009 204.5 -13.8  34170  289.73 0854.63
2009/04/23 14:46:15.0      18   -762   -268    763    809 178.6 -19.4  34154  289.47 0854.61
2009/04/23 14:46:15.1     -54   -391   -399    395    561 187.9 -54.6  34156  289.50 0854.61
2009/04/23 14:46:15.2    -314   -488    -11    581    582 212.8  -1.2  34136  289.17 0854.61
2009/04/23 14:46:15.3     311   -147   -146    344    373 115.3 -28.9  34152  289.43 0854.61
2009/04/23 14:46:15.4     -57    -12    -41     59     71 257.6 -43.0  34156  289.52 0854.61
2009/04/23 14:46:15.5    -205     -9    -56    206    213 267.4 -20.0  34156  289.52 0854.61
2009/04/23 14:46:15.6     -34   -715    -37    716    717 182.8  -3.0  34134  289.13 0854.61
2009/04/23 14:46:15.7     191   -573    113    605    616 161.5  10.6  34132  289.10 0854.61
2009/04/23 14:46:15.8     -62   -663    156    667    686 185.4  13.2  34136  289.16 0854.61
2009/04/23 14:46:15.9     233   -750    168    786    805 162.7  12.1  34130  289.07 0854.61
2009/04/23 14:46:16.0    -139   -498    324    518    610 195.6  35.1  34140  289.22 0854.61
2009/04/23 14:46:16.1      77   -473    210    480    523 170.7  25.2  34140  289.23 0854.61
2009/04/23 14:46:16.2     266   -731    490    779    920 160.0  35.2  34148  289.38 0854.61
2009/04/23 14:46:16.3     496   -638    473    809    937 142.1  33.0  34146  289.35 0854.61
2009/04/23 14:46:16.4     380   -689    677    787   1038 151.1  45.1  34168  289.72 0854.61
2009/04/23 14:46:16.5      81   -522    516    529    738 171.1  49.3  34160  289.56 0854.61
2009/04/23 14:46:16.6      -6   -702    541    703    887 180.5  41.5  34128  289.04 0854.61
2009/04/23 14:46:16.7    -197   -827    606    851   1044 193.4  39.0  34140  289.24 0854.61
2009/04/23 14:46:16.8     151   -870    285    884    929 170.1  17.9  34144  289.31 0854.61
2009/04/23 14:46:16.9     150   -687    464    704    843 167.6  36.5  34146  289.34 0854.61
2009/04/23 14:46:17.0    -201   -520    487    558    740 201.2  45.7  34154  289.46 0854.61
2009/04/23 14:46:17.1     -85     -8    379     86    388 264.3  87.7  34164  289.64 0854.61
2009/04/23 14:46:17.2     -91   -203    299    223    373 204.1  59.8  34168  289.72 0854.61
2009/04/23 14:46:17.3     -73     36      5     82     83 296.6   3.8  34170  289.75 0854.61
2009/04/23 14:46:17.4       7    112   -115    113    161   4.0 -54.8  34170  289.75 0854.61
2009/04/23 14:46:17.5       4    246    -74    247    259   1.0 -16.8  34168  289.71 0854.61
2009/04/23 14:46:17.6     -58   -145    146    157    214 201.8  47.9  34178  289.87 0854.61
2009/04/23 14:46:17.7    -408   -373    -58    553    557 227.6  -6.1  34144  289.31 0854.61
2009/04/23 14:46:17.8    -750    -13     31    751    752 269.0   2.4  34168  289.72 0854.61
2009/04/23 14:46:17.9    -453   -745    316    872    927 211.3  20.9  34160  289.56 0854.61
2009/04/23 14:46:18.0    -631   -616    157    882    896 225.7  10.1  34136  289.18 0854.61
2009/04/23 14:46:18.1    -425   -432    235    607    650 224.5  22.3  34154  289.48 0854.61
2009/04/23 14:46:18.2    -364   -765    171    848    866 205.5  11.4  34154  289.46 0854.61
2009/04/23 14:46:18.3    -108  -1157    255   1163   1191 185.4  12.4  34164  289.65 0854.61
2009/04/23 14:46:18.4    -107   -798    249    806    844 187.7  17.2  34160  289.58 0854.61
2009/04/23 14:46:18.5    -198   -495    374    534    651 201.9  38.5  34154  289.48 0854.61
2009/04/23 14:46:18.6     -85  -1047    304   1051   1095 184.7  16.1  34152  289.44 0854.61
2009/04/23 14:46:18.7    -156   -949    458    962   1065 189.4  27.3  34160  289.57 0854.61
2009/04/23 14:46:18.8    -148  -1188    367   1198   1254 187.1  17.0  34158  289.54 0854.61
2009/04/23 14:46:18.9    -314   -911    338    964   1021 199.1  20.1  34144  289.31 0854.61
2009/04/23 14:46:19.0    -208   -485    359    528    638 203.2  37.6  34156  289.49 0854.59
2009/04/23 14:46:19.1    -424   -246     96    491    501 239.9  11.1  34120  288.90 0854.59
2009/04/23 14:46:19.2    -611    195    424    642    769 287.7  36.6  34172  289.78 0854.59
2009/04/23 14:46:19.3     -78   -158    434    177    468 206.3  76.7  34156  289.50 0854.59
2009/04/23 14:46:19.4    -119   -540    405    554    686 192.5  39.7  34158  289.55 0854.59
2009/04/23 14:46:19.5     276   -597    337    658    739 155.2  29.2  34128  289.03 0854.59
2009/04/23 14:46:19.6     221   -519    506    565    758 157.0  46.4  34148  289.37 0854.59
2009/04/23 14:46:19.7     426   -404    431    588    729 133.5  39.8  34146  289.32 0854.59
2009/04/23 14:46:19.8     224    -17    148    225    269  94.4  36.5  34154  289.47 0854.59
2009/04/23 14:46:19.9      96   -228    130    248    280 157.2  29.8  34150  289.41 0854.59
2009/04/23 14:46:20.0      10   -618    550    619    828 179.0  46.2  34126  289.01 0854.59
2009/04/23 14:46:20.1     225   -967    730    993   1232 166.9  39.9  34116  288.84 0854.59
2009/04/23 14:46:20.2     -67   -859    510    862   1001 184.5  33.4  34126  288.99 0854.59
2009/04/23 14:46:20.3     -39   -786    573    788    974 182.9  39.5  34130  289.06 0854.59
2009/04/23 14:46:20.4      99   -756    484    763    903 172.5  35.5  34134  289.14 0854.59
2009/04/23 14:46:20.5     -68   -914    275    917    958 184.3  16.7  34134  289.13 0854.59
2009/04/23 14:46:20.6      -3   -791    390    792    882 180.2  28.2  34132  289.10 0854.59
2009/04/23 14:46:20.7     -61   -689     -3    692    693 185.1  -0.3  34152  289.43 0854.59
2009/04/23 14:46:20.8      86   -576     91    583    591 171.5   8.9  34132  289.10 0854.59
2009/04/23 14:46:20.9     188    -69    110    201    229 110.2  31.3  34144  289.30 0854.59
2009/04/23 14:46:21.0     -47   -606    369    609    712 184.5  34.2  34148  289.36 0854.60
2009/04/23 14:46:21.1     180   -858   -136    877    888 168.1  -8.8  34144  289.30 0854.60
2009/04/23 14:46:21.2     368   -637    137    736    749 150.0  10.6  34136  289.18 0854.60
2009/04/23 14:46:21.3     351   -517    243    626    671 145.8  22.3  34156  289.50 0854.60
2009/04/23 14:46:21.4     451   -434    407    627    747 133.9  36.0  34136  289.18 0854.60
2009/04/23 14:46:21.5     -33   -333    400    335    521 185.8  56.0  34146  289.34 0854.60
2009/04/23 14:46:21.6     191   -264    239    327    405 144.1  39.8  34162  289.62 0854.60
2009/04/23 14:46:21.7     262   -719    234    766    802 159.9  17.0  34140  289.24 0854.60
2009/04/23 14:46:21.8      24   -450    412    451    610 176.9  47.1  34150  289.40 0854.60
2009/04/23 14:46:21.9     489     23    478    490    684  87.2  49.3  34152  289.45 0854.60
2009/04/23 14:46:22.0     -92   -790      3    796    797 186.7   0.2  34128  289.02 0854.60
2009/04/23 14:46:22.1    -158  -1188   -206   1199   1218 187.6  -9.8  34142  289.28 0854.60
2009/04/23 14:46:22.2    -357  -1184    -43   1237   1238 196.8  -2.0  34104  288.64 0854.60
2009/04/23 14:46:22.3    -159   -852    539    867   1020 190.6  34.8  34144  289.30 0854.60
2009/04/23 14:46:22.4     -74   -777    632    781   1004 185.5  43.1  34144  289.30 0854.60
2009/04/23 14:46:22.5     310   -917    148    969    981 161.3   8.7  34142  289.26 0854.60
2009/04/23 14:46:22.6     505   -939    -96   1067   1072 151.7  -5.2  34130  289.08 0854.60
2009/04/23 14:46:22.7     578   -928    -60   1094   1096 148.1  -3.2  34140  289.23 0854.60
2009/04/23 14:46:22.8     574   -910    155   1076   1088 147.8   8.2  34150  289.39 0854.60
2009/04/23 14:46:22.9     560   -578    314    806    865 135.9  22.4  34126  288.99 0854.60
2009/04/23 14:46:23.0     166   -261    337    310    457 147.4  52.6  34140  289.22 0854.58
2009/04/23 14:46:23.1    -210   -857    337    883    945 193.8  22.0  34132  289.09 0854.58
2009/04/23 14:46:23.2      76  -1029    413   1032   1111 175.8  23.0  34146  289.34 0854.58
2009/04/23 14:46:23.3    -199   -645     10    676    677 197.2   0.9  34144  289.29 0854.58
2009/04/23 14:46:23.4    -297   -974   -337   1019   1074 197.0 -18.3  34138  289.19 0854.58
2009/04/23 14:46:23.5    -175  -1214    -47   1227   1228 188.2  -2.2  34118  288.85 0854.58
2009/04/23 14:46:23.6    -523  -1237   -386   1344   1399 202.9 -16.0  34122  288.92 0854.58
2009/04/23 14:46:23.7    -767  -1524   -316   1707   1736 206.7 -10.5  34122  288.93 0854.58
2009/04/23 14:46:23.8    -850  -1069    -71   1366   1368 218.5  -3.0  34130  289.08 0854.58
2009/04/23 14:46:23.9    -913   -768   -387   1194   1255 229.9 -23.0  34138  289.20 0854.58
2009/04/23 14:46:24.0    -680   -476   -455    831    947 235.0 -35.4  34130  289.06 0854.58
2009/04/23 14:46:24.1    -590   -143   -425    608    741 256.3 -42.8  34140  289.22 0854.58
2009/04/23 14:46:24.2    -380    -24   -395    381    548 266.4 -55.6  34148  289.37 0854.58
2009/04/23 14:46:24.3    -356    276   -164    451    479 307.8 -25.3  34090  288.37 0854.58
2009/04/23 14:46:24.4    -124    278     15    305    306 335.9   2.9  34138  289.20 0854.58
2009/04/23 14:46:24.5    -114     -1    333    115    352 269.1  80.5  34158  289.53 0854.58
2009/04/23 14:46:24.6     266   -541    478    604    770 153.8  42.4  34122  288.93 0854.58
2009/04/23 14:46:24.7      95   -764    533    770    936 172.9  38.0  34136  289.16 0854.58
2009/04/23 14:46:24.8     -10   -702    509    703    867 180.9  39.5  34136  289.18 0854.58
2009/04/23 14:46:24.9     -98   -627    496    635    805 188.9  41.9  34130  289.07 0854.58
2009/04/23 14:46:25.0     -76   -818    611    822   1024 185.4  40.4  34134  289.14 0854.55
2009/04/23 14:46:25.1     -15   -650    512    651    828 181.4  42.1  34150  289.41 0854.55
2009/04/23 14:46:25.2     569   -249    752    622    975 113.6  56.3  34184  289.98 0854.55
2009/04/23 14:46:25.3      65   -196    451    207    496 161.5  73.8  34148  289.36 0854.55
2009/04/23 14:46:25.4     271   -408    499    490    699 146.4  50.6  34146  289.33 0854.55
2009/04/23 14:46:25.5     195   -150    427    247    493 127.5  67.5  34090  288.38 0854.55
2009/04/23 14:46:25.6     272    -75    576    283    641 105.5  72.1  34148  289.36 0854.55
2009/04/23 14:46:25.7     397     19    716    398    819  87.2  68.6  34142  289.25 0854.55
2009/04/23 14:46:25.8     328    105    620    345    709  72.2  68.6  34142  289.27 0854.55
2009/04/23 14:46:25.9    -117    -36    491    123    506 252.7  86.0  34150  289.41 0854.55
2009/04/23 14:46:26.0    -515     54    335    518    616 276.1  35.7  34152  289.44 0854.55
2009/04/23 14:46:26.1     -51    -80    152     96    179 212.5  64.7  34152  289.43 0854.55
2009/04/23 14:46:26.2    -774    -65    428    778    887 265.1  31.3  34128  289.02 0854.55
2009/04/23 14:46:26.3    -844    -11    292    845    895 269.2  19.1  34118  288.86 0854.55
2009/04/23 14:46:26.4    -720    -21    585    721    928 268.3  43.3  34140  289.24 0854.55
2009/04/23 14:46:26.5    -100    229    259    251    360 336.4  50.8  34130  289.07 0854.55
2009/04/23 14:46:26.6      -4    -57    368     58    372 184.5  90.0  34168  289.70 0854.55
2009/04/23 14:46:26.7     -21     16    318     27    319 307.8  90.0  34152  289.42 0854.55
2009/04/23 14:46:26.8     -37    220    376    224    437 350.4  66.7  34146  289.32 0854.55
2009/04/23 14:46:26.9    -163    -15    255    164    303 264.5  64.6  34166  289.66 0854.55
2009/04/23 14:46:27.0    -114    -31    311    119    332 254.9  78.1  34154  289.46 0854.58
2009/04/23 14:46:27.1     -82   -126    414    151    440 213.0  79.2  34162  289.60 0854.58
2009/04/23 14:46:27.2       0   -108    234    109    258 180.0  73.2  34158  289.53 0854.58
2009/04/23 14:46:27.3    -119   -273    244    299    385 203.6  43.6  34148  289.38 0854.58
2009/04/23 14:46:27.4     -45   -161    290    168    335 195.8  67.4  34164  289.63 0854.58
2009/04/23 14:46:27.5    -124   -651    244    663    706 190.8  21.1  34162  289.61 0854.58
2009/04/23 14:46:27.6      -5   -612     84    613    619 180.5   7.8  34164  289.65 0854.58
2009/04/23 14:46:27.7      60   -620    298    624    691 174.4  27.3  34164  289.63 0854.58
2009/04/23 14:46:27.8     162   -698    282    717    770 166.9  22.7  34144  289.31 0854.58
2009/04/23 14:46:27.9     322   -541    292    630    694 149.3  26.9  34148  289.38 0854.58
2009/04/23 14:46:28.0     352   -565    241    666    709 148.1  19.9  34140  289.24 0854.58
2009/04/23 14:46:28.1     105   -749    362    757    839 172.0  27.3  34144  289.31 0854.58
2009/04/23 14:46:28.2     295   -553    308    627    698 151.9  28.0  34134  289.14 0854.58
2009/04/23 14:46:28.3     345   -627    205    716    745 151.1  16.0  34158  289.55 0854.58
2009/04/23 14:46:28.4     388   -354     92    526    535 132.3  10.0  34158  289.55 0854.58
2009/04/23 14:46:28.5     197   -549   -105    584    594 160.2 -10.3  34146  289.34 0854.58
2009/04/23 14:46:28.6    -139   -620   -218    636    673 192.7 -19.0  34150  289.41 0854.58
2009/04/23 14:46:28.7    -138   -350    133    377    400 201.5  19.5  34162  289.60 0854.58
2009/04/23 14:46:28.8      33   -178     58    182    191 169.5  17.7  34160  289.58 0854.58
2009/04/23 14:46:28.9    -141     51   -102    150    181 289.9 -42.0  34158  289.55 0854.58
2009/04/23 14:46:29.0     -73     99   -142    124    188 323.5 -58.7  34156  289.50 0854.65
2009/04/23 14:46:29.1      56     87   -136    104    171  32.6 -63.1  34166  289.67 0854.65
2009/04/23 14:46:29.2      96   -473   -419    483    639 168.5 -49.8  34174  289.81 0854.65
2009/04/23 14:46:29.3      88   -258   -202    273    339 161.1 -44.5  34162  289.59 0854.65
2009/04/23 14:46:29.4     506   -216     31    551    552 113.1   3.3  34144  289.31 0854.65
2009/04/23 14:46:29.5     426   -358    120    557    570 130.0  12.2  34152  289.43 0854.65
2009/04/23 14:46:29.6     324   -134    203    351    405 112.6  32.7  34142  289.28 0854.65
2009/04/23 14:46:29.7     177   -181    156    254    298 135.7  34.5  34142  289.27 0854.65
2009/04/23 14:46:29.8     155   -199    238    253    347 142.2  48.0  34148  289.36 0854.65
2009/04/23 14:46:29.9     388   -292    119    486    501 127.0  13.8  34146  289.34 0854.65
2009/04/23 14:46:30.0     488   -413    303    640    708 130.3  27.2  34136  289.17 0854.65
2009/04/23 14:46:30.1     421   -421    147    596    614 135.0  13.9  34134  289.12 0854.65
2009/04/23 14:46:30.2     201   -279     62    345    351 144.2  10.2  34132  289.10 0854.65
2009/04/23 14:46:30.3     -26   -336     61    338    344 184.5  10.2  34138  289.21 0854.65
2009/04/23 14:46:30.4    -302   -341    174    456    488 221.5  22.0  34136  289.18 0854.65
2009/04/23 14:46:30.5    -232   -204    -17    310    311 228.7  -3.3  34138  289.20 0854.65
2009/04/23 14:46:30.6    -155   -322     82    358    368 205.7  12.9  34142  289.25 0854.65
2009/04/23 14:46:30.7     -64   -126    367    142    393 207.2  78.1  34156  289.52 0854.65
2009/04/23 14:46:30.8     451    -75    336    458    568  99.5  39.9  34130  289.06 0854.65
2009/04/23 14:46:30.9     341    108     58    358    363  72.3   9.3  34148  289.38 0854.65
2009/04/23 14:46:31.0     126     18    278    128    306  81.6  73.5  34152  289.42 0854.65
2009/04/23 14:46:31.1     180   -101    309    207    371 119.3  63.1  34148  289.37 0854.65
2009/04/23 14:46:31.2     173    -48    339    180    383 105.5  69.9  34158  289.55 0854.65
2009/04/23 14:46:31.3     197     59    304    206    367  73.2  62.7  34154  289.46 0854.65
2009/04/23 14:46:31.4     326    -17    307    327    448  93.0  48.0  34142  289.26 0854.65
2009/04/23 14:46:31.5     298    -14    194    299    356  92.8  36.0  34142  289.26 0854.65
2009/04/23 14:46:31.6     296   -210    124    364    385 125.4  18.9  34138  289.21 0854.65
2009/04/23 14:46:31.7      73    -97    317    122    339 143.0  78.2  34122  288.92 0854.65
2009/04/23 14:46:31.8     143   -157    214    213    301 137.7  50.1  34130  289.07 0854.65
2009/04/23 14:46:31.9     354   -105    128    370    392 106.5  19.2  34130  289.08 0854.65
2009/04/23 14:46:32.0     122   -125    -45    175    181 135.7 -14.7  34134  289.14 0854.65
2009/04/23 14:46:32.1     167   -230    117    285    308 143.9  23.4  34132  289.09 0854.65
2009/04/23 14:46:32.2      37   -268    186    271    328 172.0  37.8  34124  288.97 0854.65
2009/04/23 14:46:32.3      59   -353    323    359    482 170.4  46.5  34122  288.92 0854.65
2009/04/23 14:46:32.4    -111   -426    166    441    471 194.6  21.5  34122  288.92 0854.65
2009/04/23 14:46:32.5    -230   -221     -3    320    321 226.2  -0.6  34130  289.07 0854.65
2009/04/23 14:46:32.6    -180   -362     -8    405    406 206.5  -1.2  34134  289.12 0854.65
2009/04/23 14:46:32.7    -196   -381    -32    429    431 207.2  -4.4  34134  289.14 0854.65
2009/04/23 14:46:32.8    -163   -211   -128    267    296 217.8 -31.7  34134  289.12 0854.65
2009/04/23 14:46:32.9    -102   -134     58    169    179 217.2  19.2  34140  289.24 0854.65
2009/04/23 14:46:33.0     -11    -58     29     60     66 191.5  27.2  34138  289.19 0854.64
2009/04/23 14:46:33.1     -63     83     78    105    130 322.6  40.1  34148  289.38 0854.64
2009/04/23 14:46:33.2     -52    169     98    177    202 342.8  31.4  34146  289.35 0854.64
2009/04/23 14:46:33.3      27    228    176    230    289   6.9  41.6  34144  289.29 0854.64
2009/04/23 14:46:33.4     123      7    174    124    213  86.5  61.1  34146  289.33 0854.64
2009/04/23 14:46:33.5      58    -17    166     61    176 106.8  78.9  34150  289.41 0854.64
2009/04/23 14:46:33.6      91     28    159     96    185  72.7  66.0  34148  289.38 0854.64
2009/04/23 14:46:33.7      25    -26    132     37    137 136.6  84.4  34150  289.41 0854.64
2009/04/23 14:46:33.8     232    -76    219    245    328 108.2  46.4  34144  289.29 0854.64
2009/04/23 14:46:33.9     233   -258    178    348    390 137.9  29.3  34136  289.16 0854.64
2009/04/23 14:46:34.0     212   -583    145    621    638 160.0  13.2  34142  289.26 0854.64
2009/04/23 14:46:34.1     197   -493    119    532    546 158.2  12.6  34140  289.24 0854.64
2009/04/23 14:46:34.2     130   -512    257    529    588 165.7  27.9  34146  289.32 0854.64
2009/04/23 14:46:34.3      76   -446    420    453    617 170.3  47.8  34162  289.60 0854.64
2009/04/23 14:46:34.4     379     33    185    381    423  84.9  27.7  34148  289.36 0854.64
2009/04/23 14:46:34.5     142     53    241    152    284  69.2  64.7  34168  289.71 0854.64
2009/04/23 14:46:34.6     132     72    295    151    331  61.1  70.7  34194  290.14 0854.64
2009/04/23 14:46:34.7     373     16    130    374    397  87.5  19.2  34168  289.72 0854.64
2009/04/23 14:46:34.8     270    -32     23    272    274  96.8   4.9  34166  289.68 0854.64
2009/04/23 14:46:34.9     -62   -186     82    197    213 198.5  23.6  34174  289.82 0854.64
2009/04/23 14:46:35.0    -162   -376     79    410    418 203.3  11.0  34154  289.46 0854.65
2009/04/23 14:46:35.1      48   -133    -12    142    143 160.0  -5.2  34154  289.46 0854.65
2009/04/23 14:46:35.2      86     -6     19     87     90  94.3  12.6  34158  289.53 0854.65
2009/04/23 14:46:35.3      40    -36     27     54     60 132.2  28.2  34158  289.55 0854.65
2009/04/23 14:46:35.4      33   -280    138    283    314 173.1  27.9  34158  289.53 0854.65
2009/04/23 14:46:35.5     -65   -388    -37    394    396 189.6  -5.5  34152  289.45 0854.65
2009/04/23 14:46:35.6    -180   -397   -117    436    452 204.4 -15.1  34156  289.51 0854.65
2009/04/23 14:46:35.7    -166   -339    103    378    392 206.2  15.3  34158  289.54 0854.65
2009/04/23 14:46:35.8    -168   -506    -24    534    535 198.4  -2.6  34180  289.90 0854.65
2009/04/23 14:46:35.9     -76   -413    -27    420    421 190.5  -3.8  34176  289.83 0854.65
2009/04/23 14:46:36.0       0   -400    139    401    425 180.1  19.2  34168  289.72 0854.62
2009/04/23 14:46:36.1     -16   -347    335    348    483 182.8  49.0  34142  289.27 0854.62
2009/04/23 14:46:36.2    -241   -488    225    545    589 206.3  23.8  34148  289.36 0854.62
2009/04/23 14:46:36.3    -155   -562    229    584    627 195.4  22.5  34160  289.58 0854.62
2009/04/23 14:46:36.4    -193   -429    228    471    523 204.3  27.7  34152  289.45 0854.62
2009/04/23 14:46:36.5     -86   -371    135    381    404 193.1  20.3  34154  289.48 0854.62
2009/04/23 14:46:36.6      28   -505    190    506    540 176.8  21.5  34156  289.51 0854.62
2009/04/23 14:46:36.7     295   -387    171    487    517 142.7  19.4  34150  289.39 0854.62
2009/04/23 14:46:36.8     198   -312    157    370    401 147.5  24.3  34156  289.52 0854.62
2009/04/23 14:46:36.9     155   -312    145    349    377 153.6  23.7  34154  289.48 0854.62
2009/04/23 14:46:37.0     244   -233    -28    338    340 133.6  -4.9  34152  289.43 0854.62
2009/04/23 14:46:37.1      15   -238    197    239    309 176.4  43.7  34150  289.41 0854.62
2009/04/23 14:46:37.2     -87   -260    238    275    363 198.5  45.4  34152  289.45 0854.62
2009/04/23 14:46:37.3    -272   -481    323    553    640 209.5  33.0  34154  289.47 0854.62
2009/04/23 14:46:37.4     -83   -250    272    264    379 198.5  50.9  34156  289.52 0854.62
2009/04/23 14:46:37.5      21   -280    262    281    384 175.5  47.9  34158  289.55 0854.62
2009/04/23 14:46:37.6      21   -399    325    400    515 176.9  43.3  34156  289.50 0854.62
2009/04/23 14:46:37.7      98   -507    326    517    611 169.0  35.5  34164  289.63 0854.62
2009/04/23 14:46:37.8      73   -525    285    531    602 172.0  30.6  34156  289.52 0854.62
2009/04/23 14:46:37.9     -12   -379    212    380    435 181.9  31.5  34146  289.34 0854.62
2009/04/23 14:46:38.0      11   -438    224    439    492 178.5  29.2  34156  289.52 0854.57
2009/04/23 14:46:38.2       6   -399    270    400    482 179.0  37.3  34156  289.49 0854.57
2009/04/23 14:46:38.3     -34   -216    304    219    374 189.1  60.7  34162  289.60 0854.57
2009/04/23 14:46:38.4      -3   -139    243    140    280 181.4  67.5  34180  289.90 0854.57
2009/04/23 14:46:38.5      86   -386    208    396    447 167.4  30.0  34172  289.77 0854.57
2009/04/23 14:46:38.6      28   -384    124    386    406 175.8  17.9  34168  289.71 0854.57
2009/04/23 14:46:38.7     -19   -623     80    624    630 181.8   7.3  34170  289.74 0854.57
2009/04/23 14:46:38.8      84   -498     15    506    507 170.4   1.8  34162  289.59 0854.57
2009/04/23 14:46:38.9     -57   -281   -123    287    312 191.6 -29.0  34160  289.58 0854.57
2009/04/23 14:46:39.0    -147   -330   -175    362    402 204.1 -32.1  34178  289.86 0854.57
2009/04/23 14:46:39.1    -189    -51    -40    196    201 254.9 -11.6  34178  289.89 0854.57
2009/04/23 14:46:39.2    -177   -127     48    219    225 234.3  12.4  34172  289.79 0854.57
2009/04/23 14:46:39.3      -5    -67    139     68    154 184.5  72.8  34190  290.08 0854.57
2009/04/23 14:46:39.4      21     -3    109     22    111  99.7  89.1  34196  290.18 0854.57
2009/04/23 14:46:39.5      -8     -1    144      9    144 258.5  90.0  34206  290.36 0854.57
2009/04/23 14:46:39.6     -67    -42    179     80    196 237.5  74.8  34212  290.47 0854.57
2009/04/23 14:46:39.7     -60     24    173     65    184 292.6  78.9  34206  290.35 0854.57
2009/04/23 14:46:39.8      31    -44    171     55    179 144.8  81.2  34206  290.36 0854.57
2009/04/23 14:46:39.9     -16   -160    255    161    301 185.8  64.7  34184  289.98 0854.57
2009/04/23 14:46:40.0      41     14    215     44    219  71.4  89.0  34182  289.96 0854.57
2009/04/23 14:46:40.1     110     89     87    142    166  50.9  34.4  34180  289.92 0854.55
2009/04/23 14:46:40.2      37    109     72    116    136  18.7  35.5  34180  289.91 0854.55
2009/04/23 14:46:40.3       3    126     99    127    161   1.4  42.0  34186  290.02 0854.55
2009/04/23 14:46:40.4     -78     83    108    115    157 316.7  48.2  34188  290.04 0854.55
2009/04/23 14:46:40.5    -136     64     78    151    169 295.2  29.3  34184  289.99 0854.55
2009/04/23 14:46:40.6    -147      5     72    148    164 272.1  28.0  34190  290.09 0854.55
2009/04/23 14:46:40.7     -74   -116     99    138    169 212.5  39.1  34188  290.04 0854.55
2009/04/23 14:46:40.8    -105   -143    125    178    217 216.3  38.6  34192  290.11 0854.55
2009/04/23 14:46:40.9      20    -38     23     44     49 151.9  29.3  34198  290.23 0854.55
2009/04/23 14:46:41.0     104   -219    132    243    276 154.5  31.0  34182  289.95 0854.55
2009/04/23 14:46:41.1      -2   -204    113    205    234 180.7  31.4  34174  289.80 0854.55
2009/04/23 14:46:41.2     -16   -267    150    268    307 183.5  31.4  34160  289.58 0854.55
2009/04/23 14:46:41.3      50   -243    143    249    287 168.2  32.4  34162  289.59 0854.55
2009/04/23 14:46:41.4       4   -241     88    242    257 178.9  21.0  34164  289.63 0854.55
2009/04/23 14:46:41.5    -129   -131     90    185    205 224.5  27.4  34166  289.67 0854.55
2009/04/23 14:46:41.6     -59   -192     93    201    221 197.2  26.6  34162  289.60 0854.55
2009/04/23 14:46:41.7    -108   -170    126    202    238 212.6  35.0  34168  289.72 0854.55
2009/04/23 14:46:41.8    -114   -156     71    194    206 216.1  21.0  34164  289.63 0854.55
2009/04/23 14:46:41.9    -162   -206    -74    263    273 218.1 -20.4  34172  289.76 0854.55
2009/04/23 14:46:42.0    -128   -123    -57    178    188 226.0 -17.9  34168  289.72 0854.55
2009/04/23 14:46:42.1    -151    -63    -39    164    169 247.2 -13.4  34170  289.74 0854.51
2009/04/23 14:46:42.2    -180   -132    -19    224    225 233.6  -4.9  34170  289.74 0854.51
2009/04/23 14:46:42.3    -242   -242     -1    343    344 225.0  -0.3  34172  289.77 0854.51
2009/04/23 14:46:42.4    -308   -288     70    422    428 226.9   9.5  34160  289.56 0854.51
2009/04/23 14:46:42.5    -100   -351     64    365    371 195.9  10.0  34158  289.55 0854.51
2009/04/23 14:46:42.6      -7   -477     14    478    479 180.9   1.8  34156  289.50 0854.51
2009/04/23 14:46:42.7     -24   -473     -5    474    475 183.0  -0.7  34154  289.47 0854.51
2009/04/23 14:46:42.8     -33   -309    -61    311    318 186.2 -11.2  34158  289.54 0854.51
2009/04/23 14:46:42.9     117   -332    -44    353    356 160.5  -7.2  34162  289.59 0854.51
2009/04/23 14:46:43.0      73   -373     32    381    383 168.9   4.9  34158  289.55 0854.51
2009/04/23 14:46:43.1      53   -380    -28    384    386 172.0  -4.2  34158  289.54 0854.51
2009/04/23 14:46:43.2      14   -423     98    424    436 178.0  13.1  34150  289.41 0854.51
2009/04/23 14:46:43.3      72   -463    292    469    552 171.1  34.9  34172  289.79 0854.51
2009/04/23 14:46:43.4     154   -301    141    339    367 152.9  23.9  34164  289.65 0854.51
2009/04/23 14:46:43.5     188   -376    140    421    444 153.4  18.4  34164  289.65 0854.51
2009/04/23 14:46:43.6     277   -471    170    547    573 149.5  17.3  34150  289.41 0854.51
2009/04/23 14:46:43.7     262   -434    180    508    539 148.9  19.5  34152  289.45 0854.51
2009/04/23 14:46:43.8     187   -555     82    586    592 161.3   8.0  34158  289.54 0854.51
2009/04/23 14:46:43.9     161   -577    274    600    659 164.4  26.4  34146  289.33 0854.51
2009/04/23 14:46:44.0     361   -436    274    567    629 140.4  27.8  34154  289.46 0854.51
2009/04/23 14:46:44.1     123   -405    250    424    492 163.1  33.3  34164  289.64 0854.48
2009/04/23 14:46:44.2     117   -512    -20    526    527 167.1  -2.2  34158  289.55 0854.48
2009/04/23 14:46:44.3     159   -355   -139    390    415 155.8 -19.6  34166  289.68 0854.48
2009/04/23 14:46:44.4     190   -431     19    472    473 156.2   2.4  34166  289.66 0854.48
2009/04/23 14:46:44.5     244   -379     98    452    463 147.2  12.3  34154  289.46 0854.48
2009/04/23 14:46:44.6    -341   -217   -144    405    429 237.5 -24.8  34164  289.63 0854.48
2009/04/23 14:46:44.7    -280   -235    -17    366    367 230.0  -2.8  34162  289.59 0854.48
2009/04/23 14:46:44.8    -239   -363    -34    435    437 213.4  -4.5  34166  289.66 0854.48
2009/04/23 14:46:44.9    -238   -505   -177    559    586 205.2 -22.6  34168  289.71 0854.48
2009/04/23 14:46:45.0    -407   -501   -165    646    667 219.1 -14.4  34160  289.58 0854.48
2009/04/23 14:46:45.1    -464   -337   -147    574    593 234.0 -14.4  34182  289.93 0854.48
2009/04/23 14:46:45.2    -493   -330   -148    594    613 236.2 -14.1  34186  290.00 0854.48
2009/04/23 14:46:45.3    -435   -353   -188    561    592 230.9 -18.6  34182  289.93 0854.48
2009/04/23 14:46:45.4    -346   -279   -141    445    467 231.2 -17.7  34168  289.70 0854.48
2009/04/23 14:46:45.5    -164   -157   -179    228    289 226.2 -46.6  34156  289.51 0854.48
2009/04/23 14:46:45.6    -127   -351   -155    374    404 200.0 -28.3  34162  289.59 0854.48
2009/04/23 14:46:45.7    -104   -308    -90    326    339 198.7 -15.5  34162  289.60 0854.48
2009/04/23 14:46:45.8    -210   -451   -137    498    516 205.0 -20.0  34162  289.61 0854.48
2009/04/23 14:46:45.9      85   -314    -41    326    329 164.7  -7.2  34162  289.59 0854.48
2009/04/23 14:46:46.0     102   -458     48    470    473 167.4   5.9  34156  289.52 0854.48
2009/04/23 14:46:46.1      71   -540    -59    545    549 172.4  -6.2  34162  289.62 0854.48
2009/04/23 14:46:46.2       9   -498    -63    499    503 178.9  -7.2  34166  289.67 0854.48
2009/04/23 14:46:46.3      49   -475   -119    478    493 174.1 -14.1  34166  289.69 0854.48
2009/04/23 14:46:46.4     -92   -433   -165    443    472 192.0 -25.9  34160  289.58 0854.48
2009/04/23 14:46:46.5       6   -365   -180    366    407 179.0 -32.6  34166  289.67 0854.48
2009/04/23 14:46:46.6       6   -596   -121    597    609 179.4 -11.5  34166  289.68 0854.48
2009/04/23 14:46:46.7     248   -631    -85    679    685 158.5  -7.2  34150  289.41 0854.48
2009/04/23 14:46:46.8     396   -610    -22    728    729 147.0  -1.8  34152  289.44 0854.48
2009/04/23 14:46:46.9     332   -519    140    617    633 147.4  12.8  34152  289.42 0854.48
2009/04/23 14:46:47.0     255   -486    183    550    580 152.3  18.4  34154  289.46 0854.48
2009/04/23 14:46:47.1      98   -481     65    492    497 168.4   7.6  34158  289.54 0854.48
2009/04/23 14:46:47.2      57   -372     28    377    378 171.2   4.4  34160  289.57 0854.48
2009/04/23 14:46:47.3     286   -446    -44    531    533 147.3  -4.8  34158  289.55 0854.48
2009/04/23 14:46:47.4     283   -362    -47    460    463 142.0  -5.9  34158  289.55 0854.48
2009/04/23 14:46:47.5     259   -383     82    463    471 145.9  10.1  34156  289.49 0854.48
2009/04/23 14:46:47.6     402   -377    -22    552    553 133.1  -2.3  34152  289.43 0854.48
2009/04/23 14:46:47.7     425   -316     27    530    531 126.6   3.0  34158  289.53 0854.48
2009/04/23 14:46:47.8     208   -358     12    415    416 149.9   1.8  34160  289.56 0854.48
2009/04/23 14:46:47.9     133   -436     56    457    461 163.0   7.1  34162  289.61 0854.48
2009/04/23 14:46:48.0      62   -405     -9    410    411 171.2  -1.3  34168  289.70 0854.48
2009/04/23 14:46:48.1     219   -406    -54    462    466 151.6  -6.7  34164  289.65 0854.51
2009/04/23 14:46:48.2     142   -424   -120    448    464 161.4 -15.0  34156  289.51 0854.51
2009/04/23 14:46:48.3     173   -487     20    517    518 160.4   2.2  34156  289.49 0854.51
2009/04/23 14:46:48.4      18   -419    132    420    441 177.5  17.5  34164  289.63 0854.51
2009/04/23 14:46:48.5      89   -346     17    358    359 165.5   2.8  34174  289.82 0854.51
2009/04/23 14:46:48.6      27   -340    -13    342    343 175.4  -2.2  34178  289.87 0854.51
2009/04/23 14:46:48.7      35   -309    -21    311    312 173.5  -3.9  34176  289.85 0854.51
2009/04/23 14:46:48.8      94   -315    -18    329    330 163.3  -3.1  34180  289.91 0854.51
2009/04/23 14:46:48.9      -4   -385    -15    386    387 180.7  -2.3  34184  289.98 0854.51
2009/04/23 14:46:49.0     130   -388    -78    410    418 161.4 -10.8  34184  289.97 0854.51
2009/04/23 14:46:49.1     295   -466    -49    552    555 147.6  -5.1  34166  289.68 0854.51
2009/04/23 14:46:49.2     431   -438    144    615    632 135.5  13.2  34156  289.50 0854.51
2009/04/23 14:46:49.3     399   -404    206    568    604 135.4  20.9  34146  289.34 0854.51
2009/04/23 14:46:49.4     312   -628    160    702    721 153.6  12.9  34158  289.54 0854.51
2009/04/23 14:46:49.5     345   -655    105    741    749 152.2   8.1  34158  289.55 0854.51
2009/04/23 14:46:49.6     404   -458    -23    611    612 138.6  -2.2  34152  289.44 0854.51
2009/04/23 14:46:49.7     241   -391    110    460    474 148.4  13.5  34158  289.54 0854.51
2009/04/23 14:46:49.8     118   -294    -24    317    318 158.1  -4.4  34160  289.58 0854.51
2009/04/23 14:46:49.9     222   -147    -47    267    272 123.5 -10.1  34176  289.83 0854.51
2009/04/23 14:46:50.0     101    -82     49    131    139 129.1  21.0  34170  289.74 0854.51
2009/04/23 14:46:50.1      12   -162     90    163    186 175.8  31.3  34164  289.65 0854.56
2009/04/23 14:46:50.2     123   -168    122    209    242 143.9  33.1  34160  289.57 0854.56
2009/04/23 14:46:50.3     190   -184    158    265    308 134.0  33.5  34160  289.58 0854.56
2009/04/23 14:46:50.4     129   -185     72    226    238 145.0  17.7  34166  289.66 0854.56
2009/04/23 14:46:50.5     128   -119    -91    175    197 132.9 -33.9  34174  289.82 0854.56
2009/04/23 14:46:50.6      52   -174    -96    182    205 163.1 -34.2  34170  289.74 0854.56
2009/04/23 14:46:50.7      92   -190    -89    212    229 154.1 -28.5  34172  289.79 0854.56
2009/04/23 14:46:50.8      47   -204    -75    210    224 166.9 -19.7  34168  289.72 0854.56
2009/04/23 14:46:50.9     148   -116    -60    189    198 128.0 -22.5  34164  289.63 0854.56
2009/04/23 14:46:51.0      83    -21      4     86     87 104.6   2.9  34172  289.77 0854.56
2009/04/23 14:46:51.1     116      0     41    117    125  90.0  19.4  34172  289.79 0854.56
2009/04/23 14:46:51.2     125     22     46    127    135  79.9  20.0  34172  289.79 0854.56
2009/04/23 14:46:51.3      84    -11     36     85     92  97.5  24.1  34172  289.77 0854.56
2009/04/23 14:46:51.4      24    -64     82     69    107 159.1  55.8  34182  289.96 0854.56
2009/04/23 14:46:51.5     142   -172    -25    224    226 140.4  -6.5  34172  289.79 0854.56
2009/04/23 14:46:51.6     124   -207     74    242    254 149.0  17.1  34184  289.97 0854.56
2009/04/23 14:46:51.7      84   -147     73    170    185 150.4  24.6  34186  290.01 0854.56
2009/04/23 14:46:51.8      64    -90     88    111    141 144.8  42.7  34188  290.04 0854.56
2009/04/23 14:46:51.9      49     -8    130     50    139  99.7  78.2  34188  290.06 0854.56
2009/04/23 14:46:52.0      80    110     69    137    153  36.0  28.7  34176  289.84 0854.56
2009/04/23 14:46:52.1       0    149    -10    150    151 359.6  -4.1  34176  289.85 0854.58
2009/04/23 14:46:52.2      25     97    -34    101    107  14.7 -19.1  34176  289.85 0854.58
2009/04/23 14:46:52.3      44     76    -12     89     90  30.3  -8.2  34174  289.80 0854.58
2009/04/23 14:46:52.4     137     23     27    139    142  80.4  11.0  34174  289.80 0854.58
2009/04/23 14:46:52.5     190    -62    -17    200    201 108.2  -5.1  34176  289.84 0854.58
2009/04/23 14:46:52.6     210   -139     45    252    257 123.5  10.1  34178  289.86 0854.58
2009/04/23 14:46:52.7     105    -28    -30    109    114 105.1 -15.5  34176  289.85 0854.58
2009/04/23 14:46:52.8     171    -12      0    172    173  94.1  -0.3  34172  289.77 0854.58
2009/04/23 14:46:52.9     259      1     41    260    264  89.6   9.0  34176  289.83 0854.58
2009/04/23 14:46:53.0     251     16     75    252    263  86.3  16.6  34172  289.78 0854.58
2009/04/23 14:46:53.1     281     40     14    284    285  81.9   2.9  34172  289.78 0854.58
2009/04/23 14:46:53.2     226   -106    135    250    284 115.2  30.6  34186  290.02 0854.58
2009/04/23 14:46:53.3     307   -110     70    327    335 109.7  12.1  34178  289.89 0854.58
2009/04/23 14:46:53.4     362   -157     26    395    396 113.5   3.9  34176  289.84 0854.58
2009/04/23 14:46:53.5     368    -74     45    376    379 101.5   6.9  34174  289.81 0854.58
2009/04/23 14:46:53.6     462   -185     19    498    499 111.9   2.2  34176  289.83 0854.58
2009/04/23 14:46:53.7     250   -206    105    324    341 129.5  18.0  34172  289.76 0854.58
2009/04/23 14:46:53.8     265    -76     81    276    288 106.0  16.4  34178  289.86 0854.58
2009/04/23 14:46:53.9     242   -371     85    444    453 146.9  10.8  34172  289.78 0854.58
2009/04/23 14:46:54.0     401   -469     16    618    619 139.5   1.5  34174  289.82 0854.58
2009/04/23 14:46:54.1     337   -464     44    574    576 144.0   4.5  34178  289.88 0854.53
2009/04/23 14:46:54.2     161   -510     46    536    539 162.4   5.0  34174  289.82 0854.53
2009/04/23 14:46:54.3      81   -536    223    543    587 171.4  23.6  34180  289.90 0854.53
2009/04/23 14:46:54.4     222   -428    113    483    497 152.6  13.2  34174  289.81 0854.53
2009/04/23 14:46:54.5     161   -497    242    523    576 162.0  26.6  34176  289.85 0854.53
2009/04/23 14:46:54.6     177   -374    181    415    452 154.6  25.1  34172  289.78 0854.53
2009/04/23 14:46:54.7     140   -334    -20    363    364 157.2  -3.2  34174  289.82 0854.53
2009/04/23 14:46:54.8     186   -241    -84    305    317 142.4 -15.4  34178  289.86 0854.53
2009/04/23 14:46:54.9     154   -369     62    401    406 157.3   8.9  34180  289.90 0854.53
2009/04/23 14:46:55.0      30   -320      1    322    323 174.6   0.2  34182  289.93 0854.53
2009/04/23 14:46:55.1     -53   -213    -19    220    221 194.0  -5.1  34176  289.85 0854.53
2009/04/23 14:46:55.2     -11     12   -127     17    128 316.8 -90.0  34204  290.33 0854.53
2009/04/23 14:46:55.3      14      4   -114     15    114  71.6 -90.0  34200  290.26 0854.53
2009/04/23 14:46:55.4      -2   -147    -84    148    170 180.9 -36.5  34192  290.13 0854.53
2009/04/23 14:46:55.5     129     55   -137    141    196  66.9 -53.6  34188  290.06 0854.53
2009/04/23 14:46:55.6     -16     42   -124     45    131 339.1 -84.1  34196  290.18 0854.53
2009/04/23 14:46:55.7     -80      0   -148     81    168 270.0 -73.5  34196  290.19 0854.53
2009/04/23 14:46:55.8     -64   -188   -142    199    244 198.9 -43.2  34202  290.28 0854.53
2009/04/23 14:46:55.9      99   -136   -129    169    212 143.9 -45.8  34194  290.16 0854.53
2009/04/23 14:46:56.0      59   -135   -144    148    206 156.3 -53.8  34206  290.35 0854.53
2009/04/23 14:46:56.1     144   -106    -62    179    190 126.4 -19.1  34194  290.14 0854.50
2009/04/23 14:46:56.2     254   -115     38    279    282 114.4   7.8  34184  289.97 0854.50
2009/04/23 14:46:56.3     239    -24     85    241    256  95.9  19.4  34186  290.02 0854.50
2009/04/23 14:46:56.4     161    -53    142    170    221 108.4  44.1  34192  290.11 0854.50
2009/04/23 14:46:56.5     122   -101     -4    159    160 129.5  -1.6  34182  289.94 0854.50
2009/04/23 14:46:56.6     182   -116     48    216    222 122.5  12.6  34180  289.91 0854.50
2009/04/23 14:46:56.7     175   -204    100    270    287 139.4  21.0  34178  289.86 0854.50
2009/04/23 14:46:56.8       8   -415    203    416    462 178.8  27.8  34168  289.72 0854.50
2009/04/23 14:46:56.9      95   -462    306    472    562 168.3  36.0  34184  289.99 0854.50
2009/04/23 14:46:57.0      19   -478    318    479    574 177.7  36.5  34180  289.90 0854.50
2009/04/23 14:46:57.1      43   -254    367    258    448 170.2  61.5  34214  290.50 0854.50
2009/04/23 14:46:57.2     242   -354    211    429    478 145.6  28.1  34184  289.97 0854.50
2009/04/23 14:46:57.3     201   -298    195    360    409 145.9  30.9  34178  289.87 0854.50
2009/04/23 14:46:57.4     356   -262    142    443    466 126.4  17.8  34180  289.90 0854.50
2009/04/23 14:46:57.5     304   -143    127    336    359 115.2  21.6  34178  289.87 0854.50
2009/04/23 14:46:57.6     246    -80     51    259    265 108.2  11.1  34190  290.09 0854.50
2009/04/23 14:46:57.7     310     78     24    320    321  75.8   4.4  34192  290.12 0854.50
2009/04/23 14:46:57.8     349    -12     17    350    351  92.1   2.9  34192  290.11 0854.50
2009/04/23 14:46:57.9     257    -72     62    267    275 105.7  13.2  34170  289.73 0854.50
2009/04/23 14:46:58.0     183    -36    150    187    239 101.2  42.8  34198  290.23 0854.50
2009/04/23 14:46:58.1     105    -25    125    109    165 103.7  54.6  34194  290.14 0854.38
2009/04/23 14:46:58.2      65   -114    -31    132    136 150.1 -13.3  34202  290.30 0854.38
2009/04/23 14:46:58.3      71    -68     11     99    100 134.0   6.9  34206  290.35 0854.38
2009/04/23 14:46:58.4     145   -120     49    189    196 129.5  14.7  34208  290.38 0854.38
2009/04/23 14:46:58.5     262   -166     93    311    325 122.4  16.8  34190  290.09 0854.38
2009/04/23 14:46:58.6     223    -74    109    236    259 108.4  26.4  34186  290.00 0854.38
2009/04/23 14:46:58.7     -68   -255    287    265    390 195.1  52.6  34186  290.01 0854.38
2009/04/23 14:46:58.8     -84   -340    267    351    441 193.9  41.2  34186  290.02 0854.38
2009/04/23 14:46:58.9     -43   -285    152    289    326 188.7  30.0  34194  290.14 0854.38
2009/04/23 14:46:59.0      32   -221    173    224    283 171.8  41.6  34204  290.31 0854.38
2009/04/23 14:46:59.1     242    -66    267    251    366 105.3  52.1  34212  290.47 0854.42
2009/04/23 14:46:59.2     200    -14    238    201    311  94.1  55.8  34206  290.34 0854.42
2009/04/23 14:46:59.3     158   -109    199    192    276 124.6  51.2  34202  290.27 0854.42
2009/04/23 14:46:59.4     240     12    142    241    279  87.0  33.4  34202  290.27 0854.42
2009/04/23 14:46:59.5     237   -112     83    263    276 115.2  17.7  34204  290.31 0854.42
2009/04/23 14:46:59.6     227      6    148    228    271  88.3  35.6  34208  290.37 0854.42
2009/04/23 14:46:59.7     100    238     93    259    276  22.8  19.9  34206  290.36 0854.42
2009/04/23 14:46:59.8     124    221    114    254    278  29.4  25.9  34208  290.39 0854.42
2009/04/23 14:46:59.9      24     70    131     75    150  19.2  67.7  34222  290.64 0854.42
2009/04/23 14:47:00.0     -44     19    113     48    122 293.5  76.1  34230  290.75 0854.42
2009/04/23 14:47:00.1      -6     43     77     44     88 351.1  67.7  34222  290.64 0854.42
2009/04/23 14:47:00.2     -36    148      3    153    154 346.2   1.2  34204  290.33 0854.42
2009/04/23 14:47:00.3     -71    156      0    172    173 335.3   0.0  34204  290.31 0854.42
2009/04/23 14:47:00.4     -75    158     20    175    177 334.6   6.7  34206  290.35 0854.42
2009/04/23 14:47:00.5     -18    246     -1    247    248 355.6  -0.3  34212  290.44 0854.42
2009/04/23 14:47:00.6    -104    238      8    261    262 336.3   1.8  34210  290.41 0854.42
2009/04/23 14:47:00.7     -12    260      7    261    262 357.3   1.6  34210  290.42 0854.42
2009/04/23 14:47:00.8     -26    238    -21    240    241 353.7  -5.2  34212  290.46 0854.42
2009/04/23 14:47:00.9      -3    205     48    206    212 358.9  13.2  34204  290.33 0854.42
2009/04/23 14:47:01.0     -76    189     28    204    207 337.9   8.0  34204  290.31 0854.42
2009/04/23 14:47:01.1     -37    109     99    116    152 341.3  44.8  34216  290.52 0854.37
2009/04/23 14:47:01.2     -18     45     84     49     97 338.2  66.8  34226  290.69 0854.37
2009/04/23 14:47:01.3     -26     27     47     38     60 316.6  56.4  34234  290.82 0854.37
2009/04/23 14:47:01.4       3      3     57      5     57  45.0  90.0  34234  290.82 0854.37
2009/04/23 14:47:01.5     -54     74     58     92    108 323.9  35.5  34210  290.41 0854.37
2009/04/23 14:47:01.6     -23     50     79     56     96 335.5  61.5  34216  290.52 0854.37
2009/04/23 14:47:01.7     -29     -3     90     30     94 263.9  81.0  34230  290.77 0854.37
2009/04/23 14:47:01.8       0     19     97     20     99   0.9  89.0  34230  290.75 0854.37
2009/04/23 14:47:01.9     111     35     64    117    133  72.3  31.4  34216  290.52 0854.37
2009/04/23 14:47:02.0     117     24     62    120    135  78.1  29.3  34212  290.47 0854.37
2009/04/23 14:47:02.1     112     22    132    115    175  78.5  54.6  34218  290.55 0854.37
2009/04/23 14:47:02.2      75     52    101     92    136  54.9  52.7  34230  290.77 0854.37
2009/04/23 14:47:02.3       0      7     67      8     67 357.3  90.0  34252  291.15 0854.37
2009/04/23 14:47:02.4     -61     40     62     74     96 303.3  44.3  34238  290.91 0854.37
2009/04/23 14:47:02.5     -27     99     82    103    131 344.4  43.3  34234  290.82 0854.37
2009/04/23 14:47:02.6    -112    136    124    177    216 320.6  38.8  34242  290.96 0854.37
2009/04/23 14:47:02.7    -117    122    127    170    212 316.3  40.4  34266  291.38 0854.37
2009/04/23 14:47:02.8     -55    128     96    140    169 336.8  37.8  34252  291.13 0854.37
2009/04/23 14:47:02.9     -29    122    121    126    174 346.6  49.2  34238  290.89 0854.37
2009/04/23 14:47:03.0     -94    186    155    209    260 333.0  40.4  34244  291.00 0854.37
2009/04/23 14:47:03.1    -111    111    114    158    194 315.0  39.5  34242  290.96 0854.28
2009/04/23 14:47:03.2    -203     -7     77    204    218 267.9  21.5  34228  290.74 0854.28
2009/04/23 14:47:03.3    -102   -123    185    161    245 219.6  54.6  34222  290.64 0854.28
2009/04/23 14:47:03.4    -210   -115    105    240    261 241.2  25.1  34208  290.39 0854.28
2009/04/23 14:47:03.5     -49    -78    133     93    162 212.5  61.8  34224  290.65 0854.28
2009/04/23 14:47:03.6    -239   -220    206    325    384 227.4  35.5  34208  290.40 0854.28
2009/04/23 14:47:03.7     228   -138    362    267    449 121.1  60.3  34226  290.69 0854.28
2009/04/23 14:47:03.8     -44   -208    240    213    320 192.0  53.9  34208  290.37 0854.28
2009/04/23 14:47:03.9      25    -58    218     64    227 156.4  83.3  34236  290.86 0854.28
2009/04/23 14:47:04.0      55    -24    213     61    221 113.5  83.9  34240  290.92 0854.28
2009/04/23 14:47:04.1     153    -93    139    180    227 121.3  41.7  34248  291.06 0854.28
2009/04/23 14:47:04.2      -4   -259    214    260    336 180.9  43.7  34218  290.54 0854.28
2009/04/23 14:47:04.4    -166   -305    278    348    445 208.6  42.7  34220  290.58 0854.28
2009/04/23 14:47:04.5    -265   -186    105    325    342 234.9  18.0  34240  290.94 0854.28
2009/04/23 14:47:04.6    -221   -160    113    273    295 234.1  23.8  34232  290.80 0854.28
2009/04/23 14:47:04.7    -178   -179     54    253    259 224.8  12.2  34240  290.93 0854.28
2009/04/23 14:47:04.8    -197    -91     96    218    238 245.2  25.2  34256  291.20 0854.28
2009/04/23 14:47:04.9    -193   -122     67    229    239 237.6  16.3  34224  290.66 0854.28
2009/04/23 14:47:05.0    -202   -166     92    262    278 230.7  19.4  34246  291.02 0854.28
2009/04/23 14:47:05.1    -130   -107     74    169    184 230.5  25.1  34228  290.74 0854.28
2009/04/23 14:47:05.2    -121    -77     28    144    147 237.6  11.0  34238  290.91 0854.35
2009/04/23 14:47:05.3     -37    -58     60     69     91 212.5  45.4  34238  290.89 0854.35
2009/04/23 14:47:05.4     -28    -37    -13     47     49 217.8 -15.5  34240  290.94 0854.35
2009/04/23 14:47:05.5      59    -45     -9     75     76 127.8  -7.2  34254  291.18 0854.35
2009/04/23 14:47:05.6     123     -8      6    124    125  93.9   2.8  34334  292.54 0854.35
2009/04/23 14:47:05.7      15   -114     -6    116    117 172.4  -3.1  34310  292.13 0854.35
2009/04/23 14:47:05.8     -74    -97     -6    123    124 217.4  -3.1  34268  291.40 0854.35
2009/04/23 14:47:05.9       7   -176      9    177    178 177.5   2.9  34252  291.13 0854.35
2009/04/23 14:47:06.0      -4    -26     23     27     35 189.8  43.8  34278  291.57 0854.35
2009/04/23 14:47:06.1     -53     19     26     57     62 290.0  26.2  34258  291.23 0854.35
2009/04/23 14:47:06.2     -61     59     11     85     86 314.0   8.0  34248  291.06 0854.35
2009/04/23 14:47:06.3       9     39     -6     41     42  13.4  -9.3  34248  291.06 0854.35
2009/04/23 14:47:06.4      31     64    -19     72     75  26.3 -15.4  34276  291.54 0854.35
2009/04/23 14:47:06.5      17     50    -29     54     61  19.2 -35.7  34284  291.69 0854.35
2009/04/23 14:47:06.6     -46     38    -19     60     62 309.5 -22.8  34272  291.49 0854.35
2009/04/23 14:47:06.7     -12     60    -25     62     66 348.5 -27.4  34276  291.54 0854.35
2009/04/23 14:47:06.8     -15     49    -22     52     56 342.2 -28.5  34274  291.50 0854.35
2009/04/23 14:47:06.9      31     -9      6     33     34 106.8  11.1  34276  291.54 0854.35
2009/04/23 14:47:07.0      38     24     24     46     51  57.5  29.3  34272  291.47 0854.35
2009/04/23 14:47:07.1      25    -30     38     40     55 140.4  50.0  34254  291.18 0854.35
2009/04/23 14:47:07.2      -4    -19     54     20     57 193.4  80.2  34248  291.06 0854.41
2009/04/23 14:47:07.3     107    -53     -3    120    121 116.6  -1.8  34228  290.74 0854.41
2009/04/23 14:47:07.4     151    -72      3    168    169 115.4   1.2  34236  290.86 0854.41
2009/04/23 14:47:07.5     153   -104     22    186    188 124.2   6.9  34264  291.33 0854.41
2009/04/23 14:47:07.6     156    -86    -15    179    180 118.9  -4.9  34294  291.86 0854.41
2009/04/23 14:47:07.7     136   -252     24    287    289 151.7   4.9  34220  290.59 0854.41
2009/04/23 14:47:07.8     141   -310    141    341    369 155.5  23.8  34218  290.57 0854.41
2009/04/23 14:47:07.9     101   -342    147    357    386 163.5  23.6  34208  290.37 0854.41
2009/04/23 14:47:08.0     231   -275    221    360    422 140.0  34.4  34234  290.84 0854.41
2009/04/23 14:47:08.1     273    -46    112    277    298  99.7  23.1  34272  291.48 0854.41
2009/04/23 14:47:08.2     187    -38    169    191    255 101.7  46.2  34240  290.93 0854.41
2009/04/23 14:47:08.3     142    -97     87    173    193 124.4  28.7  34232  290.79 0854.41
2009/04/23 14:47:08.4      87    -24     39     91     99 105.9  24.1  34230  290.75 0854.41
2009/04/23 14:47:08.5     106    -28     59    110    124 105.1  30.8  34234  290.82 0854.41
2009/04/23 14:47:08.6      97    -28     69    102    123 106.4  37.4  34224  290.65 0854.41
2009/04/23 14:47:08.7      68     44     82     82    115  57.1  50.1  34234  290.82 0854.41
2009/04/23 14:47:08.8      73     20     64     76     99  74.1  44.3  34244  291.01 0854.41
2009/04/23 14:47:08.9      41    -11     29     43     51 105.9  37.6  34254  291.16 0854.41
2009/04/23 14:47:09.0      73    -19     82     76    111 105.1  52.2  34274  291.52 0854.41
2009/04/23 14:47:09.1      46     18    122     50    131  68.3  77.0  34272  291.47 0854.41
2009/04/23 14:47:09.2      -4     62     98     63    116 355.6  64.6  34258  291.23 0854.41
2009/04/23 14:47:09.3     -38     66     24     77     81 330.1  17.3  34268  291.40 0854.41
2009/04/23 14:47:09.4      33     70     50     78     92  25.5  35.6  34246  291.04 0854.41
2009/04/23 14:47:09.5    -109    -13     68    110    129 263.0  35.5  34248  291.06 0854.41
2009/04/23 14:47:09.6     -93    -25    101     97    140 254.5  51.2  34254  291.16 0854.41
2009/04/23 14:47:09.7     -33   -200    112    203    231 189.6  31.4  34210  290.43 0854.41
2009/04/23 14:47:09.8      17   -187    182    188    261 174.7  49.0  34212  290.46 0854.41
2009/04/23 14:47:09.9     -41   -151    216    157    267 195.2  60.5  34214  290.48 0854.41
2009/04/23 14:47:10.0     170   -119    164    208    264 125.1  42.7  34212  290.46 0854.41
2009/04/23 14:47:10.1     320    -98    198    335    389 107.1  33.5  34222  290.62 0854.41
2009/04/23 14:47:10.2     428   -196    211    471    516 114.6  25.7  34216  290.52 0854.41
2009/04/23 14:47:10.3      86   -325    328    337    470 165.2  49.2  34198  290.21 0854.41
2009/04/23 14:47:10.4     -23   -417    312    418    521 183.2  40.6  34202  290.29 0854.41
2009/04/23 14:47:10.5     194   -506    331    543    635 159.0  34.3  34180  289.90 0854.41
2009/04/23 14:47:10.6      53   -194    295    202    357 164.6  62.5  34224  290.65 0854.41
2009/04/23 14:47:10.7     117   -421    273    438    516 164.4  35.0  34196  290.17 0854.41
2009/04/23 14:47:10.8    -112   -397     75    413    420 195.8  10.4  34194  290.14 0854.41
2009/04/23 14:47:10.9     -78   -323     -6    333    334 193.6  -1.2  34182  289.93 0854.41
2009/04/23 14:47:11.0    -122   -366    -25    387    388 198.5  -3.8  34180  289.91 0854.41
2009/04/23 14:47:11.1    -103   -351    -40    366    369 196.4  -6.3  34188  290.04 0854.47
2009/04/23 14:47:11.2      81   -348   -119    358    377 166.9 -23.8  34192  290.11 0854.47
2009/04/23 14:47:11.3     154   -149   -103    215    238 134.0 -31.8  34172  289.77 0854.47
2009/04/23 14:47:11.4    -205   -314   -146    376    403 213.1 -26.7  34178  289.89 0854.47
2009/04/23 14:47:11.5      65   -142    -63    157    169 155.5 -27.4  34192  290.11 0854.47
2009/04/23 14:47:11.6      83     63      5    105    106  52.7   2.9  34192  290.13 0854.47
2009/04/23 14:47:11.7     197     98    130    221    256  63.4  33.1  34196  290.17 0854.47
2009/04/23 14:47:11.8     156     73    194    173    259  64.9  53.7  34198  290.22 0854.47
2009/04/23 14:47:11.9      39    129     96    135    165  16.9  38.8  34200  290.25
    284     81    121    296    319  74.1  23.5  34188  290.03
    294   -185    218    348    410 122.3  35.2  34178  289.87
    255     98    166    274    320  68.9  34.2  34172  289.78
    363    -93    321    375    493 104.5  45.0  34172  289.78
    387   -126    214    408    460 108.1  30.0  34176  289.85
    -54   -467    369    471    598 186.7  42.1  34182  289.96
    -20   -457    354    458    578 182.6  41.6  34186  290.02
     -3    -29    152     30    154 186.2  89.1  34198  290.23
    247   -296    188    386    429 140.2  27.9  34186  290.02 0854.47
2009/04/23 14:47:13.0     244    -74     97    256    273 106.9  21.5  34174  289.81 0854.47
2009/04/23 14:47:13.1     195   -183    -80    268    280 133.1 -16.8  34182  289.95 0854.47
2009/04/23 14:47:13.2     232   -212   -138    315    343 132.4 -29.6  34178  289.89 0854.47
2009/04/23 14:47:13.3     192   -296    -73    353    361 147.0 -11.8  34182  289.93 0854.47
2009/04/23 14:47:13.4     168   -255    111    306    325 146.6  20.7  34180  289.90 0854.47
2009/04/23 14:47:13.5     399   -176     28    437    438 113.9   3.8  34176  289.83 0854.47
2009/04/23 14:47:13.6     470   -402    152    619    638 130.5  13.8  34174  289.81 0854.47
2009/04/23 14:47:13.7     413   -406    158    580    602 134.5  15.3  34172  289.78 0854.47
2009/04/23 14:47:13.8     398   -242    139    466    487 121.3  16.7  34182  289.96 0854.47
2009/04/23 14:47:13.9     236     55     -2    243    244  76.7  -0.5  34180  289.92 0854.47
2009/04/23 14:47:14.0     400   -289     -1    494    495 125.9  -0.2  34184  289.98 0854.52
2009/04/23 14:47:14.1     225   -411    254    469    533 151.3  30.9  34180  289.91 0854.52
2009/04/23 14:47:14.2     219   -373    122    433    451 149.6  15.8  34180  289.90 0854.52
2009/04/23 14:47:14.3     238   -184   -117    301    322 127.8 -26.8  34186  290.00 0854.52
2009/04/23 14:47:14.4     193   -175   -149    261    300 132.3 -36.8  34188  290.05 0854.52
2009/04/23 14:47:14.5     179   -183   -157    257    301 135.7 -38.8  34186  290.02 0854.52
2009/04/23 14:47:14.6      81     19   -205     84    221  76.3 -81.4  34194  290.16 0854.52
2009/04/23 14:47:14.7      27    190    -82    192    208   8.2 -29.0  34196  290.18 0854.52
2009/04/23 14:47:14.8      94     31    -53    100    113  71.4 -34.2  34192  290.13 0854.52
2009/04/23 14:47:14.9     196    -80    -50    212    218 112.2 -13.3  34186  290.01 0854.52
2009/04/23 14:47:15.0     215     36   -140    219    259  80.3 -40.0  34190  290.09 0854.52
2009/04/23 14:47:15.1     145   -262    -11    300    301 151.0  -2.2  34180  289.92 0854.52
2009/04/23 14:47:15.2     314   -503    132    594    609 148.0  12.6  34164  289.64 0854.52
2009/04/23 14:47:15.3     432   -417    191    601    631 134.0  17.7  34162  289.59 0854.52
2009/04/23 14:47:15.4     457   -306    134    551    567 123.8  13.7  34168  289.70 0854.52
2009/04/23 14:47:15.5     404   -303    104    505    516 126.9  11.7  34172  289.76 0854.52
2009/04/23 14:47:15.6     262   -308     17    405    406 139.6   2.5  34178  289.87 0854.52
2009/04/23 14:47:15.7     239   -258     63    353    359 137.2  10.1  34176  289.84 0854.52
2009/04/23 14:47:15.8     135   -284      5    315    316 154.5   1.0  34184  289.97 0854.52
2009/04/23 14:47:15.9      44   -216     42    221    225 168.4  10.8  34184  289.97 0854.52
2009/04/23 14:47:16.0      70   -173    -64    187    198 157.7 -19.1  34188  290.04 0854.54
2009/04/23 14:47:16.1     148   -388    121    416    434 159.1  16.3  34174  289.82 0854.54
2009/04/23 14:47:16.2     187   -301    178    355    397 148.1  28.6  34174  289.81 0854.54
2009/04/23 14:47:16.3     212   -382    325    438    545 151.0  40.2  34178  289.89 0854.54
2009/04/23 14:47:16.4     503   -204    191    543    575 112.1  20.1  34172  289.79 0854.54
2009/04/23 14:47:16.5     309   -189     99    363    377 121.4  15.3  34180  289.91 0854.54
2009/04/23 14:47:16.6     243   -100     50    263    268 112.4  10.8  34180  289.90 0854.54
2009/04/23 14:47:16.7     260   -203     23    331    332 128.0   4.0  34186  290.01 0854.54
2009/04/23 14:47:16.8     172   -259     52    311    316 146.4   9.5  34184  289.97 0854.54
2009/04/23 14:47:16.9     160   -331    123    368    389 154.1  18.5  34178  289.87 0854.54
2009/04/23 14:47:17.0     171   -207    211    269    341 140.4  42.2  34174  289.81 0854.54
2009/04/23 14:47:17.1     120     -5    175    121    212  92.6  62.4  34188  290.06 0854.54
2009/04/23 14:47:17.2     150    -11    134    151    201  94.4  46.2  34184  289.99 0854.54
2009/04/23 14:47:17.3     147    -25    153    150    214  99.6  50.2  34188  290.06 0854.54
2009/04/23 14:47:17.4      37    141     40    146    152  15.1  15.3  34194  290.16 0854.54
2009/04/23 14:47:17.5     104    158    -25    190    192  33.2  -7.7  34190  290.08 0854.54
2009/04/23 14:47:17.6     108    159    -62    193    203  34.3 -17.9  34194  290.14 0854.54
2009/04/23 14:47:17.7     146    179      7    232    233  39.2   1.8  34190  290.09 0854.54
2009/04/23 14:47:17.8     162    185     93    247    263  41.2  21.7  34206  290.34 0854.54
2009/04/23 14:47:17.9     127    199    -52    237    243  32.5 -12.4  34196  290.19 0854.54
2009/04/23 14:47:18.0      40    149    136    155    206  15.1  45.8  34194  290.16 0854.52
2009/04/23 14:47:18.1      98     23    187    101    212  76.3  69.1  34204  290.31 0854.52
2009/04/23 14:47:18.2     195    -51    214    202    294 104.8  52.1  34202  290.27 0854.52
2009/04/23 14:47:18.3     189    -20    189    191    268  96.1  50.0  34198  290.22 0854.52
2009/04/23 14:47:18.4     204    -64    117    214    243 107.5  31.3  34206  290.36 0854.52
2009/04/23 14:47:18.5     227   -123     22    259    261 118.4   4.9  34194  290.15 0854.52
2009/04/23 14:47:18.6     195   -183     38    268    271 133.1   8.2  34192  290.10 0854.52
2009/04/23 14:47:18.7     104   -307    125    325    348 161.3  22.2  34188  290.03 0854.52
2009/04/23 14:47:18.8     179   -121    107    217    241 124.1  28.2  34204  290.32 0854.52
2009/04/23 14:47:18.9     459    -62     39    464    466  97.7   4.9  34198  290.20 0854.52
2009/04/23 14:47:19.0     174   -222    135    283    313 141.9  27.3  34182  289.95 0854.52
2009/04/23 14:47:19.1     102   -288    109    306    324 160.4  20.3  34186  290.00 0854.52
2009/04/23 14:47:19.2      53   -310    100    315    331 170.2  17.7  34186  290.00 0854.52
2009/04/23 14:47:19.3      25   -264    182    266    322 174.6  37.7  34188  290.05 0854.52
2009/04/23 14:47:19.4     -15   -313    299    314    433 182.9  48.5  34188  290.06 0854.52
2009/04/23 14:47:19.5    -140   -309    126    340    362 204.4  21.3  34188  290.03 0854.52
2009/04/23 14:47:19.6      24   -319    158    320    356 175.6  28.4  34192  290.13 0854.52
2009/04/23 14:47:19.7      52   -271    153    277    316 169.1  31.4  34194  290.14 0854.52
2009/04/23 14:47:19.8      23    -82    131     86    156 164.4  64.6  34198  290.21 0854.52
2009/04/23 14:47:19.9     156    -42     37    162    167 105.1  12.9  34198  290.21 0854.52
2009/04/23 14:47:20.0     110     29     26    114    118  74.9  13.1  34198  290.21 0854.49
2009/04/23 14:47:20.1     100    -35    -32    107    112 109.5 -16.6  34198  290.23 0854.49
2009/04/23 14:47:20.2     201    -15    -19    202    203  94.3  -5.6  34192  290.11 0854.49
2009/04/23 14:47:20.3     201    -17    -14    202    203  95.0  -4.1  34196  290.19 0854.49
2009/04/23 14:47:20.4     173    -48     36    180    184 105.5  11.6  34194  290.14 0854.49
2009/04/23 14:47:20.5     224    -31     62    227    236  97.9  15.3  34198  290.21 0854.49
2009/04/23 14:47:20.6     206    -42      2    211    212 101.7   0.7  34196  290.18 0854.49
2009/04/23 14:47:20.7     174    -23     51    176    184  97.7  16.3  34194  290.16 0854.49
2009/04/23 14:47:20.8     156      7    -47    157    163  87.4 -21.7  34196  290.18 0854.49
2009/04/23 14:47:20.9     118    -14    -63    119    134  97.0 -34.7  34194  290.16 0854.49
2009/04/23 14:47:21.0     115      7    -45    116    124  86.1 -25.9  34196  290.19 0854.48
2009/04/23 14:47:21.1      77    -71     41    106    113 132.7  22.0  34198  290.23 0854.48
2009/04/23 14:47:21.2     153   -143     90    210    228 133.2  24.6  34196  290.18 0854.48
2009/04/23 14:47:21.3     217   -145     19    262    263 123.7   4.2  34194  290.15 0854.48
2009/04/23 14:47:21.4       0   -103    126    104    163 180.0  56.4  34200  290.25 0854.48
2009/04/23 14:47:21.5     -10    -68    118     69    136 188.9  66.8  34212  290.45 0854.48
2009/04/23 14:47:21.6      96    -21    100     99    140 102.4  50.1  34210  290.41 0854.48
2009/04/23 14:47:21.7     105    -60     55    122    133 119.8  25.7  34200  290.25 0854.48
2009/04/23 14:47:21.8     -35    -64     -9     74     75 208.9  -7.3  34202  290.28 0854.48
2009/04/23 14:47:21.9     -25    -45    -16     52     55 209.9 -17.6  34204  290.33 0854.48
2009/04/23 14:47:22.0      -7    -36     -4     37     38 191.5  -7.3  34200  290.26 0854.48
2009/04/23 14:47:22.1      24    -97    -31    101    105 165.7 -22.3  34202  290.30 0854.48
2009/04/23 14:47:22.2      72   -121    -81    141    162 149.3 -37.1  34198  290.21 0854.48
2009/04/23 14:47:22.3      78   -104    -81    131    154 143.0 -39.9  34202  290.28 0854.48
2009/04/23 14:47:22.4      94   -161    -66    187    198 149.7 -24.6  34194  290.16 0854.48
2009/04/23 14:47:22.5      63   -239    -88    248    263 165.1 -24.4  34196  290.19 0854.48
2009/04/23 14:47:22.6       3   -140    -87    141    165 178.6 -39.4  34198  290.21 0854.48
2009/04/23 14:47:22.7      93    -78    -56    122    134 130.0 -31.5  34194  290.14 0854.48
2009/04/23 14:47:22.8     134    -79    -72    156    171 120.6 -31.0  34194  290.16 0854.48
2009/04/23 14:47:22.9     107   -157    -10    191    192 145.7  -3.2  34200  290.25 0854.48
2009/04/23 14:47:23.0      -1   -191     85    192    209 180.5  25.3  34204  290.33 0854.46
2009/04/23 14:47:23.1       0   -239     47    240    245 180.2  11.1  34206  290.34 0854.46
2009/04/23 14:47:23.2      90   -208     81    227    241 156.6  20.2  34208  290.39 0854.46
2009/04/23 14:47:23.3      85   -193    128    211    246 156.2  34.2  34214  290.48 0854.46
2009/04/23 14:47:23.4      76    -92    128    120    175 140.4  52.1  34212  290.47 0854.46
2009/04/23 14:47:23.5      82     26    129     87    155  72.3  63.2  34226  290.70 0854.46
2009/04/23 14:47:23.6     219    -81     98    234    253 110.4  23.8  34202  290.29 0854.46
2009/04/23 14:47:23.7     248   -198     -8    318    319 128.6  -1.6  34200  290.26 0854.46
2009/04/23 14:47:23.8     175   -153    145    233    274 131.3  35.0  34200  290.24 0854.46
2009/04/23 14:47:23.9     159   -111    147    195    244 124.9  40.9  34198  290.21 0854.46
2009/04/23 14:47:24.0     123   -106     86    163    184 130.9  30.3  34200  290.26 0854.46
2009/04/23 14:47:24.1     -40   -233     52    237    243 189.8  12.4  34202  290.27 0854.46
2009/04/23 14:47:24.2     -22   -200     38    202    206 186.3  10.8  34202  290.28 0854.46
2009/04/23 14:47:24.3     -17   -211     86    212    228 184.7  23.1  34204  290.31 0854.46
2009/04/23 14:47:24.4      10   -197     94    198    219 177.1  27.2  34206  290.35 0854.46
2009/04/23 14:47:24.5      74   -416    215    423    474 169.9  29.2  34202  290.29 0854.46
2009/04/23 14:47:24.6      30   -288    172    290    337 174.0  33.5  34200  290.26 0854.46
2009/04/23 14:47:24.7      99   -357    131    371    394 164.4  19.6  34204  290.33 0854.46
2009/04/23 14:47:24.8      17   -336    103    337    353 177.1  17.1  34204  290.33 0854.46
2009/04/23 14:47:24.9     148   -135    221    201    298 132.4  53.0  34206  290.36 0854.46
2009/04/23 14:47:25.0     283   -282    164    400    432 134.9  23.6  34204  290.33 0854.46
2009/04/23 14:47:25.1     246   -312    211    398    450 141.7  30.2  34198  290.22 0854.46
2009/04/23 14:47:25.2     347   -205    233    404    466 120.6  32.6  34208  290.38 0854.46
2009/04/23 14:47:25.3     290   -125    128    316    340 113.3  23.2  34208  290.40 0854.46
2009/04/23 14:47:25.4     301   -110    158    321    357 110.2  28.1  34208  290.37 0854.46
2009/04/23 14:47:25.5     218    -49    132    224    260 102.8  33.4  34206  290.36 0854.46
2009/04/23 14:47:25.6     144    -21    119    146    188  98.4  43.7  34208  290.38 0854.46
2009/04/23 14:47:25.7     103   -129    136    166    214 141.5  43.7  34208  290.40 0854.46
2009/04/23 14:47:25.8      76   -137     76    157    174 151.0  27.4  34208  290.38 0854.46
2009/04/23 14:47:25.9     -12   -119     28    120    124 185.8  13.1  34206  290.36 0854.46
2009/04/23 14:47:26.0      -1    -56     15     57     60 181.8  15.3  34208  290.38 0854.46
2009/04/23 14:47:26.1      -6    -65      3     66     67 185.3   2.9  34210  290.43 0854.46
2009/04/23 14:47:26.2      25      1    -22     26     34  85.6 -50.2  34210  290.43 0854.46
2009/04/23 14:47:26.3      42    -28    -35     51     61 124.2 -43.0  34214  290.50 0854.46
2009/04/23 14:47:26.4      60     48    -70     77    104  51.4 -52.3  34218  290.55 0854.46
2009/04/23 14:47:26.5      75     21    -34     79     86  74.1 -29.0  34218  290.55 0854.46
2009/04/23 14:47:26.6      53     18    -10     57     58  70.9 -10.3  34216  290.52 0854.46
2009/04/23 14:47:26.7      36     32    -66     49     82  48.7 -63.8  34220  290.60 0854.46
2009/04/23 14:47:26.8      90    153    -56    178    187  30.5 -17.6  34214  290.50 0854.46
2009/04/23 14:47:26.9     167    166      3    236    237  45.1   0.8  34224  290.65 0854.46
2009/04/23 14:47:27.1     161    114     15    198    199  54.5   4.6  34230  290.75 0854.50
2009/04/23 14:47:27.1     140     94     58    169    179  56.0  19.2  34234  290.82 0854.50
2009/04/23 14:47:27.2     142    139    -13    199    200  45.6  -3.7  34242  290.98 0854.50
2009/04/23 14:47:27.3     146     93    -25    174    176  57.4  -8.2  34276  291.55 0854.50
2009/04/23 14:47:27.4      61    129     65    143    157  25.3  26.2  34296  291.89 0854.50
2009/04/23 14:47:27.5     -54      7    131     55    142 277.9  76.6  34278  291.57 0854.50
2009/04/23 14:47:27.6     -40     -3    104     41    111 264.8  77.6  34272  291.47 0854.50
2009/04/23 14:47:27.7     -28     49     75     57     94 330.1  59.0  34280  291.60 0854.50
2009/04/23 14:47:27.8      44    135     65    143    157  18.3  26.2  34280  291.60 0854.50
2009/04/23 14:47:27.9     104    111    124    153    196  43.2  43.5  34238  290.89 0854.50
2009/04/23 14:47:28.0     181     29    120    184    219  80.8  36.0  34224  290.67 0854.50
2009/04/23 14:47:28.1     173    -45    153    179    235 104.8  44.9  34222  290.62 0854.50
2009/04/23 14:47:28.3     170    -99    189    197    273 120.2  49.0  34222  290.63 0854.50
2009/04/23 14:47:28.3      89    -21    258     92    273 103.3  79.7  34220  290.58 0854.50
2009/04/23 14:47:28.4     326     38    217    329    394  83.2  36.5  34218  290.57 0854.50
2009/04/23 14:47:28.5     225    -45    210    230    311 101.4  47.3  34230  290.75 0854.50
2009/04/23 14:47:28.6     197    -97    210    220    304 116.4  48.7  34238  290.90 0854.50
2009/04/23 14:47:28.7     129    -48    122    138    184 110.4  46.2  34258  291.23 0854.50
2009/04/23 14:47:28.8     156    -32     62    160    171 101.9  22.3  34284  291.67 0854.50
2009/04/23 14:47:28.9     180    -66     -7    192    193 110.2  -2.2  34292  291.81 0854.50
2009/04/23 14:47:29.0     121   -243     74    272    283 153.5  15.3  34262  291.31 0854.51
2009/04/23 14:47:29.1     147   -312    182    346    390 154.7  30.1  34198  290.20 0854.51
2009/04/23 14:47:29.2     137   -304    232    334    406 155.7  38.3  34208  290.38 0854.51
2009/04/23 14:47:29.3     111   -344    235    362    431 162.1  36.0  34222  290.63 0854.51
2009/04/23 14:47:29.4     177   -341    237    385    452 152.6  34.5  34222  290.61 0854.51
2009/04/23 14:47:29.5     -20   -369    173    370    408 183.2  27.0  34220  290.59 0854.51
2009/04/23 14:47:29.6       0   -298     93    299    314 180.0  17.3  34208  290.39 0854.51
2009/04/23 14:47:29.7     103   -429     37    442    444 166.5   4.9  34212  290.46 0854.51
2009/04/23 14:47:29.8      96   -353    132    366    390 164.7  19.9  34224  290.67 0854.51
2009/04/23 14:47:29.9      13   -297     57    298    304 177.4  11.0  34220  290.59 0854.51
2009/04/23 14:47:30.0      67   -300      0    308    309 167.3   0.0  34224  290.65 0854.51
2009/04/23 14:47:30.1      82   -342     32    352    354 166.5   5.2  34220  290.60 0854.51
2009/04/23 14:47:30.3     110   -251     74    275    286 156.4  15.2  34216  290.51 0854.51
2009/04/23 14:47:30.4      64   -231    103    240    261 164.4  24.6  34220  290.58 0854.51
2009/04/23 14:47:30.4      37   -245     -9    248    249 171.3  -2.2  34208  290.37 0854.51
2009/04/23 14:47:30.6      98   -207    -98    230    250 154.6 -29.0  34220  290.58 0854.51
2009/04/23 14:47:30.6     146   -190    -93    240    257 142.4 -26.7  34226  290.70 0854.51
2009/04/23 14:47:30.8     109   -232    -83    257    271 154.7 -17.9  34230  290.75 0854.51
2009/04/23 14:47:30.9      53   -266    -77    272    283 168.7 -15.8  34230  290.76 0854.51
2009/04/23 14:47:31.0     124   -300   -115    325    346 157.4 -19.6  34234  290.83 0854.50
2009/04/23 14:47:31.1      75   -248    -54    260    266 163.1 -11.9  34228  290.73 0854.50
2009/04/23 14:47:31.2     111   -292   -111    313    333 159.1 -19.6  34220  290.58 0854.50
2009/04/23 14:47:31.3     195   -200    -10    280    281 135.7  -2.2  34216  290.51 0854.50
2009/04/23 14:47:31.4     182    -97     58    207    216 118.0  15.8  34210  290.41 0854.50
2009/04/23 14:47:31.5     245   -122    161    274    317 116.6  33.1  34220  290.59 0854.50
2009/04/23 14:47:31.6     211   -142    196    255    321 124.1  41.3  34198  290.22 0854.50
2009/04/23 14:47:31.7     215    -48     45    221    226 102.6  11.6  34202  290.30 0854.50
2009/04/23 14:47:31.8     206    -58     -4    215    216 105.9  -1.3  34200  290.26 0854.50
2009/04/23 14:47:31.9     221    -82     41    236    240 110.4   9.9  34200  290.24 0854.50
2009/04/23 14:47:32.0     154   -161     27    224    226 136.3   7.1  34202  290.28 0854.50
2009/04/23 14:47:32.1     174   -225    -90    285    300 142.2 -17.6  34212  290.44 0854.50
2009/04/23 14:47:32.2     217   -346   -105    409    423 147.9 -14.4  34212  290.44 0854.50
2009/04/23 14:47:32.3     143   -373   -111    400    416 159.0 -15.5  34210  290.41 0854.50
2009/04/23 14:47:32.4     306   -358   -121    471    487 139.5 -14.4  34202  290.29 0854.50
2009/04/23 14:47:32.5      56   -516    113    520    533 173.8  12.3  34196  290.19 0854.50
2009/04/23 14:47:32.6      89   -554    199    562    597 170.9  19.6  34180  289.90 0854.50
2009/04/23 14:47:32.7     110   -589    218    600    638 169.4  20.8  34182  289.96 0854.50
2009/04/23 14:47:32.8     144   -606    223    623    661 166.6  20.6  34178  289.87 0854.50
2009/04/23 14:47:32.9     149   -587    303    606    677 165.7  28.6  34198  290.21 0854.50
2009/04/23 14:47:33.0     -58   -376    149    381    409 188.9  22.5  34198  290.21 0854.50
2009/04/23 14:47:33.1     -27   -347    190    349    397 184.5  30.9  34192  290.13 0854.50
2009/04/23 14:47:33.2    -112   -465   -101    479    490 193.6 -12.0  34206  290.34 0854.50
2009/04/23 14:47:33.3      27   -421   -144    422    447 176.3 -18.9  34196  290.19 0854.50
2009/04/23 14:47:33.4     140   -361   -107    388    403 158.7 -15.5  34198  290.21 0854.50
2009/04/23 14:47:33.5     158   -393   -121    424    440 158.1 -20.7  34188  290.05 0854.50
2009/04/23 14:47:33.6     129   -217    -50    253    259 149.2 -11.3  34190  290.09 0854.50
2009/04/23 14:47:33.7     200   -127     25    237    239 122.4   6.1  34194  290.14 0854.50
2009/04/23 14:47:33.8     195   -285   -181    346    390 145.6 -34.4  34188  290.06 0854.50
2009/04/23 14:47:33.9     156   -300   -233    339    411 152.5 -42.3  34192  290.10 0854.50
2009/04/23 14:47:34.0     -79   -244    357    257    439 197.9  60.7  34196  290.18 0854.50
2009/04/23 14:47:34.1    -257   -366    288    448    532 215.1  35.6  34192  290.13 0854.50
2009/04/23 14:47:34.2    -142   -194    233    241    335 216.1  49.1  34142  289.25 0854.50
2009/04/23 14:47:34.3    -221   -172    132    281    310 232.2  27.1  34166  289.66 0854.50
2009/04/23 14:47:34.4     -28   -443   -151    444    470 183.7 -18.8  34168  289.70 0854.50
2009/04/23 14:47:34.5    -474   -865   -200    987   1007 208.7 -11.5  34118  288.85 0854.50
2009/04/23 14:47:34.6    -429   -630   -225    763    795 214.3 -21.2  34130  289.05 0854.50
2009/04/23 14:47:34.7    -261   -553   -177    612    637 205.3 -20.9  34138  289.20 0854.50
2009/04/23 14:47:34.8    -319   -450   -168    552    578 215.4 -17.0  34146  289.32 0854.50
2009/04/23 14:47:34.9    -227   -441    -76    497    503 207.3  -8.7  34148  289.37 0854.50
2009/04/23 14:47:35.0     -17   -492    -36    493    495 182.0  -4.2  34146  289.35 0854.52
2009/04/23 14:47:35.1     121   -513    -23    528    529 166.7  -2.5  34136  289.16 0854.52
2009/04/23 14:47:35.2     265   -750     20    796    797 160.5   1.5  34136  289.17 0854.52
2009/04/23 14:47:35.3     349   -732    137    812    824 154.5   9.6  34144  289.30 0854.52
2009/04/23 14:47:35.4     354   -692   -114    778    787 152.9  -8.4  34148  289.37 0854.52
2009/04/23 14:47:35.5     116   -422     16    438    439 164.6   2.1  34134  289.14 0854.52
2009/04/23 14:47:35.6    -240   -631    145    676    692 200.8  12.2  34134  289.14 0854.52
2009/04/23 14:47:35.7     -40   -513    169    515    543 184.5  18.2  34144  289.29 0854.52
2009/04/23 14:47:35.8    -268   -810    -65    854    857 198.3  -4.4  34132  289.10 0854.52
2009/04/23 14:47:35.9    -479  -1085    -51   1187   1188 203.8  -2.5  34134  289.13 0854.52
2009/04/23 14:47:36.0    -254   -969   -293   1002   1043 194.7 -21.0  34146  289.33 0854.52
2009/04/23 14:47:36.1    -293   -867   -301    916    965 198.7 -18.2  34146  289.32 0854.52
2009/04/23 14:47:36.2    -208   -828   -169    854    871 194.2 -11.2  34146  289.32 0854.52
2009/04/23 14:47:36.3    -137   -865   -228    876    906 189.0 -14.6  34146  289.35 0854.52
2009/04/23 14:47:36.4    -150   -872   -299    886    936 189.8 -18.7  34142  289.28 0854.52
2009/04/23 14:47:36.5    -138   -800   -247    813    850 189.8 -16.9  34138  289.19 0854.52
2009/04/23 14:47:36.6    -282   -867   -278    912    954 198.0 -17.0  34144  289.30 0854.52
2009/04/23 14:47:36.7      35   -771   -255    772    813 177.4 -18.3  34142  289.25 0854.52
2009/04/23 14:47:36.8     213   -708   -108    740    748 163.2  -8.4  34140  289.24 0854.52
2009/04/23 14:47:36.9     297   -891     69    940    943 161.5   4.2  34140  289.24 0854.52
2009/04/23 14:47:37.0     162  -1060     30   1073   1074 171.3   1.6  34130  289.05 0854.53
2009/04/23 14:47:37.1      33   -957   -100    958    964 178.0  -6.0  34148  289.36 0854.53
2009/04/23 14:47:37.2       1   -872    -64    873    876 179.9  -4.2  34154  289.47 0854.53
2009/04/23 14:47:37.3      54   -796     84    798    803 176.1   6.1  34116  288.83 0854.53
2009/04/23 14:47:37.4      -6   -790   -141    791    804 180.5 -10.1  34150  289.41 0854.53
2009/04/23 14:47:37.5      72   -853    -93    857    863 175.1  -6.2  34148  289.36 0854.53
2009/04/23 14:47:37.6     -15   -775    -52    776    778 181.1  -3.9  34146  289.35 0854.53
2009/04/23 14:47:37.7      64   -852   -129    855    865 175.7  -8.6  34156  289.51 0854.53
2009/04/23 14:47:37.8     142   -832   -121    844    853 170.3  -8.2  34160  289.56 0854.53
2009/04/23 14:47:37.9     170   -870    -29    887    888 168.9  -1.9  34152  289.42 0854.53
2009/04/23 14:47:38.0     173  -1067    141   1082   1092 170.8   7.5  34154  289.47 0854.53
2009/04/23 14:47:38.1     281  -1105    213   1141   1161 165.7  10.6  34152  289.45 0854.53
2009/04/23 14:47:38.2     223  -1219    112   1240   1246 169.6   5.2  34152  289.44 0854.53
2009/04/23 14:47:38.3     224  -1186     50   1208   1209 169.3   2.4  34146  289.35 0854.53
2009/04/23 14:47:38.4      98  -1102     43   1107   1108 174.9   2.2  34150  289.40 0854.53
2009/04/23 14:47:38.5      50  -1109   -140   1110   1119 177.4  -7.2  34160  289.56 0854.53
2009/04/23 14:47:38.6      86   -972    -59    977    979 174.9  -3.5  34156  289.52 0854.53
2009/04/23 14:47:38.7      37   -774     11    776    777 177.2   0.8  34156  289.51 0854.53
2009/04/23 14:47:38.8    -125   -913    102    922    928 187.8   6.4  34162  289.60 0854.53
2009/04/23 14:47:38.9    -100   -918    -18    924    925 186.3  -1.2  34156  289.51 0854.53
2009/04/23 14:47:39.0     -96   -935     -8    940    941 185.9  -0.5  34160  289.57 0854.53
2009/04/23 14:47:39.1    -108   -872     -4    879    880 187.1  -0.3  34162  289.60 0854.53
2009/04/23 14:47:39.2    -169   -805    -32    823    824 191.9  -2.2  34160  289.58 0854.53
2009/04/23 14:47:39.3    -124   -835    -60    845    848 188.5  -4.1  34160  289.56 0854.53
2009/04/23 14:47:39.4    -150   -853    -40    867    869 190.0  -2.7  34150  289.39 0854.53
2009/04/23 14:47:39.5    -175   -707    -35    729    730 193.9  -2.8  34154  289.47 0854.53
2009/04/23 14:47:39.6    -107   -678    -84    687    693 189.0  -7.0  34154  289.46 0854.53
2009/04/23 14:47:39.7     -61   -631    -49    635    638 185.6  -4.5  34152  289.42 0854.53
2009/04/23 14:47:39.8     -73   -638     -4    643    644 186.6  -0.4  34156  289.52 0854.53
2009/04/23 14:47:39.9     -59   -613     17    617    618 185.6   1.6  34156  289.52 0854.53
2009/04/23 14:47:40.0    -255   -437   -131    507    524 210.3 -14.5  34156  289.49 0854.53
2009/04/23 14:47:40.1    -304   -256   -135    398    420 229.8 -23.6  34158  289.55 0854.53
2009/04/23 14:47:40.2    -174   -441   -150    475    499 201.5 -17.5  34154  289.47 0854.53
2009/04/23 14:47:40.3       8   -479   -150    480    502 179.0 -22.4  34154  289.47 0854.53
2009/04/23 14:47:40.4     120   -399   -124    417    435 163.2 -21.5  34156  289.51 0854.53
2009/04/23 14:47:40.5     107   -360   -126    376    397 163.4 -18.6  34160  289.57 0854.53
2009/04/23 14:47:40.6      85   -335   -143    346    374 165.7 -28.1  34152  289.45 0854.53
2009/04/23 14:47:40.7      76   -128   -210    150    258 149.3 -65.2  34162  289.60 0854.53
2009/04/23 14:47:40.8      31    -48   -194     58    202 147.5 -87.2  34170  289.75 0854.53
2009/04/23 14:47:40.9      89     26   -134     93    163  73.6 -66.5  34188  290.04 0854.53
2009/04/23 14:47:41.0      59    286   -211    293    361  11.8 -43.7  34164  289.65 0854.49
2009/04/23 14:47:41.1      17    442   -167    443    473   2.3 -26.0  34162  289.61 0854.49
2009/04/23 14:47:41.2     173    561   -176    588    614  17.2 -16.7  34152  289.42 0854.49
2009/04/23 14:47:41.3     185    423   -158    462    489  23.6 -18.9  34166  289.67 0854.49
2009/04/23 14:47:41.4     181    299    -55    350    355  31.3  -9.0  34174  289.81 0854.49
2009/04/23 14:47:41.5     185    133    111    229    254  54.3  27.8  34160  289.56 0854.49
2009/04/23 14:47:41.6     257     -3    165    258    306  90.8  35.6  34164  289.64 0854.49
2009/04/23 14:47:41.7     292   -167     59    337    343 119.8  10.0  34164  289.65 0854.49
2009/04/23 14:47:41.8     284   -118    169    308    351 112.7  31.3  34148  289.37 0854.49
2009/04/23 14:47:41.9     300    -41     -2    303    304  97.9  -0.5  34214  290.48 0854.49
2009/04/23 14:47:42.0     208   -133    264    248    362 122.6  52.1  34208  290.37 0854.49
2009/04/23 14:47:42.1     231   -359    402    428    587 147.2  48.0  34184  289.97 0854.49
2009/04/23 14:47:42.2     225   -498    461    547    715 155.7  44.4  34178  289.88 0854.49
2009/04/23 14:47:42.3     315   -745    559    809    983 157.1  38.0  34178  289.88 0854.49
2009/04/23 14:47:42.4     -27   -609    471    610    770 182.6  41.6  34162  289.62 0854.49
2009/04/23 14:47:42.5      94      4    415     95    425  87.0  87.5  34202  290.27 0854.49
2009/04/23 14:47:42.6     143     38    292    149    327  74.9  71.1  34210  290.42 0854.49
2009/04/23 14:47:42.7     -77     -5    105     78    130 265.6  60.0  34196  290.18 0854.49
2009/04/23 14:47:42.8     -94   -113     32    148    152 219.6  12.2  34174  289.82 0854.49
2009/04/23 14:47:42.9     -36   -336   -101    339    353 186.3 -21.5  34174  289.82 0854.49
2009/04/23 14:47:43.0      90   -102   -156    137    207 138.5 -58.7  34182  289.94 0854.43
2009/04/23 14:47:43.1       8    -53    -73     54     90 171.1 -64.4  34184  289.99 0854.43
2009/04/23 14:47:43.2      21     -7    -32     23     39 110.0 -64.9  34180  289.91 0854.43
2009/04/23 14:47:43.3     -33    -33     75     48     89 225.1  64.7  34186  290.01 0854.43
2009/04/23 14:47:43.4     -64   -147    139    161    212 203.6  45.6  34186  290.01 0854.43
2009/04/23 14:47:43.5    -186   -109     98    216    237 239.6  26.2  34208  290.38 0854.43
2009/04/23 14:47:43.6    -269   -177     15    323    324 236.7   2.8  34214  290.48 0854.43
2009/04/23 14:47:43.7    -143   -138    -82    199    215 226.0 -27.8  34208  290.38 0854.43
2009/04/23 14:47:43.8    -165   -377    -36    412    414 203.6  -5.1  34190  290.09 0854.43
2009/04/23 14:47:43.9    -128   -331    142    356    383 201.2  23.0  34192  290.13 0854.43
2009/04/23 14:47:44.0     -93   -160    178    186    257 210.3  48.7  34192  290.12 0854.47
2009/04/23 14:47:44.1     -38    119     92    126    156 342.2  39.7  34216  290.52 0854.47
2009/04/23 14:47:44.2      42    117     28    125    129  20.0  12.6  34214  290.48 0854.47
2009/04/23 14:47:44.3      -1    109    177    110    208 359.1  65.1  34218  290.55 0854.47
2009/04/23 14:47:44.4      15    108    172    110    204   8.1  64.6  34220  290.58 0854.47
2009/04/23 14:47:44.5    -104     28     48    108    118 285.1  25.2  34220  290.60 0854.47
2009/04/23 14:47:44.6     -28    -73     12     79     81 201.4   9.0  34214  290.50 0854.47
2009/04/23 14:47:44.7     -33   -139      7    143    144 193.4   2.9  34200  290.26 0854.47
2009/04/23 14:47:44.8      14    -96      5     98     99 171.5   2.9  34198  290.23 0854.47
2009/04/23 14:47:44.9     169   -127    -10    212    213 126.9  -2.8  34200  290.26 0854.47
2009/04/23 14:47:45.0     257    -23    -42    259    263  95.2  -9.3  34198  290.22 0854.47
2009/04/23 14:47:45.1     195    -27     21    197    199  98.0   6.1  34196  290.18 0854.47
2009/04/23 14:47:45.2      65   -132    108    148    183 153.7  39.7  34206  290.36 0854.47
2009/04/23 14:47:45.3      49    -82     85     96    128 149.3  45.9  34216  290.52 0854.47
2009/04/23 14:47:45.4     179   -113     65    212    222 122.4  17.1  34202  290.30 0854.47
2009/04/23 14:47:45.5      59   -123    133    137    190 154.1  49.2  34196  290.19 0854.47
2009/04/23 14:47:45.6     120   -252    126    280    307 154.5  26.2  34190  290.09 0854.47
2009/04/23 14:47:45.7      26   -314    182    316    364 175.1  32.7  34192  290.13 0854.47
2009/04/23 14:47:45.8      19   -348    172    349    389 176.8  28.0  34194  290.16 0854.47
2009/04/23 14:47:45.9     -85   -326    174    337    379 194.7  29.3  34208  290.37 0854.47
2009/04/23 14:47:46.0      63   -208    187    218    287 163.1  44.9  34218  290.54 0854.42
2009/04/23 14:47:46.1     -16   -114    148    116    188 188.0  57.9  34220  290.58 0854.42
2009/04/23 14:47:46.2      93    -43    120    103    158 115.2  54.8  34220  290.58 0854.42
2009/04/23 14:47:46.3      10    -16    201     19    201 147.5  90.0  34214  290.48 0854.42
2009/04/23 14:47:46.4      17   -290    133    291    319 176.5  26.3  34196  290.17 0854.42
2009/04/23 14:47:46.5      46   -334     92    338    351 172.1  15.3  34194  290.16 0854.42
2009/04/23 14:47:46.6     147   -136    175    201    266 132.9  45.6  34196  290.19 0854.42
2009/04/23 14:47:46.7     124   -208    207    243    319 149.2  44.8  34198  290.22 0854.42
2009/04/23 14:47:46.8     167   -129    156    212    263 127.8  39.7  34200  290.24 0854.42
2009/04/23 14:47:46.9     213     22    283    215    355  84.1  59.1  34186  290.02 0854.42
2009/04/23 14:47:47.0     -84   -162    269    183    325 207.6  62.6  34196  290.17 0854.42
2009/04/23 14:47:47.1     -83   -245    235    259    349 198.7  47.0  34194  290.14 0854.42
2009/04/23 14:47:47.2     -35   -373    309    375    485 185.4  43.7  34184  289.99 0854.42
2009/04/23 14:47:47.3     147   -410    156    436    463 160.2  20.6  34188  290.04 0854.42
2009/04/23 14:47:47.4     146   -559    232    578    622 165.3  23.1  34184  289.98 0854.42
2009/04/23 14:47:47.5     118   -557    349    570    668 168.0  34.3  34188  290.04 0854.42
2009/04/23 14:47:47.6     162   -517    441    542    698 162.6  43.4  34190  290.09 0854.42
2009/04/23 14:47:47.7     404    -80    343    412    536 101.2  43.8  34196  290.18 0854.42
2009/04/23 14:47:47.8     309    -73    341    318    466 103.3  52.2  34216  290.53 0854.42
2009/04/23 14:47:47.9     224   -155    147    273    310 124.6  31.0  34202  290.29 0854.42
2009/04/23 14:47:48.0     231    -76    160    244    291 108.2  36.3  34198  290.20 0854.44
2009/04/23 14:47:48.1     228   -176     41    289    293 127.8   8.2  34194  290.15 0854.44
2009/04/23 14:47:48.2      -8   -177    103    178    205 182.7  32.9  34186  290.01 0854.44
2009/04/23 14:47:48.3     -16   -371    181    372    413 182.6  27.8  34190  290.08 0854.44
2009/04/23 14:47:48.4     -40   -280    160    283    325 188.2  32.0  34190  290.07 0854.44
2009/04/23 14:47:48.5     -77   -312    114    322    341 194.0  20.1  34192  290.10 0854.44
2009/04/23 14:47:48.6       0   -281     99    282    299 180.1  19.4  34194  290.15 0854.44
2009/04/23 14:47:48.7     -13   -175     67    176    188 184.5  21.7  34192  290.11 0854.44
2009/04/23 14:47:48.8    -122   -151    -30    195    198 219.0  -8.8  34192  290.13 0854.44
2009/04/23 14:47:48.9    -142   -111     63    181    192 231.8  19.2  34192  290.13 0854.44
2009/04/23 14:47:49.0    -155     76     65    173    184 296.2  21.3  34194  290.16 0854.44
2009/04/23 14:47:49.1    -143    169     17    222    223 319.7   4.6  34196  290.18 0854.44
2009/04/23 14:47:49.2     -78    201    -60    216    225 338.6 -15.5  34194  290.14 0854.44
2009/04/23 14:47:49.3      75     93     74    120    140  38.7  35.0  34206  290.35 0854.44
2009/04/23 14:47:49.4      48    -31     66     58     87 122.4  53.7  34214  290.48 0854.44
2009/04/23 14:47:49.5      15    -17      5     24     25 138.6  13.2  34204  290.31 0854.44
2009/04/23 14:47:49.6      -8     -3    -42      9     42 244.7 -90.0  34200  290.26 0854.44
2009/04/23 14:47:49.7      12    -62    -62     64     89 168.4 -54.4  34202  290.28 0854.44
2009/04/23 14:47:49.8      15    -47      2     50     51 161.7   2.8  34200  290.26 0854.44
2009/04/23 14:47:49.9      87      3     24     88     92  87.4  15.3  34202  290.28 0854.44
2009/04/23 14:47:50.0     104     14    131    106    168  82.0  56.9  34204  290.31 0854.37
2009/04/23 14:47:50.1     -61    -26     57     67     87 246.5  44.8  34216  290.52 0854.37
2009/04/23 14:47:50.2      40    -82     60     92    109 153.7  35.6  34212  290.47 0854.37
2009/04/23 14:47:50.3     177     33    102    181    207  79.2  31.9  34214  290.48 0854.37
2009/04/23 14:47:50.4     158     32     98    162    189  78.6  34.2  34218  290.57 0854.37
2009/04/23 14:47:50.5      99     49     45    111    119  63.4  23.1  34208  290.40 0854.37
2009/04/23 14:47:50.6     160     45     14    167    168  74.1   4.9  34212  290.45 0854.37
2009/04/23 14:47:50.7      77     35    -25     85     89  65.2 -17.0  34218  290.57 0854.37
2009/04/23 14:47:50.8      20      1     -7     21     23  85.6 -19.7  34222  290.64 0854.37
2009/04/23 14:47:50.9      83     13    -49     85     98  80.8 -37.3  34210  290.41 0854.37
2009/04/23 14:47:51.0     -64    -12     45     66     79 259.4  37.6  34210  290.43 0854.37
2009/04/23 14:47:51.1     -70   -190    -29    203    206 200.3  -8.2  34194  290.16 0854.37
2009/04/23 14:47:51.2      27   -350    -42    352    355 175.5  -6.9  34194  290.16 0854.37
2009/04/23 14:47:51.3     167    -56    166    177    242 108.6  48.0  34198  290.23 0854.37
2009/04/23 14:47:51.4     194    -80    112    210    238 112.4  30.3  34198  290.23 0854.37
2009/04/23 14:47:51.5     208     -2    118    209    240  90.8  31.9  34206  290.35 0854.37
2009/04/23 14:47:51.6     197      0    141    198    243  90.0  38.8  34204  290.33 0854.37
2009/04/23 14:47:51.7     144     51     79    153    172  70.5  29.3  34220  290.60 0854.37
2009/04/23 14:47:51.8     115     30     67    119    136  75.4  31.9  34208  290.38 0854.37
2009/04/23 14:47:51.9      47     80     90     93    129  30.7  49.4  34220  290.60 0854.37
2009/04/23 14:47:52.0     133     18    162    135    210  82.0  56.3  34216  290.53 0854.38
2009/04/23 14:47:52.1     102    151     24    183    185  34.1   7.5  34212  290.45 0854.38
2009/04/23 14:47:52.2     -17     42    101     46    110 337.3  73.5  34218  290.57 0854.38
2009/04/23 14:47:52.3      18    -43    156     47    162 157.3  82.8  34218  290.55 0854.38
2009/04/23 14:47:52.4      39      6    135     40    140  80.3  83.3  34224  290.65 0854.38
2009/04/23 14:47:52.5      17    -17    138     25    140 135.0  90.0  34228  290.72 0854.38
2009/04/23 14:47:52.6      17     53     47     56     73  18.7  43.8  34218  290.57 0854.38
2009/04/23 14:47:52.7       8    -14     36     17     39 151.0  74.0  34218  290.57 0854.38
2009/04/23 14:47:52.8      25      9     89     27     93  70.0  82.3  34232  290.81 0854.38
2009/04/23 14:47:52.9      34     15     48     38     61  66.5  56.4  34248  291.06 0854.38
2009/04/23 14:47:53.0      53    -80     20     97    100 146.2  11.6  34230  290.77 0854.38
2009/04/23 14:47:53.1      72   -340     92    348    361 168.0  14.9  34188  290.03 0854.38
2009/04/23 14:47:53.2      -5   -370    180    371    412 180.9  27.8  34186  290.01 0854.38
2009/04/23 14:47:53.3     -26   -360     48    361    365 184.2   7.6  34184  289.99 0854.38
2009/04/23 14:47:53.4     -63   -311    120    318    339 191.5  21.6  34186  290.01 0854.38
2009/04/23 14:47:53.5     -12   -410    218    411    465 181.8  30.2  34194  290.16 0854.38
2009/04/23 14:47:53.6     -17   -470    278    471    546 182.1  33.4  34204  290.33 0854.38
2009/04/23 14:47:53.7      75   -503    339    509    611 171.5  36.9  34218  290.54 0854.38
2009/04/23 14:47:53.8     176   -421    252    457    521 157.3  31.4  34224  290.66 0854.38
2009/04/23 14:47:53.9     135   -539     53    556    559 165.9   5.5  34188  290.06 0854.38
2009/04/23 14:47:54.0      36   -640    227    642    682 176.8  19.5  34184  289.97 0854.40
2009/04/23 14:47:54.1      82   -480    228    487    537 170.3  27.1  34188  290.04 0854.40
2009/04/23 14:47:54.2      -2   -506    242    507    561 180.3  27.3  34186  290.01 0854.40
2009/04/23 14:47:54.3      71   -509    246    515    570 172.0  27.3  34180  289.92 0854.40
2009/04/23 14:47:54.4     224   -510    179    558    587 156.3  17.8  34182  289.93 0854.40
2009/04/23 14:47:54.5     348   -372    238    510    562 136.9  26.9  34188  290.04 0854.40
2009/04/23 14:47:54.6      18   -577    214    578    616 178.2  21.3  34180  289.91 0854.40
2009/04/23 14:47:54.7      60   -443    153    448    474 172.2  18.9  34178  289.86 0854.40
2009/04/23 14:47:54.8     156   -429     72    457    463 160.0   9.0  34192  290.12 0854.40
2009/04/23 14:47:54.9     158   -365    164    398    430 156.6  23.8  34182  289.94 0854.40
2009/04/23 14:47:55.0      86   -259    173    274    324 161.5  35.3  34186  290.02 0854.40
2009/04/23 14:47:55.1      95   -172     82    197    213 151.0  23.6  34182  289.96 0854.40
2009/04/23 14:47:55.2      20    -82    119     85    146 165.7  60.6  34188  290.06 0854.40
2009/04/23 14:47:55.3     -14   -187     73    188    201 184.5  22.3  34182  289.94 0854.40
2009/04/23 14:47:55.4    -142   -103     63    176    186 234.0  20.4  34182  289.94 0854.40
2009/04/23 14:47:55.5    -313   -474     59    569    573 213.5   6.0  34180  289.91 0854.40
2009/04/23 14:47:55.6     134   -217    205    256    327 148.4  42.9  34190  290.07 0854.40
2009/04/23 14:47:55.7      44   -216    203    221    300 168.5  47.7  34184  289.97 0854.40
2009/04/23 14:47:55.8      26   -169     91    172    194 171.1  30.3  34188  290.04 0854.40
2009/04/23 14:47:55.9     362   -288   -119    463    479 128.5 -14.5  34176  289.84 0854.39
2009/04/23 14:47:56.0     373    -87     14    384    385 103.2   2.1  34182  289.93 0854.39
2009/04/23 14:47:56.1     276    208    235    346    418  53.0  37.4  34178  289.89 0854.39
2009/04/23 14:47:56.2      18    287    280    288    401   3.6  49.1  34196  290.18 0854.39
2009/04/23 14:47:56.3       0    323    281    324    428   0.0  45.4  34198  290.21 0854.39
2009/04/23 14:47:56.4     -80    256    318    269    416 342.6  55.6  34204  290.32 0854.39
2009/04/23 14:47:56.5    -295    333    257    445    513 318.5  32.7  34198  290.20 0854.39
2009/04/23 14:47:56.6    -459    189     55    497    501 292.4   6.4  34208  290.40 0854.39
2009/04/23 14:47:56.7    -383   -348    149    518    540 227.7  16.0  34216  290.52 0854.39
2009/04/23 14:47:56.8    -255   -210     85    331    342 230.6  14.4  34210  290.42 0854.39
2009/04/23 14:47:56.9     -36   -156     85    161    182 193.3  30.1  34232  290.81 0854.39
2009/04/23 14:47:57.0     -34   -102    139    108    176 198.7  58.2  34242  290.96 0854.39
2009/04/23 14:47:57.1     -56     71     10     91     92 321.7   6.5  34250  291.09 0854.39
2009/04/23 14:47:57.2      79   -387    175    396    432 168.4  25.2  34202  290.28 0854.39
2009/04/23 14:47:57.4     -33   -442    362    444    572 184.4  43.5  34218  290.57 0854.39
2009/04/23 14:47:57.5     106   -501    260    513    575 168.0  29.1  34212  290.46 0854.39
2009/04/23 14:47:57.6      41   -478    170    480    510 175.0  19.5  34202  290.27 0854.39
2009/04/23 14:47:57.7    -117   -472    117    487    501 194.0  13.5  34192  290.10 0854.39
2009/04/23 14:47:57.8    -249   -427    -10    495    496 210.3  -1.3  34202  290.27 0854.39
2009/04/23 14:47:57.9    -491   -399    170    634    657 230.9  15.0  34200  290.26 0854.39
2009/04/23 14:47:58.0       0   -491    186    492    525 180.1  21.7  34196  290.17 0854.27
2009/04/23 14:47:58.1    -118   -694    109    704    713 189.7   8.8  34206  290.34 0854.27
2009/04/23 14:47:58.2    -519   -686    -99    861    867 217.1  -6.6  34208  290.38 0854.27
2009/04/23 14:47:58.3    -655   -285   -230    715    751 246.5 -22.9  34220  290.60 0854.27
2009/04/23 14:47:58.4    -214    -48     31    220    223 257.2   8.0  34194  290.16 0854.27
2009/04/23 14:47:58.5    -220     36    -70    224    234 279.5 -22.5  34200  290.25 0854.27
2009/04/23 14:47:58.6      38   -497    194    499    535 175.5  22.4  34206  290.36 0854.27
2009/04/23 14:47:58.7      95   -610    336    618    703 171.1  30.9  34196  290.19 0854.27
2009/04/23 14:47:58.8     188   -555    141    587    604 161.3  13.5  34186  290.02 0854.27
2009/04/23 14:47:58.9     283   -344    249    446    510 140.6  31.5  34180  289.91 0854.27
2009/04/23 14:47:59.0     145   -524    330    544    636 164.5  34.2  34198  290.20 0854.27
2009/04/23 14:47:59.1     175   -493    249    524    580 160.5  27.3  34188  290.06 0854.27
2009/04/23 14:47:59.2     254   -673    403    720    825 159.3  31.7  34184  289.98 0854.27
2009/04/23 14:47:59.3     406   -586    334    713    787 145.3  26.9  34178  289.87 0854.27
2009/04/23 14:47:59.4     367   -572    408    680    793 147.3  33.7  34172  289.79 0854.27
2009/04/23 14:47:59.5     223   -809    436    840    946 164.6  29.6  34162  289.61 0854.27
2009/04/23 14:47:59.6     357   -569    354    672    759 147.9  30.1  34180  289.91 0854.27
2009/04/23 14:47:59.7     196   -799    421    823    924 166.2  29.2  34166  289.66 0854.27
2009/04/23 14:47:59.8      70   -695    365    699    788 174.2  29.9  34180  289.90 0854.27
2009/04/23 14:47:59.9     199   -764    509    790    939 165.4  35.9  34172  289.79 0854.27
2009/04/23 14:48:00.0     312   -308     68    439    445 134.6   8.8  34184  289.97 0854.30
2009/04/23 14:48:00.1     130   -315    -12    341    342 157.6  -2.1  34182  289.96 0854.30
2009/04/23 14:48:00.2      39   -251    -68    255    264 171.1 -15.0  34160  289.58 0854.30
2009/04/23 14:48:00.3     -47   -311    223    315    385 188.7  38.8  34180  289.91 0854.30
2009/04/23 14:48:00.4    -103   -594    331    604    688 189.9  31.3  34182  289.93 0854.30
2009/04/23 14:48:00.5     -17   -337    427    338    544 182.9  57.8  34192  290.12 0854.30
2009/04/23 14:48:00.6     169   -241    250    295    386 145.0  44.5  34188  290.04 0854.30
2009/04/23 14:48:00.7      44   -420    222    423    477 173.9  29.9  34180  289.92 0854.30
2009/04/23 14:48:00.8      30   -633    282    634    693 177.2  25.6  34178  289.88 0854.30
2009/04/23 14:48:00.9     -26   -429    272    430    508 183.5  35.5  34184  289.98 0854.30
2009/04/23 14:48:01.0     108   -504    365    516    632 167.9  38.7  34182  289.93 0854.30
2009/04/23 14:48:01.1     106   -466    348    479    592 167.1  39.5  34186  290.01 0854.30
2009/04/23 14:48:01.2     193   -580    440    612    753 161.5  39.3  34192  290.13 0854.30
2009/04/23 14:48:01.3     189   -382    372    427    566 153.7  45.5  34202  290.30 0854.30
2009/04/23 14:48:01.4      83   -699    370    704    795 173.2  30.0  34190  290.09 0854.30
2009/04/23 14:48:01.5      36   -882    258    883    920 177.7  16.3  34196  290.19 0854.30
2009/04/23 14:48:01.6     -15   -646    212    647    681 181.4  18.2  34198  290.21 0854.30
2009/04/23 14:48:01.7     345   -507    130    614    628 145.7  12.0  34190  290.09 0854.30
2009/04/23 14:48:01.8     416   -542    201    684    713 142.5  16.4  34188  290.05 0854.30
2009/04/23 14:48:01.9     480   -685    251    837    874 145.0  16.7  34180  289.92 0854.30
2009/04/23 14:48:02.0     499   -317    -57    592    595 122.5  -5.6  34194  290.14 0854.33
2009/04/23 14:48:02.1     275   -462     46    538    541 149.3   5.0  34190  290.09 0854.33
2009/04/23 14:48:02.2     259   -543    290    602    668 154.5  27.7  34184  289.98 0854.33
2009/04/23 14:48:02.3     295   -487    212    570    608 148.8  21.5  34194  290.15 0854.33
2009/04/23 14:48:02.4     139   -532    324    550    638 165.3  33.3  34194  290.14 0854.33
2009/04/23 14:48:02.5      93   -279     51    295    300 161.5   9.9  34184  289.97 0854.33
2009/04/23 14:48:02.6     275   -491   -157    563    584 150.7 -20.2  34188  290.05 0854.33
2009/04/23 14:48:02.7     142   -394   -115    420    436 160.1 -15.4  34192  290.11 0854.33
2009/04/23 14:48:02.8     274   -604    -38    664    666 155.6  -3.3  34202  290.27 0854.33
2009/04/23 14:48:02.9     294   -622     56    688    691 154.7   4.7  34184  289.99 0854.33
2009/04/23 14:48:03.0     268   -563    104    624    633 154.5   9.5  34194  290.16 0854.33
2009/04/23 14:48:03.1     147   -445    271    469    541 161.7  32.8  34190  290.08 0854.33
2009/04/23 14:48:03.2     -94   -228    -88    247    263 202.5 -19.7  34194  290.14 0854.33
2009/04/23 14:48:03.3     426   -492    -28    651    652 139.1  -2.5  34194  290.16 0854.33
2009/04/23 14:48:03.4     395   -597    -74    716    720 146.5  -5.9  34202  290.28 0854.33
2009/04/23 14:48:03.5     404   -665   -105    779    786 148.7  -7.7  34202  290.30 0854.33
2009/04/23 14:48:03.6     365   -590    -81    694    699 148.3  -6.7  34206  290.35 0854.33
2009/04/23 14:48:03.7     426   -623    -67    755    759 145.6  -5.1  34212  290.46 0854.33
2009/04/23 14:48:03.8     269   -565   -132    627    641 154.5 -11.9  34208  290.40 0854.33
2009/04/23 14:48:03.9     352   -611    -14    706    707 150.1  -1.2  34218  290.54 0854.33
2009/04/23 14:48:04.0     401   -628     37    746    747 147.4   2.9  34208  290.40 0854.33
2009/04/23 14:48:04.1     431   -704    139    826    838 148.5   9.6  34220  290.60 0854.33
2009/04/23 14:48:04.2     316   -570    250    652    698 151.0  22.2  34204  290.31 0854.33
2009/04/23 14:48:04.3     454   -626    122    774    784 144.1   9.0  34208  290.39 0854.33
2009/04/23 14:48:04.4     375   -630    191    734    759 149.2  14.6  34216  290.51 0854.33
2009/04/23 14:48:04.5     322   -451    289    555    625 144.5  29.8  34212  290.46 0854.33
2009/04/23 14:48:04.6     239   -699    206    739    768 161.1  15.6  34210  290.43 0854.33
2009/04/23 14:48:04.7     312   -690     94    758    764 155.7   7.1  34212  290.45 0854.33
2009/04/23 14:48:04.8     293   -790    150    843    857 159.6  10.1  34208  290.38 0854.33
2009/04/23 14:48:04.9     382   -764    135    855    866 153.4   9.0  34202  290.29 0854.33
2009/04/23 14:48:05.0     274   -763    176    812    832 160.2  12.3  34198  290.21 0854.33
2009/04/23 14:48:05.1     412   -756    185    861    881 151.4  12.2  34198  290.22 0854.33
2009/04/23 14:48:05.2     453   -821    256    938    973 151.1  15.3  34208  290.38 0854.33
2009/04/23 14:48:05.3     383   -953    220   1028   1052 158.1  12.1  34214  290.50 0854.33
2009/04/23 14:48:05.4     327   -967    123   1022   1030 161.3   6.9  34208  290.38 0854.33
2009/04/23 14:48:05.5     141   -698    161    713    732 168.6  12.8  34224  290.66 0854.33
2009/04/23 14:48:05.6    -112   -631    -53    641    644 190.1  -4.8  34224  290.65 0854.33
2009/04/23 14:48:05.7     -84  -1052    137   1056   1065 184.6   7.4  34196  290.17 0854.33
2009/04/23 14:48:05.8     176   -976    153    992   1004 169.8   8.8  34202  290.27 0854.33
2009/04/23 14:48:05.9     368   -841    138    919    930 156.4   8.6  34194  290.16 0854.33
2009/04/23 14:48:06.0     394   -847     96    935    940 155.1   5.9  34188  290.05 0854.35
2009/04/23 14:48:06.1     455   -654      6    797    798 145.2   0.5  34184  289.98 0854.35
2009/04/23 14:48:06.2     270   -517   -162    584    606 152.4 -20.1  34188  290.03 0854.35
2009/04/23 14:48:06.3     119   -312      9    335    336 159.1   1.6  34198  290.20 0854.35
2009/04/23 14:48:06.4    -216    -94   -140    236    274 246.3 -37.8  34204  290.32 0854.35
2009/04/23 14:48:06.5      24   -307   -144    309    340 175.5 -31.3  34210  290.43 0854.35
2009/04/23 14:48:06.6     128   -457   -332    475    579 164.3 -42.9  34204  290.31 0854.35
2009/04/23 14:48:06.7     205   -364   -173    419    453 150.6 -28.1  34202  290.29 0854.35
2009/04/23 14:48:06.8     216   -401   -201    456    498 151.7 -29.7  34200  290.25 0854.35
2009/04/23 14:48:06.9      39   -455   -216    457    505 175.0 -31.5  34208  290.37 0854.35
2009/04/23 14:48:07.0     267   -369    -83    456    464 144.0 -10.4  34198  290.21 0854.38
2009/04/23 14:48:07.1     232   -329   -109    403    418 144.8 -15.2  34202  290.28 0854.38
2009/04/23 14:48:07.2     337   -271   -142    433    456 128.8 -18.2  34204  290.33 0854.38
2009/04/23 14:48:07.3     298   -215    -49    368    372 125.9  -7.7  34190  290.08 0854.38
2009/04/23 14:48:07.4     414   -309     53    517    520 126.8   5.9  34186  290.02 0854.38
2009/04/23 14:48:07.5     291   -388     19    485    486 143.1   2.3  34188  290.05 0854.38
2009/04/23 14:48:07.6     323   -475     43    575    577 145.7   4.3  34196  290.19 0854.38
2009/04/23 14:48:07.7     277   -519    121    589    602 151.9  11.7  34202  290.27 0854.38
2009/04/23 14:48:07.8     186   -421    212    461    507 156.2  26.4  34216  290.52 0854.38
2009/04/23 14:48:07.9     215   -525    273    568    630 157.7  27.5  34196  290.19 0854.38
2009/04/23 14:48:08.0     238   -435    285    497    572 151.3  32.4  34190  290.09 0854.38
2009/04/23 14:48:08.1      36   -406    274    408    491 174.9  37.1  34198  290.22 0854.38
2009/04/23 14:48:08.2      57   -462    213    466    512 172.9  26.2  34196  290.17 0854.38
2009/04/23 14:48:08.3     116   -368    135    387    411 162.4  19.3  34198  290.20 0854.38
2009/04/23 14:48:08.4     -16   -462     67    463    468 182.0   8.3  34198  290.23 0854.38
2009/04/23 14:48:08.5     136   -539    307    556    635 165.8  31.4  34204  290.31 0854.38
2009/04/23 14:48:08.6     337   -419    379    538    658 141.2  38.6  34206  290.35 0854.38
2009/04/23 14:48:08.7     147   -338    341    369    502 156.4  47.6  34198  290.22 0854.38
2009/04/23 14:48:08.8     175   -187    208    257    330 137.0  43.3  34206  290.34 0854.38
2009/04/23 14:48:08.9      99   -105    184    145    234 136.8  57.9  34212  290.47 0854.38
2009/04/23 14:48:09.0     168    -40     50    173    181 103.5  16.3  34208  290.40 0854.42
2009/04/23 14:48:09.1      22   -109   -115    112    160 168.4 -55.1  34210  290.43 0854.42
2009/04/23 14:48:09.2      76   -206     82    220    234 159.5  21.3  34206  290.36 0854.42
2009/04/23 14:48:09.3      67   -287    261    295    393 166.7  46.1  34210  290.42 0854.42
2009/04/23 14:48:09.4      84     48    247     97    265  60.2  77.1  34218  290.55 0854.42
2009/04/23 14:48:09.5     142   -251    151    289    326 150.4  29.8  34214  290.48 0854.42
2009/04/23 14:48:09.6      -5   -167    131    168    213 181.8  41.7  34216  290.53 0854.42
2009/04/23 14:48:09.7       0      0    173      0    173   0.0 -90.0  34232  290.81 0854.42
2009/04/23 14:48:09.8     -22   -110    169    113    203 191.5  63.2  34218  290.55 0854.42
2009/04/23 14:48:09.9      -6   -432    232    433    491 180.9  30.5  34212  290.45 0854.42
2009/04/23 14:48:10.0      25   -436    227    437    492 176.6  29.6  34208  290.39 0854.42
2009/04/23 14:48:10.1       7   -502    189    503    537 179.2  21.5  34214  290.48 0854.42
2009/04/23 14:48:10.2    -132   -531    133    548    564 194.0  13.7  34216  290.52 0854.42
2009/04/23 14:48:10.3     -60   -647    107    651    660 185.3   9.3  34208  290.38 0854.42
2009/04/23 14:48:10.4     -10   -575     93    576    584 181.0   9.2  34210  290.41 0854.42
2009/04/23 14:48:10.5     -84   -439    115    448    463 190.9  14.5  34212  290.44 0854.42
2009/04/23 14:48:10.6     -24   -344     74    345    353 184.1  12.1  34212  290.47 0854.42
2009/04/23 14:48:10.7     -52   -277    109    282    302 190.7  22.1  34212  290.44 0854.42
2009/04/23 14:48:10.8      -6   -196    163    197    255 181.8  43.8  34220  290.58 0854.42
2009/04/23 14:48:10.9     120   -135    130    181    222 138.3  39.3  34214  290.50 0854.42
2009/04/23 14:48:11.0      72   -219    160    231    281 161.7  37.8  34214  290.48 0854.44
2009/04/23 14:48:11.1     -26   -135    101    138    171 191.1  39.9  34220  290.58 0854.44
2009/04/23 14:48:11.2    -214   -149    167    261    309 235.1  35.6  34218  290.56 0854.44
2009/04/23 14:48:11.3    -193   -154    120    247    274 231.4  27.8  34242  290.97 0854.44
2009/04/23 14:48:11.4    -110   -223    135    249    283 206.3  30.8  34230  290.76 0854.44
2009/04/23 14:48:11.5     -85   -279     48    292    297 196.9   9.5  34214  290.49 0854.44
2009/04/23 14:48:11.6     -96   -196     17    219    220 206.1   4.6  34224  290.67 0854.44
2009/04/23 14:48:11.7     -86   -198    -17    217    218 203.6  -4.6  34222  290.64 0854.44
2009/04/23 14:48:11.8    -228    -77     80    241    255 251.2  18.4  34228  290.73 0854.44
2009/04/23 14:48:11.9    -151     71     48    168    175 295.3  16.0  34236  290.86 0854.44
2009/04/23 14:48:12.0     -72     21     36     76     84 286.8  27.2  34232  290.81 0854.44
2009/04/23 14:48:12.1     -37     34      7     51     52 312.2   8.0  34232  290.81 0854.44
2009/04/23 14:48:12.2      48     36     88     60    106  53.1  62.6  34226  290.69 0854.44
2009/04/23 14:48:12.3      62    -10     67     63     91  99.7  51.6  34218  290.55 0854.44
2009/04/23 14:48:12.4     -66    -21    -18     70     73 251.8 -14.5  34226  290.69 0854.44
2009/04/23 14:48:12.5     -65   -273     54    281    287 193.4  11.0  34224  290.65 0854.44
2009/04/23 14:48:12.6     -45   -402    104    405    419 186.5  14.4  34208  290.39 0854.44
2009/04/23 14:48:12.7     -41   -382    207    385    437 186.3  30.6  34204  290.33 0854.44
2009/04/23 14:48:12.8      22   -303    223    304    377 175.8  39.8  34212  290.45 0854.44
2009/04/23 14:48:12.9     -44   -365    201    368    419 187.0  31.3  34202  290.28 0854.44
2009/04/23 14:48:13.0     -49   -477    208    480    523 186.0  25.1  34200  290.25 0854.46
2009/04/23 14:48:13.1     -52   -376    188    380    423 187.9  28.2  34204  290.31 0854.46
2009/04/23 14:48:13.2      62   -328    250    334    417 169.3  40.6  34214  290.50 0854.46
2009/04/23 14:48:13.3     150   -335    134    368    391 155.8  21.0  34192  290.13 0854.46
2009/04/23 14:48:13.4     203   -343     31    399    401 149.4   4.6  34198  290.21 0854.46
2009/04/23 14:48:13.5     114   -324    189    344    392 160.5  31.3  34188  290.04 0854.46
2009/04/23 14:48:13.6     119   -349    211    370    425 161.1  32.3  34192  290.11 0854.46
2009/04/23 14:48:13.7      53   -259    212    265    339 168.4  42.9  34198  290.20 0854.46
2009/04/23 14:48:13.8     112    -92    166    146    221 129.5  54.2  34194  290.16 0854.46
2009/04/23 14:48:13.9     293    -37    278    296    406  97.2  48.0  34196  290.18 0854.46
2009/04/23 14:48:14.0     201   -145    185    249    310 125.9  40.1  34198  290.20 0854.46
2009/04/23 14:48:14.1      39    -98    237    106    259 158.1  74.5  34204  290.31 0854.46
2009/04/23 14:48:14.2      30   -276    200    278    342 173.8  39.5  34196  290.19 0854.46
2009/04/23 14:48:14.3      92   -508    135    517    535 169.7  14.7  34190  290.09 0854.46
2009/04/23 14:48:14.4     218   -568    138    609    625 159.0  12.8  34184  289.99 0854.46
2009/04/23 14:48:14.5     428   -337    196    545    579 128.2  20.7  34200  290.26 0854.46
2009/04/23 14:48:14.6     245   -327   -140    409    432 143.1 -24.0  34188  290.04 0854.46
2009/04/23 14:48:14.7     162   -222   -138    276    308 143.9 -32.9  34190  290.07 0854.46
2009/04/23 14:48:14.8     267    -78    -44    279    283 106.4  -9.0  34186  290.00 0854.46
2009/04/23 14:48:14.9     172    -84    -37    192    196 116.2 -11.1  34192  290.13 0854.46
2009/04/23 14:48:15.0      87    -98    175    132    219 138.6  59.4  34194  290.16 0854.48
2009/04/23 14:48:15.1      54   -116    126    129    180 155.1  49.4  34200  290.26 0854.48
2009/04/23 14:48:15.2       9   -180    203    181    271 177.1  53.5  34198  290.20 0854.48
2009/04/23 14:48:15.3     105   -254    186    275    331 157.5  37.3  34198  290.22 0854.48
2009/04/23 14:48:15.4     154   -259    101    302    319 149.3  18.6  34190  290.07 0854.48
2009/04/23 14:48:15.5     276   -199     80    341    351 125.9  13.3  34194  290.15 0854.48
2009/04/23 14:48:15.6     216   -174     40    278    281 128.9   8.2  34192  290.10 0854.48
2009/04/23 14:48:15.7     172   -151    -28    229    231 131.3  -7.2  34192  290.13 0854.48
2009/04/23 14:48:15.8     -14   -121    -33    122    127 186.7 -15.4  34196  290.18 0854.48
2009/04/23 14:48:15.9     -39    -22      1     45     46 240.2   1.8  34196  290.18 0854.48
2009/04/23 14:48:16.0     -17      0      8     18     19 270.0  23.0  34196  290.19 0854.48
2009/04/23 14:48:16.1      37     21     50     43     65  60.2  55.4  34198  290.23 0854.48
2009/04/23 14:48:16.2      54     -7     58     55     79  97.9  51.2  34198  290.23 0854.48
2009/04/23 14:48:16.3      86    -50     -3    100    101 120.2  -2.2  34198  290.23 0854.48
2009/04/23 14:48:16.4     112    -55    -16    125    127 116.2  -7.7  34198  290.23 0854.48
2009/04/23 14:48:16.5     138    -60     23    151    153 113.5   9.0  34200  290.25 0854.48
2009/04/23 14:48:16.6      96    -21     38     99    106 102.8  22.0  34196  290.19 0854.48
2009/04/23 14:48:16.7     127    -69     17    145    147 118.8   6.9  34194  290.16 0854.48
2009/04/23 14:48:16.8     201   -146     38    249    252 126.0   8.8  34198  290.20 0854.48
2009/04/23 14:48:16.9      32   -163    144    167    220 168.9  45.4  34200  290.25 0854.48
2009/04/23 14:48:17.0      67    -80    133    105    169 140.3  57.7  34202  290.28 0854.47
2009/04/23 14:48:17.1      11   -179    138    180    226 176.2  41.6  34192  290.13 0854.47
2009/04/23 14:48:17.2     187    -94    122    210    242 116.6  32.9  34192  290.13 0854.47
2009/04/23 14:48:17.3     290   -235     55    374    379 129.0   8.5  34182  289.94 0854.47
2009/04/23 14:48:17.4     236   -267    103    357    372 138.5  16.1  34178  289.89 0854.47
2009/04/23 14:48:17.5     246   -287    139    379    403 139.4  21.0  34178  289.86 0854.47
2009/04/23 14:48:17.6     240   -365    176    438    472 146.6  23.1  34164  289.65 0854.47
2009/04/23 14:48:17.7     191   -400    255    444    512 154.5  32.4  34166  289.69 0854.47
2009/04/23 14:48:17.8     228   -358    168    425    457 147.5  22.9  34158  289.55 0854.47
2009/04/23 14:48:17.9     107   -461    239    474    530 166.9  28.8  34166  289.66 0854.47
2009/04/23 14:48:18.0      96   -473    312    483    575 168.5  35.7  34174  289.80 0854.47
2009/04/23 14:48:18.1     283   -238    195    370    418 130.1  30.1  34180  289.92 0854.47
2009/04/23 14:48:18.2     252   -253    212    358    416 135.1  33.5  34172  289.76 0854.47
2009/04/23 14:48:18.3     181   -248    215    308    375 143.9  38.4  34178  289.89 0854.47
2009/04/23 14:48:18.4     269   -143    126    305    330 118.0  23.7  34188  290.03 0854.47
2009/04/23 14:48:18.5     275     -4    131    276    305  90.9  27.2  34190  290.07 0854.47
2009/04/23 14:48:18.6     291    143     76    325    334  63.9  13.3  34188  290.03 0854.47
2009/04/23 14:48:18.7     316    134     93    344    357  66.9  15.2  34182  289.93 0854.47
2009/04/23 14:48:18.8     270     93    128    286    313  70.9  25.8  34194  290.14 0854.47
2009/04/23 14:48:18.9     230     46    153    235    280  78.6  36.0  34190  290.09 0854.47
2009/04/23 14:48:19.0     215    -31     88    218    235  98.4  23.4  34188  290.04 0854.47
2009/04/23 14:48:19.1     203    208   -150    291    327  44.3 -33.8  34198  290.20 0854.47
2009/04/23 14:48:19.2     276    178   -108    329    346  57.2 -23.5  34230  290.77 0854.47
2009/04/23 14:48:19.3     451    246    -33    514    516  61.4  -3.7  34296  291.88 0854.47
2009/04/23 14:48:19.4     447    269     44    522    525  59.0   4.9  34294  291.84 0854.47
2009/04/23 14:48:19.5      39    -67    175     78    191 149.3  74.5  34220  290.60 0854.47
2009/04/23 14:48:19.6       6   -177    163    178    241 178.0  47.1  34202  290.30 0854.47
2009/04/23 14:48:19.7     200   -265    222    333    400 143.0  36.7  34178  289.86 0854.47
2009/04/23 14:48:19.8     247   -209    162    324    362 130.2  28.6  34182  289.94 0854.47
2009/04/23 14:48:19.9     233   -185    143    298    330 128.4  27.3  34180  289.90 0854.47
2009/04/23 14:48:20.0     154   -137    215    207    298 131.8  51.2  34180  289.92 0854.47
2009/04/23 14:48:20.1     198   -133    217    239    322 124.0  47.0  34186  290.00 0854.47
2009/04/23 14:48:20.2      37   -166    193    171    257 167.3  53.7  34188  290.05 0854.47
2009/04/23 14:48:20.3     141   -296     79    329    339 154.5  13.6  34182  289.93 0854.47
2009/04/23 14:48:20.4     188   -385    214    429    479 153.9  28.5  34176  289.85 0854.47
2009/04/23 14:48:20.5     275   -395    144    482    504 145.2  16.6  34178  289.89 0854.47
2009/04/23 14:48:20.6     198   -336    148    391    418 149.5  21.7  34178  289.87 0854.47
2009/04/23 14:48:20.7     211   -285     90    355    367 143.5  14.3  34176  289.84 0854.47
2009/04/23 14:48:20.8     179   -273    103    327    343 146.8  17.5  34178  289.87 0854.47
2009/04/23 14:48:20.9     167   -233    121    287    311 144.4  24.2  34176  289.83 0854.47
2009/04/23 14:48:21.0     180   -161     61    242    250 131.8  14.2  34172  289.76 0854.46
2009/04/23 14:48:21.1     150   -119     94    192    213 128.4  28.0  34178  289.89 0854.46
2009/04/23 14:48:21.2      91   -148     94    174    197 148.4  30.8  34172  289.79 0854.46
2009/04/23 14:48:21.3      51   -177    160    185    244 164.0  45.1  34182  289.96 0854.46
2009/04/23 14:48:21.4      64   -250    208    259    332 165.5  42.9  34190  290.07 0854.46
2009/04/23 14:48:21.5      28   -212    205    214    296 172.4  48.7  34190  290.07 0854.46
2009/04/23 14:48:21.6      76   -169    206    186    277 155.7  53.3  34194  290.15 0854.46
2009/04/23 14:48:21.7     179   -165    191    244    309 132.7  42.0  34196  290.17 0854.46
2009/04/23 14:48:21.8      64   -135    154    150    214 154.6  50.7  34200  290.26 0854.46
2009/04/23 14:48:21.9     128   -147    196    196    277 139.0  50.1  34196  290.17 0854.46
2009/04/23 14:48:22.0     140   -102    192    174    259 126.2  53.2  34198  290.20 0854.46
2009/04/23 14:48:22.1      24    -56    106     62    122 156.4  66.8  34208  290.38 0854.46
2009/04/23 14:48:22.2     -36   -156    142    161    214 193.3  45.8  34194  290.16 0854.46
2009/04/23 14:48:22.3      56   -167    203    177    269 161.3  54.6  34200  290.26 0854.46
2009/04/23 14:48:22.4      46   -201    194    207    283 167.1  48.0  34202  290.27 0854.46
2009/04/23 14:48:22.5       5   -183    207    184    276 178.4  54.0  34194  290.15 0854.46
2009/04/23 14:48:22.6      -9   -214    259    215    336 182.6  56.3  34194  290.14 0854.46
2009/04/23 14:48:22.7      35   -131    189    136    232 164.8  60.6  34206  290.35 0854.46
2009/04/23 14:48:22.8     -67   -195    218    207    300 198.9  52.0  34200  290.24 0854.46
2009/04/23 14:48:22.9    -145   -193    131    242    275 217.0  30.6  34220  290.59 0854.46
2009/04/23 14:48:23.0     -53    -63    138     83    161 220.5  66.4  34228  290.72 0854.46
2009/04/23 14:48:23.1    -227     61     36    236    239 285.0   8.9  34250  291.09 0854.46
2009/04/23 14:48:23.2    -175     74     85    191    209 293.1  25.7  34222  290.62 0854.46
2009/04/23 14:48:23.3    -118     97     50    154    163 309.5  18.1  34182  289.94 0854.46
2009/04/23 14:48:23.4     -45     96     49    107    117 334.7  26.2  34178  289.87 0854.46
2009/04/23 14:48:23.5      69     47     33     84     90  55.4  22.0  34198  290.23 0854.46
2009/04/23 14:48:23.6     -34     26     74     43     85 307.8  67.2  34194  290.16 0854.46
2009/04/23 14:48:23.7      -8     64     49     65     81 352.9  41.2  34190  290.08 0854.46
2009/04/23 14:48:23.8      -4    -58     76     59     96 184.5  57.9  34206  290.35 0854.46
2009/04/23 14:48:23.9      52     78    173     94    196  33.8  69.3  34214  290.48 0854.46
2009/04/23 14:48:24.0     272     68    104    281    299  75.8  21.0  34244  291.00 0854.46
2009/04/23 14:48:24.1     281    -42      8    285    286  98.6   1.6  34232  290.80 0854.46
2009/04/23 14:48:24.2     256    -11    -25    257    259  92.6  -5.6  34232  290.80 0854.46
2009/04/23 14:48:24.3     200   -111     79    229    243 119.1  19.2  34230  290.76 0854.46
2009/04/23 14:48:24.4     124    -83    159    150    218 123.7  52.1  34228  290.72 0854.46
2009/04/23 14:48:24.5      64    -25    119     69    137 111.7  67.2  34236  290.87 0854.46
2009/04/23 14:48:24.6      36     16     60     40     72  65.6  63.6  34242  290.96 0854.46
2009/04/23 14:48:24.7      74    -71     65    103    121 134.0  35.5  34236  290.87 0854.46
2009/04/23 14:48:24.8      -3    -75    139     76    158 182.7  69.1  34232  290.81 0854.46
2009/04/23 14:48:24.9     -34   -103    145    109    181 198.3  59.4  34240  290.92 0854.48
2009/04/23 14:48:25.0      79    148    121    168    207  28.1  39.3  34270  291.43 0854.48
2009/04/23 14:48:25.2      72    140     31    158    162  27.2  11.1  34310  292.13 0854.48
2009/04/23 14:48:25.3     194     52     40    201    206  74.9  11.4  34328  292.42 0854.48
2009/04/23 14:48:25.4      61     97    112    115    160  32.1  49.4  34328  292.42 0854.48
2009/04/23 14:48:25.5     121    361    162    381    414  18.6  24.3  34286  291.72 0854.48
2009/04/23 14:48:25.6     102    386     86    400    410  14.8  12.1  34294  291.86 0854.48
2009/04/23 14:48:25.7      46    424    -14    427    428   6.3  -1.9  34290  291.77 0854.48
2009/04/23 14:48:25.8     281    178     31    333    335  57.6   5.5  34312  292.17 0854.48
2009/04/23 14:48:25.9     283    178    -15    335    336  57.9  -2.6  34366  293.09 0854.48
2009/04/23 14:48:26.0     350     36    373    352    512  84.1  52.0  34380  293.33 0854.48
2009/04/23 14:48:26.1     396    153    182    425    462  68.8  24.6  34336  292.57 0854.48
2009/04/23 14:48:26.2     506    220     92    552    560  66.5   9.5  34270  291.43 0854.48
2009/04/23 14:48:26.3     642    302     93    710    716  64.8   7.5  34282  291.64 0854.48
2009/04/23 14:48:26.4     587    469     49    752    754  51.4   3.8  34286  291.70 0854.48
2009/04/23 14:48:26.5     488    402    -27    633    634  50.5  -2.5  34284  291.67 0854.48
2009/04/23 14:48:26.6     566    261     30    624    625  65.2   2.8  34298  291.93 0854.48
2009/04/23 14:48:26.7     684    185     72    709    713  74.9   5.8  34316  292.21 0854.48
2009/04/23 14:48:26.8     604    189    153    634    653  72.6  13.6  34286  291.71 0854.48
2009/04/23 14:48:26.9     386    489    223    623    661  38.3  20.6  34268  291.39 0854.48
2009/04/23 14:48:27.0     423    449    218    618    655  43.3  20.2  34274  291.52 0854.47
2009/04/23 14:48:27.1     469    303     81    559    565  57.1   8.3  34210  290.43 0854.47
2009/04/23 14:48:27.2     415    317     72    523    528  52.6   7.9  34250  291.11 0854.47
2009/04/23 14:48:27.3     232    395    152    459    484  30.4  18.4  34210  290.42 0854.47
2009/04/23 14:48:27.4     267    317    183    415    453  40.1  25.2  34208  290.39 0854.47
2009/04/23 14:48:27.5     338    359    226    494    543  43.3  26.4  34200  290.24 0854.47
2009/04/23 14:48:27.6     385    285    245    480    538  53.5  29.2  34212  290.46 0854.47
2009/04/23 14:48:27.7     245    284    284    376    471  40.8  40.9  34256  291.21 0854.47
2009/04/23 14:48:27.8     198    318    187    375    419  31.9  28.4  34232  290.78 0854.47
2009/04/23 14:48:27.9      84    262    171    276    324  17.8  34.9  34234  290.83 0854.47
2009/04/23 14:48:28.0      -8    316    169    317    359 358.4  30.3  34224  290.66 0854.49
2009/04/23 14:48:28.1    -133    318     76    345    354 337.3  12.5  34224  290.67 0854.49
2009/04/23 14:48:28.2    -104    255     31    276    278 337.7   6.5  34226  290.68 0854.49
2009/04/23 14:48:28.3     -74    153      9    171    172 334.1   3.1  34218  290.55 0854.49
2009/04/23 14:48:28.4      36    209     74    213    226   9.8  19.2  34238  290.91 0854.49
2009/04/23 14:48:28.5     177     78    192    194    272  66.3  50.0  34250  291.09 0854.49
2009/04/23 14:48:28.6     278      7     93    279    295  88.5  18.5  34268  291.41 0854.49
2009/04/23 14:48:28.7     308     -5     21    309    310  91.0   4.0  34266  291.38 0854.49
2009/04/23 14:48:28.8     156     76    198    174    263  63.8  54.3  34276  291.55 0854.49
2009/04/23 14:48:28.9       4      0    187     69    199 360.0  79.1  34294  291.84 0854.49
2009/04/23 14:48:29.0     465    195    212    505    547  67.2  24.2  34272  291.47 0854.49
2009/04/23 14:48:29.1     354    166    365    392    535  64.8  47.9  34318  292.27 0854.49
2009/04/23 14:48:29.2     396    220    322    454    556  60.9  38.7  34300  291.94 0854.49
2009/04/23 14:48:29.3     474    232    356    528    636  63.9  37.3  34262  291.32 0854.49
2009/04/23 14:48:29.4     476    344    291    588    656  54.1  28.2  34224  290.65 0854.49
2009/04/23 14:48:29.5     674    411    296    790    843  58.6  21.6  34232  290.81 0854.49
2009/04/23 14:48:29.6     758    492    230    904    933  57.0  14.3  34264  291.33 0854.49
2009/04/23 14:48:29.7     957    314    188   1008   1026  71.8  10.6  34270  291.45 0854.49
2009/04/23 14:48:29.8     713    385    274    811    857  61.6  18.7  34254  291.16 0854.49
2009/04/23 14:48:29.9     663    515     51    840    842  52.2   3.5  34222  290.61 0854.49
2009/04/23 14:48:30.0     876    489    310   1004   1052  60.8  17.2  34212  290.45 0854.47
2009/04/23 14:48:30.1     733    649     51    980    982  48.5   3.0  34234  290.82 0854.47
2009/04/23 14:48:30.2     636    340     75    722    726  61.9   6.0  34286  291.71 0854.47
2009/04/23 14:48:30.3     597    352    -89    694    700  59.5  -7.3  34282  291.63 0854.47
2009/04/23 14:48:30.4     483    266    -95    552    561  61.2  -9.8  34284  291.69 0854.47
2009/04/23 14:48:30.5     615    113    136    626    641  79.5  12.3  34274  291.52 0854.47
2009/04/23 14:48:30.6     611     37    183    613    640  86.5  16.7  34268  291.42 0854.47
2009/04/23 14:48:30.7     699      7    -83    700    705  89.4  -6.8  34258  291.24 0854.47
2009/04/23 14:48:30.8     798    -40    155    800    815  92.9  11.0  34240  290.94 0854.47
2009/04/23 14:48:30.9     893    159    113    908    916  79.9   7.1  34238  290.90 0854.47
2009/04/23 14:48:31.0     748    303    243    808    844  67.9  16.8  34254  291.16 0854.47
2009/04/23 14:48:31.1     770    151     99    785    792  78.9   7.2  34256  291.19 0854.47
2009/04/23 14:48:31.2     809    125    107    819    826  81.2   7.5  34254  291.18 0854.47
2009/04/23 14:48:31.3     708   -171    133    729    742 103.6  10.4  34206  290.36 0854.47
2009/04/23 14:48:31.4     434    -22     61    435    440  92.9   8.0  34218  290.56 0854.47
2009/04/23 14:48:31.5     181   -112      6    213    214 121.8   1.8  34224  290.67 0854.47
2009/04/23 14:48:31.6    -212     36    107    216    241 279.6  28.2  34228  290.71 0854.47
2009/04/23 14:48:31.7    -433   -156     22    461    462 250.1   2.8  34226  290.70 0854.47
2009/04/23 14:48:31.8    -296   -317    218    434    485 223.0  28.7  34222  290.62 0854.47
2009/04/23 14:48:31.9     153   -474    312    499    588 162.1  35.0  34230  290.77 0854.47
2009/04/23 14:48:32.0     179   -214    305    279    413 140.1  52.9  34266  291.37 0854.47
2009/04/23 14:48:32.1    -113   -316    130    336    360 199.7  22.2  34272  291.49 0854.47
2009/04/23 14:48:32.2    -283   -167    -62    329    335 239.4 -10.8  34268  291.39 0854.47
2009/04/23 14:48:32.3    -382     75    -50    390    394 281.1  -7.3  34236  290.86 0854.47
2009/04/23 14:48:32.4    -374    177      3    414    415 295.3   0.5  34226  290.68 0854.47
2009/04/23 14:48:32.5    -270    342    101    436    448 321.7  13.1  34278  291.58 0854.47
2009/04/23 14:48:32.6    -430    352     88    557    564 309.3   9.0  34290  291.79 0854.47
2009/04/23 14:48:32.7    -379    457    -48    595    598 320.3  -4.7  34296  291.89 0854.47
2009/04/23 14:48:32.8    -319    245   -115    403    420 307.5 -15.9  34220  290.58 0854.47
2009/04/23 14:48:32.9    -531    147   -194    552    585 285.5 -24.6  34182  289.93 0854.47
2009/04/23 14:48:33.0    -318    -49   -145    322    353 261.2 -30.3  34192  290.13 0854.47
2009/04/23 14:48:33.1    -398   -134   -266    421    497 251.3 -39.9  34202  290.30 0854.47
2009/04/23 14:48:33.2    -161    -96   -160    188    246 239.1 -49.2  34232  290.81 0854.47
2009/04/23 14:48:33.3     -19   -239   -150    240    283 184.7 -39.9  34192  290.12 0854.47
2009/04/23 14:48:33.4      11   -273   -148    274    311 177.5 -35.4  34210  290.41 0854.47
2009/04/23 14:48:33.5     -46   -158   -168    165    235 196.5 -54.8  34216  290.52 0854.47
2009/04/23 14:48:33.6    -191    -43    -60    196    206 257.2 -17.0  34216  290.52 0854.47
2009/04/23 14:48:33.7    -127     38    195    133    236 286.9  62.6  34252  291.13 0854.47
2009/04/23 14:48:33.8    -175     -8    147    176    229 267.2  43.8  34288  291.76 0854.47
2009/04/23 14:48:33.9      -7   -220    265    221    345 182.0  56.2  34276  291.53 0854.47
2009/04/23 14:48:34.0     -21   -158    289    160    330 187.6  68.6  34282  291.65 0854.46
2009/04/23 14:48:34.1     -44      8    204     45    208 280.6  88.2  34286  291.71 0854.46
2009/04/23 14:48:34.2    -133   -144    277    197    339 222.8  61.2  34308  292.09 0854.46
2009/04/23 14:48:34.3    -282    -85    123    295    319 253.2  23.9  34294  291.85 0854.46
2009/04/23 14:48:34.4    -409   -194    164    453    481 244.6  20.7  34294  291.85 0854.46
2009/04/23 14:48:34.5    -533    -78    161    539    563 261.6  16.6  34304  292.03 0854.46
2009/04/23 14:48:34.6    -573   -125    115    587    599 257.6  11.1  34282  291.63 0854.46
2009/04/23 14:48:34.7    -639    -11    -85    640    646 269.0  -7.6  34248  291.06 0854.46
2009/04/23 14:48:34.8    -645    200    -81    676    681 287.3  -6.9  34264  291.34 0854.46
2009/04/23 14:48:34.9    -538     75   -176    544    572 278.0 -17.9  34232  290.80 0854.46
2009/04/23 14:48:35.0    -162     50     65    170    182 287.3  22.0  34252  291.15 0854.46
2009/04/23 14:48:35.1    -223   -195     81    297    308 228.7  15.3  34270  291.43 0854.46
2009/04/23 14:48:35.2    -205    -35    148    209    256 260.1  38.8  34250  291.10 0854.46
2009/04/23 14:48:35.3     -29    252     40    254    258 353.3   9.0  34266  291.36 0854.46
2009/04/23 14:48:35.4    -171    259    -99    311    327 326.6 -17.7  34258  291.24 0854.46
2009/04/23 14:48:35.5    -289    -54    -16    294    295 259.4  -3.1  34296  291.89 0854.46
2009/04/23 14:48:35.6    -285    -50    -27    290    292 259.9  -5.4  34298  291.90 0854.46
2009/04/23 14:48:35.7    -400    -61    105    405    419 261.3  14.6  34296  291.87 0854.46
2009/04/23 14:48:35.8    -573    -43    -68    575    580 265.7  -6.8  34300  291.95 0854.46
2009/04/23 14:48:35.9    -584   -128    -51    599    602 257.6  -4.9  34282  291.66 0854.46
2009/04/23 14:48:36.0    -671    -14   -105    672    681 268.7  -8.9  34260  291.26 0854.49
2009/04/23 14:48:36.1    -487     -6    -19    488    489 269.2  -2.2  34246  291.02 0854.49
2009/04/23 14:48:36.2    -587   -176    212    613    649 253.3  19.1  34256  291.20 0854.49
2009/04/23 14:48:36.3    -276   -486    146    560    579 209.6  14.7  34236  290.87 0854.49
2009/04/23 14:48:36.4    -241   -472    -10    531    532 207.1  -1.2  34242  290.96 0854.49
2009/04/23 14:48:36.5    -192   -458    140    497    517 202.8  15.8  34230  290.76 0854.49
2009/04/23 14:48:36.6    -212   -423     86    474    482 206.6  10.4  34232  290.79 0854.49
2009/04/23 14:48:36.7       3   -350     36    351    353 179.4   6.0  34232  290.81 0854.49
2009/04/23 14:48:36.8     -22   -137    153    139    206 189.3  53.0  34240  290.94 0854.49
2009/04/23 14:48:36.9    -211   -282    105    353    369 216.8  16.7  34232  290.79 0854.49
2009/04/23 14:48:37.0    -320   -281     24    426    427 228.7   3.3  34236  290.85 0854.49
2009/04/23 14:48:37.1    -220   -200    -38    298    301 227.8  -7.3  34232  290.80 0854.49
2009/04/23 14:48:37.2    -248   -120    104    276    294 244.0  21.7  34246  291.02 0854.49
2009/04/23 14:48:37.3    -209   -144    192    255    319 235.4  40.8  34246  291.04 0854.49
2009/04/23 14:48:37.4     -18   -123     46    125    133 188.5  20.9  34244  291.01 0854.49
2009/04/23 14:48:37.5      69   -208    -76    220    232 161.5 -23.6  34250  291.09 0854.49
2009/04/23 14:48:37.6      54   -310   -113    315    334 170.0 -25.0  34248  291.08 0854.49
2009/04/23 14:48:37.7    -214   -380    -17    437    438 209.4  -2.3  34240  290.92 0854.49
2009/04/23 14:48:37.8     -75   -568    140    573    590 187.6  13.8  34232  290.81 0854.49
2009/04/23 14:48:37.9       8   -488    366    489    610 179.0  40.6  34246  291.02 0854.49
2009/04/23 14:48:38.0    -138   -582    256    599    651 193.4  24.5  34234  290.84 0854.51
2009/04/23 14:48:38.1     247   -415    248    483    542 149.3  29.3  34222  290.62 0854.51
2009/04/23 14:48:38.2      73   -467    312    473    566 171.1  36.5  34274  291.50 0854.51
2009/04/23 14:48:38.3       9   -548    194    549    582 179.0  20.1  34226  290.68 0854.51
2009/04/23 14:48:38.4    -115   -565    122    577    591 191.6  12.0  34212  290.44 0854.51
2009/04/23 14:48:38.5     -53   -443    134    447    467 186.9  16.8  34216  290.53 0854.51
2009/04/23 14:48:38.6     -11   -483    158    484    510 181.4  18.1  34214  290.49 0854.51
2009/04/23 14:48:38.7    -202   -409    107    457    470 206.3  13.2  34206  290.35 0854.51
2009/04/23 14:48:38.8     -39   -382    152    385    413 185.9  22.8  34216  290.53 0854.51
2009/04/23 14:48:38.9     -98   -280    130    297    324 199.4  25.2  34222  290.61 0854.51
2009/04/23 14:48:39.0    -110   -340    -45    358    361 197.9  -7.2  34208  290.37 0854.51
2009/04/23 14:48:39.1     151   -311    202    346    400 154.1  33.0  34212  290.45 0854.51
2009/04/23 14:48:39.2     -59   -541    259    545    603 186.3  27.3  34212  290.46 0854.51
2009/04/23 14:48:39.3    -173   -538    133    566    582 197.8  13.2  34218  290.56 0854.51
2009/04/23 14:48:39.4    -229   -557     78    603    609 202.4   7.4  34220  290.59 0854.51
2009/04/23 14:48:39.5    -392   -472     33    614    615 219.7   3.1  34222  290.62 0854.51
2009/04/23 14:48:39.6    -292   -442      4    531    532 213.5   0.5  34236  290.87 0854.51
2009/04/23 14:48:39.7    -153   -522    110    545    556 196.4  11.5  34214  290.50 0854.51
2009/04/23 14:48:39.8     -51   -632     49    635    638 184.7   4.5  34228  290.72 0854.51
2009/04/23 14:48:39.9    -122   -478    -15    494    495 194.4  -1.8  34212  290.47 0854.51
2009/04/23 14:48:40.0    -239   -489     46    545    548 206.1   4.9  34202  290.30 0854.53
2009/04/23 14:48:40.1       8   -556    114    557    569 179.1  11.6  34204  290.31 0854.53
2009/04/23 14:48:40.2     -18   -491     71    492    498 182.1   8.2  34206  290.35 0854.53
2009/04/23 14:48:40.3     -39   -369    233    372    438 186.1  35.2  34208  290.38 0854.53
2009/04/23 14:48:40.4    -118   -356    161    376    409 198.4  24.6  34202  290.28 0854.53
2009/04/23 14:48:40.5     -10   -445    172    446    478 181.4  22.2  34200  290.25 0854.53
2009/04/23 14:48:40.6      14   -495    258    496    559 178.3  29.6  34188  290.06 0854.53
2009/04/23 14:48:40.7      77   -455    388    462    603 170.3  44.3  34200  290.26 0854.53
2009/04/23 14:48:40.8       0   -401    144    402    427 179.9  20.4  34190  290.09 0854.53
2009/04/23 14:48:40.9      90   -376    222    387    446 166.4  32.4  34200  290.26 0854.53
2009/04/23 14:48:41.0      31   -352    327    354    481 174.9  47.5  34204  290.31 0854.53
2009/04/23 14:48:41.1      37   -407    279    409    495 174.7  37.6  34180  289.91 0854.53
2009/04/23 14:48:41.2      14   -458    250    459    522 178.2  30.9  34192  290.12 0854.53
2009/04/23 14:48:41.3     102   -520    396    531    662 168.9  40.4  34212  290.47 0854.53
2009/04/23 14:48:41.4     223   -303    304    377    484 143.6  43.1  34216  290.51 0854.53
2009/04/23 14:48:41.5      -9   -194    200    195    279 182.7  50.7  34190  290.07 0854.53
2009/04/23 14:48:41.6     -61   -120    149    135    201 207.2  53.0  34196  290.18 0854.53
2009/04/23 14:48:41.7    -205   -254    263    327    419 219.0  43.1  34184  289.99 0854.53
2009/04/23 14:48:41.8    -208   -421    239    470    527 206.4  29.1  34186  290.01 0854.53
2009/04/23 14:48:41.9      41   -373    379    376    533 173.7  50.2  34208  290.40 0854.53
2009/04/23 14:48:42.0     -37   -248    358    251    437 188.5  61.7  34202  290.28 0854.54
2009/04/23 14:48:42.1    -190   -342    135    392    415 209.0  19.1  34186  290.02 0854.54
2009/04/23 14:48:42.2    -253   -196    219    321    388 232.2  37.6  34192  290.13 0854.54
2009/04/23 14:48:42.3    -143   -209    271    254    371 214.3  52.2  34200  290.25 0854.54
2009/04/23 14:48:42.4      12   -260    308    261    403 177.3  55.6  34198  290.23 0854.54
2009/04/23 14:48:42.5      74   -147     71    165    179 153.0  24.9  34198  290.21 0854.54
2009/04/23 14:48:42.6    -102    -90     84    137    160 228.7  34.4  34202  290.28 0854.54
2009/04/23 14:48:42.7    -281   -323    -46    429    432 221.0  -6.2  34182  289.95 0854.54
2009/04/23 14:48:42.8    -223   -234     13    324    325 223.7   2.3  34188  290.03 0854.54
2009/04/23 14:48:42.9    -224   -100    117    246    272 245.8  27.3  34210  290.42 0854.54
2009/04/23 14:48:43.0    -120     55     72    133    151 294.8  31.3  34210  290.43 0854.54
2009/04/23 14:48:43.1      17     18     71     26     75  43.2  81.2  34228  290.74 0854.54
2009/04/23 14:48:43.2     -31      6    101     32    105 281.4  81.2  34224  290.65 0854.54
2009/04/23 14:48:43.3    -102     -8     68    103    123 265.2  36.0  34220  290.60 0854.54
2009/04/23 14:48:43.4    -266    -51    113    271    293 259.0  24.1  34214  290.49 0854.54
2009/04/23 14:48:43.5    -171   -150    102    228    249 228.7  25.9  34200  290.24 0854.54
2009/04/23 14:48:43.6     -82   -146    248    168    299 209.4  62.7  34204  290.32 0854.54
2009/04/23 14:48:43.7    -164    -53    178    173    248 251.8  50.9  34198  290.23 0854.54
2009/04/23 14:48:43.8     -97   -123    108    157    190 218.3  37.8  34196  290.19 0854.54
2009/04/23 14:48:43.9     -70   -227    113    238    263 197.2  27.2  34204  290.32 0854.54
2009/04/23 14:48:44.0    -139    -78     46    160    167 240.7  16.3  34210  290.43 0854.55
2009/04/23 14:48:44.1     -69   -117    -74    136    154 210.7 -35.7  34202  290.28 0854.55
2009/04/23 14:48:44.2      74      5     14     75     77  85.7  10.6  34204  290.31 0854.55
2009/04/23 14:48:44.3     113     99    -19    151    153  48.7  -7.2  34218  290.57 0854.55
2009/04/23 14:48:44.4      96     21    -55     99    113  77.6 -35.8  34252  291.13 0854.55
2009/04/23 14:48:44.5      13     76    -86     78    116   9.8 -57.1  34238  290.89 0854.55
2009/04/23 14:48:44.6      26    145   -117    148    188  10.2 -46.8  34228  290.72 0854.55
2009/04/23 14:48:44.7      95     34    -36    102    109  70.0 -19.7  34232  290.79 0854.55
2009/04/23 14:48:44.8     -99     67    -10    120    121 304.1  -5.1  34232  290.81 0854.55
2009/04/23 14:48:44.9    -173    177    -75    248    260 315.7 -17.0  34218  290.56 0854.55
2009/04/23 14:48:45.0    -151    127    -55    198    206 310.0 -15.5  34212  290.45 0854.55
2009/04/23 14:48:45.1     -20    141      9    143    144 351.9   3.8  34226  290.70 0854.55
2009/04/23 14:48:45.2     279    107    133    300    328  68.9  25.6  34256  291.19 0854.55
2009/04/23 14:48:45.3     396    186    224    438    491  64.8  29.2  34284  291.68 0854.55
2009/04/23 14:48:45.4     605    348    156    698    716  60.1  12.6  34230  290.76 0854.55
2009/04/23 14:48:45.5     538    341    169    638    661  57.6  14.9  34228  290.74 0854.55
2009/04/23 14:48:45.6     763    426    276    875    918  60.8  17.5  34210  290.41 0854.55
2009/04/23 14:48:45.7     544    401    153    677    695  53.6  12.8  34220  290.60 0854.55
2009/04/23 14:48:45.8     927    442    273   1027   1063  64.5  14.9  34254  291.16 0854.55
2009/04/23 14:48:45.9     791    237    309    826    881  73.3  21.5  34244  291.00 0854.55
2009/04/23 14:48:46.0     950    -76    349    954   1015  94.6  21.0  34226  290.68 0854.49
2009/04/23 14:48:46.1    1048   -278     18   1085   1086 104.9   1.0  34192  290.10 0854.49
2009/04/23 14:48:46.2     936    139    -22    947    948  81.5  -1.4  34192  290.12 0854.49
2009/04/23 14:48:46.3     700   -215     41    733    735 107.1   3.2  34206  290.36 0854.49
2009/04/23 14:48:46.4     703     53    -24    705    706  85.7  -2.0  34184  289.98 0854.49
2009/04/23 14:48:46.5     607     30    122    608    621  87.1  11.3  34196  290.18 0854.49
2009/04/23 14:48:46.6     711     11   -295    712    770  89.1 -28.2  34212  290.46 0854.49
2009/04/23 14:48:46.7     611   -277   -207    672    703 114.4 -22.1  34202  290.29 0854.49
2009/04/23 14:48:46.8     540   -106   -112    551    563 101.1 -11.6  34192  290.13 0854.49
2009/04/23 14:48:46.9     638    -48    -36    640    642  94.4  -3.3  34210  290.43 0854.49
2009/04/23 14:48:47.0     192    -13     68    193    205  93.9  19.4  34214  290.50 0854.49
2009/04/23 14:48:47.1      78   -466    116    473    488 170.4  13.8  34212  290.45 0854.49
2009/04/23 14:48:47.2      -1   -220    138    221    260 180.5  35.2  34224  290.65 0854.49
2009/04/23 14:48:47.3       7   -190    166    191    253 177.8  45.6  34234  290.83 0854.49
2009/04/23 14:48:47.4     -77   -153     97    172    197 206.7  31.9  34224  290.65 0854.49
2009/04/23 14:48:47.5     -89    -32    126     95    157 250.0  59.2  34222  290.62 0854.49
2009/04/23 14:48:47.6     -73    -73     35    104    111 224.7  18.9  34224  290.67 0854.49
2009/04/23 14:48:47.7     -31    -99     28    104    108 197.8  15.3  34228  290.74 0854.49
2009/04/23 14:48:47.8     -31    -31    -33     44     55 225.0 -45.1  34226  290.70 0854.49
2009/04/23 14:48:47.9      57    -43    -56     72     91 126.9 -46.6  34230  290.77 0854.49
2009/04/23 14:48:48.0      19    -59    -39     63     74 162.2 -39.9  34230  290.77 0854.47
2009/04/23 14:48:48.1      97    -46    -22    108    111 115.8 -11.5  34230  290.77 0854.47
2009/04/23 14:48:48.2     120     51    113    131    173  66.9  45.4  34228  290.72 0854.47
2009/04/23 14:48:48.3      39     17     99     43    107  66.5  75.0  34240  290.94 0854.47
2009/04/23 14:48:48.4     140     39     60    146    157  74.5  23.6  34226  290.70 0854.47
2009/04/23 14:48:48.5     210     49    153    216    264  76.7  38.8  34226  290.68 0854.47
2009/04/23 14:48:48.6     293    -68    254    301    393 103.2  44.5  34224  290.66 0854.47
2009/04/23 14:48:48.7     193    -64    209    204    292 108.6  50.4  34226  290.70 0854.47
2009/04/23 14:48:48.8      80   -110    186    137    231 143.9  60.3  34224  290.65 0854.47
2009/04/23 14:48:48.9      65   -220    233    230    327 163.5  50.4  34224  290.65 0854.47
2009/04/23 14:48:49.0      32      4    107     33    111  82.1  81.8  34228  290.74 0854.47
2009/04/23 14:48:49.1     287    107     74    307    316  69.6  13.7  34232  290.78 0854.47
2009/04/23 14:48:49.2     275    -17     34    276    279  93.7   7.1  34218  290.54 0854.47
2009/04/23 14:48:49.3     190    -64    164    201    259 108.8  43.7  34216  290.51 0854.47
2009/04/23 14:48:49.4     210   -340    219    400    456 148.3  31.3  34206  290.34 0854.47
2009/04/23 14:48:49.5     -20   -222    140    224    264 185.3  35.5  34204  290.32 0854.47
2009/04/23 14:48:49.6      56   -370    293    375    475 171.4  42.0  34196  290.19 0854.47
2009/04/23 14:48:49.7     107   -423    419    437    605 165.7  48.8  34202  290.28 0854.47
2009/04/23 14:48:49.8     206   -351    367    408    548 149.6  46.6  34198  290.20 0854.47
2009/04/23 14:48:49.9     314   -371    300    487    571 139.7  34.5  34196  290.18 0854.47
2009/04/23 14:48:50.0      21   -426    369    427    564 177.1  45.2  34202  290.28 0854.47
2009/04/23 14:48:50.1      48   -371    228    375    438 172.6  34.2  34198  290.21 0854.47
2009/04/23 14:48:50.2       8   -496     12    497    498 179.0   1.4  34192  290.13 0854.47
2009/04/23 14:48:50.3    -301   -473     49    561    564 212.5   5.1  34192  290.11 0854.47
2009/04/23 14:48:50.4    -329   -280      1    433    434 229.6   0.2  34198  290.22 0854.47
2009/04/23 14:48:50.5    -241   -312     72    395    402 217.6  10.3  34198  290.20 0854.47
2009/04/23 14:48:50.6    -218   -351     47    414    417 211.9   6.6  34192  290.11 0854.47
2009/04/23 14:48:50.7    -279   -230    200    362    413 230.5  31.4  34200  290.25 0854.47
2009/04/23 14:48:50.8    -161   -102     66    191    203 237.5  19.2  34198  290.23 0854.47
2009/04/23 14:48:50.9     104   -123     41    162    168 139.9  14.3  34198  290.21 0854.49
2009/04/23 14:48:51.0     185   -159    160    245    292 130.7  36.0  34198  290.22 0854.49
2009/04/23 14:48:51.1     160   -178    241    240    340 138.1  50.0  34204  290.32 0854.49
2009/04/23 14:48:51.2      62   -359    298    365    471 170.2  43.3  34200  290.24 0854.49
2009/04/23 14:48:51.3     -49   -384    330    388    509 187.4  44.8  34196  290.18 0854.49
2009/04/23 14:48:51.4      30   -294    174    296    343 174.0  33.1  34202  290.28 0854.49
2009/04/23 14:48:51.5      32   -292     86    294    307 173.7  16.3  34204  290.32 0854.49
2009/04/23 14:48:51.6     127    -91     98    157    185 125.9  35.2  34218  290.55 0854.49
2009/04/23 14:48:51.7     242    -23    206    244    319  95.5  44.5  34206  290.36 0854.49
2009/04/23 14:48:51.8     308    129    115    335    355  67.3  19.1  34210  290.43 0854.49
2009/04/23 14:48:51.9     129   -152     47    200    206 139.5  13.2  34202  290.30 0854.49
2009/04/23 14:48:52.0     119   -162     72    202    214 143.7  20.2  34204  290.31 0854.49
2009/04/23 14:48:52.1     -73    -79     -5    108    109 222.8  -3.1  34206  290.35 0854.49
2009/04/23 14:48:52.2      11   -151    -45    152    159 175.5 -16.8  34212  290.45 0854.49
2009/04/23 14:48:52.3       2      8     16      9     18  18.3  68.8  34192  290.11 0854.49
2009/04/23 14:48:52.4    -246   -203   -109    320    338 230.5 -23.7  34174  289.81 0854.49
2009/04/23 14:48:52.5    -166   -254   -215    304    372 213.2 -43.4  34156  289.50 0854.49
2009/04/23 14:48:52.6    -205   -322   -139    382    406 212.5 -25.2  34168  289.72 0854.49
2009/04/23 14:48:52.7    -138   -334   -103    362    376 202.4 -20.4  34156  289.52 0854.49
2009/04/23 14:48:52.8     -86   -338   -171    349    388 194.4 -32.3  34160  289.57 0854.49
2009/04/23 14:48:53.0    -118   -412   -128    429    448 196.1 -16.6  34172  289.77 0854.52
2009/04/23 14:48:53.1     -43   -157    -79    163    181 195.4 -31.8  34172  289.77 0854.52
2009/04/23 14:48:53.2     -47      0     90     48    102 270.0  69.3  34188  290.04 0854.52
2009/04/23 14:48:53.3     -82     49   -107     96    143 301.1 -57.7  34190  290.08 0854.52
2009/04/23 14:48:53.4    -291    132    -49    320    324 294.4  -8.7  34202  290.29 0854.52
2009/04/23 14:48:53.5    -214    283     69    356    363 322.9  11.0  34208  290.38 0854.52
2009/04/23 14:48:53.6    -152    249    117    292    314 328.6  22.9  34194  290.14 0854.52
2009/04/23 14:48:53.7    -262    120     73    289    299 294.6  14.2  34208  290.39 0854.52
2009/04/23 14:48:53.8    -200     36     68    204    216 280.4  18.6  34222  290.62 0854.52
2009/04/23 14:48:53.9     -26   -348     51    349    353 184.3   8.3  34222  290.64 0854.52
2009/04/23 14:48:54.0      27   -385     61    386    391 175.9   9.0  34164  289.65 0854.52
2009/04/23 14:48:54.1    -230   -252     97    342    356 222.4  15.9  34162  289.60 0854.52
2009/04/23 14:48:54.2    -485   -167    234    514    564 250.9  26.2  34188  290.06 0854.52
2009/04/23 14:48:54.3    -334     -5     68    335    343 269.1  11.6  34194  290.15 0854.52
2009/04/23 14:48:54.4    -185   -133    171    229    285 234.3  40.6  34210  290.41 0854.52
2009/04/23 14:48:54.5     -24   -333    128    334    357 184.3  22.0  34198  290.20 0854.52
2009/04/23 14:48:54.6    -206   -402    323    453    556 207.2  39.0  34230  290.75 0854.52
2009/04/23 14:48:54.7    -236   -291    248    375    449 219.1  36.5  34226  290.68 0854.52
2009/04/23 14:48:54.8    -292   -135    124    322    345 245.2  22.2  34224  290.66 0854.52
2009/04/23 14:48:54.9    -446     83      6    454    455 280.6   0.8  34202  290.29 0854.52
2009/04/23 14:48:55.0    -523    -55     82    526    533 263.9   8.9  34226  290.69 0854.52
2009/04/23 14:48:55.1    -538   -320   -215    626    662 239.3 -19.0  34178  289.86 0854.52
2009/04/23 14:48:55.2    -251   -362    120    441    458 214.7  15.3  34208  290.38 0854.52
2009/04/23 14:48:55.3    -335   -493    -86    597    604 214.2  -8.3  34168  289.71 0854.52
2009/04/23 14:48:55.4    -357   -400      3    537    538 221.8   0.4  34208  290.40 0854.52
2009/04/23 14:48:55.5    -339   -455     17    568    569 216.7   1.8  34220  290.60 0854.52
2009/04/23 14:48:55.6    -444   -292     27    532    533 236.7   2.9  34224  290.67 0854.52
2009/04/23 14:48:55.7    -583   -158    118    605    617 254.9  11.1  34256  291.21 0854.52
2009/04/23 14:48:55.8    -597   -341    -88    688    694 240.2  -7.3  34230  290.75 0854.52
2009/04/23 14:48:55.9    -247   -613   -186    662    688 202.0 -15.7  34206  290.34 0854.52
2009/04/23 14:48:56.0    -143   -699   -110    714    723 191.6  -8.8  34222  290.64 0854.52
2009/04/23 14:48:56.1     -46   -595    -76    597    602 184.5  -7.3  34212  290.44 0854.52
2009/04/23 14:48:56.2     -19   -511     32    512    514 182.2   3.6  34222  290.61 0854.52
2009/04/23 14:48:56.3    -288   -437    236    524    574 213.4  25.9  34242  290.97 0854.52
2009/04/23 14:48:56.4    -531   -349    -24    636    637 236.7  -2.2  34218  290.54 0854.52
2009/04/23 14:48:56.5    -339   -336     53    478    481 225.2   6.4  34218  290.57 0854.52
2009/04/23 14:48:56.6     -44   -366     18    369    370 186.9   2.8  34204  290.32 0854.52
2009/04/23 14:48:56.7     -27   -332    245    334    414 184.7  39.8  34182  289.93 0854.52
2009/04/23 14:48:56.8    -176   -335    187    379    422 207.7  28.2  34194  290.14 0854.52
2009/04/23 14:48:56.9     -73   -260    -85    271    284 195.8 -22.5  34196  290.19 0854.52
2009/04/23 14:48:57.0    -100   -439   -105    451    464 192.9 -13.2  34186  290.02 0854.53
2009/04/23 14:48:57.1    -264   -452   -145    524    544 210.3 -15.5  34174  289.82 0854.53
2009/04/23 14:48:57.2    -287   -481    -72    561    566 210.8  -7.3  34186  290.01 0854.53
2009/04/23 14:48:57.3    -141   -525     17    544    545 195.1   1.8  34186  290.01 0854.53
2009/04/23 14:48:57.4    -200   -708    141    736    750 195.8  10.9  34176  289.85 0854.53
2009/04/23 14:48:57.5    -428   -620     93    754    760 214.6   7.1  34172  289.77 0854.53
2009/04/23 14:48:57.6    -287   -656    112    717    726 203.6   8.9  34184  289.98 0854.53
2009/04/23 14:48:57.7    -455   -543    -51    709    711 220.0  -4.1  34188  290.06 0854.53
2009/04/23 14:48:57.8    -316   -496     -9    589    590 212.5  -0.9  34178  289.86 0854.53
2009/04/23 14:48:57.9    -238   -524     11    576    577 204.5   1.1  34166  289.69 0854.53
2009/04/23 14:48:58.0    -198   -436     80    479    486 204.4   9.5  34172  289.78 0854.53
2009/04/23 14:48:58.1    -190   -458     74    497    503 202.6   8.5  34174  289.81 0854.53
2009/04/23 14:48:58.2    -304   -503    -53    588    591 211.2  -5.2  34162  289.61 0854.53
2009/04/23 14:48:58.3    -404   -603   -119    726    736 213.8  -9.4  34164  289.64 0854.53
2009/04/23 14:48:58.4    -384   -557    -70    677    681 214.6  -6.0  34160  289.56 0854.53
2009/04/23 14:48:58.5    -423   -690   -107    810    818 211.5  -7.6  34182  289.96 0854.53
2009/04/23 14:48:58.6    -504   -832   -143    973    984 211.2  -8.4  34162  289.60 0854.53
2009/04/23 14:48:58.7    -313   -612   -259    688    735 207.1 -26.1  34178  289.89 0854.53
2009/04/23 14:48:58.8    -432   -187   -369    471    598 246.6 -46.5  34166  289.68 0854.53
2009/04/23 14:48:58.9    -421   -503   -294    657    719 219.9 -30.2  34172  289.79 0854.53
2009/04/23 14:48:59.0      43   -464    -51    467    470 174.7  -6.3  34172  289.76 0854.53
2009/04/23 14:48:59.1      45   -592   -159    594    615 175.6 -15.1  34170  289.73 0854.53
2009/04/23 14:48:59.2    -182   -673     55    698    701 195.2   4.6  34186  290.00 0854.53
2009/04/23 14:48:59.3    -187   -666    179    692    715 195.7  14.5  34204  290.32 0854.53
2009/04/23 14:48:59.4      23   -795    397    796    889 178.3  28.5  34206  290.36 0854.53
2009/04/23 14:48:59.5     259   -658    315    708    774 158.5  25.7  34190  290.09 0854.53
2009/04/23 14:48:59.6     211   -828    171    855    873 165.7  11.3  34180  289.92 0854.53
2009/04/23 14:48:59.7     -42   -864    185    866    886 182.8  12.1  34178  289.86 0854.53
2009/04/23 14:48:59.8     -62   -870    147    873    886 184.1   9.6  34170  289.74 0854.53
2009/04/23 14:48:59.9     188   -667    357    694    780 164.2  29.4  34194  290.14 0854.53
2009/04/23 14:49:00.0     -42   -452    159    455    481 185.3  20.0  34182  289.95 0854.53
2009/04/23 14:49:00.1    -121   -445    227    462    514 195.2  28.2  34182  289.93 0854.53
2009/04/23 14:49:00.2      50   -356    297    360    466 172.0  43.7  34204  290.31 0854.53
2009/04/23 14:49:00.3     -64   -369    401    375    549 189.9  52.2  34190  290.08 0854.53
2009/04/23 14:49:00.4    -126   -109   -100    167    194 229.1 -38.4  34184  289.99 0854.53
2009/04/23 14:49:00.5     -23   -321    105    322    339 184.1  18.2  34182  289.96 0854.53
2009/04/23 14:49:00.6     -38   -220     62    224    233 189.8  15.6  34198  290.21 0854.53
2009/04/23 14:49:00.7     122   -180    -60    218    227 145.7 -15.4  34194  290.14 0854.53
2009/04/23 14:49:00.8     119   -325   -263    347    435 159.8 -45.3  34190  290.07 0854.53
2009/04/23 14:49:00.9     323    -51    -42    328    331  99.0  -7.3  34180  289.91 0854.53
2009/04/23 14:49:01.0     255     66     94    264    281  75.4  19.6  34224  290.66 0854.54
2009/04/23 14:49:01.1     126      0    139    127    188  90.0  52.7  34236  290.86 0854.54
2009/04/23 14:49:01.2     -42     13     74     45     86 287.7  65.7  34242  290.96 0854.54
2009/04/23 14:49:01.3     -86     37      0     94     95 293.5   0.2  34232  290.81 0854.54
2009/04/23 14:49:01.4    -101     15    -72    103    125 278.8 -42.4  34222  290.64 0854.54
2009/04/23 14:49:01.5      -9    -10   -129     14    129 223.2 -90.0  34208  290.40 0854.54
2009/04/23 14:49:01.6      78    -12    -91     79    120  98.8 -58.7  34198  290.23 0854.54
2009/04/23 14:49:01.7     154    -99    106    184    212 122.9  32.9  34206  290.35 0854.54
2009/04/23 14:49:01.8     106   -240    149    263    302 156.2  32.1  34208  290.39 0854.54
2009/04/23 14:49:01.9     -58   -284    230    291    370 191.6  42.3  34192  290.10 0854.54
2009/04/23 14:49:02.0     -60    -80    272    101    290 217.0  79.1  34210  290.41 0854.54
2009/04/23 14:49:02.1      -2   -116    263    117    287 181.4  74.5  34214  290.49 0854.54
2009/04/23 14:49:02.2     -42    -85    199     95    220 206.3  72.8  34204  290.31 0854.54
2009/04/23 14:49:02.3    -110    -22    137    113    177 258.5  56.3  34212  290.45 0854.54
2009/04/23 14:49:02.4    -213   -118    129    244    276 240.9  30.1  34212  290.44 0854.54
2009/04/23 14:49:02.5    -102    -75     69    127    144 233.6  31.3  34224  290.67 0854.54
2009/04/23 14:49:02.6    -253   -251     32    357    359 225.3   5.2  34208  290.38 0854.54
2009/04/23 14:49:02.7    -318   -266    -19    415    416 230.1  -2.7  34176  289.83 0854.54
2009/04/23 14:49:02.8    -650   -459   -216    796    825 234.8 -15.2  34208  290.38 0854.54
2009/04/23 14:49:02.9    -248   -296    164    387    420 219.9  24.3  34198  290.22 0854.54
2009/04/23 14:49:03.0    -287   -282     79    403    411 225.6  11.1  34194  290.16 0854.55
2009/04/23 14:49:03.1    -302   -180    127    352    375 239.3  19.9  34206  290.35 0854.55
2009/04/23 14:49:03.2    -135   -314    153    342    374 203.3  25.7  34198  290.23 0854.55
2009/04/23 14:49:03.3    -219   -218    -46    310    314 225.2  -8.6  34192  290.10 0854.55
2009/04/23 14:49:03.4     -40   -322    -99    325    340 187.1 -17.0  34214  290.49 0854.55
2009/04/23 14:49:03.5     -47   -184      9    191    192 194.5   2.9  34178  289.89 0854.55
2009/04/23 14:49:03.6    -305   -440     50    536    539 214.7   5.4  34174  289.80 0854.55
2009/04/23 14:49:03.7    -606   -510    -13    793    794 229.9  -1.0  34192  290.13 0854.55
2009/04/23 14:49:03.8    -539   -255    -58    597    600 244.6  -5.6  34180  289.90 0854.55
2009/04/23 14:49:03.9    -546   -248      7    600    601 245.6   0.7  34178  289.86 0854.55
2009/04/23 14:49:04.0    -505   -284    220    580    620 240.6  21.8  34196  290.17 0854.55
2009/04/23 14:49:04.1    -564   -245      3    615    616 246.5   0.3  34180  289.91 0854.55
2009/04/23 14:49:04.2    -712    -74   -267    716    764 264.0 -25.9  34178  289.89 0854.55
2009/04/23 14:49:04.3    -676    -73   -169    681    702 263.8 -14.0  34206  290.36 0854.55
2009/04/23 14:49:04.4    -659      4    -40    660    662 270.4  -3.5  34234  290.83 0854.55
2009/04/23 14:49:04.5    -623    -38   -216    625    662 266.5 -19.1  34190  290.09 0854.55
2009/04/23 14:49:04.6    -739    -96   -310    746    807 262.5 -28.3  34192  290.13 0854.55
2009/04/23 14:49:04.7    -631   -150   -143    649    665 256.6 -12.5  34214  290.49 0854.55
2009/04/23 14:49:04.8    -466     50    -77    469    476 276.2  -9.3  34220  290.59 0854.55
2009/04/23 14:49:04.9    -394    203   -193    444    484 297.3 -29.5  34218  290.56 0854.55
2009/04/23 14:49:05.0    -192    231   -182    301    351 320.4 -38.4  34232  290.79 0854.55
2009/04/23 14:49:05.1     -87    350   -216    361    420 346.0 -38.1  34224  290.67 0854.55
2009/04/23 14:49:05.2    -226    297   -148    374    402 322.8 -27.3  34232  290.79 0854.55
2009/04/23 14:49:05.3      43    325   -113    328    348   7.6 -19.1  34220  290.59 0854.55
2009/04/23 14:49:05.4    -270    227   -116    353    371 310.1 -23.5  34222  290.62 0854.55
2009/04/23 14:49:05.5    -251    118      3    278    279 295.2   0.8  34226  290.70 0854.55
2009/04/23 14:49:05.6    -121     85     17    148    150 305.1   6.9  34216  290.53 0854.55
2009/04/23 14:49:05.7    -124    203      4    239    240 328.6   1.0  34210  290.42 0854.55
2009/04/23 14:49:05.8     -83     75     -1    113    114 312.2  -0.7  34218  290.57 0854.55
2009/04/23 14:49:05.9     -88    -85     24    123    126 226.0  11.1  34222  290.62 0854.55
2009/04/23 14:49:06.0     -41   -124     31    131    135 198.5  13.7  34220  290.60 0854.55
2009/04/23 14:49:06.1      97   -406    114    418    434 166.5  15.3  34200  290.24 0854.55
2009/04/23 14:49:06.2       9   -542    149    543    564 179.0  15.4  34192  290.13 0854.55
2009/04/23 14:49:06.3    -135   -428     80    450    458 197.6  10.1  34192  290.12 0854.55
2009/04/23 14:49:06.4     -88   -414    156    424    451 192.0  21.0  34184  289.99 0854.55
2009/04/23 14:49:06.5     -15   -485    265    486    553 181.8  30.9  34188  290.06 0854.55
2009/04/23 14:49:06.6      44   -542    169    544    570 175.3  17.3  34186  290.01 0854.55
2009/04/23 14:49:06.7     196   -355    289    406    498 151.0  39.0  34198  290.20 0854.55
2009/04/23 14:49:06.8      82   -255    276    269    385 162.1  50.8  34198  290.23 0854.55
2009/04/23 14:49:06.9     -57   -179    251    189    314 197.8  59.2  34174  289.80 0854.55
2009/04/23 14:49:07.0     293   -163    222    336    402 119.1  36.5  34184  289.99 0854.61
2009/04/23 14:49:07.1     316   -291    199    430    473 132.7  26.5  34178  289.88 0854.61
2009/04/23 14:49:07.2     174   -295    275    343    439 149.4  42.8  34188  290.05 0854.61
2009/04/23 14:49:07.3     146    -15    281    147    317  96.1  70.3  34192  290.12 0854.61
2009/04/23 14:49:07.4     210     42    271    215    345  78.6  57.6  34194  290.14 0854.61
2009/04/23 14:49:07.5     -11    -91    272     92    287 187.1  81.2  34204  290.32 0854.61
2009/04/23 14:49:07.6      43    -26    283     51    287 121.5  90.0  34212  290.44 0854.61
2009/04/23 14:49:07.7      41   -240    230    244    335 170.2  48.0  34216  290.51 0854.61
2009/04/23 14:49:07.8      42   -210    242    215    323 168.5  54.0  34228  290.71 0854.61
2009/04/23 14:49:07.9      84   -277    189    290    346 163.1  36.0  34192  290.11 0854.61
2009/04/23 14:49:08.0      90   -288    175    302    349 162.6  32.7  34192  290.11 0854.61
2009/04/23 14:49:08.1      18   -296    198    297    356 176.5  36.9  34194  290.15 0854.61
2009/04/23 14:49:08.2     -25   -243    285    245    375 186.0  54.9  34202  290.28 0854.61
2009/04/23 14:49:08.3    -144   -243    323    283    429 210.8  54.3  34244  291.01 0854.61
2009/04/23 14:49:08.4    -150   -235    211    279    349 212.6  40.8  34240  290.93 0854.61
2009/04/23 14:49:08.5    -158   -179     70    239    250 221.5  16.3  34214  290.48 0854.61
2009/04/23 14:49:08.6      10    -65      9     66     67 171.1   8.0  34216  290.53 0854.61
2009/04/23 14:49:08.7    -116     23     58    119    132 281.4  27.3  34220  290.58 0854.61
2009/04/23 14:49:08.8     -47    -44    155     65    168 226.9  76.1  34230  290.75 0854.61
2009/04/23 14:49:08.9     -65   -160    218    173    278 202.3  57.7  34222  290.61 0854.61
2009/04/23 14:49:09.0    -155   -392    305    422    520 201.7  39.5  34246  291.03 0854.63
2009/04/23 14:49:09.1    -403   -213    173    457    488 242.1  21.7  34250  291.10 0854.63
2009/04/23 14:49:09.2    -344   -146     80    374    383 246.9  12.1  34248  291.06 0854.63
2009/04/23 14:49:09.3    -454   -223    182    506    537 243.8  20.6  34242  290.96 0854.63
2009/04/23 14:49:09.4    -413   -132   -117    434    450 252.2 -15.2  34240  290.94 0854.63
2009/04/23 14:49:09.5    -434     77    210    441    488 280.1  27.3  34254  291.17 0854.63
2009/04/23 14:49:09.6    -389    125     73    409    416 287.9  10.2  34238  290.89 0854.63
2009/04/23 14:49:09.7    -335    150    222    368    429 294.1  34.0  34234  290.84 0854.63
2009/04/23 14:49:09.8    -295    -75    226    305    379 255.6  40.0  34228  290.71 0854.63
2009/04/23 14:49:09.9    -264     37    195    267    330 278.1  39.8  34230  290.76 0854.63
2009/04/23 14:49:10.0    -290     73    164    300    341 284.2  31.0  34226  290.68 0854.63
2009/04/23 14:49:10.1    -342     59     65    348    355 279.8  10.7  34242  290.96 0854.63
2009/04/23 14:49:10.2    -225    184     36    291    294 309.3   7.1  34232  290.78 0854.63
2009/04/23 14:49:10.3    -160     39    -50    165    172 283.9 -22.1  34230  290.77 0854.63
2009/04/23 14:49:10.4    -210     32    -95    213    233 278.8 -30.3  34236  290.87 0854.63
2009/04/23 14:49:10.5    -226    107      7    251    252 295.4   1.7  34256  291.21 0854.63
2009/04/23 14:49:10.6    -250    217    111    332    351 310.9  18.6  34266  291.37 0854.63
2009/04/23 14:49:10.7    -145    164    138    220    259 318.6  35.5  34258  291.22 0854.63
2009/04/23 14:49:10.8    -179    178    162    253    300 314.8  35.6  34250  291.09 0854.63
2009/04/23 14:49:10.9    -169     91    162    193    251 298.4  44.3  34276  291.53 0854.63
2009/04/23 14:49:11.0    -151    104     70    184    196 304.6  22.0  34268  291.42 0854.53
2009/04/23 14:49:11.1       4    324    155    325    360   0.7  27.3  34264  291.35 0854.53
2009/04/23 14:49:11.2     -27    376    148    377    405 355.9  22.5  34268  291.40 0854.53
2009/04/23 14:49:11.3     -75    343     40    352    355 347.6   6.6  34264  291.34 0854.53
2009/04/23 14:49:11.4    -132    311     91    339    352 337.0  15.1  34278  291.56 0854.53
2009/04/23 14:49:11.5    -177    228     79    289    300 322.2  15.3  34282  291.65 0854.53
2009/04/23 14:49:11.6    -145    308     69    341    348 334.7  11.5  34272  291.49 0854.53
2009/04/23 14:49:11.7     -30    496     85    497    505 356.5   9.7  34246  291.03 0854.53
2009/04/23 14:49:11.8     138    553    230    571    615  14.1  23.1  34262  291.32 0854.53
2009/04/23 14:49:11.9      94    461    178    471    503  11.6  21.7  34260  291.27 0854.53
2009/04/23 14:49:12.0     -20    320    154    321    356 356.4  27.3  34288  291.76 0854.50
2009/04/23 14:49:12.1     -71    344     46    352    356 348.3   7.6  34294  291.85 0854.50
2009/04/23 14:49:12.2      47    485     58    488    492   5.6   6.9  34272  291.47 0854.50
2009/04/23 14:49:12.3      88    272    125    287    313  18.0  25.1  34262  291.31 0854.50
2009/04/23 14:49:12.4     337    280    119    439    455  50.3  15.2  34244  291.01 0854.50
2009/04/23 14:49:12.5     230    279     47    362    366  39.5   7.5  34260  291.27 0854.50
2009/04/23 14:49:12.6     204    113    224    234    323  61.1  48.8  34252  291.12 0854.50
2009/04/23 14:49:12.7     266    218    154    345    377  50.7  25.7  34258  291.25 0854.50
2009/04/23 14:49:12.8     178    -15    182    179    255  95.0  50.4  34268  291.39 0854.50
2009/04/23 14:49:12.9    -144    -16    131    145    195 263.4  46.9  34260  291.28 0854.50
2009/04/23 14:49:13.0    -275   -195    164    338    375 234.7  27.8  34252  291.15 0854.50
2009/04/23 14:49:13.1    -263   -167    209    312    375 237.5  37.0  34256  291.20 0854.50
2009/04/23 14:49:13.2    -105   -252    235    274    360 202.7  45.1  34216  290.52 0854.50
2009/04/23 14:49:13.3     -42   -227    234    231    328 190.5  50.2  34232  290.78 0854.50
2009/04/23 14:49:13.4     -51   -285    324    290    434 190.2  53.6  34238  290.89 0854.50
2009/04/23 14:49:13.5      60   -275    154    282    321 167.6  31.0  34256  291.21 0854.50
2009/04/23 14:49:13.6     220    -73    229    232    325 108.4  49.9  34276  291.55 0854.50
2009/04/23 14:49:13.7     192    -36    205    196    283 100.8  51.2  34272  291.48 0854.50
2009/04/23 14:49:13.8      91    -41    180    100    205 114.4  68.8  34274  291.50 0854.50
2009/04/23 14:49:13.9     211    -16    237    212    317  94.6  53.6  34274  291.50 0854.50
2009/04/23 14:49:14.0      91    -41    218    100    239 114.4  74.0  34252  291.13 0854.51
2009/04/23 14:49:14.1     -62    -83    204    104    228 217.0  71.0  34238  290.89 0854.51
2009/04/23 14:49:14.2     -50   -368    240    372    442 187.8  35.7  34192  290.12 0854.51
2009/04/23 14:49:14.3     -73   -559    308    564    642 187.5  31.0  34204  290.33 0854.51
2009/04/23 14:49:14.4     -95   -387    269    399    481 193.9  37.2  34206  290.34 0854.51
2009/04/23 14:49:14.5    -157   -316    184    354    398 206.5  29.6  34202  290.28 0854.51
2009/04/23 14:49:14.6     -84   -274    249    287    379 197.2  45.6  34248  291.08 0854.51
2009/04/23 14:49:14.7     -52   -340    272    344    438 188.8  42.4  34210  290.41 0854.51
2009/04/23 14:49:14.8      30   -277    210    279    349 173.7  40.8  34208  290.39 0854.51
2009/04/23 14:49:14.9       0   -159    140    160    212 180.0  45.8  34200  290.25 0854.51
2009/04/23 14:49:15.0     117      0    120    118    168  89.6  50.1  34232  290.81 0854.51
2009/04/23 14:49:15.1     166    107    130    198    236  57.1  36.5  34266  291.38 0854.51
2009/04/23 14:49:15.2     110    158    105    193    219  35.0  31.3  34286  291.72 0854.51
2009/04/23 14:49:15.3     105     49    162    117    199  64.8  60.6  34284  291.67 0854.51
2009/04/23 14:49:15.4     146    128    180    195    265  48.7  47.7  34296  291.89 0854.51
2009/04/23 14:49:15.5     -55    165    146    175    227 341.5  43.8  34276  291.54 0854.51
2009/04/23 14:49:15.6     117     83    121    144    188  54.5  44.1  34290  291.77 0854.51
2009/04/23 14:49:15.7      89     64     93    110    144  54.1  44.3  34288  291.74 0854.51
2009/04/23 14:49:15.8     131    115     27    175    178  48.7   9.0  34300  291.95 0854.51
2009/04/23 14:49:15.9      69     64     32     95    101  47.3  18.9  34296  291.89 0854.51
2009/04/23 14:49:16.0      20     61      3     65     66  18.3   2.9  34306  292.06 0854.50
2009/04/23 14:49:16.1     -66     73     -3     99    100 318.1  -2.2  34290  291.79 0854.50
2009/04/23 14:49:16.2     -63    207    187    217    286 343.1  45.4  34316  292.23 0854.50
2009/04/23 14:49:16.3      54     70    141     89    166  37.4  64.7  34316  292.22 0854.50
2009/04/23 14:49:16.4      61      4    137     62    150  85.6  74.0  34334  292.54 0854.50
2009/04/23 14:49:16.5     224    203    -16    303    304  47.8  -3.2  34346  292.74 0854.50
2009/04/23 14:49:16.6     329     91    128    342    365  74.5  21.4  34356  292.90 0854.50
2009/04/23 14:49:16.7     440    305    210    536    575  55.3  22.5  34310  292.11 0854.50
2009/04/23 14:49:16.8     444    210     20    492    493  64.7   2.4  34250  291.10 0854.50
2009/04/23 14:49:16.9     513    283     85    586    593  61.1   8.3  34250  291.10 0854.50
2009/04/23 14:49:17.0     552    282    112    620    631  62.9  10.2  34268  291.39 0854.50
2009/04/23 14:49:17.1     511    228    102    560    570  65.9  10.4  34246  291.04 0854.50
2009/04/23 14:49:17.2     611    239     65    657    661  68.6   5.7  34212  290.46 0854.50
2009/04/23 14:49:17.3     795    342    203    866    890  66.7  13.2  34252  291.15 0854.50
2009/04/23 14:49:17.4     694    300    155    757    774  66.6  11.6  34238  290.91 0854.50
2009/04/23 14:49:17.5     573    278    299    637    703  64.1  27.0  34328  292.42 0854.50
2009/04/23 14:49:17.6     551    125    224    566    608  77.2  23.0  34236  290.85 0854.50
2009/04/23 14:49:17.7     611    165    227    634    673  74.9  20.6  34264  291.33 0854.50
2009/04/23 14:49:17.8     648    169    215    670    704  75.4  17.8  34270  291.43 0854.50
2009/04/23 14:49:17.9     520    226    147    568    587  66.5  14.5  34252  291.12 0854.47
2009/04/23 14:49:18.0     462     85    233    470    524  79.5  28.2  34298  291.92 0854.47
2009/04/23 14:49:18.1     440      6    208    441    487  89.2  27.1  34302  291.97 0854.47
2009/04/23 14:49:18.2     350   -328    286    480    558 133.1  33.5  34282  291.65 0854.47
2009/04/23 14:49:18.3     446    -27    291    447    533  93.5  36.0  34306  292.05 0854.47
2009/04/23 14:49:18.4     398     33    140    400    423  85.2  20.0  34310  292.13 0854.47
2009/04/23 14:49:18.5     297    -64    173    304    349 102.2  32.3  34290  291.79 0854.47
2009/04/23 14:49:18.6     250   -100     64    270    278 111.8  13.5  34288  291.73 0854.47
2009/04/23 14:49:18.7     271    -59    102    278    296 102.4  21.0  34312  292.14 0854.47
2009/04/23 14:49:18.8     131   -328    185    354    399 158.2  30.0  34270  291.44 0854.47
2009/04/23 14:49:18.9     213   -346    143    407    432 148.4  19.4  34250  291.09 0854.47
2009/04/23 14:49:19.0     163   -141    179    216    280 130.9  43.8  34300  291.94 0854.47
2009/04/23 14:49:19.1     204    -45    247    210    324 102.6  55.5  34330  292.45 0854.47
2009/04/23 14:49:19.2     117   -281    189    305    358 157.3  34.9  34336  292.56 0854.47
2009/04/23 14:49:19.3     123   -260    279    288    400 154.7  49.2  34332  292.49 0854.47
2009/04/23 14:49:19.4     196   -132    252    237    345 124.0  52.1  34324  292.36 0854.47
2009/04/23 14:49:19.5       7    -22    255     24    256 161.3  90.0  34348  292.78 0854.47
2009/04/23 14:49:19.6     113     47    155    123    197  67.4  57.7  34318  292.27 0854.47
2009/04/23 14:49:19.7     256     -3    330    257    418  90.8  58.3  34298  291.90 0854.47
2009/04/23 14:49:19.8     181     83    238    200    310  65.2  56.1  34282  291.65 0854.47
2009/04/23 14:49:19.9     333    233     71    407    414  55.0  10.0  34288  291.74 0854.49
2009/04/23 14:49:20.0     149    413   -264    440    513  19.9 -38.1  34282  291.64 0854.49
2009/04/23 14:49:20.1    -309   -215    251    377    452 235.2  36.9  34266  291.38 0854.49
2009/04/23 14:49:20.3    -135   -232    346    269    438 210.1  58.4  34224  290.66 0854.49
2009/04/23 14:49:20.4    -197   -333    138    388    411 210.7  20.4  34230  290.75 0854.49
2009/04/23 14:49:20.5    -113   -270    174    293    340 202.8  33.6  34222  290.61 0854.49
2009/04/23 14:49:20.6    -102   -280    201    299    360 200.1  37.2  34218  290.57 0854.49
2009/04/23 14:49:20.7    -118   -341    214    362    420 199.2  33.5  34244  291.01 0854.49
2009/04/23 14:49:20.8    -142   -396    217    421    473 199.8  29.4  34204  290.33 0854.49
2009/04/23 14:49:20.9      64   -324    157    331    366 168.8  27.3  34208  290.37 0854.49
2009/04/23 14:49:21.0     -27   -294    150    296    331 185.3  29.1  34198  290.22 0854.49
2009/04/23 14:49:21.1     -48   -310    184    314    363 188.9  33.3  34192  290.11 0854.49
2009/04/23 14:49:21.2     -85   -257     53    271    277 198.3  11.1  34198  290.22 0854.49
2009/04/23 14:49:21.3     -93   -237     73    255    266 201.6  16.0  34192  290.10 0854.49
2009/04/23 14:49:21.4     -34   -182     49    186    193 190.7  15.0  34196  290.19 0854.49
2009/04/23 14:49:21.5     -33   -115     46    120    128 196.0  22.0  34200  290.26 0854.49
2009/04/23 14:49:21.6     -27   -133    167    136    215 191.5  56.4  34216  290.53 0854.49
2009/04/23 14:49:21.7     -73   -318    228    327    398 193.0  38.3  34208  290.37 0854.49
2009/04/23 14:49:21.8      -8   -417    121    418    436 181.1  16.1  34206  290.34 0854.49
2009/04/23 14:49:21.9    -126   -430    173    449    481 196.4  22.2  34198  290.20 0854.49
2009/04/23 14:49:22.0     -83   -443    109    451    465 190.7  13.7  34194  290.14 0854.46
2009/04/23 14:49:22.1    -166   -348    135    386    409 205.5  19.3  34198  290.23 0854.46
2009/04/23 14:49:22.2    -204   -452     97    497    507 204.3  11.1  34220  290.59 0854.46
2009/04/23 14:49:22.3    -216   -481     63    528    532 204.2   6.9  34236  290.86 0854.46
2009/04/23 14:49:22.4    -219   -421      1    475    476 207.5   0.2  34238  290.91 0854.46
2009/04/23 14:49:22.5    -347   -327    -29    477    478 226.7  -3.5  34236  290.86 0854.46
2009/04/23 14:49:22.6    -375   -272   -114    464    478 234.0 -13.9  34236  290.86 0854.46
2009/04/23 14:49:22.7    -227   -358    -97    424    435 212.4 -12.9  34224  290.67 0854.46
2009/04/23 14:49:22.8    -131   -441      2    461    462 196.5   0.4  34212  290.46 0854.46
2009/04/23 14:49:22.9     -99   -334    136    349    374 196.6  22.5  34202  290.28 0854.46
2009/04/23 14:49:23.0    -105   -195    103    222    244 208.5  26.6  34238  290.90 0854.46
2009/04/23 14:49:23.1    -166   -252     27    302    304 213.4   5.2  34212  290.44 0854.46
2009/04/23 14:49:23.2    -193   -212    -13    288    289 222.3  -2.6  34216  290.51 0854.46
2009/04/23 14:49:23.3    -144   -202    -22    249    251 215.6  -5.2  34216  290.51 0854.46
2009/04/23 14:49:23.4    -233   -127     22    266    268 241.4   4.9  34238  290.88 0854.46
2009/04/23 14:49:23.5    -204    -98    -47    227    233 244.2 -11.9  34240  290.92 0854.46
2009/04/23 14:49:23.6    -249   -139    -47    286    290 240.9  -9.4  34244  291.00 0854.46
2009/04/23 14:49:23.7    -297    -50    -71    302    311 260.4 -13.3  34236  290.87 0854.46
2009/04/23 14:49:23.8    -205   -104    -64    231    240 243.0 -15.5  34234  290.82 0854.46
2009/04/23 14:49:23.9    -264   -198    -91    331    343 233.1 -20.0  34252  291.15 0854.46
2009/04/23 14:49:24.0    -356   -202   -129    410    430 240.5 -17.5  34244  291.01 0854.44
2009/04/23 14:49:24.1    -276   -264   -134    383    406 226.3 -19.3  34240  290.94 0854.44
2009/04/23 14:49:24.2    -275   -234    -99    362    376 229.6 -15.4  34248  291.05 0854.44
2009/04/23 14:49:24.3    -208   -221   -102    304    320 223.3 -23.6  34232  290.80 0854.44
2009/04/23 14:49:24.4    -243   -115    -92    270    285 244.6 -23.8  34246  291.04 0854.44
2009/04/23 14:49:24.5    -200   -106     86    227    242 242.0  21.7  34262  291.29 0854.44
2009/04/23 14:49:24.6    -151   -181    173    236    292 219.9  39.7  34282  291.65 0854.44
2009/04/23 14:49:24.7    -150   -183    144    237    277 219.4  34.2  34294  291.85 0854.44
2009/04/23 14:49:24.8    -120    -76    188    143    236 237.6  59.0  34294  291.86 0854.44
2009/04/23 14:49:24.9    -125    135    179    185    257 317.2  49.0  34328  292.41 0854.44
2009/04/23 14:49:25.0    -113    250    186    275    331 335.7  37.3  34334  292.52 0854.44
2009/04/23 14:49:25.1    -191    206    166    282    327 317.2  33.3  34322  292.31 0854.44
2009/04/23 14:49:25.2    -225    246     33    334    336 317.5   5.8  34340  292.63 0854.44
2009/04/23 14:49:25.3    -347    177    -50    390    394 297.1  -7.4  34272  291.47 0854.44
2009/04/23 14:49:25.4    -388     18   -191    389    433 272.7 -32.6  34180  289.92 0854.44
2009/04/23 14:49:25.5    -559   -253   -195    614    644 245.6 -22.6  34168  289.72 0854.44
2009/04/23 14:49:25.6    -322   -330   -159    462    488 224.3 -23.9  34178  289.86 0854.44
2009/04/23 14:49:25.7    -129   -274   -102    304    320 205.3 -23.6  34210  290.42 0854.44
2009/04/23 14:49:25.8     -86   -148     98    172    197 210.1  32.4  34196  290.19 0854.44
2009/04/23 14:49:25.9     -27   -157    201    160    256 189.8  57.5  34182  289.96 0854.44
2009/04/23 14:49:26.0     -48   -109    260    120    286 203.6  73.5  34212  290.46 0854.45
2009/04/23 14:49:26.1    -155   -154    259    219    339 225.2  55.6  34234  290.82 0854.45
2009/04/23 14:49:26.2      38    -72    167     82    186 151.9  72.4  34226  290.69 0854.45
2009/04/23 14:49:26.3     -39    192    199    196    279 348.5  50.2  34280  291.60 0854.45
2009/04/23 14:49:26.4     -39    110    152    117    191 340.4  58.5  34282  291.66 0854.45
2009/04/23 14:49:26.5     -36    134    170    139    219 344.9  56.4  34290  291.77 0854.45
2009/04/23 14:49:26.6    -108    108     92    154    179 315.0  33.7  34296  291.89 0854.45
2009/04/23 14:49:26.7     -93    127     73    158    174 323.9  26.6  34296  291.88 0854.45
2009/04/23 14:49:26.8    -120    100     72    157    172 309.6  26.4  34302  291.98 0854.45
2009/04/23 14:49:26.9     -67    129     -3    146    147 332.4  -1.3  34262  291.32 0854.45
2009/04/23 14:49:27.0     -41    208     10    213    214 348.9   2.8  34272  291.47 0854.45
2009/04/23 14:49:27.1     171    235    -11    291    292  36.1  -2.2  34244  291.00 0854.45
2009/04/23 14:49:27.2     395    360    206    535    573  47.7  22.1  34236  290.87 0854.45
2009/04/23 14:49:27.3     191    404    144    447    470  25.3  17.9  34234  290.84 0854.45
2009/04/23 14:49:27.4     -50    335    174    339    381 351.4  29.3  34268  291.39 0854.45
2009/04/23 14:49:27.5      94    214    150    234    277  23.7  35.6  34270  291.43 0854.45
2009/04/23 14:49:27.6     424    308    -67    525    530  54.0  -7.3  34226  290.70 0854.45
2009/04/23 14:49:27.7     541    240     73    593    598  66.0   7.1  34232  290.81 0854.45
2009/04/23 14:49:27.8     519    265     17    583    584  62.9   1.7  34226  290.70 0854.45
2009/04/23 14:49:27.9     566    208    107    604    614  69.8  10.1  34236  290.87 0854.45
2009/04/23 14:49:28.0     413     12     89    414    424  88.3  12.2  34224  290.67 0854.47
2009/04/23 14:49:28.1     389    160     21    421    422  67.6   2.9  34244  291.01 0854.47
2009/04/23 14:49:28.2     345    345    105    489    501  45.0  12.1  34252  291.13 0854.47
2009/04/23 14:49:28.3     247    297    150    387    415  39.7  22.3  34292  291.80 0854.47
2009/04/23 14:49:28.4     502    256    -34    564    566  62.9  -3.5  34270  291.43 0854.47
2009/04/23 14:49:28.5     682    184     17    707    708  74.9   1.4  34258  291.22 0854.47
2009/04/23 14:49:28.6     423    184    -37    462    464  66.5  -4.6  34286  291.72 0854.47
2009/04/23 14:49:28.7     236     53    -65    243    252  77.2 -15.0  34328  292.43 0854.47
2009/04/23 14:49:28.8      41    173     46    178    185  13.4  14.7  34324  292.37 0854.47
2009/04/23 14:49:28.9      89    242     75    259    270  20.3  16.3  34336  292.57 0854.47
2009/04/23 14:49:29.0     108    247     31    270    272  23.6   6.7  34328  292.41 0854.47
2009/04/23 14:49:29.1      79    218      4    233    234  20.1   1.2  34328  292.41 0854.47
2009/04/23 14:49:29.2      54    263    -95    269    286  11.8 -19.6  34314  292.18 0854.47
2009/04/23 14:49:29.3     239    239     60    339    345  45.0  10.1  34326  292.39 0854.47
2009/04/23 14:49:29.4     582    303     13    657    658  62.5   1.2  34294  291.84 0854.47
2009/04/23 14:49:29.5     369    150     12    399    400  67.9   1.8  34260  291.27 0854.47
2009/04/23 14:49:29.6     444    186     19    482    483  67.3   2.3  34258  291.24 0854.47
2009/04/23 14:49:29.7     499    185     86    533    541  69.6   9.2  34262  291.31 0854.47
2009/04/23 14:49:29.8     506    278    198    578    612  61.2  18.9  34328  292.43 0854.47
2009/04/23 14:49:29.9     606    184    205    634    667  73.1  17.9  34244  290.99 0854.47
2009/04/23 14:49:30.0     599    371    198    705    733  58.2  15.7  34278  291.58 0854.45
2009/04/23 14:49:30.1     642    142    272    658    712  77.5  23.8  34242  290.95 0854.45
2009/04/23 14:49:30.2     589     76    160    594    616  82.6  15.1  34246  291.04 0854.45
2009/04/23 14:49:30.3     549    276     81    615    621  63.3   7.6  34228  290.72 0854.45
2009/04/23 14:49:30.4     554    167    163    579    602  73.2  15.8  34238  290.90 0854.45
2009/04/23 14:49:30.5     493     49    303    496    581  84.3  34.4  34278  291.57 0854.45
2009/04/23 14:49:30.6     593    140    166    610    633  76.7  15.3  34230  290.77 0854.45
2009/04/23 14:49:30.7     540    235    250    589    639  66.5  24.4  34238  290.89 0854.45
2009/04/23 14:49:30.8     415    263    184    492    525  57.6  21.5  34222  290.64 0854.45
2009/04/23 14:49:30.9     380    305     -2    488    489  51.3  -0.3  34248  291.05 0854.45
2009/04/23 14:49:31.0     461    320      8    562    563  55.2   0.9  34244  290.99 0854.45
2009/04/23 14:49:31.1     460    296     10    548    549  57.2   1.1  34228  290.74 0854.45
2009/04/23 14:49:31.2     426    331    -37    540    542  52.2  -4.0  34218  290.55 0854.45
2009/04/23 14:49:31.3     495    321     51    591    594  57.0   5.0  34250  291.10 0854.45
2009/04/23 14:49:31.4     361    237     51    433    437  56.7   6.8  34256  291.19 0854.45
2009/04/23 14:49:31.5     582    272    138    643    658  65.0  12.1  34274  291.52 0854.45
2009/04/23 14:49:31.6     493    345    218    602    641  55.0  19.9  34296  291.88 0854.45
2009/04/23 14:49:31.7     524    274    211    592    629  62.4  19.7  34272  291.49 0854.45
2009/04/23 14:49:31.8     487    339    206    594    629  55.1  19.2  34268  291.42 0854.45
2009/04/23 14:49:31.9     503    289    248    581    631  60.1  24.5  34300  291.96 0854.45
2009/04/23 14:49:32.0     305    197    275    364    456  57.1  40.8  34314  292.20 0854.44
2009/04/23 14:49:32.1     401    381    200    554    590  46.5  19.9  34278  291.58 0854.44
2009/04/23 14:49:32.2     400    213    191    454    492  62.0  24.1  34268  291.39 0854.44
2009/04/23 14:49:32.3     380     28    305    381    488  85.7  42.8  34262  291.29 0854.44
2009/04/23 14:49:32.4     316     54    279    321    425  80.3  45.5  34272  291.49 0854.44
2009/04/23 14:49:32.5     179     62    279    190    337  70.7  62.6  34276  291.53 0854.44
2009/04/23 14:49:32.6     206      7    294    207    359  87.9  61.7  34278  291.58 0854.44
2009/04/23 14:49:32.7     271     99    262    289    390  69.8  46.9  34302  292.00 0854.44
2009/04/23 14:49:32.8     219    207    321    302    440  46.7  52.1  34312  292.17 0854.44
2009/04/23 14:49:32.9     218    138    279    259    380  57.6  52.3  34322  292.31 0854.44
2009/04/23 14:49:33.0     123    -28    252    127    282 103.2  71.1  34328  292.41 0854.44
2009/04/23 14:49:33.1     -37     68     75     78    108 331.0  49.0  34318  292.25 0854.44
2009/04/23 14:49:33.2     164     73    148    180    233  66.0  43.7  34312  292.17 0854.44
2009/04/23 14:49:33.3     104    229     40    252    256  24.5   9.0  34318  292.24 0854.44
2009/04/23 14:49:33.4    -180     63    236    191    303 289.3  56.6  34316  292.23 0854.44
2009/04/23 14:49:33.5      23    -82    180     86    199 164.4  72.8  34338  292.61 0854.44
2009/04/23 14:49:33.6     218    204     25    299    301  46.9   4.9  34356  292.91 0854.44
2009/04/23 14:49:33.7     171    423    -29    457    458  22.1  -3.7  34318  292.25 0854.44
2009/04/23 14:49:33.8       0    236   -230    237    330   0.0 -53.7  34236  290.87 0854.44
2009/04/23 14:49:33.9      19     47   -209     51    215  22.7 -90.0  34246  291.03 0854.44
2009/04/23 14:49:34.0      14    -99   -300    101    316 171.5 -85.4  34222  290.63 0854.47
2009/04/23 14:49:34.1      64   -148   -184    162    245 156.4 -58.7  34214  290.50 0854.47
2009/04/23 14:49:34.2      70    -44   -148     83    169 122.4 -72.7  34202  290.28 0854.47
2009/04/23 14:49:34.3      39      1   -122     40    128  87.4 -85.1  34226  290.69 0854.47
2009/04/23 14:49:34.4    -171     11    -64    172    183 273.7 -25.7  34238  290.89 0854.47
2009/04/23 14:49:34.5    -230    -87    -40    247    251 249.2  -9.4  34264  291.34 0854.47
2009/04/23 14:49:34.6     -63   -213    248    223    333 196.5  53.4  34294  291.84 0854.47
2009/04/23 14:49:34.7    -368   -222    130    431    451 238.9  16.8  34302  291.99 0854.47
2009/04/23 14:49:34.8    -333   -286     46    440    443 229.4   6.1  34298  291.92 0854.47
2009/04/23 14:49:34.9    -101   -415     67    428    434 193.7   9.0  34248  291.07 0854.47
2009/04/23 14:49:35.0     -80   -447    220    455    505 190.2  27.7  34244  291.00 0854.44
2009/04/23 14:49:35.1     -85   -346    208    357    413 193.9  32.9  34234  290.83 0854.44
2009/04/23 14:49:35.2     -19   -187    119    189    223 186.0  35.5  34234  290.84 0854.44
2009/04/23 14:49:35.3      53   -122    103    134    169 156.3  41.4  34250  291.09 0854.44
2009/04/23 14:49:35.4     -17   -223    140    224    264 184.4  35.5  34256  291.21 0854.44
2009/04/23 14:49:35.5     168   -585     79    609    615 164.0   7.4  34232  290.81 0854.44
2009/04/23 14:49:35.6    -125   -463     53    480    484 195.2   6.4  34240  290.93 0854.44
2009/04/23 14:49:35.7      46   -464   -108    467    480 174.3 -13.0  34248  291.05 0854.44
2009/04/23 14:49:35.8      33   -153    149    157    216 167.5  48.2  34256  291.20 0854.44
2009/04/23 14:49:35.9     -66   -236    282    246    374 195.6  54.4  34272  291.49 0854.44
2009/04/23 14:49:36.0    -154   -178    240    236    336 221.0  50.6  34264  291.34 0854.44
2009/04/23 14:49:36.1    -171   -111    205    205    289 236.9  50.1  34272  291.48 0854.44
2009/04/23 14:49:36.2    -115    -79    130    140    191 235.4  47.9  34270  291.43 0854.44
2009/04/23 14:49:36.3     -94      5    168     95    193 273.5  68.1  34276  291.55 0854.44
2009/04/23 14:49:36.4     -94    -97    121    136    182 224.1  46.4  34252  291.15 0854.44
2009/04/23 14:49:36.5     -97     62     87    116    145 302.5  40.1  34268  291.42 0854.44
2009/04/23 14:49:36.6    -117     79     98    142    172 304.2  37.8  34256  291.21 0854.44
2009/04/23 14:49:36.7     -66     -9     90     67    112 262.0  60.0  34258  291.25 0854.44
2009/04/23 14:49:36.8     -42    -91     35    101    108 204.9  19.4  34254  291.16 0854.44
2009/04/23 14:49:36.9     -66    -58     58     88    105 228.7  36.0  34268  291.40 0854.44
2009/04/23 14:49:37.0    -101    -82    -30    131    135 230.9 -12.9  34260  291.26 0854.44
2009/04/23 14:49:37.1     -86   -135    -64    161    173 212.5 -26.9  34252  291.15 0854.44
2009/04/23 14:49:37.2     -12   -112    -61    113    128 186.2 -35.2  34236  290.87 0854.44
2009/04/23 14:49:37.3     -39    -89     20     98    101 203.6  11.6  34252  291.13 0854.44
2009/04/23 14:49:37.4     -40   -106     29    114    118 200.9  14.7  34244  291.01 0854.44
2009/04/23 14:49:37.5     -57    -87     54    105    118 213.4  29.2  34242  290.98 0854.44
2009/04/23 14:49:37.6    -181    -89     -2    202    203 243.8  -0.7  34254  291.18 0854.44
2009/04/23 14:49:37.7    -175    -18     11    176    177 264.1   3.6  34254  291.18 0854.44
2009/04/23 14:49:37.8    -130     -2    107    131    169 268.7  43.7  34260  291.26 0854.44
2009/04/23 14:49:37.9    -134    -19     46    136    144 261.6  18.9  34256  291.20 0854.44
2009/04/23 14:49:38.0    -134      0     90    135    162 270.4  37.0  34252  291.13 0854.44
2009/04/23 14:49:38.1    -129    -60     84    143    165 244.8  33.1  34254  291.16 0854.44
2009/04/23 14:49:38.2     -91    -75     17    119    121 230.4   8.5  34252  291.15 0854.44
2009/04/23 14:49:38.3    -135    -44     35    143    148 251.8  13.7  34254  291.18 0854.44
2009/04/23 14:49:38.4    -156    -40     49    162    170 255.4  16.8  34252  291.15 0854.44
2009/04/23 14:49:38.5    -153    -41     30    159    162 254.9  10.8  34254  291.18 0854.44
2009/04/23 14:49:38.6    -100    -10      8    101    102 263.9   4.9  34252  291.15 0854.44
2009/04/23 14:49:38.7     -54    -45     12     71     73 230.5  10.1  34244  291.01 0854.44
2009/04/23 14:49:38.8     -35      7     12     36     39 281.4  19.4  34244  290.99 0854.44
2009/04/23 14:49:38.9     -86    -23    -29     90     94 254.9 -23.8  34250  291.09 0854.44
2009/04/23 14:49:39.0     -39    -20     21     44     48 242.9  26.2  34252  291.13 0854.48
2009/04/23 14:49:39.1      -3    -16     24     17     29 191.6  62.6  34252  291.13 0854.48
2009/04/23 14:49:39.2      20      4     62     21     65  76.7  81.0  34258  291.25 0854.48
2009/04/23 14:49:39.3       8     -8     69     12     70 133.1  90.0  34272  291.49 0854.48
2009/04/23 14:49:39.4     -31    -17     83     36     90 241.1  75.0  34286  291.71 0854.48
2009/04/23 14:49:39.5     -46     -1     50     47     68 268.3  51.2  34286  291.72 0854.48
2009/04/23 14:49:39.6      42    -24     59     49     76 120.7  56.3  34296  291.89 0854.48
2009/04/23 14:49:39.7       8    -40     76     41     86 168.4  69.3  34306  292.05 0854.48
2009/04/23 14:49:39.8      16    -74     87     76    115 167.5  54.8  34308  292.08 0854.48
2009/04/23 14:49:39.9    -164    -38     69    169    182 257.0  23.1  34302  291.98 0854.48
2009/04/23 14:49:40.0    -116    -61    142    132    193 242.0  52.1  34300  291.96 0854.48
2009/04/23 14:49:40.1     -76     13     93     78    121 279.7  55.8  34302  291.98 0854.48
2009/04/23 14:49:40.2      -7     -6    143     10    143 226.9  90.0  34312  292.17 0854.48
2009/04/23 14:49:40.3     192     66    201    204    286  70.9  49.9  34276  291.53 0854.48
2009/04/23 14:49:40.4     187     76    197    203    282  67.8  49.4  34296  291.87 0854.48
2009/04/23 14:49:40.5     157     61    185    169    250  68.7  53.0  34296  291.88 0854.48
2009/04/23 14:49:40.6      65    -14    150     67    164 102.4  74.5  34312  292.17 0854.48
2009/04/23 14:49:40.7     116    -35    144    122    188 106.8  55.8  34300  291.96 0854.48
2009/04/23 14:49:40.8      44    -82    112     94    146 151.9  56.3  34316  292.22 0854.48
2009/04/23 14:49:40.9     -42   -128    129    135    186 198.3  48.7  34320  292.30 0854.48
2009/04/23 14:49:41.0      -7    -97    144     98    174 184.4  62.8  34302  292.00 0854.49
2009/04/23 14:49:41.1     -25    -20    118     33    122 230.5  84.4  34312  292.15 0854.49
2009/04/23 14:49:41.2    -125   -158    215    202    295 218.3  52.1  34266  291.36 0854.49
2009/04/23 14:49:41.3     -51   -166    136    174    220 197.2  42.0  34256  291.21 0854.49
2009/04/23 14:49:41.4     128   -132    221    184    287 135.9  56.3  34270  291.44 0854.49
2009/04/23 14:49:41.5     225   -226    203    320    378 135.1  35.5  34244  291.01 0854.49
2009/04/23 14:49:41.6     181   -215    194    282    342 139.9  37.8  34214  290.49 0854.49
2009/04/23 14:49:41.7     102   -227    157    250    295 155.7  35.5  34214  290.48 0854.49
2009/04/23 14:49:41.8       0   -358    228    359    425 180.1  35.5  34202  290.28 0854.49
2009/04/23 14:49:41.9       7   -511    229    512    560 179.1  25.7  34198  290.23 0854.49
2009/04/23 14:49:42.1     -16   -511    204    512    551 181.9  23.0  34210  290.43 0854.49
2009/04/23 14:49:42.1      11   -296    175    297    344 177.8  33.3  34214  290.50 0854.49
2009/04/23 14:49:42.2      57   -265    189    272    331 167.7  38.0  34210  290.42 0854.49
2009/04/23 14:49:42.3     132   -279    155    309    345 154.7  28.6  34212  290.45 0854.49
2009/04/23 14:49:42.4     118   -216    123    247    275 151.3  28.2  34208  290.39 0854.49
2009/04/23 14:49:42.5     143   -257    -16    295    296 150.8  -3.1  34202  290.27 0854.49
2009/04/23 14:49:42.6     127   -340    -32    364    366 159.5  -5.1  34200  290.25 0854.49
2009/04/23 14:49:42.7     -21   -159   -120    161    200 187.6 -44.8  34202  290.30 0854.49
2009/04/23 14:49:42.8     -78   -192    -81    208    223 202.1 -26.7  34206  290.35 0854.49
2009/04/23 14:49:42.9      67   -327    -67    334    341 168.3 -11.3  34204  290.33 0854.49
2009/04/23 14:49:43.0     101   -277      1    296    297 159.9   0.2  34208  290.37 0854.53
2009/04/23 14:49:43.1     100   -155     65    185    197 147.0  19.6  34208  290.40 0854.53
2009/04/23 14:49:43.2       5    -67     45     68     81 175.6  36.5  34212  290.47 0854.53
2009/04/23 14:49:43.3       5    -69    106     70    127 175.5  63.6  34224  290.65 0854.53
2009/04/23 14:49:43.4     -65    -36     31     75     81 241.2  23.6  34226  290.70 0854.53
2009/04/23 14:49:43.5     -29     49     81     58     99 329.3  60.6  34226  290.69 0854.53
2009/04/23 14:49:43.6     -63    -30    143     70    159 244.6  72.1  34218  290.55 0854.53
2009/04/23 14:49:43.7     -29     92     81     97    126 342.6  44.3  34216  290.52 0854.53
2009/04/23 14:49:43.8     -30    138     71    142    158 347.5  28.5  34214  290.50 0854.53
2009/04/23 14:49:43.9     -86    151     83    174    192 330.4  27.2  34214  290.48 0854.53
2009/04/23 14:49:44.0    -104    163     30    194    197 327.4   9.0  34216  290.52 0854.53
2009/04/23 14:49:44.1     -61    200     55    210    218 343.1  14.7  34214  290.48 0854.53
2009/04/23 14:49:44.2     -91    186     42    208    213 333.9  11.6  34218  290.55 0854.53
2009/04/23 14:49:44.3    -119    133     18    179    180 318.3   5.9  34228  290.72 0854.53
2009/04/23 14:49:44.4    -158     86    -12    180    181 298.6  -3.9  34234  290.82 0854.53
2009/04/23 14:49:44.5     -93     -2      4     94     95 268.3   2.8  34226  290.70 0854.53
2009/04/23 14:49:44.6     -67    -73    -16    100    102 222.3  -9.3  34222  290.64 0854.53
2009/04/23 14:49:44.7     -94    -36      3    101    102 248.7   1.8  34218  290.55 0854.53
2009/04/23 14:49:44.8     -49     85     41     99    107 330.1  23.1  34226  290.69 0854.53
2009/04/23 14:49:44.9    -107     52      6    120    121 296.2   3.3  34224  290.67 0854.56
2009/04/23 14:49:45.0     -70     53     62     89    108 307.3  38.0  34232  290.79 0854.56
2009/04/23 14:49:45.1     -57     36     53     68     86 302.4  41.7  34234  290.82 0854.56
2009/04/23 14:49:45.2     -27     51     54     58     79 331.9  48.5  34232  290.81 0854.56
2009/04/23 14:49:45.3    -120     36     75    126    146 286.8  33.5  34240  290.92 0854.56
2009/04/23 14:49:45.4    -117     79     88    142    167 304.2  35.0  34244  290.99 0854.56
2009/04/23 14:49:45.5     -79     96     52    125    135 320.3  23.6  34220  290.60 0854.56
2009/04/23 14:49:45.6     -36    117     67    123    140 343.0  31.3  34256  291.20 0854.56
2009/04/23 14:49:45.7     163     73     15    179    180  65.8   4.9  34356  292.92 0854.56
2009/04/23 14:49:45.8     200     55     86    208    225  74.5  23.8  34350  292.81 0854.56
2009/04/23 14:49:45.9     107    109     54    153    162  44.5  20.0  34322  292.32 0854.56
2009/04/23 14:49:46.0     106     69     -2    127    128  56.7  -1.2  34278  291.57 0854.56
2009/04/23 14:49:46.1     106     87    -38    138    144  50.5 -15.5  34294  291.86 0854.56
2009/04/23 14:49:46.2     112    106    -34    155    159  46.8 -12.4  34308  292.08 0854.56
2009/04/23 14:49:46.3      91     98      4    134    135  42.8   1.8  34294  291.84 0854.56
2009/04/23 14:49:46.5     119     90     18    150    152  52.7   6.9  34292  291.83 0854.56
2009/04/23 14:49:46.6     125      9     15    126    127  85.6   6.9  34308  292.08 0854.56
2009/04/23 14:49:46.7      66     12     46     68     82  79.4  37.6  34308  292.08 0854.56
2009/04/23 14:49:46.7     -12     89    109     90    141 352.0  56.4  34296  291.88 0854.56
2009/04/23 14:49:46.8      -2     66    119     67    136 358.2  68.3  34282  291.64 0854.56
2009/04/23 14:49:47.0      46     -2    134     47    142  92.6  80.7  34258  291.25 0854.58
2009/04/23 14:49:47.1      76     10     74     77    106  82.1  49.0  34240  290.94 0854.58
2009/04/23 14:49:47.2      79     29    118     85    145  69.6  60.6  34232  290.79 0854.58
2009/04/23 14:49:47.3      34     21    105     41    112  58.5  77.6  34248  291.06 0854.58
2009/04/23 14:49:47.4     -12     37     97     40    104 341.7  77.1  34286  291.72 0854.58
2009/04/23 14:49:47.5       2     52     71     53     88   2.7  59.4  34270  291.45 0854.58
2009/04/23 14:49:47.6      32     78     61     85    104  22.3  39.5  34248  291.06 0854.58
2009/04/23 14:49:47.7     -70     96      1    119    120 323.9   0.8  34254  291.16 0854.58
2009/04/23 14:49:47.8     -93     35     -5    100    101 290.8  -3.1  34242  290.96 0854.58
2009/04/23 14:49:47.9     -81    119     28    145    148 325.7  11.1  34244  290.99 0854.58
2009/04/23 14:49:48.0     -18     15     97     24     99 311.3  86.4  34242  290.98 0854.58
2009/04/23 14:49:48.1      -1    -73    137     74    155 181.0  68.9  34236  290.87 0854.58
2009/04/23 14:49:48.2    -120    -99     57    156    166 230.5  20.4  34224  290.65 0854.58
2009/04/23 14:49:48.3     -14    -67    118     69    136 192.5  66.8  34226  290.70 0854.58
2009/04/23 14:49:48.4      61   -243     62    251    259 165.7  13.9  34218  290.54 0854.58
2009/04/23 14:49:48.5     244   -354     31    431    433 145.4   4.2  34204  290.31 0854.58
2009/04/23 14:49:48.6     192   -192     -1    272    273 134.9  -0.3  34204  290.32 0854.58
2009/04/23 14:49:48.7      84   -225    119    241    268 159.5  28.2  34208  290.37 0854.58
2009/04/23 14:49:48.8     262   -255    152    366    396 134.2  23.9  34208  290.38 0854.58
2009/04/23 14:49:48.9     352   -309    282    469    547 131.3  33.8  34210  290.41 0854.58
2009/04/23 14:49:49.0     324   -242    272    405    487 126.8  37.1  34208  290.39 0854.57
2009/04/23 14:49:49.1     245   -177    203    303    364 125.9  37.0  34212  290.45 0854.57
2009/04/23 14:49:49.2     301   -118    153    324    358 111.5  27.1  34212  290.47 0854.57
2009/04/23 14:49:49.3     260   -100    138    279    311 111.1  28.2  34220  290.58 0854.57
2009/04/23 14:49:49.4      32   -157    119    161    200 168.5  40.1  34216  290.53 0854.57
2009/04/23 14:49:49.5      54   -139    124    150    194 158.6  43.8  34218  290.57 0854.57
2009/04/23 14:49:49.6      -1   -107     61    108    124 180.9  31.9  34220  290.60 0854.57
2009/04/23 14:49:49.7     -29   -116    -59    120    133 194.3 -32.2  34214  290.50 0854.57
2009/04/23 14:49:49.8     -46    -43     -8     64     65 226.9  -7.3  34214  290.48 0854.57
2009/04/23 14:49:49.9       0    -92    124     93    155 179.5  60.0  34218  290.55 0854.57
2009/04/23 14:49:50.0       0   -154    128    155    201 180.4  43.7  34214  290.50 0854.57
2009/04/23 14:49:50.1      35   -145    168    150    225 166.2  53.7  34228  290.74 0854.57
2009/04/23 14:49:50.2      24   -130    115    133    175 169.3  45.4  34224  290.67 0854.57
2009/04/23 14:49:50.3      -7   -181     87    182    201 182.5  27.2  34228  290.72 0854.57
2009/04/23 14:49:50.4      -6   -145     99    146    176 182.7  37.3  34228  290.74 0854.57
2009/04/23 14:49:50.5      64    -72     90     97    132 138.1  47.9  34236  290.87 0854.57
2009/04/23 14:49:50.6     181    -62    109    192    220 109.1  31.9  34226  290.70 0854.57
2009/04/23 14:49:50.7     360    -64    168    366    402 100.1  26.4  34214  290.50 0854.57
2009/04/23 14:49:50.8     321   -130     31    347    349 112.1   5.2  34218  290.54 0854.57
2009/04/23 14:49:50.9     267   -161    138    313    342 121.1  25.3  34228  290.72 0854.57
2009/04/23 14:49:51.0     177   -126    178    218    281 125.3  43.7  34216  290.53 0854.53
2009/04/23 14:49:51.1      84   -100    177    132    220 139.9  59.8  34228  290.72 0854.53
2009/04/23 14:49:51.2       0    -10    107     11    107 182.7  90.0  34224  290.65 0854.53
2009/04/23 14:49:51.3      58    -17    122     61    136 106.8  71.9  34228  290.74 0854.53
2009/04/23 14:49:51.4     106   -153    138    187    232 145.3  39.7  34218  290.55 0854.53
2009/04/23 14:49:51.5      85   -110    115    140    181 142.2  43.7  34226  290.70 0854.53
2009/04/23 14:49:51.6     125    -25    154    128    200 101.4  56.1  34226  290.70 0854.53
2009/04/23 14:49:51.7     107    -47    109    118    160 114.0  47.7  34228  290.72 0854.53
2009/04/23 14:49:51.8       4    -47    104     48    114 174.7  73.1  34234  290.84 0854.53
2009/04/23 14:49:51.9     -45    -53     87     70    111 220.5  56.4  34240  290.92 0854.53
2009/04/23 14:49:52.0     -12   -108     82    109    136 186.7  40.7  34240  290.94 0854.53
2009/04/23 14:49:52.1      21   -149     54    151    160 172.0  20.2  34242  290.96 0854.53
2009/04/23 14:49:52.2       7   -174      4    175    176 177.5   1.6  34250  291.11 0854.53
2009/04/23 14:49:52.3      73   -155     52    172    180 154.6  17.1  34232  290.81 0854.53
2009/04/23 14:49:52.4     128    -88    -13    156    157 124.6  -4.9  34228  290.72 0854.53
2009/04/23 14:49:52.5     137   -189      9    234    235 143.9   2.3  34216  290.53 0854.53
2009/04/23 14:49:52.6     156   -147     22    215    217 133.2   6.1  34206  290.36 0854.53
2009/04/23 14:49:52.7     145   -135     39    199    203 132.9  11.1  34210  290.43 0854.53
2009/04/23 14:49:52.8      65   -167     59    180    190 158.6  18.1  34212  290.47 0854.53
2009/04/23 14:49:52.9      52   -189     77    197    211 164.6  22.5  34228  290.72 0854.53
2009/04/23 14:49:53.0      77   -250    111    262    284 162.8  24.3  34208  290.37 0854.54
2009/04/23 14:49:53.1     -12   -258     48    259    264 182.7  10.6  34208  290.37 0854.54
2009/04/23 14:49:53.2     -59   -196    107    205    231 196.9  29.5  34224  290.65 0854.54
2009/04/23 14:49:53.3      59   -214    150    223    268 164.6  37.0  34212  290.44 0854.54
2009/04/23 14:49:53.4      69   -235    121    246    274 163.5  28.2  34212  290.44 0854.54
2009/04/23 14:49:53.5     114   -224    160    252    298 152.9  35.5  34216  290.53 0854.54
2009/04/23 14:49:53.6     178   -305    156    354    386 149.7  25.2  34220  290.59 0854.54
2009/04/23 14:49:53.7     236   -296    106    379    394 141.4  15.7  34220  290.59 0854.54
2009/04/23 14:49:53.8     288   -210     87    357    368 126.1  13.8  34222  290.62 0854.54
2009/04/23 14:49:53.9     297   -261    129    396    417 131.3  18.1  34216  290.51 0854.54
2009/04/23 14:49:54.0     300   -220     35    373    375 126.2   5.5  34214  290.50 0854.54
2009/04/23 14:49:54.1     299   -142    111    332    351 115.4  18.6  34212  290.47 0854.54
2009/04/23 14:49:54.2     291   -195     14    351    352 123.9   2.3  34222  290.62 0854.54
2009/04/23 14:49:54.3     284   -175     54    334    339 121.6   9.2  34226  290.69 0854.54
2009/04/23 14:49:54.4     254   -126     55    284    290 116.4  11.1  34228  290.71 0854.54
2009/04/23 14:49:54.5     155   -142    -27    211    213 132.4  -7.3  34218  290.57 0854.54
2009/04/23 14:49:54.6     119   -121     -5    171    172 135.5  -1.8  34218  290.57 0854.54
2009/04/23 14:49:54.7      32   -156      2    160    161 168.4   0.8  34218  290.55 0854.54
2009/04/23 14:49:54.8      46   -210     67    216    227 167.5  17.3  34214  290.50 0854.54
2009/04/23 14:49:54.9     -46   -226     90    231    247 191.6  22.3  34218  290.54 0854.54
2009/04/23 14:49:55.0      -2   -154    154    155    218 181.0  50.0  34220  290.60 0854.59
2009/04/23 14:49:55.1     -95   -204    183    226    290 204.9  43.5  34216  290.53 0854.59
2009/04/23 14:49:55.2    -103   -164    140    194    239 212.1  39.5  34212  290.47 0854.59
2009/04/23 14:49:55.3     -32   -151     99    155    183 192.0  35.6  34210  290.41 0854.59
2009/04/23 14:49:55.4      94   -201    179    223    285 154.8  43.0  34212  290.46 0854.59
2009/04/23 14:49:55.5     -13   -217    243    218    326 183.6  53.6  34220  290.59 0854.59
2009/04/23 14:49:55.6       9   -232    176    233    292 177.8  40.7  34218  290.56 0854.59
2009/04/23 14:49:55.7     -24   -228     40    230    234 186.2  10.0  34210  290.43 0854.59
2009/04/23 14:49:55.8    -185   -204     56    276    282 222.1  11.6  34214  290.48 0854.59
2009/04/23 14:49:55.9    -125   -156    -17    200    201 218.7  -4.9  34214  290.48 0854.59
2009/04/23 14:49:56.0      18    -88    -29     90     94 168.0 -23.8  34212  290.47 0854.59
2009/04/23 14:49:56.1      45   -172     67    178    190 165.1  21.3  34214  290.50 0854.59
2009/04/23 14:49:56.2      52   -218    122    225    255 166.4  30.8  34218  290.54 0854.59
2009/04/23 14:49:56.3      52   -234     74    240    252 167.3  17.3  34218  290.54 0854.59
2009/04/23 14:49:56.4     110   -251      0    275    276 156.4   0.0  34220  290.58 0854.59
2009/04/23 14:49:56.5     201   -189     43    277    281 133.2   9.0  34224  290.66 0854.59
2009/04/23 14:49:56.6     206   -128     13    243    244 122.0   3.1  34224  290.65 0854.59
2009/04/23 14:49:56.7     186   -119     34    221    224 122.6   8.9  34222  290.62 0854.59
2009/04/23 14:49:56.8     204   -129     34    242    245 122.4   8.0  34224  290.66 0854.59
2009/04/23 14:49:56.9     180   -116     39    215    219 122.9  10.3  34222  290.64 0854.59
2009/04/23 14:49:57.0     130    -81     78    154    172 122.0  29.1  34226  290.69 0854.63
2009/04/23 14:49:57.1     116     -4     41    117    125  92.1  19.4  34224  290.67 0854.63
2009/04/23 14:49:57.2      74    -12     26     76     81  99.7  19.2  34226  290.69 0854.63
2009/04/23 14:49:57.3     119   -105     46    160    167 131.4  16.3  34218  290.55 0854.63
2009/04/23 14:49:57.4     214   -189     93    286    301 131.4  18.1  34218  290.56 0854.63
2009/04/23 14:49:57.5     253   -221     44    337    340 131.2   7.6  34214  290.49 0854.63
2009/04/23 14:49:57.6     211   -192    100    286    302 132.3  20.0  34216  290.51 0854.63
2009/04/23 14:49:57.7      86    -96     62    130    144 138.1  27.3  34216  290.52 0854.63
2009/04/23 14:49:57.8      81   -112     82    139    161 144.0  33.1  34224  290.67 0854.63
2009/04/23 14:49:57.9     120   -141     63    186    197 139.7  18.9  34220  290.60 0854.63
2009/04/23 14:49:58.0     134    -93     76    164    180 124.6  26.6  34222  290.64 0854.66
2009/04/23 14:49:58.1      75    -63     37     98    104 130.0  21.0  34228  290.72 0854.66
2009/04/23 14:49:58.2      53    -94    -37    109    115 150.6 -23.3  34222  290.62 0854.66
2009/04/23 14:49:58.3      18   -101    -28    103    107 169.8 -15.5  34222  290.62 0854.66
2009/04/23 14:49:58.4      30   -118     -1    122    123 165.3  -0.7  34220  290.58 0854.66
2009/04/23 14:49:58.5     108   -109     18    154    156 135.5   6.9  34206  290.36 0854.66
2009/04/23 14:49:58.6     137    -87     66    163    175 122.4  23.0  34206  290.35 0854.66
2009/04/23 14:49:58.7     114   -120    133    166    212 136.6  43.0  34188  290.04 0854.66
2009/04/23 14:49:58.8       5   -173    197    174    262 178.2  54.0  34202  290.27 0854.66
2009/04/23 14:49:58.9      52   -179    137    187    231 163.7  39.7  34214  290.48 0854.66
2009/04/23 14:49:59.0     -13   -167    155    168    228 184.5  47.9  34212  290.47 0854.66
2009/04/23 14:49:59.1     -14   -186    173    187    254 184.5  47.9  34222  290.63 0854.66
2009/04/23 14:49:59.2     -47   -161    192    168    255 196.5  54.3  34218  290.57 0854.66
2009/04/23 14:49:59.3      26    -66    108     72    129 158.2  63.2  34234  290.82 0854.66
2009/04/23 14:49:59.4     -24    101     50    104    115 346.2  27.3  34228  290.74 0854.66
2009/04/23 14:49:59.5     -32     -6     49     33     59 258.5  62.6  34232  290.81 0854.66
2009/04/23 14:49:59.6     -12    -97     68     98    119 187.6  38.0  34222  290.62 0854.66
2009/04/23 14:49:59.7      20    -73     82     76    111 164.0  52.2  34220  290.60 0854.66
2009/04/23 14:49:59.8      -6    -32     96     33    101 191.5  81.2  34236  290.86 0854.66
2009/04/23 14:49:59.9     -33     74     48     82     95 335.9  34.0  34246  291.04 0854.66
2009/04/23 14:50:00.0     -35     16     50     39     63 295.3  57.5  34234  290.84 0854.66
2009/04/23 14:50:00.1      34    -51     67     62     91 146.6  52.2  34232  290.81 0854.66
2009/04/23 14:50:00.2     -13    -43     74     45     86 196.9  65.7  34224  290.65 0854.66
2009/04/23 14:50:00.3      12   -159     60    160    170 175.6  21.5  34214  290.48 0854.66
2009/04/23 14:50:00.4       2   -185     45    186    192 179.1  13.7  34216  290.53 0854.66
2009/04/23 14:50:00.5     -13   -176     80    177    194 184.4  26.2  34218  290.55 0854.66
2009/04/23 14:50:00.6     -21   -151     39    153    159 188.0  14.5  34212  290.47 0854.66
2009/04/23 14:50:00.7       0   -162      3    163    164 180.0   1.2  34212  290.47 0854.66
2009/04/23 14:50:00.8     -19   -168      8    170    171 186.5   2.9  34214  290.48 0854.66
2009/04/23 14:50:00.9      -2    -90     31     91     97 181.4  19.2  34208  290.38 0854.66
2009/04/23 14:50:01.0      94    -19    112     96    147 101.5  55.4  34220  290.60 0854.66
2009/04/23 14:50:01.1      93    -40     79    102    129 113.5  41.7  34220  290.60 0854.66
2009/04/23 14:50:01.2      86      3     76     87    115  87.9  45.4  34218  290.57 0854.66
2009/04/23 14:50:01.3      66      5     47     67     81  85.7  38.6  34210  290.41 0854.66
2009/04/23 14:50:01.4      49    -18     33     53     62 110.0  35.5  34216  290.52 0854.66
2009/04/23 14:50:01.5      45    -28     42     54     68 122.4  43.7  34218  290.57 0854.66
2009/04/23 14:50:01.6      24    -36     65     44     78 145.7  63.6  34228  290.74 0854.66
2009/04/23 14:50:01.7      20    -45     72     50     87 155.5  62.1  34228  290.74 0854.66
2009/04/23 14:50:01.8     -32    -96    104    102    145 198.3  50.1  34210  290.41 0854.66
2009/04/23 14:50:01.9     -59   -155     71    166    180 200.9  24.3  34210  290.43 0854.66
2009/04/23 14:50:02.0     -55   -118     72    131    149 204.9  31.3  34206  290.35 0854.68
2009/04/23 14:50:02.1     -59   -104    101    120    156 209.9  44.5  34216  290.52 0854.68
2009/04/23 14:50:02.2     -18    -55     63     58     85 198.5  52.2  34216  290.53 0854.68
2009/04/23 14:50:02.3     -18    -91     46     93    103 191.5  27.8  34216  290.53 0854.68
2009/04/23 14:50:02.4      15    -15     46     22     51 135.0  72.9  34226  290.69 0854.68
2009/04/23 14:50:02.5      19      2     41     20     45  83.9  71.9  34236  290.86 0854.68
2009/04/23 14:50:02.6       2      0     51      3     51  90.0  90.0  34244  290.99 0854.68
2009/04/23 14:50:02.7     -21    -46     73     51     89 205.5  61.5  34226  290.69 0854.68
2009/04/23 14:50:02.8      -3    -32     57     33     65 186.2  66.8  34246  291.04 0854.68
2009/04/23 14:50:02.9       0    -10     50     11     51 182.7  89.0  34240  290.94 0854.68
2009/04/23 14:50:03.0     -16     16     42     23     47 314.9  68.8  34240  290.94 0854.68
2009/04/23 14:50:03.1      -8     -8     32     12     34 223.2  81.2  34242  290.96 0854.68
2009/04/23 14:50:03.2       9    -41     23     42     47 167.5  31.4  34232  290.81 0854.68
2009/04/23 14:50:03.3      -7    -58     24     59     63 187.1  23.0  34216  290.52 0854.68
2009/04/23 14:50:03.4     -36    -57      3     68     69 212.5   2.8  34212  290.47 0854.68
2009/04/23 14:50:03.5     -26    -45     -2     53     54 209.9  -2.2  34214  290.50 0854.68
2009/04/23 14:50:03.6     -28    -44    -35     53     63 212.6 -40.9  34216  290.53 0854.68
2009/04/23 14:50:03.7     -29    -78    -36     84     91 200.5 -29.0  34216  290.52 0854.68
2009/04/23 14:50:03.8     -19    -65    -24     68     73 196.9 -19.7  34212  290.47 0854.68
2009/04/23 14:50:03.9     -24   -107     21    110    113 192.9  11.0  34216  290.53 0854.68
2009/04/23 14:50:04.0      -8   -104     65    105    123 184.5  35.5  34214  290.50 0854.67
2009/04/23 14:50:04.1     -60    -90     98    109    146 213.8  46.9  34214  290.50 0854.67
2009/04/23 14:50:04.2     -50   -126     94    136    165 201.9  38.0  34216  290.53 0854.67
2009/04/23 14:50:04.3     -15   -128     75    129    149 187.1  33.4  34214  290.50 0854.67
2009/04/23 14:50:04.4       0   -203     88    204    222 180.2  24.9  34216  290.52 0854.67
2009/04/23 14:50:04.5     -34   -198     69    201    213 189.8  19.2  34218  290.57 0854.67
2009/04/23 14:50:04.6     -47   -234     64    239    248 191.6  15.0  34218  290.56 0854.67
2009/04/23 14:50:04.7     -69   -228     48    239    244 196.9  11.4  34220  290.59 0854.67
2009/04/23 14:50:04.8     -97   -271     96    289    305 199.8  18.4  34222  290.63 0854.67
2009/04/23 14:50:04.9      29   -275     43    277    281 173.8   8.9  34224  290.65 0854.67
2009/04/23 14:50:05.0     -36   -317     -8    320    321 186.5  -1.6  34226  290.68 0854.67
2009/04/23 14:50:05.1     -98   -182    -27    207    209 208.3  -7.5  34228  290.74 0854.67
2009/04/23 14:50:05.2     -46    -73    -77     87    116 212.1 -50.8  34232  290.81 0854.67
2009/04/23 14:50:05.3    -135   -109    -53    174    181 230.9 -21.7  34232  290.79 0854.67
2009/04/23 14:50:05.4     -28    -85     85     90    123 198.7  48.5  34230  290.77 0854.67
2009/04/23 14:50:05.5     -97   -324    -11    339    340 196.8  -1.9  34228  290.74 0854.67
2009/04/23 14:50:05.6     -95   -248     22    266    268 201.0   4.9  34230  290.75 0854.67
2009/04/23 14:50:05.7     -73   -222     -4    234    235 198.3  -1.2  34222  290.63 0854.67
2009/04/23 14:50:05.8       0   -149      0    150    151 180.4   0.2  34220  290.60 0854.67
2009/04/23 14:50:05.9      87   -166     60    188    198 152.4  17.7  34228  290.72 0854.67
2009/04/23 14:50:06.0      45   -167     30    174    177 164.9   9.9  34226  290.69 0854.65
2009/04/23 14:50:06.1      88   -322     93    335    348 164.6  15.6  34230  290.76 0854.65
2009/04/23 14:50:06.2      15   -198    119    199    231 175.5  34.0  34226  290.70 0854.65
2009/04/23 14:50:06.3     -10   -164    118    165    202 183.8  39.1  34238  290.89 0854.65
2009/04/23 14:50:06.4       9   -120    116    121    167 175.5  49.0  34246  291.04 0854.65
2009/04/23 14:50:06.5     -25   -134     41    137    144 190.7  16.8  34236  290.86 0854.65
2009/04/23 14:50:06.6     -77   -116    -33    140    144 213.8 -13.4  34228  290.74 0854.65
2009/04/23 14:50:06.7     -61   -103     16    120    122 210.8   8.0  34234  290.82 0854.65
2009/04/23 14:50:06.8       4    -76    114     77    137 176.4  62.7  34246  291.03 0854.65
2009/04/23 14:50:06.9    -105   -183    221    212    306 209.9  51.4  34256  291.19 0854.65
2009/04/23 14:50:07.0     -98   -245    189    264    324 201.8  39.2  34252  291.12 0854.65
2009/04/23 14:50:07.1    -127   -258    203    288    352 206.3  38.7  34252  291.13 0854.65
2009/04/23 14:50:07.2     -64   -194    171    205    266 198.3  43.8  34256  291.19 0854.65
2009/04/23 14:50:07.3     -58   -207    129    216    251 195.8  33.7  34264  291.33 0854.65
2009/04/23 14:50:07.4     -93   -158    220    184    286 210.5  56.1  34264  291.34 0854.65
2009/04/23 14:50:07.5    -111   -141    107    180    209 218.3  33.5  34258  291.25 0854.65
2009/04/23 14:50:07.6    -125   -108     -6    166    167 229.1  -2.2  34250  291.09 0854.65
2009/04/23 14:50:07.7    -114   -158     60    196    206 215.8  17.1  34252  291.13 0854.65
2009/04/23 14:50:07.8    -133    -93    -13    163    164 234.9  -4.9  34250  291.09 0854.65
2009/04/23 14:50:07.9      -8    -47     38     48     61 190.7  43.7  34260  291.26 0854.65
2009/04/23 14:50:08.0     -27      2     48     28     55 276.1  65.7  34272  291.47 0854.63
2009/04/23 14:50:08.1      50     48     74     70    101  45.9  51.6  34274  291.52 0854.63
2009/04/23 14:50:08.2      36    -58    168     69    181 148.4  76.8  34272  291.49 0854.63
2009/04/23 14:50:08.3      67   -288    230    296    374 166.7  41.7  34276  291.54 0854.63
2009/04/23 14:50:08.4      81   -376    217    385    441 167.7  31.9  34244  290.99 0854.63
2009/04/23 14:50:08.5      67   -434    256    440    509 171.2  32.9  34246  291.03 0854.63
2009/04/23 14:50:08.6     -13   -338    172    339    380 182.2  29.2  34244  291.00 0854.63
2009/04/23 14:50:08.7     -22   -250    166    252    301 185.1  36.5  34252  291.12 0854.63
2009/04/23 14:50:08.8     -67   -240    167    250    300 195.6  36.7  34252  291.14 0854.63
2009/04/23 14:50:08.9    -144   -189    115    238    264 217.4  27.3  34244  291.00 0854.63
2009/04/23 14:50:09.0     -52   -237     35    243    246 192.5   8.2  34242  290.95 0854.63
2009/04/23 14:50:09.1     -34   -280     44    283    287 187.1   9.0  34236  290.87 0854.63
2009/04/23 14:50:09.2     -13   -294     63    295    302 182.6  12.2  34236  290.87 0854.63
2009/04/23 14:50:09.3      -8   -275    -10    276    277 181.8  -2.1  34232  290.80 0854.63
2009/04/23 14:50:09.4     -41   -288     15    291    292 188.1   3.1  34234  290.82 0854.63
2009/04/23 14:50:09.5      49   -429    -49    432    435 173.4  -6.6  34236  290.87 0854.63
2009/04/23 14:50:09.6      89   -374    -60    385    390 166.5  -9.0  34238  290.88 0854.63
2009/04/23 14:50:09.7      84   -324   -119    335    356 165.3 -19.7  34244  291.01 0854.63
2009/04/23 14:50:09.8      61   -226    -98    235    254 164.9 -28.5  34248  291.07 0854.63
2009/04/23 14:50:09.9    -185   -265    -58    324    330 215.0 -10.2  34256  291.19 0854.63
2009/04/23 14:50:10.0     -33   -220    -55    223    230 188.7 -13.9  34246  291.04 0854.58
2009/04/23 14:50:10.1      -4   -219    -28    220    222 181.1  -7.3  34252  291.13 0854.58
2009/04/23 14:50:10.2    -128   -297    -73    324    333 203.4 -12.7  34258  291.23 0854.58
2009/04/23 14:50:10.3    -142   -222    -93    264    279 212.6 -24.4  34256  291.21 0854.58
2009/04/23 14:50:10.4    -212   -246    -49    326    330 220.8  -8.6  34260  291.26 0854.58
2009/04/23 14:50:10.5    -113   -283     71    305    314 201.8  13.2  34252  291.14 0854.58
2009/04/23 14:50:10.6     -23   -242    189    244    308 185.6  41.7  34250  291.10 0854.58
2009/04/23 14:50:10.7     -93   -360    161    372    405 194.6  25.0  34222  290.62 0854.58
2009/04/23 14:50:10.8     -81   -350    186    360    405 193.1  29.4  34226  290.69 0854.58
2009/04/23 14:50:10.9     -66   -311    110    319    338 192.0  19.1  34228  290.71 0854.58
2009/04/23 14:50:11.0     -28   -303     98    305    321 185.4  17.9  34228  290.71 0854.58
2009/04/23 14:50:11.1       0   -203    164    204    261 180.2  42.8  34240  290.93 0854.58
2009/04/23 14:50:11.2     -37   -230    246    234    339 189.3  51.5  34236  290.85 0854.58
2009/04/23 14:50:11.3     -57   -212    167    220    276 195.1  40.9  34234  290.82 0854.58
2009/04/23 14:50:11.4     -98   -143    126    174    214 214.5  39.5  34238  290.91 0854.58
2009/04/23 14:50:11.5     -78   -180    150    197    247 203.4  41.2  34236  290.87 0854.58
2009/04/23 14:50:11.6      10   -139    139    140    197 175.5  50.0  34242  290.96 0854.58
2009/04/23 14:50:11.7      36   -195     70    199    212 169.3  19.4  34234  290.84 0854.58
2009/04/23 14:50:11.8      12   -163    -14    164    165 175.8  -5.2  34242  290.98 0854.58
2009/04/23 14:50:11.9     -20   -198     62    200    210 185.8  17.3  34240  290.94 0854.57
2009/04/23 14:50:12.0       9   -258     84    259    273 178.0  17.9  34244  291.00 0854.57
2009/04/23 14:50:12.1     146   -310    186    343    390 154.7  30.9  34236  290.86 0854.57
2009/04/23 14:50:12.2      79   -273    191    285    343 163.7  37.2  34238  290.88 0854.57
2009/04/23 14:50:12.3     179   -212     81    278    290 139.9  16.4  34238  290.88 0854.57
2009/04/23 14:50:12.4     204   -126     56    240    247 121.8  13.2  34238  290.88 0854.57
2009/04/23 14:50:12.5     181   -373    119    415    432 154.0  16.0  34224  290.67 0854.57
2009/04/23 14:50:12.6       7   -326    179    327    372 178.6  31.3  34210  290.43 0854.57
2009/04/23 14:50:12.8     -47   -394    223    397    455 186.9  31.7  34220  290.58 0854.57
2009/04/23 14:50:12.8     -60   -349    167    355    392 189.9  27.1  34214  290.50 0854.57
2009/04/23 14:50:13.0       0   -350    236    351    422 180.0  37.0  34238  290.89 0854.57
2009/04/23 14:50:13.1     -17   -338    233    339    411 182.9  37.9  34228  290.72 0854.57
2009/04/23 14:50:13.1     -55   -272    210    278    348 191.6  40.9  34232  290.80 0854.57
2009/04/23 14:50:13.2     -84   -307     95    319    334 195.3  16.7  34222  290.61 0854.57
2009/04/23 14:50:13.4     -47   -214    -12    220    221 192.5  -3.2  34222  290.62 0854.57
2009/04/23 14:50:13.5     -55   -213    -36    220    223 194.5  -9.3  34210  290.41 0854.57
2009/04/23 14:50:13.6       0   -309     65    310    317 179.9  12.0  34192  290.12 0854.57
2009/04/23 14:50:13.7     -50   -230   -127    236    268 192.3 -35.0  34196  290.17 0854.57
2009/04/23 14:50:13.8    -136   -245     70    281    290 209.0  14.2  34228  290.71 0854.57
2009/04/23 14:50:13.9    -195   -259    -34    325    327 217.0  -6.0  34246  291.02 0854.57
2009/04/23 14:50:14.0    -166   -317    -64    358    364 207.7 -10.3  34228  290.74 0854.51
2009/04/23 14:50:14.1     -16   -326      6    327    328 182.9   1.1  34206  290.34 0854.51
2009/04/23 14:50:14.2     -65   -299     72    307    316 192.3  13.3  34192  290.12 0854.51
2009/04/23 14:50:14.3     -71   -304     -3    313    314 193.3  -0.7  34212  290.46 0854.51
2009/04/23 14:50:14.4    -142   -437     61    460    465 198.0   7.6  34200  290.24 0854.51
2009/04/23 14:50:14.5    -278   -383     27    474    475 216.0   3.3  34216  290.52 0854.51
2009/04/23 14:50:14.6    -160   -409     26    440    441 201.4   3.5  34226  290.70 0854.51
2009/04/23 14:50:14.7    -169   -335      2    376    377 206.7   0.4  34218  290.55 0854.51
2009/04/23 14:50:14.8    -197   -197    -20    279    280 225.0  -4.1  34218  290.54 0854.51
2009/04/23 14:50:14.9    -140    -58    -32    152    156 247.4 -12.2  34218  290.57 0854.51
2009/04/23 14:50:15.0    -204    -73    -18    217    218 250.1  -4.9  34250  291.09 0854.51
2009/04/23 14:50:15.1    -161   -105    -27    193    195 236.9  -8.0  34248  291.06 0854.51
2009/04/23 14:50:15.2    -134   -190     27    233    235 215.2   6.7  34244  290.99 0854.51
2009/04/23 14:50:15.3    -115   -126    -72    171    185 222.3 -28.2  34228  290.74 0854.51
2009/04/23 14:50:15.4    -166    -46   -113    173    206 254.5 -40.4  34230  290.75 0854.51
2009/04/23 14:50:15.5    -155   -128    -21    202    204 230.5  -6.0  34232  290.79 0854.51
2009/04/23 14:50:15.6    -242    -77    -87    254    268 252.3 -23.6  34230  290.76 0854.51
2009/04/23 14:50:15.7    -218      0   -123    219    251 270.0 -36.5  34248  291.05 0854.51
2009/04/23 14:50:15.8    -133     43    -97    140    170 288.2 -42.4  34240  290.92 0854.51
2009/04/23 14:50:15.9    -143      2    -45    144    152 270.9 -17.6  34240  290.94 0854.51
2009/04/23 14:50:16.0     -98    -99     76    140    159 224.5  30.8  34226  290.69 0854.50
2009/04/23 14:50:16.1    -114    -71     66    135    150 238.0  27.3  34214  290.48 0854.50
2009/04/23 14:50:16.2      -9    -68     12     69     71 188.0  10.1  34220  290.58 0854.50
2009/04/23 14:50:16.3      65     -9      3     66     67  97.9   2.8  34222  290.64 0854.50
2009/04/23 14:50:16.4      74     63    -19     98    100  49.6 -11.3  34230  290.75 0854.50
2009/04/23 14:50:16.5      77    139      0    159    160  29.0   0.0  34240  290.92 0854.50
2009/04/23 14:50:16.6      90    162      0    186    187  29.0   0.2  34236  290.86 0854.50
2009/04/23 14:50:16.7      58    189      8    198    199  17.2   2.3  34238  290.91 0854.50
2009/04/23 14:50:16.8      56    186      7    195    196  16.7   2.1  34240  290.92 0854.50
2009/04/23 14:50:16.9       0    213     28    214    216   0.2   7.5  34238  290.91 0854.50
2009/04/23 14:50:17.0    -121     24   -130    124    179 281.4 -55.8  34234  290.82 0854.50
2009/04/23 14:50:17.1     -88     58     46    106    115 303.3  25.1  34232  290.81 0854.50
2009/04/23 14:50:17.2     -83    274     18    287    288 343.1   3.6  34232  290.80 0854.50
2009/04/23 14:50:17.3      -3    357     65    358    364 359.5  10.4  34234  290.84 0854.50
2009/04/23 14:50:17.4      -7    356    123    357    378 358.8  19.1  34228  290.72 0854.50
2009/04/23 14:50:17.5    -149    372     42    401    404 338.2   6.0  34220  290.58 0854.50
2009/04/23 14:50:17.6    -165    348    -80    386    395 334.6 -11.8  34212  290.47 0854.50
2009/04/23 14:50:17.7    -168    416     -3    449    450 337.9  -0.5  34208  290.38 0854.50
2009/04/23 14:50:17.8    -140    279    109    313    332 333.3  19.2  34218  290.56 0854.50
2009/04/23 14:50:17.9     -82    265     39    278    281 342.8   8.0  34218  290.56 0854.50
2009/04/23 14:50:18.0     -91     91    115    130    173 315.0  46.2  34232  290.79 0854.52
2009/04/23 14:50:18.1    -103   -163     68    193    204 212.3  20.0  34232  290.79 0854.52
2009/04/23 14:50:18.2    -159   -261     24    306    308 211.4   4.6  34226  290.68 0854.52
2009/04/23 14:50:18.3      58   -185    -46    194    200 162.6 -13.4  34220  290.60 0854.52
2009/04/23 14:50:18.4     370   -139    164    396    428 110.6  23.8  34286  291.70 0854.52
2009/04/23 14:50:18.5     420    -34     47    422    425  94.7   6.4  34236  290.85 0854.52
2009/04/23 14:50:18.6     504     16    222    505    551  88.1  25.2  34328  292.42 0854.52
2009/04/23 14:50:18.7     464     27    265    465    535  86.6  32.3  34312  292.14 0854.52
2009/04/23 14:50:18.8     441     24    257    442    511  86.8  32.9  34352  292.82 0854.52
2009/04/23 14:50:18.9     568     88    218    575    614  81.2  21.8  34348  292.77 0854.52
2009/04/23 14:50:19.0     494     10    196    495    532  88.7  22.9  34368  293.12 0854.52
2009/04/23 14:50:19.1     399     16    271    400    483  87.6  37.4  34316  292.21 0854.52
2009/04/23 14:50:19.2     445    -13    133    446    466  91.7  16.7  34306  292.06 0854.52
2009/04/23 14:50:19.3     324    -36    212    327    389  96.5  35.6  34326  292.39 0854.52
2009/04/23 14:50:19.4     178    -49    271    185    328 105.5  62.5  34258  291.22 0854.52
2009/04/23 14:50:19.5    -126   -117    231    173    288 227.1  59.4  34298  291.92 0854.52
2009/04/23 14:50:19.6    -167   -182    190    248    312 222.5  41.4  34268  291.41 0854.52
2009/04/23 14:50:19.7    -144   -270    253    307    397 208.1  43.7  34248  291.08 0854.52
2009/04/23 14:50:19.8    -175   -165    168    241    293 226.7  38.4  34254  291.17 0854.52
2009/04/23 14:50:19.9    -132    -84     54    157    167 237.6  18.9  34264  291.33 0854.52
2009/04/23 14:50:20.0      16    -60     98     63    116 164.9  64.6  34258  291.25 0854.55
2009/04/23 14:50:20.1      -2   -143    149    144    207 180.9  50.9  34228  290.74 0854.55
2009/04/23 14:50:20.2     -25   -184    153    186    240 187.8  43.7  34254  291.18 0854.55
2009/04/23 14:50:20.3     -24   -201    102    203    227 186.9  28.5  34250  291.09 0854.55
2009/04/23 14:50:20.4     -14   -186     67    187    198 184.5  20.7  34236  290.87 0854.55
2009/04/23 14:50:20.5     -50   -134     67    144    158 200.5  26.6  34240  290.92 0854.55
2009/04/23 14:50:20.6     -43   -142    150    149    211 196.9  50.1  34240  290.94 0854.55
2009/04/23 14:50:20.7       3    -78    126     79    148 177.3  64.7  34254  291.16 0854.55
2009/04/23 14:50:20.8     160    -15    113    161    196  95.7  38.6  34232  290.81 0854.55
2009/04/23 14:50:20.9     183     -7    115    184    216  92.4  35.2  34244  290.99 0854.55
2009/04/23 14:50:21.0     163     21     88    165    187  82.5  30.3  34262  291.32 0854.54
2009/04/23 14:50:21.1     128     26    103    131    166  78.5  42.4  34274  291.52 0854.54
2009/04/23 14:50:21.2     211     43    116    216    245  78.5  30.3  34266  291.36 0854.54
2009/04/23 14:50:21.3     206    -10    187    207    278  92.8  46.9  34216  290.51 0854.54
2009/04/23 14:50:21.4     111    -12    140    112    179  96.6  57.1  34218  290.55 0854.54
2009/04/23 14:50:21.5      47   -123    164    132    210 159.1  56.9  34236  290.87 0854.54
2009/04/23 14:50:21.6     242    -41    245    246    347  99.7  50.1  34236  290.85 0854.54
2009/04/23 14:50:21.7     284     26    279    286    399  84.7  49.3  34216  290.52 0854.54
2009/04/23 14:50:21.8     207     36    209    211    296  80.1  49.9  34226  290.70 0854.54
2009/04/23 14:50:21.9       4      8     83     10     83  29.0  90.0  34234  290.84 0854.54
2009/04/23 14:50:22.0      12   -143     95    144    172 175.1  36.3  34224  290.67 0854.54
2009/04/23 14:50:22.1       3   -199    144    200    246 179.0  39.3  34240  290.92 0854.54
2009/04/23 14:50:22.2     -68    -45    121     82    146 236.7  62.7  34264  291.33 0854.54
2009/04/23 14:50:22.3     -49     13    124     51    134 285.1  77.0  34272  291.49 0854.54
2009/04/23 14:50:22.4     -22     29     76     37     84 322.2  72.4  34270  291.43 0854.54
2009/04/23 14:50:22.5     -49     26     97     56    112 298.0  67.7  34276  291.55 0854.54
2009/04/23 14:50:22.6     -76      5     83     77    113 274.4  52.1  34262  291.30 0854.54
2009/04/23 14:50:22.7     -16    -15     56     22     60 226.9  77.1  34256  291.20 0854.54
2009/04/23 14:50:22.8      50     36     62     62     87  54.0  50.1  34264  291.35 0854.54
2009/04/23 14:50:22.9     167     -2    189    168    252  91.0  53.7  34236  290.86 0854.54
2009/04/23 14:50:23.0     126    -10    157    127    201  94.8  56.6  34230  290.75 0854.49
2009/04/23 14:50:23.1     205   -118    148    237    279 120.0  35.0  34224  290.66 0854.49
2009/04/23 14:50:23.2     170   -275    156    324    359 148.3  27.4  34204  290.33 0854.49
2009/04/23 14:50:23.3     102   -303    261    320    412 161.3  43.5  34212  290.45 0854.49
2009/04/23 14:50:23.4      -4   -264    215    265    341 180.9  43.4  34208  290.39 0854.49
2009/04/23 14:50:23.5      74     -4    154     75    171  93.5  72.7  34220  290.58 0854.49
2009/04/23 14:50:23.6     204   -224    123    304    327 137.7  23.2  34198  290.22 0854.49
2009/04/23 14:50:23.7       0   -332    200    333    388 180.0  34.0  34198  290.23 0854.49
2009/04/23 14:50:23.8     -13   -447    222    448    499 181.7  28.2  34212  290.44 0854.49
2009/04/23 14:50:23.9     -34   -407    144    409    434 184.8  19.4  34214  290.48 0854.49
2009/04/23 14:50:24.0     -22   -417     75    418    425 183.1  10.2  34216  290.51 0854.49
2009/04/23 14:50:24.1     -26   -352    105    353    369 184.3  16.6  34214  290.50 0854.49
2009/04/23 14:50:24.2     137   -248     18    284    285 151.1   3.8  34212  290.46 0854.49
2009/04/23 14:50:24.3     208    -90     25    227    229 113.5   6.5  34212  290.45 0854.49
2009/04/23 14:50:24.4     223   -117    -27    253    255 117.8  -6.2  34200  290.26 0854.49
2009/04/23 14:50:24.5     122   -141    103    187    213 139.2  31.4  34212  290.47 0854.49
2009/04/23 14:50:24.6     126    -60    -16    140    141 115.4  -6.7  34212  290.47 0854.49
2009/04/23 14:50:24.7     107      0    -30    108    113  90.0 -15.4  34216  290.52 0854.49
2009/04/23 14:50:24.8       8    -56    -11     57     59 171.1 -11.3  34218  290.57 0854.49
2009/04/23 14:50:24.9      32    -83     39     90     98 158.6  24.6  34218  290.55 0854.49
2009/04/23 14:50:25.0      26    -98    -33    102    108 164.9 -18.1  34216  290.52 0854.44
2009/04/23 14:50:25.1      31    -83      4     89     90 159.5   2.9  34212  290.47 0854.44
2009/04/23 14:50:25.2       5    -66     13     67     69 175.6  11.1  34216  290.52 0854.44
2009/04/23 14:50:25.3      15   -109     39    111    118 171.9  19.4  34216  290.53 0854.44
2009/04/23 14:50:25.4       0   -103     67    104    123 180.5  35.6  34214  290.48 0854.44
2009/04/23 14:50:25.5     -68   -150    110    165    198 204.5  37.0  34212  290.47 0854.44
2009/04/23 14:50:25.6     -71    -74    -31    103    107 223.7 -22.3  34216  290.52 0854.44
2009/04/23 14:50:25.7     -20   -108    -17    110    112 190.7  -8.8  34214  290.50 0854.44
2009/04/23 14:50:25.8       2   -129      6    130    131 179.1   2.8  34214  290.50 0854.44
2009/04/23 14:50:25.9      34   -143     40    147    153 166.6  15.3  34214  290.50 0854.44
2009/04/23 14:50:26.0      75   -103     86    128    154 143.9  37.0  34220  290.60 0854.44
2009/04/23 14:50:26.1     100   -100     69    142    157 135.0  27.8  34218  290.55 0854.44
2009/04/23 14:50:26.2      50   -103     68    115    133 154.1  33.5  34218  290.55 0854.44
2009/04/23 14:50:26.3      -5   -146     83    147    168 182.2  32.1  34210  290.43 0854.44
2009/04/23 14:50:26.4     -27   -158     61    161    172 189.8  21.5  34214  290.50 0854.44
2009/04/23 14:50:26.5      40   -123    103    130    165 161.7  42.4  34216  290.53 0854.44
2009/04/23 14:50:26.6      32    -92     81     98    127 160.4  43.8  34220  290.58 0854.44
2009/04/23 14:50:26.7      21    -64     97     68    118 161.7  61.5  34222  290.62 0854.44
2009/04/23 14:50:26.8     -18     -3     55     19     58 258.5  81.2  34236  290.86 0854.44
2009/04/23 14:50:26.9       0    -21     61     22     64 180.9  81.2  34244  290.99 0854.44
2009/04/23 14:50:27.0      -9      1     30     10     31 281.5  81.0  34252  291.15 0854.46
2009/04/23 14:50:27.1     -14     19     16     24     28 323.9  35.6  34252  291.15 0854.46
2009/04/23 14:50:27.2     -14     35      1     38     39 338.2   2.9  34248  291.08 0854.46
2009/04/23 14:50:27.3      25     30      7     40     41  39.6  10.1  34242  290.96 0854.46
2009/04/23 14:50:27.4      28     49     -2     57     58  29.9  -2.2  34228  290.74 0854.46
2009/04/23 14:50:27.5      96    116     -3    151    152  39.6  -1.3  34220  290.60 0854.46
2009/04/23 14:50:27.6     136     41     35    143    148  73.2  13.7  34230  290.75 0854.46
2009/04/23 14:50:27.7     114    117    -19    164    166  44.1  -6.9  34258  291.23 0854.46
2009/04/23 14:50:27.8      93    128    -32    159    163  35.8 -11.3  34270  291.45 0854.46
2009/04/23 14:50:27.9      51    166     -6    174    175  17.2  -2.1  34246  291.03 0854.46
2009/04/23 14:50:28.0      71    112     68    133    149  32.5  29.2  34242  290.96 0854.46
2009/04/23 14:50:28.1      77     82     16    113    115  43.3   8.5  34254  291.18 0854.46
2009/04/23 14:50:28.2      44     81    -39     93    100  28.5 -28.5  34314  292.18 0854.46
2009/04/23 14:50:28.3      21     64     -8     68     69  18.5  -7.3  34288  291.74 0854.46
2009/04/23 14:50:28.4      63     58     24     87     91  47.3  15.3  34268  291.42 0854.46
2009/04/23 14:50:28.5       7     28     59     29     65  15.1  71.9  34290  291.79 0854.46
2009/04/23 14:50:28.6     -40      7     84     41     93 280.6  72.8  34300  291.96 0854.46
2009/04/23 14:50:28.7    -152      3     90    153    177 271.3  33.1  34258  291.23 0854.46
2009/04/23 14:50:28.8    -130    -14     69    131    148 263.8  30.3  34252  291.13 0854.46
2009/04/23 14:50:28.9      40     89     23     98    101  24.5  13.7  34242  290.96 0854.46
2009/04/23 14:50:29.0      32    157     75    161    177  11.5  27.0  34236  290.86 0854.49
2009/04/23 14:50:29.1       2    153     57    154    164   1.0  21.0  34240  290.94 0854.49
2009/04/23 14:50:29.2      61     77     54     99    112  38.3  31.3  34244  291.01 0854.49
2009/04/23 14:50:29.3      55     67     93     87    127  39.2  52.1  34286  291.71 0854.49
2009/04/23 14:50:29.4      39     61     86     73    112  32.6  55.8  34276  291.55 0854.49
2009/04/23 14:50:29.5      54    -37     55     66     85 125.1  44.3  34254  291.18 0854.49
2009/04/23 14:50:29.6     -26    -66     45     72     84 201.9  35.5  34270  291.43 0854.49
2009/04/23 14:50:29.7     -33    -19     30     39     49 239.3  41.7  34264  291.35 0854.49
2009/04/23 14:50:29.8     -15    -49     42     52     66 197.8  43.7  34262  291.30 0854.49
2009/04/23 14:50:29.9      33     28     33     44     55  49.6  40.7  34260  291.28 0854.49
2009/04/23 14:50:30.0     -17      0     15     18     23 270.8  45.8  34260  291.28 0854.49
2009/04/23 14:50:30.1       0    -10    123     11    123 182.7  90.0  34256  291.20 0854.49
2009/04/23 14:50:30.2     -18    -91    103     93    138 191.6  52.7  34256  291.20 0854.49
2009/04/23 14:50:30.3     119     86     53    148    157  54.0  20.4  34278  291.57 0854.49
2009/04/23 14:50:30.4      59     76     90     97    132  37.8  47.9  34276  291.55 0854.49
2009/04/23 14:50:30.5      97     18    128     99    161  79.0  58.5  34268  291.42 0854.49
2009/04/23 14:50:30.6     146      3    137    147    200  88.7  47.9  34282  291.64 0854.49
2009/04/23 14:50:30.7     140    -16    141    141    199  96.6  50.1  34268  291.40 0854.49
2009/04/23 14:50:30.8      66    -22    158     70    172 108.6  74.8  34270  291.43 0854.49
2009/04/23 14:50:30.9     -28    -18     79     34     86 237.5  75.5  34274  291.50 0854.49
2009/04/23 14:50:31.0     -18    -92    114     94    147 191.6  56.3  34266  291.37 0854.44
2009/04/23 14:50:31.1     -21   -141    190    143    237 188.5  59.4  34240  290.94 0854.44
2009/04/23 14:50:31.2      87   -128     36    155    160 145.7  13.2  34226  290.69 0854.44
2009/04/23 14:50:31.3     106   -150     64    184    195 144.8  19.2  34224  290.67 0854.44
2009/04/23 14:50:31.4      40   -155     96    161    187 165.3  33.7  34228  290.72 0854.44
2009/04/23 14:50:31.5      68   -259    209    268    339 165.1  42.0  34222  290.63 0854.44
2009/04/23 14:50:31.6      67   -268    238    277    365 166.0  45.1  34228  290.72 0854.44
2009/04/23 14:50:31.7       0   -259    256    260    364 180.0  49.9  34228  290.71 0854.44
2009/04/23 14:50:31.8       2   -154    224    155    272 179.1  62.4  34242  290.97 0854.44
2009/04/23 14:50:31.9     -65   -153    117    167    203 203.2  38.4  34236  290.87 0854.44
2009/04/23 14:50:32.0      55    -99     83    114    141 151.1  39.7  34234  290.84 0854.44
2009/04/23 14:50:32.1      94    -94     49    134    142 135.0  20.9  34234  290.84 0854.44
2009/04/23 14:50:32.2      34   -193     17    197    198 170.0   5.2  34234  290.84 0854.44
2009/04/23 14:50:32.3      76   -143    -17    163    164 151.9  -6.2  34242  290.96 0854.44
2009/04/23 14:50:32.4     118    -85      7    146    147 126.0   2.9  34242  290.98 0854.44
2009/04/23 14:50:32.5     111    -26     49    115    125 103.3  24.6  34252  291.13 0854.44
2009/04/23 14:50:32.6      58    -48    109     76    132 129.5  62.1  34242  290.96 0854.44
2009/04/23 14:50:32.7     109    -51    121    121    171 115.4  50.1  34240  290.94 0854.44
2009/04/23 14:50:32.8      95    -91    114    132    174 133.6  45.4  34234  290.82 0854.44
2009/04/23 14:50:32.9      23    -77    101     81    129 163.1  56.9  34246  291.04 0854.44
2009/04/23 14:50:33.0     -20     37    102     43    110 331.0  76.1  34252  291.13 0854.40
2009/04/23 14:50:33.1     -32     68     86     76    114 334.5  53.7  34254  291.18 0854.40
2009/04/23 14:50:33.2     -41      5     92     42    101 277.9  73.5  34260  291.28 0854.40
2009/04/23 14:50:33.3     -87      6     89     88    125 274.4  50.1  34248  291.08 0854.40
2009/04/23 14:50:33.4     -87     10    164     88    186 276.6  69.6  34254  291.18 0854.40
2009/04/23 14:50:33.5     -36     46    125     59    138 322.2  73.1  34262  291.32 0854.40
2009/04/23 14:50:33.6     -24    114    113    117    162 348.0  49.2  34254  291.18 0854.40
2009/04/23 14:50:33.7    -141     66    107    156    189 295.2  37.8  34260  291.26 0854.40
2009/04/23 14:50:33.8     -21     16    138     27    140 307.8  89.1  34266  291.38 0854.40
2009/04/23 14:50:33.9      26      8    147     28    149  71.4  89.6  34264  291.33 0854.40
2009/04/23 14:50:34.0     -26   -129    206    132    244 191.6  64.6  34284  291.67 0854.40
2009/04/23 14:50:34.1    -146   -134    175    199    265 227.6  45.8  34260  291.27 0854.40
2009/04/23 14:50:34.2     -91   -110    142    143    201 219.6  50.0  34264  291.33 0854.40
2009/04/23 14:50:34.3     -28   -189    129    192    231 188.5  36.7  34266  291.37 0854.40
2009/04/23 14:50:34.4     -28   -175    161    178    240 189.1  46.9  34270  291.45 0854.40
2009/04/23 14:50:34.5    -165   -137    108    215    240 230.4  28.5  34356  292.91 0854.40
2009/04/23 14:50:34.6    -194    -84    109    212    238 246.5  29.3  34348  292.78 0854.40
2009/04/23 14:50:34.7    -242    -51     28    248    250 258.1   6.5  34334  292.53 0854.40
2009/04/23 14:50:34.8    -193     24      6    195    196 277.2   1.8  34334  292.52 0854.40
2009/04/23 14:50:34.9    -140      0     -7    141    142 270.0  -3.1  34328  292.42 0854.40
2009/04/23 14:50:35.0    -113     -3    -14    114    115 268.3  -7.3  34318  292.25 0854.42
2009/04/23 14:50:35.1     -33    -56     13     66     68 210.7  11.1  34324  292.37 0854.42
2009/04/23 14:50:35.2      -7      6     67     10     67 309.5  90.0  34334  292.54 0854.42
2009/04/23 14:50:35.3     -44     -7    110     45    118 260.3  77.0  34324  292.37 0854.42
2009/04/23 14:50:35.4    -194   -101    118    219    248 242.5  30.6  34316  292.21 0854.42
2009/04/23 14:50:35.5    -157   -118     13    197    198 232.9   3.8  34322  292.32 0854.42
2009/04/23 14:50:35.6    -184   -121     66    221    231 236.5  16.8  34302  291.98 0854.42
2009/04/23 14:50:35.7    -213    -85     81    230    243 248.2  20.0  34298  291.92 0854.42
2009/04/23 14:50:35.8    -189    -54     70    197    210 253.8  19.6  34298  291.93 0854.42
2009/04/23 14:50:35.9    -162    -16     73    163    178 264.1  25.9  34296  291.89 0854.42
2009/04/23 14:50:36.0    -121     14     71    122    141 277.0  32.9  34294  291.86 0854.42
2009/04/23 14:50:36.1     -51     44     82     68    106 310.4  56.3  34288  291.76 0854.42
2009/04/23 14:50:36.2     -52     26     43     59     73 297.1  39.7  34280  291.62 0854.42
2009/04/23 14:50:36.3      27     67     77     73    106  21.8  51.6  34286  291.72 0854.42
2009/04/23 14:50:36.4      30     26     37     40     54  48.7  49.0  34286  291.71 0854.42
2009/04/23 14:50:36.5     -43    -27     41     52     66 237.6  42.7  34290  291.77 0854.42
2009/04/23 14:50:36.6     -97     -7      5     98     99 265.6   2.9  34276  291.55 0854.42
2009/04/23 14:50:36.7     -83   -102    116    132    175 219.2  45.8  34270  291.43 0854.42
2009/04/23 14:50:36.8     -99   -175     52    202    209 209.4  14.5  34260  291.26 0854.42
2009/04/23 14:50:36.9     -56   -166     81    176    193 198.7  26.6  34252  291.15 0854.42
2009/04/23 14:50:37.0     -75   -104    165    129    209 216.0  58.2  34266  291.37 0854.46
2009/04/23 14:50:37.1       2      0     78      3     78  90.0  90.0  34282  291.64 0854.46
2009/04/23 14:50:37.2     -24     62     71     67     97 338.2  51.2  34294  291.86 0854.46
2009/04/23 14:50:37.3       0     75     90     76    117   0.0  55.4  34318  292.27 0854.46
2009/04/23 14:50:37.4      -1     13     59     14     60 352.0  88.0  34326  292.39 0854.46
2009/04/23 14:50:37.5      24    115     66    118    135  12.0  31.9  34360  292.97 0854.46
2009/04/23 14:50:37.6      34    115     23    120    123  16.5  11.0  34362  293.00 0854.46
2009/04/23 14:50:37.7      69     58     -3     91     92  50.0  -2.2  34330  292.47 0854.46
2009/04/23 14:50:37.8      42     86     57     96    111  26.3  33.5  34332  292.49 0854.46
2009/04/23 14:50:37.9     -81     59     21    101    104 305.9  12.2  34332  292.51 0854.46
2009/04/23 14:50:38.0      10     31     52     33     61  18.3  64.7  34322  292.34 0854.46
2009/04/23 14:50:38.1     -16    107     45    109    117 351.1  23.6  34328  292.42 0854.46
2009/04/23 14:50:38.2     -38     34     37     52     63 312.2  39.5  34322  292.32 0854.46
2009/04/23 14:50:38.3    -114     58     65    129    144 297.0  29.2  34324  292.35 0854.46
2009/04/23 14:50:38.4    -124     90     72    154    170 306.0  27.1  34348  292.78 0854.46
2009/04/23 14:50:38.5    -131     67     81    148    168 297.1  31.0  34342  292.66 0854.46
2009/04/23 14:50:38.6     -94     81     61    125    139 310.9  27.8  34330  292.46 0854.46
2009/04/23 14:50:38.7     -74     76     21    107    110 315.9  11.1  34324  292.37 0854.46
2009/04/23 14:50:38.8     -80    118      7    143    144 325.7   2.9  34336  292.58 0854.46
2009/04/23 14:50:38.9     -57    120     78    133    154 334.5  33.5  34372  293.19 0854.42
2009/04/23 14:50:39.0     -31    134     73    138    156 346.7  30.3  34382  293.36 0854.42
2009/04/23 14:50:39.1     -59    191     51    200    207 342.8  14.5  34392  293.51 0854.42
2009/04/23 14:50:39.2     -90    148     59    174    185 328.6  18.9  34380  293.31 0854.42
2009/04/23 14:50:39.4     -58    114     23    129    132 332.9  10.1  34394  293.56 0854.42
2009/04/23 14:50:39.5     -21    106      9    109    110 348.9   4.9  34392  293.53 0854.42
2009/04/23 14:50:39.6     -26     45      6     53     54 330.1   6.9  34352  292.85 0854.42
2009/04/23 14:50:39.7       0     51     48     52     70 359.1  47.9  34366  293.07 0854.42
2009/04/23 14:50:39.7       7     33     39     34     51  13.4  54.3  34360  292.97 0854.42
2009/04/23 14:50:39.9       9      3     17     10     19  68.3  64.7  34344  292.71 0854.42
2009/04/23 14:50:40.0     -14    -14     14     21     25 225.0  35.6  34344  292.71 0854.42
2009/04/23 14:50:40.0      -4    -22      0     23     24 191.6  -1.3  34336  292.56 0854.42
2009/04/23 14:50:40.2      10    -35     24     37     44 163.1  36.5  34344  292.71 0854.42
2009/04/23 14:50:40.3      87    -48     69    100    121 118.9  37.6  34358  292.93 0854.42
2009/04/23 14:50:40.4      65   -111    109    129    168 149.7  44.3  34298  291.93 0854.42
2009/04/23 14:50:40.5     105   -158     87    190    208 146.4  26.4  34276  291.55 0854.42
2009/04/23 14:50:40.6     147   -196    120    245    272 143.1  28.0  34260  291.27 0854.42
2009/04/23 14:50:40.7     238   -350     58    424    428 145.7   7.8  34250  291.11 0854.42
2009/04/23 14:50:40.8     203   -333     78    391    399 148.6  11.3  34244  291.00 0854.42
2009/04/23 14:50:40.9     115   -438      5    453    454 165.2   0.7  34254  291.16 0854.42
2009/04/23 14:50:41.0      25   -404     87    405    415 176.4  12.2  34248  291.06 0854.36
2009/04/23 14:50:41.1     -13   -380    -61    381    386 182.0  -9.1  34250  291.11 0854.36
2009/04/23 14:50:41.2     -44   -311   -103    315    332 188.1 -18.2  34254  291.17 0854.36
2009/04/23 14:50:41.3     -58   -321   -117    327    348 190.3 -19.8  34254  291.17 0854.36
2009/04/23 14:50:41.4    -103   -340   -117    356    375 196.9 -18.2  34268  291.40 0854.36
2009/04/23 14:50:41.5     -53   -276    -83    282    295 190.9 -16.5  34254  291.16 0854.36
2009/04/23 14:50:41.6     -53   -216    -93    223    241 194.0 -28.5  34246  291.04 0854.36
2009/04/23 14:50:41.7     -23   -103   -129    106    166 192.9 -60.8  34260  291.28 0854.36
2009/04/23 14:50:41.8      77   -162   -111    180    211 154.6 -39.4  34256  291.21 0854.36
2009/04/23 14:50:41.9     -21   -151    -56    153    162 188.1 -25.1  34256  291.20 0854.36
2009/04/23 14:50:42.0    -103   -311     40    328    331 198.5   7.1  34228  290.74 0854.36
2009/04/23 14:50:42.1     -57   -268    -32    275    277 192.0  -6.7  34244  291.00 0854.36
2009/04/23 14:50:42.2       0   -231    -39    232    236 180.2  -9.6  34240  290.93 0854.36
2009/04/23 14:50:42.3      -7   -306    122    307    330 181.4  22.8  34240  290.93 0854.36
2009/04/23 14:50:42.4       3   -271    130    272    301 179.3  27.3  34244  290.99 0854.36
2009/04/23 14:50:42.5      59   -211     59    220    228 164.4  15.2  34242  290.98 0854.36
2009/04/23 14:50:42.6     104   -166     46    197    203 147.9  13.2  34250  291.09 0854.36
2009/04/23 14:50:42.7      92   -251    -14    268    269 159.9  -3.1  34278  291.56 0854.36
2009/04/23 14:50:42.8      36   -286     36    289    292 172.8   7.1  34274  291.50 0854.36
2009/04/23 14:50:42.9      80   -250     77    263    275 162.2  16.4  34272  291.48 0854.36
2009/04/23 14:50:43.0     -32   -255     31    258    260 187.3   6.9  34254  291.17 0854.39
2009/04/23 14:50:43.1     -28   -288     35    290    293 185.6   6.9  34250  291.09 0854.39
2009/04/23 14:50:43.2     -37   -358      4    360    361 186.0   0.7  34240  290.94 0854.39
2009/04/23 14:50:43.3     -25   -372     76    373    381 183.9  11.6  34232  290.79 0854.39
2009/04/23 14:50:43.4     -19   -330    128    331    354 183.4  22.2  34250  291.10 0854.39
2009/04/23 14:50:43.5     -26   -386    135    387    409 183.9  20.0  34242  290.95 0854.39
2009/04/23 14:50:43.6    -176   -475     56    507    511 200.4   6.4  34242  290.96 0854.39
2009/04/23 14:50:43.7      41   -542    -21    544    545 175.7  -2.3  34254  291.16 0854.39
2009/04/23 14:50:43.8      95   -531   -112    540    552 169.8 -11.8  34248  291.08 0854.39
2009/04/23 14:50:43.9     169   -506   -119    534    548 161.5 -12.6  34242  290.97 0854.39
2009/04/23 14:50:44.0     232   -533    -51    582    585 156.5  -5.1  34232  290.80 0854.39
2009/04/23 14:50:44.1     326   -477     60    578    582 145.6   6.0  34216  290.51 0854.39
2009/04/23 14:50:44.2     268   -420    137    499    518 147.4  15.4  34216  290.51 0854.39
2009/04/23 14:50:44.3     148   -370    122    399    418 158.1  17.0  34222  290.61 0854.39
2009/04/23 14:50:44.4      72   -375     65    382    388 169.0   9.7  34220  290.60 0854.39
2009/04/23 14:50:44.5     112   -308      5    329    330 160.0   1.0  34232  290.80 0854.39
2009/04/23 14:50:44.6     191   -246      2    312    313 142.1   0.4  34238  290.90 0854.39
2009/04/23 14:50:44.7     287   -328    132    437    457 138.8  16.8  34228  290.73 0854.39
2009/04/23 14:50:44.8     244   -416    136    483    503 149.6  15.8  34240  290.93 0854.39
2009/04/23 14:50:44.9     286   -497     -2    574    575 150.1  -0.3  34238  290.90 0854.39
2009/04/23 14:50:45.0     319   -470    -31    569    570 145.8  -3.1  34232  290.81 0854.39
2009/04/23 14:50:45.1     456   -428     23    626    627 133.2   2.1  34228  290.72 0854.39
2009/04/23 14:50:45.2     324   -430    -69    539    544 143.0  -7.3  34234  290.84 0854.39
2009/04/23 14:50:45.3     167   -391   -176    426    460 156.8 -28.2  34252  291.12 0854.39
2009/04/23 14:50:45.4     199   -485   -187    525    557 157.7 -24.8  34256  291.21 0854.39
2009/04/23 14:50:45.5     318   -566   -211    650    684 150.7 -18.0  34248  291.06 0854.39
2009/04/23 14:50:45.6     298   -326   -128    442    460 137.6 -20.9  34238  290.89 0854.39
2009/04/23 14:50:45.7     117   -348   -119    368    387 161.3 -18.0  34252  291.13 0854.39
2009/04/23 14:50:45.8     148   -371   -104    400    414 158.2 -14.6  34244  290.99 0854.39
2009/04/23 14:50:45.9     183   -294   -112    347    364 148.0 -23.0  34248  291.05 0854.39
2009/04/23 14:50:46.0     107   -280    -80    300    311 159.0 -15.1  34240  290.93 0854.39
2009/04/23 14:50:46.1      41   -379     50    382    386 173.8   7.6  34240  290.93 0854.39
2009/04/23 14:50:46.2      41   -296     -6    299    300 172.0  -1.3  34234  290.82 0854.39
2009/04/23 14:50:46.3      49   -202     59    208    217 166.2  16.0  34238  290.91 0854.39
2009/04/23 14:50:46.4      99   -213     28    235    237 155.1   6.9  34242  290.95 0854.39
2009/04/23 14:50:46.5      77   -219    103    233    254 160.6  25.3  34240  290.92 0854.39
2009/04/23 14:50:46.6      25   -233    143    235    275 173.7  34.2  34242  290.95 0854.39
2009/04/23 14:50:46.7      54   -162     96    171    196 161.5  31.4  34238  290.91 0854.39
2009/04/23 14:50:46.8      -2   -170     85    171    190 180.9  28.2  34242  290.98 0854.39
2009/04/23 14:50:46.9    -135   -163    -50    212    218 219.6 -13.4  34238  290.91 0854.39
2009/04/23 14:50:47.0     -74   -144     -8    162    163 207.2  -3.1  34238  290.91 0854.39
2009/04/23 14:50:47.1     -26   -161     32    164    168 189.3  11.1  34242  290.96 0854.39
2009/04/23 14:50:47.2      -5   -121     26    122    125 182.7  12.2  34244  291.01 0854.39
2009/04/23 14:50:47.3       7    -96      4     97     98 175.5   2.9  34240  290.92 0854.39
2009/04/23 14:50:47.4      59    -82     14    102    104 144.0   8.0  34240  290.92 0854.39
2009/04/23 14:50:47.5      54    -25      8     60     61 115.2   8.0  34236  290.86 0854.39
2009/04/23 14:50:47.6      76     54    -40     94    102  54.5 -28.5  34246  291.04 0854.39
2009/04/23 14:50:47.7      66     61    -68     91    113  47.3 -44.5  34246  291.03 0854.39
2009/04/23 14:50:47.8      80      0    -39     81     89  90.0 -31.7  34242  290.96 0854.39
2009/04/23 14:50:47.9      70      5    -24     71     74  85.7 -23.6  34244  290.99 0854.39
2009/04/23 14:50:48.0      69    -38    -15     79     81 118.9 -11.3  34248  291.08 0854.43
2009/04/23 14:50:48.1      39    -42     65     58     87 136.8  53.3  34248  291.06 0854.43
2009/04/23 14:50:48.2      20    -67     67     71     97 163.1  49.0  34248  291.08 0854.43
2009/04/23 14:50:48.3      34    -44     94     56    109 142.2  66.2  34244  291.01 0854.43
2009/04/23 14:50:48.4     -64    -67    115     93    147 223.7  56.4  34240  290.94 0854.43
2009/04/23 14:50:48.5     -55    -86     56    103    117 212.5  31.3  34236  290.87 0854.43
2009/04/23 14:50:48.6      69    -23    118     73    138 108.6  65.1  34258  291.25 0854.43
2009/04/23 14:50:48.7      32   -134    173    138    221 166.6  57.5  34244  291.01 0854.43
2009/04/23 14:50:48.8      66   -154    132    168    213 156.6  42.2  34240  290.92 0854.43
2009/04/23 14:50:48.9     141   -300    176    332    375 154.8  30.3  34228  290.72 0854.43
2009/04/23 14:50:49.0     126   -466    171    483    512 164.9  20.4  34226  290.69 0854.43
2009/04/23 14:50:49.1     212   -499    221    543    586 157.0  23.5  34236  290.85 0854.43
2009/04/23 14:50:49.2     112   -529    310    541    623 168.0  32.4  34246  291.02 0854.43
2009/04/23 14:50:49.3     207   -539    316    578    658 159.0  31.0  34232  290.79 0854.43
2009/04/23 14:50:49.4      76   -517    248    523    578 171.6  27.1  34232  290.79 0854.43
2009/04/23 14:50:49.5     153   -478     84    503    510 162.2   9.5  34228  290.71 0854.43
2009/04/23 14:50:49.6     365   -345     52    503    506 133.3   5.9  34228  290.73 0854.43
2009/04/23 14:50:49.7     260   -314     -9    409    410 140.4  -1.3  34228  290.72 0854.43
2009/04/23 14:50:49.8     112   -200    -71    230    240 150.8 -22.3  34226  290.68 0854.43
2009/04/23 14:50:49.9     128   -220    -23    255    257 149.7  -5.2  34230  290.75 0854.43
2009/04/23 14:50:50.0     191   -374     99    421    433 152.9  13.3  34226  290.70 0854.47
2009/04/23 14:50:50.1      65   -307    128    314    339 168.0  23.4  34222  290.62 0854.47
2009/04/23 14:50:50.2     160   -393    334    425    540 157.8  42.2  34226  290.69 0854.47
2009/04/23 14:50:50.3     219   -515    420    560    700 157.0  40.6  34218  290.56 0854.47
2009/04/23 14:50:50.4     351   -316    214    473    519 132.0  26.0  34222  290.64 0854.47
2009/04/23 14:50:50.5     289   -142    131    323    348 116.2  23.2  34226  290.69 0854.47
2009/04/23 14:50:50.6     198    -50    117    205    236 104.2  32.4  34226  290.70 0854.47
2009/04/23 14:50:50.7     191   -104    133    218    255 118.8  34.2  34234  290.83 0854.47
2009/04/23 14:50:50.8      99   -129    -38    163    168 142.6 -13.4  34228  290.72 0854.47
2009/04/23 14:50:50.9      49   -135    -26    144    147 160.0 -10.3  34222  290.64 0854.47
2009/04/23 14:50:51.0      -9   -213     97    214    234 182.5  26.2  34232  290.79 0854.47
2009/04/23 14:50:51.1     -53   -290     89    295    309 190.5  16.8  34234  290.83 0854.47
2009/04/23 14:50:51.2     -46   -334     27    338    340 187.9   4.6  34236  290.86 0854.47
2009/04/23 14:50:51.3      20   -293    -58    294    300 176.0 -11.3  34234  290.83 0854.47
2009/04/23 14:50:51.4     101   -296    -92    313    327 161.1 -16.5  34234  290.83 0854.47
2009/04/23 14:50:51.5     163   -350     10    387    388 155.0   1.5  34238  290.89 0854.47
2009/04/23 14:50:51.6     266   -235     55    356    361 131.5   8.8  34238  290.88 0854.47
2009/04/23 14:50:51.7     424   -239     27    487    488 119.4   3.2  34232  290.79 0854.47
2009/04/23 14:50:51.8     242   -295    183    382    423 140.6  27.3  34234  290.84 0854.47
2009/04/23 14:50:51.9     262   -184    287    321    430 125.0  46.4  34234  290.83 0854.47
2009/04/23 14:50:52.0     275   -220    170    353    391 128.6  27.7  34226  290.69 0854.47
2009/04/23 14:50:52.1     204   -247    189    321    372 140.3  33.1  34228  290.72 0854.47
2009/04/23 14:50:52.2      59   -237    164    245    294 165.8  37.3  34234  290.82 0854.47
2009/04/23 14:50:52.3      19   -251    107    252    273 175.6  24.3  34230  290.76 0854.47
2009/04/23 14:50:52.4    -157   -204    -19    258    259 217.8  -4.4  34230  290.76 0854.47
2009/04/23 14:50:52.5    -104   -147   -115    181    214 215.4 -39.9  34242  290.98 0854.47
2009/04/23 14:50:52.6    -108    -13     -2    109    110 263.0  -1.2  34242  290.96 0854.47
2009/04/23 14:50:52.7    -132    -89     56    160    170 235.8  19.4  34234  290.82 0854.47
2009/04/23 14:50:52.8     -80   -118     65    143    157 214.2  26.2  34236  290.87 0854.47
2009/04/23 14:50:52.9    -160     49     84    168    187 287.3  28.5  34258  291.25 0854.47
2009/04/23 14:50:53.0    -154    129     69    202    214 310.0  18.9  34248  291.06 0854.47
2009/04/23 14:50:53.1    -119     51    122    130    178 293.5  48.0  34256  291.20 0854.47
2009/04/23 14:50:53.2     -93     12    145     94    172 277.9  64.6  34270  291.45 0854.47
2009/04/23 14:50:53.3     -54    113    145    126    192 334.6  54.8  34280  291.60 0854.47
2009/04/23 14:50:53.4      -6    131    127    132    183 357.3  49.0  34274  291.50 0854.47
2009/04/23 14:50:53.5     -42    -70     60     82    101 211.2  39.7  34274  291.52 0854.47
2009/04/23 14:50:53.6    -114     38     83    121    146 288.6  38.0  34276  291.54 0854.47
2009/04/23 14:50:53.7      43     78    131     90    158  29.0  62.4  34280  291.62 0854.47
2009/04/23 14:50:53.8     -32     20    180     39    184 302.5  88.5  34270  291.43 0854.47
2009/04/23 14:50:53.9     -88     34    173     95    197 291.3  68.8  34274  291.52 0854.47
2009/04/23 14:50:54.0     -29     74    161     80    179 338.1  71.9  34274  291.50 0854.49
2009/04/23 14:50:54.1      66      5    115     67    133  85.6  66.8  34270  291.45 0854.49
2009/04/23 14:50:54.2     -12     -4    127     13    127 251.4  90.0  34280  291.60 0854.49
2009/04/23 14:50:54.3      21    -23    199     32    201 136.8  90.0  34262  291.30 0854.49
2009/04/23 14:50:54.4      -7    -36    218     37    221 191.6  90.0  34264  291.33 0854.49
2009/04/23 14:50:54.5      -2     10    174     11    174 344.9  90.0  34268  291.40 0854.49
2009/04/23 14:50:54.6       0     23    188     24    189 359.1  90.0  34276  291.54 0854.49
2009/04/23 14:50:54.7      63    -39    189     75    203 121.5  77.4  34270  291.43 0854.49
2009/04/23 14:50:54.8     -18    -31    166     37    170 210.7  88.2  34270  291.43 0854.49
2009/04/23 14:50:54.9     -12   -171    216    172    276 184.2  57.5  34254  291.17 0854.49
2009/04/23 14:50:55.0     127   -104    180    165    244 129.5  52.7  34274  291.50 0854.49
2009/04/23 14:50:55.1     280    -92    248    295    385 108.2  44.2  34256  291.20 0854.49
2009/04/23 14:50:55.2     323   -140     99    353    367 113.4  15.8  34252  291.13 0854.49
2009/04/23 14:50:55.3     153   -241    199    286    348 147.5  38.3  34250  291.11 0854.49
2009/04/23 14:50:55.4      62      8    130     63    144  82.0  72.8  34264  291.35 0854.49
2009/04/23 14:50:55.5     206    -54    200    214    292 104.8  47.9  34260  291.26 0854.49
2009/04/23 14:50:55.6     190    -33    220    193    292  99.9  54.3  34258  291.22 0854.49
2009/04/23 14:50:55.7      37    -45    182     59    191 140.3  81.0  34252  291.15 0854.49
2009/04/23 14:50:55.8    -133   -176    162    221    274 217.2  39.7  34252  291.12 0854.49
2009/04/23 14:50:55.9    -100   -142     33    174    178 215.2  11.0  34254  291.16 0854.49
2009/04/23 14:50:56.0     -42   -185     81    190    206 192.9  24.6  34254  291.16 0854.51
2009/04/23 14:50:56.1      75    -78    156    109    190 135.9  61.8  34260  291.28 0854.51
2009/04/23 14:50:56.2       4    -60    165     61    175 175.5  78.9  34264  291.35 0854.51
2009/04/23 14:50:56.3     -21   -215    159    217    269 185.8  39.7  34258  291.24 0854.51
2009/04/23 14:50:56.4     -41   -158    173    164    238 194.5  51.6  34256  291.21 0854.51
2009/04/23 14:50:56.5       9   -155    144    156    212 176.4  47.9  34256  291.21 0854.51
2009/04/23 14:50:56.6       7   -150     66    151    164 177.3  25.1  34254  291.18 0854.51
2009/04/23 14:50:56.7      38   -133     26    139    142 164.0  10.6  34256  291.20 0854.51
2009/04/23 14:50:56.8       3    -78     72     79    106 177.3  47.9  34258  291.25 0854.51
2009/04/23 14:50:56.9     -31    -62     84     70    109 207.2  56.3  34264  291.35 0854.51
2009/04/23 14:50:57.0       8     25     49     27     55  18.7  67.7  34270  291.45 0854.51
2009/04/23 14:50:57.1     120     -9     90    121    150  94.4  40.1  34252  291.13 0854.51
2009/04/23 14:50:57.2     166     20    122    168    207  83.0  39.7  34246  291.04 0854.51
2009/04/23 14:50:57.3     131     26    150    134    201  78.5  53.7  34258  291.25 0854.51
2009/04/23 14:50:57.4     119     36     67    125    141  73.1  30.8  34256  291.20 0854.51
2009/04/23 14:50:57.5     157     -7     86    158    179  92.6  31.0  34250  291.11 0854.51
2009/04/23 14:50:57.6     113   -113     67    160    173 135.0  23.8  34256  291.20 0854.51
2009/04/23 14:50:57.7      60   -207     55    216    223 163.7  14.3  34246  291.03 0854.51
2009/04/23 14:50:57.8     325   -335    -49    467    470 135.9  -6.1  34252  291.13 0854.51
2009/04/23 14:50:57.9      70   -557    197    562    595 172.8  20.0  34256  291.19 0854.51
2009/04/23 14:50:58.0     144   -324    234    355    425 155.9  36.5  34254  291.16 0854.53
2009/04/23 14:50:58.1     244   -147    238    286    372 121.1  43.8  34250  291.10 0854.53
2009/04/23 14:50:58.2     263   -324    199    418    462 141.0  27.3  34248  291.07 0854.53
2009/04/23 14:50:58.3     -21   -366     15    367    368 183.4   2.3  34250  291.11 0854.53
2009/04/23 14:50:58.4     140   -386      6    411    412 160.0   0.9  34250  291.11 0854.53
2009/04/23 14:50:58.5      -8   -323    -93    324    337 181.5 -20.7  34252  291.15 0854.53
2009/04/23 14:50:58.6     191   -445    287    485    563 156.8  33.5  34234  290.84 0854.53
2009/04/23 14:50:58.7      83   -305    280    317    422 164.8  45.9  34242  290.96 0854.53
2009/04/23 14:50:58.8    -240   -294     97    380    393 219.2  14.4  34248  291.08 0854.53
2009/04/23 14:50:58.9     -34   -452    100    454    466 184.4  12.5  34250  291.09 0854.53
2009/04/23 14:50:59.0     -76   -465    220    472    520 189.4  27.0  34248  291.08 0854.53
2009/04/23 14:50:59.1    -260   -446      7    517    518 210.2   0.8  34252  291.13 0854.53
2009/04/23 14:50:59.2    -175   -428    202    463    505 202.3  25.1  34242  290.95 0854.53
2009/04/23 14:50:59.3      55   -232    304    239    386 166.6  57.9  34256  291.20 0854.53
2009/04/23 14:50:59.4     177   -208    316    274    418 139.7  54.7  34258  291.22 0854.53
2009/04/23 14:50:59.5      56   -123    272    136    304 155.5  71.9  34260  291.26 0854.53
2009/04/23 14:50:59.6      61     40    200     74    213  56.7  79.2  34262  291.32 0854.53
2009/04/23 14:50:59.7     -56    -46     96     73    120 230.5  59.0  34254  291.16 0854.53
2009/04/23 14:50:59.8    -144    -11    -34    145    150 265.6 -13.4  34252  291.15 0854.53
2009/04/23 14:50:59.9    -222     55   -112    229    254 283.9 -32.4  34252  291.14 0854.53
2009/04/23 14:51:00.0    -171    194    -47    259    264 318.6 -10.4  34258  291.22 0854.56
2009/04/23 14:51:00.1    -118    102    -42    157    163 310.9 -15.0  34256  291.20 0854.56
2009/04/23 14:51:00.2     -24     21      4     33     34 311.3   6.9  34254  291.16 0854.56
2009/04/23 14:51:00.3     -83     86     49    120    129 315.9  23.0  34262  291.32 0854.56
2009/04/23 14:51:00.4     -48    -16    -10     51     53 251.4 -11.3  34270  291.43 0854.56
2009/04/23 14:51:00.5      25     38    -13     46     47  33.4 -20.7  34270  291.43 0854.56
2009/04/23 14:51:00.6      56     46    -23     73     77  50.4 -17.6  34306  292.06 0854.56
2009/04/23 14:51:00.7     139    159     56    212    220  41.0  15.0  34366  293.09 0854.56
2009/04/23 14:51:00.8     158    156     54    223    230  45.3  13.7  34360  292.97 0854.56
2009/04/23 14:51:00.9     238    245    102    342    358  44.2  16.7  34334  292.53 0854.56
2009/04/23 14:51:01.0     287    225    155    365    396  51.9  24.3  34366  293.09 0854.56
2009/04/23 14:51:01.1     287    114    469    309    561  68.3  63.6  34396  293.59 0854.56
2009/04/23 14:51:01.2      58     23    364     63    369  68.3  90.0  34366  293.08 0854.56
2009/04/23 14:51:01.3    -200    154    263    253    364 307.7  51.2  34378  293.28 0854.56
2009/04/23 14:51:01.4    -346   -377    401    512    650 222.5  42.0  34330  292.46 0854.56
2009/04/23 14:51:01.5    -292   -516    327    594    678 209.5  31.3  34282  291.64 0854.56
2009/04/23 14:51:01.6    -327   -425    191    537    571 217.6  19.6  34284  291.67 0854.56
2009/04/23 14:51:01.7    -431   -470    225    639    678 222.5  19.4  34270  291.43 0854.56
2009/04/23 14:51:01.8    -388   -453     44    597    599 220.6   4.2  34268  291.41 0854.56
2009/04/23 14:51:01.9    -368   -538     39    652    654 214.4   3.5  34250  291.11 0854.56
2009/04/23 14:51:02.0    -280   -360    247    457    519 217.9  30.8  34258  291.24 0854.59
2009/04/23 14:51:02.1    -280   -331     -9    434    435 220.3  -1.3  34236  290.87 0854.59
2009/04/23 14:51:02.2    -123   -129    226    179    288 223.4  57.7  34290  291.78 0854.59
2009/04/23 14:51:02.3    -168   -193    159    256    301 221.0  35.2  34268  291.41 0854.59
2009/04/23 14:51:02.4    -306   -273     97    411    423 228.3  13.3  34230  290.77 0854.59
2009/04/23 14:51:02.5    -255   -175     47    310    314 235.6   8.7  34244  291.00 0854.59
2009/04/23 14:51:02.6    -255   -168     40    306    309 236.5   7.5  34260  291.26 0854.59
2009/04/23 14:51:02.7     -41   -188    199    193    277 192.5  50.9  34302  291.99 0854.59
2009/04/23 14:51:02.8    -288   -294    178    412    448 224.4  25.1  34352  292.83 0854.59
2009/04/23 14:51:02.9    -142   -241     29    280    282 210.5   6.1  34318  292.26 0854.59
2009/04/23 14:51:03.0    -397   -183    158    438    466 245.3  19.9  34290  291.77 0854.59
2009/04/23 14:51:03.1    -507   -192   -189    543    574 249.2 -24.4  34282  291.64 0854.59
2009/04/23 14:51:03.2    -675   -299   -242    739    778 246.1 -18.2  34192  290.12 0854.59
2009/04/23 14:51:03.3    -613   -373   -276    718    769 238.7 -26.6  34146  289.34 0854.59
2009/04/23 14:51:03.4    -519   -351   -181    627    652 235.9 -20.9  34156  289.52 0854.59
2009/04/23 14:51:03.5    -444   -329   -247    553    605 233.5 -30.1  34174  289.80 0854.59
2009/04/23 14:51:03.6    -415   -214   -286    468    548 242.7 -38.8  34186  290.01 0854.59
2009/04/23 14:51:03.7    -291   -457     -8    542    543 212.5  -0.9  34226  290.70 0854.59
2009/04/23 14:51:03.8    -791   -336   -280    860    904 247.0 -23.1  34174  289.81 0854.59
2009/04/23 14:51:03.9    -361   -349    -67    503    508 226.0  -7.6  34192  290.10 0854.59
2009/04/23 14:51:04.0    -782   -391    143    875    887 243.4   9.3  34198  290.22 0854.58
2009/04/23 14:51:04.1    -868   -113   -241    876    909 262.5 -15.4  34148  289.37 0854.58
2009/04/23 14:51:04.2   -1061    -90   -389   1066   1134 265.1 -25.4  34180  289.91 0854.58
2009/04/23 14:51:04.3   -1011   -420   -385   1095   1161 247.4 -19.4  34158  289.55 0854.58
2009/04/23 14:51:04.4    -821   -431    -87    928    933 242.3  -5.4  34176  289.85 0854.58
2009/04/23 14:51:04.5    -687   -149      2    704    705 257.7   0.2  34162  289.61 0854.58
2009/04/23 14:51:04.6    -529    -24    -82    530    537 267.4  -8.8  34166  289.67 0854.58
2009/04/23 14:51:04.7    -795    -66   -253    798    837 265.2 -22.6  34106  288.65 0854.58
2009/04/23 14:51:04.8    -742    -22   -287    743    796 268.3 -26.7  34118  288.85 0854.58
2009/04/23 14:51:04.9    -678    -27   -280    679    734 267.7 -28.1  34130  289.08 0854.58
2009/04/23 14:51:05.0    -661    -17   -296    662    725 268.5 -30.2  34122  288.93 0854.58
2009/04/23 14:51:05.1    -583    -66   -212    587    624 263.5 -25.2  34120  288.88 0854.58
2009/04/23 14:51:05.2    -426   -121   -136    443    463 254.1 -21.9  34122  288.92 0854.58
2009/04/23 14:51:05.4    -467   -191   -179    505    535 247.7 -24.8  34162  289.62 0854.58
2009/04/23 14:51:05.4    -180     30   -258    183    316 279.5 -65.7  34172  289.76 0854.58
2009/04/23 14:51:05.5    -116    109   -120    160    200 313.2 -45.1  34156  289.50 0854.58
2009/04/23 14:51:05.6    -136     94   -256    166    305 304.6 -68.8  34158  289.53 0854.58
2009/04/23 14:51:05.7    -171     49   -308    179    356 286.2 -71.6  34160  289.56 0854.58
2009/04/23 14:51:05.9    -343     59   -330    349    480 279.8 -52.6  34172  289.78 0854.58
2009/04/23 14:51:06.0    -408   -101   -210    421    470 256.1 -32.9  34170  289.75 0854.58
2009/04/23 14:51:06.1    -300   -317   -133    437    458 223.5 -17.0  34180  289.92 0854.58
2009/04/23 14:51:06.2    -391     35   -472    393    614 275.2 -60.7  34210  290.41 0854.58
2009/04/23 14:51:06.3    -154    108   -420    189    460 305.1 -78.6  34168  289.71 0854.58
2009/04/23 14:51:06.4    -194   -150   -429    246    494 232.2 -72.1  34188  290.04 0854.58
2009/04/23 14:51:06.5    -554   -331   -395    646    757 239.1 -38.8  34168  289.72 0854.58
2009/04/23 14:51:06.6    -433   -501   -384    663    766 220.8 -37.1  34168  289.72 0854.58
2009/04/23 14:51:06.7    -606   -449   -475    755    891 233.5 -39.7  34174  289.80 0854.58
2009/04/23 14:51:06.8    -668   -605   -390    902    982 227.8 -29.3  34166  289.69 0854.58
2009/04/23 14:51:06.9    -668   -610   -215    905    931 227.6 -13.4  34178  289.89 0854.58
2009/04/23 14:51:07.0    -648   -590   -340    877    940 227.7 -26.7  34194  290.16 0854.57
2009/04/23 14:51:07.1    -750   -638   -294    985   1028 229.6 -16.6  34168  289.72 0854.57
2009/04/23 14:51:07.2    -403   -490     79    635    640 219.4   7.1  34166  289.69 0854.57
2009/04/23 14:51:07.3    -294   -438     26    528    529 213.9   2.9  34188  290.04 0854.57
2009/04/23 14:51:07.4     137   -141    -76    197    211 135.9 -26.4  34194  290.16 0854.57
2009/04/23 14:51:07.5     109   -128    109    169    201 139.7  35.7  34190  290.09 0854.57
2009/04/23 14:51:07.6       5    -21    -75     22     78 164.9 -87.2  34194  290.16 0854.57
2009/04/23 14:51:07.7     426    141   -347    449    567  71.6 -46.0  34190  290.07 0854.57
2009/04/23 14:51:07.8     410     65   -276    416    499  80.9 -41.0  34192  290.10 0854.57
2009/04/23 14:51:07.9     485     55   -360    489    607  83.5 -44.3  34184  289.98 0854.57
2009/04/23 14:51:08.0     677    -10   -424    678    799  90.9 -39.4  34182  289.95 0854.57
2009/04/23 14:51:08.1     414   -227   -268    473    543 118.8 -36.4  34180  289.92 0854.57
2009/04/23 14:51:08.2    -103   -389   -108    403    418 194.9 -15.1  34206  290.34 0854.57
2009/04/23 14:51:08.3       0   -384     12    385    386 179.9   1.9  34218  290.55 0854.57
2009/04/23 14:51:08.4     358   -230   -110    426    441 122.8 -14.5  34218  290.55 0854.57
2009/04/23 14:51:08.5     316   -210   -273    380    467 123.7 -43.6  34200  290.24 0854.57
2009/04/23 14:51:08.6     395   -111   -139    411    434 105.7 -18.7  34194  290.14 0854.57
2009/04/23 14:51:08.7     363    -45   -115    366    384  97.1 -17.5  34196  290.18 0854.57
2009/04/23 14:51:08.8     592   -170   -207    616    650 106.0 -18.6  34198  290.23 0854.57
2009/04/23 14:51:08.9     534    -90    -69    542    547  99.6  -7.3  34180  289.90 0854.57
2009/04/23 14:51:09.0     588     77     40    593    595  82.5   3.9  34172  289.76 0854.57
2009/04/23 14:51:09.1     518    127    251    534    590  76.2  27.1  34202  290.29 0854.57
2009/04/23 14:51:09.2     549    182    256    579    633  71.6  25.3  34194  290.15 0854.57
2009/04/23 14:51:09.3     513    224    393    561    684  66.4  38.5  34196  290.18 0854.57
2009/04/23 14:51:09.4     593    257    425    647    774  66.6  36.4  34192  290.11 0854.57
2009/04/23 14:51:09.5     528    231    118    577    590  66.4  11.6  34178  289.86 0854.57
2009/04/23 14:51:09.6     335    150    227    368    432  65.8  34.5  34190  290.07 0854.57
2009/04/23 14:51:09.7     363    115    254    381    457  72.3  36.7  34194  290.14 0854.57
2009/04/23 14:51:09.8     403     65    136    409    431  80.8  18.4  34184  289.97 0854.57
2009/04/23 14:51:09.9     362     88    169    373    409  76.2  26.2  34182  289.96 0854.57
2009/04/23 14:51:10.0     257    126    147    287    322  63.8  29.2  34184  289.98 0854.57
2009/04/23 14:51:10.1     158    103    166    189    251  56.9  45.8  34190  290.07 0854.57
2009/04/23 14:51:10.2      -2      5    130      6    130 334.6  90.0  34210  290.41 0854.57
2009/04/23 14:51:10.3      59      0    113     60    127  90.0  70.4  34204  290.31 0854.57
2009/04/23 14:51:10.4     123     78    133    146    197  57.6  47.1  34198  290.21 0854.57
2009/04/23 14:51:10.5      42     73    138     85    162  30.3  65.7  34214  290.48 0854.57
2009/04/23 14:51:10.6    -128    -58    111    141    179 245.6  42.4  34212  290.45 0854.57
2009/04/23 14:51:10.7      24    -90    171     94    195 164.9  68.8  34204  290.33 0854.57
2009/04/23 14:51:10.8      14   -125    222    126    255 173.3  68.3  34202  290.28 0854.57
2009/04/23 14:51:10.9     -13    -90    205     92    224 188.5  74.5  34216  290.52 0854.57
2009/04/23 14:51:11.0     -23   -117    256    120    282 191.5  73.1  34222  290.63 0854.55
2009/04/23 14:51:11.1    -131   -278    343    308    460 205.3  53.6  34224  290.65 0854.55
2009/04/23 14:51:11.2    -319   -103    227    336    405 252.1  37.3  34254  291.18 0854.55
2009/04/23 14:51:11.3    -364    -64     29    370    372 259.9   4.6  34240  290.93 0854.55
2009/04/23 14:51:11.4    -406    102     27    419    420 284.2   3.8  34252  291.12 0854.55
2009/04/23 14:51:11.5    -301    119   -109    324    343 291.7 -18.7  34228  290.72 0854.55
2009/04/23 14:51:11.6    -365    137     -1    390    391 290.6  -0.3  34224  290.67 0854.55
2009/04/23 14:51:11.7    -626    108   -215    636    672 279.8 -18.7  34168  289.70 0854.55
2009/04/23 14:51:11.8    -589    199    -66    622    626 288.7  -6.1  34178  289.87 0854.55
2009/04/23 14:51:11.9    -547    170   -109    573    584 287.3 -10.8  34188  290.03 0854.55
2009/04/23 14:51:12.0    -635    108   -181    645    670 279.7 -15.7  34158  289.53 0854.55
2009/04/23 14:51:12.1    -789    123   -242    799    834 278.9 -21.7  34156  289.52 0854.55
2009/04/23 14:51:12.2    -699     94   -213    706    738 277.7 -16.8  34154  289.47 0854.55
2009/04/23 14:51:12.3    -487    206   -189    530    563 293.0 -19.7  34166  289.68 0854.55
2009/04/23 14:51:12.4    -415     51   -199    419    463 277.1 -31.6  34192  290.11 0854.55
2009/04/23 14:51:12.5    -425     26   -138    426    447 273.5 -23.3  34196  290.17 0854.55
2009/04/23 14:51:12.6    -531      0   -191    532    566 270.0 -19.8  34198  290.23 0854.55
2009/04/23 14:51:12.7    -648      1   -213    649    683 270.1 -23.3  34172  289.77 0854.55
2009/04/23 14:51:12.8    -675     46   -272    677    729 273.9 -27.5  34164  289.64 0854.55
2009/04/23 14:51:12.9    -607     -5   -219    608    646 269.5 -25.1  34164  289.64 0854.55
2009/04/23 14:51:13.0    -483      0   -232    484    536 269.9 -31.7  34160  289.58 0854.52
2009/04/23 14:51:13.1    -349     12   -285    350    451 272.0 -47.9  34164  289.65 0854.52
2009/04/23 14:51:13.2    -168    125   -235    210    315 306.6 -58.1  34166  289.66 0854.52
2009/04/23 14:51:13.3    -258     56   -308    265    406 282.4 -59.4  34168  289.72 0854.52
2009/04/23 14:51:13.4    -319      0   -268    320    417 270.0 -48.6  34162  289.62 0854.52
2009/04/23 14:51:13.5    -114    -56   -281    128    308 243.8 -78.4  34168  289.70 0854.52
2009/04/23 14:51:13.6    -276   -134   -232    308    385 244.0 -45.2  34172  289.79 0854.52
2009/04/23 14:51:13.7    -227    -89   -231    244    336 248.5 -52.6  34170  289.75 0854.52
2009/04/23 14:51:13.8    -199     26   -176    201    267 277.7 -50.2  34168  289.70 0854.52
2009/04/23 14:51:13.9    -353     89   -152    364    394 284.2 -28.5  34164  289.64 0854.52
2009/04/23 14:51:14.0    -306   -162    -96    347    360 242.1 -20.2  34172  289.79 0854.52
2009/04/23 14:51:14.1    -240    -33   -206    243    318 262.1 -49.1  34170  289.75 0854.52
2009/04/23 14:51:14.2    -200     31   -191    203    278 279.0 -52.4  34176  289.85 0854.52
2009/04/23 14:51:14.3    -223    -45    -72    228    240 258.5 -17.6  34170  289.73 0854.52
2009/04/23 14:51:14.4    -339    -23     13    340    341 266.0   2.2  34178  289.89 0854.52
2009/04/23 14:51:14.5    -353    -55   -140    358    384 261.0 -27.1  34184  289.99 0854.52
2009/04/23 14:51:14.6    -152   -138    -86    206    223 227.6 -28.0  34194  290.14 0854.52
2009/04/23 14:51:14.7    -112   -234   -102    260    279 205.6 -26.9  34200  290.24 0854.52
2009/04/23 14:51:14.8     -51   -344    -84    348    358 188.6 -13.6  34192  290.11 0854.52
2009/04/23 14:51:14.9    -310      0   -106    311    328 270.1 -23.7  34198  290.20 0854.52
2009/04/23 14:51:15.0    -491      0   -206    492    533 270.0 -28.5  34182  289.94 0854.51
2009/04/23 14:51:15.1    -666    266   -269    718    766 291.8 -26.0  34152  289.43 0854.51
2009/04/23 14:51:15.2    -378    100   -325    392    509 284.9 -48.2  34178  289.88 0854.51
2009/04/23 14:51:15.3    -262     17   -122    263    289 273.9 -31.4  34180  289.92 0854.51
2009/04/23 14:51:15.4      16     12   -180     21    181  52.2 -90.0  34194  290.14 0854.51
2009/04/23 14:51:15.5     117     64   -239    134    274  61.2 -73.2  34202  290.29 0854.51
2009/04/23 14:51:15.6     158    -68   -244    173    299 113.3 -65.7  34194  290.14 0854.51
2009/04/23 14:51:15.7     101   -249   -103    269    288 157.9 -26.4  34192  290.12 0854.51
2009/04/23 14:51:15.8     113   -155   -157    193    248 143.9 -47.9  34194  290.16 0854.51
2009/04/23 14:51:15.9     129   -261    -83    292    304 153.7 -16.0  34186  290.02 0854.51
2009/04/23 14:51:16.0     434   -408     51    596    599 133.2   5.0  34184  289.97 0854.51
2009/04/23 14:51:16.1     400   -595    113    718    728 146.1   9.0  34196  290.17 0854.51
2009/04/23 14:51:16.2     360   -666     36    758    759 151.6   2.8  34190  290.07 0854.51
2009/04/23 14:51:16.3     286   -480    262    559    617 149.2  27.1  34176  289.83 0854.51
2009/04/23 14:51:16.4     250   -379    243    455    515 146.6  30.3  34192  290.12 0854.51
2009/04/23 14:51:16.5     360   -234    237    430    490 123.1  31.3  34202  290.29 0854.51
2009/04/23 14:51:16.6     455   -181    180    490    522 111.7  21.0  34198  290.20 0854.51
2009/04/23 14:51:16.7     494   -314     80    586    592 122.5   7.8  34182  289.93 0854.51
2009/04/23 14:51:16.8     679    -21     38    680    682  91.8   3.2  34186  290.02 0854.51
2009/04/23 14:51:16.9     745     39     39    746    747  87.0   3.0  34188  290.04 0854.51
2009/04/23 14:51:17.0     606    258   -119    659    670  66.9 -10.3  34184  289.97 0854.50
2009/04/23 14:51:17.1     588    235   -100    634    642  68.2  -9.0  34194  290.15 0854.50
2009/04/23 14:51:17.2     483    312    125    576    590  57.1  12.3  34196  290.19 0854.50
2009/04/23 14:51:17.3     724    172    168    745    764  76.6  12.8  34210  290.43 0854.50
2009/04/23 14:51:17.4     793    264    249    836    873  71.6  16.6  34222  290.61 0854.50
2009/04/23 14:51:17.5     750    306    204    811    837  67.8  14.2  34190  290.09 0854.50
2009/04/23 14:51:17.6     660    112    236    670    711  80.3  19.4  34202  290.28 0854.50
2009/04/23 14:51:17.7     653    281    207    711    741  66.7  16.3  34270  291.44 0854.50
2009/04/23 14:51:17.8     602    457    365    757    840  52.8  27.7  34268  291.42 0854.50
2009/04/23 14:51:17.9     721    455    391    853    938  57.7  26.4  34250  291.09 0854.50
2009/04/23 14:51:18.0     844    458   -123    961    969  61.5  -7.3  34170  289.74 0854.50
2009/04/23 14:51:18.1     675    344    176    758    779  63.0  13.1  34192  290.12 0854.50
2009/04/23 14:51:18.2     610     55    -12    613    614  84.8  -1.2  34212  290.44 0854.50
2009/04/23 14:51:18.3     958    346     78   1019   1022  70.1   4.4  34192  290.10 0854.50
2009/04/23 14:51:18.4     735    234    125    772    783  72.3   9.2  34188  290.05 0854.50
2009/04/23 14:51:18.5     682    408      5    795    796  59.1   0.4  34188  290.05 0854.50
2009/04/23 14:51:18.6     721    381    -48    816    818  62.1  -3.4  34194  290.16 0854.50
2009/04/23 14:51:18.7     841    234    176    874    892  74.4  11.4  34198  290.20 0854.50
2009/04/23 14:51:18.8     532    269    237    597    642  63.2  22.9  34208  290.40 0854.50
2009/04/23 14:51:18.9     597    121    214    610    647  78.5  19.4  34208  290.38 0854.50
2009/04/23 14:51:19.0     517    339    109    619    629  56.7  10.0  34192  290.13 0854.49
2009/04/23 14:51:19.1     615      8     50    616    619  89.2   4.7  34208  290.37 0854.49
2009/04/23 14:51:19.2     601    127    112    615    626  78.0  10.4  34240  290.93 0854.49
2009/04/23 14:51:19.3     457     90    133    466    485  78.8  16.0  34232  290.79 0854.49
2009/04/23 14:51:19.4     814    132     24    825    826  80.8   1.7  34204  290.31 0854.49
2009/04/23 14:51:19.5     789    123    162    799    816  81.1  11.5  34198  290.21 0854.49
2009/04/23 14:51:19.6     621    190    153    650    668  72.9  13.3  34192  290.10 0854.49
2009/04/23 14:51:19.7     497    276    198    569    603  61.0  19.2  34198  290.20 0854.49
2009/04/23 14:51:19.8     554    119     58    567    570  77.8   5.9  34192  290.10 0854.49
2009/04/23 14:51:19.9     476     66    117    481    495  82.1  13.7  34188  290.03 0854.49
2009/04/23 14:51:20.0     430    123     79    448    456  74.0  10.0  34200  290.26 0854.49
2009/04/23 14:51:20.1     596     30     61    597    601  87.1   5.9  34196  290.19 0854.49
2009/04/23 14:51:20.2     438     58    115    442    457  82.4  14.7  34208  290.38 0854.49
2009/04/23 14:51:20.3     369     48     72    373    380  82.6  11.0  34208  290.38 0854.49
2009/04/23 14:51:20.4     357     25    154    358    389  85.9  24.8  34220  290.59 0854.49
2009/04/23 14:51:20.5     307    -32    216    309    377  96.1  38.5  34224  290.66 0854.49
2009/04/23 14:51:20.6     254      0    248    255    355  90.0  49.3  34228  290.73 0854.49
2009/04/23 14:51:20.7     252     96    210    270    342  69.1  42.0  34216  290.51 0854.49
2009/04/23 14:51:20.8     227    135    246    265    361  59.3  47.7  34218  290.55 0854.49
2009/04/23 14:51:20.9     110     92    277    144    312  50.0  70.4  34242  290.95 0854.49
2009/04/23 14:51:21.0     211    138    301    253    393  56.9  55.7  34242  290.96 0854.47
2009/04/23 14:51:21.1     166     31    209    170    269  79.2  56.4  34242  290.97 0854.47
2009/04/23 14:51:21.2      64    -13    186     66    197 101.5  79.7  34254  291.16 0854.47
2009/04/23 14:51:21.3     113    -16    173    115    207  98.4  63.4  34250  291.09 0854.47
2009/04/23 14:51:21.4     150     -7    196    151    247  93.0  58.5  34250  291.09 0854.47
2009/04/23 14:51:21.5     199    -90    129    219    254 114.4  33.4  34238  290.88 0854.47
2009/04/23 14:51:21.6     136     10    141    137    196  85.7  50.9  34242  290.96 0854.47
2009/04/23 14:51:21.7     217    -71    105    229    251 108.2  26.2  34234  290.83 0854.47
2009/04/23 14:51:21.8      85    -82    127    119    174 134.0  51.6  34264  291.35 0854.47
2009/04/23 14:51:21.9     157    -78      3    176    177 116.6   1.2  34264  291.33 0854.47
2009/04/23 14:51:22.0      96    -74    -95    122    154 127.8 -46.1  34272  291.49 0854.47
2009/04/23 14:51:22.1      39     13   -132     42    138  71.6 -86.2  34276  291.55 0854.47
2009/04/23 14:51:22.2     -46    -10    -93     48    104 257.6 -74.8  34278  291.57 0854.47
2009/04/23 14:51:22.3    -190    -12    -94    191    212 266.1 -32.4  34284  291.69 0854.47
2009/04/23 14:51:22.4    -121    -98     -6    156    157 230.9  -2.2  34288  291.76 0854.47
2009/04/23 14:51:22.5     -84    -53     66    100    119 237.6  37.0  34292  291.81 0854.47
2009/04/23 14:51:22.6      59    -29     91     66    112 116.2  60.5  34278  291.57 0854.47
2009/04/23 14:51:22.7      91   -129    125    158    201 144.8  42.4  34272  291.47 0854.47
2009/04/23 14:51:22.8      94   -129    148    160    217 143.9  47.9  34264  291.33 0854.47
2009/04/23 14:51:22.9     130    -73    187    150    239 119.3  57.3  34256  291.21 0854.47
2009/04/23 14:51:23.0     106    -34    142    112    180 107.7  57.7  34254  291.16 0854.49
2009/04/23 14:51:23.1      78    -25    131     83    155 108.2  64.7  34254  291.16 0854.49
2009/04/23 14:51:23.2     -14     26    113     30    116 331.0  84.9  34250  291.09 0854.49
2009/04/23 14:51:23.3     142     90    159    169    232  57.6  48.0  34260  291.26 0854.49
2009/04/23 14:51:23.4     170    197     43    261    265  40.8   9.5  34280  291.60 0854.49
2009/04/23 14:51:23.5     213    263    110    339    357  39.0  18.0  34304  292.02 0854.49
2009/04/23 14:51:23.6     156    129      3    203    204  50.5   1.0  34300  291.95 0854.49
2009/04/23 14:51:23.7     227     68     99    238    257  73.2  23.8  34304  292.02 0854.49
2009/04/23 14:51:23.8      99    -12    140    100    172  97.0  61.3  34292  291.83 0854.49
2009/04/23 14:51:23.9      12     59    135     61    148  11.6  74.0  34282  291.66 0854.49
2009/04/23 14:51:24.0     186     34    124    190    226  79.4  36.0  34282  291.66 0854.49
2009/04/23 14:51:24.1     222    146     10    266    267  56.7   2.3  34278  291.58 0854.49
2009/04/23 14:51:24.2     248    153     36    292    295  58.2   7.1  34326  292.38 0854.49
2009/04/23 14:51:24.3     297     87    117    310    331  73.6  21.6  34270  291.43 0854.49
2009/04/23 14:51:24.4     248    112    140    273    306  65.6  29.3  34260  291.27 0854.49
2009/04/23 14:51:24.5     386    126     87    407    417  71.9  12.2  34244  291.01 0854.49
2009/04/23 14:51:24.6     381    122     96    401    413  72.2  13.5  34282  291.63 0854.49
2009/04/23 14:51:24.7     529    332     93    625    632  57.9   8.5  34308  292.07 0854.49
2009/04/23 14:51:24.8     434    132     80    454    462  73.1  10.0  34248  291.06 0854.49
2009/04/23 14:51:24.9     331    141     42    360    363  66.9   6.7  34240  290.94 0854.49
2009/04/23 14:51:25.0     314     70     58    322    328  77.4  10.2  34240  290.93 0854.51
2009/04/23 14:51:25.1     340     63    202    346    400  79.5  33.0  34240  290.93 0854.51
2009/04/23 14:51:25.2     171    -70    145    185    235 112.4  42.2  34244  290.99 0854.51
2009/04/23 14:51:25.3      22   -135     81    137    159 170.7  33.5  34260  291.28 0854.51
2009/04/23 14:51:25.4     -94   -168    -24    193    195 209.4  -7.2  34242  290.96 0854.51
2009/04/23 14:51:25.5    -127   -180     83    221    236 215.4  21.7  34244  291.01 0854.51
2009/04/23 14:51:25.6    -110   -214    219    241    325 207.2  47.0  34270  291.44 0854.51
2009/04/23 14:51:25.7     -44   -237    213    242    322 190.5  45.8  34264  291.34 0854.51
2009/04/23 14:51:25.8     -58   -270    262    277    381 192.3  48.2  34272  291.49 0854.51
2009/04/23 14:51:25.9     -65   -252    196    261    326 194.5  40.7  34280  291.61 0854.51
2009/04/23 14:51:26.0    -197   -245    109    315    334 218.8  19.1  34298  291.92 0854.51
2009/04/23 14:51:26.1    -439   -173     70    473    479 248.4   8.5  34298  291.90 0854.51
2009/04/23 14:51:26.2    -361   -248     83    439    447 235.5  10.7  34282  291.63 0854.51
2009/04/23 14:51:26.3    -175   -219    131    281    310 218.7  27.1  34268  291.39 0854.51
2009/04/23 14:51:26.4    -224   -116     68    253    263 242.7  15.2  34270  291.44 0854.51
2009/04/23 14:51:26.5    -135    -74     71    155    170 241.2  26.4  34266  291.38 0854.51
2009/04/23 14:51:26.6    -147    -87     74    172    187 239.3  24.9  34276  291.54 0854.51
2009/04/23 14:51:26.7    -220     41     17    224    225 280.6   4.6  34272  291.47 0854.51
2009/04/23 14:51:26.8    -173     81      9    192    193 295.2   2.9  34268  291.42 0854.51
2009/04/23 14:51:26.9    -162    134      0    211    212 309.6  -0.3  34274  291.50 0854.51
2009/04/23 14:51:27.0    -161    103    -24    192    194 302.5  -7.3  34270  291.45 0854.52
2009/04/23 14:51:27.1     -71     76     53    105    117 316.8  28.7  34274  291.50 0854.52
2009/04/23 14:51:27.2     -99     61     74    117    138 301.5  35.5  34280  291.60 0854.52
2009/04/23 14:51:27.3    -101     45     44    111    119 294.0  22.5  34280  291.60 0854.52
2009/04/23 14:51:27.4    -159    -27     24    162    164 260.4   8.5  34300  291.95 0854.52
2009/04/23 14:51:27.5    -240    -82     61    254    262 250.9  13.7  34306  292.04 0854.52
2009/04/23 14:51:27.6    -241    -65     45    250    255 254.9  10.3  34296  291.89 0854.52
2009/04/23 14:51:27.7    -141     86     25    166    168 301.5   8.8  34290  291.77 0854.52
2009/04/23 14:51:27.8    -145     22     20    147    149 278.8   8.0  34300  291.96 0854.52
2009/04/23 14:51:27.9    -144    -90     54    170    179 238.0  17.7  34294  291.86 0854.52
2009/04/23 14:51:28.0    -216   -155     56    267    274 234.3  12.0  34302  291.97 0854.52
2009/04/23 14:51:28.1    -231    -66     40    241    245 254.1   9.5  34282  291.65 0854.52
2009/04/23 14:51:28.2    -214   -100     98    237    256 244.8  23.6  34278  291.56 0854.52
2009/04/23 14:51:28.3     -74   -144    161    162    228 207.2  50.0  34266  291.37 0854.52
2009/04/23 14:51:28.4      21   -155    187    157    244 172.0  55.8  34296  291.88 0854.52
2009/04/23 14:51:28.5      54    -58    135     80    156 136.7  67.0  34308  292.10 0854.52
2009/04/23 14:51:28.6      -3      7    124      8    124 334.6  90.0  34324  292.35 0854.52
2009/04/23 14:51:28.7      35     20    145     41    150  60.2  84.4  34346  292.75 0854.52
2009/04/23 14:51:28.8      84    -95    142    128    191 138.6  53.3  34310  292.13 0854.52
2009/04/23 14:51:28.9     162   -123    246    204    319 127.3  56.1  34274  291.50 0854.52
2009/04/23 14:51:29.0     -16   -118    218    120    248 188.1  68.8  34242  290.98 0854.53
2009/04/23 14:51:29.1       5   -129    286    130    314 177.8  74.0  34248  291.05 0854.53
2009/04/23 14:51:29.2     -18   -238    301    239    384 184.4  57.5  34220  290.60 0854.53
2009/04/23 14:51:29.3      28   -149    280    152    318 169.3  69.3  34234  290.83 0854.53
2009/04/23 14:51:29.4     -35   -238    330    241    408 188.5  60.5  34238  290.89 0854.53
2009/04/23 14:51:29.5      19   -248    293    249    384 175.5  55.6  34238  290.91 0854.53
2009/04/23 14:51:29.6     181   -208    336    276    434 139.0  56.4  34286  291.71 0854.53
2009/04/23 14:51:29.7     317   -222    319    388    502 125.0  43.7  34276  291.53 0854.53
2009/04/23 14:51:29.8     344     29    326    346    475  85.1  48.2  34354  292.88 0854.53
2009/04/23 14:51:29.9     215     65    338    225    406  73.2  63.4  34338  292.61 0854.53
2009/04/23 14:51:30.0     263    206    171    335    376  52.0  29.2  34268  291.42 0854.53
2009/04/23 14:51:30.1     200    190    123    277    303  46.4  25.7  34310  292.13 0854.53
2009/04/23 14:51:30.2     305     52    272    310    412  80.3  45.8  34382  293.35 0854.53
2009/04/23 14:51:30.3     322     14    215    323    388  87.5  36.6  34396  293.57 0854.53
2009/04/23 14:51:30.4     387    271    181    473    506  54.9  22.0  34332  292.51 0854.53
2009/04/23 14:51:30.5     432    205    239    479    535  64.6  28.6  34338  292.60 0854.53
2009/04/23 14:51:30.6     480    231    268    533    596  64.2  28.7  34356  292.92 0854.53
2009/04/23 14:51:30.7     252    356    298    437    528  35.3  37.6  34270  291.44 0854.53
2009/04/23 14:51:30.8     134    374    218    398    453  19.8  31.3  34248  291.07 0854.53
2009/04/23 14:51:30.9     203    445    182    490    522  24.5  21.4  34258  291.22 0854.53
2009/04/23 14:51:31.0     224    450    171    503    532  26.5  18.8  34278  291.59 0854.53
2009/04/23 14:51:31.1      92    457    238    467    524  11.5  29.2  34298  291.93 0854.53
2009/04/23 14:51:31.2      -9    500    225    501    549 358.9  25.8  34266  291.37 0854.53
2009/04/23 14:51:31.3    -113    318    103    338    354 340.4  17.0  34272  291.49 0854.53
2009/04/23 14:51:31.4    -149    173    -27    229    231 319.2  -6.9  34258  291.23 0854.53
2009/04/23 14:51:31.5    -376    179   -122    417    435 295.5 -16.4  34240  290.92 0854.53
2009/04/23 14:51:31.6    -403    186   -184    444    480 294.8 -28.3  34246  291.02 0854.53
2009/04/23 14:51:31.7     -32     69     91     77    119 334.7  55.4  34232  290.79 0854.53
2009/04/23 14:51:31.8    -158    155    292    222    366 314.4  59.0  34238  290.88 0854.53
2009/04/23 14:51:31.9    -319    137    320    348    472 293.2  47.5  34256  291.19 0854.53
2009/04/23 14:51:32.0      43    355    276    358    452   7.0  41.6  34280  291.60 0854.52
2009/04/23 14:51:32.1     -54    373    164    377    411 351.7  25.1  34264  291.35 0854.52
2009/04/23 14:51:32.2     -19    603    100    604    613 358.1   9.4  34248  291.05 0854.52
2009/04/23 14:51:32.3      26    489     59    490    494   3.1   6.9  34250  291.10 0854.52
2009/04/23 14:51:32.4     179    480     10    513    514  20.5   1.2  34248  291.05 0854.52
2009/04/23 14:51:32.5     240    449     52    510    513  28.1   5.9  34258  291.24 0854.52
2009/04/23 14:51:32.6     163    368    210    403    454  23.9  29.6  34270  291.43 0854.52
2009/04/23 14:51:32.7     155    220    229    270    354  35.2  44.7  34310  292.13 0854.52
2009/04/23 14:51:32.9     209    185    228    280    361  48.6  43.5  34338  292.60 0854.52
2009/04/23 14:51:33.0     138     76    226    158    275  61.2  61.7  34324  292.36 0854.52
2009/04/23 14:51:33.1     384    187    168    428    459  64.0  22.8  34300  291.96 0854.52
2009/04/23 14:51:33.2     404    281    172    493    522  55.1  20.0  34302  292.00 0854.52
2009/04/23 14:51:33.3     392    368    151    539    560  46.8  15.7  34332  292.51 0854.52
2009/04/23 14:51:33.4     450    292    255    537    594  57.0  27.3  34328  292.43 0854.52
2009/04/23 14:51:33.5     506    321    191    600    630  57.6  17.7  34294  291.86 0854.52
2009/04/23 14:51:33.6     386    333    213    510    552  49.2  24.1  34282  291.64 0854.52
2009/04/23 14:51:33.7     284    415     99    504    514  34.4  11.1  34236  290.85 0854.52
2009/04/23 14:51:33.8     273    495     35    566    568  28.9   3.6  34198  290.23 0854.52
2009/04/23 14:51:33.9     231    496    255    548    604  24.9  26.9  34240  290.93 0854.52
2009/04/23 14:51:34.0     496    352    116    609    620  54.6  10.8  34222  290.62 0854.51
2009/04/23 14:51:34.1     548    364    233    659    700  56.4  19.5  34260  291.28 0854.51
2009/04/23 14:51:34.2     808    470    332    935    992  59.8  20.3  34262  291.32 0854.51
2009/04/23 14:51:34.3     714    552    146    903    915  52.3   9.2  34190  290.07 0854.51
2009/04/23 14:51:34.4     813    563    -10    990    991  55.3  -0.6  34242  290.95 0854.51
2009/04/23 14:51:34.5     796    576    130    983    992  54.1   7.6  34256  291.19 0854.51
2009/04/23 14:51:34.6     901    344    282    965   1006  69.1  16.3  34286  291.70 0854.51
2009/04/23 14:51:34.7     791    357    243    868    902  65.7  15.7  34256  291.20 0854.51
2009/04/23 14:51:34.8     699    518    -10    871    872  53.5  -0.7  34194  290.15 0854.51
2009/04/23 14:51:34.9     390    494    -12    630    631  38.3  -1.1  34214  290.48 0854.51
2009/04/23 14:51:35.0     363    380    -56    526    530  43.7  -6.1  34224  290.65 0854.51
2009/04/23 14:51:35.1     453    336     28    565    566  53.4   2.9  34208  290.38 0854.51
2009/04/23 14:51:35.2     553    260    158    612    633  64.8  14.5  34194  290.15 0854.51
2009/04/23 14:51:35.3     456    393     94    603    611  49.2   8.9  34180  289.90 0854.51
2009/04/23 14:51:35.4     479    143    161    500    526  73.4  17.9  34176  289.83 0854.51
2009/04/23 14:51:35.5     255   -101     -5    275    276 111.7  -1.1  34172  289.78 0854.51
2009/04/23 14:51:35.6      62   -131     97    145    174 154.7  36.7  34170  289.74 0854.51
2009/04/23 14:51:35.7     -68    297    308    305    433 347.1  50.2  34182  289.94 0854.51
2009/04/23 14:51:35.8    -116    148     90    189    209 321.9  27.2  34180  289.91 0854.51
2009/04/23 14:51:35.9    -112    347     20    365    366 342.1   3.1  34178  289.87 0854.51
2009/04/23 14:51:36.0    -252    482    -39    544    546 332.4  -4.1  34182  289.96 0854.51
2009/04/23 14:51:36.1    -207    439    -45    486    489 334.7  -5.4  34192  290.10 0854.51
2009/04/23 14:51:36.2     -19    394     -9    395    396 357.2  -1.4  34184  289.99 0854.51
2009/04/23 14:51:36.3    -125    151    111    197    226 320.4  31.9  34188  290.04 0854.51
2009/04/23 14:51:36.4    -110     98     85    148    170 311.8  32.4  34178  289.89 0854.51
2009/04/23 14:51:36.5    -176    171     56    246    253 314.2  12.9  34178  289.88 0854.51
2009/04/23 14:51:36.6      18      1     72     19     74  85.7  84.9  34186  290.02 0854.51
2009/04/23 14:51:36.7     -20     73     82     76    111 344.0  52.2  34190  290.08 0854.51
2009/04/23 14:51:36.8     117    285    228    309    384  22.3  40.0  34182  289.94 0854.51
2009/04/23 14:51:36.9     110    291    272    312    413  20.7  45.6  34192  290.10 0854.51
2009/04/23 14:51:37.0     195    337    232    390    453  30.1  33.5  34180  289.90 0854.51
2009/04/23 14:51:37.1      68    324    256    332    419  11.9  41.5  34184  289.98 0854.51
2009/04/23 14:51:37.2     158    373    259    406    481  22.9  35.6  34202  290.29 0854.51
2009/04/23 14:51:37.3      54    268    213    274    347  11.6  41.9  34246  291.02 0854.51
2009/04/23 14:51:37.4     -32    142    149    146    208 347.1  50.4  34216  290.52 0854.51
2009/04/23 14:51:37.5     -46    199     95    205    225 346.9  27.1  34200  290.26 0854.51
2009/04/23 14:51:37.6    -150    149     59    212    221 314.9  15.6  34230  290.77 0854.51
2009/04/23 14:51:37.7     -68    191    124    203    237 340.4  34.4  34194  290.14 0854.51
2009/04/23 14:51:37.8       3    270     79    271    283   0.7  16.3  34192  290.10 0854.51
2009/04/23 14:51:37.9     118     85     73    146    163  54.0  28.7  34250  291.09 0854.51
2009/04/23 14:51:38.0      13    118     78    119    142   6.7  36.0  34296  291.89 0854.52
2009/04/23 14:51:38.1      99      0    137    100    169  90.0  60.3  34284  291.69 0854.52
2009/04/23 14:51:38.2      73    -11    143     74    161  98.8  70.6  34300  291.95 0854.52
2009/04/23 14:51:38.3       0     30    128     31    131 359.1  86.9  34276  291.54 0854.52
2009/04/23 14:51:38.4     -63    234    172    243    297 344.9  38.8  34260  291.26 0854.52
2009/04/23 14:51:38.5     -50    221    248    227    336 347.1  52.9  34240  290.92 0854.52
2009/04/23 14:51:38.6    -123    231    219    262    341 331.9  44.1  34246  291.04 0854.52
2009/04/23 14:51:38.7    -130    145    106    195    221 318.1  31.3  34264  291.33 0854.52
2009/04/23 14:51:38.8      43     92    109    102    149  24.9  52.1  34282  291.66 0854.52
2009/04/23 14:51:38.9      13    150    115    151    189   5.3  41.2  34270  291.45 0854.52
2009/04/23 14:51:39.0      81     52     86     97    129  57.5  45.8  34268  291.40 0854.52
2009/04/23 14:51:39.1      33     79    202     86    219  23.2  75.5  34294  291.86 0854.52
2009/04/23 14:51:39.2      -7     38    156     39    160 348.4  86.2  34322  292.32 0854.52
2009/04/23 14:51:39.3     -76    138    157    158    222 331.1  50.0  34294  291.84 0854.52
2009/04/23 14:51:39.4    -108    212    176    238    296 333.0  39.9  34302  291.99 0854.52
2009/04/23 14:51:39.5    -225    209    203    308    368 312.9  36.4  34298  291.91 0854.52
2009/04/23 14:51:39.6    -250    329    174    414    449 322.8  24.2  34304  292.03 0854.52
2009/04/23 14:51:39.7    -293    223     76    369    377 307.2  11.8  34312  292.14 0854.52
2009/04/23 14:51:39.8    -298    123    135    323    350 292.4  23.9  34306  292.05 0854.52
2009/04/23 14:51:39.9    -272      0     55    273    279 269.9  11.4  34280  291.60 0854.52
2009/04/23 14:51:40.0     -12     74    201     76    214 350.2  78.9  34328  292.42 0854.52
2009/04/23 14:51:40.1     -38    164     85    169    189 346.9  28.5  34336  292.56 0854.52
2009/04/23 14:51:40.2     147    156    113    215    242  43.4  30.2  34332  292.50 0854.52
2009/04/23 14:51:40.3      50     39    114     64    130  52.2  68.3  34336  292.58 0854.52
2009/04/23 14:51:40.4      88     68    177    112    209  52.2  64.7  34340  292.64 0854.52
2009/04/23 14:51:40.5     -62    145    160    158    224 336.8  50.1  34336  292.58 0854.52
2009/04/23 14:51:40.6     -57    259     13    266    267 347.5   2.9  34312  292.14 0854.52
2009/04/23 14:51:40.7      87    244     17    260    261  19.6   3.8  34310  292.13 0854.52
2009/04/23 14:51:40.8      94    208    -95    229    247  24.5 -28.5  34286  291.70 0854.52
2009/04/23 14:51:40.9     -11    118    -72    119    139 354.7 -38.4  34288  291.74 0854.52
2009/04/23 14:51:41.0     117     39    -84    124    149  71.6 -41.8  34282  291.66 0854.52
2009/04/23 14:51:41.1     151     24   -173    153    230  80.8 -58.6  34268  291.42 0854.52
2009/04/23 14:51:41.2      31     41   -179     52    186  37.8 -88.3  34210  290.43 0854.52
2009/04/23 14:51:41.3     155    165   -296    227    373  43.3 -63.1  34202  290.28 0854.52
2009/04/23 14:51:41.4     277     40   -251    280    376  81.6 -50.9  34234  290.84 0854.52
2009/04/23 14:51:41.5     283     94   -134    299    327  71.6 -30.2  34284  291.67 0854.52
2009/04/23 14:51:41.6      89    -56   -197    106    223 122.0 -73.7  34218  290.57 0854.52
2009/04/23 14:51:41.7     160    -69   -179    175    250 113.5 -54.8  34214  290.50 0854.52
2009/04/23 14:51:41.8     132    -66   -207    148    254 116.6 -65.5  34216  290.53 0854.52
2009/04/23 14:51:41.9    -162    -70   -369    177    409 246.5 -77.2  34248  291.06 0854.52
2009/04/23 14:51:42.0       0   -221   -325    222    393 180.0 -67.0  34252  291.15 0854.52
2009/04/23 14:51:42.1     163   -111   -324    198    379 124.2 -70.1  34230  290.76 0854.52
2009/04/23 14:51:42.2     157   -130   -339    205    396 129.6 -70.5  34278  291.56 0854.52
2009/04/23 14:51:42.3     233   -371   -204    438    483 147.9 -31.3  34272  291.47 0854.52
2009/04/23 14:51:42.4     233   -502   -288    554    624 155.1 -34.0  34272  291.48 0854.52
2009/04/23 14:51:42.5     300   -200   -286    361    460 123.7 -46.8  34262  291.31 0854.52
2009/04/23 14:51:42.6     444   -287   -158    529    552 122.9 -21.6  34266  291.38 0854.52
2009/04/23 14:51:42.7     483   -322     91    581    589 123.7   8.9  34226  290.68 0854.52
2009/04/23 14:51:42.8     106    -67    331    126    354 122.4  78.3  34274  291.51 0854.52
2009/04/23 14:51:42.9    -249   -205    463    323    564 230.5  61.8  34262  291.29 0854.52
2009/04/23 14:51:43.0     -31      0    291     32    292 270.8  90.0  34272  291.46 0854.52
2009/04/23 14:51:43.1    -143    -29    204    146    250 258.5  61.1  34270  291.43 0854.52
2009/04/23 14:51:43.2     -19     83    156     86    178 347.1  68.8  34248  291.06 0854.52
2009/04/23 14:51:43.3    -196     17    232    197    304 275.2  55.6  34240  290.92 0854.52
2009/04/23 14:51:43.4     -42   -128     75    135    154 198.5  31.4  34242  290.98 0854.52
2009/04/23 14:51:43.5    -398   -246    200    469    509 238.3  24.6  34244  291.00 0854.52
2009/04/23 14:51:43.6     134   -117    271    179    324 131.1  63.6  34256  291.21 0854.52
2009/04/23 14:51:43.7       6    107    270    108    290   3.6  77.1  34266  291.38 0854.52
2009/04/23 14:51:43.8    -262    -63    255    270    371 256.3  48.0  34278  291.59 0854.52
2009/04/23 14:51:43.9    -449     69    166    455    484 278.8  20.9  34268  291.42 0854.52
2009/04/23 14:51:44.0    -233     73    173    245    299 287.5  38.6  34272  291.46 0854.54
2009/04/23 14:51:44.1    -318    -28    120    320    341 264.8  21.5  34266  291.37 0854.54
2009/04/23 14:51:44.2    -205    -46     18    211    212 257.4   5.0  34262  291.30 0854.54
2009/04/23 14:51:44.3      60    171    111    182    213  19.6  34.4  34264  291.35 0854.54
2009/04/23 14:51:44.4     144    135    196    198    278  46.7  50.0  34256  291.21 0854.54
2009/04/23 14:51:44.5     180     38    289    185    343  77.8  64.6  34266  291.36 0854.54
2009/04/23 14:51:44.6     194     30    273    197    336  81.2  60.7  34258  291.22 0854.54
2009/04/23 14:51:44.7     185     80    211    202    292  66.5  51.2  34262  291.29 0854.54
2009/04/23 14:51:44.8     274    119    225    299    374  66.5  40.7  34262  291.30 0854.54
2009/04/23 14:51:44.9     133     58    270    146    306  66.4  69.1  34272  291.48 0854.54
2009/04/23 14:51:45.0      81    -41    193     91    213 117.1  72.9  34272  291.47 0854.54
2009/04/23 14:51:45.1      69    -23    223     73    234 108.6  81.2  34276  291.55 0854.54
2009/04/23 14:51:45.2      78    -49    181     93    203 122.0  70.8  34270  291.43 0854.54
2009/04/23 14:51:45.3      60   -173    148    184    236 160.8  43.0  34264  291.35 0854.54
2009/04/23 14:51:45.4      20    -64    113     68    131 162.2  66.2  34276  291.55 0854.54
2009/04/23 14:51:45.5       6    -86    105     87    136 176.0  56.3  34264  291.33 0854.54
2009/04/23 14:51:45.6     -29    -54     33     62     70 208.1  30.3  34280  291.60 0854.54
2009/04/23 14:51:45.7     -80     66    -83    104    133 309.5 -47.7  34262  291.30 0854.54
2009/04/23 14:51:45.8    -346     57   -108    351    367 279.4 -22.2  34272  291.49 0854.54
2009/04/23 14:51:45.9    -460    103    -66    472    477 282.7  -8.0  34252  291.13 0854.54
2009/04/23 14:51:46.0    -407    102    -92    420    431 284.1 -12.4  34270  291.43 0854.55
2009/04/23 14:51:46.1    -417    137      3    439    440 288.2   0.5  34260  291.26 0854.55
2009/04/23 14:51:46.2    -483    192   -104    520    531 291.7 -11.3  34246  291.04 0854.55
2009/04/23 14:51:46.3    -247    156    -90    293    306 302.2 -22.1  34244  291.00 0854.55
2009/04/23 14:51:46.4    -278     39     16    281    282 278.0   3.3  34244  291.00 0854.55
2009/04/23 14:51:46.5    -309    -42    -51    312    317 262.1  -9.3  34252  291.12 0854.55
2009/04/23 14:51:46.6    -429     18    -44    430    433 272.5  -5.9  34198  290.22 0854.55
2009/04/23 14:51:46.7    -411      0    -22    412    413 270.0  -3.2  34232  290.78 0854.55
2009/04/23 14:51:46.8    -313    -88     51    326    331 254.3   9.0  34248  291.05 0854.55
2009/04/23 14:51:46.9    -345    -41     26    348    349 263.2   4.4  34258  291.23 0854.55
2009/04/23 14:51:47.0    -376   -125    -79    397    405 251.5 -11.3  34268  291.42 0854.55
2009/04/23 14:51:47.1    -407    -71   -185    414    453 260.0 -30.1  34188  290.05 0854.55
2009/04/23 14:51:47.2    -453    -21   -139    454    474 267.3 -21.9  34222  290.64 0854.55
2009/04/23 14:51:47.3    -573    -97   -210    582    618 260.4 -25.3  34202  290.29 0854.55
2009/04/23 14:51:47.4    -614   -180   -171    640    663 253.6 -15.0  34208  290.37 0854.55
2009/04/23 14:51:47.5    -584   -122   -296    597    666 258.1 -32.8  34178  289.86 0854.55
2009/04/23 14:51:47.6    -639   -156   -241    658    700 256.2 -25.4  34182  289.93 0854.55
2009/04/23 14:51:47.7    -568   -134   -277    584    646 256.7 -31.6  34188  290.03 0854.55
2009/04/23 14:51:47.8    -601   -112   -252    612    661 259.4 -28.0  34188  290.03 0854.55
2009/04/23 14:51:47.9    -487   -100   -153    498    520 258.3 -21.9  34224  290.66 0854.55
2009/04/23 14:51:48.0    -416   -270   -167    497    525 237.0 -18.6  34232  290.81 0854.58
2009/04/23 14:51:48.1    -397   -110   -137    413    435 254.4 -23.7  34216  290.51 0854.58
2009/04/23 14:51:48.2    -525      0   -228    526    573 270.0 -29.5  34188  290.06 0854.58
2009/04/23 14:51:48.3    -520    -84   -279    527    596 260.8 -34.6  34196  290.17 0854.58
2009/04/23 14:51:48.4    -546    -58   -257    550    607 263.9 -31.4  34184  289.98 0854.58
2009/04/23 14:51:48.5    -623     42   -267    625    679 273.9 -29.0  34198  290.21 0854.58
2009/04/23 14:51:48.6    -635     59   -306    638    707 275.4 -31.9  34184  289.99 0854.58
2009/04/23 14:51:48.7    -737    102   -280    744    794 277.9 -26.0  34222  290.63 0854.58
2009/04/23 14:51:48.8    -496     -3   -193    497    533 269.6 -26.8  34222  290.63 0854.58
2009/04/23 14:51:48.9    -282   -374    -18    469    470 217.0  -2.2  34214  290.49 0854.58
2009/04/23 14:51:49.0    -404   -429   -138    590    606 223.3 -13.2  34222  290.64 0854.58
2009/04/23 14:51:49.1    -689    -75   -360    694    781 263.8 -34.0  34204  290.33 0854.58
2009/04/23 14:51:49.2    -537   -213   -383    578    693 248.3 -41.0  34204  290.31 0854.58
2009/04/23 14:51:49.3    -615   -460   -197    769    794 233.2 -14.4  34230  290.75 0854.58
2009/04/23 14:51:49.4    -520   -423   -218    671    706 230.9 -18.0  34212  290.44 0854.58
2009/04/23 14:51:49.5    -335   -351   -164    486    514 223.7 -18.7  34200  290.25 0854.58
2009/04/23 14:51:49.6    -396   -455    -71    604    609 221.0  -6.7  34206  290.36 0854.58
2009/04/23 14:51:49.7    -248    -22    126    250    279 264.8  29.1  34206  290.34 0854.58
2009/04/23 14:51:49.8    -260   -196    109    326    345 232.9  18.6  34212  290.47 0854.58
2009/04/23 14:51:49.9    -217   -391    189    448    486 209.0  24.2  34214  290.49 0854.58
2009/04/23 14:51:50.0    -393    -26    156    394    423 266.2  22.9  34212  290.44 0854.56
2009/04/23 14:51:50.1    -624     26    118    625    637 272.4  10.7  34228  290.72 0854.56
2009/04/23 14:51:50.2    -545     -5    125    546    561 269.4  12.9  34236  290.86 0854.56
2009/04/23 14:51:50.3    -341   -174     90    384    395 242.9  13.2  34232  290.79 0854.56
2009/04/23 14:51:50.4    -171   -132    -27    217    219 232.3  -7.2  34222  290.62 0854.56
2009/04/23 14:51:50.5    -210   -196    128    288    315 227.1  25.6  34228  290.71 0854.56
2009/04/23 14:51:50.6    -399    -79    148    407    433 258.8  20.9  34232  290.80 0854.56
2009/04/23 14:51:50.7    -287   -174    245    336    415 238.7  39.7  34236  290.86 0854.56
2009/04/23 14:51:50.8    -105   -286    194    305    361 200.3  35.5  34218  290.54 0854.56
2009/04/23 14:51:50.9    -368    -57    132    373    397 261.2  19.6  34242  290.98 0854.56
2009/04/23 14:51:51.0    -309   -127    144    335    364 247.6  24.9  34234  290.84 0854.56
2009/04/23 14:51:51.1    -367   -261     38    451    453 234.5   4.9  34230  290.75 0854.56
2009/04/23 14:51:51.2    -244   -330     20    411    412 216.5   2.8  34236  290.87 0854.56
2009/04/23 14:51:51.3    -341   -247    -66    422    428 234.0  -8.9  34234  290.84 0854.56
2009/04/23 14:51:51.4    -354   -251    -34    435    437 234.6  -4.5  34228  290.72 0854.56
2009/04/23 14:51:51.5    -177   -401     76    439    446 203.9   9.9  34210  290.43 0854.56
2009/04/23 14:51:51.6    -310   -327    -81    452    460 223.5 -10.2  34254  291.16 0854.56
2009/04/23 14:51:51.7    -318   -267    -56    416    420 230.0  -7.7  34256  291.19 0854.56
2009/04/23 14:51:51.8    -403   -166   -108    436    450 247.6 -13.9  34246  291.04 0854.56
2009/04/23 14:51:51.9    -246   -179    -68    305    313 234.0 -12.6  34250  291.10 0854.56
2009/04/23 14:51:52.0     -98   -171     59    198    207 209.9  16.8  34238  290.89 0854.54
2009/04/23 14:51:52.1    -150    -50     83    159    179 251.4  29.8  34248  291.08 0854.54
2009/04/23 14:51:52.2    -134   -171     93    218    237 218.1  24.3  34254  291.18 0854.54
2009/04/23 14:51:52.3     -19   -244    -26    245    247 184.5  -6.2  34246  291.02 0854.54
2009/04/23 14:51:52.4     -82   -288    -71    300    309 196.0 -13.4  34224  290.65 0854.54
2009/04/23 14:51:52.5     -91   -284    -65    299    307 197.8 -12.4  34222  290.63 0854.54
2009/04/23 14:51:52.6     -67   -241    -60    251    259 195.6 -13.4  34224  290.65 0854.54
2009/04/23 14:51:52.7    -115   -211     33    241    244 208.5   8.0  34230  290.75 0854.54
2009/04/23 14:51:52.8     -64   -251    -31    260    262 194.3  -6.9  34224  290.66 0854.54
2009/04/23 14:51:52.9    -243   -228     20    334    335 226.9   3.5  34226  290.69 0854.54
2009/04/23 14:51:53.0    -224   -352     17    418    419 212.5   2.4  34222  290.63 0854.53
2009/04/23 14:51:53.1    -206   -368    115    422    438 209.3  15.3  34234  290.84 0854.53
2009/04/23 14:51:53.2    -217   -271    109    348    365 218.7  17.5  34242  290.96 0854.53
2009/04/23 14:51:53.3     -92   -285     -3    300    301 197.9  -0.7  34232  290.80 0854.53
2009/04/23 14:51:53.4     -81   -240     18    254    255 198.7   4.2  34234  290.82 0854.53
2009/04/23 14:51:53.5      22   -299     -1    300    301 175.8  -0.3  34224  290.65 0854.53
2009/04/23 14:51:53.6    -103   -190     92    217    235 208.5  24.3  34232  290.79 0854.53
2009/04/23 14:51:53.7    -117    -99    -16    154    155 230.0  -6.2  34272  291.47 0854.53
2009/04/23 14:51:53.8    -184   -116     58    218    226 237.6  15.0  34248  291.08 0854.53
2009/04/23 14:51:53.9    -257    -22     92    259    275 265.0  19.6  34268  291.41 0854.53
2009/04/23 14:51:54.0    -144    -35    110    149    185 256.3  39.9  34272  291.49 0854.53
2009/04/23 14:51:54.1    -169    -51     57    177    187 253.2  17.9  34274  291.52 0854.53
2009/04/23 14:51:54.2    -120    -99    -67    156    169 230.5 -29.3  34260  291.26 0854.53
2009/04/23 14:51:54.3     -87   -157    -91    180    201 209.2 -33.5  34238  290.91 0854.53
2009/04/23 14:51:54.5    -185   -197     17    271    272 223.3   3.6  34246  291.04 0854.53
2009/04/23 14:51:54.5    -184   -233    103    298    316 218.3  19.1  34260  291.26 0854.53
2009/04/23 14:51:54.6    -179   -116    249    214    328 237.1  55.3  34252  291.12 0854.53
2009/04/23 14:51:54.7    -191    104     80    218    232 298.8  21.0  34266  291.38 0854.53
2009/04/23 14:51:54.8    -165      8   -165    166    234 273.0 -54.4  34234  290.82 0854.53
2009/04/23 14:51:54.9    -206      3   -173    207    269 270.9 -48.2  34246  291.02 0854.53
2009/04/23 14:51:55.0    -100   -112    -99    151    180 221.9 -40.7  34230  290.77 0854.52
2009/04/23 14:51:55.1     -66    -48    -49     82     95 234.0 -38.8  34236  290.87 0854.52
2009/04/23 14:51:55.2    -172    -61   -102    183    209 250.3 -35.8  34240  290.92 0854.52
2009/04/23 14:51:55.3    -187    -84    -98    206    228 245.8 -31.7  34252  291.13 0854.52
2009/04/23 14:51:55.4    -181   -262    -44    319    323 214.7  -7.9  34264  291.34 0854.52
2009/04/23 14:51:55.5    -188   -198    -99    274    291 223.4 -24.8  34244  291.00 0854.52
2009/04/23 14:51:55.7    -194   -227   -115    299    320 220.5 -26.4  34226  290.70 0854.52
2009/04/23 14:51:55.7    -172   -295    -61    342    348 210.3 -10.2  34238  290.88 0854.52
2009/04/23 14:51:55.8    -205   -287    -54    353    358 215.6  -8.8  34248  291.06 0854.52
2009/04/23 14:51:55.9    -175   -280    -21    331    332 212.0  -3.8  34252  291.13 0854.52
2009/04/23 14:51:56.0    -145   -234     72    276    286 211.7  14.7  34252  291.12 0854.52
2009/04/23 14:51:56.1      77   -401    129    409    429 169.1  17.5  34254  291.16 0854.52
2009/04/23 14:51:56.2      66   -441    -57    447    451 171.4  -7.3  34246  291.02 0854.52
2009/04/23 14:51:56.3      -7   -414    -27    415    416 181.0  -3.8  34256  291.21 0854.52
2009/04/23 14:51:56.4     -39   -363   -103    366    381 186.3 -15.8  34238  290.91 0854.52
2009/04/23 14:51:56.5     -13   -293    -92    294    308 182.6 -22.5  34192  290.12 0854.52
2009/04/23 14:51:56.6     -57   -350    -90    355    367 189.4 -14.3  34158  289.54 0854.52
2009/04/23 14:51:56.7     -58   -363    -47    368    372 189.2  -7.3  34192  290.10 0854.52
2009/04/23 14:51:56.8     -72   -308    -51    317    322 193.3  -9.1  34166  289.68 0854.52
2009/04/23 14:51:56.9      24   -356   -129    357    379 176.0 -25.1  34152  289.45 0854.52
2009/04/23 14:51:57.0      74   -338   -118    347    366 167.6 -23.7  34138  289.20 0854.52
2009/04/23 14:51:57.1     140   -285   -174    318    362 153.7 -35.4  34156  289.50 0854.52
2009/04/23 14:51:57.2      83   -251    -81    265    278 161.7 -17.0  34156  289.51 0854.52
2009/04/23 14:51:57.3     125   -155    -59    200    209 141.0 -16.4  34158  289.53 0854.52
2009/04/23 14:51:57.4      65   -163     31    176    179 158.2  10.1  34182  289.96 0854.52
2009/04/23 14:51:57.5     -10   -164     84    165    185 183.8  29.1  34228  290.72 0854.52
2009/04/23 14:51:57.6     -42   -108     88    117    146 201.4  40.7  34222  290.62 0854.52
2009/04/23 14:51:57.7     -57    -50     45     77     89 228.7  33.5  34210  290.41 0854.52
2009/04/23 14:51:57.8     -58      0     31     59     66 270.0  30.3  34208  290.38 0854.52
2009/04/23 14:51:57.9     -62     54      1     83     84 310.9   1.2  34204  290.31 0854.52
2009/04/23 14:51:58.0       5     89    -32     90     95   3.6 -23.8  34184  289.99 0854.52
2009/04/23 14:51:58.1       3     61    -60     62     86   3.6 -54.4  34222  290.62 0854.52
2009/04/23 14:51:58.2      31      1    -40     32     51  87.4 -60.8  34238  290.89 0854.52
2009/04/23 14:51:58.3      35      8    -10     36     38  76.7 -15.4  34242  290.98 0854.52
2009/04/23 14:51:58.4      58     58    -74     83    111  45.0 -50.8  34220  290.58 0854.52
2009/04/23 14:51:58.5     155    137   -109    208    234  48.6 -34.2  34206  290.36 0854.52
2009/04/23 14:51:58.6     193     94    -12    215    216  64.0  -3.3  34172  289.77 0854.52
2009/04/23 14:51:58.7     158     52     78    167    184  71.6  27.0  34138  289.19 0854.52
2009/04/23 14:51:58.8     143    -11    159    144    214  94.4  53.0  34160  289.58 0854.52
2009/04/23 14:51:58.9      65     47    125     81    148  54.0  64.6  34198  290.21 0854.52
2009/04/23 14:51:59.0     199    109     -4    228    229  61.2  -1.2  34216  290.53 0854.52
2009/04/23 14:51:59.1     167    113     70    202    214  55.9  19.2  34216  290.53 0854.52
2009/04/23 14:51:59.2      33     50    160     61    171  33.4  78.4  34240  290.92 0854.52
2009/04/23 14:51:59.3     117    187    138    221    260  32.1  35.2  34236  290.85 0854.52
2009/04/23 14:51:59.4       9    306    107    307    326   1.8  19.3  34234  290.83 0854.52
2009/04/23 14:51:59.5      66    277    280    285    399  13.4  49.8  34262  291.30 0854.52
2009/04/23 14:51:59.6     173    106    350    203    404  58.5  67.4  34274  291.52 0854.52
2009/04/23 14:51:59.7     204     96    162    226    278  64.6  39.3  34264  291.33 0854.52
2009/04/23 14:51:59.8     194    112    229    225    321  60.0  50.4  34254  291.16 0854.52
2009/04/23 14:51:59.9      -6      1    188      7    188 281.5  90.0  34258  291.23 0854.52
2009/04/23 14:52:00.0    -116    -56    149    129    197 244.2  54.6  34258  291.23 0854.52
2009/04/23 14:52:00.1      44    -89    169    100    196 153.3  66.8  34260  291.26 0854.52
2009/04/23 14:52:00.2     223   -136    286    262    387 121.5  52.7  34266  291.37 0854.52
2009/04/23 14:52:00.3     145     12    320    146    351  85.2  74.0  34266  291.36 0854.52
2009/04/23 14:52:00.4     -73    -73    175    104    203 225.0  66.7  34264  291.35 0854.52
2009/04/23 14:52:00.5     -35   -248     -5    251    252 188.2  -1.2  34262  291.29 0854.52
2009/04/23 14:52:00.6    -156   -355     46    388    391 203.7   6.9  34258  291.25 0854.52
2009/04/23 14:52:00.8     -39   -385    -90    388    399 185.9 -13.2  34248  291.05 0854.52
2009/04/23 14:52:00.9     131   -358   -134    382    404 159.9 -24.4  34222  290.62 0854.52
2009/04/23 14:52:01.0     389   -233    -25    454    455 120.9  -3.2  34220  290.58 0854.52
2009/04/23 14:52:01.1     492   -216    275    538    604 113.7  29.2  34196  290.17 0854.52
2009/04/23 14:52:01.2     274   -199    359    339    493 126.0  52.0  34212  290.46 0854.52
2009/04/23 14:52:01.3      63   -296    262    303    400 168.0  45.2  34224  290.66 0854.52
2009/04/23 14:52:01.4      31   -105    228    110    253 163.5  72.7  34244  290.99 0854.52
2009/04/23 14:52:01.5    -169   -159      4    233    234 226.8   1.0  34222  290.63 0854.52
2009/04/23 14:52:01.6      12   -123    -90    124    153 174.2 -44.1  34220  290.60 0854.52
2009/04/23 14:52:01.7     157   -103    -56    188    197 123.3 -16.6  34224  290.65 0854.52
2009/04/23 14:52:01.8     217   -217    107    308    327 135.0  19.2  34240  290.93 0854.52
2009/04/23 14:52:01.9     169   -232    -99    288    305 143.9 -19.1  34238  290.90 0854.52
2009/04/23 14:52:02.0    -129   -323   -103    348    364 201.8 -16.5  34210  290.43 0854.52
2009/04/23 14:52:02.1     260   -161    208    307    370 121.8  37.4  34228  290.74 0854.52
2009/04/23 14:52:02.2     146   -200    308    248    395 143.9  57.3  34240  290.93 0854.52
2009/04/23 14:52:02.3     271   -417    368    498    619 147.0  40.1  34232  290.78 0854.52
2009/04/23 14:52:02.4     247   -319    294    404    499 142.2  39.7  34218  290.56 0854.52
2009/04/23 14:52:02.5     200   -150    288    251    382 126.9  54.6  34222  290.64 0854.52
2009/04/23 14:52:02.6     272   -410    331    493    593 146.4  37.2  34228  290.74 0854.52
2009/04/23 14:52:02.7     505   -390    339    639    723 127.7  30.2  34220  290.59 0854.52
2009/04/23 14:52:02.8     731   -196    400    757    856 105.1  30.1  34188  290.03 0854.52
2009/04/23 14:52:02.9     550   -111    626    562    841 101.5  53.7  34208  290.38 0854.52
2009/04/23 14:52:03.0     505    127    385    521    647  75.9  40.1  34192  290.10 0854.54
2009/04/23 14:52:03.1     681     51    561    683    883  85.7  43.7  34202  290.28 0854.54
2009/04/23 14:52:03.2     401      0    492    402    635  90.0  56.6  34224  290.65 0854.54
2009/04/23 14:52:03.3     820    386    106    907    914  64.8   6.7  34188  290.06 0854.54
2009/04/23 14:52:03.4     546    413    250    685    729  52.9  21.0  34202  290.30 0854.54
2009/04/23 14:52:03.5     476    287    178    557    585  58.9  17.8  34228  290.71 0854.54
2009/04/23 14:52:03.6     680    460    -27    821    822  55.9  -1.9  34270  291.44 0854.54
2009/04/23 14:52:03.7     401    767    121    866    875  27.6   8.0  34264  291.34 0854.54
2009/04/23 14:52:03.8     421    216     59    474    478  62.8   7.1  34250  291.10 0854.54
2009/04/23 14:52:03.9     183    177     82    255    269  46.0  17.9  34270  291.44 0854.54
2009/04/23 14:52:04.0     246    202    130    319    344  50.5  23.4  34250  291.11 0854.54
2009/04/23 14:52:04.1      52    -38    241     65    249 126.0  84.8  34280  291.60 0854.54
2009/04/23 14:52:04.2      43   -132    266    140    300 161.7  69.9  34266  291.36 0854.54
2009/04/23 14:52:04.3       4     19    184     20    185  11.6  90.0  34274  291.50 0854.54
2009/04/23 14:52:04.4      80    -16     32     82     88 101.9  22.0  34270  291.45 0854.54
2009/04/23 14:52:04.5     177    106     74    207    219  59.1  20.4  34256  291.20 0854.54
2009/04/23 14:52:04.6     198     86    125    217    250  66.4  32.4  34250  291.10 0854.54
2009/04/23 14:52:04.7     114    309   -114    330    349  20.3 -23.9  34272  291.47 0854.54
2009/04/23 14:52:04.8     155    183    134    240    274  40.3  31.4  34306  292.04 0854.54
2009/04/23 14:52:04.9      63   -116    111    133    173 151.5  44.1  34292  291.81 0854.54
2009/04/23 14:52:05.0    -144   -150     24    209    211 223.9   6.7  34278  291.57 0854.57
2009/04/23 14:52:05.1    -143   -284    273    318    419 206.7  45.0  34254  291.17 0854.57
2009/04/23 14:52:05.2    -317   -516    161    606    628 211.6  14.9  34248  291.06 0854.57
2009/04/23 14:52:05.3    -161   -644    252    664    710 194.1  21.8  34260  291.28 0854.57
2009/04/23 14:52:05.4    -159   -204      3    259    260 217.9   0.8  34244  290.99 0854.57
2009/04/23 14:52:05.5     -70   -137    236    155    282 207.2  63.6  34242  290.95 0854.57
2009/04/23 14:52:05.6    -244      7    156    245    290 271.7  35.5  34228  290.73 0854.57
2009/04/23 14:52:05.7       6     85     91     86    125   4.5  51.2  34250  291.11 0854.57
2009/04/23 14:52:05.8     216    190    167    288    332  48.7  32.8  34270  291.44 0854.57
2009/04/23 14:52:05.9      38    113    159    120    199  18.7  59.2  34266  291.38 0854.57
2009/04/23 14:52:06.0      80      6     88     81    119  85.6  52.2  34288  291.74 0854.57
2009/04/23 14:52:06.1    -118     -8    132    119    177 266.1  53.3  34282  291.66 0854.57
2009/04/23 14:52:06.2    -232     21    229    233    326 275.2  49.7  34288  291.75 0854.57
2009/04/23 14:52:06.3    -223     45    135    228    264 281.5  33.4  34278  291.56 0854.57
2009/04/23 14:52:06.4    -142    228     32    269    271 328.1   6.9  34270  291.44 0854.57
2009/04/23 14:52:06.5     115    100    124    153    196  49.1  43.5  34196  290.18 0854.57
2009/04/23 14:52:06.6     230    -76    100    243    262 108.4  23.4  34244  291.00 0854.57
2009/04/23 14:52:06.7     -94   -163    169    189    253 210.1  46.9  34268  291.41 0854.57
2009/04/23 14:52:06.8     -78   -294   -140    305    335 194.9 -30.8  34238  290.90 0854.57
2009/04/23 14:52:06.9     100   -134     -7    168    169 143.3  -2.6  34224  290.65 0854.57
2009/04/23 14:52:07.0     -11   -177    270    178    323 183.6  63.5  34254  291.16 0854.56
2009/04/23 14:52:07.1     -59   -220    248    228    336 195.1  52.6  34236  290.87 0854.56
2009/04/23 14:52:07.2     -57   -207    210    215    300 195.6  49.8  34256  291.19 0854.56
2009/04/23 14:52:07.3     -91   -218    308    237    388 202.7  58.6  34274  291.51 0854.56
2009/04/23 14:52:07.4     -88   -227    232    244    336 201.2  48.5  34264  291.34 0854.56
2009/04/23 14:52:07.5    -128   -239    173    272    322 208.1  35.5  34264  291.34 0854.56
2009/04/23 14:52:07.6    -217   -284    174    358    398 217.4  27.9  34264  291.35 0854.56
2009/04/23 14:52:07.7    -337   -334     73    475    481 225.2   8.8  34258  291.22 0854.56
2009/04/23 14:52:07.8    -248   -309     85    397    407 218.7  12.1  34236  290.87 0854.56
2009/04/23 14:52:07.9    -196   -253    170    321    363 217.8  30.1  34262  291.30 0854.56
2009/04/23 14:52:08.0    -130   -229    186    264    322 209.6  38.7  34268  291.39 0854.56
2009/04/23 14:52:08.1     -83   -226    220    242    327 200.3  47.0  34216  290.53 0854.56
2009/04/23 14:52:08.2    -233   -231    164    329    367 225.3  28.5  34224  290.66 0854.56
2009/04/23 14:52:08.3    -371   -116     19    389    390 252.6   2.9  34272  291.47 0854.56
2009/04/23 14:52:08.4    -313     36    185    316    366 276.6  33.1  34228  290.71 0854.56
2009/04/23 14:52:08.5    -239   -210    191    319    371 228.7  33.7  34198  290.20 0854.56
2009/04/23 14:52:08.6    -105   -302    331    320    460 199.2  51.2  34204  290.31 0854.56
2009/04/23 14:52:08.7    -209   -286    237    355    426 216.1  36.9  34200  290.26 0854.56
2009/04/23 14:52:08.8    -217   -341    212    405    457 212.5  29.8  34212  290.44 0854.56
2009/04/23 14:52:08.9    -274   -378    146    467    490 216.0  17.4  34216  290.51 0854.56
2009/04/23 14:52:09.0    -179   -175    171    251    303 225.8  37.6  34224  290.66 0854.56
2009/04/23 14:52:09.1    -121   -189     87    225    241 212.7  22.1  34222  290.63 0854.56
2009/04/23 14:52:09.2      77    -85   -132    115    175 137.7 -59.0  34244  291.01 0854.56
2009/04/23 14:52:09.3       0     36   -214     37    217   0.9 -90.0  34244  291.01 0854.56
2009/04/23 14:52:09.4    -139     42   -103    146    178 286.9 -43.2  34240  290.92 0854.56
2009/04/23 14:52:09.5    -255    -71   -136    265    297 254.3 -33.7  34244  291.00 0854.56
2009/04/23 14:52:09.6    -167    114    -15    203    204 304.2  -4.4  34242  290.96 0854.56
2009/04/23 14:52:09.7    -201     81    -62    217    225 292.0 -20.4  34226  290.70 0854.56
2009/04/23 14:52:09.8    -164    -84   -174    185    253 242.7 -52.4  34230  290.76 0854.56
2009/04/23 14:52:09.9    -502   -160    -11    527    528 252.3  -1.3  34242  290.97 0854.56
2009/04/23 14:52:10.0    -734   -393    -49    833    835 241.8  -3.4  34218  290.55 0854.56
2009/04/23 14:52:10.1    -435   -537   -113    692    702 219.0  -9.3  34238  290.90 0854.56
2009/04/23 14:52:10.2    -603   -518   -152    796    811 229.3 -10.8  34202  290.28 0854.56
2009/04/23 14:52:10.3    -547   -631   -186    836    857 220.9 -12.6  34208  290.39 0854.56
2009/04/23 14:52:10.4    -505   -533   -221    735    768 223.4 -16.8  34210  290.43 0854.56
2009/04/23 14:52:10.5    -429   -619   -179    754    776 214.7 -13.4  34196  290.19 0854.56
2009/04/23 14:52:10.6    -604   -429     36    741    742 234.6   2.8  34192  290.12 0854.56
2009/04/23 14:52:10.7    -433   -383    -31    579    580 228.5  -3.1  34210  290.42 0854.56
2009/04/23 14:52:10.8    -464   -436   -194    638    668 226.8 -16.9  34220  290.60 0854.56
2009/04/23 14:52:10.9    -292   -439   -168    528    554 213.6 -22.8  34210  290.41 0854.56
2009/04/23 14:52:11.0    -131   -256   -200    288    350 207.1 -42.4  34208  290.40 0854.57
2009/04/23 14:52:11.1     -78   -505     24    511    512 188.8   2.8  34220  290.59 0854.57
2009/04/23 14:52:11.2    -229   -444    -32    500    502 207.3  -3.7  34208  290.39 0854.57
2009/04/23 14:52:11.3    -218   -380    -24    439    440 209.9  -3.1  34202  290.28 0854.57
2009/04/23 14:52:11.4    -168   -454     27    485    486 200.3   3.3  34202  290.29 0854.57
2009/04/23 14:52:11.5    -163   -406     60    438    443 201.9   7.8  34202  290.29 0854.57
2009/04/23 14:52:11.6    -217   -517    225    561    604 202.8  23.1  34200  290.25 0854.57
2009/04/23 14:52:11.7    -286   -558     90    628    635 207.2   8.2  34198  290.23 0854.57
2009/04/23 14:52:11.8     -29   -404    203    405    453 184.1  28.6  34202  290.28 0854.57
2009/04/23 14:52:11.9    -101   -519    239    529    580 191.1  26.2  34208  290.38 0854.57
2009/04/23 14:52:12.0    -116   -570     11    583    584 191.6   1.1  34196  290.17 0854.57
2009/04/23 14:52:12.1    -200   -663    -27    693    694 196.8  -2.2  34200  290.24 0854.57
2009/04/23 14:52:12.2      38   -687    -52    689    691 176.8  -4.4  34192  290.12 0854.57
2009/04/23 14:52:12.3      53   -597    -87    600    607 174.9  -8.3  34200  290.24 0854.57
2009/04/23 14:52:12.4     160   -509    -80    534    541 162.5  -8.6  34178  289.87 0854.57
2009/04/23 14:52:12.5     145   -446     78    470    477 162.0   9.5  34202  290.27 0854.57
2009/04/23 14:52:12.6     -31   -410     35    412    414 184.4   4.9  34200  290.26 0854.57
2009/04/23 14:52:12.7     -10   -559    -40    560    562 181.1  -4.1  34196  290.19 0854.57
2009/04/23 14:52:12.8     101   -590     60    599    603 170.2   5.8  34188  290.05 0854.57
2009/04/23 14:52:12.9     227   -555   -100    600    609 157.7  -9.5  34196  290.19 0854.57
2009/04/23 14:52:13.0     296   -421    110    515    527 144.9  12.2  34192  290.13 0854.58
2009/04/23 14:52:13.1     316   -388     50    501    504 140.8   5.8  34196  290.17 0854.58
2009/04/23 14:52:13.2     597   -175    458    623    773 106.4  39.9  34174  289.81 0854.58
2009/04/23 14:52:13.3     499   -333    692    601    916 123.7  54.7  34218  290.55 0854.58
2009/04/23 14:52:13.4     362   -164    518    398    653 114.4  58.7  34222  290.64 0854.58
2009/04/23 14:52:13.5     149      3    436    150    461  88.7  80.6  34214  290.49 0854.58
2009/04/23 14:52:13.6     -36     67    463     77    469 331.9  90.0  34220  290.59 0854.58
2009/04/23 14:52:13.7     568    148    471    587    752  75.4  42.8  34194  290.15 0854.58
2009/04/23 14:52:13.8       0     56    290     57    295 359.1  89.4  34228  290.71 0854.58
2009/04/23 14:52:13.9     -66     87    345    110    362 322.6  81.7  34246  291.02 0854.58
2009/04/23 14:52:14.0     323   -122    457    346    573 110.7  59.3  34202  290.30 0854.58
2009/04/23 14:52:14.1     506   -243    310    562    641 115.7  31.4  34200  290.25 0854.58
2009/04/23 14:52:14.2     284    -41    300    288    415  98.4  51.3  34202  290.28 0854.58
2009/04/23 14:52:14.3     210    -15    154    211    261  94.1  39.7  34214  290.48 0854.58
2009/04/23 14:52:14.4     222     48    203    228    305  77.8  46.2  34204  290.32 0854.58
2009/04/23 14:52:14.5     188      0    220    189    290  90.0  55.3  34252  291.14 0854.58
2009/04/23 14:52:14.6      -5    -74    202     75    215 184.5  79.2  34244  290.99 0854.58
2009/04/23 14:52:14.7     185    -71    336    199    390 111.1  66.8  34248  291.08 0854.58
2009/04/23 14:52:14.8      28    -84    188     89    208 161.5  73.1  34220  290.58 0854.58
2009/04/23 14:52:14.9     117   -200    217    232    317 149.7  47.9  34206  290.34 0854.58
2009/04/23 14:52:15.0      48   -235    234    240    335 168.4  49.3  34200  290.24 0854.58
2009/04/23 14:52:15.1     112   -112    181    159    240 135.0  54.2  34218  290.55 0854.58
2009/04/23 14:52:15.2       0   -223    266    224    347 179.8  55.8  34198  290.22 0854.58
2009/04/23 14:52:15.3     115   -209    179    239    298 151.1  40.6  34200  290.24 0854.58
2009/04/23 14:52:15.4     108   -135     47    174    181 141.3  15.3  34202  290.28 0854.58
2009/04/23 14:52:15.5      27    -83     82     88    120 161.5  47.9  34208  290.38 0854.58
2009/04/23 14:52:15.6    -133    -62     24    147    150 244.8   9.5  34210  290.43 0854.58
2009/04/23 14:52:15.7    -132     71     55    151    160 298.4  20.7  34214  290.50 0854.58
2009/04/23 14:52:15.8      37     79    162     88    184  25.4  68.9  34228  290.72 0854.58
2009/04/23 14:52:15.9    -114   -126     39    171    176 222.1  12.9  34250  291.09 0854.58
2009/04/23 14:52:16.0     -36     55      8     67     68 326.6   6.9  34260  291.28 0854.57
2009/04/23 14:52:16.1    -155    107    -28    189    192 304.6  -8.6  34262  291.30 0854.57
2009/04/23 14:52:16.2      72    207     26    220    222  19.2   6.9  34258  291.23 0854.57
2009/04/23 14:52:16.3     -67    259    111    268    290 345.3  23.8  34266  291.36 0854.57
2009/04/23 14:52:16.4     163    371     55    406    410  23.7   7.8  34260  291.28 0854.57
2009/04/23 14:52:16.5     151    389    123    418    436  21.3  16.4  34254  291.16 0854.57
2009/04/23 14:52:16.6     158    493     62    518    522  17.8   6.9  34268  291.40 0854.57
2009/04/23 14:52:16.7     331    469     53    574    577  35.2   5.3  34326  292.40 0854.57
2009/04/23 14:52:16.8     192    426    119    468    483  24.3  14.3  34266  291.36 0854.57
2009/04/23 14:52:16.9     202    504    147    544    564  21.9  15.1  34250  291.11 0854.57
2009/04/23 14:52:17.0     221    649     63    686    690  18.8   5.3  34204  290.33 0854.57
2009/04/23 14:52:17.1     246    662     40    707    709  20.4   3.3  34188  290.06 0854.57
2009/04/23 14:52:17.2     322    441      6    547    548  36.1   0.7  34194  290.14 0854.57
2009/04/23 14:52:17.3      56    663    -13    666    667   4.9  -1.2  34182  289.93 0854.57
2009/04/23 14:52:17.4      -8    659   -108    660    669 359.3  -9.3  34206  290.34 0854.57
2009/04/23 14:52:17.5      10    616    -60    617    621   1.0  -5.6  34214  290.48 0854.57
2009/04/23 14:52:17.6     148    536     98    557    566  15.5  10.0  34254  291.16 0854.57
2009/04/23 14:52:17.7     253    513    163    573    596  26.3  15.9  34246  291.04 0854.57
2009/04/23 14:52:17.8     321    393    220    508    553  39.2  25.0  34338  292.61 0854.57
2009/04/23 14:52:17.9     281    365    266    461    532  37.6  32.6  34322  292.33 0854.57
2009/04/23 14:52:18.0     224    371    260    434    505  31.2  34.0  34282  291.63 0854.55
2009/04/23 14:52:18.1     557    326    223    646    684  59.6  19.1  34196  290.17 0854.55
2009/04/23 14:52:18.2     440    426    200    613    645  46.0  18.1  34240  290.93 0854.55
2009/04/23 14:52:18.3     511    408    234    655    695  51.4  20.6  34248  291.07 0854.55
2009/04/23 14:52:18.4     280    666    204    723    752  22.8  15.8  34176  289.84 0854.55
2009/04/23 14:52:18.5     213    545     12    586    587  21.4   1.2  34184  289.98 0854.55
2009/04/23 14:52:18.6     371    558    273    671    724  33.6  23.5  34272  291.47 0854.55
2009/04/23 14:52:18.7     436    408    290    598    664  46.9  27.8  34280  291.62 0854.55
2009/04/23 14:52:18.8     590    442    231    738    774  53.2  17.4  34286  291.70 0854.55
2009/04/23 14:52:18.9     685    522    401    862    950  52.7  26.7  34308  292.10 0854.55
2009/04/23 14:52:19.0     856    370    290    933    978  66.6  17.3  34198  290.23 0854.55
2009/04/23 14:52:19.1     877    420    226    973    999  64.4  13.1  34170  289.73 0854.55
2009/04/23 14:52:19.2     765    455    -68    891    894  59.3  -4.4  34156  289.50 0854.55
2009/04/23 14:52:19.3     881    457    -71    993    996  62.6  -4.1  34144  289.29 0854.55
2009/04/23 14:52:19.4     986    415     56   1070   1072  67.2   3.0  34138  289.20 0854.55
2009/04/23 14:52:19.5     790    512   -132    942    952  57.0  -8.0  34154  289.46 0854.55
2009/04/23 14:52:19.6     789    470   -215    919    944  59.2 -13.2  34182  289.96 0854.55
2009/04/23 14:52:19.7     675    436   -218    804    834  57.1 -15.2  34178  289.87 0854.55
2009/04/23 14:52:19.8     471    489   -215    680    714  43.9 -17.6  34182  289.94 0854.55
2009/04/23 14:52:19.9     679    321   -205    752    780  64.7 -15.3  34178  289.88 0854.55
2009/04/23 14:52:20.0     804    476     -4    935    936  59.4  -0.3  34218  290.54 0854.55
2009/04/23 14:52:20.1     512    483   -287    705    761  46.7 -27.8  34152  289.45 0854.55
2009/04/23 14:52:20.2       0    511    -16    512    513   0.1  -1.8  34176  289.83 0854.55
2009/04/23 14:52:20.3     174    502    194    532    566  19.2  21.0  34164  289.63 0854.55
2009/04/23 14:52:20.4     336    235    293    411    504  55.0  39.1  34174  289.81 0854.55
2009/04/23 14:52:20.5     225    190   -262    295    394  49.8 -50.6  34176  289.84 0854.55
2009/04/23 14:52:20.6      91    418   -561    429    706  12.4 -63.3  34146  289.33 0854.55
2009/04/23 14:52:20.7     331    623   -580    706    913  28.0 -48.1  34156  289.49 0854.55
2009/04/23 14:52:20.8     242    313   -476    396    619  37.7 -60.7  34168  289.72 0854.55
2009/04/23 14:52:20.9     109    327   -436    345    555  18.5 -62.2  34174  289.81 0854.55
2009/04/23 14:52:21.0     136    420   -338    442    556  18.0 -45.7  34176  289.84 0854.55
2009/04/23 14:52:21.1     251    406   -247    478    538  31.7 -33.7  34170  289.73 0854.55
2009/04/23 14:52:21.2     248    317   -257    403    477  38.0 -40.0  34160  289.56 0854.55
2009/04/23 14:52:21.3     111    300   -273    320    420  20.3 -49.2  34172  289.77 0854.55
2009/04/23 14:52:21.4      40     28   -271     49    275  54.9 -90.0  34186  290.01 0854.55
2009/04/23 14:52:21.5     188     35   -148    192    242  79.4 -46.0  34178  289.89 0854.55
2009/04/23 14:52:21.6     -16     48    -58     51     77 341.3 -58.7  34170  289.74 0854.55
2009/04/23 14:52:21.7    -321     87    -13    333    334 285.2  -2.3  34172  289.76 0854.55
2009/04/23 14:52:21.8    -266     11    -48    267    272 272.5 -10.3  34178  289.86 0854.55
2009/04/23 14:52:21.9    -214     41   -120    218    248 281.0 -35.8  34176  289.83 0854.55
2009/04/23 14:52:22.0    -243    150    -10    286    287 301.6  -2.1  34190  290.07 0854.55
2009/04/23 14:52:22.1    -261    130     14    292    293 296.6   2.9  34176  289.85 0854.55
2009/04/23 14:52:22.2    -194    190     30    272    274 314.4   6.5  34166  289.68 0854.55
2009/04/23 14:52:22.3    -182    129    -67    224    234 305.3 -16.8  34166  289.69 0854.55
2009/04/23 14:52:22.4    -159    168     -9    232    233 316.7  -2.2  34168  289.70 0854.55
2009/04/23 14:52:22.5    -219     60     19    228    229 285.5   5.0  34170  289.74 0854.55
2009/04/23 14:52:22.6     -69     86     42    111    118 321.3  21.5  34174  289.82 0854.55
2009/04/23 14:52:22.7     -77    163     51    181    189 334.8  15.8  34170  289.75 0854.55
2009/04/23 14:52:22.8      46    203    173    209    271  12.9  43.8  34170  289.75 0854.55
2009/04/23 14:52:22.9     143    196    143    243    281  36.1  33.4  34176  289.83 0854.55
2009/04/23 14:52:23.0     188    207    169    280    327  42.3  34.0  34168  289.71 0854.55
2009/04/23 14:52:23.1     111    187    236    218    321  30.7  52.5  34168  289.71 0854.55
2009/04/23 14:52:23.2     213    287    212    358    416  36.5  33.5  34166  289.67 0854.55
2009/04/23 14:52:23.3       0    517    179    518    549   0.1  19.1  34224  290.67 0854.55
2009/04/23 14:52:23.4      11    460    189    461    498   1.4  23.6  34248  291.07 0854.55
2009/04/23 14:52:23.5      19    432    144    433    457   2.6  18.4  34250  291.09 0854.55
2009/04/23 14:52:23.6      46    437    187    440    478   6.1  24.5  34288  291.76 0854.55
2009/04/23 14:52:23.7      75    388    122    396    415  11.0  17.2  34282  291.63 0854.55
2009/04/23 14:52:23.8     -29    448    207    449    494 356.2  26.5  34346  292.75 0854.55
2009/04/23 14:52:23.9     -31    431    153    433    460 355.8  19.5  34328  292.43 0854.55
2009/04/23 14:52:24.0      -4    456    106    457    470 359.4  13.1  34296  291.87 0854.56
2009/04/23 14:52:24.1    -104    409    188    423    462 345.7  25.6  34206  290.34 0854.56
2009/04/23 14:52:24.2      89    446    395    455    602  11.3  45.4  34260  291.26 0854.56
2009/04/23 14:52:24.3      51    472    249    475    536   6.2  29.8  34252  291.13 0854.56
2009/04/23 14:52:24.4     216    552    264    593    649  21.4  25.6  34194  290.16 0854.56
2009/04/23 14:52:24.5     107    523    361    535    645  11.6  37.3  34174  289.80 0854.56
2009/04/23 14:52:24.6     186    515    384    548    669  19.9  38.5  34184  289.98 0854.56
2009/04/23 14:52:24.7     459    587    102    746    753  38.0   7.8  34294  291.86 0854.56
2009/04/23 14:52:24.8     553    569     67    794    798  44.2   4.9  34174  289.81 0854.56
2009/04/23 14:52:24.9     460    574      2    736    737  38.7   0.2  34162  289.60 0854.56
2009/04/23 14:52:25.0     701    586     22    914    915  50.1   1.4  34242  290.97 0854.56
2009/04/23 14:52:25.1     571    514     39    769    771  48.0   2.9  34242  290.97 0854.56
2009/04/23 14:52:25.2     782    540     60    951    953  55.4   3.6  34232  290.81 0854.56
2009/04/23 14:52:25.3     670    423   -165    793    811  57.7 -11.8  34208  290.40 0854.56
2009/04/23 14:52:25.4     580    421   -222    717    750  54.0 -22.1  34208  290.38 0854.56
2009/04/23 14:52:25.5     600    304    140    673    688  63.1  11.8  34184  289.99 0854.56
2009/04/23 14:52:25.6     436    378    -12    578    579  49.1  -1.3  34180  289.90 0854.56
2009/04/23 14:52:25.7     622    257     -8    674    675  67.5  -0.7  34202  290.27 0854.56
2009/04/23 14:52:25.8     616    194    -35    646    648  72.5  -3.1  34206  290.35 0854.56
2009/04/23 14:52:25.9     708    263    -29    756    757  69.6  -2.2  34190  290.09 0854.56
2009/04/23 14:52:26.0     593    184     40    622    624  72.7   3.7  34216  290.52 0854.56
2009/04/23 14:52:26.1     488    132     86    506    514  74.9   9.7  34238  290.90 0854.56
2009/04/23 14:52:26.2     424    142    309    448    544  71.4  37.9  34228  290.73 0854.56
2009/04/23 14:52:26.3     232      3    338    233    410  89.1  62.2  34272  291.47 0854.56
2009/04/23 14:52:26.4     356   -230    105    425    438 122.9  13.9  34252  291.14 0854.56
2009/04/23 14:52:26.5     207   -118    200    239    311 119.8  43.8  34276  291.53 0854.56
2009/04/23 14:52:26.6     273   -180    276    328    428 123.5  44.4  34282  291.64 0854.56
2009/04/23 14:52:26.7     173   -213     63    275    283 141.0  12.9  34230  290.75 0854.56
2009/04/23 14:52:26.8     316   -185    141    367    393 120.3  22.1  34232  290.79 0854.56
2009/04/23 14:52:26.9     301   -172    209    347    405 119.8  34.0  34244  291.01 0854.56
2009/04/23 14:52:27.0     260    -91    206    276    344 109.3  40.6  34246  291.04 0854.56
2009/04/23 14:52:27.1     259    -95    194    277    338 110.2  38.5  34264  291.33 0854.56
2009/04/23 14:52:27.2     -33    186    189    190    267 349.8  50.0  34260  291.27 0854.56
2009/04/23 14:52:27.3     -28    268    253    270    370 354.0  48.0  34228  290.72 0854.56
2009/04/23 14:52:27.4     -80    299    217    310    378 344.9  38.5  34194  290.16 0854.56
2009/04/23 14:52:27.5      43    179    178    185    256  13.6  49.0  34208  290.37 0854.56
2009/04/23 14:52:27.6     158    230    250    280    375  34.5  46.4  34248  291.08 0854.56
2009/04/23 14:52:27.7     -90    202    131    222    257 335.9  33.4  34216  290.53 0854.56
2009/04/23 14:52:27.8     -36    214    116    218    246 350.3  30.3  34214  290.49 0854.56
2009/04/23 14:52:27.9     -38    226    133    230    265 350.3  32.7  34244  290.99 0854.53
2009/04/23 14:52:28.0     -22    259    204    261    331 355.1  42.0  34256  291.21 0854.53
2009/04/23 14:52:28.1     165    181    119    246    273  42.3  27.3  34260  291.26 0854.53
2009/04/23 14:52:28.2     179    300   -116    350    368  30.9 -23.8  34248  291.05 0854.53
2009/04/23 14:52:28.3     285    114     63    308    315  68.2  11.6  34268  291.39 0854.53
2009/04/23 14:52:28.4     403    250    -50    475    478  58.2  -6.1  34292  291.81 0854.53
2009/04/23 14:52:28.6     237    357    -87    429    438  33.6 -11.5  34224  290.65 0854.53
2009/04/23 14:52:28.7      79     95    -85    124    150  39.6 -42.0  34224  290.67 0854.53
2009/04/23 14:52:28.8     274    113     91    297    311  67.6  17.2  34244  291.00 0854.53
2009/04/23 14:52:28.9     641    139     62    657    661  77.7   5.4  34262  291.29 0854.53
2009/04/23 14:52:29.0     653    300    123    719    730  65.3   9.7  34232  290.79 0854.53
2009/04/23 14:52:29.1     709    125    150    721    737  80.0  11.8  34278  291.58 0854.53
2009/04/23 14:52:29.2     622    151    290    641    703  76.3  26.0  34292  291.82 0854.53
2009/04/23 14:52:29.3     595    189    217    625    661  72.3  20.0  34298  291.91 0854.53
2009/04/23 14:52:29.4     398    205    394    448    596  62.7  45.8  34296  291.89 0854.53
2009/04/23 14:52:29.5     402    305    266    505    570  52.8  30.1  34274  291.50 0854.53
2009/04/23 14:52:29.6     287    236    244    372    444  50.6  36.4  34300  291.96 0854.53
2009/04/23 14:52:29.7     332    108    214    350    410  71.9  34.4  34324  292.36 0854.53
2009/04/23 14:52:29.8     405    -74    238    412    475 100.4  32.7  34316  292.21 0854.53
2009/04/23 14:52:29.9     349    -17    253    350    431  92.8  39.5  34298  291.92 0854.53
2009/04/23 14:52:30.0     393     41    222    396    453  83.9  31.6  34234  290.82 0854.55
2009/04/23 14:52:30.1     351      8    202    352    405  88.6  32.4  34230  290.76 0854.55
2009/04/23 14:52:30.2     362     76    309    370    482  78.1  44.1  34236  290.87 0854.55
2009/04/23 14:52:30.3     212    114    290    241    377  61.6  56.3  34248  291.08 0854.55
2009/04/23 14:52:30.4     221     50    274    227    355  77.2  56.3  34266  291.36 0854.55
2009/04/23 14:52:30.5     133     83    249    158    294  58.0  64.7  34284  291.67 0854.55
2009/04/23 14:52:30.6     200     84    221    217    309  67.2  50.2  34266  291.36 0854.55
2009/04/23 14:52:30.7     254     19    182    255    313  85.7  39.1  34274  291.51 0854.55
2009/04/23 14:52:30.8     371    300    -34    478    480  51.0  -4.1  34278  291.59 0854.55
2009/04/23 14:52:30.9     214    137    140    255    290  57.4  31.3  34276  291.53 0854.55
2009/04/23 14:52:31.0     238    142    202    278    343  59.3  39.7  34304  292.01 0854.55
2009/04/23 14:52:31.1     284    222    110    361    378  51.9  17.0  34302  291.97 0854.55
2009/04/23 14:52:31.2     240   -119    196    269    332 116.4  39.7  34314  292.18 0854.55
2009/04/23 14:52:31.3     256     60    137    264    297  76.7  29.3  34314  292.19 0854.55
2009/04/23 14:52:31.4     159    162    149    228    272  44.5  35.7  34308  292.07 0854.55
2009/04/23 14:52:31.5     214     44    242    219    326  78.3  53.4  34300  291.94 0854.55
2009/04/23 14:52:31.6     121     88    130    150    198  54.0  45.6  34266  291.37 0854.55
2009/04/23 14:52:31.7      92     81    110    123    165  48.7  46.6  34280  291.60 0854.55
2009/04/23 14:52:31.8      46    116     57    125    137  21.9  26.2  34282  291.66 0854.55
2009/04/23 14:52:31.9      75    162     79    179    195  24.9  25.2  34276  291.54 0854.55
2009/04/23 14:52:32.0     -29    229     41    231    235 352.7  10.1  34274  291.51 0854.56
2009/04/23 14:52:32.1      15    125    104    126    163   7.1  43.7  34306  292.06 0854.56
2009/04/23 14:52:32.2      64    116    107    133    170  29.0  43.3  34316  292.22 0854.56
2009/04/23 14:52:32.3      24    120     33    123    128  11.5  15.3  34306  292.05 0854.56
2009/04/23 14:52:32.4      77     39     42     87     96  62.9  27.3  34318  292.25 0854.56
2009/04/23 14:52:32.5      31    -33   -107     46    116 136.8 -79.9  34306  292.05 0854.56
2009/04/23 14:52:32.6      50    -33   -133     61    146 123.3 -77.5  34282  291.66 0854.56
2009/04/23 14:52:32.7      80    -54   -140     97    170 124.2 -66.5  34280  291.60 0854.56
2009/04/23 14:52:32.8     -99    160    -92    189    210 328.1 -31.8  34268  291.40 0854.56
2009/04/23 14:52:32.9      39    134    -12    140    141  16.5  -5.2  34266  291.38 0854.56
2009/04/23 14:52:33.0     137    116    102    180    206  49.6  32.1  34308  292.08 0854.56
2009/04/23 14:52:33.1     182    135    120    227    256  53.4  30.2  34298  291.90 0854.56
2009/04/23 14:52:33.2      -8    195     98    196    219 357.5  28.7  34312  292.17 0854.56
2009/04/23 14:52:33.3      -2    156     93    157    182 359.1  33.7  34310  292.13 0854.56
2009/04/23 14:52:33.4      78     25     70     83    108  71.8  44.3  34304  292.03 0854.56
2009/04/23 14:52:33.5      23     40     16     47     50  29.9  19.4  34300  291.95 0854.56
2009/04/23 14:52:33.6     -15    110     -1    112    113 351.9  -0.7  34288  291.76 0854.56
2009/04/23 14:52:33.7       5     71   -111     72    132   4.5 -69.0  34294  291.84 0854.56
2009/04/23 14:52:33.8     -10      0    -59     11     60 270.0 -90.0  34294  291.84 0854.56
2009/04/23 14:52:33.9     -91    -43    -55    101    115 244.7 -35.8  34296  291.89 0854.56
2009/04/23 14:52:34.0     -87    -22     -6     90     91 255.4  -4.1  34294  291.86 0854.55
2009/04/23 14:52:34.1     -76    -60     72     97    120 231.8  40.1  34286  291.71 0854.55
2009/04/23 14:52:34.2    -143    -86    -56    168    177 238.9 -23.6  34264  291.35 0854.55
2009/04/23 14:52:34.3    -145    -36     -5    150    151 255.8  -2.2  34252  291.15 0854.55
2009/04/23 14:52:34.4    -166    -13     19    167    169 265.4   6.7  34258  291.23 0854.55
2009/04/23 14:52:34.5    -163     28     32    166    170 279.9  11.0  34274  291.50 0854.55
2009/04/23 14:52:34.6    -287    -21    -30    288    290 265.7  -6.1  34276  291.55 0854.55
2009/04/23 14:52:34.7    -183     94     10    207    208 297.3   2.9  34284  291.67 0854.55
2009/04/23 14:52:34.8    -199     93     11    220    221 295.2   2.9  34320  292.29 0854.55
2009/04/23 14:52:34.9    -222     91     13    241    242 292.4   3.1  34348  292.76 0854.55
2009/04/23 14:52:35.0    -146     48    -11    154    155 288.2  -4.1  34318  292.27 0854.65
2009/04/23 14:52:35.1     -77    123    -18    146    148 327.9  -7.2  34336  292.58 0854.65
2009/04/23 14:52:35.2    -118    260     24    286    288 335.5   4.9  34348  292.77 0854.65
2009/04/23 14:52:35.3    -108     98    101    147    178 312.2  38.0  34352  292.85 0854.65
2009/04/23 14:52:35.4    -139    117     98    182    206 310.0  30.8  34360  292.97 0854.65
2009/04/23 14:52:35.5    -196     93    -65    218    228 295.4 -16.8  34342  292.66 0854.65
2009/04/23 14:52:35.6    -207    131    -75    246    257 302.4 -21.7  34232  290.78 0854.65
2009/04/23 14:52:35.7    -391      6   -130    392    412 270.9 -23.7  34188  290.05 0854.65
2009/04/23 14:52:35.8    -527     25   -214    528    569 272.8 -27.8  34196  290.18 0854.65
2009/04/23 14:52:35.9    -404    -81    -84    413    422 258.6 -11.5  34216  290.53 0854.65
2009/04/23 14:52:36.0    -183   -151   -105    238    260 230.4 -29.6  34276  291.55 0854.65
2009/04/23 14:52:36.1    -186    -36    -75    190    204 258.8 -26.9  34240  290.92 0854.65
2009/04/23 14:52:36.2    -258      9     57    259    266 272.1  12.4  34332  292.50 0854.65
2009/04/23 14:52:36.3    -277    -47    101    281    298 260.3  20.7  34306  292.04 0854.65
2009/04/23 14:52:36.4    -192     37     46    196    202 281.0  13.2  34322  292.34 0854.65
2009/04/23 14:52:36.5    -241    -59     98    249    267 256.1  22.8  34348  292.76 0854.65
2009/04/23 14:52:36.6    -203    -55    102    211    234 254.9  27.3  34346  292.75 0854.65
2009/04/23 14:52:36.7     -61    -96    194    114    225 212.6  66.8  34338  292.59 0854.65
2009/04/23 14:52:36.8    -159    -37     57    164    174 256.8  19.2  34350  292.81 0854.65
2009/04/23 14:52:36.9    -132     10     41    133    140 274.4  17.3  34352  292.85 0854.65
2009/04/23 14:52:37.0     -74     25      1     79     80 289.1   1.2  34344  292.71 0854.64
2009/04/23 14:52:37.1     -76     96     69    123    141 321.7  31.4  34340  292.63 0854.64
2009/04/23 14:52:37.2    -106     52     82    119    144 296.2  37.6  34338  292.61 0854.64
2009/04/23 14:52:37.3     -49     45     49     67     83 312.2  40.1  34340  292.63 0854.64
2009/04/23 14:52:37.4     -82     93     24    125    128 318.5  11.1  34344  292.71 0854.64
2009/04/23 14:52:37.5     -61    217      0    226    227 344.2   0.0  34332  292.49 0854.64
2009/04/23 14:52:37.6    -235    176    -88    294    306 306.9 -21.7  34298  291.90 0854.64
2009/04/23 14:52:37.7    -191    113    -43    222    227 300.6 -11.1  34312  292.17 0854.64
2009/04/23 14:52:37.8      68    141      2    157    158  25.9   1.0  34338  292.59 0854.64
2009/04/23 14:52:37.9     108     69     44    129    137  57.6  18.9  34348  292.76 0854.64
2009/04/23 14:52:38.0     116     79    134    141    194  55.9  48.7  34362  293.02 0854.64
2009/04/23 14:52:38.1      88     99    122    133    180  41.5  47.5  34364  293.05 0854.64
2009/04/23 14:52:38.2      32     57     79     66    102  29.0  55.8  34360  292.97 0854.64
2009/04/23 14:52:38.3      -5     55     33     56     65 354.7  33.5  34362  293.00 0854.64
2009/04/23 14:52:38.4      95    -39     96    103    140 112.6  47.9  34332  292.51 0854.64
2009/04/23 14:52:38.5     152    -16    131    153    201  96.2  45.4  34334  292.54 0854.64
2009/04/23 14:52:38.6     147      2    127    148    195  89.1  44.8  34352  292.83 0854.64
2009/04/23 14:52:38.7     109     56    110    123    165  62.9  46.6  34350  292.80 0854.64
2009/04/23 14:52:38.8      77     59     86     98    130  52.7  45.8  34360  292.97 0854.64
2009/04/23 14:52:38.9      74      5     93     75    119  85.6  56.9  34362  293.00 0854.64
2009/04/23 14:52:39.0      21      7     59     23     63  70.0  78.2  34346  292.75 0854.58
2009/04/23 14:52:39.1     -35    -64    119     74    140 209.0  64.7  34340  292.63 0854.58
2009/04/23 14:52:39.2     -87    -84    165    121    204 226.0  60.5  34346  292.75 0854.58
2009/04/23 14:52:39.3     -69    -16    132     71    149 256.7  69.3  34350  292.81 0854.58
2009/04/23 14:52:39.4    -131    -14    117    132    176 263.8  46.2  34336  292.56 0854.58
2009/04/23 14:52:39.5     -97     -7     88     98    131 265.6  46.9  34348  292.76 0854.58
2009/04/23 14:52:39.6     -85    -37     53     93    107 246.5  32.4  34352  292.85 0854.58
2009/04/23 14:52:39.7     -63    -76     75     99    124 219.7  41.2  34348  292.76 0854.58
2009/04/23 14:52:39.8    -139    -88     54    165    174 237.5  18.4  34352  292.85 0854.58
2009/04/23 14:52:39.9    -148    -93    -16    175    176 237.8  -5.4  34360  292.98 0854.58
2009/04/23 14:52:40.0     -60   -138     49    151    159 203.6  18.1  34348  292.76 0854.58
2009/04/23 14:52:40.1    -137   -129     51    189    196 226.9  15.3  34346  292.73 0854.58
2009/04/23 14:52:40.2    -138    -92    -61    167    177 236.3 -25.4  34334  292.54 0854.58
2009/04/23 14:52:40.3     -47   -114   -105    124    162 202.7 -49.2  34334  292.54 0854.58
2009/04/23 14:52:40.4    -109   -124   -113    166    200 221.4 -42.0  34336  292.56 0854.58
2009/04/23 14:52:40.5     -98   -130   -108    163    195 217.0 -41.1  34312  292.15 0854.58
2009/04/23 14:52:40.6    -100   -136    -48    169    175 216.3 -20.4  34308  292.10 0854.58
2009/04/23 14:52:40.7     -57   -204    -52    213    220 195.8 -13.7  34304  292.03 0854.58
2009/04/23 14:52:40.8     -60   -171    -26    182    184 199.4  -8.2  34304  292.01 0854.58
2009/04/23 14:52:40.9     -81   -172    -16    191    192 205.2  -4.9  34320  292.29 0854.58
2009/04/23 14:52:41.0     -82   -196     25    213    215 202.7   6.9  34344  292.69 0854.47
2009/04/23 14:52:41.1     -64   -230      9    239    240 195.6   2.3  34334  292.52 0854.47
2009/04/23 14:52:41.2     -48   -229     -2    235    236 192.0  -0.5  34328  292.43 0854.47
2009/04/23 14:52:41.3      10   -250     -9    251    252 177.5  -2.2  34288  291.75 0854.47
2009/04/23 14:52:41.4      39   -275    -10    278    279 171.9  -2.2  34266  291.38 0854.47
2009/04/23 14:52:41.5      10   -243    -17    244    245 177.5  -4.1  34264  291.34 0854.47
2009/04/23 14:52:41.6      64   -268    -11    276    277 166.4  -2.3  34300  291.94 0854.47
2009/04/23 14:52:41.7      66   -259     42    268    272 165.7   9.0  34356  292.89 0854.47
2009/04/23 14:52:41.8      66   -210     51    221    227 162.4  13.2  34360  292.97 0854.47
2009/04/23 14:52:41.9      74   -177    117    192    224 157.3  34.4  34346  292.75 0854.47
2009/04/23 14:52:42.0      82   -225     92    240    257 160.0  22.1  34332  292.48 0854.47
2009/04/23 14:52:42.1     110   -195    118    224    253 150.6  30.3  34346  292.72 0854.47
2009/04/23 14:52:42.2     145   -162    146    218    262 138.1  36.7  34338  292.60 0854.47
2009/04/23 14:52:42.3      98   -193    121    217    248 153.0  31.6  34338  292.59 0854.47
2009/04/23 14:52:42.4     170   -200    135    263    295 139.7  29.3  34322  292.33 0854.47
2009/04/23 14:52:42.5     157   -202    150    256    296 142.1  33.4  34314  292.19 0854.47
2009/04/23 14:52:42.6      52   -215    130    222    257 166.2  33.1  34278  291.58 0854.47
2009/04/23 14:52:42.7      29   -182    117    185    218 170.9  35.5  34278  291.57 0854.47
2009/04/23 14:52:42.8     -23   -242     96    244    262 185.6  22.8  34266  291.36 0854.47
2009/04/23 14:52:42.9     -66   -200     41    211    215 198.5  11.0  34266  291.37 0854.47
2009/04/23 14:52:43.0       6   -145     62    146    158 177.3  24.3  34264  291.35 0854.46
2009/04/23 14:52:43.1     108   -147    123    183    220 143.5  37.3  34272  291.47 0854.46
2009/04/23 14:52:43.2      70   -148    120    164    203 154.5  39.7  34270  291.45 0854.46
2009/04/23 14:52:43.3      76   -175     94    192    213 156.4  28.0  34260  291.28 0854.46
2009/04/23 14:52:43.4      31   -185    100    188    212 170.2  30.3  34258  291.23 0854.46
2009/04/23 14:52:43.5     -20   -212     82    214    229 185.6  22.0  34256  291.20 0854.46
2009/04/23 14:52:43.6     -77   -236     81    249    262 198.0  18.1  34256  291.21 0854.46
2009/04/23 14:52:43.7     -96   -253     32    271    273 200.9   6.9  34250  291.10 0854.46
2009/04/23 14:52:43.8     -57   -280     67    286    294 191.6  13.2  34248  291.07 0854.46
2009/04/23 14:52:43.9     -26   -292    127    294    320 185.1  24.8  34238  290.90 0854.46
2009/04/23 14:52:44.0     -74   -303    109    313    332 193.8  19.3  34240  290.93 0854.46
2009/04/23 14:52:44.1    -106   -317    118    335    355 198.6  20.2  34238  290.89 0854.46
2009/04/23 14:52:44.2    -138   -346    125    373    394 201.8  18.6  34236  290.86 0854.46
2009/04/23 14:52:44.3    -195   -353    121    404    422 209.0  16.8  34230  290.77 0854.46
2009/04/23 14:52:44.4    -105   -441    229    454    508 193.4  28.9  34232  290.78 0854.46
2009/04/23 14:52:44.5    -165   -443    200    474    514 200.5  24.3  34228  290.74 0854.46
2009/04/23 14:52:44.6     -90   -338    217    350    411 195.0  34.8  34218  290.54 0854.46
2009/04/23 14:52:44.7     -79   -273    239    285    371 196.3  44.2  34232  290.81 0854.46
2009/04/23 14:52:44.8    -118   -270    192    295    351 203.7  36.2  34222  290.62 0854.46
2009/04/23 14:52:44.9    -173   -232    105    290    308 216.7  20.9  34220  290.59 0854.46
2009/04/23 14:52:45.0    -215   -272     78    347    356 218.3  12.8  34220  290.60 0854.54
2009/04/23 14:52:45.1    -221   -310     86    381    391 215.5  12.8  34222  290.62 0854.54
2009/04/23 14:52:45.2    -150   -271    133    311    338 209.0  24.6  34214  290.50 0854.54
2009/04/23 14:52:45.3    -102   -204    164    229    281 206.7  39.1  34210  290.41 0854.54
2009/04/23 14:52:45.4       3   -199    235    200    308 179.1  55.6  34216  290.51 0854.54
2009/04/23 14:52:45.5      13   -181    173    182    251 175.8  48.7  34210  290.41 0854.54
2009/04/23 14:52:45.6      48   -119    170    129    213 158.1  59.0  34222  290.62 0854.54
2009/04/23 14:52:45.7      92   -192    122    213    245 154.4  32.3  34208  290.37 0854.54
2009/04/23 14:52:45.8      81   -110    138    137    194 143.5  49.7  34218  290.55 0854.54
2009/04/23 14:52:45.9      48   -112    116    122    168 156.8  48.7  34228  290.74 0854.54
2009/04/23 14:52:46.0     -22     68     92     72    116 341.5  57.5  34228  290.72 0854.54
2009/04/23 14:52:46.1      -9     28    104     30    108 341.3  83.9  34226  290.70 0854.54
2009/04/23 14:52:46.2     -23    -45     90     51    103 207.2  68.8  34228  290.74 0854.54
2009/04/23 14:52:46.3     -35   -144    112    149    186 193.8  40.9  34214  290.48 0854.54
2009/04/23 14:52:46.4      -7    -96    103     97    141 184.5  52.1  34220  290.60 0854.54
2009/04/23 14:52:46.5     -10    -67    100     68    120 188.9  62.6  34222  290.62 0854.54
2009/04/23 14:52:46.6     -28    -15     61     33     69 241.1  68.9  34218  290.57 0854.54
2009/04/23 14:52:46.7     -18    -55    114     58    127 198.3  71.4  34206  290.36 0854.54
2009/04/23 14:52:46.8     -45   -134    190    142    237 198.7  59.6  34216  290.53 0854.54
2009/04/23 14:52:46.9     -20    -51    139     56    149 201.8  77.1  34216  290.53 0854.54
2009/04/23 14:52:47.0     -12   -104    150    105    183 187.1  61.8  34202  290.30 0854.63
2009/04/23 14:52:47.1     -32    -88     90     94    130 200.5  49.0  34208  290.38 0854.63
2009/04/23 14:52:47.2     -60    -81     64    102    120 216.5  35.5  34200  290.26 0854.63
2009/04/23 14:52:47.3    -143    -37     32    148    152 255.4  12.2  34194  290.14 0854.63
2009/04/23 14:52:47.4    -158     29     15    161    162 280.6   5.4  34194  290.16 0854.63
2009/04/23 14:52:47.5    -155    -31     18    159    161 258.5   6.5  34202  290.28 0854.63
2009/04/23 14:52:47.6     -63     54     46     84     95 310.9  31.4  34202  290.28 0854.63
2009/04/23 14:52:47.7     -76    137      4    157    158 331.0   1.8  34200  290.25 0854.63
2009/04/23 14:52:47.8    -165    166     46    235    240 315.2  11.1  34200  290.26 0854.63
2009/04/23 14:52:47.9    -204    247     17    321    322 320.3   3.1  34202  290.29 0854.63
2009/04/23 14:52:48.0    -139    279      5    312    313 333.5   1.0  34202  290.29 0854.63
2009/04/23 14:52:48.1    -180    224     25    288    290 321.3   5.0  34216  290.53 0854.63
2009/04/23 14:52:48.2    -137    142     42    198    203 315.9  12.2  34218  290.55 0854.63
2009/04/23 14:52:48.3     -25    183    -30    185    188 352.0  -9.3  34214  290.48 0854.63
2009/04/23 14:52:48.4     -78    140      7    161    162 331.0   2.8  34208  290.38 0854.63
2009/04/23 14:52:48.5     -38    187     27    191    194 348.5   8.2  34210  290.43 0854.63
2009/04/23 14:52:48.6      25    220    -28    222    224   6.5  -7.3  34208  290.40 0854.63
2009/04/23 14:52:48.7     -92    220    -25    239    241 337.3  -6.0  34202  290.27 0854.63
2009/04/23 14:52:48.8     -81    212     -5    227    228 339.1  -1.3  34202  290.30 0854.63
2009/04/23 14:52:48.9     -97    232     41    252    256 337.3   9.3  34200  290.26 0854.63
2009/04/23 14:52:49.0     -79    260    103    272    290 343.1  21.5  34204  290.31 0854.64
2009/04/23 14:52:49.1    -127    247     54    278    284 332.8  11.0  34206  290.36 0854.64
2009/04/23 14:52:49.2    -190    261     17    324    325 323.9   3.0  34214  290.48 0854.64
2009/04/23 14:52:49.3    -202    314     30    374    376 327.3   4.6  34210  290.43 0854.64
2009/04/23 14:52:49.4    -161    266    -81    312    323 328.8 -14.6  34226  290.70 0854.64
2009/04/23 14:52:49.5     -86    153    -35    176    180 330.6 -11.3  34212  290.47 0854.64
2009/04/23 14:52:49.6    -129    173     26    217    219 323.3   6.9  34208  290.40 0854.64
2009/04/23 14:52:49.7     -20     84     34     87     93 346.2  22.0  34192  290.13 0854.64
2009/04/23 14:52:49.8      12    165     66    166    178   4.4  23.0  34188  290.06 0854.64
2009/04/23 14:52:49.9      26    193     34    195    199   7.8  10.1  34202  290.30 0854.64
2009/04/23 14:52:50.0      42    193    -44    198    203  12.3 -12.6  34252  291.15 0854.64
2009/04/23 14:52:50.1      99    181    101    207    230  28.7  27.4  34282  291.64 0854.64
2009/04/23 14:52:50.2      89    179    -25    201    203  26.5  -7.3  34282  291.66 0854.64
2009/04/23 14:52:50.3     199    110     41    228    232  61.1  10.3  34264  291.33 0854.64
2009/04/23 14:52:50.4     152     84     70    174    187  60.9  23.0  34246  291.04 0854.64
2009/04/23 14:52:50.5     108     68    119    128    174  57.6  48.2  34250  291.11 0854.64
2009/04/23 14:52:50.6     155    200     99    254    272  37.8  22.3  34292  291.82 0854.64
2009/04/23 14:52:50.7     137    158    106    210    235  41.0  28.7  34262  291.32 0854.64
2009/04/23 14:52:50.8      58    173     57    183    192  18.7  17.3  34274  291.52 0854.64
2009/04/23 14:52:50.9      59    191    -31    200    203  17.2  -9.0  34276  291.55 0854.64
2009/04/23 14:52:51.0      48    238    -30    244    246  11.6  -7.2  34276  291.55 0854.57
2009/04/23 14:52:51.1      17    282    -25    283    285   3.6  -5.2  34276  291.55 0854.57
2009/04/23 14:52:51.2      51    249    -21    255    257  11.6  -4.9  34296  291.87 0854.57
2009/04/23 14:52:51.3      46    233    -21    238    239  11.3  -5.1  34284  291.67 0854.57
2009/04/23 14:52:51.4      60    240    -93    248    264  14.0 -25.9  34280  291.61 0854.57
2009/04/23 14:52:51.5      57    209    -61    217    225  15.4 -20.2  34290  291.77 0854.57
2009/04/23 14:52:51.6      -3    219    -33    220    223 359.1  -8.6  34286  291.72 0854.57
2009/04/23 14:52:51.7     125    277    -71    304    313  24.3 -13.1  34280  291.60 0854.57
2009/04/23 14:52:51.8     120    300    -83    324    335  21.9 -14.4  34272  291.47 0854.57
2009/04/23 14:52:51.9     161    248    -38    296    299  33.0  -7.3  34268  291.41 0854.57
2009/04/23 14:52:52.0     133    219      0    257    258  31.2   0.2  34274  291.50 0854.57
2009/04/23 14:52:52.1     130    191     45    232    237  34.3  11.1  34280  291.61 0854.57
2009/04/23 14:52:52.2      18    207     39    208    212   5.1  10.8  34288  291.76 0854.57
2009/04/23 14:52:52.3      60    155     36    167    171  21.4  12.2  34280  291.62 0854.57
2009/04/23 14:52:52.4     112    125      9    169    170  41.9   3.1  34282  291.64 0854.57
2009/04/23 14:52:52.5      81    116     38    142    148  35.2  15.2  34288  291.74 0854.57
2009/04/23 14:52:52.6      31    188      9    191    192   9.6   2.9  34308  292.10 0854.57
2009/04/23 14:52:52.7      -3    243     11    244    245 359.3   2.8  34288  291.73 0854.57
2009/04/23 14:52:52.8      74    250     13    261    262  16.7   2.9  34298  291.92 0854.57
2009/04/23 14:52:52.9      92    255    -54    272    278  20.0 -11.3  34294  291.85 0854.58
2009/04/23 14:52:53.0     111    229     16    255    256  25.9   3.6  34300  291.94 0854.58
2009/04/23 14:52:53.1      20    242      9    243    244   4.9   2.3  34304  292.01 0854.58
2009/04/23 14:52:53.2     -17    228     -5    229    230 355.5  -1.3  34306  292.06 0854.58
2009/04/23 14:52:53.3      23    213     25    215    217   6.3   6.9  34324  292.37 0854.58
2009/04/23 14:52:53.4     -12    272     13    273    274 357.4   2.9  34276  291.53 0854.58
2009/04/23 14:52:53.5     -16    219      9    220    221 355.8   2.5  34284  291.67 0854.58
2009/04/23 14:52:53.6      41    192     21    197    199  12.3   6.1  34296  291.89 0854.58
2009/04/23 14:52:53.7      29    172     27    175    178   9.6   9.0  34294  291.86 0854.58
2009/04/23 14:52:53.8      16    224    -14    225    226   4.2  -3.7  34304  292.01 0854.58
2009/04/23 14:52:53.9     112    190      8    221    222  30.5   2.1  34278  291.59 0854.58
2009/04/23 14:52:54.0      57    257     27    264    266  12.7   5.9  34294  291.84 0854.58
2009/04/23 14:52:54.1      66    200     89    211    229  18.5  24.3  34308  292.10 0854.58
2009/04/23 14:52:54.2     105    201     70    227    238  27.6  17.3  34334  292.53 0854.58
2009/04/23 14:52:54.3     138    182     97    229    248  37.2  24.2  34342  292.67 0854.58
2009/04/23 14:52:54.4     121    149     52    193    201  39.0  15.2  34354  292.86 0854.58
2009/04/23 14:52:54.5     125    120     85    174    193  46.2  27.8  34370  293.15 0854.58
2009/04/23 14:52:54.6     218    136     22    258    260  58.0   4.9  34298  291.92 0854.58
2009/04/23 14:52:54.7     137     91     68    165    178  56.3  23.4  34344  292.71 0854.58
2009/04/23 14:52:54.9     158    139    124    211    244  48.6  33.4  34402  293.69 0854.58
2009/04/23 14:52:54.9     174    135    109    221    246  52.2  28.2  34392  293.52 0854.59
2009/04/23 14:52:55.0     125    103    162    162    229  50.5  50.1  34388  293.46 0854.59
2009/04/23 14:52:55.1     166     74    169    182    248  65.8  47.9  34344  292.69 0854.59
2009/04/23 14:52:55.2     193    102    131    219    255  62.2  33.5  34340  292.64 0854.59
2009/04/23 14:52:55.3     195     95     77    218    232  64.0  19.4  34336  292.58 0854.59
2009/04/23 14:52:55.5     225    145    108    269    289  57.1  23.0  34370  293.13 0854.59
2009/04/23 14:52:55.6     218    124    125    252    281  60.3  28.2  34338  292.60 0854.59
2009/04/23 14:52:55.7     257    201    128    327    351  51.9  22.5  34278  291.59 0854.59
2009/04/23 14:52:55.8     206    213    113    297    317  44.1  21.8  34204  290.31 0854.59
2009/04/23 14:52:55.9     172    187     93    255    271  42.5  20.9  34208  290.39 0854.59
2009/04/23 14:52:56.0     161    116    111    199    227  54.1  31.4  34294  291.84 0854.59
2009/04/23 14:52:56.1     172    139     78    222    236  51.1  19.4  34284  291.67 0854.59
2009/04/23 14:52:56.2     194    113     70    225    236  59.8  17.4  34240  290.92 0854.59
2009/04/23 14:52:56.3     253     49    101    258    277  79.0  22.5  34252  291.12 0854.59
2009/04/23 14:52:56.4     271     38     80    274    286  82.0  16.3  34246  291.04 0854.59
2009/04/23 14:52:56.5     206     43     41    211    216  78.1  11.1  34260  291.26 0854.59
2009/04/23 14:52:56.6      76     76     42    108    115  45.0  22.5  34304  292.01 0854.59
2009/04/23 14:52:56.7     -24     38     25     46     52 327.5  30.3  34304  292.01 0854.59
2009/04/23 14:52:56.8     -94     31     11    100    101 288.6   6.5  34296  291.88 0854.59
2009/04/23 14:52:56.9    -154    -63     34    167    171 247.8  11.6  34282  291.66 0854.59
2009/04/23 14:52:57.0    -131   -107     20    170    172 230.7   6.7  34276  291.54 0854.60
2009/04/23 14:52:57.1    -102   -156     78    187    202 213.4  23.8  34282  291.64 0854.60
2009/04/23 14:52:57.2     -95   -180     99    204    226 207.9  27.3  34286  291.72 0854.60
2009/04/23 14:52:57.3    -101   -158     79    188    203 212.7  23.8  34312  292.15 0854.60
2009/04/23 14:52:57.4     -88   -150    107    175    205 210.5  34.4  34314  292.20 0854.60
2009/04/23 14:52:57.5    -142   -139     62    199    209 225.6  17.4  34322  292.32 0854.60
2009/04/23 14:52:57.6    -112   -140     74    180    194 218.7  23.6  34336  292.56 0854.60
2009/04/23 14:52:57.7    -124   -136     73    185    198 222.3  22.8  34322  292.34 0854.60
2009/04/23 14:52:57.8     -82   -145     64    167    178 209.6  22.0  34318  292.27 0854.60
2009/04/23 14:52:57.9     -73   -154     56    171    180 205.5  18.1  34318  292.27 0854.60
2009/04/23 14:52:58.0     -73   -169     55    185    194 203.4  16.6  34330  292.46 0854.63
2009/04/23 14:52:58.1     -76   -128     18    149    151 210.7   7.1  34334  292.52 0854.63
2009/04/23 14:52:58.2    -105   -105      8    149    150 224.9   3.3  34334  292.54 0854.63
2009/04/23 14:52:58.3    -135   -125     12    185    186 227.3   3.8  34324  292.37 0854.63
2009/04/23 14:52:58.4    -161    -90      9    185    186 240.7   2.9  34334  292.52 0854.63
2009/04/23 14:52:58.5    -161    -82     39    181    186 242.9  12.2  34322  292.32 0854.63
2009/04/23 14:52:58.6     -74    -79     83    109    137 223.3  41.6  34276  291.54 0854.63
2009/04/23 14:52:58.7     -84   -121     82    148    169 214.7  31.6  34238  290.91 0854.63
2009/04/23 14:52:58.8    -103   -162     87    193    211 212.6  25.9  34286  291.72 0854.63
2009/04/23 14:52:58.9    -136   -202    133    244    277 214.1  31.0  34324  292.35 0854.63
2009/04/23 14:52:59.0    -186   -186     61    264    272 225.1  13.1  34342  292.67 0854.63
2009/04/23 14:52:59.1    -177   -101      2    205    206 240.2   0.8  34354  292.86 0854.63
2009/04/23 14:52:59.2    -167   -101     -1    196    197 238.7  -0.5  34358  292.93 0854.63
2009/04/23 14:52:59.3    -144    -29    -63    147    159 258.6 -29.0  34312  292.15 0854.63
2009/04/23 14:52:59.4     -81    -58     89    100    133 234.5  46.4  34284  291.67 0854.63
2009/04/23 14:52:59.5      -9    -24    117     26    119 201.8  88.0  34290  291.79 0854.63
2009/04/23 14:52:59.6     -50     19     87     54    102 291.7  65.1  34286  291.72 0854.63
2009/04/23 14:52:59.7     -86     46     68     98    119 298.0  38.0  34290  291.77 0854.63
2009/04/23 14:52:59.8    -154      2     98    155    183 270.8  35.5  34298  291.93 0854.63
2009/04/23 14:52:59.9    -214     30     29    217    219 278.1   7.8  34360  292.98 0854.63
2009/04/23 14:53:00.0    -182     32     13    185    186 280.1   4.2  34342  292.66 0854.60
2009/04/23 14:53:00.1    -210     99    -12    233    234 295.2  -3.1  34344  292.69 0854.60
2009/04/23 14:53:00.2    -138     70     60    155    166 297.1  22.0  34314  292.20 0854.60
2009/04/23 14:53:00.3    -177     21     52    179    187 277.0  16.3  34310  292.12 0854.60
2009/04/23 14:53:00.4    -127     39    -17    133    135 287.3  -7.3  34322  292.32 0854.60
2009/04/23 14:53:00.5    -127     39    -42    133    140 287.3 -17.5  34304  292.03 0854.60
2009/04/23 14:53:00.6    -105     34    -39    111    118 288.2 -19.7  34306  292.05 0854.60
2009/04/23 14:53:00.7    -130    -19    -56    132    143 261.6 -28.5  34308  292.08 0854.60
2009/04/23 14:53:00.8     -98      0    -35     99    106 270.4 -19.7  34314  292.20 0854.60
2009/04/23 14:53:00.9     -86      2    -49     87     99 271.7 -36.3  34310  292.12 0854.60
2009/04/23 14:53:01.0     -84    -22    -55     88    103 254.9 -39.9  34280  291.62 0854.60
2009/04/23 14:53:01.1    -158      1    -54    159    169 270.6 -18.9  34284  291.67 0854.60
2009/04/23 14:53:01.2    -166    -10   -119    167    205 266.3 -43.5  34258  291.23 0854.60
2009/04/23 14:53:01.3    -142    -60    -90    155    179 246.9 -37.1  34234  290.84 0854.60
2009/04/23 14:53:01.4    -130     -6    -79    131    152 267.0 -38.8  34234  290.84 0854.60
2009/04/23 14:53:01.5    -150      9    -55    151    160 273.5 -25.1  34244  290.99 0854.60
2009/04/23 14:53:01.6    -162    -48    -76    170    186 253.4 -30.3  34252  291.13 0854.60
2009/04/23 14:53:01.7    -158    -16    -57    159    168 263.9 -24.8  34262  291.32 0854.60
2009/04/23 14:53:01.8    -163      0     -6    164    165 270.0  -2.2  34266  291.38 0854.60
2009/04/23 14:53:01.9    -133    -12     43    134    141 264.8  17.9  34266  291.37 0854.60
2009/04/23 14:53:02.0    -131      1     58    132    144 270.8  25.2  34280  291.62 0854.61
2009/04/23 14:53:02.1    -121     69     38    140    146 299.8  15.3  34286  291.71 0854.61
2009/04/23 14:53:02.2    -114     32     18    119    121 285.9   8.9  34294  291.84 0854.61
2009/04/23 14:53:02.3    -113     41     -4    121    122 289.9  -2.2  34292  291.83 0854.61
2009/04/23 14:53:02.4    -120     76      4    143    144 302.4   1.8  34296  291.88 0854.61
2009/04/23 14:53:02.5    -104     67    -12    125    126 302.9  -5.6  34294  291.86 0854.61
2009/04/23 14:53:02.6     -87     71     -9    113    114 309.5  -4.6  34286  291.72 0854.61
2009/04/23 14:53:02.7     -84    101    -31    132    136 320.4 -13.3  34288  291.76 0854.61
2009/04/23 14:53:02.8     -99     69      0    121    122 305.1  -0.3  34296  291.88 0854.61
2009/04/23 14:53:02.9     -41    103    -34    111    117 338.2 -17.0  34294  291.84 0854.61
2009/04/23 14:53:03.0     -48    133      7    142    143 340.0   2.9  34290  291.79 0854.61
2009/04/23 14:53:03.1     -16     59     58     62     84 344.9  48.5  34290  291.77 0854.61
2009/04/23 14:53:03.2     -81     26     65     86    107 288.2  40.7  34288  291.76 0854.61
2009/04/23 14:53:03.3    -171     63     95    183    206 290.4  29.3  34284  291.67 0854.61
2009/04/23 14:53:03.4    -121     23    116    124    169 281.0  47.9  34292  291.83 0854.61
2009/04/23 14:53:03.5     -70     29     50     76     90 292.6  36.5  34286  291.71 0854.61
2009/04/23 14:53:03.6     -60    -50     50     79     93 230.5  35.5  34298  291.93 0854.61
2009/04/23 14:53:03.7     -50    -42     44     66     79 230.4  37.0  34302  292.00 0854.61
2009/04/23 14:53:03.8     -37    -40     66     55     85 223.2  55.8  34312  292.15 0854.61
2009/04/23 14:53:03.9     -57    -62     76     85    114 222.8  46.9  34310  292.13 0854.61
2009/04/23 14:53:04.0    -101    -73     65    126    141 234.0  29.3  34278  291.59 0854.61
2009/04/23 14:53:04.1    -116    -56     44    129    137 244.2  18.9  34270  291.43 0854.61
2009/04/23 14:53:04.2     -74    -78     29    108    112 223.7  15.3  34256  291.20 0854.61
2009/04/23 14:53:04.3    -113    -82     38    140    146 234.0  15.3  34248  291.06 0854.61
2009/04/23 14:53:04.4    -103    -41     30    112    117 248.2  15.3  34250  291.09 0854.61
2009/04/23 14:53:04.5     -81    -23     16     85     87 254.1  11.1  34250  291.09 0854.61
2009/04/23 14:53:04.6     -64    -25      3     69     70 248.2   2.9  34250  291.11 0854.61
2009/04/23 14:53:04.7     -58    -39      3     71     72 235.8   2.9  34246  291.04 0854.61
2009/04/23 14:53:04.8     -58    -48     -6     76     77 230.4  -5.2  34242  290.96 0854.61
2009/04/23 14:53:04.9     -51    -54    -20     75     78 223.2 -15.5  34256  291.21 0854.61
2009/04/23 14:53:05.0     -19    -94      7     97     98 191.6   4.4  34244  291.01 0854.61
2009/04/23 14:53:05.1     -18   -111     -2    113    114 189.3  -1.2  34244  290.99 0854.61
2009/04/23 14:53:05.2      19   -108     11    110    111 169.8   5.9  34254  291.18 0854.61
2009/04/23 14:53:05.3     -22   -116     22    119    122 191.1  10.6  34230  290.75 0854.61
2009/04/23 14:53:05.4     -30   -147     73    151    167 191.6  27.4  34242  290.96 0854.61
2009/04/23 14:53:05.5      11   -145     61    146    158 175.6  23.8  34252  291.15 0854.61
2009/04/23 14:53:05.6      41   -152     87    158    180 164.9  31.3  34250  291.09 0854.61
2009/04/23 14:53:05.7      13   -114    116    115    163 173.3  49.9  34252  291.13 0854.61
2009/04/23 14:53:05.8      47    -56    100     74    124 140.4  60.0  34264  291.35 0854.61
2009/04/23 14:53:05.9      43    -45     75     63     97 136.7  55.8  34278  291.57 0854.61
2009/04/23 14:53:06.0      -7    -83     61     84    103 185.3  39.5  34268  291.42 0854.61
2009/04/23 14:53:06.1     -40   -133     -3    140    141 197.0  -1.3  34242  290.96 0854.61
2009/04/23 14:53:06.2     -79   -203     -4    219    220 201.4  -1.2  34242  290.96 0854.61
2009/04/23 14:53:06.3     -91   -211     10    231    232 203.4   2.5  34242  290.96 0854.61
2009/04/23 14:53:06.4     -89   -199     25    219    221 204.1   6.7  34234  290.84 0854.61
2009/04/23 14:53:06.5     -62   -172     35    183    187 200.0  11.0  34234  290.82 0854.61
2009/04/23 14:53:06.6      -7   -182     36    183    187 182.5  11.1  34238  290.89 0854.61
2009/04/23 14:53:06.7     -20   -187     67    189    200 186.2  20.2  34242  290.96 0854.61
2009/04/23 14:53:06.8     -53   -203     10    210    211 194.7   2.8  34240  290.94 0854.61
2009/04/23 14:53:06.9     -74   -223     -1    236    237 198.5  -0.3  34236  290.85 0854.61
2009/04/23 14:53:07.0     -55   -169      1    178    179 198.3   0.5  34240  290.92 0854.61
2009/04/23 14:53:07.1     -51   -179     23    187    189 196.0   7.2  34234  290.84 0854.61
2009/04/23 14:53:07.2     -29   -195     43    198    203 188.5  12.4  34236  290.86 0854.61
2009/04/23 14:53:07.3     -66   -189      9    201    202 199.4   2.8  34248  291.06 0854.61
2009/04/23 14:53:07.4     -68   -203     25    215    217 198.7   6.7  34248  291.06 0854.61
2009/04/23 14:53:07.5     -61   -181     46    192    198 198.7  13.7  34250  291.11 0854.61
2009/04/23 14:53:07.6     -94   -161     66    187    198 210.5  20.2  34276  291.55 0854.61
2009/04/23 14:53:07.7    -101   -188     41    214    219 208.3  11.0  34274  291.50 0854.61
2009/04/23 14:53:07.8    -108   -195     30    224    227 209.0   7.8  34272  291.47 0854.61
2009/04/23 14:53:07.9    -154   -117      4    194    195 232.9   1.2  34266  291.38 0854.61
2009/04/23 14:53:08.0     -81    -90     47    122    130 221.9  22.0  34276  291.55 0854.61
2009/04/23 14:53:08.1     -18   -156    107    158    190 186.7  37.3  34304  292.01 0854.61
2009/04/23 14:53:08.2    -112   -139    125    179    218 218.7  38.6  34298  291.93 0854.61
2009/04/23 14:53:08.3    -149   -216    150    263    302 214.7  32.3  34318  292.24 0854.61
2009/04/23 14:53:08.4    -124   -182     43    221    226 214.3  11.1  34318  292.27 0854.61
2009/04/23 14:53:08.5    -109   -177    117    209    239 211.6  31.6  34326  292.39 0854.61
2009/04/23 14:53:08.6    -226   -117     35    255    258 242.5   8.0  34280  291.61 0854.61
2009/04/23 14:53:08.7    -217   -146     41    262    266 236.0   8.9  34300  291.94 0854.61
2009/04/23 14:53:08.8    -263   -168      5    313    314 237.5   1.0  34308  292.09 0854.61
2009/04/23 14:53:08.9    -183    -60      1    193    194 251.8   0.5  34280  291.62 0854.61
2009/04/23 14:53:09.0    -138    -58     57    150    160 246.9  21.5  34290  291.79 0854.61
2009/04/23 14:53:09.1    -120    -51    105    131    167 246.9  43.0  34322  292.32 0854.61
2009/04/23 14:53:09.2    -150    -51    142    159    213 250.9  46.4  34342  292.66 0854.61
2009/04/23 14:53:09.3    -118    -10     87    119    147 264.8  39.7  34330  292.47 0854.61
2009/04/23 14:53:09.4     -18    -54    155     58    165 198.7  79.2  34344  292.69 0854.61
2009/04/23 14:53:09.5      -3     -8    113      9    113 205.4  90.0  34362  293.02 0854.61
2009/04/23 14:53:09.6     -47    -67    122     83    147 215.2  62.7  34368  293.12 0854.61
2009/04/23 14:53:09.7     -40    -77    105     87    136 207.6  56.3  34362  293.00 0854.61
2009/04/23 14:53:09.8     -44    -17     70     48     84 248.3  62.6  34366  293.07 0854.61
2009/04/23 14:53:09.9     -37     -2     44     38     58 265.7  54.3  34366  293.09 0854.61
2009/04/23 14:53:10.0      24    -36     52     44     68 145.7  55.4  34376  293.24 0854.58
2009/04/23 14:53:10.1     -34   -103    138    109    175 198.3  57.7  34352  292.83 0854.58
2009/04/23 14:53:10.2     -66   -139    126    155    199 205.5  43.5  34306  292.06 0854.58
2009/04/23 14:53:10.3     -62   -164    126    176    216 200.9  39.5  34290  291.77 0854.58
2009/04/23 14:53:10.4      -9   -116    143    117    184 184.5  56.4  34320  292.29 0854.58
2009/04/23 14:53:10.5       7    -97    125     98    158 175.5  58.2  34300  291.96 0854.58
2009/04/23 14:53:10.6      64   -116    103    133    168 151.0  42.0  34270  291.45 0854.58
2009/04/23 14:53:10.7     125    -79    150    149    211 122.4  50.1  34314  292.20 0854.58
2009/04/23 14:53:10.8      62    -45     96     77    123 126.0  56.9  34324  292.35 0854.58
2009/04/23 14:53:10.9      86    -16     94     88    128 101.0  52.1  34304  292.01 0854.58
2009/04/23 14:53:11.0       7     18     75     20     77  21.8  84.9  34348  292.78 0854.58
2009/04/23 14:53:11.1      69     43     11     82     83  57.6   8.0  34346  292.73 0854.58
2009/04/23 14:53:11.2     -10     59     85     60    104 350.2  61.5  34322  292.34 0854.58
2009/04/23 14:53:11.3      57    -35     83     68    107 121.5  56.4  34266  291.37 0854.58
2009/04/23 14:53:11.4     -15    -94    117     96    151 189.3  56.4  34242  290.96 0854.58
2009/04/23 14:53:11.5      54    -63    129     84    153 139.5  64.6  34256  291.20 0854.58
2009/04/23 14:53:11.6     144    -85    110    168    200 120.7  36.5  34252  291.15 0854.58
2009/04/23 14:53:11.7     117    -56    113    130    172 115.8  45.6  34260  291.28 0854.58
2009/04/23 14:53:11.8      59    -24     93     64    112 112.6  62.1  34270  291.45 0854.58
2009/04/23 14:53:11.9      59    -43     86     74    113 125.9  54.8  34276  291.55 0854.58
2009/04/23 14:53:12.0       6    -63     83     64    104 173.8  59.0  34262  291.30 0854.60
2009/04/23 14:53:12.1       5     32     64     33     72   9.8  71.9  34272  291.47 0854.60
2009/04/23 14:53:12.2     -23      7     75     25     79 288.6  81.0  34280  291.62 0854.60
2009/04/23 14:53:12.3     -27      2     54     28     60 276.1  69.8  34288  291.74 0854.60
2009/04/23 14:53:12.4     -47    -18     86     51     99 248.3  66.8  34300  291.95 0854.60
2009/04/23 14:53:12.5     -41     29     62     51     80 306.0  56.4  34294  291.86 0854.60
2009/04/23 14:53:12.6     -32     95     52    101    113 341.3  28.7  34298  291.93 0854.60
2009/04/23 14:53:12.7     -58    121     31    135    139 334.1  13.2  34304  292.03 0854.60
2009/04/23 14:53:12.8     -35    115     17    121    123 343.1   8.0  34304  292.01 0854.60
2009/04/23 14:53:12.9     -41    109      5    117    118 339.1   2.9  34304  292.01 0854.60
2009/04/23 14:53:13.0     -30     74      1     81     82 337.7   0.8  34306  292.06 0854.60
2009/04/23 14:53:13.1     -37     89     15     97     99 337.3   9.0  34308  292.10 0854.60
2009/04/23 14:53:13.2      13     87     -3     89     90   8.9  -2.2  34316  292.22 0854.60
2009/04/23 14:53:13.3      57     93    -37    110    116  31.6 -23.6  34310  292.13 0854.60
2009/04/23 14:53:13.4      82     75     21    112    115  47.8  11.0  34312  292.17 0854.60
2009/04/23 14:53:13.5      98    119    -31    155    159  39.6 -11.3  34302  291.98 0854.60
2009/04/23 14:53:13.6     135    186    -26    231    233  36.0  -6.5  34294  291.86 0854.60
2009/04/23 14:53:13.7     107    168     81    200    215  32.6  23.1  34306  292.06 0854.60
2009/04/23 14:53:13.8      78    166     74    184    198  25.2  23.0  34298  291.91 0854.60
2009/04/23 14:53:13.9      94    162     72    188    201  30.3  22.0  34298  291.93 0854.60
2009/04/23 14:53:14.0      99    170     80    198    213  30.3  23.0  34302  291.98 0854.61
2009/04/23 14:53:14.1     100    149     67    180    192  34.1  21.3  34314  292.18 0854.61
2009/04/23 14:53:14.2      88    148     53    173    182  30.7  17.1  34314  292.20 0854.61
2009/04/23 14:53:14.3     132     82     -6    156    157  58.0  -2.2  34348  292.76 0854.61
2009/04/23 14:53:14.4      70     65      7     96     97  46.9   4.4  34344  292.69 0854.61
2009/04/23 14:53:14.5      -7    128     39    129    135 356.9  16.8  34316  292.22 0854.61
2009/04/23 14:53:14.6     -49    148    -16    157    158 341.5  -6.0  34300  291.95 0854.61
2009/04/23 14:53:14.7     -10    136     15    137    138 355.6   6.5  34296  291.89 0854.61
2009/04/23 14:53:14.8      31    162     43    166    172  11.1  14.7  34346  292.73 0854.61
2009/04/23 14:53:14.9       2    182     31    183    186   0.7   9.9  34320  292.29 0854.61
2009/04/23 14:53:15.0     -15    170     60    171    182 354.7  19.4  34332  292.49 0854.61
2009/04/23 14:53:15.1      -7    151     54    152    161 357.3  20.4  34342  292.68 0854.61
2009/04/23 14:53:15.2       2    125     20    126    128   1.0   9.0  34332  292.51 0854.61
2009/04/23 14:53:15.3      33    163     58    167    177  11.6  19.2  34314  292.20 0854.61
2009/04/23 14:53:15.4      14    190     54    191    199   4.4  16.0  34306  292.06 0854.61
2009/04/23 14:53:15.5      -9    196     36    197    201 357.3  10.6  34300  291.96 0854.61
2009/04/23 14:53:15.6      30    216     59    219    227   8.1  15.2  34304  292.03 0854.61
2009/04/23 14:53:15.7      45    214     85    219    234  12.0  22.3  34302  292.00 0854.61
2009/04/23 14:53:15.8       8    265     51    266    271   1.8  11.0  34300  291.94 0854.61
2009/04/23 14:53:15.9      25    281     47    283    287   5.1   9.5  34302  291.99 0854.61
2009/04/23 14:53:16.0      -8    242     -4    243    244 358.0  -1.1  34300  291.96 0854.63
2009/04/23 14:53:16.1     -75    237     68    249    259 342.4  15.3  34316  292.21 0854.63
2009/04/23 14:53:16.2     -57    212     94    220    239 344.9  24.6  34316  292.21 0854.63
2009/04/23 14:53:16.3      83    183    100    202    225  24.5  28.0  34312  292.15 0854.63
2009/04/23 14:53:16.4      98    184    139    209    251  28.1  36.5  34344  292.69 0854.63
2009/04/23 14:53:16.5     204    134    129    245    276  56.7  30.1  34464  294.75 0854.63
2009/04/23 14:53:16.6     169    176    168    245    297  43.9  37.6  34430  294.16 0854.63
2009/04/23 14:53:16.7     138    290    174    322    366  25.5  30.8  34382  293.35 0854.63
2009/04/23 14:53:16.8     120    512    161    526    551  13.3  17.0  34224  290.67 0854.63
2009/04/23 14:53:16.9     248    621    190    670    697  21.8  15.9  34304  292.01 0854.63
2009/04/23 14:53:17.0     301    546     42    624    626  28.9   3.9  34366  293.07 0854.63
2009/04/23 14:53:17.1     368    505     12    626    627  36.1   1.1  34182  289.94 0854.63
2009/04/23 14:53:17.2     282    467     93    546    554  31.2   9.7  34198  290.21 0854.63
2009/04/23 14:53:17.3     196    463     20    503    504  23.0   2.3  34184  289.98 0854.63
2009/04/23 14:53:17.4     103    548     93    558    566  10.7   9.5  34208  290.38 0854.63
2009/04/23 14:53:17.5      52    583    195    586    618   5.2  18.4  34210  290.41 0854.63
2009/04/23 14:53:17.6      94    526    204    535    572  10.2  22.0  34188  290.06 0854.63
2009/04/23 14:53:17.7      42    494    187    496    530   5.0  21.6  34208  290.40 0854.63
2009/04/23 14:53:17.8    -117    370    122    389    408 342.5  17.5  34212  290.47 0854.63
2009/04/23 14:53:17.9    -286    282   -144    402    428 314.6 -19.7  34202  290.28 0854.63
2009/04/23 14:53:18.0    -236    445   -101    504    515 332.0 -11.3  34208  290.37 0854.60
2009/04/23 14:53:18.1    -170    412    -39    446    448 337.6  -5.1  34194  290.14 0854.60
2009/04/23 14:53:18.2    -347    319    -74    472    478 312.6  -9.0  34170  289.74 0854.60
2009/04/23 14:53:18.3    -299    308    -92    430    440 315.8 -12.2  34172  289.78 0854.60
2009/04/23 14:53:18.4    -370    246   -121    445    462 303.6 -15.2  34176  289.85 0854.60
2009/04/23 14:53:18.5    -428    147   -163    453    482 289.1 -19.8  34182  289.95 0854.60
2009/04/23 14:53:18.6    -451    110   -148    465    488 283.8 -17.7  34196  290.17 0854.60
2009/04/23 14:53:18.7    -369     82    -48    379    383 282.6  -7.2  34190  290.08 0854.60
2009/04/23 14:53:18.8    -371    231    -37    438    440 301.9  -4.9  34224  290.65 0854.60
2009/04/23 14:53:18.9    -294    187     20    349    350 302.4   3.3  34192  290.13 0854.60
2009/04/23 14:53:19.0    -228    232     54    326    331 315.6   9.5  34190  290.08 0854.62
2009/04/23 14:53:19.1    -121    277    162    303    343 336.4  30.5  34212  290.45 0854.62
2009/04/23 14:53:19.2     -59    295    145    301    334 348.5  27.4  34246  291.04 0854.62
2009/04/23 14:53:19.3      69    404     79    411    419   9.8  11.0  34192  290.12 0854.62
2009/04/23 14:53:19.4     207    328     64    388    394  32.3   9.5  34192  290.13 0854.62
2009/04/23 14:53:19.5     180    260    110    317    336  34.7  19.2  34192  290.13 0854.62
2009/04/23 14:53:19.6     149    256    103    297    315  30.3  19.2  34194  290.15 0854.62
2009/04/23 14:53:19.7     210    341     34    401    403  31.6   4.9  34244  291.01 0854.62
2009/04/23 14:53:19.8     166    327     45    367    370  27.0   7.1  34250  291.11 0854.62
2009/04/23 14:53:19.9      51    253    179    259    314  11.6  38.0  34258  291.22 0854.62
2009/04/23 14:53:20.0      51    285    173    290    337  10.2  33.6  34278  291.56 0854.62
2009/04/23 14:53:20.1       1    280    221    281    357   0.2  42.1  34278  291.59 0854.62
2009/04/23 14:53:20.2     -11    166    198    167    259 356.0  55.8  34294  291.85 0854.62
2009/04/23 14:53:20.3      46     90    131    102    166  27.2  58.2  34268  291.42 0854.62
2009/04/23 14:53:20.4      -6    113    146    114    185 356.9  58.2  34276  291.54 0854.62
2009/04/23 14:53:20.5       0     58    112     59    126 359.1  70.4  34286  291.71 0854.62
2009/04/23 14:53:20.6     -59    155    144    166    219 339.1  45.6  34312  292.17 0854.62
2009/04/23 14:53:20.7     -88    215    113    233    258 337.7  27.8  34318  292.24 0854.62
2009/04/23 14:53:20.8    -104    204     64    230    239 332.9  15.6  34300  291.94 0854.62
2009/04/23 14:53:20.9    -132    206     12    246    247 327.3   2.9  34274  291.50 0854.62
2009/04/23 14:53:21.0    -117    201    -46    233    238 329.7 -11.3  34278  291.56 0854.62
2009/04/23 14:53:21.2     -60    211    -19    220    221 344.0  -5.1  34276  291.54 0854.62
2009/04/23 14:53:21.2     -43    214    -57    219    227 348.4 -14.7  34258  291.23 0854.62
2009/04/23 14:53:21.3     -33    122     43    127    135 344.9  18.9  34284  291.69 0854.62
2009/04/23 14:53:21.5     -81    131     81    155    174 328.4  29.8  34268  291.42 0854.62
2009/04/23 14:53:21.5       1    145     82    146    167   0.5  31.9  34276  291.55 0854.62
2009/04/23 14:53:21.6      55    224     87    231    246  14.0  21.7  34266  291.36 0854.62
2009/04/23 14:53:21.8      28    197     82    200    216   8.2  23.4  34300  291.96 0854.62
2009/04/23 14:53:21.9      52    193     70    200    213  15.2  19.4  34256  291.20 0854.62
2009/04/23 14:53:22.0      36    236    105    239    261   8.9  25.2  34250  291.09 0854.62
2009/04/23 14:53:22.1       0    183     66    184    195   0.0  20.4  34254  291.18 0854.62
2009/04/23 14:53:22.2       3    130     99    131    164   1.4  40.9  34242  290.98 0854.62
2009/04/23 14:53:22.3      74     29    101     80    128  68.3  57.5  34220  290.60 0854.62
2009/04/23 14:53:22.4      42     41    120     59    133  46.0  72.4  34224  290.65 0854.62
2009/04/23 14:53:22.5      41     34    102     54    115  50.5  69.8  34242  290.96 0854.62
2009/04/23 14:53:22.6      63     63    118     90    148  45.0  58.5  34246  291.04 0854.62
2009/04/23 14:53:22.7      93     83    138    126    186  48.2  52.7  34262  291.30 0854.62
2009/04/23 14:53:22.8      50     33    142     61    154  56.7  75.0  34264  291.35 0854.62
2009/04/23 14:53:22.9      90    124    116    154    192  36.1  40.7  34256  291.20 0854.62
2009/04/23 14:53:23.0      42    118    110    126    167  20.0  45.6  34286  291.71 0854.59
2009/04/23 14:53:23.1      -4     73     66     74     99 356.4  46.9  34290  291.77 0854.59
2009/04/23 14:53:23.2     -24     17     63     30     69 306.0  72.9  34286  291.71 0854.59
2009/04/23 14:53:23.3     -36    -12     32     38     49 251.4  43.8  34290  291.79 0854.59
2009/04/23 14:53:23.4     -24     10     22     27     34 293.5  43.8  34290  291.79 0854.59
2009/04/23 14:53:23.5       0     82     28     83     88   0.0  18.9  34300  291.96 0854.59
2009/04/23 14:53:23.6       0     92     -2     93     94   0.5  -1.8  34298  291.91 0854.59
2009/04/23 14:53:23.7     -23     77     15     81     83 343.5  11.1  34288  291.74 0854.59
2009/04/23 14:53:23.8      13     65     34     67     75  11.6  28.2  34300  291.96 0854.59
2009/04/23 14:53:23.9      58     22     24     63     67  69.2  21.0  34314  292.18 0854.59
2009/04/23 14:53:24.0      16     49     24     52     57  18.5  27.1  34318  292.25 0854.59
2009/04/23 14:53:24.1     -44     93     36    104    111 334.5  19.4  34290  291.77 0854.59
2009/04/23 14:53:24.2     -54     58     35     80     87 316.7  24.6  34290  291.77 0854.59
2009/04/23 14:53:24.3     -83     78     39    115    122 313.1  18.9  34296  291.88 0854.59
2009/04/23 14:53:24.4     -56     31      5     65     66 298.8   4.9  34304  292.01 0854.59
2009/04/23 14:53:24.5       1     73     42     74     85   0.9  32.4  34320  292.30 0854.59
2009/04/23 14:53:24.6      -1     58     31     59     66 358.2  30.3  34342  292.68 0854.59
2009/04/23 14:53:24.7     -58     74     61     95    112 321.7  35.6  34356  292.90 0854.59
2009/04/23 14:53:24.8     -76     85     90    115    146 318.1  41.7  34344  292.71 0854.59
2009/04/23 14:53:24.9     -61     70    113     94    146 319.0  56.3  34358  292.93 0854.59
2009/04/23 14:53:25.0     -27     26     88     38     95 313.3  75.0  34354  292.86 0854.54
2009/04/23 14:53:25.1       0    -10     57     11     58 182.7  89.1  34344  292.71 0854.54
2009/04/23 14:53:25.2      -5      2     62      6     62 295.3  90.0  34328  292.44 0854.54
2009/04/23 14:53:25.3      39   -118    124    125    176 161.5  50.5  34320  292.30 0854.54
2009/04/23 14:53:25.4     -49    -46    123     68    140 226.9  68.8  34322  292.34 0854.54
2009/04/23 14:53:25.5     -55   -119    110    132    171 204.9  44.1  34304  292.03 0854.54
2009/04/23 14:53:25.6     -55    -41    100     69    121 233.1  62.6  34304  292.03 0854.54
2009/04/23 14:53:25.7      40     90    103     99    142  24.1  51.2  34302  291.98 0854.54
2009/04/23 14:53:25.8     -63     20     57     67     87 288.2  44.8  34300  291.96 0854.54
2009/04/23 14:53:25.9     -66     58     27     89     94 311.3  17.3  34302  292.00 0854.54
2009/04/23 14:53:26.0    -102     48     43    113    120 295.2  22.0  34298  291.93 0854.54
2009/04/23 14:53:26.1    -110     82     12    138    139 306.9   5.0  34300  291.96 0854.54
2009/04/23 14:53:26.2      -8    -59     45     60     75 188.0  39.7  34286  291.71 0854.54
2009/04/23 14:53:26.3     -86    -95    156    129    202 221.9  56.3  34306  292.05 0854.54
2009/04/23 14:53:26.4    -160   -140    131    213    250 228.9  34.5  34302  291.99 0854.54
2009/04/23 14:53:26.5     -61   -218    235    227    326 195.8  51.1  34296  291.87 0854.54
2009/04/23 14:53:26.6     -81   -284    205    296    360 196.0  37.9  34288  291.76 0854.54
2009/04/23 14:53:26.7    -101   -194     78    219    232 207.6  20.2  34282  291.66 0854.54
2009/04/23 14:53:26.8     -96   -182    -65    206    217 207.9 -17.6  34288  291.74 0854.54
2009/04/23 14:53:26.9    -242   -137    -51    279    284 240.5 -10.5  34302  291.97 0854.54
2009/04/23 14:53:27.0    -207   -280    -13    349    350 216.4  -2.2  34278  291.57 0854.57
2009/04/23 14:53:27.1    -182   -267    -37    324    327 214.3  -6.6  34268  291.41 0854.57
2009/04/23 14:53:27.2    -143   -250     44    289    293 209.8   8.8  34296  291.87 0854.57
2009/04/23 14:53:27.3    -170   -258     15    310    311 213.4   2.9  34272  291.48 0854.57
2009/04/23 14:53:27.4    -164   -185     48    248    253 221.7  11.1  34268  291.39 0854.57
2009/04/23 14:53:27.5    -189   -221     48    292    296 220.5   9.3  34260  291.27 0854.57
2009/04/23 14:53:27.6      12   -348     76    349    358 178.0  12.3  34262  291.30 0854.57
2009/04/23 14:53:27.7     -43   -359     85    362    372 186.9  13.2  34250  291.10 0854.57
2009/04/23 14:53:27.8       2   -345     75    346    355 179.5  12.3  34224  290.67 0854.57
2009/04/23 14:53:27.9     -22   -373    120    374    393 183.5  17.8  34194  290.16 0854.57
2009/04/23 14:53:28.0     -17   -359     89    360    371 182.8  13.9  34212  290.47 0854.57
2009/04/23 14:53:28.1      52   -463    163    466    494 173.5  19.3  34208  290.39 0854.57
2009/04/23 14:53:28.2      94   -412    151    423    449 167.1  20.6  34190  290.09 0854.57
2009/04/23 14:53:28.3      45   -373    136    376    399 173.0  20.7  34180  289.91 0854.57
2009/04/23 14:53:28.4      99   -273    184    291    344 159.9  35.5  34206  290.34 0854.57
2009/04/23 14:53:28.5      57   -236    212    243    322 166.4  45.6  34204  290.32 0854.57
2009/04/23 14:53:28.6      69   -278    173    287    335 166.0  34.0  34196  290.19 0854.57
2009/04/23 14:53:28.7      17   -332    164    333    371 177.0  28.1  34206  290.35 0854.57
2009/04/23 14:53:28.8    -107   -347    114    364    382 197.2  17.4  34226  290.69 0854.57
2009/04/23 14:53:28.9    -229   -358     36    426    428 212.6   4.9  34220  290.60 0854.57
2009/04/23 14:53:29.0    -279   -296     96    408    420 223.3  13.2  34226  290.68 0854.67
2009/04/23 14:53:29.1    -165   -284     94    329    343 210.1  16.0  34218  290.54 0854.67
2009/04/23 14:53:29.2    -103   -400     39    414    416 194.5   5.5  34220  290.60 0854.67
2009/04/23 14:53:29.3     -66   -427    142    433    456 188.9  18.2  34218  290.55 0854.67
2009/04/23 14:53:29.4    -108   -328    -94    346    359 198.3 -15.2  34218  290.54 0854.67
2009/04/23 14:53:29.5    -121   -267    -31    294    296 204.5  -6.1  34218  290.54 0854.67
2009/04/23 14:53:29.6    -119   -190    -34    225    228 212.1  -8.8  34212  290.47 0854.67
2009/04/23 14:53:29.7     -88   -140    -37    166    171 212.3 -12.6  34212  290.47 0854.67
2009/04/23 14:53:29.8     -81   -118     39    144    150 214.3  15.3  34218  290.55 0854.67
2009/04/23 14:53:29.9      79   -133     -6    155    156 149.3  -2.2  34212  290.47 0854.67
2009/04/23 14:53:30.0      67   -178     62    191    202 159.3  18.1  34220  290.60 0854.67
2009/04/23 14:53:30.1      42   -192     58    197    206 167.5  16.6  34224  290.65 0854.67
2009/04/23 14:53:30.2      36   -164     83    168    187 167.5  27.8  34226  290.70 0854.67
2009/04/23 14:53:30.3      40   -163     97    169    194 166.0  32.7  34234  290.84 0854.67
2009/04/23 14:53:30.4      25   -188     99    190    214 172.4  29.5  34232  290.81 0854.67
2009/04/23 14:53:30.5      44   -219     78    224    238 168.7  19.2  34222  290.63 0854.67
2009/04/23 14:53:30.6      54   -277     -2    283    284 168.9  -0.5  34218  290.56 0854.67
2009/04/23 14:53:30.7      74   -316     52    325    330 166.7   9.2  34220  290.58 0854.67
2009/04/23 14:53:30.8     201   -242     99    315    331 140.3  17.5  34216  290.51 0854.67
2009/04/23 14:53:30.9     307   -193    140    363    389 122.1  22.2  34216  290.52 0854.67
2009/04/23 14:53:31.0     245   -300     86    388    398 140.8  12.5  34212  290.47 0854.62
2009/04/23 14:53:31.1     301   -250     20    392    393 129.6   3.0  34222  290.62 0854.62
2009/04/23 14:53:31.2     328   -221     56    396    401 124.1   8.1  34218  290.57 0854.62
2009/04/23 14:53:31.3     306   -160    115    346    365 117.7  18.4  34228  290.71 0854.62
2009/04/23 14:53:31.4     295   -100    125    312    336 108.8  23.0  34224  290.66 0854.62
2009/04/23 14:53:31.5     318   -127    120    343    363 111.9  20.1  34228  290.71 0854.62
2009/04/23 14:53:31.6     350   -147    173    380    417 112.8  26.2  34222  290.63 0854.62
2009/04/23 14:53:31.7     369   -125    121    390    409 108.8  17.3  34222  290.61 0854.62
2009/04/23 14:53:31.8     327   -170    101    369    383 117.5  15.3  34218  290.57 0854.62
2009/04/23 14:53:31.9     272   -100     62    290    297 110.2  12.2  34230  290.75 0854.62
2009/04/23 14:53:32.0     197   -124     51    234    240 122.2  12.4  34228  290.71 0854.62
2009/04/23 14:53:32.1     240   -153     97    285    302 122.5  18.9  34222  290.63 0854.62
2009/04/23 14:53:32.2     261   -110    100    284    302 112.8  19.4  34220  290.58 0854.62
2009/04/23 14:53:32.3     220   -115    136    249    283 117.5  31.3  34220  290.58 0854.62
2009/04/23 14:53:32.4     219    -46    183    224    289 101.9  43.7  34220  290.59 0854.62
2009/04/23 14:53:32.5     246    -58    169    253    304 103.3  37.0  34222  290.63 0854.62
2009/04/23 14:53:32.6     253    -54     97    259    276 102.2  21.5  34242  290.95 0854.62
2009/04/23 14:53:32.7     237    -33    119    240    267  97.9  28.2  34256  291.19 0854.62
2009/04/23 14:53:32.8     178    -42    114    183    215 103.3  35.2  34228  290.74 0854.62
2009/04/23 14:53:32.9      50     23    170     56    178  64.8  81.0  34238  290.89 0854.62
2009/04/23 14:53:33.0      63      0    179     64    190  90.8  80.2  34244  290.99 0854.62
2009/04/23 14:53:33.1     107     42    237    116    263  68.3  72.4  34236  290.87 0854.62
2009/04/23 14:53:33.2     137    -15    270    138    303  96.6  71.0  34246  291.04 0854.62
2009/04/23 14:53:33.3     102     64    249    121    276  57.5  72.1  34264  291.34 0854.62
2009/04/23 14:53:33.4     179     62    285    190    342  70.7  63.4  34256  291.19 0854.62
2009/04/23 14:53:33.5      93      0    184     94    206  90.0  71.0  34262  291.32 0854.62
2009/04/23 14:53:33.6     -39     17    119     43    126 294.4  79.7  34288  291.74 0854.62
2009/04/23 14:53:33.7     -59    183    107    193    220 342.0  31.4  34260  291.26 0854.62
2009/04/23 14:53:33.8    -124    117     68    171    184 313.3  22.8  34258  291.25 0854.62
2009/04/23 14:53:33.9     -97    153    123    182    219 327.7  37.4  34248  291.08 0854.62
2009/04/23 14:53:34.0      28    111    132    115    175  14.3  54.6  34248  291.08 0854.62
2009/04/23 14:53:34.1      78    123     41    146    152  32.5  15.8  34256  291.20 0854.62
2009/04/23 14:53:34.2      -4    198    193    199    277 358.6  49.2  34266  291.38 0854.62
2009/04/23 14:53:34.3     -46    146    260    154    302 342.6  66.7  34278  291.58 0854.62
2009/04/23 14:53:34.4    -178    159     78    239    252 311.8  18.1  34260  291.27 0854.62
2009/04/23 14:53:34.5    -188    168     91    253    268 311.8  20.4  34248  291.05 0854.62
2009/04/23 14:53:34.6    -205    233     -7    311    312 318.6  -1.4  34248  291.07 0854.62
2009/04/23 14:53:34.7    -140    211    -77    254    265 326.4 -21.7  34244  290.99 0854.62
2009/04/23 14:53:34.8    -177    199    -78    267    278 318.3 -21.0  34232  290.78 0854.62
2009/04/23 14:53:34.9    -137    236     85    273    287 329.9  17.4  34206  290.34 0854.62
2009/04/23 14:53:35.0    -155    128    130    202    240 309.5  35.7  34208  290.38 0854.68
2009/04/23 14:53:35.1    -121      0    214    122    246 270.0  67.7  34216  290.52 0854.68
2009/04/23 14:53:35.2    -170     60    232    181    294 289.5  58.4  34214  290.49 0854.68
2009/04/23 14:53:35.3    -174   -109    198    206    285 237.8  49.0  34212  290.44 0854.68
2009/04/23 14:53:35.4    -387   -272    214    474    520 234.9  26.0  34226  290.68 0854.68
2009/04/23 14:53:35.5    -181   -207    256    276    376 221.2  47.9  34202  290.28 0854.68
2009/04/23 14:53:35.6     -96   -101    220    140    260 223.7  64.7  34200  290.26 0854.68
2009/04/23 14:53:35.7    -169    -25     93    171    194 261.4  31.3  34236  290.87 0854.68
2009/04/23 14:53:35.8    -308    -41   -111    311    331 262.4 -19.7  34272  291.46 0854.68
2009/04/23 14:53:35.9    -248     -1   -143    249    287 269.6 -36.8  34248  291.05 0854.68
2009/04/23 14:53:36.0      70     65    168     96    193  47.3  67.7  34246  291.04 0854.68
2009/04/23 14:53:36.1    -158    -42     71    164    178 254.9  24.6  34256  291.20 0854.68
2009/04/23 14:53:36.2    -108    -18    -22    110    113 260.3 -11.3  34248  291.08 0854.68
2009/04/23 14:53:36.3    -211   -209     78    298    309 225.3  14.7  34236  290.85 0854.68
2009/04/23 14:53:36.4     -90    -88    213    127    247 225.6  66.4  34242  290.98 0854.68
2009/04/23 14:53:36.5    -124   -213    153    247    290 210.3  35.2  34236  290.85 0854.68
2009/04/23 14:53:36.6     -92   -170    -55    194    202 208.5 -16.0  34254  291.16 0854.68
2009/04/23 14:53:36.7     -53   -134     11    145    146 201.9   4.4  34256  291.21 0854.68
2009/04/23 14:53:36.8       4   -143    193    144    240 178.2  59.6  34268  291.40 0854.68
2009/04/23 14:53:36.9     -77   -213    156    227    275 200.0  37.6  34264  291.34 0854.68
2009/04/23 14:53:37.0    -130   -134     98    187    211 224.1  29.5  34264  291.33 0854.64
2009/04/23 14:53:37.1     -98   -166     67    193    205 210.7  19.2  34222  290.64 0854.64
2009/04/23 14:53:37.2       1     22    122     23    124   2.7  90.0  34242  290.98 0854.64
2009/04/23 14:53:37.3      97   -189    110    213    239 152.8  29.3  34218  290.57 0854.64
2009/04/23 14:53:37.4     194    -68    154    206    257 109.3  40.6  34214  290.49 0854.64
2009/04/23 14:53:37.5     191    -38    150    195    246 101.5  41.7  34200  290.25 0854.64
2009/04/23 14:53:37.6     187      4    121    188    223  88.7  35.6  34212  290.47 0854.64
2009/04/23 14:53:37.7     186     65     37    198    202  70.7  10.6  34252  291.13 0854.64
2009/04/23 14:53:37.8     152     95    160    180    240  58.0  46.4  34264  291.33 0854.64
2009/04/23 14:53:37.9     164    313    130    354    377  27.7  21.0  34360  292.97 0854.64
2009/04/23 14:53:38.0     236    142    157    276    317  58.9  32.1  34270  291.44 0854.64
2009/04/23 14:53:38.1     189    162    158    250    295  49.3  35.5  34258  291.22 0854.64
2009/04/23 14:53:38.2     208    107    220    235    321  62.7  48.0  34236  290.87 0854.64
2009/04/23 14:53:38.3     144     81    238    166    290  60.5  62.1  34258  291.24 0854.64
2009/04/23 14:53:38.4     191     70    230    204    307  69.8  54.0  34268  291.41 0854.64
2009/04/23 14:53:38.5     256     52    205    262    332  78.5  42.1  34272  291.48 0854.64
2009/04/23 14:53:38.6     121     51    166    132    212  66.9  57.1  34274  291.52 0854.64
2009/04/23 14:53:38.7     143     56    146    154    212  68.3  48.5  34252  291.13 0854.64
2009/04/23 14:53:38.8     107     28    142    111    180  74.9  58.2  34262  291.32 0854.64
2009/04/23 14:53:38.9     139     54    163    150    221  68.7  52.2  34254  291.16 0854.64
2009/04/23 14:53:39.0      62    -20    170     66    182 108.2  77.8  34234  290.84 0854.68
2009/04/23 14:53:39.1      58      7    146     59    157  83.0  77.1  34272  291.49 0854.68
2009/04/23 14:53:39.2      81     22     73     85    112  74.5  44.8  34302  292.00 0854.68
2009/04/23 14:53:39.3      18    -62    134     65    148 163.1  72.8  34280  291.62 0854.68
2009/04/23 14:53:39.4     163    -31    164    167    234 101.0  49.9  34242  290.96 0854.68
2009/04/23 14:53:39.5      68    -13    149     70    164 101.4  73.2  34254  291.18 0854.68
2009/04/23 14:53:39.6      34    -31     89     47    100 132.2  69.8  34260  291.26 0854.68
2009/04/23 14:53:39.7     121     -5    138    122    184  92.6  54.0  34250  291.09 0854.68
2009/04/23 14:53:39.8     143    -67    135    159    208 115.2  44.5  34232  290.81 0854.68
2009/04/23 14:53:39.9     120    -50    137    131    189 112.6  51.2  34234  290.84 0854.68
2009/04/23 14:53:40.0     108    -52    100    120    156 115.8  44.3  34238  290.91 0854.76
2009/04/23 14:53:40.1      83   -107     79    136    157 142.2  32.7  34222  290.62 0854.76
2009/04/23 14:53:40.2     101   -114     72    153    169 138.6  27.1  34220  290.60 0854.76
2009/04/23 14:53:40.3      59   -136     84    149    171 156.4  31.9  34220  290.58 0854.76
2009/04/23 14:53:40.4      63   -186     97    197    219 161.3  28.0  34220  290.58 0854.76
2009/04/23 14:53:40.5       3   -155    101    156    185 178.6  35.6  34218  290.57 0854.76
2009/04/23 14:53:40.6      39   -145     72    151    167 164.8  27.2  34226  290.69 0854.76
2009/04/23 14:53:40.7      86   -104    100    136    168 140.4  40.1  34220  290.60 0854.76
2009/04/23 14:53:40.8      66   -116    116    134    177 150.1  45.6  34224  290.65 0854.76
2009/04/23 14:53:40.9      47   -127    114    136    177 159.5  44.3  34234  290.82 0854.76
2009/04/23 14:53:41.0     -66    -64    140     93    168 226.0  63.6  34300  291.95 0854.76
2009/04/23 14:53:41.1    -115   -103     74    155    171 228.2  27.2  34322  292.34 0854.76
2009/04/23 14:53:41.2    -168   -112     96    203    224 236.3  27.1  34382  293.36 0854.76
2009/04/23 14:53:41.3    -225   -107    120    250    277 244.5  27.4  34384  293.39 0854.76
2009/04/23 14:53:41.4    -194    -66    124    206    240 251.2  34.0  34360  292.97 0854.76
2009/04/23 14:53:41.5    -208     -9    120    209    241 267.5  32.4  34366  293.07 0854.76
2009/04/23 14:53:41.6    -230     20    101    231    252 275.2  25.1  34382  293.35 0854.76
2009/04/23 14:53:41.7    -262    130    102    293    311 296.4  19.2  34302  291.99 0854.76
2009/04/23 14:53:41.8    -106     99    154    146    212 313.2  51.6  34306  292.06 0854.76
2009/04/23 14:53:41.9     -70     -5    -24     71     76 265.7 -18.7  34264  291.33 0854.76
2009/04/23 14:53:42.0    -248     19   -135    249    283 274.6 -35.2  34210  290.42 0854.76
2009/04/23 14:53:42.1    -264     51   -147    269    306 281.0 -35.7  34214  290.49 0854.76
2009/04/23 14:53:42.2    -203    -47   -147    209    255 257.0 -43.0  34226  290.68 0854.76
2009/04/23 14:53:42.3    -104   -179   -144    208    252 210.1 -42.4  34240  290.93 0854.76
2009/04/23 14:53:42.4    -157      9   -140    158    211 273.5 -50.6  34234  290.84 0854.76
2009/04/23 14:53:42.5     -93    113    -63    147    159 320.3 -29.0  34234  290.84 0854.76
2009/04/23 14:53:42.6     -29    233     -7    235    236 352.9  -1.8  34234  290.82 0854.76
2009/04/23 14:53:42.7      12    175     35    176    180   4.2  11.4  34228  290.72 0854.76
2009/04/23 14:53:42.8      32    156     46    160    167  11.6  16.0  34228  290.74 0854.76
2009/04/23 14:53:42.9      -6    130     41    131    138 357.3  17.3  34232  290.79 0854.76
2009/04/23 14:53:43.0     -11    192     41    193    198 356.6  12.0  34228  290.72 0854.76
2009/04/23 14:53:43.1       2    156     30    157    160   0.9  10.8  34230  290.75 0854.76
2009/04/23 14:53:43.2     -14    119     57    120    132 352.9  27.1  34232  290.79 0854.76
2009/04/23 14:53:43.3     -48    198     -1    204    205 346.2  -0.5  34238  290.89 0854.76
2009/04/23 14:53:43.4     -51    156    -11    165    166 342.0  -4.1  34238  290.89 0854.76
2009/04/23 14:53:43.5     -67    183      4    196    197 339.7   1.2  34232  290.79 0854.76
2009/04/23 14:53:43.6      -7     88     88     89    125 355.1  50.0  34236  290.87 0854.76
2009/04/23 14:53:43.7      15    177     89    178    199   4.9  28.7  34238  290.91 0854.76
2009/04/23 14:53:43.8      61    200     49    210    216  16.9  13.2  34238  290.91 0854.76
2009/04/23 14:53:43.9     112    175     59    208    217  32.6  16.0  34236  290.87 0854.76
2009/04/23 14:53:44.0      54    183     57    191    200  16.5  16.6  34242  290.98 0854.63
2009/04/23 14:53:44.1     -27    266    -10    268    269 354.2  -2.3  34250  291.09 0854.63
2009/04/23 14:53:44.2     -93    252     32    269    271 339.7   6.9  34260  291.26 0854.63
2009/04/23 14:53:44.3    -136    257     14    291    292 332.1   2.9  34274  291.51 0854.63
2009/04/23 14:53:44.4    -121    269     -5    296    297 335.7  -1.2  34276  291.55 0854.63
2009/04/23 14:53:44.5    -169    281    -30    328    330 329.0  -5.3  34264  291.34 0854.63
2009/04/23 14:53:44.6    -172    172    -63    244    253 315.0 -14.5  34244  290.99 0854.63
2009/04/23 14:53:44.7    -150    201    -71    252    261 323.3 -20.4  34258  291.24 0854.63
2009/04/23 14:53:44.8    -145    253    -71    292    301 330.1 -13.7  34268  291.39 0854.63
2009/04/23 14:53:44.9    -184    167    -63    249    257 312.3 -14.3  34250  291.10 0854.63
2009/04/23 14:53:45.0    -240    172    -88    296    309 305.7 -16.6  34262  291.31 0854.63
2009/04/23 14:53:45.1    -208    177    -98    274    292 310.4 -19.7  34278  291.56 0854.63
2009/04/23 14:53:45.2    -222    172    -72    281    291 307.8 -14.5  34268  291.41 0854.63
2009/04/23 14:53:45.3    -210    173    -43    273    277 309.5  -9.0  34272  291.48 0854.63
2009/04/23 14:53:45.4    -260    175    -65    314    321 304.0 -11.8  34274  291.50 0854.63
2009/04/23 14:53:45.5    -284    157     47    325    329 298.9   8.2  34272  291.46 0854.63
2009/04/23 14:53:45.6    -333    236     73    409    416 305.4  10.1  34298  291.91 0854.63
2009/04/23 14:53:45.7    -318    241     86    400    410 307.2  12.2  34290  291.77 0854.63
2009/04/23 14:53:45.8    -216    191    131    289    317 311.4  26.2  34294  291.84 0854.63
2009/04/23 14:53:45.9    -271    264    131    379    402 314.3  19.1  34284  291.68 0854.63
2009/04/23 14:53:46.0    -263    280     40    385    388 316.8   6.0  34294  291.85 0854.57
2009/04/23 14:53:46.1    -320    198    -57    377    382 301.8  -8.7  34288  291.76 0854.57
2009/04/23 14:53:46.2    -339    147    -75    370    378 293.5 -11.5  34274  291.51 0854.57
2009/04/23 14:53:46.3    -265    249    -46    364    367 313.2  -7.2  34250  291.10 0854.57
2009/04/23 14:53:46.4    -226    227    -55    321    326 315.1  -9.8  34240  290.92 0854.57
2009/04/23 14:53:46.5    -269    285   -109    393    408 316.7 -15.5  34232  290.78 0854.57
2009/04/23 14:53:46.6    -244    215    -66    326    333 311.5 -11.5  34244  291.01 0854.57
2009/04/23 14:53:46.7    -207    188    -12    280    281 312.2  -2.6  34250  291.09 0854.57
2009/04/23 14:53:46.8    -292    103     75    310    319 289.5  13.7  34284  291.68 0854.57
2009/04/23 14:53:46.9    -227     82     52    242    248 290.0  12.2  34286  291.70 0854.57
2009/04/23 14:53:47.0    -114     94     35    149    154 309.5  13.5  34278  291.59 0854.57
2009/04/23 14:53:47.1    -197     93     44    219    224 295.3  11.6  34286  291.72 0854.57
2009/04/23 14:53:47.2    -248     98     32    267    269 291.7   6.9  34286  291.72 0854.57
2009/04/23 14:53:47.4    -231     22     -4    233    234 275.5  -1.2  34302  291.99 0854.57
2009/04/23 14:53:47.5    -228     69    -17    239    240 286.8  -4.1  34300  291.94 0854.57
2009/04/23 14:53:47.5    -282     98    -25    299    301 289.3  -4.9  34296  291.87 0854.57
2009/04/23 14:53:47.7    -392    -85   -105    402    416 257.7 -14.7  34262  291.29 0854.57
2009/04/23 14:53:47.8    -327     34     85    329    340 276.1  14.5  34288  291.74 0854.57
2009/04/23 14:53:47.9    -198    -96    -74    221    234 244.0 -18.7  34276  291.54 0854.57
2009/04/23 14:53:48.0    -362    -44   -121    365    384 263.0 -23.8  34262  291.32 0854.55
2009/04/23 14:53:48.1    -147    -48     98    155    183 251.8  35.5  34284  291.69 0854.55
2009/04/23 14:53:48.2    -105    -49     59    117    131 244.8  28.7  34292  291.83 0854.55
2009/04/23 14:53:48.3    -239    -48     29    244    246 258.5   6.9  34290  291.78 0854.55
2009/04/23 14:53:48.4    -251    -15     33    252    255 266.5   7.5  34298  291.90 0854.55
2009/04/23 14:53:48.5    -224    -72    -98    236    255 252.1 -28.5  34274  291.50 0854.55
2009/04/23 14:53:48.6    -152    -60     41    164    170 248.3  14.3  34282  291.66 0854.55
2009/04/23 14:53:48.7    -156    -76     60    174    185 244.0  19.2  34320  292.30 0854.55
2009/04/23 14:53:48.8    -131   -155     37    204    208 220.3  10.3  34310  292.12 0854.55
2009/04/23 14:53:48.9    -117   -271      0    296    297 203.4   0.0  34268  291.39 0854.55
2009/04/23 14:53:49.0     -74   -327      4    336    337 192.9   0.7  34262  291.32 0854.55
2009/04/23 14:53:49.1    -132   -355     -7    380    381 200.5  -1.2  34210  290.43 0854.55
2009/04/23 14:53:49.2    -164   -267     48    314    318 211.7   8.7  34250  291.10 0854.55
2009/04/23 14:53:49.3    -225   -193     79    297    308 229.3  14.9  34262  291.29 0854.55
2009/04/23 14:53:49.4    -231    -95    -20    250    251 247.6  -4.6  34274  291.51 0854.55
2009/04/23 14:53:49.5    -267     20    -53    268    274 274.4 -11.3  34298  291.90 0854.55
2009/04/23 14:53:49.6    -423   -132    -96    444    455 252.7 -12.3  34202  290.29 0854.55
2009/04/23 14:53:49.7    -449   -116   -106    464    477 255.5 -12.9  34202  290.27 0854.55
2009/04/23 14:53:49.8    -396    -97   -145    408    434 256.2 -19.6  34206  290.36 0854.55
2009/04/23 14:53:49.9    -382   -159   -139    414    437 247.4 -18.6  34200  290.24 0854.55
2009/04/23 14:53:50.0    -420   -167   -116    453    468 248.3 -14.4  34200  290.26 0854.57
2009/04/23 14:53:50.1    -350   -160    -84    385    395 245.4 -12.4  34222  290.62 0854.57
2009/04/23 14:53:50.2    -295   -116    -92    318    331 248.5 -21.0  34228  290.73 0854.57
2009/04/23 14:53:50.3    -336   -107   -114    353    372 252.3 -17.9  34238  290.89 0854.57
2009/04/23 14:53:50.4    -295    -25    -33    297    299 265.0  -6.5  34238  290.88 0854.57
2009/04/23 14:53:50.5    -249   -163    -11    298    299 236.7  -2.2  34252  291.12 0854.57
2009/04/23 14:53:50.6    -281    -89    -83    295    306 252.3 -20.4  34304  292.02 0854.57
2009/04/23 14:53:50.7    -269   -127   -150    298    333 244.6 -33.1  34248  291.05 0854.57
2009/04/23 14:53:50.8    -284    -48    -95    289    305 260.4 -18.2  34250  291.09 0854.57
2009/04/23 14:53:50.9    -306   -126    -80    332    342 247.6 -13.6  34274  291.52 0854.57
2009/04/23 14:53:51.0    -392    -17   -135    393    416 267.4 -19.0  34254  291.18 0854.57
2009/04/23 14:53:51.1    -319    -83   -113    330    349 255.3 -19.0  34248  291.08 0854.57
2009/04/23 14:53:51.2    -295   -193    -25    353    354 236.8  -4.1  34260  291.28 0854.57
2009/04/23 14:53:51.3    -153   -184    -82    240    254 219.7 -19.1  34262  291.29 0854.57
2009/04/23 14:53:51.4     -88   -151    -48    176    183 210.3 -15.5  34264  291.33 0854.57
2009/04/23 14:53:51.5     -50   -148    -50    157    164 198.7 -23.0  34266  291.38 0854.57
2009/04/23 14:53:51.6     -36   -108    -34    115    119 198.7 -21.7  34270  291.43 0854.57
2009/04/23 14:53:51.7     -48    -98    -37    110    116 206.3 -23.6  34268  291.40 0854.57
2009/04/23 14:53:51.8     -16    -73      0     75     76 192.5  -0.3  34258  291.23 0854.57
2009/04/23 14:53:51.9     -59   -124     58    138    149 205.5  24.1  34266  291.38 0854.57
2009/04/23 14:53:52.0     -43   -210     49    215    221 191.6  12.9  34266  291.37 0854.60
2009/04/23 14:53:52.1    -143   -200     22    246    248 215.6   5.2  34256  291.21 0854.60
2009/04/23 14:53:52.2    -175   -164    -52    241    247 226.9 -12.4  34256  291.21 0854.60
2009/04/23 14:53:52.3     -62   -176    -41    187    192 199.6 -12.6  34254  291.16 0854.60
2009/04/23 14:53:52.4    -100   -161    -29    190    193 211.9  -8.8  34244  290.99 0854.60
2009/04/23 14:53:52.5    -155    -97    -53    183    190 238.0 -21.0  34254  291.18 0854.60
2009/04/23 14:53:52.6     -95    -27    -30     99    103 254.1 -21.7  34258  291.23 0854.60
2009/04/23 14:53:52.7     -56     49      3     75     76 311.3   2.9  34268  291.40 0854.60
2009/04/23 14:53:52.8     -20     44     17     49     52 334.7  19.4  34260  291.28 0854.60
2009/04/23 14:53:52.9      -4     59     20     60     64 355.5  18.9  34248  291.06 0854.60
2009/04/23 14:53:53.0      75     63    -25     99    103  50.0 -14.5  34248  291.06 0854.60
2009/04/23 14:53:53.1      60     99     41    116    124  31.2  19.4  34256  291.21 0854.60
2009/04/23 14:53:53.2     102    131     41    167    173  37.9  13.9  34260  291.26 0854.60
2009/04/23 14:53:53.3      43    105    -27    114    118  22.3 -13.3  34242  290.98 0854.60
2009/04/23 14:53:53.4      46    154    -18    161    163  16.7  -6.5  34240  290.92 0854.60
2009/04/23 14:53:53.5      20    161     18    163    165   7.1   6.5  34236  290.87 0854.60
2009/04/23 14:53:53.6      11     96    -29     97    101   6.7 -21.7  34244  290.99 0854.60
2009/04/23 14:53:53.7      32     99     31    105    110  18.3  16.8  34242  290.96 0854.60
2009/04/23 14:53:53.8     188    111     77    219    232  59.3  20.0  34234  290.84 0854.60
2009/04/23 14:53:53.9     242     96    104    261    280  68.2  23.0  34244  291.00 0854.60
2009/04/23 14:53:54.0     235     56    171    242    296  76.5  38.6  34252  291.14 0854.61
2009/04/23 14:53:54.1     165    114     46    201    207  55.4  13.1  34248  291.06 0854.61
2009/04/23 14:53:54.2     122    111    149    166    223  47.6  46.9  34266  291.37 0854.61
2009/04/23 14:53:54.3      49    135    148    144    206  20.0  50.7  34264  291.35 0854.61
2009/04/23 14:53:54.4      67    109    122    129    177  31.6  48.2  34262  291.30 0854.61
2009/04/23 14:53:54.5      52     83     83     99    129  32.1  43.8  34254  291.16 0854.61
2009/04/23 14:53:54.6      44     24     71     51     87  61.1  61.1  34264  291.33 0854.61
2009/04/23 14:53:54.7      78     21     91     81    121  74.5  53.7  34258  291.25 0854.61
2009/04/23 14:53:54.8      -7     -2     25      8     26 251.4  80.7  34252  291.13 0854.61
2009/04/23 14:53:54.9      42      5     79     43     89  82.1  69.3  34250  291.11 0854.61
2009/04/23 14:53:55.0      66     58    137     88    162  48.7  64.6  34262  291.32 0854.61
2009/04/23 14:53:55.1      40    107    128    115    172  20.5  53.5  34264  291.35 0854.61
2009/04/23 14:53:55.2      67    112    119    131    176  30.8  47.1  34260  291.26 0854.61
2009/04/23 14:53:55.3      23    115     97    118    152  11.6  43.7  34266  291.37 0854.61
2009/04/23 14:53:55.4     -19      5     72     20     74 286.8  83.9  34270  291.43 0854.61
2009/04/23 14:53:55.5      63    -19     76     66    100 106.8  54.3  34252  291.15 0854.61
2009/04/23 14:53:55.6       5    -51     98     52    110 173.8  69.8  34266  291.38 0854.61
2009/04/23 14:53:55.7      11   -150    156    151    217 175.5  51.2  34250  291.09 0854.61
2009/04/23 14:53:55.8     -53   -197    186    205    276 195.2  46.9  34246  291.04 0854.61
2009/04/23 14:53:55.9    -213   -123     98    247    265 240.0  23.0  34250  291.10 0854.61
2009/04/23 14:53:56.0    -125   -142     58    190    199 221.4  17.1  34236  290.87 0854.57
2009/04/23 14:53:56.1    -133   -144    117    197    229 222.8  33.5  34234  290.84 0854.57
2009/04/23 14:53:56.2     -77   -214    215    228    313 199.8  48.2  34240  290.92 0854.57
2009/04/23 14:53:56.3      -4   -239    164    240    290 181.0  37.6  34250  291.10 0854.57
2009/04/23 14:53:56.4      17   -299    168    300    343 176.6  31.6  34260  291.27 0854.57
2009/04/23 14:53:56.5      49   -285    170    290    336 170.2  33.0  34252  291.12 0854.57
2009/04/23 14:53:56.6      23   -302    199    303    362 175.6  36.4  34272  291.49 0854.57
2009/04/23 14:53:56.7     -27   -332    176    334    377 184.7  30.1  34270  291.44 0854.57
2009/04/23 14:53:56.8      54   -345    204    350    405 171.0  33.0  34268  291.40 0854.57
2009/04/23 14:53:56.9     -14   -329    210    330    391 182.6  35.5  34264  291.34 0854.57
2009/04/23 14:53:57.0      -5   -337    180    338    382 180.9  30.3  34250  291.10 0854.57
2009/04/23 14:53:57.1      31   -322    214    324    388 174.4  36.4  34268  291.39 0854.57
2009/04/23 14:53:57.2      10   -268    216    269    344 177.8  43.1  34264  291.33 0854.57
2009/04/23 14:53:57.3      36   -257    163    260    306 172.0  35.5  34252  291.14 0854.57
2009/04/23 14:53:57.4      89   -250    170    266    315 160.4  35.6  34272  291.46 0854.57
2009/04/23 14:53:57.5      74   -292    101    302    319 165.7  18.5  34252  291.14 0854.57
2009/04/23 14:53:57.6      10   -214    156    215    265 177.1  39.7  34256  291.21 0854.57
2009/04/23 14:53:57.7     -33   -339    211    341    401 185.7  34.8  34250  291.11 0854.57
2009/04/23 14:53:57.8     -56   -402    191    407    449 188.0  27.1  34254  291.18 0854.57
2009/04/23 14:53:57.9     -87   -466    186    474    509 190.6  22.5  34258  291.25 0854.57
2009/04/23 14:53:58.0     -89   -470    191    479    515 190.8  23.0  34258  291.22 0854.55
2009/04/23 14:53:58.1     -71   -453    204    459    502 189.0  25.7  34258  291.25 0854.55
2009/04/23 14:53:58.2      39   -499    176    501    531 175.5  20.2  34260  291.26 0854.55
2009/04/23 14:53:58.3      59   -496    218    500    545 173.2  25.1  34260  291.26 0854.55
2009/04/23 14:53:58.4     107   -423    188    437    475 165.7  24.6  34252  291.14 0854.55
2009/04/23 14:53:58.5      34   -455    119    457    473 175.6  14.6  34250  291.10 0854.55
2009/04/23 14:53:58.6      17   -505     52    506    509 178.0   5.9  34260  291.27 0854.55
2009/04/23 14:53:58.7      52   -517     67    520    525 174.2   7.4  34262  291.31 0854.55
2009/04/23 14:53:58.8       7   -450    125    451    469 179.1  15.6  34270  291.43 0854.55
2009/04/23 14:53:58.9      78   -348     87    357    368 167.2  13.7  34268  291.42 0854.55
2009/04/23 14:53:59.0      55   -353     23    358    359 171.1   3.7  34268  291.39 0854.55
2009/04/23 14:53:59.1     219   -286     67    361    368 142.5  10.6  34246  291.03 0854.55
2009/04/23 14:53:59.2     181   -331     88    378    389 151.4  13.1  34268  291.39 0854.55
2009/04/23 14:53:59.3      67   -395     38    401    403 170.3   5.5  34266  291.38 0854.55
2009/04/23 14:53:59.4     111   -277    -20    299    300 158.2  -3.9  34264  291.34 0854.55
2009/04/23 14:53:59.5       0   -310     -9    311    312 180.0  -1.8  34270  291.44 0854.55
2009/04/23 14:53:59.6     -86   -391     34    401    403 192.5   5.0  34272  291.47 0854.55
2009/04/23 14:53:59.7     -88   -285    105    299    318 197.2  19.4  34264  291.33 0854.55
2009/04/23 14:53:59.8     -77   -239    122    252    279 198.0  27.8  34262  291.31 0854.55
2009/04/23 14:53:59.9     -19   -248    121    249    276 184.5  28.0  34252  291.12 0854.55
2009/04/23 14:54:00.0      65   -381    197    387    434 170.2  29.2  34258  291.23 0854.54
2009/04/23 14:54:00.1     133   -336    219    362    423 158.3  34.1  34250  291.11 0854.54
2009/04/23 14:54:00.2      90   -368    158    379    410 166.2  24.1  34252  291.15 0854.54
2009/04/23 14:54:00.3     153   -116    -49    193    200 127.3 -14.3  34256  291.20 0854.54
2009/04/23 14:54:00.4     209   -115     32    239    242 118.9   7.8  34254  291.16 0854.54
2009/04/23 14:54:00.5     196   -202     66    282    290 135.9  13.2  34248  291.07 0854.54
2009/04/23 14:54:00.6      54   -386    136    390    414 172.0  19.2  34236  290.85 0854.54
2009/04/23 14:54:00.7      72   -361    219    369    429 168.7  33.5  34232  290.78 0854.54
2009/04/23 14:54:00.8      86   -364    122    375    395 166.6  18.0  34240  290.93 0854.54
2009/04/23 14:54:00.9     231   -327    239    401    466 144.8  33.6  34224  290.67 0854.54
2009/04/23 14:54:01.0     249   -387    345    461    575 147.2  40.6  34196  290.18 0854.55
2009/04/23 14:54:01.1     267   -352    407    443    601 142.8  47.3  34226  290.70 0854.55
2009/04/23 14:54:01.2     467   -271    180    540    570 120.1  18.5  34228  290.72 0854.55
2009/04/23 14:54:01.3     400   -255    234    475    529 122.5  28.2  34228  290.71 0854.55
2009/04/23 14:54:01.4     415   -237    236    479    533 119.8  28.2  34216  290.52 0854.55
2009/04/23 14:54:01.5     268    -73     67    278    287 105.3  13.7  34222  290.63 0854.55
2009/04/23 14:54:01.6     305    -56   -214    311    377 100.5 -42.2  34238  290.88 0854.55
2009/04/23 14:54:01.7     256    -65   -196    265    329 104.4 -44.6  34234  290.83 0854.55
2009/04/23 14:54:01.8     339    -94    -13    352    353 105.5  -2.2  34218  290.55 0854.55
2009/04/23 14:54:01.9     161     14      7    162    163  84.8   2.5  34220  290.58 0854.55
2009/04/23 14:54:02.0      44     22    -23     50     55  62.9 -31.5  34228  290.72 0854.55
2009/04/23 14:54:02.1       0     33    -40     34     52 359.1 -59.8  34234  290.82 0854.55
2009/04/23 14:54:02.2       1     49   -101     50    112   1.8 -77.2  34230  290.77 0854.55
2009/04/23 14:54:02.3     -64    -34    -78     73    106 242.0 -56.5  34230  290.75 0854.55
2009/04/23 14:54:02.4     -82    -90    -39    123    130 222.3 -17.6  34232  290.79 0854.55
2009/04/23 14:54:02.5     -45    -92     20    103    105 206.3  11.1  34226  290.69 0854.55
2009/04/23 14:54:02.6     -84     13    -34     86     92 279.2 -26.9  34230  290.77 0854.55
2009/04/23 14:54:02.7     -30    130     31    134    138 346.7  13.1  34230  290.77 0854.55
2009/04/23 14:54:02.8      84     64    103    106    147  52.7  49.4  34242  290.98 0854.55
2009/04/23 14:54:02.9     118     39     98    125    158  71.4  42.0  34238  290.91 0854.55
2009/04/23 14:54:03.0     267   -143    -94    303    317 118.2 -22.3  34224  290.65 0854.55
2009/04/23 14:54:03.1     334   -165   -118    373    391 116.3 -22.6  34212  290.45 0854.55
2009/04/23 14:54:03.2     296   -163     39    339    342 118.9   6.6  34222  290.62 0854.55
2009/04/23 14:54:03.3     286   -210    137    355    380 126.3  22.3  34210  290.42 0854.55
2009/04/23 14:54:03.4     181    -81    248    199    317 114.2  57.3  34222  290.61 0854.55
2009/04/23 14:54:03.5      54    -78    214     95    234 145.3  74.8  34236  290.87 0854.55
2009/04/23 14:54:03.6     212    -95     56    233    240 114.2  13.5  34220  290.58 0854.55
2009/04/23 14:54:03.7     212    -72      6    225    226 108.8   1.6  34220  290.58 0854.55
2009/04/23 14:54:03.8     300   -165    -95    343    355 118.9 -20.1  34218  290.55 0854.55
2009/04/23 14:54:03.9      89   -161   -176    185    255 151.0 -52.9  34222  290.63 0854.55
2009/04/23 14:54:04.0      56   -153   -181    164    244 159.9 -57.6  34224  290.67 0854.55
2009/04/23 14:54:04.1      -2   -161   -159    162    226 180.9 -54.2  34220  290.60 0854.55
2009/04/23 14:54:04.2     -68   -111    -99    131    164 211.6 -45.3  34222  290.64 0854.55
2009/04/23 14:54:04.3     -40    -33     -6     53     54 230.5  -7.3  34224  290.65 0854.55
2009/04/23 14:54:04.4     -11     49     13     51     53 346.6  14.3  34224  290.67 0854.55
2009/04/23 14:54:04.5     157      2     57    158    167  89.2  20.4  34226  290.69 0854.55
2009/04/23 14:54:04.6     186    -14     65    187    199  94.4  19.2  34224  290.67 0854.55
2009/04/23 14:54:04.7     111    -92     -5    145    146 129.6  -2.2  34232  290.79 0854.55
2009/04/23 14:54:04.8      84    -82     80    118    142 134.0  37.4  34228  290.72 0854.55
2009/04/23 14:54:04.9      71   -201    -27    214    216 160.6  -7.3  34216  290.52 0854.55
2009/04/23 14:54:05.0     107   -395    125    410    429 164.9  17.1  34212  290.44 0854.55
2009/04/23 14:54:05.1      21   -183    -10    185    186 173.3  -3.3  34218  290.57 0854.55
2009/04/23 14:54:05.2     -23   -182    -15    184    185 187.3  -4.9  34220  290.60 0854.55
2009/04/23 14:54:05.3     -79   -294    -38    305    308 195.2  -7.2  34220  290.59 0854.55
2009/04/23 14:54:05.4    -155   -146    136    214    253 226.8  35.5  34208  290.39 0854.55
2009/04/23 14:54:05.5    -157    -16     98    158    185 263.9  35.2  34218  290.55 0854.55
2009/04/23 14:54:05.6      41   -121    189    128    228 161.3  62.7  34216  290.52 0854.55
2009/04/23 14:54:05.7      85    -62    214    106    238 126.0  71.9  34230  290.75 0854.55
2009/04/23 14:54:05.8     170   -316    172    359    398 151.7  27.3  34216  290.52 0854.55
2009/04/23 14:54:05.9     189   -228   -107    297    315 140.4 -25.1  34210  290.42 0854.55
2009/04/23 14:54:06.0     255   -389     14    466    467 146.8   1.8  34206  290.34 0854.55
2009/04/23 14:54:06.1     312   -317    139    446    468 135.5  17.3  34200  290.24 0854.55
2009/04/23 14:54:06.2     210   -491    138    535    553 156.8  14.5  34208  290.38 0854.55
2009/04/23 14:54:06.3     296   -576      0    648    649 152.8   0.0  34216  290.52 0854.55
2009/04/23 14:54:06.4     319   -546     65    633    637 149.7   5.9  34202  290.28 0854.55
2009/04/23 14:54:06.5     272   -551     18    615    616 153.7   1.7  34210  290.43 0854.55
2009/04/23 14:54:06.6     206   -325    -70    386    393 147.6 -10.3  34214  290.49 0854.55
2009/04/23 14:54:06.7     159   -461    172    488    517 161.0  20.2  34208  290.40 0854.55
2009/04/23 14:54:06.8     154   -348    209    381    434 156.1  31.3  34192  290.11 0854.55
2009/04/23 14:54:06.9      91   -428    334    438    550 168.0  41.2  34192  290.10 0854.55
2009/04/23 14:54:07.0     -71   -445    353    451    572 189.1  42.0  34196  290.19 0854.56
2009/04/23 14:54:07.1    -165   -567    168    591    615 196.3  15.9  34208  290.37 0854.56
2009/04/23 14:54:07.2     -65   -717    248    720    762 185.2  19.1  34204  290.31 0854.56
2009/04/23 14:54:07.3    -147   -612    134    630    645 193.5  12.0  34206  290.35 0854.56
2009/04/23 14:54:07.4    -332   -400    -20    520    521 219.7  -2.2  34200  290.24 0854.56
2009/04/23 14:54:07.5    -209   -367    353    423    550 209.7  44.2  34198  290.23 0854.56
2009/04/23 14:54:07.6    -125   -450    173    468    498 195.5  21.1  34208  290.37 0854.56
2009/04/23 14:54:07.7    -215   -733    207    764    792 196.4  15.2  34212  290.47 0854.56
2009/04/23 14:54:07.8    -147   -765    191    780    804 190.9  13.8  34208  290.39 0854.56
2009/04/23 14:54:07.9    -272   -653    193    708    735 202.6  15.3  34196  290.18 0854.56
2009/04/23 14:54:08.0    -167   -622    202    644    676 195.1  17.4  34208  290.39 0854.56
2009/04/23 14:54:08.1     -90   -669    128    676    689 187.7  10.7  34220  290.58 0854.56
2009/04/23 14:54:08.2     -32   -590    236    591    636 183.2  23.0  34218  290.57 0854.56
2009/04/23 14:54:08.3     -46   -728     40    730    732 183.6   3.1  34222  290.61 0854.56
2009/04/23 14:54:08.4      75   -777    -56    781    783 174.4  -4.1  34196  290.17 0854.56
2009/04/23 14:54:08.5       0   -645     26    646    647 180.0   2.3  34204  290.32 0854.56
2009/04/23 14:54:08.6      -4   -642    166    643    665 180.4  14.5  34204  290.31 0854.56
2009/04/23 14:54:08.7      19   -624    122    625    638 178.2  11.1  34200  290.25 0854.56
2009/04/23 14:54:08.8     111   -658    105    668    677 170.4   9.0  34204  290.31 0854.56
2009/04/23 14:54:08.9     136   -616    188    632    660 167.5  16.6  34198  290.21 0854.56
2009/04/23 14:54:09.0     192   -659    160    687    706 163.7  13.1  34202  290.30 0854.56
2009/04/23 14:54:09.1     129   -709    268    721    769 169.6  21.4  34206  290.36 0854.56
2009/04/23 14:54:09.2     278   -591    195    654    683 154.8  16.6  34204  290.31 0854.56
2009/04/23 14:54:09.3     130   -539    236    555    603 166.4  24.5  34206  290.36 0854.56
2009/04/23 14:54:09.4      94   -485    221    495    542 169.0  25.7  34208  290.40 0854.56
2009/04/23 14:54:09.5     161   -539    225    563    606 163.4  23.0  34204  290.32 0854.56
2009/04/23 14:54:09.6      64   -490    250    495    554 172.5  28.9  34204  290.33 0854.56
2009/04/23 14:54:09.7      32   -417    306    419    518 175.5  39.7  34212  290.45 0854.56
2009/04/23 14:54:09.8     -24   -419    297    420    514 183.4  38.7  34204  290.32 0854.56
2009/04/23 14:54:09.9     -11   -465    391    466    608 181.4  44.3  34206  290.35 0854.56
2009/04/23 14:54:10.0      68   -420    422    426    599 170.8  49.9  34208  290.40 0854.56
2009/04/23 14:54:10.1      61   -526    446    530    692 173.3  44.3  34208  290.40 0854.56
2009/04/23 14:54:10.2     145   -578    442    596    742 165.9  40.4  34208  290.40 0854.56
2009/04/23 14:54:10.3      45   -584    410    586    715 175.5  38.5  34208  290.38 0854.56
2009/04/23 14:54:10.4     -26   -612    354    613    707 182.5  32.6  34200  290.24 0854.56
2009/04/23 14:54:10.5       7   -312    388    313    498 178.6  57.0  34212  290.46 0854.56
2009/04/23 14:54:10.6    -173   -478    441    509    673 199.9  45.4  34208  290.38 0854.56
2009/04/23 14:54:10.7    -213   -538    294    579    649 201.7  29.1  34208  290.37 0854.56
2009/04/23 14:54:10.8    -196   -580    293    613    679 198.7  27.3  34202  290.27 0854.56
2009/04/23 14:54:10.9    -212   -455     96    503    513 205.0  10.8  34202  290.29 0854.56
2009/04/23 14:54:11.0    -158   -444     27    472    473 199.6   3.3  34206  290.35 0854.59
2009/04/23 14:54:11.1    -114   -426    239    442    502 195.1  30.8  34204  290.32 0854.59
2009/04/23 14:54:11.2     -99   -382     33    395    397 194.6   4.9  34202  290.30 0854.59
2009/04/23 14:54:11.3    -155   -444    221    471    520 199.3  27.1  34208  290.39 0854.59
2009/04/23 14:54:11.4    -205   -430    189    477    513 205.5  22.9  34208  290.39 0854.59
2009/04/23 14:54:11.5    -235   -441    166    500    527 208.1  18.4  34208  290.40 0854.59
2009/04/23 14:54:11.6    -179   -396    161    435    463 204.3  21.1  34208  290.38 0854.59
2009/04/23 14:54:11.7    -255   -359    101    441    453 215.4  12.9  34212  290.44 0854.59
2009/04/23 14:54:11.8      -5   -334    -51    335    339 181.0  -8.8  34218  290.57 0854.59
2009/04/23 14:54:11.9      39   -467   -143    469    490 175.1 -21.8  34222  290.61 0854.59
2009/04/23 14:54:12.0     108   -467   -170    480    510 166.9 -19.6  34212  290.45 0854.59
2009/04/23 14:54:12.1     107   -452   -119    465    481 166.6 -14.4  34208  290.40 0854.59
2009/04/23 14:54:12.2     115   -407   -117    423    440 164.2 -15.5  34220  290.58 0854.59
2009/04/23 14:54:12.3      40   -514    -49    516    519 175.5  -5.5  34226  290.69 0854.59
2009/04/23 14:54:12.4     129   -552    -12    567    568 166.8  -1.3  34222  290.63 0854.59
2009/04/23 14:54:12.5     161   -305   -112    346    364 152.1 -17.9  34230  290.77 0854.59
2009/04/23 14:54:12.6      86   -285   -122    298    322 163.1 -27.9  34234  290.83 0854.59
2009/04/23 14:54:12.7     172   -307   -111    352    369 150.7 -22.5  34222  290.62 0854.59
2009/04/23 14:54:12.8     214   -271   -135    346    371 141.8 -26.9  34222  290.62 0854.59
2009/04/23 14:54:12.9     175   -273   -125    325    348 147.4 -26.6  34220  290.60 0854.59
2009/04/23 14:54:13.0     184   -387      7    429    430 154.5   1.0  34220  290.58 0854.61
2009/04/23 14:54:13.1     272   -328    174    427    461 140.4  23.4  34214  290.48 0854.61
2009/04/23 14:54:13.2     129   -390    207    411    460 161.7  28.7  34222  290.63 0854.61
2009/04/23 14:54:13.3      94   -280    171    296    341 161.3  32.7  34224  290.65 0854.61
2009/04/23 14:54:13.4      59   -291    214    298    366 168.4  39.3  34222  290.64 0854.61
2009/04/23 14:54:13.5      13   -275    257    276    377 177.1  47.9  34224  290.66 0854.61
2009/04/23 14:54:13.6     -22   -178    259    180    315 187.3  62.0  34228  290.73 0854.61
2009/04/23 14:54:13.7      83   -371    314    381    493 167.3  43.7  34214  290.48 0854.61
2009/04/23 14:54:13.8      34   -408    272    410    492 175.1  36.7  34222  290.64 0854.61
2009/04/23 14:54:13.9      50   -481    256    484    547 174.0  30.2  34226  290.69 0854.61
2009/04/23 14:54:14.0     143   -396    214    422    473 160.1  28.9  34226  290.70 0854.61
2009/04/23 14:54:14.1     148   -370    180    399    437 158.1  25.9  34232  290.78 0854.61
2009/04/23 14:54:14.3    -137   -510     25    529    530 195.1   2.8  34220  290.60 0854.61
2009/04/23 14:54:14.4    -268   -471    -94    543    552 209.6  -9.9  34228  290.72 0854.61
2009/04/23 14:54:14.5      18   -360     37    361    363 177.1   5.9  34224  290.66 0854.61
2009/04/23 14:54:14.6      70   -297     11    306    307 166.7   2.1  34228  290.73 0854.61
2009/04/23 14:54:14.7     -40   -388     60    391    396 185.9   8.8  34228  290.72 0854.61
2009/04/23 14:54:14.8     -77   -302     79    312    323 194.3  14.3  34226  290.68 0854.61
2009/04/23 14:54:14.9     -49   -451     89    454    463 186.3  11.1  34226  290.70 0854.61
2009/04/23 14:54:15.0    -136   -584     22    600    601 193.1   2.1  34244  291.00 0854.62
2009/04/23 14:54:15.1    -178   -571      9    599    600 197.3   0.9  34244  291.00 0854.62
2009/04/23 14:54:15.2     -43   -410   -114    413    429 186.1 -15.5  34246  291.04 0854.62
2009/04/23 14:54:15.3     -25   -421   -104    422    435 183.4 -13.9  34244  290.99 0854.62
2009/04/23 14:54:15.4     -84   -576    -99    583    592 188.4  -9.7  34242  290.97 0854.62
2009/04/23 14:54:15.5     -87   -611    -44    618    620 188.1  -4.1  34234  290.82 0854.62
2009/04/23 14:54:15.6     -37   -482   -144    484    506 184.5 -16.6  34230  290.76 0854.62
2009/04/23 14:54:15.7     -45   -220    -65    225    234 191.6 -21.2  34226  290.70 0854.62
2009/04/23 14:54:15.8     103   -219     16    243    244 154.8   3.9  34230  290.75 0854.62
2009/04/23 14:54:15.9     213   -524    -73    566    571 157.8  -7.4  34222  290.61 0854.62
2009/04/23 14:54:16.0     202   -564     39    600    602 160.3   3.8  34224  290.66 0854.62
2009/04/23 14:54:16.1     246   -529     41    584    586 155.1   4.0  34230  290.75 0854.62
2009/04/23 14:54:16.2     257   -539     98    598    607 154.5   9.3  34224  290.66 0854.62
2009/04/23 14:54:16.3     277   -408     69    494    499 145.8   8.0  34226  290.69 0854.62
2009/04/23 14:54:16.4     298   -339     22    452    453 138.7   2.9  34222  290.63 0854.62
2009/04/23 14:54:16.5     168   -382    112    418    433 156.3  15.0  34216  290.53 0854.62
2009/04/23 14:54:16.6     233   -343    150    415    441 145.8  20.8  34222  290.63 0854.62
2009/04/23 14:54:16.7     251   -297    179    389    428 139.8  26.5  34222  290.61 0854.62
2009/04/23 14:54:16.8     199   -237    225    310    383 139.9  39.7  34224  290.67 0854.62
2009/04/23 14:54:16.9      71   -115    178    136    224 148.4  58.7  34238  290.91 0854.62
2009/04/23 14:54:17.0      12   -162    112    163    197 175.8  37.6  34226  290.69 0854.62
2009/04/23 14:54:17.1      61   -163     85    175    194 159.5  27.4  34224  290.65 0854.62
2009/04/23 14:54:17.2     -61    -73     79     96    124 220.1  43.7  34238  290.89 0854.62
2009/04/23 14:54:17.3    -120     -7     49    121    130 266.5  23.1  34230  290.77 0854.62
2009/04/23 14:54:17.4     -95   -246    172    264    315 201.2  36.3  34220  290.59 0854.62
2009/04/23 14:54:17.5    -177   -348    224    391    450 207.0  32.3  34224  290.67 0854.62
2009/04/23 14:54:17.6    -181   -451    189    487    522 201.9  22.4  34226  290.69 0854.62
2009/04/23 14:54:17.7    -199   -643    261    674    722 197.2  22.3  34224  290.67 0854.62
2009/04/23 14:54:17.8    -260   -679    263    728    774 201.0  20.8  34222  290.63 0854.62
2009/04/23 14:54:17.9    -304   -398    218    502    547 217.4  25.1  34230  290.77 0854.62
2009/04/23 14:54:18.0    -209   -425    206    474    516 206.3  25.1  34226  290.69 0854.62
2009/04/23 14:54:18.1    -189   -493     78    529    535 201.0   8.5  34226  290.70 0854.62
2009/04/23 14:54:18.2    -221   -469     40    519    521 205.2   4.5  34224  290.65 0854.62
2009/04/23 14:54:18.3    -265   -467    212    538    578 209.6  22.8  34226  290.70 0854.62
2009/04/23 14:54:18.4    -276   -496    117    568    581 209.1  11.7  34236  290.87 0854.62
2009/04/23 14:54:18.5    -148   -352    169    382    417 202.8  25.3  34232  290.80 0854.62
2009/04/23 14:54:18.6     132   -153    195    203    281 139.2  49.0  34236  290.87 0854.62
2009/04/23 14:54:18.7      43   -233     66    237    247 169.5  15.6  34226  290.68 0854.62
2009/04/23 14:54:18.8      98   -261    155    280    320 159.3  31.5  34228  290.73 0854.62
2009/04/23 14:54:18.9     126   -214    253    249    354 149.5  50.4  34228  290.71 0854.62
2009/04/23 14:54:19.0     286   -189    206    343    400 123.5  33.8  34228  290.74 0854.61
2009/04/23 14:54:19.1     390   -170    169    426    458 113.5  23.0  34226  290.70 0854.61
2009/04/23 14:54:19.2     296   -358    289    465    547 140.4  34.9  34208  290.40 0854.61
2009/04/23 14:54:19.3     379   -248    222    454    505 123.2  27.9  34226  290.68 0854.61
2009/04/23 14:54:19.4     371    -16     76    372    380  92.6  11.6  34224  290.66 0854.61
2009/04/23 14:54:19.5     441   -270     80    518    525 121.5   8.8  34218  290.55 0854.61
2009/04/23 14:54:19.6     330   -226     86    401    411 124.4  12.2  34220  290.60 0854.61
2009/04/23 14:54:19.7     255   -338    178    424    459 143.0  24.2  34216  290.51 0854.61
2009/04/23 14:54:19.8     152   -327    216    361    420 155.1  33.7  34222  290.64 0854.61
2009/04/23 14:54:19.9     155   -437    265    464    534 160.4  32.3  34220  290.59 0854.61
2009/04/23 14:54:20.0     121   -405    281    423    507 163.3  36.9  34222  290.61 0854.61
2009/04/23 14:54:20.1      31   -401    162    403    434 175.5  23.0  34226  290.70 0854.61
2009/04/23 14:54:20.2       6   -333    209    334    394 178.9  35.0  34228  290.72 0854.61
2009/04/23 14:54:20.3     -27   -428    239    429    491 183.6  31.5  34228  290.73 0854.61
2009/04/23 14:54:20.4     -84   -407    144    416    441 191.8  19.2  34228  290.72 0854.61
2009/04/23 14:54:20.5     -50   -543     27    546    547 185.3   2.9  34226  290.70 0854.61
2009/04/23 14:54:20.6     -63   -602     33    606    607 186.0   3.1  34226  290.70 0854.61
2009/04/23 14:54:20.7     -66   -495    -22    500    501 187.7  -2.6  34228  290.74 0854.61
2009/04/23 14:54:20.8     -87   -505    -87    513    521 189.8  -9.7  34232  290.78 0854.61
2009/04/23 14:54:20.9     -99   -431   -131    443    461 193.0 -21.4  34232  290.80 0854.61
2009/04/23 14:54:21.0    -132   -428   -105    449    462 197.2 -13.2  34228  290.72 0854.60
2009/04/23 14:54:21.1     -40   -417   -115    420    436 185.6 -15.4  34230  290.77 0854.60
2009/04/23 14:54:21.2     -21   -530   -170    531    557 182.3 -22.9  34228  290.72 0854.60
2009/04/23 14:54:21.3     -28   -562   -173    563    588 182.9 -21.8  34232  290.78 0854.60
2009/04/23 14:54:21.4     -27   -502   -217    503    547 183.1 -29.4  34234  290.84 0854.60
2009/04/23 14:54:21.5     -41   -448   -242    451    511 185.3 -34.9  34228  290.73 0854.60
2009/04/23 14:54:21.6     -62   -427   -259    432    503 188.3 -38.2  34236  290.86 0854.60
2009/04/23 14:54:21.7     -63   -412   -197    417    461 188.7 -31.5  34232  290.78 0854.60
2009/04/23 14:54:21.8     -84   -468   -160    476    502 190.3 -23.6  34232  290.81 0854.60
2009/04/23 14:54:21.9    -150   -397   -179    425    461 200.8 -28.6  34232  290.80 0854.60
2009/04/23 14:54:22.0     -91   -462   -135    471    489 191.2 -20.7  34242  290.96 0854.57
2009/04/23 14:54:22.1     -99   -527   -235    537    586 190.7 -29.6  34244  291.00 0854.57
2009/04/23 14:54:22.2     -95   -526   -223    535    579 190.3 -28.5  34230  290.77 0854.57
2009/04/23 14:54:22.3    -147   -456   -175    480    510 197.9 -25.4  34230  290.76 0854.57
2009/04/23 14:54:22.4    -166   -321   -230    362    428 207.4 -39.9  34248  291.06 0854.57
2009/04/23 14:54:22.5    -169   -235   -155    290    328 215.8 -34.7  34250  291.09 0854.57
2009/04/23 14:54:22.6      -9   -313   -103    314    331 181.7 -18.3  34236  290.85 0854.57
2009/04/23 14:54:22.7      -1   -316   -101    317    333 180.2 -17.7  34232  290.78 0854.57
2009/04/23 14:54:22.8      45   -407   -123    410    429 173.7 -16.7  34222  290.63 0854.57
2009/04/23 14:54:22.9     -25   -416    -72    417    424 183.5  -9.8  34220  290.60 0854.57
2009/04/23 14:54:23.0    -115   -372      0    390    391 197.2   0.1  34218  290.54 0854.57
2009/04/23 14:54:23.1    -171   -204    -81    267    280 219.9 -17.0  34228  290.71 0854.57
2009/04/23 14:54:23.2     -84   -173    -69    193    206 205.9 -19.7  34228  290.72 0854.57
2009/04/23 14:54:23.3     -34   -197   -164    201    259 190.0 -48.1  34240  290.93 0854.57
2009/04/23 14:54:23.4     -84   -193    -58    211    219 203.6 -15.5  34238  290.89 0854.57
2009/04/23 14:54:23.5     -78    -83     -4    114    115 223.2  -2.2  34238  290.91 0854.57
2009/04/23 14:54:23.6    -121   -148    -57    192    200 219.2 -21.7  34244  290.99 0854.57
2009/04/23 14:54:23.7    -169   -189   -262    254    364 221.9 -55.3  34202  290.28 0854.57
2009/04/23 14:54:23.8    -241   -264   -276    358    452 222.3 -46.0  34228  290.72 0854.57
2009/04/23 14:54:23.9    -177   -220   -207    283    350 218.7 -44.1  34218  290.55 0854.57
2009/04/23 14:54:24.0    -159   -159   -171    226    283 225.0 -45.1  34226  290.70 0854.59
2009/04/23 14:54:24.1     -74   -169    -50    185    192 203.8 -15.4  34232  290.79 0854.59
2009/04/23 14:54:24.2     -25    -74    -51     79     94 198.7 -40.0  34236  290.87 0854.59
2009/04/23 14:54:24.3     -22    -12    -48     26     54 241.1 -73.2  34246  291.04 0854.59
2009/04/23 14:54:24.4     -40    -33    -58     52     77 230.5 -56.6  34250  291.11 0854.59
2009/04/23 14:54:24.5     -41   -100   -116    109    159 202.3 -56.4  34216  290.52 0854.59
2009/04/23 14:54:24.6     -71   -129   -120    148    190 208.9 -48.1  34188  290.04 0854.59
2009/04/23 14:54:24.7      -8   -166    -90    167    189 182.9 -35.2  34184  289.99 0854.59
2009/04/23 14:54:24.8      56   -255    -67    262    271 167.5 -14.4  34210  290.41 0854.59
2009/04/23 14:54:24.9     -32   -294    -60    296    303 186.3 -11.6  34210  290.42 0854.59
2009/04/23 14:54:25.0     -74   -254    -87    265    280 196.3 -18.3  34206  290.34 0854.59
2009/04/23 14:54:25.1      76   -330   -133    339    364 166.9 -27.1  34210  290.42 0854.59
2009/04/23 14:54:25.2      90   -298   -119    312    333 163.1 -26.4  34180  289.92 0854.59
2009/04/23 14:54:25.3      43   -327   -115    330    349 172.4 -24.0  34210  290.42 0854.59
2009/04/23 14:54:25.4       0   -343   -101    344    358 180.0 -21.2  34208  290.40 0854.59
2009/04/23 14:54:25.5    -110   -389   -137    405    428 195.9 -18.8  34208  290.38 0854.59
2009/04/23 14:54:25.6    -145   -411   -159    437    465 199.5 -25.3  34216  290.51 0854.59
2009/04/23 14:54:25.7    -138   -351   -113    378    394 201.5 -21.5  34188  290.04 0854.59
2009/04/23 14:54:25.8     -72   -323   -111    332    351 192.6 -18.6  34178  289.87 0854.59
2009/04/23 14:54:25.9    -100   -278    -98    296    311 200.0 -23.8  34190  290.09 0854.59
2009/04/23 14:54:26.0    -100   -232   -117    253    278 203.4 -31.0  34184  289.97 0854.60
2009/04/23 14:54:26.1    -112   -221   -146    248    287 207.0 -37.8  34186  290.02 0854.60
2009/04/23 14:54:26.2     -69   -213   -164    225    278 198.0 -44.1  34194  290.14 0854.60
2009/04/23 14:54:26.3     -68   -255    -97    265    282 195.1 -25.4  34204  290.31 0854.60
2009/04/23 14:54:26.4     -25   -247    -83    249    262 185.8 -23.6  34208  290.37 0854.60
2009/04/23 14:54:26.5     -17   -233    -91    234    251 184.4 -26.5  34212  290.46 0854.60
2009/04/23 14:54:26.6      78   -211    -76    226    239 159.7 -18.6  34224  290.66 0854.60
2009/04/23 14:54:26.7      33   -194   -100    197    220 170.2 -33.5  34230  290.75 0854.60
2009/04/23 14:54:26.8    -103   -283     -2    302    303 200.0  -0.5  34234  290.83 0854.60
2009/04/23 14:54:26.9     -67   -303    -61    311    318 192.5 -11.1  34234  290.82 0854.60
2009/04/23 14:54:27.0    -112   -280    -38    302    305 201.8  -7.3  34224  290.65 0854.60
2009/04/23 14:54:27.1    -146   -286    -50    322    326 207.1  -8.9  34226  290.68 0854.60
2009/04/23 14:54:27.2    -183   -134    -67    228    238 233.8 -16.4  34238  290.90 0854.60
2009/04/23 14:54:27.3    -156   -128    -49    202    208 230.7 -13.7  34244  290.99 0854.60
2009/04/23 14:54:27.4     -96   -173    -50    198    205 209.0 -14.3  34220  290.60 0854.60
2009/04/23 14:54:27.5    -123   -149    -77    194    208 219.6 -27.2  34222  290.62 0854.60
2009/04/23 14:54:27.6    -245   -176    -73    302    311 234.3 -13.7  34216  290.51 0854.60
2009/04/23 14:54:27.7    -280   -251    -96    377    390 228.1 -14.4  34204  290.32 0854.60
2009/04/23 14:54:27.8    -380   -222   -157    441    469 239.7 -19.7  34218  290.55 0854.60
2009/04/23 14:54:27.9    -417   -196     -4    461    462 244.8  -0.6  34242  290.95 0854.60
2009/04/23 14:54:28.0    -373   -174    -52    412    416 245.0  -7.3  34224  290.67 0854.61
2009/04/23 14:54:28.1    -362   -162   -118    397    415 245.8 -16.5  34212  290.44 0854.61
2009/04/23 14:54:28.2    -388   -128   -146    409    435 251.7 -19.7  34216  290.51 0854.61
2009/04/23 14:54:28.3    -360   -130   -115    383    399 250.1 -21.7  34218  290.54 0854.61
2009/04/23 14:54:28.4    -312    -92   -114    326    345 253.6 -24.4  34220  290.59 0854.61
2009/04/23 14:54:28.5    -252    -53    -18    258    259 258.1  -4.1  34230  290.76 0854.61
2009/04/23 14:54:28.6    -363    -78   -161    372    405 257.9 -29.4  34232  290.79 0854.61
2009/04/23 14:54:28.7    -287    -94    -23    303    304 251.8  -4.4  34240  290.92 0854.61
2009/04/23 14:54:28.8    -314    -63   -104    321    338 258.5 -17.9  34214  290.49 0854.61
2009/04/23 14:54:28.9    -354    -64   -106    360    375 259.6 -21.4  34212  290.45 0854.61
2009/04/23 14:54:29.0    -274     12   -190    275    334 272.6 -42.7  34210  290.42 0854.61
2009/04/23 14:54:29.1    -269      0   -175    270    321 270.0 -40.3  34212  290.44 0854.61
2009/04/23 14:54:29.2    -202      7   -132    203    242 272.1 -40.4  34218  290.57 0854.61
2009/04/23 14:54:29.3    -159    -23   -132    161    208 261.6 -48.1  34218  290.57 0854.61
2009/04/23 14:54:29.4    -162    -49   -111    170    203 253.2 -40.4  34218  290.57 0854.61
2009/04/23 14:54:29.5    -159    -68    -93    174    197 246.7 -35.0  34216  290.53 0854.61
2009/04/23 14:54:29.6    -146    -49    -96    155    182 251.4 -39.4  34212  290.47 0854.61
2009/04/23 14:54:29.7    -109    -22    -98    112    148 258.6 -50.2  34214  290.50 0854.61
2009/04/23 14:54:29.8     -86      8    -83     87    120 275.7 -52.9  34224  290.67 0854.61
2009/04/23 14:54:29.9     -15    -31   -105     35    110 207.2 -85.4  34224  290.67 0854.61
2009/04/23 14:54:30.0     -32    -20   -105     39    112 237.6 -83.6  34232  290.79 0854.61
2009/04/23 14:54:30.1      -2    -73   -124     74    144 181.8 -70.6  34240  290.92 0854.61
2009/04/23 14:54:30.2    -120    -93    -98    153    181 232.2 -40.0  34236  290.86 0854.61
2009/04/23 14:54:30.3    -137    -14    -91    138    165 263.9 -40.7  34230  290.77 0854.61
2009/04/23 14:54:30.4    -164    -37   -144    169    222 257.2 -49.2  34212  290.45 0854.61
2009/04/23 14:54:30.5    -141    -47   -164    149    221 251.4 -57.4  34216  290.52 0854.61
2009/04/23 14:54:30.6    -136    -18   -145    138    200 262.1 -55.8  34218  290.55 0854.61
2009/04/23 14:54:30.7    -114    -16   -142    116    183 261.6 -60.8  34228  290.74 0854.61
2009/04/23 14:54:30.8     -61    -39   -116     73    137 237.6 -69.1  34228  290.74 0854.61
2009/04/23 14:54:30.9     -17     -1    -90     18     91 265.6 -90.0  34242  290.98 0854.61
2009/04/23 14:54:31.0      52    -81   -133     97    164 147.0 -64.9  34232  290.79 0854.61
2009/04/23 14:54:31.1      73    -57   -135     93    163 128.2 -66.8  34232  290.81 0854.61
2009/04/23 14:54:31.2      71     -3   -136     72    153  92.6 -74.2  34244  291.01 0854.61
2009/04/23 14:54:31.3      56     -1    -97     57    112  91.7 -71.2  34236  290.87 0854.61
2009/04/23 14:54:31.4      93     44    -72    104    126  64.6 -42.0  34240  290.94 0854.61
2009/04/23 14:54:31.5     119     28    -41    123    129  76.7 -23.6  34232  290.81 0854.61
2009/04/23 14:54:31.6     105      5    -35    106    111  87.0 -23.8  34226  290.69 0854.61
2009/04/23 14:54:31.7      84     29    -36     89     96  70.9 -27.4  34226  290.69 0854.61
2009/04/23 14:54:31.8      56    -18   -105     59    120 108.2 -72.7  34238  290.91 0854.61
2009/04/23 14:54:31.9      76      6    -89     77    117  84.8 -58.7  34236  290.87 0854.61
2009/04/23 14:54:32.0      46     46    -72     66     97  45.0 -56.6  34244  291.01 0854.62
2009/04/23 14:54:32.1       5     47   -107     48    117   7.1 -78.9  34242  290.96 0854.62
2009/04/23 14:54:32.2      -4      5    -89      7     89 320.4 -90.0  34254  291.18 0854.62
2009/04/23 14:54:32.3      27    -81    -83     86    119 161.5 -53.8  34248  291.08 0854.62
2009/04/23 14:54:32.4      45   -131   -125    139    186 160.8 -51.3  34242  290.98 0854.62
2009/04/23 14:54:32.5      89   -118   -140    148    203 143.0 -52.9  34240  290.92 0854.62
2009/04/23 14:54:32.6      89    -65    -94    111    145 126.4 -48.7  34236  290.86 0854.62
2009/04/23 14:54:32.7     115    -26    -74    118    139 102.8 -39.9  34238  290.91 0854.62
2009/04/23 14:54:32.8      58    -57    -79     82    113 134.4 -53.8  34246  291.03 0854.62
2009/04/23 14:54:32.9      34   -104    -70    110    130 161.7 -39.9  34250  291.11 0854.62
2009/04/23 14:54:33.0      12   -143    -47    144    151 175.1 -23.8  34244  290.99 0854.62
2009/04/23 14:54:33.1      17   -119    -64    121    136 171.9 -34.2  34250  291.09 0854.62
2009/04/23 14:54:33.2      17    -77    -64     79    101 167.5 -48.1  34250  291.09 0854.62
2009/04/23 14:54:33.3      54    -13    -18     56     58 104.2 -23.8  34250  291.09 0854.62
2009/04/23 14:54:33.4      42    -49      3     65     66 139.5   2.8  34244  290.99 0854.62
2009/04/23 14:54:33.5       8     -8     13     12     17 136.8  48.2  34240  290.94 0854.62
2009/04/23 14:54:33.6      37      0     34     38     50  90.0  46.9  34244  291.01 0854.62
2009/04/23 14:54:33.7     109    -32     14    114    115 106.4   7.5  34236  290.86 0854.62
2009/04/23 14:54:33.8     136    -40     27    142    145 106.4  11.1  34230  290.75 0854.62
2009/04/23 14:54:33.9     154    -65     25    168    170 112.8   8.5  34228  290.74 0854.62
2009/04/23 14:54:34.0     128    -93     -6    159    160 126.0  -2.2  34230  290.75 0854.63
2009/04/23 14:54:34.1     140    -77     -3    160    161 118.9  -1.1  34226  290.70 0854.63
2009/04/23 14:54:34.2     131   -166     -4    212    213 141.7  -1.3  34224  290.67 0854.63
2009/04/23 14:54:34.3      85   -213    110    230    254 158.1  27.3  34224  290.65 0854.63
2009/04/23 14:54:34.4      62   -206     88    216    233 163.3  23.1  34226  290.69 0854.63
2009/04/23 14:54:34.5      59   -215     69    224    235 164.6  17.1  34220  290.60 0854.63
2009/04/23 14:54:34.6      77   -274     46    285    289 164.2   9.3  34212  290.46 0854.63
2009/04/23 14:54:34.7      12   -228     31    229    232 176.9   7.8  34214  290.50 0854.63
2009/04/23 14:54:34.8     -18   -145    119    147    189 187.1  43.5  34220  290.60 0854.63
2009/04/23 14:54:34.9     -28   -130    114    134    175 192.5  44.8  34220  290.58 0854.63
2009/04/23 14:54:35.0     -21   -105    126    108    165 191.5  54.8  34224  290.65 0854.63
2009/04/23 14:54:35.1       8   -183    127    184    223 177.5  37.8  34226  290.70 0854.63
2009/04/23 14:54:35.2     134   -184    123    228    259 143.9  30.8  34224  290.66 0854.63
2009/04/23 14:54:35.3     169   -218    124    277    303 142.2  25.9  34228  290.71 0854.63
2009/04/23 14:54:35.4      59   -289    177    296    344 168.4  33.7  34228  290.71 0854.63
2009/04/23 14:54:35.5      48   -279    166    284    328 170.2  33.0  34226  290.70 0854.63
2009/04/23 14:54:35.6      44   -287    118    291    314 171.1  23.4  34212  290.46 0854.63
2009/04/23 14:54:35.7      24   -260    156    262    304 174.7  33.5  34218  290.56 0854.63
2009/04/23 14:54:35.8      71   -153    180    169    246 155.1  52.1  34222  290.64 0854.63
2009/04/23 14:54:35.9     132   -207    183    246    306 147.5  40.1  34228  290.73 0854.63
2009/04/23 14:54:36.0      71   -204    206    217    299 160.8  48.2  34230  290.75 0854.63
2009/04/23 14:54:36.1     -40   -350    206    353    408 186.6  33.0  34218  290.55 0854.63
2009/04/23 14:54:36.2     130   -356    131    380    403 160.0  19.1  34224  290.66 0854.63
2009/04/23 14:54:36.3     -55   -357    173    362    401 188.8  27.3  34224  290.67 0854.63
2009/04/23 14:54:36.4     -81   -235    201    249    320 199.1  43.1  34222  290.61 0854.63
2009/04/23 14:54:36.5      -4   -260    237    261    352 180.9  47.0  34214  290.49 0854.63
2009/04/23 14:54:36.6      22   -229    244    231    336 174.4  52.0  34214  290.48 0854.63
2009/04/23 14:54:36.7      -4   -240    268    241    360 181.1  53.5  34216  290.51 0854.63
2009/04/23 14:54:36.8      86    -71    196    112    225 129.6  68.1  34226  290.69 0854.63
2009/04/23 14:54:36.9     111   -189    188    220    289 149.5  44.8  34218  290.54 0854.63
2009/04/23 14:54:37.0      93   -215    197    235    306 156.6  44.1  34202  290.29 0854.63
2009/04/23 14:54:37.1      38    -69    146     79    166 151.0  69.3  34206  290.35 0854.63
2009/04/23 14:54:37.2      22   -184    190    186    265 172.9  50.7  34186  290.02 0854.63
2009/04/23 14:54:37.3     -19   -212    122    214    246 185.3  32.4  34188  290.05 0854.63
2009/04/23 14:54:37.4      -2   -250     92    251    267 180.5  21.0  34200  290.26 0854.63
2009/04/23 14:54:37.5       2   -274    122    275    300 179.5  25.2  34198  290.22 0854.63
2009/04/23 14:54:37.6     -55   -357    207    362    417 188.9  32.3  34172  289.76 0854.63
2009/04/23 14:54:37.7     -94   -369    162    381    414 194.4  24.3  34186  290.00 0854.63
2009/04/23 14:54:37.8     -61   -478    144    482    504 187.4  16.7  34176  289.84 0854.63
2009/04/23 14:54:37.9     -74   -422    159    429    457 190.0  21.3  34176  289.83 0854.63
2009/04/23 14:54:38.0    -134   -358    104    383    398 200.6  15.3  34174  289.82 0854.63
2009/04/23 14:54:38.1    -146   -237    112    279    300 211.6  23.0  34176  289.83 0854.63
2009/04/23 14:54:38.2    -115   -178    136    213    252 213.0  35.6  34208  290.37 0854.63
2009/04/23 14:54:38.3      30    -96    120    101    156 162.6  55.6  34228  290.72 0854.63
2009/04/23 14:54:38.4      35   -106    125    112    167 161.3  53.5  34228  290.74 0854.63
2009/04/23 14:54:38.5      50   -125    114    135    176 158.2  44.5  34214  290.50 0854.63
2009/04/23 14:54:38.6      42   -102     41    111    118 157.7  21.0  34206  290.35 0854.63
2009/04/23 14:54:38.7      31    -65     49     73     87 154.7  37.0  34206  290.36 0854.63
2009/04/23 14:54:38.8      42    -14     26     45     51 109.1  32.4  34216  290.52 0854.63
2009/04/23 14:54:38.9     110     23      1    113    114  78.1   0.8  34208  290.40 0854.63
2009/04/23 14:54:39.0     223    -54     -9    230    231 103.7  -2.2  34198  290.23 0854.63
2009/04/23 14:54:39.1     240   -137    -10    277    278 119.8  -2.2  34204  290.32 0854.63
2009/04/23 14:54:39.2     226   -153    120    274    299 124.1  25.2  34202  290.27 0854.63
2009/04/23 14:54:39.3     186   -203     94    276    292 137.5  18.9  34210  290.41 0854.63
2009/04/23 14:54:39.4     121   -190    113    226    252 147.5  28.5  34206  290.34 0854.63
2009/04/23 14:54:39.5     103   -216    120    240    268 154.4  28.2  34206  290.34 0854.63
2009/04/23 14:54:39.6      78   -180     30    197    200 156.6   8.9  34210  290.41 0854.63
2009/04/23 14:54:39.7      41   -179     74    184    198 166.9  23.0  34204  290.31 0854.63
2009/04/23 14:54:39.8      12   -188     96    189    211 176.2  29.1  34210  290.43 0854.63
2009/04/23 14:54:39.9       3   -170    -34    171    175 178.9 -11.3  34206  290.35 0854.63
2009/04/23 14:54:40.0     -21   -277    -39    278    281 184.5  -8.0  34206  290.36 0854.63
2009/04/23 14:54:40.1       2   -221   -103    222    244 179.3 -31.0  34208  290.37 0854.63
2009/04/23 14:54:40.2      36   -153   -125    158    201 166.6 -46.8  34208  290.40 0854.63
2009/04/23 14:54:40.3      20   -117    -46    119    127 170.2 -26.4  34208  290.38 0854.63
2009/04/23 14:54:40.4     -48   -131    -82    140    162 200.1 -37.9  34206  290.36 0854.63
2009/04/23 14:54:40.5     -34   -168    -65    172    183 191.6 -25.9  34212  290.45 0854.63
2009/04/23 14:54:40.7     -50   -176     37    184    188 196.0  11.4  34208  290.40 0854.63
2009/04/23 14:54:40.8     -35   -278     79    281    293 187.2  15.8  34212  290.44 0854.63
2009/04/23 14:54:40.9      38   -274    123    277    303 172.0  25.7  34210  290.41 0854.63
2009/04/23 14:54:41.0       0   -198    146    199    246 180.0  39.9  34212  290.47 0854.62
2009/04/23 14:54:41.1     -38   -160    105    165    195 193.6  35.5  34212  290.45 0854.62
2009/04/23 14:54:41.2     -32    -96     43    102    110 198.5  24.1  34216  290.53 0854.62
2009/04/23 14:54:41.3     -24    -56     38     62     72 203.6  35.5  34218  290.57 0854.62
2009/04/23 14:54:41.4       8     -2     80      9     80 108.4  90.0  34224  290.67 0854.62
2009/04/23 14:54:41.5      56    -42     99     71    121 126.9  60.6  34228  290.72 0854.62
2009/04/23 14:54:41.6     117    -63     72    133    151 118.4  31.3  34218  290.57 0854.62
2009/04/23 14:54:41.7     123    -59     86    137    161 115.8  35.0  34216  290.53 0854.62
2009/04/23 14:54:41.8     112     27    118    116    165  76.3  49.9  34222  290.64 0854.62
2009/04/23 14:54:41.9     100    -33    135    106    171 108.2  57.7  34220  290.60 0854.62
2009/04/23 14:54:42.0     128   -155    129    202    239 140.4  35.6  34216  290.53 0854.62
2009/04/23 14:54:42.1     171   -149     70    228    239 131.1  17.1  34204  290.32 0854.62
2009/04/23 14:54:42.2     358   -180      4    401    402 116.8   0.7  34198  290.23 0854.62
2009/04/23 14:54:42.3     396   -193      5    441    442 116.0   0.7  34194  290.14 0854.62
2009/04/23 14:54:42.4     346   -207     92    404    415 120.9  12.9  34192  290.12 0854.62
2009/04/23 14:54:42.5     259   -316    165    409    441 140.6  23.1  34194  290.14 0854.62
2009/04/23 14:54:42.6     168   -276    168    324    364 148.6  29.5  34200  290.25 0854.62
2009/04/23 14:54:42.7     -19   -219     30    220    223 185.1   7.8  34200  290.26 0854.62
2009/04/23 14:54:42.8     -42   -165    -37    171    176 194.3 -12.4  34196  290.19 0854.62
2009/04/23 14:54:42.9    -100   -156    -37    186    190 212.7 -11.5  34196  290.19 0854.62
2009/04/23 14:54:43.0     -62   -106     -3    123    124 210.3  -1.8  34202  290.28 0854.62
2009/04/23 14:54:43.1     -20   -120   -198    122    232 189.8 -69.3  34208  290.38 0854.62
2009/04/23 14:54:43.2     150   -138    -98    205    227 132.7 -31.6  34206  290.35 0854.62
2009/04/23 14:54:43.3     143   -126      9    191    192 131.3   2.8  34196  290.18 0854.62
2009/04/23 14:54:43.4     145   -185     84    236    250 141.9  20.0  34208  290.37 0854.62
2009/04/23 14:54:43.5     208   -171     17    270    271 129.3   3.8  34204  290.32 0854.62
2009/04/23 14:54:43.6     202   -172     42    266    270 130.5   9.0  34206  290.34 0854.62
2009/04/23 14:54:43.7     184   -168      2    250    251 132.3   0.5  34200  290.24 0854.62
2009/04/23 14:54:43.8     146   -197     82    246    260 143.5  18.4  34204  290.32 0854.62
2009/04/23 14:54:43.9     225   -211     17    309    310 133.1   3.3  34206  290.34 0854.62
2009/04/23 14:54:44.0     174   -224    -67    284    292 142.1 -13.3  34204  290.32 0854.62
2009/04/23 14:54:44.1     253   -270     31    371    373 136.9   4.9  34208  290.40 0854.62
2009/04/23 14:54:44.2     221   -259     75    341    350 139.5  12.5  34204  290.32 0854.62
2009/04/23 14:54:44.3     189   -155    103    245    265 129.5  24.2  34202  290.27 0854.62
2009/04/23 14:54:44.4     126   -152     33    198    201 140.4   9.5  34208  290.40 0854.62
2009/04/23 14:54:44.5      14   -132      6    133    134 173.7   2.8  34206  290.36 0854.62
2009/04/23 14:54:44.6       4   -116     40    117    124 177.8  18.9  34210  290.43 0854.62
2009/04/23 14:54:44.7      14   -123    104    124    161 173.3  44.5  34216  290.53 0854.62
2009/04/23 14:54:44.8     -24   -142     78    145    164 189.7  30.6  34214  290.48 0854.62
2009/04/23 14:54:44.9     -58   -119    -36    133    139 206.3 -15.4  34214  290.48 0854.62
2009/04/23 14:54:45.0      14    -42   -126     45    133 161.3 -84.6  34228  290.74 0854.63
2009/04/23 14:54:45.1      74    -22   -135     78    155 106.8 -71.6  34228  290.72 0854.63
2009/04/23 14:54:45.2     111    -83   -172    139    221 126.9 -61.0  34212  290.47 0854.63
2009/04/23 14:54:45.3     137   -113   -141    178    227 129.5 -47.1  34210  290.43 0854.63
2009/04/23 14:54:45.4     184    -67    -67    197    209 110.2 -18.9  34206  290.36 0854.63
2009/04/23 14:54:45.5     250    -79    -38    263    266 107.5  -8.2  34208  290.37 0854.63
2009/04/23 14:54:45.6     244    -94     16    262    263 111.1   3.6  34216  290.53 0854.63
2009/04/23 14:54:45.7     204    -25     48    206    212  97.0  13.2  34222  290.64 0854.63
2009/04/23 14:54:45.8     153      0    185    154    240  90.0  56.1  34220  290.60 0854.63
2009/04/23 14:54:45.9     214    -43    240    219    324 101.4  53.2  34222  290.63 0854.63
2009/04/23 14:54:46.0     158   -280    185    322    371 150.6  32.6  34218  290.57 0854.63
2009/04/23 14:54:46.1     109   -445    -30    459    461 166.2  -3.8  34216  290.53 0854.63
2009/04/23 14:54:46.2     292   -440      4    529    530 146.4   0.5  34220  290.58 0854.63
2009/04/23 14:54:46.3     255   -446    -16    514    515 150.2  -1.8  34220  290.59 0854.63
2009/04/23 14:54:46.4     240   -402    -21    469    470 149.2  -2.6  34208  290.40 0854.63
2009/04/23 14:54:46.5     262   -619     34    673    674 157.1   2.9  34202  290.29 0854.63
2009/04/23 14:54:46.6     312   -685     47    753    755 155.5   3.6  34210  290.41 0854.63
2009/04/23 14:54:46.7     265   -560    -27    620    621 154.7  -2.5  34218  290.57 0854.63
2009/04/23 14:54:46.8     274   -525    -32    593    594 152.4  -3.2  34216  290.53 0854.63
2009/04/23 14:54:46.9     299   -520    -53    600    603 150.1  -5.1  34210  290.41 0854.63
2009/04/23 14:54:47.0     327   -415     25    529    530 141.7   2.8  34204  290.31 0854.63
2009/04/23 14:54:47.1     266   -264   -111    376    393 134.8 -16.5  34214  290.49 0854.63
2009/04/23 14:54:47.2     174   -444    -35    477    479 158.6  -4.2  34218  290.56 0854.63
2009/04/23 14:54:47.3     141   -433    -25    456    457 162.0  -3.2  34218  290.56 0854.63
2009/04/23 14:54:47.4     205   -576     23    612    613 160.4   2.2  34222  290.61 0854.63
2009/04/23 14:54:47.5     121   -502     65    517    522 166.4   7.2  34216  290.53 0854.63
2009/04/23 14:54:47.6      45   -460     48    463    466 174.3   6.0  34222  290.64 0854.63
2009/04/23 14:54:47.7     133   -489    -27    507    508 164.7  -3.1  34224  290.66 0854.63
2009/04/23 14:54:47.8    -163   -565   -182    589    616 196.1 -22.2  34204  290.31 0854.63
2009/04/23 14:54:47.9     -89   -326   -113    338    356 195.3 -23.6  34218  290.57 0854.63
2009/04/23 14:54:48.0      52   -348   -107    352    369 171.4 -16.9  34220  290.59 0854.63
2009/04/23 14:54:48.1    -216   -393   -133    449    469 208.9 -16.5  34216  290.53 0854.63
2009/04/23 14:54:48.2    -104   -445   -212    457    503 193.2 -31.1  34226  290.69 0854.63
2009/04/23 14:54:48.3     -17   -382   -141    383    408 182.7 -25.4  34228  290.74 0854.63
2009/04/23 14:54:48.4     -16   -212   -200    213    292 184.4 -52.4  34224  290.65 0854.63
2009/04/23 14:54:48.5    -121   -292   -157    317    353 202.5 -32.8  34220  290.60 0854.63
2009/04/23 14:54:48.6    -108   -338   -147    356    385 197.8 -28.1  34216  290.52 0854.63
2009/04/23 14:54:48.7      -4   -346   -103    347    361 180.8 -21.6  34218  290.54 0854.63
2009/04/23 14:54:48.8       6   -362   -118    363    382 179.0 -18.0  34218  290.54 0854.63
2009/04/23 14:54:48.9      90   -350   -121    362    383 165.6 -18.6  34218  290.55 0854.63
2009/04/23 14:54:49.0     108   -334    -83    352    362 162.0 -13.3  34218  290.57 0854.62
2009/04/23 14:54:49.1     189   -334    -96    384    396 150.5 -14.1  34212  290.47 0854.62
2009/04/23 14:54:49.2     261   -346   -129    434    453 142.9 -16.6  34212  290.44 0854.62
2009/04/23 14:54:49.3     257   -169    -84    308    320 123.3 -15.4  34216  290.51 0854.62
2009/04/23 14:54:49.4     233   -300    -15    381    382 142.2  -2.3  34210  290.42 0854.62
2009/04/23 14:54:49.5     318   -269     39    417    419 130.3   5.4  34210  290.41 0854.62
2009/04/23 14:54:49.6     310   -344     90    464    473 138.0  11.0  34212  290.45 0854.62
2009/04/23 14:54:49.7     337   -254    -18    423    424 127.0  -2.5  34220  290.58 0854.62
2009/04/23 14:54:49.8     260   -279     46    382    385 137.1   6.9  34216  290.52 0854.62
2009/04/23 14:54:49.9     294   -294    136    416    438 135.0  18.1  34208  290.38 0854.62
2009/04/23 14:54:50.0     297   -245    172    386    422 129.5  25.8  34208  290.39 0854.62
2009/04/23 14:54:50.1     361   -314     56    479    483 131.0   6.7  34202  290.30 0854.62
2009/04/23 14:54:50.2     381   -303    173    487    517 128.5  19.6  34192  290.10 0854.62
2009/04/23 14:54:50.3     368   -276    220    460    509 126.9  27.3  34196  290.17 0854.62
2009/04/23 14:54:50.4     347   -284    250    449    513 129.4  31.5  34192  290.10 0854.62
2009/04/23 14:54:50.5     288   -216    178    360    401 126.9  28.2  34204  290.32 0854.62
2009/04/23 14:54:50.6     245   -175    175    302    349 125.5  32.7  34202  290.28 0854.62
2009/04/23 14:54:50.7     170    -75    184    187    262 114.0  49.8  34204  290.32 0854.62
2009/04/23 14:54:50.8      -3   -107    115    108    157 181.8  52.0  34216  290.53 0854.62
2009/04/23 14:54:50.9      68   -191    128    203    239 160.4  35.2  34214  290.48 0854.62
2009/04/23 14:54:51.0      21   -281    123    282    307 175.5  25.1  34212  290.46 0854.61
2009/04/23 14:54:51.1     -25   -347    143    348    376 184.3  23.5  34212  290.47 0854.61
2009/04/23 14:54:51.2      27   -267    160    269    312 174.2  33.6  34210  290.42 0854.61
2009/04/23 14:54:51.3      58   -224    147    232    274 165.3  35.5  34224  290.66 0854.61
2009/04/23 14:54:51.4       4      0     94      5     94  90.0  90.0  34236  290.86 0854.61
2009/04/23 14:54:51.5     -41     -7     74     42     85 259.4  67.7  34246  291.03 0854.61
2009/04/23 14:54:51.6     -73    -17     57     76     95 256.7  40.7  34234  290.82 0854.61
2009/04/23 14:54:51.7     -72    -68     75    100    125 226.4  40.7  34226  290.69 0854.61
2009/04/23 14:54:51.8     -31   -129    145    133    196 193.8  52.7  34222  290.62 0854.61
2009/04/23 14:54:51.9     -67   -284    193    292    350 193.3  36.4  34214  290.50 0854.61
2009/04/23 14:54:52.0     -52   -277    136    282    313 190.7  27.8  34212  290.46 0854.59
2009/04/23 14:54:52.1     -82   -254    178    267    320 197.9  36.7  34218  290.56 0854.59
2009/04/23 14:54:52.2     -14    -91    179     93    201 188.9  70.6  34220  290.58 0854.59
2009/04/23 14:54:52.3     206   -113    222    235    323 118.8  48.4  34216  290.53 0854.59
2009/04/23 14:54:52.4     143   -142    193    202    279 134.7  49.0  34212  290.46 0854.59
2009/04/23 14:54:52.5     275   -159     93    318    332 120.0  16.3  34218  290.56 0854.59
2009/04/23 14:54:52.6     167    -95     32    193    196 119.5   9.5  34218  290.55 0854.59
2009/04/23 14:54:52.7     155    -11     34    156    160  94.3  12.6  34200  290.25 0854.59
2009/04/23 14:54:52.8     168    -20     23    170    172  97.0   7.8  34198  290.21 0854.59
2009/04/23 14:54:52.9     189    -60     86    199    216 107.7  24.9  34206  290.35 0854.59
2009/04/23 14:54:53.0     124    -68    138    142    198 118.8  49.4  34220  290.58 0854.59
2009/04/23 14:54:53.1      37   -164    141    169    220 167.3  43.8  34216  290.53 0854.59
2009/04/23 14:54:53.2     -19   -178    156    180    238 186.2  45.4  34218  290.57 0854.59
2009/04/23 14:54:53.3      30   -209    126    212    246 171.8  33.5  34220  290.59 0854.59
2009/04/23 14:54:53.4      43   -312    126    316    340 172.0  23.0  34210  290.43 0854.59
2009/04/23 14:54:53.5      73   -364     73    372    380 168.7  11.1  34200  290.25 0854.59
2009/04/23 14:54:53.6     100   -384     46    397    400 165.3   6.7  34202  290.27 0854.59
2009/04/23 14:54:53.7       9   -305    205    306    368 178.2  37.0  34190  290.08 0854.59
2009/04/23 14:54:53.8     208    -48     99    214    235 103.2  26.4  34196  290.18 0854.59
2009/04/23 14:54:53.9     119   -141    165    185    247 139.9  46.4  34200  290.25 0854.59
2009/04/23 14:54:54.0    -146   -217    153    262    303 214.1  33.1  34196  290.19 0854.60
2009/04/23 14:54:54.1    -102   -234     63    256    264 203.6  13.9  34204  290.32 0854.60
2009/04/23 14:54:54.2    -187   -241    107    306    325 217.9  19.3  34196  290.19 0854.60
2009/04/23 14:54:54.3    -161   -248     93    296    311 213.0  17.5  34194  290.15 0854.60
2009/04/23 14:54:54.4     -19   -154     14    156    157 187.1   5.4  34206  290.35 0854.60
2009/04/23 14:54:54.5      -4    -60    122     61    136 184.4  71.9  34224  290.65 0854.60
2009/04/23 14:54:54.6     -23    -70    114     74    135 198.7  64.6  34218  290.55 0854.60
2009/04/23 14:54:54.7     -18    -87     80     89    119 192.0  46.9  34218  290.55 0854.60
2009/04/23 14:54:54.8       9   -161     94    162    187 176.6  32.9  34212  290.45 0854.60
2009/04/23 14:54:54.9     178   -206    150    273    311 139.2  31.3  34212  290.46 0854.60
2009/04/23 14:54:55.0      24   -270    287    272    395 174.9  51.9  34212  290.47 0854.60
2009/04/23 14:54:55.1     242    -83    197    257    323 109.1  41.4  34210  290.41 0854.60
2009/04/23 14:54:55.2     173   -127     92    215    233 126.4  24.3  34210  290.41 0854.60
2009/04/23 14:54:55.3     371    -15    229    372    436  92.4  34.4  34210  290.43 0854.60
2009/04/23 14:54:55.4     188   -186    144    265    301 134.7  31.3  34214  290.49 0854.60
2009/04/23 14:54:55.5     229    -58     36    237    240 104.4   8.8  34214  290.48 0854.60
2009/04/23 14:54:55.6     287    -71     35    296    299 104.1   6.9  34214  290.48 0854.60
2009/04/23 14:54:55.7     242   -329    214    409    461 143.7  29.6  34224  290.67 0854.60
2009/04/23 14:54:55.8     325   -250    117    411    428 127.6  15.9  34216  290.53 0854.60
2009/04/23 14:54:55.9     460   -189     44    498    501 112.3   5.1  34218  290.56 0854.60
2009/04/23 14:54:56.0     189   -259     27    321    323 143.9   4.9  34220  290.58 0854.60
2009/04/23 14:54:56.1      79   -425    148    433    458 169.4  18.9  34220  290.58 0854.60
2009/04/23 14:54:56.2       0   -405    148    406    432 180.0  21.0  34224  290.67 0854.60
2009/04/23 14:54:56.3    -149   -358    152    388    416 202.6  22.7  34220  290.58 0854.60
2009/04/23 14:54:56.4    -250   -272     52    370    374 222.5   8.1  34224  290.67 0854.60
2009/04/23 14:54:56.5    -295   -276    -52    405    409 226.9  -7.3  34228  290.73 0854.60
2009/04/23 14:54:56.6    -254   -385     35    462    464 213.4   4.4  34212  290.46 0854.60
2009/04/23 14:54:56.7    -200   -339    -33    394    396 210.6  -4.8  34228  290.71 0854.60
2009/04/23 14:54:56.8    -128   -331     -3    355    356 201.2  -0.5  34228  290.72 0854.60
2009/04/23 14:54:56.9     -17   -220     26    221    223 184.5   6.9  34222  290.64 0854.60
2009/04/23 14:54:57.0      40   -101    -57    109    123 158.2 -33.7  34226  290.70 0854.60
2009/04/23 14:54:57.1     208   -133    -17    248    249 122.6  -4.1  34218  290.56 0854.60
2009/04/23 14:54:57.2     306   -189     13    360    361 121.8   2.1  34224  290.66 0854.60
2009/04/23 14:54:57.3     289   -216    -17    361    362 126.8  -2.8  34226  290.69 0854.60
2009/04/23 14:54:57.4     242   -341     33    419    421 144.6   4.6  34226  290.70 0854.60
2009/04/23 14:54:57.5     365   -332    -52    494    497 132.3  -6.1  34220  290.59 0854.60
2009/04/23 14:54:57.6     442   -383    -32    586    587 130.9  -3.2  34200  290.25 0854.60
2009/04/23 14:54:57.7     357   -454    -51    578    581 141.8  -5.1  34222  290.61 0854.60
2009/04/23 14:54:57.8     242   -381     47    452    455 147.5   6.0  34222  290.61 0854.60
2009/04/23 14:54:57.9     332   -448     48    558    561 143.5   5.0  34210  290.41 0854.60
2009/04/23 14:54:58.0     209   -315      2    379    380 146.4   0.4  34212  290.45 0854.59
2009/04/23 14:54:58.1     257   -263      4    368    369 135.7   0.7  34214  290.50 0854.59
2009/04/23 14:54:58.2     346   -344    -58    489    493 134.8  -6.8  34212  290.44 0854.59
2009/04/23 14:54:58.3     236   -324     65    402    408 143.9   9.2  34216  290.51 0854.59
2009/04/23 14:54:58.4     197   -308    175    366    405 147.4  27.3  34216  290.52 0854.59
2009/04/23 14:54:58.5      -9   -314    225    315    387 181.8  39.2  34218  290.55 0854.59
2009/04/23 14:54:58.6     -64   -242    225    251    337 194.9  46.6  34228  290.71 0854.59
2009/04/23 14:54:58.7    -104   -218    213    242    322 205.5  45.8  34222  290.63 0854.59
2009/04/23 14:54:58.8    -159   -101      0    189    190 237.4   0.0  34218  290.55 0854.59
2009/04/23 14:54:58.9       8   -203    -95    204    225 177.5 -31.5  34220  290.60 0854.59
2009/04/23 14:54:59.0     309   -457    -90    552    560 145.9  -9.3  34198  290.23 0854.59
2009/04/23 14:54:59.1     239   -410    237    475    530 149.8  28.6  34198  290.23 0854.59
2009/04/23 14:54:59.2     260   -334     21    424    425 142.1   2.9  34200  290.26 0854.59
2009/04/23 14:54:59.3     221    -70   -135    232    268 107.7 -37.3  34214  290.48 0854.59
2009/04/23 14:54:59.4     285   -181    -98    338    352 122.4 -16.2  34208  290.38 0854.59
2009/04/23 14:54:59.5     165   -235    -11    288    289 145.0  -2.2  34202  290.27 0854.59
2009/04/23 14:54:59.6     129   -314    120    340    361 157.7  19.5  34198  290.21 0854.59
2009/04/23 14:54:59.7     162   -373     21    407    408 156.5   3.0  34192  290.12 0854.59
2009/04/23 14:54:59.8     530   -640    145    832    845 140.4   9.9  34142  289.26 0854.59
2009/04/23 14:54:59.9     475   -702    288    848    896 145.9  18.8  34148  289.37 0854.59
2009/04/23 14:55:00.0     386   -466    300    606    676 140.4  28.4  34162  289.62 0854.60
2009/04/23 14:55:00.1     179   -424    218    461    509 157.1  27.1  34176  289.84 0854.60
2009/04/23 14:55:00.2     139   -340      9    368    369 157.8   1.5  34190  290.08 0854.60
2009/04/23 14:55:00.3      37   -148    -37    153    158 165.7 -13.7  34194  290.14 0854.60
2009/04/23 14:55:00.4      69   -337   -149    345    375 168.4 -29.3  34172  289.76 0854.60
2009/04/23 14:55:00.5      60   -238    -83    246    259 165.7 -23.3  34176  289.85 0854.60
2009/04/23 14:55:00.6      82   -267   -100    280    298 163.0 -19.7  34188  290.05 0854.60
2009/04/23 14:55:00.7      32    -68     94     76    120 154.5  56.4  34194  290.14 0854.60
2009/04/23 14:55:00.8      60    -51    208     79    222 130.4  78.4  34202  290.28 0854.60
2009/04/23 14:55:00.9     110    -93    177    145    228 130.4  56.4  34200  290.26 0854.60
2009/04/23 14:55:01.0     163   -292    271    335    430 150.8  43.1  34182  289.93 0854.60
2009/04/23 14:55:01.1     291   -175    139    340    367 121.1  23.5  34188  290.03 0854.60
2009/04/23 14:55:01.2     150     35     90    155    179  76.8  32.7  34190  290.08 0854.60
2009/04/23 14:55:01.3     123   -346     21    368    369 160.3   3.3  34186  290.01 0854.60
2009/04/23 14:55:01.4     135   -489    186    508    540 164.5  21.0  34184  289.97 0854.60
2009/04/23 14:55:01.5      27   -278     35    280    283 174.4   7.2  34182  289.93 0854.60
2009/04/23 14:55:01.6      38   -236    229    240    331 170.9  48.6  34184  289.97 0854.60
2009/04/23 14:55:01.7    -247   -381     47    455    458 213.0   5.9  34176  289.83 0854.60
2009/04/23 14:55:01.8    -308    -87     -1    321    322 254.1  -0.2  34178  289.88 0854.60
2009/04/23 14:55:01.9      25      8    196     27    197  71.4  90.0  34200  290.25 0854.60
2009/04/23 14:55:02.0     167   -137    232    217    317 129.3  52.2  34196  290.17 0854.58
2009/04/23 14:55:02.1     -41   -504    347    506    613 184.7  37.6  34178  289.88 0854.58
2009/04/23 14:55:02.2     -10   -172    333    173    375 183.6  70.5  34168  289.70 0854.58
2009/04/23 14:55:02.3       9      0    302     10    302  90.0  90.0  34200  290.24 0854.58
2009/04/23 14:55:02.4      21    -50    202     55    209 157.3  84.8  34186  290.02 0854.58
2009/04/23 14:55:02.5     -53    -16    241     56    247 253.2  87.3  34196  290.18 0854.58
2009/04/23 14:55:02.6     308    -45    225    312    384  98.4  39.5  34184  289.98 0854.58
2009/04/23 14:55:02.7     233    -76    223    246    332 108.2  47.0  34178  289.86 0854.58
2009/04/23 14:55:02.8     225   -292    243    369    441 142.4  36.5  34170  289.75 0854.58
2009/04/23 14:55:02.9     155   -329    315    364    481 154.7  45.4  34162  289.61 0854.58
2009/04/23 14:55:03.0     112   -256    222    280    357 156.4  42.4  34174  289.81 0854.58
2009/04/23 14:55:03.1      50   -441    175    444    477 173.5  22.5  34158  289.54 0854.58
2009/04/23 14:55:03.2     161   -387    238    420    482 157.4  32.1  34160  289.56 0854.58
2009/04/23 14:55:03.3     146   -421    157    446    472 160.8  20.2  34160  289.56 0854.58
2009/04/23 14:55:03.4      35   -370    101    372    386 174.6  15.2  34156  289.50 0854.58
2009/04/23 14:55:03.5      -4   -509    154    510    533 180.5  16.8  34158  289.55 0854.58
2009/04/23 14:55:03.6     113   -363    145    381    407 162.7  21.8  34158  289.55 0854.58
2009/04/23 14:55:03.7      24   -265    222    267    347 174.7  43.8  34164  289.64 0854.58
2009/04/23 14:55:03.8      28    -44    136     53    145 147.5  77.6  34190  290.08 0854.58
2009/04/23 14:55:03.9     -21     13    136     26    138 302.4  89.6  34186  290.01 0854.58
2009/04/23 14:55:04.0      32     -6    141     33    144 101.5  86.9  34192  290.13 0854.56
2009/04/23 14:55:04.1      34    -69    177     78    193 153.7  75.0  34182  289.96 0854.56
2009/04/23 14:55:04.2      32     35    154     48    161  42.3  82.3  34194  290.16 0854.56
2009/04/23 14:55:04.3      11    -98    169     99    195 173.3  67.0  34192  290.11 0854.56
2009/04/23 14:55:04.4      -8    -23    193     25    194 198.7  90.0  34202  290.28 0854.56
2009/04/23 14:55:04.5      15     86    199     88    217  10.2  74.9  34200  290.26 0854.56
2009/04/23 14:55:04.6      84     95    268    128    296  41.5  72.8  34218  290.54 0854.56
2009/04/23 14:55:04.7     -33    223    201    226    302 351.5  46.4  34198  290.20 0854.56
2009/04/23 14:55:04.8     -79    171    210    189    282 335.1  53.3  34224  290.65 0854.56
2009/04/23 14:55:04.9    -247     83    113    261    284 288.6  25.1  34194  290.15 0854.56
2009/04/23 14:55:05.0    -384    -29     18    386    387 265.6   2.8  34190  290.08 0854.55
2009/04/23 14:55:05.1    -354    -11    210    355    412 268.2  33.3  34212  290.47 0854.55
2009/04/23 14:55:05.2    -368   -186    225    413    470 243.2  30.9  34200  290.24 0854.55
2009/04/23 14:55:05.3     -16   -153    232    154    278 186.3  63.4  34226  290.68 0854.55
2009/04/23 14:55:05.4     -15    -31    186     35    189 205.4  89.8  34228  290.74 0854.55
2009/04/23 14:55:05.5    -173   -171    249    244    348 225.2  50.6  34206  290.34 0854.55
2009/04/23 14:55:05.6     -19   -243    298    244    385 184.5  56.4  34198  290.21 0854.55
2009/04/23 14:55:05.7      -9   -337    325    338    468 181.6  49.0  34220  290.58 0854.55
2009/04/23 14:55:05.8     -11   -299    302    300    425 182.2  50.1  34208  290.38 0854.55
2009/04/23 14:55:05.9      19     20    201     28    202  43.4  90.0  34204  290.33 0854.55
2009/04/23 14:55:06.0     -72     24    216     76    228 288.6  80.2  34210  290.43 0854.55
2009/04/23 14:55:06.1     -75    171    244    187    307 336.2  58.5  34204  290.32 0854.55
2009/04/23 14:55:06.2     -59    -81    187    101    212 216.1  69.1  34222  290.64 0854.55
2009/04/23 14:55:06.3    -198     75    156    212    263 290.8  39.7  34204  290.32 0854.55
2009/04/23 14:55:06.4     -40    -64    122     76    143 212.5  64.7  34204  290.33 0854.55
2009/04/23 14:55:06.5    -193   -107     89    221    238 240.9  23.0  34218  290.54 0854.55
2009/04/23 14:55:06.6    -227   -206     95    307    322 227.7  17.2  34228  290.71 0854.55
2009/04/23 14:55:06.7    -220    -47    200    226    301 257.8  46.2  34228  290.71 0854.55
2009/04/23 14:55:06.8     -64   -240    239    249    345 195.1  48.8  34188  290.05 0854.55
2009/04/23 14:55:06.9    -192   -147    119    243    270 232.5  27.8  34238  290.90 0854.55
2009/04/23 14:55:07.0    -270   -218    118    348    368 231.0  18.8  34214  290.50 0854.55
2009/04/23 14:55:07.1     -83   -215    156    231    278 201.2  37.4  34192  290.10 0854.55
2009/04/23 14:55:07.2      33   -117    213    122    245 164.0  67.8  34208  290.38 0854.55
2009/04/23 14:55:07.3       7     36    167     37    171  11.6  88.0  34214  290.48 0854.55
2009/04/23 14:55:07.4     -27    -81    192     86    210 198.3  74.2  34214  290.50 0854.55
2009/04/23 14:55:07.5     -58   -110    165    125    207 208.1  59.0  34228  290.72 0854.55
2009/04/23 14:55:07.6     -92   -242    292    260    390 200.9  53.9  34240  290.93 0854.55
2009/04/23 14:55:07.7     -36   -280    252    283    378 187.3  46.3  34258  291.22 0854.55
2009/04/23 14:55:07.8    -113   -239    288    265    391 205.4  52.9  34260  291.28 0854.55
2009/04/23 14:55:07.9      63   -134    183    149    235 154.7  56.6  34242  290.98 0854.55
2009/04/23 14:55:08.0      38   -107    178    114    211 160.4  64.6  34228  290.74 0854.55
2009/04/23 14:55:08.1      24    -60    153     65    166 158.2  75.5  34216  290.53 0854.55
2009/04/23 14:55:08.2      30      0    139     31    142  90.8  87.5  34212  290.45 0854.55
2009/04/23 14:55:08.3     254   -140    263    291    392 118.9  46.9  34208  290.37 0854.55
2009/04/23 14:55:08.5     320   -195    271    375    462 121.4  39.5  34196  290.17 0854.55
2009/04/23 14:55:08.6     184   -245    248    307    394 143.1  43.0  34188  290.06 0854.55
2009/04/23 14:55:08.7     185   -410    329    450    557 155.7  39.8  34188  290.04 0854.55
2009/04/23 14:55:08.8     120   -586    245    599    647 168.4  23.5  34180  289.91 0854.55
2009/04/23 14:55:08.9      -8   -657    -40    658    660 180.7  -3.5  34172  289.77 0854.55
2009/04/23 14:55:09.0      64   -455   -134    460    479 171.9 -21.1  34178  289.86 0854.54
2009/04/23 14:55:09.1      45   -474   -112    477    491 174.6 -13.3  34176  289.83 0854.54
2009/04/23 14:55:09.2     128   -382    116    404    421 161.4  16.0  34178  289.87 0854.54
2009/04/23 14:55:09.3       7   -297    277    298    406 178.6  47.8  34180  289.91 0854.54
2009/04/23 14:55:09.4      43   -310    154    314    349 172.0  27.9  34178  289.89 0854.54
2009/04/23 14:55:09.5     -83   -327    103    338    354 194.3  17.0  34182  289.94 0854.54
2009/04/23 14:55:09.6     -52   -308    112    313    332 189.7  20.3  34182  289.95 0854.54
2009/04/23 14:55:09.7     -51   -363    160    367    400 188.0  25.1  34184  289.98 0854.54
2009/04/23 14:55:09.8      41   -399    259    402    478 174.1  35.7  34186  290.02 0854.54
2009/04/23 14:55:09.9      60   -314    312    320    446 169.1  49.3  34190  290.09 0854.54
2009/04/23 14:55:10.0     110   -301    270    321    419 159.9  44.2  34184  289.99 0854.54
2009/04/23 14:55:10.1     -28   -412    207    413    461 184.0  28.6  34188  290.04 0854.54
2009/04/23 14:55:10.2     -91   -291    178    305    353 197.4  32.9  34184  289.98 0854.54
2009/04/23 14:55:10.3    -114   -419     68    435    441 195.3   8.9  34182  289.95 0854.54
2009/04/23 14:55:10.4     -89   -471    -36    480    482 190.7  -4.4  34184  289.98 0854.54
2009/04/23 14:55:10.5     -99   -526    -67    536    541 190.7  -7.2  34188  290.06 0854.54
2009/04/23 14:55:10.6      24   -481    -32    482    484 177.1  -3.9  34190  290.08 0854.54
2009/04/23 14:55:10.7     -45   -423   -147    426    451 186.1 -19.1  34182  289.94 0854.54
2009/04/23 14:55:10.8    -122   -461   -132    477    496 194.9 -15.5  34172  289.78 0854.54
2009/04/23 14:55:10.9    -221   -485   -159    533    557 204.5 -16.6  34182  289.94 0854.54
2009/04/23 14:55:11.0     -41   -492     51    494    497 184.9   5.9  34172  289.79 0854.57
2009/04/23 14:55:11.1    -278   -339   -123    439    455 219.4 -20.3  34144  289.31 0854.57
2009/04/23 14:55:11.2    -296   -369    -99    474    485 218.8 -11.8  34170  289.73 0854.57
2009/04/23 14:55:11.3    -359   -317   -113    480    494 228.6 -13.3  34164  289.64 0854.57
2009/04/23 14:55:11.4    -338   -276   -122    437    454 230.8 -15.7  34170  289.75 0854.57
2009/04/23 14:55:11.5    -335   -357   -155    490    515 223.2 -17.6  34146  289.34 0854.57
2009/04/23 14:55:11.6    -232   -378    -53    444    448 211.5  -6.9  34174  289.80 0854.57
2009/04/23 14:55:11.7    -210   -456     -4    503    504 204.7  -0.5  34182  289.96 0854.57
2009/04/23 14:55:11.8    -298   -305    -54    427    431 224.4  -7.2  34158  289.53 0854.57
2009/04/23 14:55:11.9    -293   -260    -86    392    402 228.4 -12.4  34164  289.64 0854.57
2009/04/23 14:55:12.0    -374   -248     -2    450    451 236.4  -0.4  34182  289.95 0854.57
2009/04/23 14:55:12.1    -284   -323   -150    431    456 221.3 -24.3  34144  289.31 0854.57
2009/04/23 14:55:12.2    -302   -309   -143    433    456 224.3 -18.3  34168  289.72 0854.57
2009/04/23 14:55:12.3    -252   -327   -129    414    433 217.6 -22.2  34148  289.38 0854.57
2009/04/23 14:55:12.4    -196   -401   -207    447    492 206.1 -31.0  34150  289.39 0854.57
2009/04/23 14:55:12.5     -86   -388   -220    398    454 192.5 -35.8  34154  289.48 0854.57
2009/04/23 14:55:12.6    -213   -101   -232    236    330 244.6 -54.2  34184  289.98 0854.57
2009/04/23 14:55:12.7    -298    -35   -153    301    337 263.2 -33.5  34202  290.29 0854.57
2009/04/23 14:55:12.8    -168   -180   -192    247    312 223.0 -46.3  34184  289.98 0854.57
2009/04/23 14:55:12.9    -170   -152    -45    229    234 228.2 -11.3  34196  290.19 0854.57
2009/04/23 14:55:13.0    -207   -107   -109    234    258 242.7 -31.4  34220  290.58 0854.60
2009/04/23 14:55:13.1    -172   -173    -72    245    255 224.8 -21.0  34212  290.44 0854.60
2009/04/23 14:55:13.2    -161   -165    -54    231    238 224.3 -13.2  34176  289.83 0854.60
2009/04/23 14:55:13.3    -223   -226   -107    318    335 224.5 -23.6  34152  289.45 0854.60
2009/04/23 14:55:13.4    -163   -255    -98    303    318 212.6 -22.9  34154  289.46 0854.60
2009/04/23 14:55:13.5     -87   -343    -60    354    360 194.3  -9.7  34152  289.42 0854.60
2009/04/23 14:55:13.6       1   -293    -48    294    298 179.8  -9.4  34154  289.47 0854.60
2009/04/23 14:55:13.7      -2   -274    -46    275    279 180.5  -9.6  34150  289.41 0854.60
2009/04/23 14:55:13.8      -5   -299    -37    300    303 181.0  -7.2  34154  289.46 0854.60
2009/04/23 14:55:13.9     -69   -226    -24    237    239 197.0  -6.0  34158  289.54 0854.60
2009/04/23 14:55:14.0     -69   -210    -78    222    236 198.3 -19.4  34158  289.53 0854.60
2009/04/23 14:55:14.1      38   -248    -83    252    266 171.1 -18.3  34166  289.68 0854.60
2009/04/23 14:55:14.2     -26   -261    -65    263    271 185.8 -13.9  34168  289.70 0854.60
2009/04/23 14:55:14.3    -216   -382      0    440    441 209.5   0.0  34150  289.41 0854.60
2009/04/23 14:55:14.4    -259   -305   -119    401    419 220.3 -16.5  34132  289.09 0854.60
2009/04/23 14:55:14.5    -202   -347    -50    402    406 210.3  -7.2  34146  289.34 0854.60
2009/04/23 14:55:14.6    -181   -268    -95    324    338 214.1 -16.4  34152  289.45 0854.60
2009/04/23 14:55:14.7    -177   -422    -91    458    468 202.8 -11.3  34162  289.59 0854.60
2009/04/23 14:55:14.8    -101   -375   -122    389    408 195.1 -17.5  34174  289.81 0854.60
2009/04/23 14:55:14.9    -176   -358     11    399    400 206.2   1.7  34166  289.67 0854.60
2009/04/23 14:55:15.0    -194   -257    -53    323    328 217.0  -9.3  34156  289.51 0854.61
2009/04/23 14:55:15.1    -208   -200    -69    289    298 226.2 -13.4  34152  289.44 0854.61
2009/04/23 14:55:15.2    -156   -174   -102    234    255 221.9 -29.5  34154  289.46 0854.61
2009/04/23 14:55:15.3    -151   -245    -87    289    301 211.7 -21.7  34170  289.75 0854.61
2009/04/23 14:55:15.4     -91   -261   -116    277    300 199.2 -28.5  34170  289.75 0854.61
2009/04/23 14:55:15.5      37   -309   -110    312    330 173.1 -24.5  34174  289.81 0854.61
2009/04/23 14:55:15.6      67   -285   -139    293    324 166.6 -31.6  34176  289.85 0854.61
2009/04/23 14:55:15.7      72   -214    -71    227    237 161.3 -22.5  34172  289.78 0854.61
2009/04/23 14:55:15.8      28   -226    -75    228    240 172.9 -23.3  34172  289.78 0854.61
2009/04/23 14:55:15.9     -22   -271    -77    272    283 184.7 -15.8  34166  289.68 0854.61
2009/04/23 14:55:16.0     -12   -262    -75    263    274 182.7 -16.0  34166  289.66 0854.61
2009/04/23 14:55:16.1     -78   -336   -105    345    361 193.1 -16.9  34164  289.64 0854.61
2009/04/23 14:55:16.2     -65   -339     -9    346    347 191.0  -1.6  34162  289.62 0854.61
2009/04/23 14:55:16.3     -97   -296      8    312    313 198.3   1.6  34158  289.54 0854.61
2009/04/23 14:55:16.4    -120   -252    -99    280    298 205.5 -19.6  34162  289.59 0854.61
2009/04/23 14:55:16.5    -105   -291    -43    310    314 200.0  -8.0  34164  289.63 0854.61
2009/04/23 14:55:16.6    -209   -107   -114    235    261 242.9 -31.8  34166  289.66 0854.61
2009/04/23 14:55:16.7     -45   -113   -134    122    181 201.9 -57.1  34170  289.74 0854.61
2009/04/23 14:55:16.8    -114   -207    -98    237    256 209.0 -28.0  34166  289.66 0854.61
2009/04/23 14:55:16.9    -215   -189   -122    287    311 228.7 -28.7  34174  289.80 0854.61
2009/04/23 14:55:17.0     -28   -336    -57    338    343 184.9  -9.6  34172  289.76 0854.60
2009/04/23 14:55:17.1      86   -285   -102    298    316 163.1 -19.0  34166  289.66 0854.60
2009/04/23 14:55:17.2      72   -250   -101    261    279 164.0 -26.5  34168  289.71 0854.60
2009/04/23 14:55:17.3       7   -191    -66    192    203 177.8 -23.8  34162  289.62 0854.60
2009/04/23 14:55:17.4      -5   -177    -69    178    190 181.8 -26.7  34168  289.70 0854.60
2009/04/23 14:55:17.5    -141   -343   -130    371    394 202.4 -19.3  34178  289.89 0854.60
2009/04/23 14:55:17.6    -188   -339    -15    388    389 209.0  -2.2  34178  289.86 0854.60
2009/04/23 14:55:17.7    -178   -178      2    253    254 225.0   0.5  34178  289.88 0854.60
2009/04/23 14:55:17.8     -35   -233    128    236    268 188.7  31.0  34182  289.93 0854.60
2009/04/23 14:55:17.9     -53   -195     32    203    206 195.2   9.0  34176  289.84 0854.60
2009/04/23 14:55:18.0    -161   -335     14    372    373 205.7   2.2  34174  289.81 0854.60
2009/04/23 14:55:18.1     -84   -417     21    426    427 191.5   2.9  34176  289.85 0854.60
2009/04/23 14:55:18.2     -70   -393     55    400    404 190.1   7.9  34178  289.87 0854.60
2009/04/23 14:55:18.3     -20   -381     19    382    383 183.0   2.9  34164  289.65 0854.60
2009/04/23 14:55:18.4    -140   -263     -1    299    300 208.1  -0.3  34180  289.90 0854.60
2009/04/23 14:55:18.5      24   -313    125    315    338 175.5  22.9  34168  289.71 0854.60
2009/04/23 14:55:18.6      -5   -338     96    339    353 181.0  15.8  34168  289.71 0854.60
2009/04/23 14:55:18.7     -30   -337     52    339    343 185.1   8.8  34182  289.94 0854.60
2009/04/23 14:55:18.8      16   -371     81    372    381 177.4  12.3  34172  289.76 0854.60
2009/04/23 14:55:18.9     -28   -309      9    311    312 185.3   1.7  34176  289.83 0854.60
2009/04/23 14:55:19.0     -53   -200    -46    207    213 194.9 -12.6  34172  289.79 0854.60
2009/04/23 14:55:19.1     -17   -173    -63    174    185 185.8 -24.6  34182  289.94 0854.60
2009/04/23 14:55:19.2     -13   -278    -10    279    280 182.7  -2.2  34180  289.92 0854.60
2009/04/23 14:55:19.3    -204   -147   -139    252    287 234.1 -35.8  34176  289.85 0854.60
2009/04/23 14:55:19.4    -177   -195   -276    264    381 222.3 -55.9  34168  289.72 0854.60
2009/04/23 14:55:19.5    -225     25   -109    227    251 276.4 -31.7  34178  289.86 0854.60
2009/04/23 14:55:19.6    -146     11    -43    147    153 274.4 -21.7  34184  289.97 0854.60
2009/04/23 14:55:19.7     -88    -79    -41    119    126 227.8 -19.1  34184  289.99 0854.60
2009/04/23 14:55:19.8     -11   -152     -3    153    154 184.4  -1.2  34184  289.99 0854.60
2009/04/23 14:55:19.9     -30   -128    -31    132    136 193.4 -13.4  34182  289.94 0854.60
2009/04/23 14:55:20.0     -61    -50    -35     80     87 230.5 -29.0  34184  289.97 0854.60
2009/04/23 14:55:20.1     -96    -91     55    133    143 226.8  23.1  34176  289.85 0854.60
2009/04/23 14:55:20.2    -227   -130    -88    262    277 240.2 -18.6  34182  289.93 0854.60
2009/04/23 14:55:20.3    -268   -137   -133    302    329 242.9 -29.7  34186  290.02 0854.60
2009/04/23 14:55:20.4    -400   -120   -198    418    462 253.3 -31.6  34194  290.14 0854.60
2009/04/23 14:55:20.5    -299    -17   -154    300    337 266.6 -33.8  34194  290.15 0854.60
2009/04/23 14:55:20.6    -256    -17   -239    257    350 266.1 -52.3  34192  290.10 0854.60
2009/04/23 14:55:20.7    -320     59   -175    326    370 280.5 -35.0  34208  290.40 0854.60
2009/04/23 14:55:20.8    -253    -66   -126    262    290 255.2 -31.7  34200  290.26 0854.60
2009/04/23 14:55:20.9    -181   -266    -88    322    335 214.3 -15.4  34200  290.25 0854.60
2009/04/23 14:55:21.0    -114   -232     48    259    264 206.3  10.6  34204  290.32 0854.60
2009/04/23 14:55:21.1    -127   -110    -49    169    175 229.1 -21.0  34198  290.23 0854.60
2009/04/23 14:55:21.2     130   -236     95    270    287 151.0  19.4  34186  290.02 0854.60
2009/04/23 14:55:21.3     179   -148    225    233    323 129.5  49.1  34202  290.27 0854.60
2009/04/23 14:55:21.4      33   -232    178    235    294 171.9  40.9  34200  290.24 0854.60
2009/04/23 14:55:21.5    -107   -490     66    502    507 192.4   7.6  34196  290.18 0854.60
2009/04/23 14:55:21.6      -8   -511    165    512    539 181.0  17.9  34210  290.41 0854.60
2009/04/23 14:55:21.7      74   -556    188    561    592 172.4  18.6  34196  290.17 0854.60
2009/04/23 14:55:21.8     -15   -491    192    492    528 181.8  22.5  34206  290.35 0854.60
2009/04/23 14:55:21.9     -14   -584     76    585    590 181.4   7.5  34192  290.12 0854.60
2009/04/23 14:55:22.0     -26   -352    123    353    373 184.3  20.1  34202  290.27 0854.60
2009/04/23 14:55:22.1    -277   -252    -47    375    378 227.7  -7.2  34184  289.98 0854.60
2009/04/23 14:55:22.2    -103   -142     98    176    201 216.1  31.4  34194  290.14 0854.60
2009/04/23 14:55:22.3    -207   -277     25    346    347 216.8   4.2  34202  290.27 0854.60
2009/04/23 14:55:22.4    -187   -289     60    345    351 213.0   9.9  34192  290.10 0854.60
2009/04/23 14:55:22.5    -198   -305     33    364    366 213.0   5.3  34182  289.96 0854.60
2009/04/23 14:55:22.6    -263   -263    -40    372    375 225.0  -6.3  34194  290.16 0854.60
2009/04/23 14:55:22.7    -338   -178    -80    383    392 242.2 -11.9  34198  290.23 0854.60
2009/04/23 14:55:22.8    -271   -216    -86    347    358 231.5 -14.1  34202  290.28 0854.60
2009/04/23 14:55:22.9    -192   -239   -121    307    329 218.8 -27.1  34178  289.88 0854.60
2009/04/23 14:55:23.0    -187   -156    -86    244    259 230.2 -19.4  34194  290.15 0854.60
2009/04/23 14:55:23.1     -13   -301   -136    302    331 182.5 -30.3  34204  290.31 0854.60
2009/04/23 14:55:23.2     -72   -305    -93    314    328 193.4 -16.6  34196  290.17 0854.60
2009/04/23 14:55:23.3    -117   -284    -79    308    319 202.5 -14.4  34196  290.19 0854.60
2009/04/23 14:55:23.4     -19   -233    -42    234    238 184.9 -10.3  34200  290.26 0854.60
2009/04/23 14:55:23.5      78   -241    -26    254    256 162.0  -6.0  34206  290.34 0854.60
2009/04/23 14:55:23.6      84   -146     42    169    175 149.9  13.9  34188  290.04 0854.60
2009/04/23 14:55:23.7      88   -117     62    147    159 143.0  24.1  34190  290.09 0854.60
2009/04/23 14:55:23.8      79   -123     32    147    151 147.4  12.6  34196  290.19 0854.60
2009/04/23 14:55:23.9      -7   -101    -36    102    109 184.5 -19.6  34192  290.13 0854.60
2009/04/23 14:55:24.0     -67   -131    -41    148    154 207.1 -15.5  34190  290.09 0854.59
2009/04/23 14:55:24.1     -91   -104      0    139    140 221.4  -0.3  34192  290.13 0854.59
2009/04/23 14:55:24.2     -33   -117    -20    122    124 196.0  -9.3  34194  290.14 0854.59
2009/04/23 14:55:24.3     -32   -232     83    235    249 188.0  20.0  34196  290.17 0854.59
2009/04/23 14:55:24.4     -49   -242     84    247    262 191.5  18.9  34198  290.20 0854.59
2009/04/23 14:55:24.5     -52   -232     84    238    253 192.7  19.4  34200  290.24 0854.59
2009/04/23 14:55:24.6     -79   -343     77    353    362 193.0  12.4  34188  290.06 0854.59
2009/04/23 14:55:24.7     -26   -240    100    242    261 186.2  23.6  34200  290.26 0854.59
2009/04/23 14:55:24.8      39   -324    140    327    355 173.1  24.6  34198  290.21 0854.59
2009/04/23 14:55:24.9      27   -451    135    452    472 176.5  16.6  34202  290.27 0854.59
2009/04/23 14:55:25.0     -14   -452    144    453    476 181.8  17.7  34208  290.37 0854.59
2009/04/23 14:55:25.1    -226   -419     92    477    486 208.4  11.0  34206  290.34 0854.59
2009/04/23 14:55:25.2     -82   -226    219    241    325 200.0  47.0  34204  290.31 0854.59
2009/04/23 14:55:25.3     -78   -196    190    212    284 201.8  46.4  34200  290.26 0854.59
2009/04/23 14:55:25.4     -80   -165    243    184    304 205.9  59.2  34204  290.32 0854.59
2009/04/23 14:55:25.5    -150   -178    182    233    295 220.1  41.7  34208  290.37 0854.59
2009/04/23 14:55:25.6    -190   -162    132    250    282 229.6  30.2  34196  290.19 0854.59
2009/04/23 14:55:25.7     -10   -105    217    106    241 185.8  72.1  34216  290.52 0854.59
2009/04/23 14:55:25.8      18     45    129     49    137  21.8  78.2  34218  290.57 0854.59
2009/04/23 14:55:25.9       0      0    189      1    189 135.0  90.0  34230  290.75 0854.59
2009/04/23 14:55:26.0      41     72    157     84    178  29.9  69.6  34236  290.86 0854.58
2009/04/23 14:55:26.1     -40    -16     86     44     96 248.3  70.8  34240  290.92 0854.58
2009/04/23 14:55:26.2     -39   -128    213    134    251 196.9  64.7  34224  290.67 0854.58
2009/04/23 14:55:26.3    -152   -112    193    189    270 233.6  50.4  34214  290.48 0854.58
2009/04/23 14:55:26.4    -253   -145     55    292    298 240.2  10.8  34214  290.49 0854.58
2009/04/23 14:55:26.5    -223   -172     39    282    285 232.3   8.0  34208  290.37 0854.58
2009/04/23 14:55:26.6    -143   -128     39    193    198 228.2  11.6  34210  290.43 0854.58
2009/04/23 14:55:26.7      82   -138    150    161    220 149.2  47.9  34210  290.41 0854.58
2009/04/23 14:55:26.8     168   -323    194    365    413 152.5  30.2  34214  290.49 0854.58
2009/04/23 14:55:26.9      34   -364    149    366    395 174.6  23.5  34212  290.45 0854.58
2009/04/23 14:55:27.0      48   -310     86    314    326 171.1  15.4  34208  290.39 0854.58
2009/04/23 14:55:27.1      79   -232    156    246    291 161.1  35.5  34208  290.39 0854.58
2009/04/23 14:55:27.2     148   -291    272    327    425 153.0  43.8  34250  291.11 0854.58
2009/04/23 14:55:27.3      98   -232    235    253    345 157.1  47.8  34248  291.07 0854.58
2009/04/23 14:55:27.4     106     -8    198    107    225  94.4  69.3  34260  291.28 0854.58
2009/04/23 14:55:27.5      15    -12    195     20    196 129.5  90.0  34268  291.42 0854.58
2009/04/23 14:55:27.6      12     40    156     42    161  16.9  84.9  34274  291.52 0854.58
2009/04/23 14:55:27.7      25    -98    147    102    178 165.3  61.8  34248  291.08 0854.58
2009/04/23 14:55:27.8       8      1    131      9    131  78.5  90.0  34242  290.96 0854.58
2009/04/23 14:55:27.9    -176    -43    166    182    246 256.1  47.0  34242  290.96 0854.58
2009/04/23 14:55:28.0    -199   -125     93    236    253 237.8  22.3  34232  290.78 0854.57
2009/04/23 14:55:28.1    -125    -69    100    143    174 241.1  38.0  34250  291.11 0854.57
2009/04/23 14:55:28.2      43     68    111     81    137  32.5  60.5  34264  291.35 0854.57
2009/04/23 14:55:28.3      62    158     64    171    182  21.6  21.3  34256  291.21 0854.57
2009/04/23 14:55:28.4     -81    102     33    131    136 321.3  14.3  34250  291.09 0854.57
2009/04/23 14:55:28.5     -75    -73    161    105    192 225.6  64.4  34242  290.98 0854.57
2009/04/23 14:55:28.6     124     57    131    137    189  65.2  49.0  34238  290.91 0854.57
2009/04/23 14:55:28.7      62     -9    155     63    167  98.8  76.8  34252  291.13 0854.57
2009/04/23 14:55:28.8     171    -56    206    181    274 108.2  54.3  34240  290.92 0854.57
2009/04/23 14:55:28.9     140   -268    234    303    382 152.4  41.7  34228  290.74 0854.57
2009/04/23 14:55:29.0     -98   -408    199    420    464 193.5  27.1  34212  290.46 0854.57
2009/04/23 14:55:29.1      68   -259    256    268    370 165.1  48.6  34230  290.76 0854.57
2009/04/23 14:55:29.2      57   -223    232    231    327 165.5  50.0  34232  290.78 0854.57
2009/04/23 14:55:29.3     -74   -435    186    442    479 189.7  24.2  34222  290.62 0854.57
2009/04/23 14:55:29.4      -4   -310    299    311    431 180.9  48.8  34226  290.69 0854.57
2009/04/23 14:55:29.5      62   -156    170    169    239 158.2  50.1  34220  290.60 0854.57
2009/04/23 14:55:29.6     174    -93    205    198    285 118.2  51.2  34232  290.78 0854.57
2009/04/23 14:55:29.7    -131   -109    196    171    260 230.2  54.3  34218  290.54 0854.57
2009/04/23 14:55:29.8      24    -73     79     77    110 161.5  50.7  34248  291.06 0854.57
2009/04/23 14:55:29.9      59     48     95     77    122  50.5  56.4  34240  290.92 0854.57
2009/04/23 14:55:30.0      49    -46     90     68    112 133.1  59.0  34254  291.16 0854.58
2009/04/23 14:55:30.1       0      7     90      8     90   4.5  90.0  34260  291.26 0854.58
2009/04/23 14:55:30.2     -36   -107     64    114    130 198.7  31.9  34260  291.26 0854.58
2009/04/23 14:55:30.3    -140   -366   -162    393    425 201.0 -28.1  34218  290.56 0854.58
2009/04/23 14:55:30.4      60   -104   -241    121    269 150.1 -76.1  34226  290.70 0854.58
2009/04/23 14:55:30.5     -18    -59   -156     62    167 197.8 -81.8  34244  290.99 0854.58
2009/04/23 14:55:30.6     -90    -74    -92    117    148 230.5 -46.6  34242  290.96 0854.58
2009/04/23 14:55:30.7     -17    -26    -79     32     85 212.6 -81.5  34244  291.01 0854.58
2009/04/23 14:55:30.8     -59   -214    -40    223    227 195.6 -10.3  34232  290.79 0854.58
2009/04/23 14:55:30.9     -95   -289    -51    305    310 198.3  -9.6  34226  290.70 0854.58
2009/04/23 14:55:31.0    -115   -270    -62    294    301 203.2 -11.9  34226  290.70 0854.58
2009/04/23 14:55:31.1    -151   -208    -73    258    269 216.0 -15.8  34230  290.75 0854.58
2009/04/23 14:55:31.2    -105   -190    -45    218    223 209.0 -11.9  34226  290.70 0854.58
2009/04/23 14:55:31.3     -95   -153    -23    181    183 211.9  -7.3  34228  290.72 0854.58
2009/04/23 14:55:31.4     -43    -85    -42     96    104 206.7 -29.5  34224  290.67 0854.58
2009/04/23 14:55:31.5      23    -58    -18     63     66 158.1 -16.6  34224  290.67 0854.58
2009/04/23 14:55:31.6      97    -71     26    121    124 126.4  12.2  34224  290.67 0854.58
2009/04/23 14:55:31.7     186    -63     36    197    201 108.8  10.3  34228  290.72 0854.58
2009/04/23 14:55:31.8     128   -167    153    211    260 142.4  39.5  34198  290.20 0854.58
2009/04/23 14:55:31.9     148   -284    268    321    418 152.4  44.1  34214  290.49 0854.58
2009/04/23 14:55:32.0     283   -330    229    435    491 139.4  30.1  34214  290.49 0854.60
2009/04/23 14:55:32.1     192   -473     41    511    513 157.9   4.7  34212  290.44 0854.60
2009/04/23 14:55:32.2     -52   -426    -77    430    438 187.0 -10.2  34214  290.48 0854.60
2009/04/23 14:55:32.3      34   -336     12    338    339 174.1   2.1  34212  290.47 0854.60
2009/04/23 14:55:32.4     123   -241     40    271    275 152.9   8.5  34212  290.44 0854.60
2009/04/23 14:55:32.5      33   -257      4    260    261 172.7   1.0  34214  290.48 0854.60
2009/04/23 14:55:32.6       4   -157     -6    158    159 178.2  -2.2  34212  290.47 0854.60
2009/04/23 14:55:32.7     -40   -150     29    156    159 195.1  10.6  34214  290.48 0854.60
2009/04/23 14:55:32.8     -62    -98     59    117    131 212.5  28.7  34212  290.47 0854.60
2009/04/23 14:55:32.9       4    -85    151     86    173 176.9  67.7  34224  290.67 0854.60
2009/04/23 14:55:33.0     -83   -185    162    203    259 204.3  42.7  34212  290.46 0854.60
2009/04/23 14:55:33.1     -18   -181    -19    182    184 185.8  -6.2  34214  290.48 0854.60
2009/04/23 14:55:33.2      23   -329    -67    330    337 176.0 -11.6  34190  290.08 0854.60
2009/04/23 14:55:33.3     -47   -235    -33    240    243 191.5  -8.0  34188  290.03 0854.60
2009/04/23 14:55:33.4    -104    -75     98    129    162 234.0  41.2  34200  290.26 0854.60
2009/04/23 14:55:33.5    -160     72     63    176    186 294.4  20.4  34204  290.33 0854.60
2009/04/23 14:55:33.6    -207    141    -67    251    260 304.4 -15.0  34204  290.31 0854.60
2009/04/23 14:55:33.7    -112    161    -70    197    210 325.3 -19.7  34242  290.96 0854.60
2009/04/23 14:55:33.8    -147    243    -93    285    300 328.8 -18.1  34250  291.10 0854.60
2009/04/23 14:55:33.9    -209    102   -232    233    328 296.0 -54.5  34240  290.92 0854.60
2009/04/23 14:55:34.0    -270   -226     37    353    356 230.0   6.1  34214  290.49 0854.62
2009/04/23 14:55:34.1    -532     -7   -148    533    554 269.2 -15.5  34182  289.96 0854.62
2009/04/23 14:55:34.2    -572     13   -198    573    607 271.4 -19.1  34218  290.56 0854.62
2009/04/23 14:55:34.3    -588     64   -187    592    620 276.2 -22.6  34194  290.15 0854.62
2009/04/23 14:55:34.4    -623     77   -253    628    677 277.1 -27.5  34200  290.26 0854.62
2009/04/23 14:55:34.5    -550     68   -172    555    581 277.1 -22.2  34210  290.41 0854.62
2009/04/23 14:55:34.6    -450      9   -191    451    489 271.3 -28.7  34228  290.73 0854.62
2009/04/23 14:55:34.7    -413      7   -186    414    453 271.0 -30.3  34218  290.56 0854.62
2009/04/23 14:55:34.8    -446    -65    -98    451    462 261.6 -12.3  34240  290.94 0854.62
2009/04/23 14:55:34.9    -442    -26   -204    443    487 266.6 -30.9  34228  290.74 0854.61
2009/04/23 14:55:35.0    -404     37   -148    406    432 275.4 -25.4  34222  290.61 0854.61
2009/04/23 14:55:35.1    -310     35   -176    313    359 276.6 -36.1  34212  290.45 0854.61
2009/04/23 14:55:35.2    -373     -4   -154    374    404 269.3 -28.2  34220  290.60 0854.61
2009/04/23 14:55:35.3    -269    187   -169    328    368 304.9 -33.7  34218  290.57 0854.61
2009/04/23 14:55:35.4    -285    207   -126    353    374 306.0 -24.8  34218  290.55 0854.61
2009/04/23 14:55:35.5    -301    260    -91    398    409 310.8 -12.9  34214  290.50 0854.61
2009/04/23 14:55:35.6    -328    250    -22    413    414 307.4  -3.2  34214  290.50 0854.61
2009/04/23 14:55:35.7    -282     89     71    296    305 287.7  13.5  34204  290.31 0854.61
2009/04/23 14:55:35.8    -192    153    -97    246    264 308.6 -27.2  34198  290.20 0854.61
2009/04/23 14:55:35.9    -308    212    -35    375    377 304.6  -5.5  34214  290.50 0854.61
2009/04/23 14:55:36.0    -277     47    -80    282    294 279.7 -15.8  34214  290.49 0854.61
2009/04/23 14:55:36.1    -423    121   -128    441    460 286.0 -16.2  34218  290.55 0854.61
2009/04/23 14:55:36.2    -435     67    -24    441    442 278.8  -3.1  34214  290.48 0854.61
2009/04/23 14:55:36.4    -311    197    160    369    402 302.4  25.0  34218  290.57 0854.61
2009/04/23 14:55:36.5    -296    214    144    366    393 305.9  22.7  34222  290.62 0854.61
2009/04/23 14:55:36.6    -316    137    125    345    368 293.4  19.9  34220  290.60 0854.61
2009/04/23 14:55:36.7    -361    169    -27    399    400 295.2  -3.9  34222  290.62 0854.61
2009/04/23 14:55:36.8    -395    231    -41    458    460 300.4  -5.2  34212  290.46 0854.61
2009/04/23 14:55:36.9    -308    173      9    354    355 299.4   1.6  34218  290.57 0854.61
2009/04/23 14:55:37.0    -369    249    -20    446    447 304.1  -2.6  34212  290.46 0854.58
2009/04/23 14:55:37.1    -349    229    -61    418    423 303.3  -8.4  34200  290.26 0854.58
2009/04/23 14:55:37.2    -346    220    -29    411    412 302.5  -4.1  34218  290.56 0854.58
2009/04/23 14:55:37.3    -335     84    -19    346    347 284.2  -3.2  34220  290.59 0854.58
2009/04/23 14:55:37.4    -229    140     52    269    275 301.5  11.0  34230  290.76 0854.58
2009/04/23 14:55:37.5    -200    159    112    256    279 308.4  25.1  34232  290.78 0854.58
2009/04/23 14:55:37.6     -82    183    133    201    241 335.9  36.5  34230  290.77 0854.58
2009/04/23 14:55:37.7     -43     64    109     78    134 325.7  61.1  34244  291.01 0854.58
2009/04/23 14:55:37.8    -166    128     58    210    219 307.8  15.6  34222  290.62 0854.58
2009/04/23 14:55:37.9     -89     71    -37    114    119 308.6 -23.3  34218  290.55 0854.58
2009/04/23 14:55:38.0     -72    -40     25     83     87 241.1  17.3  34224  290.67 0854.58
2009/04/23 14:55:38.1     -67     20    -37     70     79 286.8 -34.7  34228  290.74 0854.58
2009/04/23 14:55:38.2     -13      4    -62     14     63 288.4 -90.0  34238  290.91 0854.58
2009/04/23 14:55:38.3     -17      0    -45     18     48 270.0 -83.6  34242  290.98 0854.58
2009/04/23 14:55:38.4     -31     31    -11     45     47 315.0 -14.5  34244  291.01 0854.58
2009/04/23 14:55:38.5     -43     13     17     45     48 286.8  20.0  34236  290.87 0854.58
2009/04/23 14:55:38.6     -69     19    -29     72     77 285.9 -27.4  34246  291.03 0854.58
2009/04/23 14:55:38.7     -74     31    -46     81     93 293.1 -36.3  34246  291.03 0854.58
2009/04/23 14:55:38.8    -150     -2     48    151    159 269.2  17.9  34236  290.87 0854.58
2009/04/23 14:55:38.9    -163    -14      0    164    165 264.8  -0.3  34242  290.96 0854.58
2009/04/23 14:55:39.0    -128    -64    -86    144    167 243.4 -38.4  34232  290.81 0854.56
2009/04/23 14:55:39.1    -148   -119    -98    191    214 231.1 -33.7  34224  290.65 0854.56
2009/04/23 14:55:39.2    -203   -186   -127    276    303 227.6 -31.0  34214  290.49 0854.56
2009/04/23 14:55:39.3    -199   -164   -121    259    285 230.5 -31.5  34216  290.53 0854.56
2009/04/23 14:55:39.4    -117   -150   -154    191    245 218.1 -47.7  34208  290.40 0854.56
2009/04/23 14:55:39.5    -188    -50   -125    195    231 254.9 -40.0  34206  290.36 0854.56
2009/04/23 14:55:39.6    -196    -31   -126    199    235 260.8 -39.9  34202  290.28 0854.56
2009/04/23 14:55:39.7    -140    -53    -91    150    175 249.2 -38.8  34206  290.35 0854.56
2009/04/23 14:55:39.8    -223    -23    -80    225    238 264.1 -24.6  34210  290.42 0854.56
2009/04/23 14:55:39.9    -129     56    -33    141    145 293.5 -13.3  34214  290.50 0854.56
2009/04/23 14:55:40.0     -74    109    -39    132    138 325.7 -16.6  34226  290.70 0854.56
2009/04/23 14:55:40.1    -148     39    -38    154    159 285.1 -13.9  34218  290.55 0854.56
2009/04/23 14:55:40.2    -173     58     47    183    190 288.6  14.5  34216  290.53 0854.56
2009/04/23 14:55:40.3    -138     65     22    153    155 295.4   8.5  34222  290.64 0854.56
2009/04/23 14:55:40.4    -133     44     17    141    143 288.6   6.9  34220  290.60 0854.56
2009/04/23 14:55:40.5    -173     61     65    184    195 289.5  20.0  34218  290.55 0854.56
2009/04/23 14:55:40.6    -185     42     34    190    194 282.8  10.1  34220  290.58 0854.56
2009/04/23 14:55:40.7     -95    -19     40     97    104 258.6  23.0  34220  290.58 0854.56
2009/04/23 14:55:40.8     -24    -71     72     76    104 198.7  49.0  34224  290.67 0854.56
2009/04/23 14:55:40.9     -13    -99     34    100    106 187.6  19.2  34216  290.53 0854.56
2009/04/23 14:55:41.0     -37   -110     -6    117    118 198.5  -3.1  34214  290.48 0854.57
2009/04/23 14:55:41.1      -1    -77     -3     78     79 180.9  -2.2  34216  290.53 0854.57
2009/04/23 14:55:41.2     -25     -8      3     27     28 251.6   6.9  34218  290.57 0854.57
2009/04/23 14:55:41.3     -55    -18     30     59     66 251.6  29.3  34242  290.96 0854.57
2009/04/23 14:55:41.4     -30    -24     59     39     70 230.5  64.6  34260  291.28 0854.57
2009/04/23 14:55:41.5      -4    -28     77     29     82 188.0  78.6  34280  291.60 0854.57
2009/04/23 14:55:41.6      -7    -54     65     55     85 188.0  55.4  34274  291.52 0854.57
2009/04/23 14:55:41.7     -11    -33     44     35     56 198.7  56.4  34268  291.40 0854.57
2009/04/23 14:55:41.8     -60     49     51     78     93 309.5  36.0  34252  291.15 0854.57
2009/04/23 14:55:41.9     -93     51     37    107    114 298.9  19.4  34238  290.91 0854.57
2009/04/23 14:55:42.0    -133    160     87    209    226 320.4  23.8  34230  290.75 0854.57
2009/04/23 14:55:42.1    -158    118     69    198    210 306.6  19.4  34238  290.89 0854.57
2009/04/23 14:55:42.2    -169     57    114    179    212 288.8  35.5  34262  291.32 0854.57
2009/04/23 14:55:42.3    -173     72    126    188    226 292.6  37.0  34250  291.09 0854.57
2009/04/23 14:55:42.4    -233    -63     48    242    247 254.9  11.4  34242  290.97 0854.57
2009/04/23 14:55:42.5    -221     10    123    222    253 272.6  31.4  34242  290.95 0854.57
2009/04/23 14:55:42.6    -270     85    151    284    321 287.5  30.3  34264  291.34 0854.57
2009/04/23 14:55:42.7    -150     85    123    173    212 299.8  38.8  34252  291.13 0854.57
2009/04/23 14:55:42.8    -142     66    136    157    207 295.2  45.6  34258  291.25 0854.57
2009/04/23 14:55:42.9     -38    137    103    143    176 344.4  39.7  34262  291.30 0854.57
2009/04/23 14:55:43.0      36    205     87    209    226  10.0  23.8  34256  291.20 0854.56
2009/04/23 14:55:43.1     -23    236     46    238    243 354.4  11.1  34246  291.04 0854.56
2009/04/23 14:55:43.2     -51    231     94    237    254 347.5  23.0  34252  291.14 0854.56
2009/04/23 14:55:43.3    -166     98      1    193    194 300.7   0.5  34266  291.38 0854.56
2009/04/23 14:55:43.4    -212     -3     10    213    214 269.1   2.8  34268  291.42 0854.56
2009/04/23 14:55:43.5    -254      9     21    255    256 272.1   4.9  34290  291.77 0854.56
2009/04/23 14:55:43.6    -217     12     32    218    221 273.3   8.5  34290  291.79 0854.56
2009/04/23 14:55:43.7    -208     22     30    210    213 276.1   8.2  34302  291.98 0854.56
2009/04/23 14:55:43.8     -52     -4     99     53    112 264.8  69.3  34312  292.15 0854.56
2009/04/23 14:55:43.9     -62     -8     73     63     96 262.0  54.8  34318  292.25 0854.56
2009/04/23 14:55:44.0     -71    -59    106     93    141 230.0  54.3  34324  292.37 0854.56
2009/04/23 14:55:44.1     -95    -79    104    124    161 230.4  44.5  34320  292.29 0854.56
2009/04/23 14:55:44.2     -55   -125    146    137    200 203.7  52.1  34318  292.25 0854.56
2009/04/23 14:55:44.3    -105   -112     58    154    164 223.3  21.3  34314  292.18 0854.56
2009/04/23 14:55:44.4     -68   -121    101    140    172 209.4  39.1  34320  292.29 0854.56
2009/04/23 14:55:44.5     -13   -117    117    118    166 186.7  50.2  34312  292.15 0854.56
2009/04/23 14:55:44.6     -26   -134    166    137    215 191.1  56.4  34300  291.96 0854.56
2009/04/23 14:55:44.7    -111   -169    214    203    294 213.2  52.0  34288  291.75 0854.56
2009/04/23 14:55:44.8     -76   -220    198    234    306 199.2  44.5  34246  291.02 0854.56
2009/04/23 14:55:44.9    -121   -274    198    300    359 203.8  36.5  34246  291.03 0854.56
2009/04/23 14:55:45.0       0   -230    129    231    264 180.2  31.4  34240  290.93 0854.58
2009/04/23 14:55:45.1      59   -177    138    187    232 161.5  39.7  34244  291.01 0854.58
2009/04/23 14:55:45.2      31   -238     70    241    252 172.4  16.3  34240  290.92 0854.58
2009/04/23 14:55:45.3      27   -355     70    357    364 175.5  11.1  34236  290.86 0854.58
2009/04/23 14:55:45.4      61   -339    157    345    379 169.8  26.2  34238  290.91 0854.58
2009/04/23 14:55:45.5     -12   -320    175    321    365 182.2  31.0  34242  290.96 0854.58
2009/04/23 14:55:45.6     -99   -384     86    397    407 194.5  12.3  34238  290.89 0854.58
2009/04/23 14:55:45.7     -62   -364     87    370    381 189.8  13.3  34238  290.88 0854.58
2009/04/23 14:55:45.8     -51   -278    148    283    319 190.5  29.8  34234  290.82 0854.58
2009/04/23 14:55:45.9      54   -285    160    291    332 169.3  31.3  34238  290.88 0854.58
2009/04/23 14:55:46.0      76   -266    161    277    320 164.0  32.9  34236  290.87 0854.58
2009/04/23 14:55:46.1      32   -267    109    269    290 173.1  23.1  34242  290.95 0854.58
2009/04/23 14:55:46.2      20   -220     69    222    233 174.7  17.3  34238  290.91 0854.58
2009/04/23 14:55:46.3      -3   -185     13    186    187 181.1   4.2  34244  290.99 0854.58
2009/04/23 14:55:46.4     -45   -170     43    176    182 194.9  13.7  34244  291.01 0854.58
2009/04/23 14:55:46.5      -3   -253     69    254    264 180.7  15.2  34246  291.04 0854.58
2009/04/23 14:55:46.6     -11   -148     -5    149    150 184.4  -2.2  34244  291.01 0854.58
2009/04/23 14:55:46.7      11    -97    -35     98    104 173.3 -23.8  34240  290.92 0854.58
2009/04/23 14:55:46.8      12    -53    -21     55     58 166.6 -26.4  34244  291.01 0854.58
2009/04/23 14:55:46.9      65   -117    -77    134    154 151.0 -37.3  34242  290.96 0854.58
2009/04/23 14:55:47.0      82    -88   -106    121    160 136.8 -50.2  34246  291.03 0854.57
2009/04/23 14:55:47.1      32    -59    -78     68    103 151.0 -58.1  34250  291.11 0854.57
2009/04/23 14:55:47.2      80    -50    -49     95    106 122.4 -34.2  34244  291.01 0854.57
2009/04/23 14:55:47.3      52    -40    -45     66     79 127.8 -42.0  34246  291.03 0854.57
2009/04/23 14:55:47.4      32    -21    -10     39     41 124.2 -14.5  34248  291.08 0854.57
2009/04/23 14:55:47.5       9      3     -2     10     11  71.6 -11.3  34248  291.06 0854.57
2009/04/23 14:55:47.6      14     21     11     26     28  32.6  21.0  34258  291.25 0854.57
2009/04/23 14:55:47.7      31    -19     49     37     61 122.5  59.4  34268  291.42 0854.57
2009/04/23 14:55:47.8      46    -29     56     55     78 122.4  48.2  34256  291.20 0854.57
2009/04/23 14:55:47.9     102    -38     82    109    136 110.4  40.7  34240  290.92 0854.57
2009/04/23 14:55:48.0     113    -27    103    117    155 103.7  46.2  34240  290.92 0854.58
2009/04/23 14:55:48.1      34    -49     85     60    104 144.8  61.5  34260  291.28 0854.58
2009/04/23 14:55:48.2      93   -150     96    177    201 148.1  30.8  34250  291.11 0854.58
2009/04/23 14:55:48.3      72   -251    140    262    297 164.0  30.6  34228  290.73 0854.58
2009/04/23 14:55:48.4     147   -204    181    252    310 144.2  39.3  34230  290.75 0854.58
2009/04/23 14:55:48.5     235   -214    253    319    407 132.3  42.6  34234  290.83 0854.58
2009/04/23 14:55:48.6     246   -273    167    368    404 138.0  26.2  34236  290.86 0854.58
2009/04/23 14:55:48.7     204   -229     99    307    323 138.3  18.0  34240  290.93 0854.58
2009/04/23 14:55:48.8     174   -164     93    240    257 133.2  22.3  34250  291.09 0854.58
2009/04/23 14:55:48.9     138   -278    106    311    329 153.5  18.8  34246  291.02 0854.58
2009/04/23 14:55:49.0      99   -275     68    293    301 160.2  13.2  34234  290.83 0854.58
2009/04/23 14:55:49.1     130   -285     92    314    328 155.5  16.3  34242  290.97 0854.58
2009/04/23 14:55:49.2     200   -229     53    305    310 138.8   9.9  34234  290.83 0854.58
2009/04/23 14:55:49.3     105   -187     41    215    219 150.6  10.8  34230  290.77 0854.58
2009/04/23 14:55:49.4      87   -327    -75    339    348 165.0 -12.5  34238  290.89 0854.58
2009/04/23 14:55:49.5    -149   -239     64    282    290 211.9  12.9  34240  290.93 0854.58
2009/04/23 14:55:49.6      17   -227     21    228    230 175.6   5.4  34240  290.94 0854.58
2009/04/23 14:55:49.7       2   -108    120    109    162 178.6  53.0  34244  290.99 0854.58
2009/04/23 14:55:49.8      29   -144     70    148    163 168.4  27.2  34234  290.84 0854.58
2009/04/23 14:55:49.9      37    -24    100     45    109 123.3  74.0  34250  291.09 0854.58
2009/04/23 14:55:50.0       7   -161    126    162    205 177.5  42.0  34244  290.99 0854.59
2009/04/23 14:55:50.1     -12    -87     99     88    132 188.5  54.2  34246  291.04 0854.59
2009/04/23 14:55:50.2      42     76     95     88    129  29.0  52.2  34260  291.28 0854.59
2009/04/23 14:55:50.3      62    -83    140    104    174 143.0  59.8  34244  291.01 0854.59
2009/04/23 14:55:50.4     195   -170    192    259    322 131.1  40.1  34246  291.02 0854.59
2009/04/23 14:55:50.5     170   -143    110    223    248 130.0  28.2  34242  290.97 0854.59
2009/04/23 14:55:50.6     127   -107     80    167    185 130.2  27.3  34248  291.08 0854.59
2009/04/23 14:55:50.7     193   -192    -14    273    274 134.9  -3.1  34238  290.90 0854.59
2009/04/23 14:55:50.8     170   -347     18    387    388 153.9   2.8  34240  290.93 0854.59
2009/04/23 14:55:50.9     140   -309   -103    340    356 155.7 -17.0  34234  290.83 0854.59
2009/04/23 14:55:51.0      57   -136   -104    148    180 157.3 -43.2  34236  290.87 0854.59
2009/04/23 14:55:51.1      44    -69   -106     82    134 147.4 -62.9  34244  290.99 0854.59
2009/04/23 14:55:51.2       2    -25    -82     26     86 173.8 -85.6  34250  291.11 0854.59
2009/04/23 14:55:51.3      19     12    -68     23     71  57.6 -85.4  34252  291.13 0854.59
2009/04/23 14:55:51.4      43     38    -59     58     82  48.7 -54.5  34244  290.99 0854.59
2009/04/23 14:55:51.5      42     73    -14     85     87  30.3  -9.8  34240  290.94 0854.59
2009/04/23 14:55:51.6      62     39     37     74     82  57.5  28.2  34244  291.01 0854.59
2009/04/23 14:55:51.7       7      2     97      8     97  71.6  90.0  34260  291.26 0854.59
2009/04/23 14:55:51.8      76   -149    148    168    223 152.8  45.9  34242  290.96 0854.59
2009/04/23 14:55:51.9      38   -172    185    177    256 167.3  51.4  34240  290.92 0854.59
2009/04/23 14:55:52.0     119   -186    206    221    302 147.4  47.9  34234  290.82 0854.58
2009/04/23 14:55:52.1      20   -138    175    140    224 171.5  57.5  34234  290.84 0854.58
2009/04/23 14:55:52.2      71   -205    173    218    278 160.8  42.4  34228  290.71 0854.58
2009/04/23 14:55:52.3      70   -199    164    212    268 160.6  41.7  34232  290.78 0854.58
2009/04/23 14:55:52.4      63   -190    131    201    239 161.5  36.5  34224  290.65 0854.58
2009/04/23 14:55:52.5     112   -209    151    238    281 151.7  35.5  34232  290.78 0854.58
2009/04/23 14:55:52.6     129   -156     76    203    216 140.4  21.5  34232  290.79 0854.58
2009/04/23 14:55:52.7      73   -181     30    196    199 158.1   8.8  34228  290.74 0854.58
2009/04/23 14:55:52.8       0   -256    102    257    276 180.0  23.0  34226  290.68 0854.58
2009/04/23 14:55:52.9     137   -331    221    359    421 157.5  34.5  34218  290.57 0854.58
2009/04/23 14:55:53.0      92   -380    240    392    459 166.3  34.4  34210  290.43 0854.58
2009/04/23 14:55:53.1       3   -320    226    321    392 179.4  38.6  34218  290.57 0854.58
2009/04/23 14:55:53.2      54   -286    199    292    353 169.3  37.6  34204  290.33 0854.58
2009/04/23 14:55:53.3     -31   -349    401    351    532 185.2  54.3  34220  290.59 0854.58
2009/04/23 14:55:53.4     384   -316    354    498    610 129.5  39.0  34224  290.66 0854.58
2009/04/23 14:55:53.5     222   -373    245    435    499 149.3  31.9  34208  290.40 0854.58
2009/04/23 14:55:53.6     219   -456    178    507    538 154.3  19.4  34204  290.31 0854.58
2009/04/23 14:55:53.7     169   -480    181    509    540 160.6  20.4  34206  290.36 0854.58
2009/04/23 14:55:53.8     206   -424    177    472    504 154.1  21.5  34206  290.35 0854.58
2009/04/23 14:55:53.9     223   -477    138    527    545 155.0  14.7  34210  290.43 0854.58
2009/04/23 14:55:54.0     250   -571    319    624    700 156.3  29.2  34230  290.77 0854.60
2009/04/23 14:55:54.1     231   -480    278    533    601 154.3  29.6  34202  290.27 0854.60
2009/04/23 14:55:54.2       0   -413    332    414    530 180.1  42.9  34216  290.52 0854.60
2009/04/23 14:55:54.3     -58   -501    181    505    536 186.7  20.4  34208  290.40 0854.60
2009/04/23 14:55:54.4      91   -467    154    477    502 168.9  17.9  34206  290.35 0854.60
2009/04/23 14:55:54.5     -94   -464     50    474    477 191.5   6.1  34212  290.44 0854.60
2009/04/23 14:55:54.6    -117   -472   -109    487    500 194.0 -12.6  34212  290.44 0854.60
2009/04/23 14:55:54.7     -30   -426   -144    428    452 184.1 -18.7  34214  290.48 0854.60
2009/04/23 14:55:54.8     -50   -457    -88    460    469 186.3 -10.8  34220  290.59 0854.60
2009/04/23 14:55:54.9      50   -434   -133    437    457 173.4 -17.0  34222  290.61 0854.60
2009/04/23 14:55:55.0     103   -336   -112    352    370 163.0 -17.7  34224  290.67 0854.60
2009/04/23 14:55:55.1     171   -262    -85    314    326 146.8 -15.2  34216  290.51 0854.60
2009/04/23 14:55:55.2     108   -258    -72    280    290 157.2 -14.4  34224  290.65 0854.60
2009/04/23 14:55:55.3      78   -331    -35    341    343 166.8  -5.9  34226  290.69 0854.60
2009/04/23 14:55:55.4     132   -247    -29    281    283 151.9  -6.0  34222  290.63 0854.60
2009/04/23 14:55:55.5     169   -269     75    318    327 147.9  13.3  34220  290.58 0854.60
2009/04/23 14:55:55.6     396   -505    125    643    656 141.9  11.0  34230  290.77 0854.60
2009/04/23 14:55:55.7     299   -470    143    558    577 147.5  14.4  34218  290.56 0854.60
2009/04/23 14:55:55.8     460   -431    337    631    715 133.1  30.3  34204  290.31 0854.60
2009/04/23 14:55:55.9     297   -262    242    397    464 131.4  34.3  34202  290.29 0854.60
2009/04/23 14:55:56.0     201   -295    155    358    390 145.7  24.9  34198  290.21 0854.58
2009/04/23 14:55:56.1     101   -425    182    437    473 166.6  23.9  34196  290.17 0854.58
2009/04/23 14:55:56.2     -48   -439    186    442    479 186.3  24.2  34190  290.08 0854.58
2009/04/23 14:55:56.3     -94   -365    -39    378    380 194.5  -5.9  34202  290.28 0854.58
2009/04/23 14:55:56.4     -23   -332     26    333    335 184.1   4.5  34202  290.28 0854.58
2009/04/23 14:55:56.5     -59   -361    117    366    385 189.3  17.7  34208  290.38 0854.58
2009/04/23 14:55:56.6     -99   -306     77    322    332 198.1  13.6  34202  290.29 0854.58
2009/04/23 14:55:56.7     -78   -326     98    336    351 193.5  16.3  34200  290.25 0854.58
2009/04/23 14:55:56.8     -96   -340    208    354    410 195.8  33.3  34184  289.98 0854.58
2009/04/23 14:55:56.9    -244   -344    153    422    448 215.4  20.9  34186  290.02 0854.58
2009/04/23 14:55:57.0    -138   -270    165    304    345 207.2  30.9  34202  290.30 0854.58
2009/04/23 14:55:57.1    -251   -399    259    472    538 212.2  31.3  34214  290.49 0854.58
2009/04/23 14:55:57.2    -286   -197    -16    348    349 235.4  -2.8  34232  290.79 0854.58
2009/04/23 14:55:57.3    -164   -277    -43    322    325 210.7  -7.7  34218  290.54 0854.58
2009/04/23 14:55:57.4    -160     84    -27    181    184 297.8  -8.6  34216  290.52 0854.58
2009/04/23 14:55:57.5    -348     83    148    358    387 283.4  23.7  34212  290.47 0854.58
2009/04/23 14:55:57.6    -144      7    207    145    252 273.0  61.7  34226  290.69 0854.58
2009/04/23 14:55:57.7     -80    -16    198     82    214 258.1  76.6  34230  290.77 0854.58
2009/04/23 14:55:57.8     -96    171    242    197    312 330.8  56.4  34220  290.58 0854.58
2009/04/23 14:55:57.9    -163    198    134    257    289 320.6  29.3  34216  290.51 0854.58
2009/04/23 14:55:58.0    -158    261    218    306    375 328.8  39.1  34212  290.45 0854.59
2009/04/23 14:55:58.1    -237    257    107    350    367 317.4  17.1  34208  290.38 0854.59
2009/04/23 14:55:58.2     -73    222    220    234    321 341.7  48.2  34222  290.61 0854.59
2009/04/23 14:55:58.3    -145    163    250    219    332 318.3  54.4  34234  290.83 0854.59
2009/04/23 14:55:58.4    -236    -69    155    246    290 253.6  35.5  34240  290.92 0854.59
2009/04/23 14:55:58.5    -301     -4    232    302    380 269.2  41.5  34230  290.76 0854.59
2009/04/23 14:55:58.6    -337   -137    280    364    459 247.8  41.6  34224  290.65 0854.59
2009/04/23 14:55:58.7    -206    129    125    244    274 302.0  29.2  34222  290.63 0854.59
2009/04/23 14:55:58.8    -250    233     70    342    350 313.0  11.6  34228  290.74 0854.59
2009/04/23 14:55:58.9    -359    313    324    477    576 311.0  37.4  34236  290.86 0854.59
2009/04/23 14:55:59.0    -502    233    277    554    619 294.9  28.5  34250  291.09 0854.59
2009/04/23 14:55:59.1    -482    204      3    524    525 293.0   0.4  34236  290.86 0854.59
2009/04/23 14:55:59.2    -371   -358      0    516    517 226.0   0.0  34228  290.73 0854.59
2009/04/23 14:55:59.3    -426   -346    128    550    565 230.9  13.1  34224  290.67 0854.59
2009/04/23 14:55:59.4    -509   -387     52    640    643 232.7   4.7  34222  290.62 0854.59
2009/04/23 14:55:59.5    -362   -379    178    525    555 223.7  18.8  34198  290.21 0854.59
2009/04/23 14:55:59.6    -377   -348     81    514    521 227.3   9.0  34202  290.30 0854.59
2009/04/23 14:55:59.7    -364   -387     11    532    533 223.2   1.2  34214  290.48 0854.59
2009/04/23 14:55:59.8    -155   -510    186    534    565 197.0  20.0  34200  290.26 0854.59
2009/04/23 14:55:59.9    -140   -411    118    435    451 198.8  15.2  34190  290.09 0854.59
2009/04/23 14:56:00.0     -51   -412    327    416    529 187.1  42.2  34190  290.08 0854.61
2009/04/23 14:56:00.1    -150   -342    263    374    457 203.7  38.6  34202  290.29 0854.61
2009/04/23 14:56:00.2    -111   -446    305    460    551 194.1  36.6  34200  290.24 0854.61
2009/04/23 14:56:00.3     -67   -565    340    569    662 186.8  33.6  34210  290.43 0854.61
2009/04/23 14:56:00.4      14   -675    384    676    777 178.8  32.2  34210  290.41 0854.61
2009/04/23 14:56:00.5     213   -545    279    586    649 158.6  27.3  34192  290.11 0854.61
2009/04/23 14:56:00.6     276   -584    276    647    703 154.7  24.5  34158  289.53 0854.61
2009/04/23 14:56:00.7     373   -603    381    710    805 148.3  30.6  34156  289.52 0854.61
2009/04/23 14:56:00.8     467   -564    433    733    851 140.4  33.4  34162  289.60 0854.61
2009/04/23 14:56:00.9     107   -700    108    709    718 171.3   8.7  34166  289.66 0854.61
2009/04/23 14:56:01.0     -57   -647    254    650    697 185.1  22.5  34178  289.87 0854.61
2009/04/23 14:56:01.1      34   -540    213    542    582 176.4  22.7  34180  289.90 0854.61
2009/04/23 14:56:01.2     -22   -446     96    447    458 182.9  12.1  34168  289.72 0854.61
2009/04/23 14:56:01.3     -99   -471     67    482    487 191.9   8.0  34176  289.84 0854.61
2009/04/23 14:56:01.4    -162   -383    127    416    436 203.0  17.0  34182  289.94 0854.61
2009/04/23 14:56:01.5     -57   -384    204    389    439 188.5  30.0  34192  290.12 0854.61
2009/04/23 14:56:01.6    -332   -674    131    752    764 206.2   9.9  34156  289.51 0854.61
2009/04/23 14:56:01.7    -122   -509   -138    524    542 193.6 -14.8  34186  290.02 0854.61
2009/04/23 14:56:01.8      37   -332    -40    335    338 173.5  -6.8  34176  289.84 0854.61
2009/04/23 14:56:01.9     203   -479    -60    521    525 157.0  -6.6  34164  289.63 0854.62
2009/04/23 14:56:02.0     325   -547    -65    637    641 149.3  -5.9  34154  289.48 0854.62
2009/04/23 14:56:02.1     200   -644    -32    675    676 162.7  -2.8  34148  289.36 0854.62
2009/04/23 14:56:02.2     233   -691     65    730    734 161.3   5.1  34136  289.15 0854.62
2009/04/23 14:56:02.3     139   -641    120    657    668 167.7  10.4  34132  289.10 0854.62
2009/04/23 14:56:02.4      25   -571     37    572    574 177.4   3.7  34138  289.20 0854.62
2009/04/23 14:56:02.5     -41   -524    -55    526    529 184.5  -6.0  34150  289.40 0854.62
2009/04/23 14:56:02.6    -158   -450    -60    478    482 199.4  -7.2  34156  289.52 0854.62
2009/04/23 14:56:02.7     -66   -474    -60    479    483 188.0  -7.2  34156  289.52 0854.62
2009/04/23 14:56:02.8       1   -461    -43    462    465 179.8  -5.4  34140  289.22 0854.62
2009/04/23 14:56:02.9     -63   -529    -11    533    534 186.8  -1.3  34154  289.48 0854.62
2009/04/23 14:56:03.0      19   -751     71    752    756 178.5   5.5  34136  289.16 0854.62
2009/04/23 14:56:03.1     -39   -622     90    624    631 183.6   8.2  34132  289.11 0854.62
2009/04/23 14:56:03.3    -128   -470      1    488    489 195.3   0.2  34146  289.34 0854.62
2009/04/23 14:56:03.3    -263   -282   -158    386    417 223.0 -27.9  34172  289.78 0854.62
2009/04/23 14:56:03.4    -260   -345   -128    433    452 217.0 -16.5  34170  289.75 0854.62
2009/04/23 14:56:03.6    -183   -276   -115    332    351 213.6 -23.9  34164  289.65 0854.62
2009/04/23 14:56:03.6    -107   -401   -177    416    452 195.0 -28.7  34150  289.41 0854.62
2009/04/23 14:56:03.7    -128   -392   -190    413    454 198.1 -30.8  34144  289.31 0854.62
2009/04/23 14:56:03.9    -121   -382   -215    401    455 197.7 -35.0  34144  289.31 0854.62
2009/04/23 14:56:04.0       7   -464   -163    465    492 179.1 -24.5  34150  289.39 0854.62
2009/04/23 14:56:04.1      28   -397   -118    398    416 175.9 -16.5  34138  289.19 0854.62
2009/04/23 14:56:04.2      29   -297   -101    299    316 174.4 -18.7  34140  289.24 0854.62
2009/04/23 14:56:04.3      61   -298   -107    305    324 168.4 -19.3  34142  289.25 0854.62
2009/04/23 14:56:04.4     120   -352    -89    373    384 161.1 -13.4  34140  289.23 0854.62
2009/04/23 14:56:04.5      79   -332    -35    342    344 166.6  -5.9  34132  289.10 0854.62
2009/04/23 14:56:04.6      50   -324    -21    329    330 171.1  -3.8  34136  289.15 0854.62
2009/04/23 14:56:04.7      43   -383     88    386    397 173.5  12.9  34126  289.01 0854.62
2009/04/23 14:56:04.8     100   -369    131    383    405 164.9  18.9  34132  289.10 0854.62
2009/04/23 14:56:04.9      27   -331    203    333    389 175.2  34.3  34130  289.08 0854.62
2009/04/23 14:56:05.0     -85   -272    182    286    338 197.4  35.5  34136  289.15 0854.62
2009/04/23 14:56:05.1    -297   -260     80    395    404 228.8  11.6  34138  289.21 0854.62
2009/04/23 14:56:05.2    -231   -237     79    332    342 224.3  13.5  34140  289.23 0854.62
2009/04/23 14:56:05.3    -201   -121     83    235    250 238.9  19.4  34156  289.51 0854.62
2009/04/23 14:56:05.4    -180    -63     76    191    205 250.5  22.8  34160  289.58 0854.62
2009/04/23 14:56:05.5    -181   -160    -22    242    244 228.4  -5.2  34150  289.41 0854.62
2009/04/23 14:56:05.6    -180   -217   -161    283    325 219.7 -36.7  34146  289.32 0854.62
2009/04/23 14:56:05.7    -101   -253    -97    273    290 201.8 -19.7  34144  289.31 0854.62
2009/04/23 14:56:05.8     -32    -47    -94     58    110 214.3 -69.1  34148  289.38 0854.62
2009/04/23 14:56:05.9       0    -92     67     93    114 180.4  39.5  34142  289.26 0854.62
2009/04/23 14:56:06.0    -168   -130    -39    213    217 232.2 -10.5  34146  289.35 0854.62
2009/04/23 14:56:06.1    -229   -174   -137    288    318 232.7 -31.6  34146  289.34 0854.62
2009/04/23 14:56:06.2    -230    -94   -178    249    306 247.8 -43.7  34150  289.41 0854.62
2009/04/23 14:56:06.3    -174    -57   -201    184    272 251.8 -57.1  34154  289.46 0854.62
2009/04/23 14:56:06.4    -197    -91   -277    218    352 245.2 -62.4  34156  289.49 0854.62
2009/04/23 14:56:06.5    -334   -110   -330    352    482 251.7 -52.4  34148  289.38 0854.62
2009/04/23 14:56:06.6    -122    -26   -263    125    291 257.6 -77.3  34152  289.42 0854.62
2009/04/23 14:56:06.7     -72   -213   -227    225    319 198.7 -54.5  34152  289.42 0854.62
2009/04/23 14:56:06.8    -225   -337   -112    406    422 213.8 -15.5  34144  289.29 0854.62
2009/04/23 14:56:06.9    -356   -321     -9    480    481 228.0  -1.2  34146  289.35 0854.62
2009/04/23 14:56:07.0    -345   -423    -70    547    552 219.2  -7.4  34150  289.41 0854.62
2009/04/23 14:56:07.1    -177   -369    -52    410    414 205.6  -7.3  34148  289.38 0854.62
2009/04/23 14:56:07.2     -53   -359    -88    364    375 188.5 -13.7  34146  289.33 0854.62
2009/04/23 14:56:07.3    -215   -122    -77    248    260 240.5 -17.3  34152  289.42 0854.62
2009/04/23 14:56:07.4    -240    -84   -115    255    279 250.7 -30.3  34150  289.41 0854.62
2009/04/23 14:56:07.5    -384   -107   -101    399    412 254.4 -14.3  34154  289.46 0854.62
2009/04/23 14:56:07.6    -462   -210   -161    508    533 245.6 -17.6  34162  289.60 0854.62
2009/04/23 14:56:07.7    -449   -125   -191    467    504 254.4 -27.9  34164  289.64 0854.62
2009/04/23 14:56:07.8    -526     37   -239    528    579 274.1 -30.6  34156  289.50 0854.62
2009/04/23 14:56:07.9    -593    101   -176    602    627 279.7 -21.0  34172  289.79 0854.62
2009/04/23 14:56:08.0    -516   -131    -42    533    535 255.7  -4.6  34196  290.18 0854.62
2009/04/23 14:56:08.1    -557   -134   -139    573    590 256.4 -13.7  34204  290.32 0854.62
2009/04/23 14:56:08.2    -391   -121   -125    410    429 252.8 -17.0  34190  290.07 0854.62
2009/04/23 14:56:08.3    -272   -238   -112    362    380 228.9 -17.3  34184  289.99 0854.62
2009/04/23 14:56:08.4    -357   -273     19    450    451 232.5   2.5  34186  290.00 0854.62
2009/04/23 14:56:08.5    -217   -176     67    280    288 230.9  13.5  34174  289.81 0854.62
2009/04/23 14:56:08.6    -141   -446   -186    468    503 197.6 -27.4  34158  289.54 0854.62
2009/04/23 14:56:08.7     137   -416   -123    439    457 161.7 -15.7  34156  289.49 0854.62
2009/04/23 14:56:08.8      17   -485   -148    486    508 178.0 -21.8  34156  289.50 0854.62
2009/04/23 14:56:08.9     -76   -380    -76    388    396 191.3 -11.1  34158  289.54 0854.62
2009/04/23 14:56:09.0     -16   -458    -75    459    466 182.0  -9.4  34154  289.46 0854.63
2009/04/23 14:56:09.1    -141   -436   -137    459    480 197.9 -16.7  34158  289.54 0854.63
2009/04/23 14:56:09.2    -203   -384    -67    435    441 207.9  -8.8  34156  289.51 0854.63
2009/04/23 14:56:09.3    -155   -351    -82    384    393 203.9 -12.2  34160  289.57 0854.63
2009/04/23 14:56:09.4    -160   -441   -154    470    495 200.0 -18.2  34162  289.59 0854.63
2009/04/23 14:56:09.5     180   -433   -152    469    494 157.4 -18.0  34166  289.67 0854.63
2009/04/23 14:56:09.6     220   -378    -31    438    440 149.8  -4.1  34168  289.72 0854.63
2009/04/23 14:56:09.7      34   -491    -89    493    502 176.0 -10.2  34170  289.73 0854.63
2009/04/23 14:56:09.8     164   -625     29    647    648 165.3   2.6  34166  289.69 0854.63
2009/04/23 14:56:09.9     -42   -542     97    544    553 184.5  10.1  34172  289.79 0854.63
2009/04/23 14:56:10.0     225   -623     27    663    664 160.1   2.3  34166  289.66 0854.63
2009/04/23 14:56:10.1     239   -564     76    613    618 157.0   7.1  34152  289.45 0854.63
2009/04/23 14:56:10.2     234   -534     31    584    585 156.3   3.1  34144  289.29 0854.63
2009/04/23 14:56:10.3     250   -525     61    582    586 154.5   6.1  34154  289.46 0854.63
2009/04/23 14:56:10.4     230   -630    125    671    683 159.9  10.6  34154  289.46 0854.63
2009/04/23 14:56:10.5     223   -430    213    485    529 152.6  25.2  34152  289.44 0854.63
2009/04/23 14:56:10.6     189   -337    164    387    420 150.7  24.3  34156  289.49 0854.63
2009/04/23 14:56:10.7     190   -346    146    395    421 151.2  21.1  34150  289.39 0854.63
2009/04/23 14:56:10.8     181   -479    190    513    547 159.3  21.1  34158  289.55 0854.63
2009/04/23 14:56:10.9      94   -456    174    466    497 168.3  21.5  34162  289.61 0854.63
2009/04/23 14:56:11.0      92   -383     49    394    398 166.5   7.2  34162  289.59 0854.64
2009/04/23 14:56:11.1     162   -332    -27    370    371 153.9  -4.2  34164  289.64 0854.64
2009/04/23 14:56:11.2     182   -309     98    359    373 149.4  15.3  34164  289.64 0854.64
2009/04/23 14:56:11.3     198   -325      5    381    382 148.6   0.8  34174  289.81 0854.64
2009/04/23 14:56:11.4      89   -341     94    353    366 165.3  15.0  34178  289.87 0854.64
2009/04/23 14:56:11.5       0   -513    199    514    551 180.1  22.3  34172  289.79 0854.64
2009/04/23 14:56:11.6     -37   -462    234    464    519 184.7  28.8  34178  289.86 0854.64
2009/04/23 14:56:11.7     -41   -416    220    419    473 185.7  30.0  34182  289.94 0854.64
2009/04/23 14:56:11.8    -144   -369    182    397    436 201.3  26.3  34180  289.92 0854.64
2009/04/23 14:56:11.9    -168   -343    133    383    406 206.1  19.2  34180  289.91 0854.64
2009/04/23 14:56:12.0    -158   -190      6    248    249 219.7   1.6  34180  289.90 0854.64
2009/04/23 14:56:12.1      99   -243    231    263    350 157.7  45.8  34182  289.95 0854.64
2009/04/23 14:56:12.2      86   -423     59    432    436 168.4   7.8  34182  289.95 0854.64
2009/04/23 14:56:12.3      66   -398     56    404    409 170.6   8.0  34178  289.88 0854.64
2009/04/23 14:56:12.4      33   -396    -51    398    402 175.2  -7.3  34180  289.91 0854.64
2009/04/23 14:56:12.5      33   -339    -69    341    348 174.4 -11.5  34180  289.91 0854.64
2009/04/23 14:56:12.6      74   -429   -143    436    458 170.2 -23.6  34174  289.82 0854.64
2009/04/23 14:56:12.7      15   -456   -189    457    494 178.0 -28.1  34176  289.84 0854.64
2009/04/23 14:56:12.8      57   -419   -151    423    450 172.2 -19.7  34172  289.78 0854.64
2009/04/23 14:56:12.9      64   -572    -62    576    580 173.5  -6.2  34172  289.78 0854.64
2009/04/23 14:56:13.0      16   -639     -9    640    641 178.5  -0.9  34162  289.59 0854.64
2009/04/23 14:56:13.1     247   -553     63    606    610 155.9   6.0  34168  289.71 0854.64
2009/04/23 14:56:13.2     155   -601    -34    621    622 165.5  -3.2  34170  289.74 0854.64
2009/04/23 14:56:13.3     104   -560   -145    570    589 169.4 -14.3  34164  289.64 0854.64
2009/04/23 14:56:13.4     115   -488   -102    502    513 166.7 -11.5  34166  289.66 0854.64
2009/04/23 14:56:13.5     254   -524    -43    583    585 154.1  -4.2  34154  289.46 0854.64
2009/04/23 14:56:13.6     173   -701     90    723    729 166.1   7.1  34150  289.40 0854.64
2009/04/23 14:56:13.7     243   -586    -47    635    637 157.4  -4.2  34164  289.65 0854.64
2009/04/23 14:56:13.8     213   -523    -27    565    566 157.8  -2.8  34160  289.57 0854.64
2009/04/23 14:56:13.9     124   -705     -7    717    718 170.0  -0.6  34172  289.78 0854.64
2009/04/23 14:56:14.0      33   -810     51    811    813 177.7   3.6  34154  289.47 0854.64
2009/04/23 14:56:14.1      67   -649     19    653    654 174.0   1.7  34158  289.55 0854.64
2009/04/23 14:56:14.2    -122   -602      8    615    616 191.5   0.8  34176  289.84 0854.64
2009/04/23 14:56:14.3    -137   -721    100    734    741 190.8   7.8  34166  289.67 0854.64
2009/04/23 14:56:14.4    -157   -689    -33    707    708 192.9  -2.7  34180  289.91 0854.64
2009/04/23 14:56:14.5    -226   -494   -165    544    569 204.6 -16.9  34176  289.84 0854.64
2009/04/23 14:56:14.6    -266   -489   -192    557    590 208.6 -19.1  34184  289.97 0854.64
2009/04/23 14:56:14.7     167   -696    -34    716    717 166.5  -2.8  34152  289.45 0854.64
2009/04/23 14:56:14.8     225   -605    -47    646    648 159.5  -4.2  34154  289.47 0854.64
2009/04/23 14:56:14.9      47   -587    -30    589    590 175.4  -3.0  34162  289.59 0854.64
2009/04/23 14:56:15.0     180   -565     33    593    594 162.3   3.2  34152  289.44 0854.63
2009/04/23 14:56:15.1     155   -576    116    597    609 164.9  11.0  34138  289.20 0854.63
2009/04/23 14:56:15.2     261   -597     60    652    656 156.4   5.3  34138  289.20 0854.63
2009/04/23 14:56:15.3     185   -540    160    571    594 161.1  15.7  34142  289.25 0854.63
2009/04/23 14:56:15.4     107   -524    168    536    562 168.4  17.4  34154  289.46 0854.63
2009/04/23 14:56:15.5     -19   -415    171    416    449 182.7  23.6  34158  289.55 0854.63
2009/04/23 14:56:15.6    -109   -306    114    326    346 199.7  19.3  34162  289.59 0854.63
2009/04/23 14:56:15.7    -211   -348    169    408    441 211.3  23.8  34152  289.44 0854.63
2009/04/23 14:56:15.8    -324   -311     70    450    456 226.2   8.9  34146  289.33 0854.63
2009/04/23 14:56:15.9    -382   -210    -10    437    438 241.2  -1.4  34146  289.34 0854.63
2009/04/23 14:56:16.0    -230   -208     79    311    321 227.8  14.3  34144  289.29 0854.63
2009/04/23 14:56:16.1    -259   -277     36    380    382 223.0   5.5  34146  289.35 0854.63
2009/04/23 14:56:16.2    -214   -300      3    369    370 215.5   0.5  34148  289.38 0854.63
2009/04/23 14:56:16.3     -31   -383    216    385    441 184.7  31.6  34154  289.46 0854.63
2009/04/23 14:56:16.4     -73   -325     84    334    345 192.8  14.2  34154  289.47 0854.63
2009/04/23 14:56:16.5     -73   -287    198    297    356 194.3  36.9  34152  289.45 0854.63
2009/04/23 14:56:16.6     -53   -416     54    420    424 187.4   7.4  34166  289.68 0854.63
2009/04/23 14:56:16.7    -179   -487    -16    520    521 200.2  -1.8  34156  289.50 0854.63
2009/04/23 14:56:16.8    -153   -549    112    571    582 195.6  11.1  34162  289.61 0854.63
2009/04/23 14:56:16.9    -175   -518    -44    547    549 198.7  -4.7  34148  289.38 0854.63
2009/04/23 14:56:17.0     -95   -503   -101    512    522 190.7 -11.2  34150  289.40 0854.62
2009/04/23 14:56:17.1      47   -483   -140    486    505 174.4 -20.9  34152  289.44 0854.62
2009/04/23 14:56:17.2      40   -528   -125    530    545 175.7 -13.3  34156  289.50 0854.62
2009/04/23 14:56:17.3      64   -579    -99    583    592 173.7  -9.7  34154  289.46 0854.62
2009/04/23 14:56:17.4     289   -528   -157    603    624 151.3 -14.6  34148  289.38 0854.62
2009/04/23 14:56:17.5     182   -565    -33    594    595 162.1  -3.2  34154  289.46 0854.62
2009/04/23 14:56:17.6     114   -496   -158    510    533 167.0 -22.2  34144  289.29 0854.62
2009/04/23 14:56:17.7     -44   -568    184    570    599 184.5  17.9  34142  289.27 0854.62
2009/04/23 14:56:17.8     -68   -559     89    564    572 187.0   9.0  34142  289.26 0854.62
2009/04/23 14:56:17.9     -71   -493     85    499    507 188.3   9.7  34148  289.37 0854.62
2009/04/23 14:56:18.0     -36   -580    162    582    605 183.6  15.6  34148  289.37 0854.63
2009/04/23 14:56:18.1     -13   -630     36    631    633 181.3   3.3  34148  289.38 0854.63
2009/04/23 14:56:18.2     -63   -582     49    586    589 186.3   4.9  34154  289.47 0854.63
2009/04/23 14:56:18.3     -59   -546    129    550    565 186.2  13.2  34146  289.33 0854.63
2009/04/23 14:56:18.4     -13   -422    207    423    470 181.8  28.1  34158  289.53 0854.63
2009/04/23 14:56:18.5     -51   -191    133    198    238 195.1  37.3  34150  289.41 0854.63
2009/04/23 14:56:18.6     -18      0    151     19    152 270.0  90.0  34180  289.91 0854.63
2009/04/23 14:56:18.7    -211     12     90    212    230 273.5  24.6  34156  289.52 0854.63
2009/04/23 14:56:18.8    -273     17     20    274    275 273.7   4.2  34166  289.66 0854.63
2009/04/23 14:56:18.9    -230     55     45    237    242 283.5  10.8  34154  289.46 0854.63
2009/04/23 14:56:19.0    -362     42    125    365    386 276.7  18.9  34184  289.98 0854.63
2009/04/23 14:56:19.1    -208   -137     45    250    255 236.5  10.3  34162  289.59 0854.63
2009/04/23 14:56:19.2    -105   -291    156    310    347 200.0  28.7  34156  289.52 0854.63
2009/04/23 14:56:19.3     -84   -661     70    667    671 187.3   6.1  34150  289.41 0854.63
2009/04/23 14:56:19.4    -126   -716    112    728    737 190.0   8.8  34144  289.30 0854.63
2009/04/23 14:56:19.5     -17   -610    168    611    634 181.6  15.4  34152  289.42 0854.63
2009/04/23 14:56:19.6      16   -669    -10    670    671 178.6  -0.9  34140  289.24 0854.63
2009/04/23 14:56:19.7      72   -423    -31    430    432 170.3  -4.1  34142  289.27 0854.63
2009/04/23 14:56:19.8       0   -409   -113    410    426 180.0 -15.4  34158  289.53 0854.63
2009/04/23 14:56:19.9    -133   -377    -62    401    406 199.5  -8.8  34178  289.87 0854.63
2009/04/23 14:56:20.0    -129   -400    -84    421    430 197.9 -11.3  34166  289.66 0854.64
2009/04/23 14:56:20.1     -77   -449    -41    456    458 189.8  -5.2  34164  289.63 0854.64
2009/04/23 14:56:20.2      -4   -379     31    380    382 180.7   4.7  34172  289.79 0854.64
2009/04/23 14:56:20.3     -33   -439     -3    441    442 184.4  -0.5  34164  289.63 0854.64
2009/04/23 14:56:20.4     103   -398    189    412    453 165.5  26.3  34152  289.43 0854.64
2009/04/23 14:56:20.5     -23   -310    235    311    389 184.4  40.7  34160  289.57 0854.64
2009/04/23 14:56:20.6      76   -375    135    383    406 168.4  20.1  34162  289.62 0854.64
2009/04/23 14:56:20.7      87   -360    101    371    385 166.4  15.3  34162  289.60 0854.64
2009/04/23 14:56:20.8      93   -278    119    294    317 161.5  23.2  34158  289.54 0854.64
2009/04/23 14:56:20.9       0   -253     66    254    263 180.0  14.7  34160  289.58 0854.64
2009/04/23 14:56:21.0     -59   -250     92    257    272 193.4  20.2  34160  289.58 0854.64
2009/04/23 14:56:21.1    -120   -305    142    328    357 201.5  25.0  34168  289.72 0854.64
2009/04/23 14:56:21.2     -50   -337    168    341    380 188.5  28.1  34168  289.71 0854.64
2009/04/23 14:56:21.3    -137   -436    138    458    479 197.5  16.8  34164  289.64 0854.64
2009/04/23 14:56:21.4      76   -427    203    434    479 169.9  26.9  34158  289.54 0854.64
2009/04/23 14:56:21.5      37   -409    230    411    470 174.8  31.7  34144  289.29 0854.64
2009/04/23 14:56:21.6      43   -432    193    435    475 174.2  25.6  34148  289.36 0854.64
2009/04/23 14:56:21.7      58   -466    212    470    515 172.8  25.9  34136  289.18 0854.64
2009/04/23 14:56:21.8     149   -394    240    422    485 159.2  32.3  34150  289.39 0854.64
2009/04/23 14:56:21.9     -91   -381     92    392    403 193.5  13.3  34142  289.25 0854.64
2009/04/23 14:56:22.0      25   -220     23    222    224 173.3   6.1  34146  289.33 0854.64
2009/04/23 14:56:22.1      59   -238     76    246    258 166.0  17.3  34150  289.41 0854.64
2009/04/23 14:56:22.2     136   -287     54    318    323 154.6   9.7  34148  289.36 0854.64
2009/04/23 14:56:22.3     -19   -260    100    261    279 184.4  22.0  34152  289.44 0854.64
2009/04/23 14:56:22.4     -17   -191     24    192    194 185.3   7.2  34146  289.35 0854.64
2009/04/23 14:56:22.5      -5    -95     35     96    102 183.1  20.4  34150  289.40 0854.64
2009/04/23 14:56:22.6       9   -118    117    119    166 175.6  49.8  34154  289.48 0854.64
2009/04/23 14:56:22.7     -46    -38    121     61    135 230.4  71.4  34162  289.60 0854.64
2009/04/23 14:56:22.8     -52    -82    132     98    164 212.6  59.8  34160  289.57 0854.64
2009/04/23 14:56:22.9      14     89    118     91    149   8.9  58.5  34174  289.80 0854.64
2009/04/23 14:56:23.0     -24   -211    248    213    326 186.5  55.0  34166  289.68 0854.64
2009/04/23 14:56:23.1       0   -132    201    133    241 180.4  63.6  34168  289.72 0854.64
2009/04/23 14:56:23.2      30    -45    140     55    150 145.7  77.1  34174  289.80 0854.64
2009/04/23 14:56:23.3      19    -93    183     95    206 168.4  70.8  34170  289.75 0854.64
2009/04/23 14:56:23.4      72   -192    188    206    278 159.5  47.5  34164  289.63 0854.64
2009/04/23 14:56:23.5     154    -40    199    160    255 104.6  57.1  34172  289.79 0854.64
2009/04/23 14:56:23.6      21   -160    165    162    231 172.2  50.4  34172  289.77 0854.64
2009/04/23 14:56:23.7      81    -28    150     86    172 109.5  67.5  34158  289.55 0854.64
2009/04/23 14:56:23.8      54     49    156     73    172  47.8  73.2  34168  289.70 0854.64
2009/04/23 14:56:23.9      58     91    149    109    184  32.6  60.5  34172  289.79 0854.64
2009/04/23 14:56:24.0     172    113    209    207    294  56.7  50.2  34162  289.59 0854.62
2009/04/23 14:56:24.1     281     86    144    295    328  72.9  27.9  34158  289.54 0854.62
2009/04/23 14:56:24.2     268     56    175    274    325  78.1  35.6  34162  289.61 0854.62
2009/04/23 14:56:24.3     179     15    193    180    263  85.0  52.1  34166  289.66 0854.62
2009/04/23 14:56:24.4     178     36    149    182    235  78.5  43.7  34164  289.63 0854.62
2009/04/23 14:56:24.5     132     10    171    133    216  85.6  58.2  34166  289.67 0854.62
2009/04/23 14:56:24.6      -7    -38    158     39    162 191.6  86.2  34182  289.94 0854.62
2009/04/23 14:56:24.7      69   -103    202    125    237 146.2  65.6  34168  289.70 0854.62
2009/04/23 14:56:24.8      90   -184    233    205    310 153.9  54.3  34166  289.68 0854.62
2009/04/23 14:56:24.9      51   -364    313    368    483 172.0  44.7  34162  289.61 0854.62
2009/04/23 14:56:25.0      33   -422    320    424    531 175.4  40.8  34166  289.67 0854.62
2009/04/23 14:56:25.1      61   -491    397    495    634 172.9  42.9  34168  289.71 0854.62
2009/04/23 14:56:25.2      24   -516    469    517    698 177.3  46.9  34188  290.04 0854.62
2009/04/23 14:56:25.3      34   -444    407    446    603 175.6  47.0  34172  289.79 0854.62
2009/04/23 14:56:25.4     -10   -378    356    379    519 181.6  48.0  34180  289.91 0854.62
2009/04/23 14:56:25.5    -191   -374    344    421    543 207.1  43.7  34174  289.81 0854.62
2009/04/23 14:56:25.6    -328   -395    206    514    553 219.7  23.0  34168  289.70 0854.62
2009/04/23 14:56:25.7    -393   -249     32    466    468 237.6   4.0  34178  289.86 0854.62
2009/04/23 14:56:25.8    -316   -243    234    399    462 232.4  33.3  34174  289.82 0854.62
2009/04/23 14:56:25.9    -298    -49    143    303    335 260.5  27.1  34204  290.32 0854.62
2009/04/23 14:56:26.0    -243    -32    197    246    315 262.3  42.9  34234  290.82 0854.60
2009/04/23 14:56:26.1    -210   -183    191    279    338 228.9  37.8  34206  290.36 0854.60
2009/04/23 14:56:26.2    -156    -93    210    182    277 239.3  54.6  34214  290.49 0854.60
2009/04/23 14:56:26.3    -360    120     74    380    388 288.4  11.1  34224  290.66 0854.60
2009/04/23 14:56:26.4    -371     33    112    373    390 275.2  16.8  34232  290.79 0854.60
2009/04/23 14:56:26.5    -365    173    205    405    453 295.4  29.2  34228  290.73 0854.60
2009/04/23 14:56:26.6    -261    236     50    353    357 312.1   8.1  34230  290.77 0854.60
2009/04/23 14:56:26.7     -69     -4    182     70    195 266.5  78.4  34256  291.21 0854.60
2009/04/23 14:56:26.8      79      1    253     80    265  89.1  81.8  34256  291.21 0854.60
2009/04/23 14:56:26.9      72    208    187    221    289  19.2  44.5  34218  290.56 0854.60
2009/04/23 14:56:27.0     119    232    222    261    342  27.2  44.5  34252  291.14 0854.60
2009/04/23 14:56:27.1     -41    268    210    272    343 351.3  41.7  34268  291.41 0854.60
2009/04/23 14:56:27.2     -56    275    174    281    330 348.4  34.9  34258  291.24 0854.60
2009/04/23 14:56:27.3    -157    273    167    316    357 330.1  30.1  34254  291.18 0854.60
2009/04/23 14:56:27.4     -75    235    166    247    297 342.2  37.3  34258  291.22 0854.60
2009/04/23 14:56:27.5    -134    244    149    279    316 331.3  30.5  34280  291.61 0854.60
2009/04/23 14:56:27.6    -194    234    169    305    348 320.3  31.4  34286  291.71 0854.60
2009/04/23 14:56:27.7    -336     56     62    341    347 279.5  10.4  34282  291.64 0854.60
2009/04/23 14:56:27.8    -215     -3    -64    216    226 269.2 -16.6  34230  290.75 0854.60
2009/04/23 14:56:27.9    -160     76    -49    178    185 295.4 -15.5  34232  290.79 0854.60
2009/04/23 14:56:28.0    -130    -55    -40    142    148 246.9 -16.0  34226  290.70 0854.59
2009/04/23 14:56:28.1    -117     32    -38    122    127 285.5 -22.3  34224  290.65 0854.59
2009/04/23 14:56:28.2    -163    164    -59    232    240 315.2 -14.4  34248  291.07 0854.59
2009/04/23 14:56:28.3    -143    288     84    322    333 333.6  14.7  34272  291.49 0854.59
2009/04/23 14:56:28.4    -202    252     59    324    330 321.3  10.4  34264  291.34 0854.59
2009/04/23 14:56:28.5    -111    254     86    278    292 336.4  17.3  34280  291.60 0854.59
2009/04/23 14:56:28.6    -143    216    123    260    287 326.4  27.2  34300  291.96 0854.59
2009/04/23 14:56:28.7    -199    212    200    292    353 316.8  37.7  34308  292.10 0854.59
2009/04/23 14:56:28.8    -192    231    206    301    364 320.4  37.6  34280  291.62 0854.59
2009/04/23 14:56:28.9    -308    337    146    457    480 317.6  17.8  34272  291.46 0854.59
2009/04/23 14:56:29.0    -306    158     69    345    352 297.4  11.4  34272  291.47 0854.59
2009/04/23 14:56:29.1    -276    161     16    320    321 300.2   2.9  34256  291.19 0854.59
2009/04/23 14:56:29.2    -221   -177    114    284    306 231.4  23.1  34264  291.33 0854.59
2009/04/23 14:56:29.3    -314     57     57    320    326 280.4  10.1  34288  291.73 0854.59
2009/04/23 14:56:29.4    -343    160     35    379    381 295.1   5.3  34290  291.78 0854.59
2009/04/23 14:56:29.6    -365     50     98    369    382 277.8  15.0  34296  291.88 0854.59
2009/04/23 14:56:29.7    -272     38    100    275    292 278.1  20.9  34286  291.70 0854.59
2009/04/23 14:56:29.7    -136   -140    167    196    257 224.3  44.8  34288  291.75 0854.59
2009/04/23 14:56:29.8    -165    -90    159    189    246 241.4  44.5  34286  291.72 0854.59
2009/04/23 14:56:29.9    -108     16     87    110    140 278.8  42.2  34284  291.69 0854.55
2009/04/23 14:56:30.0     -47   -164     77    171    187 196.0  26.2  34262  291.30 0854.55
2009/04/23 14:56:30.2    -183   -387    116    429    445 205.3  15.1  34214  290.50 0854.55
2009/04/23 14:56:30.3    -184   -383    240    425    488 205.7  32.0  34238  290.90 0854.55
2009/04/23 14:56:30.4    -102   -291    215    309    376 199.4  38.4  34228  290.74 0854.55
2009/04/23 14:56:30.5     -84   -236    190    251    314 199.8  41.1  34230  290.75 0854.55
2009/04/23 14:56:30.6     -62    -66    110     91    142 223.2  56.3  34220  290.58 0854.55
2009/04/23 14:56:30.7     -24    -44    119     51    129 209.0  75.0  34248  291.06 0854.55
2009/04/23 14:56:30.8     -92     -5    107     93    141 266.5  54.3  34260  291.28 0854.55
2009/04/23 14:56:30.9     -50    -75    -11     91     92 213.8  -7.3  34258  291.23 0854.55
2009/04/23 14:56:31.0    -323    -24     56    324    329 265.6   9.9  34264  291.34 0854.52
2009/04/23 14:56:31.1    -250   -198     59    319    325 231.6  10.6  34262  291.29 0854.52
2009/04/23 14:56:31.2    -454   -266   -156    527    550 239.6 -16.5  34258  291.23 0854.52
2009/04/23 14:56:31.3    -310   -125   -121    335    356 248.0 -25.2  34202  290.27 0854.52
2009/04/23 14:56:31.4    -308   -112    -51    329    334 250.0  -8.9  34262  291.30 0854.52
2009/04/23 14:56:31.5    -380   -141    -15    406    407 249.5  -2.2  34262  291.31 0854.52
2009/04/23 14:56:31.6    -318     21    -65    319    326 273.8 -11.6  34254  291.16 0854.52
2009/04/23 14:56:31.7    -355     71   -124    363    384 281.4 -18.9  34230  290.76 0854.52
2009/04/23 14:56:31.8    -320    166   -106    361    376 297.4 -21.2  34222  290.64 0854.52
2009/04/23 14:56:31.9    -527    -35    -20    529    530 266.1  -2.2  34218  290.57 0854.52
2009/04/23 14:56:32.0    -581   -170   -124    606    619 253.7 -11.6  34242  290.96 0854.52
2009/04/23 14:56:32.1    -374   -183     49    417    420 243.9   6.8  34236  290.85 0854.52
2009/04/23 14:56:32.2    -254   -177     95    310    325 235.1  17.0  34226  290.70 0854.52
2009/04/23 14:56:32.3    -194   -103    -52    220    227 242.0 -13.4  34222  290.64 0854.52
2009/04/23 14:56:32.4      70   -278     99    287    304 165.7  19.2  34230  290.75 0854.52
2009/04/23 14:56:32.5      76   -419    244    426    490 169.7  32.3  34228  290.74 0854.52
2009/04/23 14:56:32.6      64   -368    185    374    417 170.1  28.2  34220  290.58 0854.52
2009/04/23 14:56:32.7     203   -421     40    468    470 154.3   5.0  34220  290.59 0854.52
2009/04/23 14:56:32.8      82   -402    -74    411    418 168.4 -10.3  34220  290.60 0854.52
2009/04/23 14:56:32.9     158   -408   -143    438    461 158.8 -18.1  34212  290.46 0854.52
2009/04/23 14:56:33.0     115   -370   -122    388    406 162.7 -22.6  34204  290.32 0854.50
2009/04/23 14:56:33.1     129   -426    -24    446    447 163.1  -3.2  34206  290.34 0854.50
2009/04/23 14:56:33.2     122   -358    103    379    393 161.1  15.3  34206  290.35 0854.50
2009/04/23 14:56:33.3     188   -308    112    361    379 148.6  17.3  34206  290.35 0854.50
2009/04/23 14:56:33.4      86   -310    113    322    341 164.4  20.0  34206  290.35 0854.50
2009/04/23 14:56:33.5     246   -245    122    348    369 134.8  19.4  34198  290.21 0854.50
2009/04/23 14:56:33.6      32   -399    143    401    425 175.3  20.3  34196  290.19 0854.50
2009/04/23 14:56:33.7     152   -474    261    498    562 162.2  29.9  34218  290.55 0854.50
2009/04/23 14:56:33.8     184   -569    321    598    678 162.1  30.5  34198  290.21 0854.50
2009/04/23 14:56:33.9     187   -679    294    705    763 164.6  24.1  34196  290.18 0854.50
2009/04/23 14:56:34.0     184   -657    358    683    771 164.3  29.9  34188  290.04 0854.50
2009/04/23 14:56:34.1     284   -558    260    627    678 153.0  23.9  34184  289.99 0854.50
2009/04/23 14:56:34.2     271   -556    298    619    686 154.0  27.4  34174  289.80 0854.50
2009/04/23 14:56:34.3     131   -538    268    554    615 166.3  27.7  34184  289.98 0854.50
2009/04/23 14:56:34.4      24   -619    220    620    659 177.8  19.6  34192  290.13 0854.50
2009/04/23 14:56:34.5      44   -521     59    524    528 175.1   6.5  34194  290.16 0854.50
2009/04/23 14:56:34.6     -31   -416   -136    418    439 184.4 -23.2  34192  290.12 0854.50
2009/04/23 14:56:34.7     -82   -502    -86    509    517 189.4  -9.6  34192  290.12 0854.50
2009/04/23 14:56:34.8      41   -434   -102    437    449 174.6 -13.2  34194  290.14 0854.50
2009/04/23 14:56:34.9      29   -481    -13    482    483 176.5  -1.6  34202  290.29 0854.50
2009/04/23 14:56:35.0      63   -371    173    377    414 170.3  26.3  34196  290.19 0854.47
2009/04/23 14:56:35.1     -90   -668    183    674    699 187.7  15.2  34202  290.29 0854.47
2009/04/23 14:56:35.2     -73   -445    305    452    545 189.3  37.3  34208  290.39 0854.47
2009/04/23 14:56:35.3      17   -342    188    343    391 177.1  31.0  34204  290.33 0854.47
2009/04/23 14:56:35.4      30   -383    240    385    453 175.5  35.0  34198  290.21 0854.47
2009/04/23 14:56:35.5     -92   -641     93    648    655 188.2   8.2  34188  290.04 0854.47
2009/04/23 14:56:35.6     136   -449    231    470    523 163.1  28.0  34188  290.06 0854.47
2009/04/23 14:56:35.7     -96   -499    123    509    524 190.9  13.7  34194  290.15 0854.47
2009/04/23 14:56:35.8     -67   -513     64    518    523 187.5   7.1  34192  290.11 0854.47
2009/04/23 14:56:35.9    -111   -656     50    666    668 189.6   4.3  34188  290.05 0854.47
2009/04/23 14:56:36.0      -8   -680     70    681    685 180.7   5.9  34194  290.16 0854.47
2009/04/23 14:56:36.1      21   -646     -5    647    648 178.1  -0.5  34194  290.16 0854.47
2009/04/23 14:56:36.2     -43   -510    -54    512    515 184.9  -6.1  34188  290.05 0854.47
2009/04/23 14:56:36.3      91   -533   -200    541    576 170.3 -25.5  34194  290.16 0854.47
2009/04/23 14:56:36.4     151   -527    -99    549    558 164.0 -10.3  34190  290.07 0854.47
2009/04/23 14:56:36.5     246   -529    195    584    616 155.1  18.5  34186  290.00 0854.47
2009/04/23 14:56:36.6      86   -557    187    564    595 171.2  18.4  34170  289.73 0854.47
2009/04/23 14:56:36.7     109   -461    115    474    488 166.6  13.7  34182  289.93 0854.47
2009/04/23 14:56:36.8     127   -558    203    573    608 167.1  19.5  34188  290.05 0854.47
2009/04/23 14:56:36.9     127   -457    245    475    534 164.4  29.4  34186  290.01 0854.47
2009/04/23 14:56:37.0      68   -485    263    490    556 172.0  30.5  34200  290.24 0854.45
2009/04/23 14:56:37.1     -94   -502    289    511    587 190.7  32.0  34198  290.23 0854.45
2009/04/23 14:56:37.2    -132   -519    231    536    583 194.3  24.9  34198  290.21 0854.45
2009/04/23 14:56:37.3    -162   -496    306    522    605 198.2  33.1  34192  290.12 0854.45
2009/04/23 14:56:37.4     -38   -408    221    410    465 185.4  30.7  34198  290.22 0854.45
2009/04/23 14:56:37.5     -49   -506    100    509    519 185.6  11.1  34194  290.15 0854.45
2009/04/23 14:56:37.6     -35   -388    325    390    507 185.2  44.1  34192  290.10 0854.45
2009/04/23 14:56:37.7     -42   -390    261    393    471 186.3  36.7  34190  290.09 0854.45
2009/04/23 14:56:37.8    -151   -363    181    394    433 202.6  26.3  34186  290.00 0854.45
2009/04/23 14:56:37.9    -277   -284    132    397    419 224.3  18.4  34182  289.94 0854.45
2009/04/23 14:56:38.0    -313   -197     -8    371    372 237.8  -1.3  34184  289.99 0854.45
2009/04/23 14:56:38.1    -193   -170     -9    258    259 228.6  -2.1  34184  289.98 0854.45
2009/04/23 14:56:38.2    -372    -41    102    375    389 263.7  15.3  34192  290.11 0854.45
2009/04/23 14:56:38.3    -348    123    -78    370    379 289.5 -12.0  34188  290.06 0854.45
2009/04/23 14:56:38.4    -198    -40    -61    202    211 258.5 -21.8  34194  290.16 0854.45
2009/04/23 14:56:38.5    -323   -245   -120    406    423 232.8 -21.4  34190  290.07 0854.45
2009/04/23 14:56:38.6    -385   -163   -134    419    439 247.0 -22.8  34190  290.09 0854.45
2009/04/23 14:56:38.7    -447   -270   -185    523    555 238.9 -19.5  34198  290.23 0854.45
2009/04/23 14:56:38.8    -351   -152   -140    383    407 246.5 -25.3  34190  290.08 0854.45
2009/04/23 14:56:38.9    -328   -317     56    457    461 226.0   7.1  34210  290.43 0854.45
2009/04/23 14:56:39.0    -365   -133   -178    389    427 250.0 -30.7  34210  290.43 0854.47
2009/04/23 14:56:39.1     -68   -271   -150    280    317 194.2 -35.0  34198  290.20 0854.47
2009/04/23 14:56:39.2      34   -238     -9    241    242 171.8  -2.2  34192  290.10 0854.47
2009/04/23 14:56:39.3      27   -239    -30    241    243 173.5  -7.2  34192  290.10 0854.47
2009/04/23 14:56:39.4      19   -307    -99    308    323 176.4 -22.9  34196  290.19 0854.47
2009/04/23 14:56:39.5      66   -312    112    320    340 168.0  19.3  34188  290.06 0854.47
2009/04/23 14:56:39.6     151   -486     72    510    516 162.7   8.1  34188  290.05 0854.47
2009/04/23 14:56:39.7      51   -463    139    466    487 173.7  16.7  34202  290.27 0854.47
2009/04/23 14:56:39.8     152   -376    222    406    462 157.9  31.3  34198  290.22 0854.47
2009/04/23 14:56:39.9      80   -376    283    385    477 167.9  40.0  34196  290.17 0854.47
2009/04/23 14:56:40.0      -1   -309    240    310    392 180.2  41.7  34208  290.38 0854.47
2009/04/23 14:56:40.1     -80   -283    132    295    323 195.8  25.8  34204  290.31 0854.47
2009/04/23 14:56:40.2    -398    -53     42    402    405 262.3   6.0  34192  290.12 0854.47
2009/04/23 14:56:40.3    -385   -204   -142    436    459 242.0 -18.1  34198  290.21 0854.47
2009/04/23 14:56:40.4    -219   -163    -45    274    278 233.4  -9.3  34196  290.17 0854.47
2009/04/23 14:56:40.5     -92   -195     43    216    221 205.4  11.4  34182  289.96 0854.47
2009/04/23 14:56:40.6      60   -330    -52    336    340 169.7  -8.8  34194  290.15 0854.47
2009/04/23 14:56:40.7      37   -522    -60    524    528 175.9  -6.6  34184  289.97 0854.47
2009/04/23 14:56:40.8      52   -620   -123    623    636 175.1 -11.2  34190  290.09 0854.47
2009/04/23 14:56:40.9      26   -581    -84    582    589 177.4  -8.2  34190  290.08 0854.47
2009/04/23 14:56:41.0     -55   -656   -111    659    669 184.8  -9.6  34188  290.05 0854.50
2009/04/23 14:56:41.1      28   -664   -186    665    691 177.5 -15.7  34194  290.16 0854.50
2009/04/23 14:56:41.2      -8   -542   -175    543    571 180.9 -17.9  34208  290.38 0854.50
2009/04/23 14:56:41.3    -247   -472    -74    533    539 207.6  -7.9  34188  290.04 0854.50
2009/04/23 14:56:41.4    -158   -430     93    459    469 200.2  11.6  34188  290.06 0854.50
2009/04/23 14:56:41.5      -1   -379    132    380    403 180.2  19.2  34202  290.30 0854.50
2009/04/23 14:56:41.6     145   -433     80    457    465 161.4  10.0  34196  290.17 0854.50
2009/04/23 14:56:41.7     -59   -490     24    494    495 186.9   2.8  34198  290.22 0854.50
2009/04/23 14:56:41.8    -103   -361    -19    376    377 196.0  -3.0  34204  290.33 0854.50
2009/04/23 14:56:41.9      55   -484   -184    488    521 173.4 -26.0  34214  290.49 0854.50
2009/04/23 14:56:42.0    -102   -406   -207    419    467 194.2 -32.6  34210  290.43 0854.50
2009/04/23 14:56:42.1       5   -380     42    381    384 179.1   6.4  34212  290.45 0854.50
2009/04/23 14:56:42.2    -133   -303    166    331    370 203.7  28.6  34218  290.57 0854.50
2009/04/23 14:56:42.3      85   -135    176    160    237 147.9  53.2  34224  290.65 0854.50
2009/04/23 14:56:42.4       9   -150    187    151    240 176.4  57.1  34226  290.69 0854.50
2009/04/23 14:56:42.5       0   -138    178    139    225 180.0  58.2  34230  290.77 0854.50
2009/04/23 14:56:42.6     -50   -222    118    228    256 192.7  29.5  34212  290.46 0854.50
2009/04/23 14:56:42.7      64   -101    103    120    158 147.5  45.4  34218  290.55 0854.50
2009/04/23 14:56:42.8      35   -107     88    113    143 161.7  41.7  34204  290.33 0854.50
2009/04/23 14:56:42.9      10   -131     33    132    137 175.6  14.3  34194  290.14 0854.50
2009/04/23 14:56:43.0     -18   -222     10    223    224 184.7   2.8  34200  290.26 0854.53
2009/04/23 14:56:43.1      13   -207    -14    208    209 176.2  -3.9  34202  290.28 0854.53
2009/04/23 14:56:43.2     -90   -126    -45    155    161 215.6 -21.0  34204  290.31 0854.53
2009/04/23 14:56:43.3    -133   -104    -51    170    178 232.0 -16.8  34200  290.25 0854.53
2009/04/23 14:56:43.4    -144   -304     32    337    339 205.3   5.4  34182  289.96 0854.53
2009/04/23 14:56:43.5     -32   -262    -37    265    268 187.1  -8.0  34190  290.07 0854.53
2009/04/23 14:56:43.6     -30   -242    120    244    271 187.1  28.2  34190  290.09 0854.53
2009/04/23 14:56:43.7     -29   -201    123    204    238 188.2  34.0  34196  290.19 0854.53
2009/04/23 14:56:43.8     -60   -379     60    384    389 189.1   9.0  34192  290.10 0854.53
2009/04/23 14:56:43.9     -92   -385    132    396    418 193.5  18.4  34190  290.09 0854.53
2009/04/23 14:56:44.0    -147   -343     71    374    381 203.3  10.8  34188  290.06 0854.53
2009/04/23 14:56:44.1    -141   -406    -46    430    433 199.2  -6.2  34202  290.28 0854.53
2009/04/23 14:56:44.2    -106   -387   -129    402    422 195.3 -22.9  34208  290.39 0854.53
2009/04/23 14:56:44.3    -116   -334    197    354    405 199.3  31.5  34192  290.10 0854.53
2009/04/23 14:56:44.4    -250   -314    166    402    434 218.5  23.8  34192  290.12 0854.53
2009/04/23 14:56:44.5    -133   -365    165    389    422 200.1  24.3  34190  290.09 0854.53
2009/04/23 14:56:44.6     -80   -423    134    431    452 190.7  17.3  34198  290.22 0854.53
2009/04/23 14:56:44.7    -197   -418     72    463    469 205.3   8.9  34198  290.23 0854.53
2009/04/23 14:56:44.8    -152   -440     38    466    468 199.1   4.7  34204  290.32 0854.53
2009/04/23 14:56:44.9     -93   -392     67    403    409 193.4   9.5  34214  290.48 0854.53
2009/04/23 14:56:45.0      15   -408    104    409    423 177.8  14.3  34200  290.26 0854.55
2009/04/23 14:56:45.1     -62   -402      5    407    408 188.8   0.7  34214  290.48 0854.55
2009/04/23 14:56:45.2     -25   -391     49    392    396 183.7   7.2  34198  290.21 0854.55
2009/04/23 14:56:45.3    -173   -266    -61    318    324 213.0 -10.9  34220  290.58 0854.55
2009/04/23 14:56:45.4     -78   -226   -139    240    277 199.2 -37.1  34194  290.15 0854.55
2009/04/23 14:56:45.5      24   -222    143    224    265 173.8  35.6  34200  290.24 0854.55
2009/04/23 14:56:45.6       0   -238    147    239    280 180.0  34.5  34198  290.22 0854.55
2009/04/23 14:56:45.7     -14   -413     88    414    424 182.0  12.1  34198  290.21 0854.55
2009/04/23 14:56:45.8     -27   -358     11    359    360 184.4   1.8  34194  290.16 0854.55
2009/04/23 14:56:45.9      22   -364    -90    365    376 176.5 -13.9  34194  290.15 0854.55
2009/04/23 14:56:46.0      54   -418     68    422    428 172.6   9.2  34196  290.19 0854.56
2009/04/23 14:56:46.1    -150   -432    -49    458    461 199.2  -6.2  34188  290.04 0854.56
2009/04/23 14:56:46.2     -30   -279   -105    281    299 186.3 -25.7  34200  290.26 0854.56
2009/04/23 14:56:46.3     161   -220    -55    273    279 143.7 -11.6  34194  290.15 0854.56
2009/04/23 14:56:46.4     297   -206   -100    362    375 124.8 -20.0  34198  290.20 0854.56
2009/04/23 14:56:46.5     171   -221    -77    280    291 142.2 -15.5  34200  290.26 0854.56
2009/04/23 14:56:46.6     150   -284    -86    322    334 152.1 -15.1  34194  290.15 0854.56
2009/04/23 14:56:46.7     213   -217    -38    305    308 135.5  -7.2  34196  290.19 0854.56
2009/04/23 14:56:46.8     259   -137    -37    294    297 117.9  -7.3  34194  290.15 0854.56
2009/04/23 14:56:46.9     280    -70     71    289    298 104.2  13.9  34192  290.10 0854.56
2009/04/23 14:56:47.0     280   -184    -28    336    338 123.3  -4.9  34198  290.20 0854.56
2009/04/23 14:56:47.1     285    -87     22    299    300 106.9   4.2  34190  290.07 0854.56
2009/04/23 14:56:47.2     215   -110     75    242    254 117.1  17.3  34194  290.15 0854.56
2009/04/23 14:56:47.3     126   -153     87    199    217 140.4  25.1  34198  290.21 0854.56
2009/04/23 14:56:47.4      39   -339    140    342    369 173.3  23.6  34196  290.18 0854.56
2009/04/23 14:56:47.5     -17   -275    180    276    329 183.6  36.0  34198  290.22 0854.56
2009/04/23 14:56:47.6     -58   -244    205    251    324 193.4  43.6  34228  290.73 0854.56
2009/04/23 14:56:47.7     -21   -229    248    231    338 185.3  52.2  34212  290.46 0854.56
2009/04/23 14:56:47.8      26   -152    209    155    260 170.2  59.8  34208  290.38 0854.56
2009/04/23 14:56:47.9     -38   -220    201    224    300 189.8  46.6  34198  290.20 0854.56
2009/04/23 14:56:48.0      52   -101    190    114    221 152.8  66.2  34198  290.21 0854.57
2009/04/23 14:56:48.1     152    -33    191    156    246 102.4  56.4  34200  290.26 0854.57
2009/04/23 14:56:48.2     184      2    201    185    273  89.2  52.2  34208  290.39 0854.57
2009/04/23 14:56:48.3      82     16    164     84    184  78.5  70.8  34230  290.77 0854.57
2009/04/23 14:56:48.4       8     89    172     90    194   5.3  70.0  34252  291.13 0854.57
2009/04/23 14:56:48.5       0     50    140     51    149 359.1  79.2  34252  291.13 0854.57
2009/04/23 14:56:48.6      45     97     93    107    141  24.9  45.8  34236  290.86 0854.57
2009/04/23 14:56:48.7    -162     94     51    188    195 300.0  15.3  34246  291.04 0854.57
2009/04/23 14:56:48.8    -139     -5     65    140    154 267.9  27.1  34250  291.11 0854.57
2009/04/23 14:56:48.9     -44   -155    200    162    257 195.8  56.9  34222  290.64 0854.57
2009/04/23 14:56:49.0     -58    -91    196    109    224 212.5  68.8  34220  290.58 0854.57
2009/04/23 14:56:49.1    -167    -95    108    193    221 240.5  31.4  34228  290.72 0854.57
2009/04/23 14:56:49.2    -156   -188     97    245    263 219.6  22.8  34222  290.61 0854.57
2009/04/23 14:56:49.3    -273   -114    117    296    318 247.3  22.7  34224  290.66 0854.57
2009/04/23 14:56:49.4    -336    -81     26    346    347 256.4   4.3  34242  290.96 0854.57
2009/04/23 14:56:49.5    -350   -140     49    378    382 248.2   7.4  34238  290.91 0854.57
2009/04/23 14:56:49.6    -278   -117    -36    302    305 247.2  -6.9  34236  290.85 0854.57
2009/04/23 14:56:49.7    -223    -75    -35    236    239 251.4  -8.6  34234  290.83 0854.57
2009/04/23 14:56:49.8    -223   -117     12    253    254 242.2   2.9  34248  291.05 0854.57
2009/04/23 14:56:49.9    -313    -19     19    314    315 266.5   3.6  34238  290.90 0854.57
2009/04/23 14:56:50.0    -432    -41      8    435    436 264.6   1.1  34240  290.94 0854.57
2009/04/23 14:56:50.1    -399   -187     55    441    445 244.8   7.2  34236  290.87 0854.57
2009/04/23 14:56:50.2    -324   -158     89    361    372 243.9  13.9  34244  291.00 0854.57
2009/04/23 14:56:50.3    -224    -89    104    242    263 248.2  24.6  34258  291.24 0854.57
2009/04/23 14:56:50.4    -155   -129     -9    202    203 230.2  -2.6  34240  290.92 0854.57
2009/04/23 14:56:50.5     -15   -141    -44    142    148 186.2 -22.3  34212  290.47 0854.57
2009/04/23 14:56:50.6      -8   -134    118    135    179 183.6  45.6  34214  290.50 0854.57
2009/04/23 14:56:50.7    -109   -120     63    163    174 222.3  21.7  34210  290.41 0854.57
2009/04/23 14:56:50.8    -152   -108    -34    187    191 234.7 -10.3  34218  290.55 0854.57
2009/04/23 14:56:50.9    -194    -80    -40    210    214 247.6 -10.9  34214  290.50 0854.57
2009/04/23 14:56:51.0    -160    -57     27    171    174 250.3   9.0  34214  290.50 0854.57
2009/04/23 14:56:51.1    -196    -79     77    212    225 248.0  20.7  34212  290.47 0854.57
2009/04/23 14:56:51.2    -221    -68     10    232    233 252.7   2.5  34202  290.30 0854.57
2009/04/23 14:56:51.3    -217   -163     38    272    275 233.2   8.0  34204  290.31 0854.57
2009/04/23 14:56:51.4    -178    -81    127    196    233 245.4  35.6  34206  290.35 0854.57
2009/04/23 14:56:51.5    -109   -198    -78    227    241 208.9 -18.9  34200  290.26 0854.57
2009/04/23 14:56:51.6    -157   -157    -26    223    225 224.9  -6.9  34188  290.06 0854.57
2009/04/23 14:56:51.7    -115   -149     -8    189    190 217.6  -2.6  34198  290.23 0854.57
2009/04/23 14:56:51.8    -120   -148    -81    191    207 219.0 -29.0  34194  290.14 0854.57
2009/04/23 14:56:51.9    -107      0   -127    108    166 270.0 -60.0  34214  290.48 0854.57
2009/04/23 14:56:52.0     -81    -76     63    112    128 226.9  31.9  34210  290.41 0854.58
2009/04/23 14:56:52.1    -257     -7    102    258    277 268.3  23.0  34224  290.65 0854.58
2009/04/23 14:56:52.2    -161     43    -59    167    178 285.1 -19.7  34218  290.57 0854.58
2009/04/23 14:56:52.3    -195   -106    -28    223    225 241.4  -7.2  34212  290.47 0854.58
2009/04/23 14:56:52.4     -51   -212    -91    219    237 193.6 -28.5  34194  290.16 0854.58
2009/04/23 14:56:52.5    -133      3    -46    134    141 271.7 -23.3  34192  290.13 0854.58
2009/04/23 14:56:52.6    -123    -89    -14    153    154 234.0  -5.6  34204  290.33 0854.58
2009/04/23 14:56:52.7     -14   -135     10    136    137 186.2   4.4  34200  290.26 0854.58
2009/04/23 14:56:52.8     -68   -239     76    249    261 196.0  17.1  34192  290.10 0854.58
2009/04/23 14:56:52.9     -40   -281     77    284    295 188.1  15.3  34194  290.15 0854.58
2009/04/23 14:56:53.0    -108   -316     83    335    346 198.9  13.9  34192  290.11 0854.58
2009/04/23 14:56:53.1    -166   -166     61    235    243 225.0  14.7  34214  290.49 0854.58
2009/04/23 14:56:53.2    -208   -171     42    270    274 230.5   8.9  34256  291.19 0854.58
2009/04/23 14:56:53.3    -245   -252     57    352    357 224.2   9.3  34206  290.35 0854.58
2009/04/23 14:56:53.4    -212   -261     19    337    338 219.1   3.2  34188  290.03 0854.58
2009/04/23 14:56:53.5    -197   -225     35    300    303 221.2   6.7  34194  290.14 0854.58
2009/04/23 14:56:53.6     -10   -136    192    137    235 184.5  61.1  34194  290.16 0854.58
2009/04/23 14:56:53.7      55    -68    125     88    152 141.3  61.5  34202  290.28 0854.58
2009/04/23 14:56:53.8     111   -199    124    229    260 150.8  30.8  34188  290.03 0854.58
2009/04/23 14:56:53.9      51   -263    112    269    291 168.9  24.1  34186  290.00 0854.58
2009/04/23 14:56:54.0      54   -198    135    206    246 164.6  36.3  34192  290.10 0854.57
2009/04/23 14:56:54.1     -70   -293    167    302    345 193.4  31.4  34190  290.08 0854.57
2009/04/23 14:56:54.2    -134   -257     89    291    305 207.6  17.0  34186  290.00 0854.57
2009/04/23 14:56:54.3    -121   -221    130    252    283 208.7  29.3  34186  290.00 0854.57
2009/04/23 14:56:54.4     -58   -235    235    243    338 194.0  49.1  34190  290.09 0854.57
2009/04/23 14:56:54.5     -82   -224    232    239    333 200.1  49.1  34190  290.09 0854.57
2009/04/23 14:56:54.6     -61   -159    233    171    289 201.2  60.3  34192  290.10 0854.57
2009/04/23 14:56:54.7      -2   -182    272    183    327 180.9  63.1  34194  290.14 0854.57
2009/04/23 14:56:54.8     -35   -214    230    217    316 189.3  52.0  34186  290.00 0854.57
2009/04/23 14:56:54.9      37   -252    222    255    338 171.5  45.5  34190  290.09 0854.57
2009/04/23 14:56:55.0      42   -110    145    118    186 159.1  56.4  34194  290.14 0854.57
2009/04/23 14:56:55.1     -24   -224    181    226    289 186.3  42.8  34192  290.10 0854.57
2009/04/23 14:56:55.2     -40   -154    -90    160    183 194.7 -36.3  34182  289.96 0854.57
2009/04/23 14:56:55.3     -31    -94   -127    100    161 198.3 -62.3  34190  290.08 0854.57
2009/04/23 14:56:55.4      63     17    -87     66    109  74.9 -63.4  34198  290.21 0854.57
2009/04/23 14:56:55.5      34    -27     15     44     47 128.6  18.9  34184  289.99 0854.57
2009/04/23 14:56:55.6     -14   -236    167    237    289 183.6  38.6  34186  290.00 0854.57
2009/04/23 14:56:55.7      54   -219    146    226    269 166.0  35.6  34188  290.03 0854.57
2009/04/23 14:56:55.8      61   -302    185    309    360 168.5  33.7  34184  289.98 0854.57
2009/04/23 14:56:55.9     -95   -450     77    461    468 192.0   9.5  34178  289.89 0854.54
2009/04/23 14:56:56.0     -71   -438    142    444    467 189.2  17.8  34184  289.99 0854.54
2009/04/23 14:56:56.2     -54   -384     51    388    392 188.1   7.6  34182  289.94 0854.54
2009/04/23 14:56:56.2     -68   -399    102    405    418 189.7  14.2  34184  289.97 0854.54
2009/04/23 14:56:56.4    -123   -312    -26    336    338 201.6  -4.6  34188  290.06 0854.54
2009/04/23 14:56:56.5    -192   -281    -58    341    347 214.3  -9.8  34186  290.01 0854.54
2009/04/23 14:56:56.6     -37   -273    -47    276    281 187.8  -9.8  34186  290.02 0854.54
2009/04/23 14:56:56.7      53   -284    -13    290    291 169.3  -2.6  34184  289.98 0854.54
2009/04/23 14:56:56.8      12   -310    -52    311    316 177.8  -9.5  34188  290.05 0854.54
2009/04/23 14:56:56.9      53   -447     18    451    452 173.1   2.4  34186  290.02 0854.54
2009/04/23 14:56:57.0      75   -440    -50    447    450 170.2  -6.5  34190  290.07 0854.54
2009/04/23 14:56:57.1      88   -416   -140    426    449 168.0 -18.2  34188  290.05 0854.54
2009/04/23 14:56:57.2     151   -344   -131    376    398 156.3 -24.3  34192  290.10 0854.54
2009/04/23 14:56:57.3     231   -333    -77    406    414 145.3 -10.8  34192  290.11 0854.54
2009/04/23 14:56:57.4     247   -247    -31    350    352 135.0  -5.2  34192  290.11 0854.54
2009/04/23 14:56:57.5     192   -305    -69    361    368 147.7 -10.8  34198  290.20 0854.54
2009/04/23 14:56:57.6      94   -335    -62    348    354 164.3 -10.1  34192  290.13 0854.54
2009/04/23 14:56:57.7     123   -370   -124    391    411 161.5 -17.7  34190  290.07 0854.54
2009/04/23 14:56:57.8     288   -349    -24    453    454 140.5  -3.1  34198  290.22 0854.54
2009/04/23 14:56:57.9     141   -338     93    367    379 157.3  14.3  34200  290.25 0854.54
2009/04/23 14:56:58.0     175   -381    -23    420    421 155.3  -3.1  34208  290.39 0854.51
2009/04/23 14:56:58.1     168   -338    -40    378    381 153.6  -6.1  34210  290.43 0854.51
2009/04/23 14:56:58.2     187   -364   -123    410    429 152.8 -16.7  34204  290.33 0854.51
2009/04/23 14:56:58.3     270   -240    -54    362    367 131.7  -8.6  34178  289.89 0854.51
2009/04/23 14:56:58.4     332   -168   -102    373    387 116.9 -15.4  34182  289.93 0854.51
2009/04/23 14:56:58.5     236   -261   -140    353    379 137.9 -27.3  34198  290.23 0854.51
2009/04/23 14:56:58.6      58   -175   -158    185    243 161.5 -49.2  34200  290.26 0854.51
2009/04/23 14:56:58.7     -19   -110    -78    112    136 189.8 -43.0  34204  290.33 0854.51
2009/04/23 14:56:58.8     -19    -64    -45     67     80 196.9 -42.0  34208  290.40 0854.51
2009/04/23 14:56:58.9      80    -65    173    104    201 129.1  66.2  34212  290.45 0854.51
2009/04/23 14:56:59.0     127    -91    230    157    278 125.9  62.6  34204  290.31 0854.51
2009/04/23 14:56:59.1      -1     31    206     32    208 357.3  90.0  34210  290.43 0854.51
2009/04/23 14:56:59.2      -1    -21    181     22    182 184.5  90.0  34200  290.26 0854.51
2009/04/23 14:56:59.3     -30   -129    222    133    258 193.4  66.4  34194  290.16 0854.51
2009/04/23 14:56:59.4     -10    -97    224     98    244 186.2  74.9  34212  290.45 0854.51
2009/04/23 14:56:59.5      -7    -90    206     91    225 184.5  74.8  34208  290.40 0854.51
2009/04/23 14:56:59.6     -15   -173    164    174    239 185.1  48.5  34200  290.26 0854.51
2009/04/23 14:56:59.7      20   -257    173    258    310 175.5  36.7  34202  290.27 0854.51
2009/04/23 14:56:59.8      16   -293    173    294    341 176.9  33.3  34198  290.20 0854.51
2009/04/23 14:56:59.9     107   -322    226    340    408 161.5  36.6  34198  290.21 0854.51
2009/04/23 14:57:00.0      62   -263    216    271    346 166.7  42.7  34194  290.15 0854.52
2009/04/23 14:57:00.1     -67   -461    364    466    591 188.3  41.9  34192  290.11 0854.52
2009/04/23 14:57:00.2    -121   -384    258    403    478 197.5  35.6  34188  290.04 0854.52
2009/04/23 14:57:00.3    -133   -208    180    248    306 212.7  39.7  34180  289.92 0854.52
2009/04/23 14:57:00.4     193      8    250    194    316  87.6  58.5  34206  290.36 0854.52
2009/04/23 14:57:00.5     211   -165    224    268    349 128.0  44.1  34192  290.10 0854.52
2009/04/23 14:57:00.6     110   -327    268    346    437 161.4  41.7  34192  290.11 0854.52
2009/04/23 14:57:00.7      46   -354    321    357    480 172.6  46.5  34188  290.05 0854.52
2009/04/23 14:57:00.8     -28   -342    241    344    420 184.7  38.5  34182  289.96 0854.52
2009/04/23 14:57:00.9     -66   -404    140    410    434 189.4  18.9  34188  290.05 0854.52
2009/04/23 14:57:01.0    -109   -430    121    444    461 194.3  15.3  34182  289.95 0854.52
2009/04/23 14:57:01.1     -37   -351    155    354    386 186.1  25.1  34184  289.99 0854.52
2009/04/23 14:57:01.2     129   -408     87    428    438 162.4  11.6  34184  289.99 0854.52
2009/04/23 14:57:01.3     136   -483    104    503    514 164.2  11.8  34188  290.03 0854.52
2009/04/23 14:57:01.4     119   -382    -51    401    405 162.7  -7.4  34180  289.90 0854.52
2009/04/23 14:57:01.5     201   -324     91    382    393 148.3  13.5  34184  289.99 0854.52
2009/04/23 14:57:01.6     185   -253    206    314    375 143.9  36.4  34186  290.01 0854.52
2009/04/23 14:57:01.7     169   -265    296    315    432 147.5  48.0  34190  290.08 0854.52
2009/04/23 14:57:01.8     105   -403    315    417    522 165.3  40.9  34192  290.13 0854.52
2009/04/23 14:57:01.9     283   -238    205    370    422 130.1  31.4  34184  289.99 0854.52
2009/04/23 14:57:02.0     210   -394    179    447    481 151.9  23.0  34186  290.00 0854.52
2009/04/23 14:57:02.1     126   -501    105    517    528 165.8  11.6  34190  290.09 0854.52
2009/04/23 14:57:02.2      94   -423     68    434    440 167.4   8.9  34190  290.09 0854.52
2009/04/23 14:57:02.3      -4   -284     61    285    292 180.9  12.1  34192  290.12 0854.52
2009/04/23 14:57:02.4      94   -188    103    211    234 153.3  28.0  34192  290.13 0854.52
2009/04/23 14:57:02.5     129   -176    107    219    243 143.7  28.2  34190  290.07 0854.52
2009/04/23 14:57:02.6      66   -358    125    365    386 169.5  18.9  34192  290.11 0854.52
2009/04/23 14:57:02.7      88   -408    145    418    443 167.7  19.2  34194  290.14 0854.52
2009/04/23 14:57:02.8     121   -449    204    466    508 164.9  25.2  34196  290.18 0854.52
2009/04/23 14:57:02.9     132   -409    248    430    496 162.1  32.7  34202  290.27 0854.52
2009/04/23 14:57:03.0      -7   -506    119    507    521 180.8  13.2  34190  290.08 0854.52
2009/04/23 14:57:03.1      37   -514    140    516    535 175.9  15.2  34194  290.14 0854.52
2009/04/23 14:57:03.2     -24   -327    -73    328    337 184.2 -12.6  34190  290.08 0854.52
2009/04/23 14:57:03.3      29   -298   -120    300    323 174.4 -27.4  34198  290.22 0854.52
2009/04/23 14:57:03.4      71   -418   -136    425    446 170.3 -22.9  34200  290.26 0854.52
2009/04/23 14:57:03.5      91   -582      9    590    591 171.1   0.9  34198  290.20 0854.52
2009/04/23 14:57:03.6      75   -754    -21    758    759 174.3  -1.6  34216  290.53 0854.52
2009/04/23 14:57:03.7      14   -696     54    697    700 178.8   4.5  34212  290.44 0854.52
2009/04/23 14:57:03.8     101   -626     59    635    639 170.8   5.3  34172  289.79 0854.52
2009/04/23 14:57:03.9     140   -573     24    591    592 166.2   2.4  34184  289.97 0854.52
2009/04/23 14:57:04.0     108   -601     40    611    613 169.8   3.8  34198  290.20 0854.52
2009/04/23 14:57:04.1      50   -509     16    512    513 174.3   1.8  34218  290.54 0854.52
2009/04/23 14:57:04.2      48   -483    -27    486    487 174.3  -3.2  34222  290.61 0854.52
2009/04/23 14:57:04.3     -25   -641    -86    642    648 182.3  -7.7  34208  290.40 0854.52
2009/04/23 14:57:04.4       9   -559    -11    560    561 179.0  -1.2  34206  290.36 0854.52
2009/04/23 14:57:04.5     107   -573     84    583    590 169.4   8.2  34202  290.27 0854.52
2009/04/23 14:57:04.6      83   -507    165    514    540 170.7  17.8  34208  290.40 0854.52
2009/04/23 14:57:04.7     108   -156     65    191    202 145.3  18.9  34206  290.36 0854.52
2009/04/23 14:57:04.8     236    -17    -48    237    242  94.3 -11.5  34208  290.37 0854.52
2009/04/23 14:57:04.9     200   -172     27    264    266 130.7   6.0  34204  290.31 0854.52
2009/04/23 14:57:05.0     -62   -477    128    481    498 187.5  15.0  34202  290.29 0854.50
2009/04/23 14:57:05.1    -103   -496     21    507    508 191.8   2.4  34202  290.29 0854.50
2009/04/23 14:57:05.2    -112   -459    -50    473    476 193.8  -6.1  34202  290.27 0854.50
2009/04/23 14:57:05.3    -215   -439     83    489    497 206.1   9.7  34208  290.39 0854.50
2009/04/23 14:57:05.4      64   -419      0    424    425 171.2   0.0  34198  290.21 0854.50
2009/04/23 14:57:05.5     -40   -481     69    483    489 184.9   8.2  34198  290.22 0854.50
2009/04/23 14:57:05.6    -139   -520     67    539    544 195.1   7.1  34200  290.24 0854.50
2009/04/23 14:57:05.7    -232   -525      7    575    576 203.9   0.7  34198  290.20 0854.50
2009/04/23 14:57:05.8    -234   -432      7    492    493 208.5   0.8  34198  290.22 0854.50
2009/04/23 14:57:05.9    -233   -357     51    427    431 213.1   6.9  34196  290.17 0854.50
2009/04/23 14:57:06.0    -272   -344     33    439    441 218.4   4.3  34196  290.19 0854.50
2009/04/23 14:57:06.1    -128   -430     -9    449    450 196.6  -1.2  34194  290.14 0854.50
2009/04/23 14:57:06.2    -137   -306    171    336    377 204.1  29.2  34194  290.16 0854.50
2009/04/23 14:57:06.3      81   -339    172    349    389 166.5  28.0  34202  290.30 0854.50
2009/04/23 14:57:06.4      67   -316    209    324    385 168.0  35.6  34204  290.32 0854.50
2009/04/23 14:57:06.5      54   -452    251    456    520 173.1  31.3  34202  290.27 0854.50
2009/04/23 14:57:06.6      38   -456    203    458    500 175.1  25.6  34210  290.42 0854.50
2009/04/23 14:57:06.7      77   -416    243    424    488 169.4  32.4  34238  290.90 0854.50
2009/04/23 14:57:06.8      50   -413    206    417    465 173.0  28.2  34224  290.65 0854.50
2009/04/23 14:57:06.9     137   -406    143    429    453 161.3  18.5  34208  290.38 0854.50
2009/04/23 14:57:07.0     173   -419    120    454    470 157.6  14.9  34192  290.12 0854.52
2009/04/23 14:57:07.1     110   -369    203    386    436 163.4  30.0  34190  290.07 0854.52
2009/04/23 14:57:07.2     104   -417    170    430    462 165.9  23.0  34194  290.14 0854.52
2009/04/23 14:57:07.3     111   -387     89    403    413 164.0  12.5  34192  290.12 0854.52
2009/04/23 14:57:07.4     140   -469    206    490    531 163.3  24.2  34190  290.08 0854.52
2009/04/23 14:57:07.5     173   -367    132    406    427 154.7  18.0  34192  290.11 0854.52
2009/04/23 14:57:07.6     107   -359    149    375    403 163.4  22.9  34192  290.11 0854.52
2009/04/23 14:57:07.7     -26   -423    302    424    520 183.6  39.1  34192  290.12 0854.52
2009/04/23 14:57:07.8    -136   -423    271    445    521 197.8  34.3  34204  290.32 0854.52
2009/04/23 14:57:07.9    -132   -551    214    567    606 193.5  21.6  34210  290.41 0854.52
2009/04/23 14:57:08.0    -206   -639    144    672    688 197.9  12.2  34258  291.24 0854.52
2009/04/23 14:57:08.1    -387   -784    -41    875    877 206.3  -2.7  34236  290.86 0854.52
2009/04/23 14:57:08.2    -349   -592   -154    688    706 210.5 -12.7  34202  290.28 0854.52
2009/04/23 14:57:08.3    -654   -534     20    845    846 230.8   1.4  34198  290.22 0854.52
2009/04/23 14:57:08.4    -521   -502    250    724    767 226.1  19.1  34196  290.18 0854.52
2009/04/23 14:57:08.5    -564   -643    223    856    885 221.3  14.6  34222  290.62 0854.52
2009/04/23 14:57:08.6    -232   -624    168    666    687 200.4  14.2  34202  290.29 0854.52
2009/04/23 14:57:08.7     -68   -446    226    452    505 188.7  28.6  34202  290.30 0854.52
2009/04/23 14:57:08.8      24   -316    233    318    394 175.5  39.8  34206  290.35 0854.52
2009/04/23 14:57:08.9     -89   -525    319    533    621 189.7  33.7  34212  290.44 0854.52
2009/04/23 14:57:09.0     -20   -459    370    460    590 182.6  42.9  34218  290.55 0854.54
2009/04/23 14:57:09.1     -69   -367    316    374    489 190.7  44.5  34212  290.44 0854.54
2009/04/23 14:57:09.2     -32   -234    264    237    354 188.0  53.6  34222  290.63 0854.54
2009/04/23 14:57:09.3      37   -399    369    401    544 174.7  47.5  34220  290.59 0854.54
2009/04/23 14:57:09.4      71   -452    348    458    575 171.0  41.1  34214  290.48 0854.54
2009/04/23 14:57:09.5     134   -282    315    313    444 154.6  50.1  34220  290.60 0854.54
2009/04/23 14:57:09.6     221   -383    310    443    540 150.0  38.5  34220  290.59 0854.54
2009/04/23 14:57:09.7     113   -537     47    549    552 168.1   5.0  34208  290.40 0854.54
2009/04/23 14:57:09.8     115   -459    151    474    498 165.9  17.7  34202  290.29 0854.54
2009/04/23 14:57:09.9     180   -299    155    350    382 148.9  25.6  34202  290.30 0854.54
2009/04/23 14:57:10.0     199   -360    187    412    452 151.1  26.2  34204  290.33 0854.54
2009/04/23 14:57:10.1     137   -422    202    444    487 162.0  26.2  34216  290.51 0854.54
2009/04/23 14:57:10.2      90   -375    193    386    431 166.4  28.6  34234  290.82 0854.54
2009/04/23 14:57:10.3     183   -236    296    299    420 142.2  49.9  34208  290.38 0854.54
2009/04/23 14:57:10.4     145   -270    340    307    458 151.7  53.3  34220  290.60 0854.54
2009/04/23 14:57:10.5     211   -125    176    246    302 120.7  39.3  34214  290.49 0854.54
2009/04/23 14:57:10.6     185    -69    183    198    269 110.4  47.9  34210  290.42 0854.54
2009/04/23 14:57:10.7      94    -60    165    112    199 122.4  62.6  34220  290.58 0854.54
2009/04/23 14:57:10.8      55   -133    156    145    212 157.3  52.2  34220  290.58 0854.54
2009/04/23 14:57:10.9     109   -323    222    342    407 161.3  35.9  34204  290.32 0854.54
2009/04/23 14:57:11.0     129   -274    246    304    391 154.7  43.1  34208  290.38 0854.55
2009/04/23 14:57:11.1      10   -141    154    142    209 175.6  52.5  34222  290.64 0854.55
2009/04/23 14:57:11.2      28   -222    189    224    293 172.7  44.3  34228  290.71 0854.55
2009/04/23 14:57:11.3      -4   -159    183    160    243 181.6  54.3  34232  290.79 0854.55
2009/04/23 14:57:11.4      18   -133    148    135    200 172.0  53.0  34232  290.81 0854.55
2009/04/23 14:57:11.5      12   -285    188    286    342 177.5  36.4  34212  290.46 0854.55
2009/04/23 14:57:11.6      28   -358    250    360    438 175.5  38.0  34210  290.41 0854.55
2009/04/23 14:57:11.7      56   -418    230    422    480 172.3  30.9  34210  290.43 0854.55
2009/04/23 14:57:11.8      96   -474    276    484    557 168.5  32.3  34212  290.45 0854.55
2009/04/23 14:57:11.9     169   -448    308    479    569 159.3  35.6  34208  290.40 0854.55
2009/04/23 14:57:12.0      61   -552    270    556    618 173.7  27.8  34196  290.17 0854.55
2009/04/23 14:57:12.1     121   -668    168    680    701 169.7  13.9  34196  290.19 0854.55
2009/04/23 14:57:12.2     265   -658    138    710    724 158.1  11.0  34202  290.27 0854.55
2009/04/23 14:57:12.3      54   -570    315    573    653 174.6  31.3  34200  290.25 0854.55
2009/04/23 14:57:12.4     133   -515    245    532    585 165.5  26.4  34208  290.37 0854.55
2009/04/23 14:57:12.5      -4   -526    241    527    579 180.5  26.3  34208  290.40 0854.55
2009/04/23 14:57:12.6     -40   -503    213    505    548 184.6  24.2  34214  290.48 0854.55
2009/04/23 14:57:12.7    -123   -423    158    441    468 196.3  20.4  34214  290.50 0854.55
2009/04/23 14:57:12.8    -139   -416    106    439    452 198.6  13.7  34220  290.58 0854.55
2009/04/23 14:57:12.9     -83   -357     92    367    379 193.2  14.2  34218  290.55 0854.55
2009/04/23 14:57:13.0     -45   -322     63    326    333 188.1  11.0  34208  290.40 0854.56
2009/04/23 14:57:13.1      94   -444    114    454    469 168.0  14.2  34214  290.48 0854.56
2009/04/23 14:57:13.2     137   -550    101    567    577 166.0  10.1  34218  290.54 0854.56
2009/04/23 14:57:13.3     296   -599    171    669    691 153.7  14.4  34190  290.07 0854.56
2009/04/23 14:57:13.4     219   -599    -19    638    639 159.9  -1.8  34202  290.30 0854.56
2009/04/23 14:57:13.5     252   -578      2    631    632 156.4   0.2  34196  290.18 0854.56
2009/04/23 14:57:13.6     239   -526     15    578    579 155.5   1.5  34192  290.12 0854.56
2009/04/23 14:57:13.7     238   -474    192    531    565 153.3  19.9  34204  290.31 0854.56
2009/04/23 14:57:13.8     194   -410    166    454    483 154.7  21.0  34216  290.51 0854.56
2009/04/23 14:57:13.9     110   -414    278    429    511 165.1  36.0  34208  290.37 0854.56
2009/04/23 14:57:14.0       0   -346    118    347    367 180.0  18.8  34212  290.45 0854.56
2009/04/23 14:57:14.1     132   -279    228    309    384 154.6  40.0  34204  290.32 0854.56
2009/04/23 14:57:14.2     114   -262    164    286    329 156.4  32.7  34194  290.14 0854.56
2009/04/23 14:57:14.3     153   -411    286    439    523 159.5  36.0  34176  289.83 0854.56
2009/04/23 14:57:14.4    -138   -352    -35    379    381 201.4  -5.3  34178  289.87 0854.56
2009/04/23 14:57:14.5      36   -208   -124    212    245 170.0 -37.5  34186  290.02 0854.56
2009/04/23 14:57:14.6      96   -143   -107    173    203 145.9 -39.4  34188  290.04 0854.56
2009/04/23 14:57:14.7     160    -12    -15    161    162  94.4  -5.6  34192  290.11 0854.56
2009/04/23 14:57:14.8     115     68   -146    134    198  59.3 -56.9  34184  289.99 0854.56
2009/04/23 14:57:14.9     103    -52   -110    116    159 117.1 -53.1  34188  290.06 0854.56
2009/04/23 14:57:15.0     132    112    -33    174    178  49.8 -10.9  34180  289.92 0854.56
2009/04/23 14:57:15.1      50    110     10    121    122  24.5   4.9  34184  289.99 0854.56
2009/04/23 14:57:15.2      96    130     -6    162    163  36.5  -2.2  34182  289.96 0854.56
2009/04/23 14:57:15.3      86      5     88     87    123  86.5  50.1  34182  289.94 0854.56
2009/04/23 14:57:15.4      10    -19     27     22     34 152.8  56.3  34188  290.06 0854.56
2009/04/23 14:57:15.5     -11    100    126    101    161 353.3  57.1  34186  290.02 0854.56
2009/04/23 14:57:15.6    -136     17    110    138    176 277.5  43.0  34184  289.97 0854.56
2009/04/23 14:57:15.7    -245    -36    -27    248    250 261.6  -6.2  34176  289.83 0854.56
2009/04/23 14:57:15.8    -205   -180     61    273    280 228.7  12.6  34150  289.39 0854.56
2009/04/23 14:57:15.9    -152   -256    200    298    358 210.8  37.2  34162  289.60 0854.56
2009/04/23 14:57:16.0     -37   -235    106    239    261 189.1  25.3  34160  289.58 0854.58
2009/04/23 14:57:16.1     -57   -156     63    167    178 200.3  21.7  34168  289.72 0854.58
2009/04/23 14:57:16.2     -62   -155    106    167    197 201.8  35.5  34178  289.87 0854.58
2009/04/23 14:57:16.3    -219    -85    -34    236    239 248.7  -8.3  34166  289.68 0854.58
2009/04/23 14:57:16.4    -271   -219     76    349    358 231.0  12.4  34168  289.71 0854.58
2009/04/23 14:57:16.5    -167   -109     47    200    206 236.9  13.2  34176  289.84 0854.58
2009/04/23 14:57:16.6    -236   -236    117    335    355 225.0  19.3  34178  289.89 0854.58
2009/04/23 14:57:16.7    -136   -213    133    254    286 212.6  29.8  34164  289.64 0854.58
2009/04/23 14:57:16.8    -280   -332    150    435    461 220.2  19.1  34146  289.34 0854.58
2009/04/23 14:57:16.9    -207   -176    289    272    396 229.6  52.1  34154  289.48 0854.58
2009/04/23 14:57:17.0    -213   -140     26    255    257 236.7   5.9  34158  289.54 0854.58
2009/04/23 14:57:17.1     -46    -16     -6     49     50 250.9  -7.3  34142  289.26 0854.58
2009/04/23 14:57:17.2     -29   -157    215    160    268 190.7  59.8  34162  289.61 0854.58
2009/04/23 14:57:17.3    -151   -241    144    285    319 212.1  28.9  34142  289.25 0854.58
2009/04/23 14:57:17.4    -183   -334    267    381    465 208.8  38.5  34140  289.22 0854.58
2009/04/23 14:57:17.5    -184   -417    237    456    513 203.8  29.6  34138  289.20 0854.58
2009/04/23 14:57:17.6    -151   -396    226    425    481 200.9  30.2  34144  289.29 0854.58
2009/04/23 14:57:17.7    -157   -273    216    316    382 209.9  37.7  34128  289.04 0854.58
2009/04/23 14:57:17.8    -119   -234    243    263    358 207.1  47.7  34146  289.32 0854.58
2009/04/23 14:57:17.9    -166   -295    163    339    376 209.4  27.4  34134  289.13 0854.58
2009/04/23 14:57:18.0    -193   -439    147    480    503 203.7  17.1  34136  289.15 0854.59
2009/04/23 14:57:18.1    -211   -423     65    473    478 206.5   7.9  34136  289.17 0854.59
2009/04/23 14:57:18.2    -213   -374    110    431    446 209.6  14.4  34138  289.19 0854.59
2009/04/23 14:57:18.3    -316      4    127    317    341 270.8  23.0  34148  289.38 0854.59
2009/04/23 14:57:18.4    -263   -107     34    285    288 247.8   6.9  34150  289.39 0854.59
2009/04/23 14:57:18.5    -349    -98    -61    363    369 254.3  -9.6  34130  289.08 0854.59
2009/04/23 14:57:18.6    -255    -24    -91    257    273 264.5 -19.7  34132  289.09 0854.59
2009/04/23 14:57:18.7    -122     -8    -77    123    145 266.1 -39.9  34142  289.28 0854.59
2009/04/23 14:57:18.8    -119   -109     44    162    168 227.3  15.3  34140  289.23 0854.59
2009/04/23 14:57:18.9    -276     58    -50    283    288 281.9 -10.1  34128  289.03 0854.59
2009/04/23 14:57:19.0    -236    -35    -70    239    249 261.4 -21.2  34132  289.09 0854.59
2009/04/23 14:57:19.1    -223    -24    -78    225    238 263.8 -24.3  34130  289.07 0854.59
2009/04/23 14:57:19.2    -266     71     -2    276    277 285.1  -0.5  34134  289.14 0854.59
2009/04/23 14:57:19.3    -285     21    -58    286    292 274.4 -11.5  34130  289.05 0854.59
2009/04/23 14:57:19.4    -196     39   -120    200    233 281.5 -38.4  34124  288.97 0854.59
2009/04/23 14:57:19.5    -210     55   -111    218    244 284.6 -33.5  34132  289.10 0854.59
2009/04/23 14:57:19.6    -188     55    -64    196    206 286.4 -23.8  34132  289.11 0854.59
2009/04/23 14:57:19.7    -197     13    -64    198    209 273.9 -17.9  34132  289.11 0854.59
2009/04/23 14:57:19.8    -191     25    -52    193    201 277.5 -15.2  34134  289.13 0854.59
2009/04/23 14:57:19.9    -198     65    -60    209    217 288.2 -20.4  34142  289.26 0854.59
2009/04/23 14:57:20.0    -150     40      4    156    157 285.0   1.8  34144  289.30 0854.62
2009/04/23 14:57:20.1    -175     35      9    179    180 281.4   2.9  34158  289.55 0854.62
2009/04/23 14:57:20.2    -140     10     47    141    149 274.4  18.4  34156  289.50 0854.62
2009/04/23 14:57:20.3     -26     64    101     70    122 338.2  62.1  34162  289.60 0854.62
2009/04/23 14:57:20.4     -12     53    117     55    129 346.6  72.9  34170  289.75 0854.62
2009/04/23 14:57:20.5      26     26     87     37     94  45.0  75.5  34180  289.92 0854.62
2009/04/23 14:57:20.6      24     64     72     69     99  20.9  51.2  34170  289.74 0854.62
2009/04/23 14:57:20.7      50    115     48    126    134  23.6  21.0  34146  289.35 0854.62
2009/04/23 14:57:20.8     200    -80     50    216    222 111.8  13.2  34152  289.43 0854.62
2009/04/23 14:57:20.9     335    -27    126    337    359  94.7  21.3  34172  289.76 0854.62
2009/04/23 14:57:21.0     434      6    154    435    462  89.1  19.5  34154  289.46 0854.62
2009/04/23 14:57:21.1     351     75    190    360    407  77.9  30.2  34152  289.42 0854.62
2009/04/23 14:57:21.2     411     35    287    413    502  85.0  38.3  34142  289.25 0854.62
2009/04/23 14:57:21.3     317    201    181    376    417  57.6  27.4  34140  289.22 0854.62
2009/04/23 14:57:21.4     356    233    208    426    474  56.7  28.0  34128  289.02 0854.62
2009/04/23 14:57:21.5     383    180    230    424    482  64.8  30.9  34124  288.97 0854.62
2009/04/23 14:57:21.6     436    143    261    459    528  71.8  32.1  34128  289.03 0854.62
2009/04/23 14:57:21.7     465     68    272    470    543  81.7  32.8  34168  289.70 0854.62
2009/04/23 14:57:21.8     428    -40    194    431    472  95.4  25.9  34148  289.38 0854.62
2009/04/23 14:57:21.9     440    -14    193    441    481  91.9  25.2  34154  289.47 0854.62
2009/04/23 14:57:22.0     372     28    133    373    396  85.6  20.4  34172  289.79 0854.61
2009/04/23 14:57:22.1     340     26    148    341    371  85.6  25.0  34156  289.52 0854.61
2009/04/23 14:57:22.2     294    -13    138    295    325  92.6  27.0  34160  289.56 0854.61
2009/04/23 14:57:22.3     280    -21    107    281    300  94.4  22.0  34150  289.41 0854.61
2009/04/23 14:57:22.4     257    -49     93    262    278 101.0  20.4  34114  288.80 0854.61
2009/04/23 14:57:22.5     218   -142    113    261    284 123.1  25.1  34108  288.70 0854.61
2009/04/23 14:57:22.6     253   -130    100    285    303 117.3  19.4  34096  288.48 0854.61
2009/04/23 14:57:22.8     259   -111    104    283    301 113.3  20.9  34092  288.43 0854.61
2009/04/23 14:57:22.9     271    -50    131    276    305 100.6  27.2  34124  288.95 0854.61
2009/04/23 14:57:23.0     231    -71     90    242    258 107.3  21.3  34130  289.05 0854.61
2009/04/23 14:57:23.0     238    -88     88    254    269 110.4  19.2  34104  288.61 0854.61
2009/04/23 14:57:23.2     190   -184    108    265    286 134.0  23.4  34120  288.90 0854.61
2009/04/23 14:57:23.3     216   -179    112    281    302 129.6  23.0  34136  289.17 0854.61
2009/04/23 14:57:23.4     172   -207     92    270    286 140.4  18.9  34138  289.19 0854.61
2009/04/23 14:57:23.5     113   -220     85    248    263 152.8  18.9  34132  289.09 0854.61
2009/04/23 14:57:23.6     156   -129    172    203    266 129.5  44.5  34136  289.15 0854.61
2009/04/23 14:57:23.7     161   -111    163    196    254 124.6  43.8  34130  289.07 0854.61
2009/04/23 14:57:23.8     169   -177     82    246    260 136.3  18.6  34112  288.76 0854.61
2009/04/23 14:57:23.9     100   -144     56    176    185 145.3  17.9  34112  288.75 0854.61
2009/04/23 14:57:24.0      56   -217     58    225    233 165.5  14.5  34100  288.55 0854.62
2009/04/23 14:57:24.1      43   -212     23    217    219 168.4   6.1  34088  288.35 0854.62
2009/04/23 14:57:24.2      40   -199     71    204    217 168.5  19.2  34104  288.64 0854.62
2009/04/23 14:57:24.3       9   -192    111    193    222 177.1  32.7  34134  289.13 0854.62
2009/04/23 14:57:24.4       9   -200    111    201    229 177.3  31.4  34120  288.89 0854.62
2009/04/23 14:57:24.5      53   -182    104    190    216 163.7  31.3  34094  288.45 0854.62
2009/04/23 14:57:24.6      49   -189    107    196    223 165.5  31.3  34122  288.92 0854.62
2009/04/23 14:57:24.7      33   -184    111    188    218 169.8  33.4  34124  288.96 0854.62
2009/04/23 14:57:24.8      24   -204    126    206    241 173.1  34.4  34136  289.18 0854.62
2009/04/23 14:57:24.9       6   -193     85    194    211 178.2  25.1  34132  289.09 0854.62
2009/04/23 14:57:25.0      25   -186     73    188    201 172.2  22.3  34134  289.14 0854.62
2009/04/23 14:57:25.1      39   -166     29    171    174 166.6   9.9  34146  289.33 0854.62
2009/04/23 14:57:25.2      17   -156     -8    157    158 173.7  -3.1  34144  289.31 0854.62
2009/04/23 14:57:25.3       0   -199     51    200    207 180.0  14.5  34132  289.09 0854.62
2009/04/23 14:57:25.4       0   -239     47    240    245 179.8  11.1  34118  288.85 0854.62
2009/04/23 14:57:25.5      26   -245     25    247    249 173.8   5.9  34096  288.49 0854.62
2009/04/23 14:57:25.6      18   -242     29    243    245 175.5   6.9  34086  288.31 0854.62
2009/04/23 14:57:25.7      21   -227     50    229    235 174.7  12.4  34098  288.52 0854.62
2009/04/23 14:57:25.8      17   -226     53    227    234 175.5  13.1  34090  288.38 0854.62
2009/04/23 14:57:25.9      24   -234     58    236    244 174.0  13.9  34104  288.63 0854.62
2009/04/23 14:57:26.0      19   -231     72    232    243 175.1  17.3  34100  288.56 0854.64
2009/04/23 14:57:26.1      27   -248     68    250    260 173.8  15.3  34100  288.56 0854.64
2009/04/23 14:57:26.2      19   -254     54    255    261 175.6  12.2  34086  288.32 0854.64
2009/04/23 14:57:26.3      48   -260     41    265    269 169.5   8.9  34088  288.36 0854.64
2009/04/23 14:57:26.4      41   -262     47    266    271 171.1  10.1  34090  288.39 0854.64
2009/04/23 14:57:26.5      53   -263     63    269    277 168.5  13.2  34086  288.31 0854.64
2009/04/23 14:57:26.6      69   -295     65    304    312 166.7  12.2  34086  288.31 0854.64
2009/04/23 14:57:26.7      61   -303     68    310    318 168.5  12.4  34116  288.83 0854.64
2009/04/23 14:57:26.8      59   -289     60    296    303 168.4  11.6  34148  289.36 0854.64
2009/04/23 14:57:26.9      54   -281     78    287    298 169.1  15.3  34156  289.49 0854.64
2009/04/23 14:57:27.0      62   -283    101    290    308 167.6  19.2  34164  289.64 0854.64
2009/04/23 14:57:27.1      57   -326     98    332    347 170.0  16.5  34172  289.79 0854.64
2009/04/23 14:57:27.2      67   -333    142    340    368 168.6  23.9  34172  289.77 0854.64
2009/04/23 14:57:27.3     -12   -340    182    341    386 182.1  30.5  34166  289.69 0854.64
2009/04/23 14:57:27.4     -75   -374     82    382    391 191.4  12.1  34152  289.45 0854.64
2009/04/23 14:57:27.5     -62   -358    -60    364    369 189.9  -9.4  34152  289.43 0854.64
2009/04/23 14:57:27.6     -17   -331    -92    332    344 183.0 -20.2  34172  289.76 0854.64
2009/04/23 14:57:27.7      20   -421   -119    422    438 177.2 -20.5  34112  288.75 0854.64
2009/04/23 14:57:27.8      13   -520   -132    521    538 178.5 -14.3  34128  289.02 0854.64
2009/04/23 14:57:27.9     -39   -506     38    508    510 184.5   4.4  34150  289.40 0854.64
2009/04/23 14:57:28.0       2   -487      6    488    489 179.7   0.8  34148  289.37 0854.67
2009/04/23 14:57:28.1     -35   -445     96    447    458 184.6  12.2  34154  289.48 0854.67
2009/04/23 14:57:28.2      -1   -374     38    375    377 180.2   5.8  34144  289.30 0854.67
2009/04/23 14:57:28.3     -26   -341    -13    343    344 184.5  -2.2  34142  289.26 0854.67
2009/04/23 14:57:28.4       4   -331     13    332    333 179.2   2.4  34126  289.01 0854.67
2009/04/23 14:57:28.5      -4   -328      1    329    330 180.7   0.2  34122  288.94 0854.67
2009/04/23 14:57:28.6     -41   -324    -12    327    328 187.4  -2.2  34140  289.22 0854.67
2009/04/23 14:57:28.7     -71   -335    -53    343    348 192.1  -8.9  34154  289.47 0854.67
2009/04/23 14:57:28.8     -78   -294    -33    305    307 194.9  -6.2  34150  289.39 0854.67
2009/04/23 14:57:28.9    -129   -227    -83    262    275 209.6 -17.6  34154  289.46 0854.67
2009/04/23 14:57:29.0    -102   -241    -68    262    271 202.9 -14.7  34156  289.51 0854.67
2009/04/23 14:57:29.1      12   -275    -82    276    289 177.5 -16.6  34132  289.09 0854.67
2009/04/23 14:57:29.2      18   -285    -98    286    303 176.2 -18.9  34122  288.93 0854.67
2009/04/23 14:57:29.3     -88   -255    -76    270    281 199.1 -15.8  34134  289.14 0854.67
2009/04/23 14:57:29.4    -152   -223   -113    271    293 214.3 -28.5  34166  289.66 0854.67
2009/04/23 14:57:29.5    -164   -181    -87    245    261 222.1 -19.7  34162  289.59 0854.67
2009/04/23 14:57:29.6    -143   -188    -82    237    251 217.4 -19.1  34162  289.59 0854.67
2009/04/23 14:57:29.7    -126   -175    -73    216    228 215.8 -23.3  34162  289.62 0854.67
2009/04/23 14:57:29.8    -111   -141    -43    180    186 218.3 -13.7  34160  289.58 0854.67
2009/04/23 14:57:29.9     -94   -123    -33    156    160 217.4 -12.2  34164  289.63 0854.67
2009/04/23 14:57:30.0     -75   -150    -55    169    178 206.7 -18.1  34162  289.62 0854.67
2009/04/23 14:57:30.1     -97   -175     -8    201    202 209.0  -2.3  34154  289.48 0854.67
2009/04/23 14:57:30.2     -89   -180     10    201    202 206.3   2.9  34154  289.46 0854.67
2009/04/23 14:57:30.3     -85   -199     31    217    220 203.2   8.2  34146  289.33 0854.67
2009/04/23 14:57:30.4     -34   -208     46    211    217 189.3  12.4  34138  289.21 0854.67
2009/04/23 14:57:30.5    -133   -120     65    180    191 228.0  20.2  34158  289.55 0854.67
2009/04/23 14:57:30.6    -141    -44     29    148    151 252.3  11.1  34160  289.58 0854.67
2009/04/23 14:57:30.7    -137    -45     32    145    149 251.8  12.6  34162  289.62 0854.67
2009/04/23 14:57:30.8    -134    -61     17    148    150 245.6   6.9  34164  289.65 0854.67
2009/04/23 14:57:30.9     -46    -96      5    107    108 205.5   2.9  34146  289.35 0854.67
2009/04/23 14:57:31.0       0    -80      9     81     82 180.0   6.5  34142  289.26 0854.69
2009/04/23 14:57:31.1       7    -99     41    100    108 175.6  23.0  34146  289.35 0854.69
2009/04/23 14:57:31.2       0   -111     32    112    117 180.5  16.3  34164  289.63 0854.69
2009/04/23 14:57:31.3     -28    -78     33     84     90 200.0  22.0  34148  289.38 0854.69
2009/04/23 14:57:31.4     -43    -17     89     47    100 248.3  69.8  34156  289.52 0854.69
2009/04/23 14:57:31.5      40      0     74     41     84  90.0  68.3  34206  290.35 0854.69
2009/04/23 14:57:31.6      31      0     57     32     65  90.0  68.8  34198  290.21 0854.69
2009/04/23 14:57:31.7      50     -3     86     51     99  94.3  66.8  34180  289.92 0854.69
2009/04/23 14:57:31.8      17    -44     49     48     68 158.2  49.1  34180  289.91 0854.69
2009/04/23 14:57:31.9      33     -7     62     34     70 103.3  68.8  34180  289.92 0854.69
2009/04/23 14:57:32.0      16     -7     64     18     66 115.3  83.9  34184  289.99 0854.69
2009/04/23 14:57:32.1      18      8     72     21     75  64.7  82.8  34192  290.11 0854.69
2009/04/23 14:57:32.2      25     25     72     36     80  45.0  71.4  34192  290.11 0854.69
2009/04/23 14:57:32.3     -18      8     62     21     65 295.3  81.0  34198  290.21 0854.69
2009/04/23 14:57:32.4     -27      9     74     29     79 288.6  78.2  34200  290.25 0854.69
2009/04/23 14:57:32.5     -55     35     80     66    103 302.5  56.3  34188  290.04 0854.69
2009/04/23 14:57:32.6     -85     57     73    103    126 303.7  39.1  34172  289.77 0854.69
2009/04/23 14:57:32.7     -64     71    109     96    145 318.1  54.2  34182  289.96 0854.69
2009/04/23 14:57:32.8     -32     54     72     63     95 329.3  54.3  34178  289.87 0854.69
2009/04/23 14:57:32.9     -27     43     69     51     85 327.5  60.0  34184  289.99 0854.69
2009/04/23 14:57:33.0     -15     41     69     44     81 340.0  64.7  34192  290.13 0854.68
2009/04/23 14:57:33.1       0     60     93     61    111   0.9  64.1  34192  290.11 0854.68
2009/04/23 14:57:33.2      34     13     85     37     92  68.3  75.0  34202  290.30 0854.68
2009/04/23 14:57:33.3      72    -70     74    101    125 134.0  39.7  34188  290.06 0854.68
2009/04/23 14:57:33.4      60    -51     89     79    119 130.4  53.7  34180  289.92 0854.68
2009/04/23 14:57:33.5      33   -129     90    134    161 165.3  37.3  34176  289.84 0854.68
2009/04/23 14:57:33.6      48   -135     90    144    169 160.4  35.2  34172  289.79 0854.68
2009/04/23 14:57:33.7      23   -120     90    123    152 168.9  39.7  34172  289.77 0854.68
2009/04/23 14:57:33.8       2   -118     85    119    146 179.0  39.5  34176  289.84 0854.68
2009/04/23 14:57:33.9       6    -99    101    100    142 176.4  50.1  34180  289.92 0854.68
2009/04/23 14:57:34.0      63    -55    109     84    137 131.3  58.5  34202  290.28 0854.68
2009/04/23 14:57:34.1      22   -175    152    177    233 172.7  45.1  34190  290.09 0854.68
2009/04/23 14:57:34.2      31   -175    133    178    222 169.8  40.1  34192  290.13 0854.68
2009/04/23 14:57:34.3     -76   -197    138    212    252 201.2  36.0  34198  290.20 0854.68
2009/04/23 14:57:34.4    -119   -132    141    179    227 222.1  42.4  34250  291.11 0854.68
2009/04/23 14:57:34.5     -78    -72     86    107    137 227.3  43.7  34234  290.84 0854.68
2009/04/23 14:57:34.6    -105     62    125    123    175 300.7  49.9  34242  290.96 0854.68
2009/04/23 14:57:34.7      21    107     99    110    147  11.1  46.9  34292  291.81 0854.68
2009/04/23 14:57:34.8      73    124    115    145    185  30.7  43.0  34290  291.79 0854.68
2009/04/23 14:57:34.9       5     76    128     77    149   4.4  66.2  34254  291.16 0854.68
2009/04/23 14:57:35.0       5     -4    112      7    112 129.5  90.0  34294  291.86 0854.71
2009/04/23 14:57:35.1      41     41     74     58     94  45.0  57.9  34300  291.95 0854.71
2009/04/23 14:57:35.2      34     58     69     68     96  30.7  49.7  34290  291.77 0854.71
2009/04/23 14:57:35.3      21    -13     79     26     83 122.4  81.2  34310  292.12 0854.71
2009/04/23 14:57:35.4      -7      3     71      8     71 295.3  90.0  34314  292.20 0854.71
2009/04/23 14:57:35.5      -2     38    110     39    116 355.6  81.2  34304  292.01 0854.71
2009/04/23 14:57:35.6     103     86     13    135    136  50.4   5.9  34298  291.93 0854.71
2009/04/23 14:57:35.7     193    -31     54    196    204  99.2  15.6  34314  292.20 0854.71
2009/04/23 14:57:35.8     178    109    114    209    238  58.5  31.0  34290  291.79 0854.71
2009/04/23 14:57:35.9      63    207    143    217    259  17.0  36.5  34298  291.92 0854.71
2009/04/23 14:57:36.0      69    213    147    225    268  18.0  36.3  34298  291.92 0854.71
2009/04/23 14:57:36.1      90    264    118    280    303  18.9  24.3  34210  290.41 0854.71
2009/04/23 14:57:36.2      65    233    141    242    280  15.6  32.9  34206  290.36 0854.71
2009/04/23 14:57:36.3       9    191    112    192    222   2.9  33.1  34222  290.64 0854.71
2009/04/23 14:57:36.4      30    243     52    245    251   7.1  12.0  34348  292.76 0854.71
2009/04/23 14:57:36.5     240    178     81    300    311  53.4  15.2  34322  292.33 0854.71
2009/04/23 14:57:36.6     340    224    173    408    443  56.7  24.3  34246  291.02 0854.71
2009/04/23 14:57:36.7     381    209     28    435    436  61.2   3.8  34282  291.65 0854.71
2009/04/23 14:57:36.8     304    146    -11    338    339  64.3  -1.9  34252  291.13 0854.71
2009/04/23 14:57:36.9     210    189     39    283    286  48.0   8.0  34220  290.59 0854.71
2009/04/23 14:57:37.0     127    289     -2    316    317  23.7  -0.4  34190  290.09 0854.73
2009/04/23 14:57:37.1     106    243     47    266    271  23.6  10.1  34214  290.48 0854.73
2009/04/23 14:57:37.2      55    125     94    137    166  24.1  37.6  34226  290.69 0854.73
2009/04/23 14:57:37.3      85    171     90    192    212  26.5  27.1  34200  290.26 0854.73
2009/04/23 14:57:37.4      75    154     92    172    195  25.9  30.3  34178  289.89 0854.73
2009/04/23 14:57:37.5     117    171     78    208    222  34.3  21.5  34164  289.65 0854.73
2009/04/23 14:57:37.6     159    161     78    227    241  44.5  18.9  34172  289.78 0854.73
2009/04/23 14:57:37.7     168    129     80    213    227  52.5  21.5  34188  290.06 0854.73
2009/04/23 14:57:37.8     141    136     81    197    213  46.0  23.4  34194  290.16 0854.73
2009/04/23 14:57:37.9     147    108     73    183    197  53.6  23.0  34202  290.30 0854.73
2009/04/23 14:57:38.0     161     96     93    188    209  59.1  28.0  34266  291.38 0854.73
2009/04/23 14:57:38.1     155     86    104    178    206  60.9  33.1  34206  290.35 0854.73
2009/04/23 14:57:38.2     185     69    128    198    235  69.6  36.0  34180  289.92 0854.73
2009/04/23 14:57:38.3     156    156    118    222    251  45.0  30.3  34214  290.49 0854.73
2009/04/23 14:57:38.4     211    148    125    258    286  54.9  27.3  34230  290.75 0854.73
2009/04/23 14:57:38.5     189    158     70    247    257  50.0  16.0  34276  291.55 0854.73
2009/04/23 14:57:38.6     171    141     76    222    235  50.5  18.9  34324  292.35 0854.73
2009/04/23 14:57:38.7     174    145     92    227    244  50.2  23.4  34296  291.89 0854.73
2009/04/23 14:57:38.8     262     87     28    277    279  71.6   5.9  34280  291.60 0854.73
2009/04/23 14:57:38.9     158     27     10    161    162  80.3   3.8  34274  291.52 0854.73
2009/04/23 14:57:39.0       3    -14    127     15    127 164.9  90.0  34284  291.69 0854.74
2009/04/23 14:57:39.1      59    -91    100    109    147 147.0  47.9  34228  290.74 0854.74
2009/04/23 14:57:39.2      95   -114     75    149    166 140.4  28.5  34190  290.08 0854.74
2009/04/23 14:57:39.3      94   -101    104    139    173 137.2  40.4  34190  290.08 0854.74
2009/04/23 14:57:39.4      69   -115     59    135    147 149.2  25.1  34190  290.09 0854.74
2009/04/23 14:57:39.5      86    -88     93    124    155 135.5  40.1  34194  290.14 0854.74
2009/04/23 14:57:39.6      98    -54    113    113    159 118.9  50.1  34200  290.26 0854.74
2009/04/23 14:57:39.7      83   -114     99    142    173 144.0  38.0  34214  290.50 0854.74
2009/04/23 14:57:39.8     107   -110     75    154    171 135.9  27.4  34194  290.14 0854.74
2009/04/23 14:57:39.9      93    -87     90    128    156 133.1  38.6  34198  290.21 0854.74
2009/04/23 14:57:40.0      72   -101    103    125    161 144.4  44.1  34194  290.16 0854.74
2009/04/23 14:57:40.1     125    -34     70    130    147 105.5  31.3  34196  290.19 0854.74
2009/04/23 14:57:40.2     120    -37     68    126    143 107.3  31.3  34194  290.14 0854.74
2009/04/23 14:57:40.3     127    -41     36    134    139 108.2  15.2  34182  289.96 0854.74
2009/04/23 14:57:40.4      89    -82      1    122    123 132.7   0.7  34208  290.38 0854.74
2009/04/23 14:57:40.5      20   -119      1    121    122 170.2   0.8  34232  290.79 0854.74
2009/04/23 14:57:40.6     -72    -74     66    104    123 224.5  35.5  34242  290.98 0854.74
2009/04/23 14:57:40.7     -60   -129    102    143    175 204.9  38.8  34220  290.58 0854.74
2009/04/23 14:57:40.8     -77   -148    116    168    204 207.6  37.8  34214  290.48 0854.74
2009/04/23 14:57:40.9     -47   -159    108    166    198 196.7  36.3  34218  290.57 0854.74
2009/04/23 14:57:41.0      12   -212    124    213    246 176.6  32.9  34196  290.19 0854.73
2009/04/23 14:57:41.1     179   -157    158    239    286 131.3  36.5  34180  289.92 0854.73
2009/04/23 14:57:41.2     195   -124    193    232    301 122.6  43.8  34186  290.02 0854.73
2009/04/23 14:57:41.3      54    -88    114    104    154 148.4  52.2  34198  290.21 0854.73
2009/04/23 14:57:41.4     129   -129    117    183    217 135.0  35.6  34186  290.02 0854.73
2009/04/23 14:57:41.5     129   -156    114    203    232 140.3  31.6  34182  289.96 0854.73
2009/04/23 14:57:41.6      69   -127    160    145    215 151.5  53.3  34198  290.21 0854.73
2009/04/23 14:57:41.7     160    -91    125    185    223 119.5  37.3  34198  290.21 0854.73
2009/04/23 14:57:41.8     217    -68    154    228    275 107.5  37.4  34196  290.19 0854.73
2009/04/23 14:57:41.9     218    -54    176    225    285 103.9  42.0  34198  290.22 0854.73
2009/04/23 14:57:42.0     242    -67     94    252    268 105.5  21.3  34198  290.22 0854.73
2009/04/23 14:57:42.1     221    -80    102    236    257 109.9  24.9  34208  290.39 0854.73
2009/04/23 14:57:42.2     206    -75    101    220    242 110.0  26.2  34200  290.24 0854.73
2009/04/23 14:57:42.3     197    -59     81    206    221 106.8  22.8  34202  290.28 0854.73
2009/04/23 14:57:42.4     183    -66     93    195    216 110.0  27.3  34202  290.28 0854.73
2009/04/23 14:57:42.5     172    -61    111    183    214 109.5  34.4  34212  290.47 0854.73
2009/04/23 14:57:42.6      50    -97     96    110    146 152.8  45.8  34212  290.45 0854.73
2009/04/23 14:57:42.7      23    -72     90     76    117 161.7  55.4  34218  290.55 0854.73
2009/04/23 14:57:42.8       1    -10     63     11     63 172.0  90.0  34238  290.89 0854.73
2009/04/23 14:57:42.9      24     -1     90     25     93  94.4  84.4  34264  291.35 0854.73
2009/04/23 14:57:43.0      54    -24     82     60    101 114.4  60.5  34246  291.04 0854.65
2009/04/23 14:57:43.1      -8    -11     61     14     62 216.1  88.0  34268  291.42 0854.65
2009/04/23 14:57:43.2     -16    -40     49     44     65 201.8  52.2  34276  291.54 0854.65
2009/04/23 14:57:43.3      44    -57     31     73     79 142.2  24.1  34258  291.23 0854.65
2009/04/23 14:57:43.4      21    -60     22     64     68 160.0  19.2  34266  291.37 0854.65
2009/04/23 14:57:43.5      21    -11     33     24     40 118.9  60.5  34270  291.43 0854.65
2009/04/23 14:57:43.6     -26    -26     29     37     47 225.0  42.7  34260  291.26 0854.65
2009/04/23 14:57:43.7       0    -55     20     56     59 180.9  20.0  34252  291.13 0854.65
2009/04/23 14:57:43.8      16    -88    -11     90     91 169.3  -7.3  34228  290.72 0854.65
2009/04/23 14:57:43.9      10    -91      7     92     93 173.3   4.9  34230  290.77 0854.65
2009/04/23 14:57:44.0      -5    -82     54     83     99 184.0  36.0  34236  290.86 0854.65
2009/04/23 14:57:44.1      -3   -100     77    101    127 181.8  41.7  34242  290.96 0854.65
2009/04/23 14:57:44.2     -25    -75     76     80    110 198.7  48.5  34256  291.20 0854.65
2009/04/23 14:57:44.3     -27    -48     48     56     73 209.0  44.8  34262  291.32 0854.65
2009/04/23 14:57:44.4      -1    -53     62     54     82 181.8  54.3  34294  291.86 0854.65
2009/04/23 14:57:44.5      40    -40     71     57     91 134.9  56.4  34348  292.76 0854.65
2009/04/23 14:57:44.6       6    -46     77     47     90 172.0  65.1  34302  291.98 0854.65
2009/04/23 14:57:44.7      80    -18     64     83    104 102.8  41.2  34342  292.68 0854.65
2009/04/23 14:57:44.8      74    -36     70     83    108 116.2  44.3  34348  292.78 0854.65
2009/04/23 14:57:44.9      52    -22     57     57     80 113.5  50.1  34344  292.69 0854.65
2009/04/23 14:57:45.0      32    -10     41     34     53 108.4  56.3  34350  292.80 0854.65
2009/04/23 14:57:45.1       2     -7     38      8     38 161.3  89.0  34358  292.93 0854.65
2009/04/23 14:57:45.2     -14     15     28     21     35 316.8  60.5  34360  292.98 0854.65
2009/04/23 14:57:45.3       0     11     30     12     32   4.5  77.1  34360  292.98 0854.65
2009/04/23 14:57:45.4     -14      9     20     17     26 302.4  54.3  34362  293.00 0854.65
2009/04/23 14:57:45.5      -3     18     19     19     26 348.4  50.1  34358  292.93 0854.65
2009/04/23 14:57:45.6      -1      8     21      9     22 350.3  77.1  34346  292.73 0854.65
2009/04/23 14:57:45.7     -28      9     23     30     37 288.2  41.7  34316  292.23 0854.65
2009/04/23 14:57:45.8     -13     23     34     27     43 329.3  57.5  34310  292.12 0854.65
2009/04/23 14:57:45.9      -6     25     22     26     34 346.6  45.8  34308  292.08 0854.65
2009/04/23 14:57:46.0      -9     19     28     22     35 334.6  56.4  34314  292.18 0854.65
2009/04/23 14:57:46.1     -20     32     17     38     41 327.4  25.1  34276  291.55 0854.65
2009/04/23 14:57:46.2     -38     25     22     46     51 304.2  27.2  34252  291.13 0854.65
2009/04/23 14:57:46.3     -19     28     24     34     41 325.7  39.7  34262  291.30 0854.65
2009/04/23 14:57:46.4      16     22     18     28     33  36.1  35.6  34276  291.55 0854.65
2009/04/23 14:57:46.5      33     40     18     52     56  39.6  19.4  34290  291.79 0854.65
2009/04/23 14:57:46.6      17     56      7     59     60  16.9   6.9  34306  292.05 0854.65
2009/04/23 14:57:46.7      16     60     22     63     67  15.2  19.4  34324  292.35 0854.65
2009/04/23 14:57:46.8      14     78     -8     80     81  10.7  -6.2  34322  292.32 0854.65
2009/04/23 14:57:46.9       0     90    -15     91     93   0.5  -9.8  34304  292.03 0854.65
2009/04/23 14:57:47.0       0     81    -13     82     84   0.0  -9.3  34278  291.59 0854.65
2009/04/23 14:57:47.1      -3     53      2     54     55 356.4   2.8  34270  291.45 0854.65
2009/04/23 14:57:47.2      -6     51     13     52     54 352.9  14.3  34290  291.77 0854.65
2009/04/23 14:57:47.3      27     47     19     55     59  29.9  18.9  34340  292.63 0854.65
2009/04/23 14:57:47.4      41     22     34     47     58  62.0  39.7  34348  292.78 0854.65
2009/04/23 14:57:47.5      37     10     27     39     47  74.9  37.6  34338  292.61 0854.65
2009/04/23 14:57:47.6      34    -26     29     44     52 127.8  35.6  34336  292.56 0854.65
2009/04/23 14:57:47.7     -50    -24     63     56     84 244.6  53.3  34330  292.47 0854.65
2009/04/23 14:57:47.8      -1     40     51     41     65 357.4  56.4  34296  291.88 0854.65
2009/04/23 14:57:47.9      71    -19     49     74     88 105.1  36.5  34256  291.21 0854.65
2009/04/23 14:57:48.0      93    -53     47    108    117 119.8  25.1  34240  290.92 0854.65
2009/04/23 14:57:48.1     120    -61     35    135    140 117.1  14.7  34242  290.98 0854.65
2009/04/23 14:57:48.2      86    -70     54    111    123 129.1  27.3  34234  290.82 0854.65
2009/04/23 14:57:48.3      85    -59     57    104    118 124.6  31.3  34244  290.99 0854.65
2009/04/23 14:57:48.4      84    -51     56     99    113 121.1  31.9  34240  290.94 0854.65
2009/04/23 14:57:48.5      95    -50     45    108    117 118.0  23.1  34236  290.86 0854.65
2009/04/23 14:57:48.6      72    -55     51     91    104 127.3  31.9  34240  290.92 0854.65
2009/04/23 14:57:48.7      14    -57     68     59     90 165.7  54.8  34246  291.03 0854.65
2009/04/23 14:57:48.8      18    -49     52     53     74 160.0  51.1  34256  291.21 0854.65
2009/04/23 14:57:48.9      29    -53     42     61     74 151.0  36.5  34250  291.11 0854.65
2009/04/23 14:57:49.0      49    -49     28     70     75 134.9  23.0  34244  290.99 0854.65
2009/04/23 14:57:49.2      39    -51     38     65     75 142.2  33.5  34254  291.16 0854.65
2009/04/23 14:57:49.2      32    -35     38     48     61 137.7  43.7  34266  291.37 0854.65
2009/04/23 14:57:49.3      18    -30     32     36     48 149.3  47.9  34258  291.25 0854.65
2009/04/23 14:57:49.5      23     -8     23     25     33 110.0  50.0  34262  291.32 0854.65
2009/04/23 14:57:49.6      12    -30     32     33     45 158.2  50.0  34260  291.26 0854.65
2009/04/23 14:57:49.7      15    -46     34     49     59 161.5  38.6  34258  291.25 0854.65
2009/04/23 14:57:49.8      18    -29     39     35     52 147.4  53.3  34262  291.32 0854.65
2009/04/23 14:57:49.9      25    -23     33     35     48 133.1  50.0  34254  291.16 0854.65
2009/04/23 14:57:50.0      60    -28     23     67     72 115.4  19.2  34248  291.06 0854.65
2009/04/23 14:57:50.1      74    -34     24     82     86 115.2  16.8  34238  290.91 0854.66
2009/04/23 14:57:50.2      86    -42     19     96     99 116.2  11.6  34230  290.75 0854.66
2009/04/23 14:57:50.3     122    -13     31    123    127  96.1  14.3  34216  290.52 0854.66
2009/04/23 14:57:50.4     157     18     38    159    164  83.2  13.7  34224  290.65 0854.66
2009/04/23 14:57:50.5     176     33     78    180    196  79.4  25.1  34246  291.04 0854.66
2009/04/23 14:57:50.6     207     39     21    211    213  79.2   5.9  34222  290.64 0854.66
2009/04/23 14:57:50.7     195      0     30    196    199  89.9   8.9  34312  292.15 0854.66
2009/04/23 14:57:50.8     245     49    115    250    275  78.6  26.2  34436  294.27 0854.66
2009/04/23 14:57:50.9     184     94     82    207    222  62.9  23.0  34426  294.11 0854.66
2009/04/23 14:57:51.0     298    106    120    317    338  70.3  21.7  34426  294.11 0854.66
2009/04/23 14:57:51.1     269    167    140    317    346  58.2  25.3  34272  291.49 0854.66
2009/04/23 14:57:51.2     270    149    146    309    341  61.1  27.1  34308  292.10 0854.66
2009/04/23 14:57:51.3     387    197     94    435    446  63.0  12.3  34368  293.12 0854.66
2009/04/23 14:57:51.4     302    279    112    412    428  47.2  15.3  34210  290.43 0854.66
2009/04/23 14:57:51.5     201    248    112    320    340  39.0  19.3  34208  290.37 0854.66
2009/04/23 14:57:51.6     135    242     35    278    281  29.2   7.2  34228  290.71 0854.66
2009/04/23 14:57:51.7      87    264     43    279    283  18.3   8.9  34222  290.63 0854.66
2009/04/23 14:57:51.8      67    248      0    258    259  15.2   0.0  34222  290.61 0854.66
2009/04/23 14:57:51.9     -13    306    124    307    331 357.4  23.1  34226  290.70 0854.66
2009/04/23 14:57:52.0     100    249    134    269    300  21.9  28.2  34204  290.31 0854.65
2009/04/23 14:57:52.1     126    215    144    250    288  30.5  32.7  34186  290.02 0854.65
2009/04/23 14:57:52.2     167    213     74    271    281  38.1  15.3  34180  289.92 0854.65
2009/04/23 14:57:52.3      87    257     50    272    277  18.7  10.6  34182  289.95 0854.65
2009/04/23 14:57:52.4     121    292     72    317    326  22.5  12.9  34222  290.63 0854.65
2009/04/23 14:57:52.5      96    252     63    270    278  21.0  13.1  34218  290.54 0854.65
2009/04/23 14:57:52.6     195    260     59    325    331  36.9  10.3  34200  290.25 0854.65
2009/04/23 14:57:52.7     198    285     74    348    356  34.8  12.1  34192  290.13 0854.65
2009/04/23 14:57:52.8      60    315     80    321    331  10.9  14.2  34182  289.93 0854.65
2009/04/23 14:57:52.9     129    271    120    301    324  25.4  22.9  34262  291.31 0854.65
2009/04/23 14:57:53.0     184    116    124    218    250  57.6  32.4  34336  292.55 0854.65
2009/04/23 14:57:53.1     172    253    180    306    355  34.2  33.3  34242  290.98 0854.65
2009/04/23 14:57:53.2      80    274    131    286    314  16.3  26.3  34200  290.24 0854.65
2009/04/23 14:57:53.3      88    284     76    298    308  17.2  14.3  34180  289.90 0854.65
2009/04/23 14:57:53.4      93    307     63    322    329  16.9  11.1  34174  289.81 0854.65
2009/04/23 14:57:53.5     101    299     81    316    327  18.7  14.4  34182  289.95 0854.65
2009/04/23 14:57:53.6     149    233     34    277    280  32.7   7.1  34192  290.12 0854.65
2009/04/23 14:57:53.7     168    218     46    276    280  37.6   9.5  34192  290.10 0854.65
2009/04/23 14:57:53.8     167    195    115    257    281  40.5  25.7  34208  290.39 0854.65
2009/04/23 14:57:53.9     188    155     86    244    258  50.5  20.0  34194  290.15 0854.65
2009/04/23 14:57:54.0     256    138     95    292    308  61.6  18.1  34224  290.65 0854.62
2009/04/23 14:57:54.1     277    202     73    343    351  53.9  12.2  34244  291.00 0854.62
2009/04/23 14:57:54.2     260    158     54    305    310  58.7  10.1  34246  291.04 0854.62
2009/04/23 14:57:54.3     210    276     -4    347    348  37.3  -0.7  34184  289.99 0854.62
2009/04/23 14:57:54.4     156    220     73    271    281  35.4  15.2  34188  290.03 0854.62
2009/04/23 14:57:54.5     195    172     57    261    268  48.6  12.4  34186  290.02 0854.62
2009/04/23 14:57:54.6     227    173     24    286    288  52.7   4.9  34194  290.14 0854.62
2009/04/23 14:57:54.7     148    167     87    224    240  41.7  22.1  34208  290.39 0854.62
2009/04/23 14:57:54.8     162    148     88    220    236  47.6  23.0  34216  290.53 0854.62
2009/04/23 14:57:54.9     258     18     48    259    264  85.9  10.6  34252  291.14 0854.62
2009/04/23 14:57:55.0     272     55     -1    278    279  78.6  -0.3  34250  291.09 0854.62
2009/04/23 14:57:55.1     316     88     16    329    330  74.4   2.8  34250  291.11 0854.62
2009/04/23 14:57:55.2     308    -37    118    311    332  97.0  21.7  34270  291.44 0854.62
2009/04/23 14:57:55.3     271    -12    116    272    295  92.6  24.6  34272  291.46 0854.62
2009/04/23 14:57:55.4     241    -18     54    242    249  94.3  12.6  34266  291.38 0854.62
2009/04/23 14:57:55.5     268   -108     24    289    291 112.0   4.9  34224  290.66 0854.62
2009/04/23 14:57:55.6     288   -115     -1    311    312 111.8  -0.2  34216  290.53 0854.62
2009/04/23 14:57:55.7     278   -131    -11    308    309 115.2  -2.1  34226  290.68 0854.62
2009/04/23 14:57:55.8     244    -93    -33    262    265 110.8  -7.2  34192  290.12 0854.62
2009/04/23 14:57:55.9     236   -117     25    264    266 116.4   5.4  34208  290.39 0854.62
2009/04/23 14:57:56.0     221    -97     -1    242    243 113.7  -0.3  34204  290.32 0854.61
2009/04/23 14:57:56.1     229    -99     -9    250    251 113.5  -2.2  34202  290.29 0854.61
2009/04/23 14:57:56.2     238    -93      8    256    257 111.5   1.8  34212  290.44 0854.61
2009/04/23 14:57:56.3     252    -90     13    268    269 109.7   2.9  34244  290.99 0854.61
2009/04/23 14:57:56.4     253   -113     59    278    285 114.2  12.0  34308  292.07 0854.61
2009/04/23 14:57:56.5     242    -80     55    256    262 108.4  12.2  34242  290.97 0854.61
2009/04/23 14:57:56.6     237    -81     64    251    260 109.0  14.3  34260  291.26 0854.61
2009/04/23 14:57:56.7     239    -14     65    240    249  93.5  15.2  34232  290.78 0854.61
2009/04/23 14:57:56.8     220     34     51    223    229  81.0  12.9  34220  290.60 0854.61
2009/04/23 14:57:56.9     212      3     73    213    226  89.1  18.9  34250  291.09 0854.61
2009/04/23 14:57:57.0     118    -16     18    120    122  98.0   8.9  34284  291.67 0854.61
2009/04/23 14:57:57.1      80    -66     13    104    105 129.5   7.5  34298  291.93 0854.61
2009/04/23 14:57:57.2      48    -48     -8     68     69 134.9  -7.3  34300  291.96 0854.61
2009/04/23 14:57:57.3       1    -37    -36     38     52 177.3 -54.4  34294  291.84 0854.61
2009/04/23 14:57:57.4     -18    -28    -46     34     57 212.6 -63.8  34294  291.86 0854.61
2009/04/23 14:57:57.5      38    -87    -79     95    123 156.4 -48.7  34290  291.79 0854.61
2009/04/23 14:57:57.6      10   -105    -81    106    133 174.2 -46.0  34274  291.52 0854.61
2009/04/23 14:57:57.7     -51   -168    -13    176    177 196.9  -4.4  34298  291.91 0854.61
2009/04/23 14:57:57.8     -68   -107     40    128    135 212.5  17.4  34294  291.84 0854.61
2009/04/23 14:57:57.9     -88   -134     28    161    164 213.4   9.9  34286  291.71 0854.61
2009/04/23 14:57:58.0    -117   -141    -23    184    186 219.7  -7.2  34250  291.11 0854.59
2009/04/23 14:57:58.1    -134   -137    -27    192    194 224.3  -8.0  34256  291.20 0854.59
2009/04/23 14:57:58.2    -111   -228     79    254    266 206.1  17.3  34236  290.87 0854.59
2009/04/23 14:57:58.3     -39   -247    123    251    279 189.1  28.2  34264  291.33 0854.59
2009/04/23 14:57:58.4      20   -212    134    214    252 174.4  35.5  34218  290.54 0854.59
2009/04/23 14:57:58.5       0   -215    106    216    240 180.0  28.2  34256  291.21 0854.59
2009/04/23 14:57:58.6     -52   -210     96    217    237 194.0  25.2  34282  291.66 0854.59
2009/04/23 14:57:58.7     -54   -143    212    154    262 200.9  60.5  34302  291.98 0854.59
2009/04/23 14:57:58.8     -41   -152    177    158    237 195.2  53.7  34300  291.95 0854.59
2009/04/23 14:57:58.9     -43   -162    183    168    248 195.1  52.7  34232  290.79 0854.59
2009/04/23 14:57:59.0     -43   -165    187    171    253 194.7  52.5  34212  290.45 0854.60
2009/04/23 14:57:59.1     -44   -239    175    244    300 190.6  39.3  34224  290.65 0854.60
2009/04/23 14:57:59.2     -34   -223    173    226    284 188.9  41.6  34226  290.68 0854.60
2009/04/23 14:57:59.3     -72   -190    174    204    268 200.9  44.8  34268  291.39 0854.60
2009/04/23 14:57:59.4     -29   -184    183    187    261 189.1  49.4  34252  291.14 0854.60
2009/04/23 14:57:59.5     -55   -152    157    162    225 200.0  49.2  34248  291.06 0854.60
2009/04/23 14:57:59.6     -34   -180    127    184    223 190.9  37.8  34214  290.50 0854.60
2009/04/23 14:57:59.7     -23   -193    104    195    221 186.9  30.3  34214  290.48 0854.60
2009/04/23 14:57:59.8     -17   -208     72    209    222 184.7  19.2  34212  290.47 0854.60
2009/04/23 14:57:59.9     -50   -229    108    235    258 192.5  26.4  34218  290.56 0854.60
2009/04/23 14:58:00.0     -42   -260     92    264    279 189.3  20.0  34222  290.63 0854.60
2009/04/23 14:58:00.1     -34   -235     84    238    253 188.2  19.4  34224  290.66 0854.60
2009/04/23 14:58:00.2     -30   -211     85    214    230 188.1  23.0  34216  290.53 0854.60
2009/04/23 14:58:00.3      -8   -236     42    237    241 182.0  10.1  34226  290.70 0854.60
2009/04/23 14:58:00.4      -8   -211     37    212    216 182.2   9.9  34242  290.96 0854.60
2009/04/23 14:58:00.5     -28   -201     52    204    211 188.1  14.3  34238  290.89 0854.60
2009/04/23 14:58:00.6     -42   -201     13    206    207 191.8   3.6  34242  290.98 0854.60
2009/04/23 14:58:00.7      36   -211    -60    215    223 170.2 -20.2  34218  290.57 0854.60
2009/04/23 14:58:00.8      83   -223     -9    239    240 159.5  -2.2  34216  290.51 0854.60
2009/04/23 14:58:00.9      68   -166    -28    180    183 157.5  -8.8  34218  290.55 0854.60
2009/04/23 14:58:01.0     149   -148      2    211    212 134.7   0.7  34204  290.31 0854.58
2009/04/23 14:58:01.1      59   -181     37    191    195 162.0  11.0  34204  290.33 0854.58
2009/04/23 14:58:01.2      62   -200     23    210    212 162.6   6.5  34214  290.50 0854.58
2009/04/23 14:58:01.3      37   -159     56    164    174 166.7  18.9  34218  290.55 0854.58
2009/04/23 14:58:01.4      61   -129     92    143    170 154.7  35.6  34224  290.65 0854.58
2009/04/23 14:58:01.5     130   -130    114    185    217 135.0  34.8  34214  290.48 0854.58
2009/04/23 14:58:01.6     102   -105    125    147    192 135.9  44.8  34220  290.60 0854.58
2009/04/23 14:58:01.7      24    -73     85     78    115 161.5  52.2  34228  290.74 0854.58
2009/04/23 14:58:01.8      25   -126    100    129    163 168.5  41.7  34226  290.69 0854.58
2009/04/23 14:58:01.9      21   -154     89    156    179 172.0  32.1  34228  290.72 0854.58
2009/04/23 14:58:02.0       2   -172    107    173    203 179.1  35.0  34222  290.64 0854.58
2009/04/23 14:58:02.1     -82   -237    173    251    304 199.1  37.8  34232  290.78 0854.58
2009/04/23 14:58:02.2    -147   -288     78    324    334 207.0  13.6  34212  290.45 0854.58
2009/04/23 14:58:02.3     -80   -272     92    284    299 196.5  17.9  34206  290.34 0854.58
2009/04/23 14:58:02.4     -50   -277    115    282    304 190.2  23.1  34194  290.15 0854.58
2009/04/23 14:58:02.5     -48   -284    109    289    308 189.7  21.5  34196  290.19 0854.58
2009/04/23 14:58:02.6     -25   -252    131    254    285 185.8  29.3  34202  290.27 0854.58
2009/04/23 14:58:02.7     -42   -258    141    262    297 189.3  30.8  34206  290.34 0854.58
2009/04/23 14:58:02.8     -51   -221    139    227    266 193.1  34.5  34200  290.26 0854.58
2009/04/23 14:58:02.9     -67   -236    131    246    278 196.0  30.3  34196  290.19 0854.58
2009/04/23 14:58:03.0     -62   -228    132    237    271 195.2  31.4  34200  290.26 0854.59
2009/04/23 14:58:03.1     -88   -231    132    248    280 200.9  30.3  34200  290.26 0854.59
2009/04/23 14:58:03.2     -72   -199    146    212    257 200.1  38.0  34194  290.15 0854.59
2009/04/23 14:58:03.3     -16   -203    146    204    250 184.7  39.1  34204  290.32 0854.59
2009/04/23 14:58:03.4      25   -218    166    220    275 173.3  40.9  34204  290.31 0854.59
2009/04/23 14:58:03.5      35   -175    146    179    230 168.4  43.7  34220  290.60 0854.59
2009/04/23 14:58:03.6      -3   -162    132    163    209 181.1  43.5  34246  291.03 0854.59
2009/04/23 14:58:03.7     -10   -140     62    141    154 184.5  25.1  34240  290.94 0854.59
2009/04/23 14:58:03.8      36   -178     89    182    202 168.4  27.8  34242  290.96 0854.59
2009/04/23 14:58:03.9       0   -163     65    164    176 179.8  22.8  34228  290.72 0854.59
2009/04/23 14:58:04.0      98    -62     49    117    126 122.4  23.6  34232  290.81 0854.59
2009/04/23 14:58:04.1     -45     10     82     47     94 283.3  67.2  34244  290.99 0854.59
2009/04/23 14:58:04.2     -70   -109    129    130    183 212.6  50.2  34230  290.77 0854.59
2009/04/23 14:58:04.3     -12   -157     82    158    178 184.5  29.8  34230  290.75 0854.59
2009/04/23 14:58:04.4      45    -54     62     71     94 140.3  45.8  34238  290.89 0854.59
2009/04/23 14:58:04.5     135     28     32    138    142  78.1  13.1  34236  290.86 0854.59
2009/04/23 14:58:04.6      -6    -11     67     13     68 209.0  89.1  34226  290.70 0854.59
2009/04/23 14:58:04.7     -86   -103     76    135    154 219.6  31.4  34218  290.57 0854.59
2009/04/23 14:58:04.8     -57   -111    131    125    181 207.2  51.4  34218  290.55 0854.59
2009/04/23 14:58:04.9     -69    -43     41     82     91 237.6  28.2  34212  290.45 0854.59
2009/04/23 14:58:05.0       2      2     20      3     20  45.0  90.0  34222  290.62 0854.59
2009/04/23 14:58:05.1      42     20     96     47    106  64.7  72.4  34224  290.65 0854.59
2009/04/23 14:58:05.2       6    -18     95     19     96 161.5  89.0  34222  290.62 0854.59
2009/04/23 14:58:05.3     -17      7     63     19     65 291.7  81.8  34222  290.64 0854.59
2009/04/23 14:58:05.4       2     -5     71      6     71 154.6  90.0  34222  290.64 0854.59
2009/04/23 14:58:05.5      44    -31     48     54     72 125.1  46.9  34218  290.55 0854.59
2009/04/23 14:58:05.6     106    -46     44    116    124 113.5  21.0  34210  290.43 0854.59
2009/04/23 14:58:05.7      91      0     61     92    110  90.4  36.0  34206  290.35 0854.59
2009/04/23 14:58:05.8     102    -48    115    113    161 115.4  50.4  34204  290.33 0854.59
2009/04/23 14:58:05.9     123    -33    114    128    171 105.1  46.4  34202  290.28 0854.59
2009/04/23 14:58:06.0      56    -46    105     73    127 129.5  62.1  34210  290.41 0854.59
2009/04/23 14:58:06.1      80   -115     65    141    155 145.3  27.1  34198  290.23 0854.59
2009/04/23 14:58:06.2      19   -133     32    135    139 171.9  13.7  34194  290.14 0854.59
2009/04/23 14:58:06.3      15    -57      0     60     61 164.8   0.8  34196  290.18 0854.59
2009/04/23 14:58:06.4      75    -40     56     86    102 118.4  36.0  34200  290.25 0854.59
2009/04/23 14:58:06.5      54    -50     46     74     87 133.1  35.5  34204  290.33 0854.59
2009/04/23 14:58:06.6      21      9     55     23     59  66.5  77.0  34218  290.55 0854.59
2009/04/23 14:58:06.7      19     43     53     48     71  23.6  52.2  34220  290.60 0854.59
2009/04/23 14:58:06.8      -4      1     51      5     51 288.4  90.0  34218  290.57 0854.59
2009/04/23 14:58:06.9      40      8     60     41     72  78.5  62.6  34208  290.40 0854.59
2009/04/23 14:58:07.0      65    -21     36     69     77 108.2  29.3  34210  290.43 0854.55
2009/04/23 14:58:07.1     119     -9     46    120    128  94.4  22.0  34200  290.25 0854.55
2009/04/23 14:58:07.2     103     19     95    105    141  79.4  47.5  34200  290.26 0854.55
2009/04/23 14:58:07.3      69     26    105     74    128  69.2  61.5  34212  290.47 0854.55
2009/04/23 14:58:07.4      56     26     82     62    102  64.8  59.0  34212  290.47 0854.55
2009/04/23 14:58:07.5      62     20     68     66     94  71.8  49.7  34208  290.38 0854.55
2009/04/23 14:58:07.6      91     57     62    108    124  57.6  32.9  34204  290.31 0854.55
2009/04/23 14:58:07.7     115     63     63    132    146  61.2  27.2  34204  290.33 0854.55
2009/04/23 14:58:07.8     110     52     82    122    146  64.7  37.0  34204  290.33 0854.55
2009/04/23 14:58:07.9     116     47     65    126    141  67.8  29.3  34200  290.26 0854.55
2009/04/23 14:58:08.0     143     22     97    145    174  81.2  36.7  34196  290.18 0854.55
2009/04/23 14:58:08.1     145     29     99    148    178  78.5  37.0  34198  290.23 0854.55
2009/04/23 14:58:08.2     140     44    116    147    187  72.3  42.7  34198  290.21 0854.55
2009/04/23 14:58:08.3     129     61     99    143    173  64.6  37.8  34200  290.26 0854.55
2009/04/23 14:58:08.4     107     55     81    121    145  62.5  37.0  34196  290.18 0854.55
2009/04/23 14:58:08.5     126     50     93    136    164  68.3  37.6  34202  290.30 0854.55
2009/04/23 14:58:08.6     106     57     87    121    149  61.6  39.5  34206  290.35 0854.55
2009/04/23 14:58:08.7      85     40     68     95    116  64.7  39.1  34204  290.31 0854.55
2009/04/23 14:58:08.8      91     26     52     95    108  73.6  30.8  34200  290.25 0854.55
2009/04/23 14:58:08.9      99     20     52    102    114  78.5  29.3  34204  290.33 0854.55
2009/04/23 14:58:09.0      96     27     57    100    115  74.1  32.4  34206  290.36 0854.59
2009/04/23 14:58:09.1      91     17     54     93    107  79.0  32.9  34202  290.30 0854.59
2009/04/23 14:58:09.2      76      5     64     77    100  85.6  43.8  34204  290.33 0854.59
2009/04/23 14:58:09.3      87     23     58     91    107  74.9  35.5  34206  290.36 0854.59
2009/04/23 14:58:09.4      73     14     54     75     92  78.6  39.7  34206  290.35 0854.59
2009/04/23 14:58:09.5      67     20     81     70    107  73.2  54.8  34212  290.47 0854.59
2009/04/23 14:58:09.6      93     34     57    100    115  69.6  32.4  34200  290.26 0854.59
2009/04/23 14:58:09.7     118     80     12    143    144  55.8   5.0  34222  290.64 0854.59
2009/04/23 14:58:09.8     115     75     30    138    142  56.7  12.6  34220  290.58 0854.59
2009/04/23 14:58:09.9     107     78     48    133    141  53.6  20.9  34210  290.41 0854.59
2009/04/23 14:58:10.0     121     44     77    129    150  70.0  33.5  34198  290.23 0854.59
2009/04/23 14:58:10.1     131     54     83    142    164  67.4  33.1  34198  290.21 0854.59
2009/04/23 14:58:10.2     104     53     18    117    119  62.9   9.0  34206  290.35 0854.59
2009/04/23 14:58:10.3     132     52     29    143    147  68.3  11.6  34208  290.40 0854.59
2009/04/23 14:58:10.4     128     81    134    152    202  57.6  46.2  34334  292.54 0854.59
2009/04/23 14:58:10.5     112     49    136    123    183  66.0  53.0  34314  292.20 0854.59
2009/04/23 14:58:10.6     138     55    107    149    183  68.3  39.3  34346  292.75 0854.59
2009/04/23 14:58:10.7      72     59    125     94    156  50.5  59.4  34336  292.58 0854.59
2009/04/23 14:58:10.8     138     57    100    150    180  67.4  37.0  34312  292.17 0854.59
2009/04/23 14:58:10.9     111     90    122    144    188  50.9  44.3  34364  293.04 0854.59
2009/04/23 14:58:11.0      82    108    111    136    175  37.4  43.7  34364  293.05 0854.59
2009/04/23 14:58:11.1      66     74    106    100    145  41.4  52.1  34366  293.07 0854.59
2009/04/23 14:58:11.2      39     98     79    106    132  21.9  40.7  34380  293.33 0854.59
2009/04/23 14:58:11.3      58    104     96    120    153  29.0  43.3  34382  293.36 0854.59
2009/04/23 14:58:11.4      66     59    126     89    154  48.2  61.5  34394  293.56 0854.59
2009/04/23 14:58:11.5     126     41    139    133    192  71.8  51.2  34376  293.24 0854.59
2009/04/23 14:58:11.6     114     37    103    120    158  71.8  45.4  34418  293.97 0854.59
2009/04/23 14:58:11.7      67     44    121     81    145  56.3  63.2  34400  293.67 0854.59
2009/04/23 14:58:11.8      16     38     92     42    101  23.6  73.5  34406  293.77 0854.59
2009/04/23 14:58:11.9      -4     -5     64      7     64 219.6  90.0  34406  293.75 0854.59
2009/04/23 14:58:12.0      -3      3     53      5     53 315.0  90.0  34400  293.67 0854.59
2009/04/23 14:58:12.1      -7     22     60     24     64 341.7  77.1  34392  293.53 0854.59
2009/04/23 14:58:12.2      -8     62     68     63     92 352.0  52.2  34394  293.55 0854.59
2009/04/23 14:58:12.3     -40     48     73     63     96 320.4  54.8  34364  293.05 0854.59
2009/04/23 14:58:12.4     -71     58     46     92    102 309.5  28.2  34334  292.54 0854.59
2009/04/23 14:58:12.5     -69     63     -3     94     95 312.7  -2.2  34316  292.22 0854.59
2009/04/23 14:58:12.6      -4     52     35     53     63 355.5  36.5  34354  292.88 0854.59
2009/04/23 14:58:12.7      -1     17     40     18     43 355.6  75.0  34374  293.22 0854.59
2009/04/23 14:58:12.8     -21     34     33     41     52 328.4  43.7  34368  293.12 0854.59
2009/04/23 14:58:12.9     -27     56     27     63     68 333.7  24.1  34364  293.05 0854.59
2009/04/23 14:58:13.0     -19     21      5     29     30 316.6  11.1  34352  292.85 0854.54
2009/04/23 14:58:13.1     -37     31      7     49     50 309.6   9.0  34346  292.75 0854.54
2009/04/23 14:58:13.2     -57     19      1     61     62 288.4   1.8  34352  292.83 0854.54
2009/04/23 14:58:13.3     -67     31     20     75     78 295.2  15.3  34356  292.92 0854.54
2009/04/23 14:58:13.4     -81     67     51    106    117 309.5  27.2  34354  292.86 0854.54
2009/04/23 14:58:13.5     -95     60     72    113    133 302.5  35.5  34350  292.80 0854.54
2009/04/23 14:58:13.6     -89     89     56    127    138 314.9  25.1  34340  292.64 0854.54
2009/04/23 14:58:13.7     -50    110      1    121    122 335.5   0.8  34326  292.39 0854.54
2009/04/23 14:58:13.8     -39     77     -7     87     88 333.3  -5.2  34316  292.22 0854.54
2009/04/23 14:58:13.9     -41     70     19     82     85 329.7  13.2  34318  292.25 0854.54
2009/04/23 14:58:14.0     -50     80     35     95    101 327.9  21.0  34322  292.32 0854.53
2009/04/23 14:58:14.1     -66     90     46    112    121 323.9  23.6  34326  292.39 0854.53
2009/04/23 14:58:14.2     -78     73     56    107    120 313.1  29.3  34316  292.22 0854.53
2009/04/23 14:58:14.3     -90    106     57    140    151 319.5  23.1  34308  292.08 0854.53
2009/04/23 14:58:14.4     -95    102     48    140    149 316.8  18.9  34318  292.27 0854.53
2009/04/23 14:58:14.5     -21    119     68    121    138 349.8  31.4  34364  293.05 0854.53
2009/04/23 14:58:14.6      14    131     82    132    155   6.2  35.5  34384  293.38 0854.53
2009/04/23 14:58:14.7     -15    149     84    150    171 354.2  31.9  34364  293.05 0854.53
2009/04/23 14:58:14.8     -21    125     57    127    139 350.2  26.2  34362  293.00 0854.53
2009/04/23 14:58:14.9       8    110     51    111    122   4.5  26.2  34364  293.04 0854.53
2009/04/23 14:58:15.0      -5     70      8     71     72 355.6   7.1  34338  292.61 0854.53
2009/04/23 14:58:15.1       2     83      0     84     85   1.8   0.2  34326  292.39 0854.53
2009/04/23 14:58:15.2      32     87     36     93     99  20.5  22.0  34346  292.75 0854.53
2009/04/23 14:58:15.3      30    101    104    106    148  16.9  50.0  34364  293.05 0854.53
2009/04/23 14:58:15.4     165    113    135    201    242  55.6  37.0  34440  294.33 0854.53
2009/04/23 14:58:15.5     172    123    118    212    242  54.5  31.6  34408  293.78 0854.53
2009/04/23 14:58:15.6     133    110     -2    173    174  50.5  -0.7  34394  293.55 0854.53
2009/04/23 14:58:15.7      59     74      4     95     96  38.7   2.8  34374  293.22 0854.53
2009/04/23 14:58:15.8      47     98     10    109    110  25.9   5.4  34360  292.97 0854.53
2009/04/23 14:58:15.9      72    105    -16    128    130  34.3  -7.2  34390  293.50 0854.53
2009/04/23 14:58:16.0      36     59     -8     70     71  31.6  -7.2  34366  293.07 0854.56
2009/04/23 14:58:16.1      -1     71    -24     72     75 359.1 -23.6  34346  292.75 0854.56
2009/04/23 14:58:16.3     -10     69    -31     70     76 351.1 -29.5  34338  292.61 0854.56
2009/04/23 14:58:16.4      22     79    -18     83     86  16.0 -12.4  34354  292.86 0854.56
2009/04/23 14:58:16.5      -2    144      7    145    146 359.1   2.8  34342  292.66 0854.56
2009/04/23 14:58:16.6      -9    180     -6    181    182 357.1  -2.1  34324  292.35 0854.56
2009/04/23 14:58:16.7     -37    214     -4    218    219 350.0  -1.3  34308  292.10 0854.56
2009/04/23 14:58:16.8     -26    195     -7    197    198 352.2  -2.2  34264  291.35 0854.56
2009/04/23 14:58:16.9      26    186    -33    188    191   8.1 -10.1  34272  291.49 0854.56
2009/04/23 14:58:17.0       0    170    -55    171    180   0.2 -17.9  34248  291.06 0854.56
2009/04/23 14:58:17.1     -74    125    -95    146    174 329.3 -40.1  34250  291.09 0854.56
2009/04/23 14:58:17.2     -23    197      0    199    200 353.3  -0.3  34246  291.04 0854.56
2009/04/23 14:58:17.3      15    205     29    206    209   4.4   8.2  34262  291.32 0854.56
2009/04/23 14:58:17.4      13    183     37    184    188   4.2  11.4  34260  291.28 0854.56
2009/04/23 14:58:17.5     -31    133     21    137    139 346.7   9.0  34252  291.13 0854.56
2009/04/23 14:58:17.6     -28    106     36    110    116 344.8  18.4  34258  291.25 0854.56
2009/04/23 14:58:17.7     -33    110     19    116    118 343.1   9.5  34254  291.18 0854.56
2009/04/23 14:58:17.8      58    146     83    158    178  21.8  30.1  34276  291.55 0854.56
2009/04/23 14:58:17.9     119    132     97    179    203  42.1  31.0  34278  291.57 0854.56
2009/04/23 14:58:18.0     136    115     71    179    192  49.8  22.8  34284  291.69 0854.56
2009/04/23 14:58:18.1     132     47    118    141    183  70.1  44.1  34302  291.98 0854.56
2009/04/23 14:58:18.2     125     36     94    131    161  73.6  39.3  34368  293.12 0854.56
2009/04/23 14:58:18.3     126     41     78    133    154  71.8  33.5  34330  292.46 0854.56
2009/04/23 14:58:18.4     163    -14    116    164    200  95.2  38.8  34266  291.38 0854.56
2009/04/23 14:58:18.5     234     53     74    240    252  77.2  17.1  34262  291.31 0854.56
2009/04/23 14:58:18.6     177     52     43    185    191  73.4  13.2  34266  291.38 0854.56
2009/04/23 14:58:18.7     132     53    125    143    189  68.2  45.6  34276  291.54 0854.56
2009/04/23 14:58:18.8      77     59    116     98    151  52.7  55.8  34278  291.57 0854.56
2009/04/23 14:58:18.9     113     73     26    135    138  57.1  11.0  34264  291.35 0854.56
2009/04/23 14:58:19.0      63     86     13    107    108  36.1   7.1  34260  291.26 0854.56
2009/04/23 14:58:19.1      79     79    -10    112    113  45.0  -5.6  34260  291.28 0854.56
2009/04/23 14:58:19.2     114     83    -45    142    150  54.0 -17.6  34274  291.50 0854.56
2009/04/23 14:58:19.3      71    113    -47    134    142  32.5 -23.8  34276  291.54 0854.56
2009/04/23 14:58:19.4     -11    151      8    152    153 355.5   3.3  34284  291.67 0854.56
2009/04/23 14:58:19.5     -44     93     -4    104    105 334.6  -2.2  34298  291.91 0854.56
2009/04/23 14:58:19.6       8    117     -4    118    119   4.0  -2.2  34290  291.79 0854.56
2009/04/23 14:58:19.7      61    112    -54    128    138  28.5 -28.5  34262  291.30 0854.56
2009/04/23 14:58:19.8      56     94    -39    110    117  30.7 -19.7  34288  291.76 0854.56
2009/04/23 14:58:19.9      41     63    -18     76     79  33.4 -13.4  34324  292.37 0854.56
2009/04/23 14:58:20.0       1     38    -18     39     42   2.7 -30.6  34336  292.56 0854.54
2009/04/23 14:58:20.1       0     11    -36     12     37 357.3 -85.4  34324  292.37 0854.54
2009/04/23 14:58:20.2      50     41    -58     65     87  50.5 -51.3  34312  292.17 0854.54
2009/04/23 14:58:20.3      52     38   -102     65    120  54.0 -69.1  34294  291.86 0854.54
2009/04/23 14:58:20.4      51     76   -101     92    136  33.8 -57.1  34316  292.22 0854.54
2009/04/23 14:58:20.5     105    -34    -39    111    118 108.2 -19.6  34334  292.52 0854.54
2009/04/23 14:58:20.6     138     56     49    150    158  67.8  18.1  34390  293.48 0854.54
2009/04/23 14:58:20.7      89     84     45    123    130  46.9  21.0  34392  293.53 0854.54
2009/04/23 14:58:20.8      90    130     28    159    162  34.7  10.1  34374  293.22 0854.54
2009/04/23 14:58:20.9      42    142     71    149    165  16.5  27.4  34384  293.39 0854.54
2009/04/23 14:58:21.0      58    121     97    135    166  25.5  39.7  34404  293.74 0854.54
2009/04/23 14:58:21.1      24    197     33    199    202   7.1   9.5  34406  293.75 0854.54
2009/04/23 14:58:21.2      50    125     82    135    157  21.8  34.2  34418  293.97 0854.54
2009/04/23 14:58:21.3      23    160     28    162    165   8.5   9.9  34414  293.89 0854.54
2009/04/23 14:58:21.4      29    141     18    145    147  11.6   7.1  34416  293.94 0854.54
2009/04/23 14:58:21.5      45    189     32    195    198  13.6   9.3  34414  293.89 0854.54
2009/04/23 14:58:21.6      39    194     79    199    214  11.6  22.8  34412  293.85 0854.54
2009/04/23 14:58:21.7     -45    236     75    241    253 349.1  17.3  34392  293.51 0854.54
2009/04/23 14:58:21.8       0    261     16    262    263 359.9   3.6  34334  292.52 0854.54
2009/04/23 14:58:21.9      33    233    -24    236    238   8.2  -6.0  34270  291.43 0854.54
2009/04/23 14:58:22.0       7    209    -42    210    215   2.0 -11.3  34204  290.31 0854.56
2009/04/23 14:58:22.1     -49    209    -41    215    219 346.6 -10.9  34196  290.18 0854.56
2009/04/23 14:58:22.2     -32    157     13    161    162 348.4   4.9  34276  291.54 0854.56
2009/04/23 14:58:22.3     -49     85     -2     99    100 329.7  -1.3  34230  290.75 0854.56
2009/04/23 14:58:22.4     -77    106     -9    132    133 324.0  -4.1  34198  290.23 0854.56
2009/04/23 14:58:22.5     -48    115     -4    125    126 337.3  -2.2  34218  290.57 0854.56
2009/04/23 14:58:22.6    -117     51      1    128    129 293.5   0.8  34298  291.91 0854.56
2009/04/23 14:58:22.7    -158     18     26    160    163 276.6   9.5  34336  292.58 0854.56
2009/04/23 14:58:22.8     -76     48    -27     90     93 302.4 -22.3  34354  292.86 0854.56
2009/04/23 14:58:22.9     -45   -137    -25    145    148 198.3  -9.8  34342  292.66 0854.56
2009/04/23 14:58:23.0     -66   -132     52    148    157 206.7  19.4  34376  293.26 0854.56
2009/04/23 14:58:23.1    -126   -126     -3    179    180 224.9  -1.3  34382  293.34 0854.56
2009/04/23 14:58:23.2    -110   -154      3    190    191 215.4   1.0  34382  293.34 0854.56
2009/04/23 14:58:23.3    -106   -170     -9    201    202 212.1  -2.6  34370  293.15 0854.56
2009/04/23 14:58:23.4    -113   -201    -12    231    232 209.4  -3.1  34394  293.55 0854.56
2009/04/23 14:58:23.5    -119   -197      4    231    232 211.0   1.2  34378  293.27 0854.56
2009/04/23 14:58:23.6    -121   -176    -23    214    216 214.5  -6.2  34408  293.80 0854.56
2009/04/23 14:58:23.7     -93   -199    -19    220    221 205.2  -5.2  34412  293.85 0854.56
2009/04/23 14:58:23.8     -54   -184    -35    192    196 196.5 -10.5  34394  293.56 0854.56
2009/04/23 14:58:23.9     -65   -150    -30    164    167 203.7 -10.5  34412  293.85 0854.56
2009/04/23 14:58:24.0     -68   -155    -31    170    173 203.6 -10.5  34400  293.65 0854.56
2009/04/23 14:58:24.1     -53   -184    -10    192    193 196.3  -3.1  34360  292.97 0854.56
2009/04/23 14:58:24.2     -36   -179     13    183    184 191.5   4.2  34352  292.85 0854.56
2009/04/23 14:58:24.3     -57   -179     19    188    189 197.8   5.9  34352  292.85 0854.56
2009/04/23 14:58:24.4     -90   -116     39    147    153 217.9  15.0  34358  292.93 0854.56
2009/04/23 14:58:24.5    -103    -81     41    132    139 231.8  17.4  34372  293.17 0854.56
2009/04/23 14:58:24.6    -108    -89     80    140    161 230.5  32.4  34368  293.12 0854.56
2009/04/23 14:58:24.7    -128    -65     69    144    159 242.9  27.4  34344  292.71 0854.56
2009/04/23 14:58:24.8     -99    -46     63    110    126 245.2  32.4  34344  292.71 0854.56
2009/04/23 14:58:24.9     -90    -29      7     95     96 251.8   4.4  34364  293.05 0854.56
2009/04/23 14:58:25.0    -221    -56    -78    229    243 255.6 -18.9  34330  292.47 0854.56
2009/04/23 14:58:25.1    -195    -21    -15    197    198 263.6  -4.4  34326  292.39 0854.56
2009/04/23 14:58:25.2    -254    -27      8    256    257 263.8   1.8  34334  292.53 0854.56
2009/04/23 14:58:25.3    -232    -35    -21    235    236 261.4  -5.2  34310  292.13 0854.56
2009/04/23 14:58:25.4    -197     26    -49    199    205 277.7 -13.9  34314  292.20 0854.56
2009/04/23 14:58:25.5    -182     97    -27    207    209 298.0  -7.7  34340  292.63 0854.56
2009/04/23 14:58:25.6    -174     75    -34    190    194 293.3 -10.1  34342  292.68 0854.56
2009/04/23 14:58:25.7    -116     87    -86    145    168 306.9 -37.9  34338  292.61 0854.56
2009/04/23 14:58:25.8    -112     57   -110    126    167 297.1 -50.0  34356  292.90 0854.56
2009/04/23 14:58:25.9     -54     39    -67     67     94 306.0 -54.5  34354  292.88 0854.56
2009/04/23 14:58:26.0      12    103    -90    104    137   7.1 -50.2  34360  292.97 0854.55
2009/04/23 14:58:26.1      24    120    -75    123    144  11.6 -39.4  34358  292.93 0854.55
2009/04/23 14:58:26.2     -28     85    -42     90     99 341.7 -31.5  34358  292.93 0854.55
2009/04/23 14:58:26.3     -45    114    -73    123    143 338.2 -37.9  34354  292.86 0854.55
2009/04/23 14:58:26.4     -14     90    -87     92    126 350.7 -52.9  34348  292.78 0854.55
2009/04/23 14:58:26.5      -7    100    -89    101    134 355.6 -50.2  34322  292.32 0854.55
2009/04/23 14:58:26.6     -87     40   -126     96    158 294.8 -63.4  34280  291.60 0854.55
2009/04/23 14:58:26.7    -136     50   -126    146    192 290.4 -49.8  34238  290.89 0854.55
2009/04/23 14:58:26.8    -115     95   -130    150    198 309.5 -50.0  34210  290.43 0854.55
2009/04/23 14:58:26.9     -91      1   -136     92    164 270.8 -67.2  34190  290.08 0854.55
2009/04/23 14:58:27.0    -114     41   -127    122    176 289.9 -55.6  34200  290.25 0854.55
2009/04/23 14:58:27.1     -87     27    -88     92    127 287.3 -53.4  34228  290.72 0854.55
2009/04/23 14:58:27.2     -72    -13   -128     74    147 259.4 -71.6  34256  291.20 0854.55
2009/04/23 14:58:27.3     -89    -23   -134     92    162 255.4 -66.8  34224  290.67 0854.55
2009/04/23 14:58:27.4    -119    -35   -129    125    179 253.6 -55.3  34224  290.65 0854.55
2009/04/23 14:58:27.5    -113    -28   -150    117    190 255.8 -62.3  34188  290.06 0854.55
2009/04/23 14:58:27.6    -104    -34   -141    110    178 251.8 -62.6  34180  289.91 0854.55
2009/04/23 14:58:27.7     -82    -42   -113     93    146 242.5 -60.8  34224  290.67 0854.55
2009/04/23 14:58:27.8     -41    -63    -96     76    122 213.4 -61.9  34270  291.45 0854.55
2009/04/23 14:58:27.9     -74    -86    -67    114    132 220.5 -37.8  34314  292.18 0854.55
2009/04/23 14:58:28.0     -31    -48    -90     58    107 212.6 -69.0  34284  291.67 0854.56
2009/04/23 14:58:28.1      -9    -16    -94     19     95 209.0 -90.0  34204  290.33 0854.56
2009/04/23 14:58:28.2     -17     -7    -86     19     88 248.3 -90.0  34210  290.41 0854.56
2009/04/23 14:58:28.3       0     -7    -73      8     73 182.7 -90.0  34212  290.47 0854.56
2009/04/23 14:58:28.4     -28    -18    -75     34     82 237.6 -78.9  34224  290.67 0854.56
2009/04/23 14:58:28.5     -37    -40    -73     55     91 223.2 -63.4  34276  291.54 0854.56
2009/04/23 14:58:28.6     -68    -54    -82     88    120 231.4 -52.3  34300  291.95 0854.56
2009/04/23 14:58:28.7    -135    -49    -50    144    152 250.1 -23.3  34294  291.86 0854.56
2009/04/23 14:58:28.8    -117    -77    -41    141    146 236.7 -21.2  34280  291.60 0854.56
2009/04/23 14:58:28.9     -92   -122    -36    153    158 217.0 -13.4  34270  291.43 0854.56
2009/04/23 14:58:29.0     -45    -73    -51     86     99 211.6 -37.9  34246  291.03 0854.56
2009/04/23 14:58:29.1     -11    -81    -42     82     92 188.0 -33.1  34242  290.96 0854.56
2009/04/23 14:58:29.2      -3    -68    -24     69     73 182.7 -23.3  34230  290.77 0854.56
2009/04/23 14:58:29.3       0    -58     -3     59     60 180.9  -3.2  34220  290.58 0854.56
2009/04/23 14:58:29.4       9    -66    -13     67     69 172.0 -11.3  34222  290.64 0854.56
2009/04/23 14:58:29.5      22    -76    -23     80     84 164.0 -16.0  34224  290.65 0854.56
2009/04/23 14:58:29.6       2    -82     -8     83     84 178.6  -5.6  34216  290.53 0854.56
2009/04/23 14:58:29.7      -7    -93     -8     94     95 184.4  -5.2  34214  290.48 0854.56
2009/04/23 14:58:29.8     -54    -97    -17    112    114 209.0  -8.8  34216  290.52 0854.56
2009/04/23 14:58:29.9     -41   -124    -22    131    133 198.7  -9.8  34200  290.26 0854.56
2009/04/23 14:58:30.0     -28   -132    -31    135    139 192.0 -13.3  34200  290.26 0854.57
2009/04/23 14:58:30.1     -21   -152      0    154    155 188.0  -0.3  34204  290.33 0854.57
2009/04/23 14:58:30.2       4   -148     -6    149    150 178.2  -2.6  34192  290.11 0854.57
2009/04/23 14:58:30.3      29   -144    -24    148    151 168.4  -9.3  34200  290.26 0854.57
2009/04/23 14:58:30.4      42   -170     -3    176    177 166.0  -1.3  34194  290.16 0854.57
2009/04/23 14:58:30.5      31   -111      1    116    117 164.4   0.8  34184  289.97 0854.57
2009/04/23 14:58:30.6     -78   -100    -28    127    131 217.9 -12.4  34170  289.74 0854.57
2009/04/23 14:58:30.7    -101    -84    -63    132    146 230.0 -31.6  34168  289.72 0854.57
2009/04/23 14:58:30.8    -129    -44    -67    137    152 250.9 -31.7  34186  290.01 0854.57
2009/04/23 14:58:30.9    -208    -56    -27    216    218 254.7  -7.3  34232  290.79 0854.57
2009/04/23 14:58:31.0    -245   -135    -66    280    288 241.1 -13.4  34218  290.56 0854.57
2009/04/23 14:58:31.1    -242   -176     27    300    302 234.0   5.2  34248  291.07 0854.57
2009/04/23 14:58:31.2    -266   -193    -12    329    330 234.0  -2.2  34248  291.05 0854.57
2009/04/23 14:58:31.3    -259   -233     13    349    350 228.0   2.2  34258  291.22 0854.57
2009/04/23 14:58:31.4    -331   -171     18    373    374 242.6   2.9  34264  291.35 0854.57
2009/04/23 14:58:31.5    -312   -188    138    365    390 238.9  21.6  34260  291.27 0854.57
2009/04/23 14:58:31.6    -213   -213    204    302    364 224.9  37.4  34272  291.49 0854.57
2009/04/23 14:58:31.7    -197   -223    108    298    316 221.5  20.8  34280  291.61 0854.57
2009/04/23 14:58:31.8    -179   -281     48    334    338 212.5   8.2  34278  291.56 0854.57
2009/04/23 14:58:31.9    -259   -258     89    366    377 225.1  13.8  34238  290.91 0854.57
2009/04/23 14:58:32.0    -236   -269     36    359    361 221.3   5.8  34202  290.28 0854.59
2009/04/23 14:58:32.1    -255   -247     62    356    362 225.9   9.9  34198  290.20 0854.59
2009/04/23 14:58:32.2    -333   -388    -15    512    513 220.6  -1.7  34172  289.78 0854.59
2009/04/23 14:58:32.3    -240   -301    -42    386    389 218.6  -6.3  34172  289.77 0854.59
2009/04/23 14:58:32.4    -229   -319     15    393    394 215.7   2.2  34188  290.06 0854.59
2009/04/23 14:58:32.5    -159   -343     19    379    380 204.9   2.9  34192  290.11 0854.59
2009/04/23 14:58:32.6    -148   -240    -16    283    284 211.7  -3.3  34176  289.85 0854.59
2009/04/23 14:58:32.7    -156   -245    -63    291    298 212.6 -12.4  34188  290.05 0854.59
2009/04/23 14:58:32.8    -150   -214    -92    262    278 215.1 -19.4  34184  289.98 0854.59
2009/04/23 14:58:32.9    -164   -186    -77    249    261 221.5 -17.3  34176  289.85 0854.59
2009/04/23 14:58:33.0    -142   -143    -97    202    224 224.7 -31.7  34170  289.74 0854.58
2009/04/23 14:58:33.1    -127   -181   -102    222    244 215.0 -30.8  34176  289.83 0854.58
2009/04/23 14:58:33.2     -74   -157   -115    174    208 205.3 -40.9  34172  289.79 0854.58
2009/04/23 14:58:33.3     -72   -172    -98    187    211 202.7 -33.9  34174  289.80 0854.58
2009/04/23 14:58:33.4     -53   -275    -98    281    297 190.9 -24.3  34174  289.80 0854.58
2009/04/23 14:58:33.5     -33   -261   -100    264    282 187.2 -26.1  34170  289.75 0854.58
2009/04/23 14:58:33.6      37   -263   -127    266    294 171.9 -31.7  34168  289.71 0854.58
2009/04/23 14:58:33.7      93   -242   -100    260    278 158.8 -26.4  34174  289.80 0854.58
2009/04/23 14:58:33.8     110   -152    -66    188    199 144.2 -24.6  34176  289.85 0854.58
2009/04/23 14:58:33.9      63   -201    -86    211    227 162.4 -27.5  34170  289.75 0854.58
2009/04/23 14:58:34.0      74   -224    -66    236    245 161.7 -20.4  34170  289.75 0854.58
2009/04/23 14:58:34.1     120   -220    -69    251    261 151.3 -15.5  34172  289.76 0854.58
2009/04/23 14:58:34.2      55   -163    -56    173    182 161.3 -17.9  34176  289.85 0854.58
2009/04/23 14:58:34.3     -32    -59    -32     68     75 209.0 -31.6  34210  290.43 0854.58
2009/04/23 14:58:34.4     -61     -3     -5     62     63 266.5  -5.2  34222  290.62 0854.58
2009/04/23 14:58:34.5     -66    -38    -16     77     79 240.2 -12.4  34242  290.96 0854.58
2009/04/23 14:58:34.6     -52    -26    -62     59     85 243.8 -55.6  34236  290.86 0854.58
2009/04/23 14:58:34.7     -76     -5    -81     77    111 265.7 -56.0  34222  290.62 0854.58
2009/04/23 14:58:34.8    -136    -36    -76    141    160 254.9 -35.0  34240  290.94 0854.58
2009/04/23 14:58:34.9    -103    -14   -131    105    167 262.0 -61.5  34254  291.16 0854.58
2009/04/23 14:58:35.0      -1    -75    -70     76    103 180.9 -52.3  34248  291.08 0854.57
2009/04/23 14:58:35.1      63   -100    -68    119    137 147.5 -36.3  34214  290.48 0854.57
2009/04/23 14:58:35.2      87   -131    -47    158    166 146.2 -16.8  34202  290.28 0854.57
2009/04/23 14:58:35.3     122   -101    -28    159    162 129.5 -10.3  34194  290.16 0854.57
2009/04/23 14:58:35.4     124    -61    -20    139    141 116.2  -8.2  34184  289.99 0854.57
2009/04/23 14:58:35.5      97    -32    -17    103    105 108.4  -9.8  34200  290.25 0854.57
2009/04/23 14:58:35.6      95    -74      3    121    122 128.2   1.8  34210  290.43 0854.57
2009/04/23 14:58:35.7      93    -61     12    112    113 123.3   6.5  34210  290.43 0854.57
2009/04/23 14:58:35.8     117    -69     10    136    137 120.6   4.4  34222  290.64 0854.57
2009/04/23 14:58:35.9     131    -77    -13    153    154 120.6  -5.1  34214  290.50 0854.57
2009/04/23 14:58:36.0     141    -89      0    167    168 122.4   0.0  34196  290.18 0854.57
2009/04/23 14:58:36.1     148    -72    -58    165    176 116.2 -19.6  34210  290.41 0854.57
2009/04/23 14:58:36.2     174    -91    -23    197    199 117.8  -6.7  34202  290.28 0854.57
2009/04/23 14:58:36.3     224   -119     59    254    261 118.0  13.2  34174  289.81 0854.57
2009/04/23 14:58:36.4     208   -136     87    249    264 123.3  19.4  34176  289.85 0854.57
2009/04/23 14:58:36.5     194   -107     73    222    234 118.9  18.4  34180  289.92 0854.57
2009/04/23 14:58:36.6     166   -117     78    204    218 125.3  22.0  34176  289.85 0854.57
2009/04/23 14:58:36.7     135   -113     61    177    188 130.0  19.2  34180  289.92 0854.57
2009/04/23 14:58:36.8     132   -100     73    166    181 127.3  25.1  34182  289.96 0854.57
2009/04/23 14:58:36.9     121   -124     93    174    197 135.9  30.6  34188  290.06 0854.57
2009/04/23 14:58:37.0     105   -117    128    158    203 138.1  43.3  34190  290.08 0854.58
2009/04/23 14:58:37.1      76   -119    117    142    183 147.4  43.7  34204  290.33 0854.58
2009/04/23 14:58:37.2     161    -98     72    189    202 121.3  21.7  34200  290.25 0854.58
2009/04/23 14:58:37.3     103   -152     96    184    207 145.9  29.5  34188  290.06 0854.58
2009/04/23 14:58:37.4     130   -113     33    173    177 130.9  11.0  34196  290.19 0854.58
2009/04/23 14:58:37.5      99   -112     29    150    153 138.6  11.0  34206  290.36 0854.58
2009/04/23 14:58:37.6      64    -98     60    118    132 147.0  29.2  34200  290.25 0854.58
2009/04/23 14:58:37.7      70    -82     68    109    128 139.5  35.5  34188  290.06 0854.58
2009/04/23 14:58:37.8      68   -105     88    126    153 147.0  38.0  34186  290.02 0854.58
2009/04/23 14:58:37.9      29    -88     93     93    131 161.3  50.1  34190  290.09 0854.58
2009/04/23 14:58:38.0      40    -37     65     55     85 133.1  55.4  34214  290.50 0854.58
2009/04/23 14:58:38.1      -2     37     52     38     64 355.6  60.5  34220  290.60 0854.58
2009/04/23 14:58:38.2      12     35     62     38     72  20.0  64.7  34220  290.58 0854.58
2009/04/23 14:58:38.3      21     63     23     67     72  18.3  19.4  34220  290.58 0854.58
2009/04/23 14:58:38.4      23     91     41     94    102  14.3  24.6  34218  290.55 0854.58
2009/04/23 14:58:38.5      61    -26     83     67    106 113.5  56.4  34206  290.36 0854.58
2009/04/23 14:58:38.6     104    -67     94    124    155 122.9  41.2  34206  290.36 0854.58
2009/04/23 14:58:38.7      46    -76     44     90    100 148.8  27.8  34212  290.45 0854.58
2009/04/23 14:58:38.8      23    -59     44     64     77 158.1  37.6  34210  290.41 0854.58
2009/04/23 14:58:38.9      23    -50     39     56     68 155.5  38.6  34210  290.43 0854.58
2009/04/23 14:58:39.0       7    -39     63     40     74 169.3  64.7  34212  290.47 0854.57
2009/04/23 14:58:39.1     -16    -65     23     68     72 194.3  18.9  34198  290.23 0854.57
2009/04/23 14:58:39.2     -24    -73     57     77     95 198.5  40.1  34198  290.23 0854.57
2009/04/23 14:58:39.3       5    -65     20     66     70 175.6  17.3  34202  290.28 0854.57
2009/04/23 14:58:39.4      -8    -62      7     63     64 188.0   7.1  34196  290.18 0854.57
2009/04/23 14:58:39.5     -17    -63     -1     66     67 195.2  -1.3  34196  290.19 0854.57
2009/04/23 14:58:39.6     -12    -67    -24     69     74 190.7 -19.7  34196  290.18 0854.57
2009/04/23 14:58:39.7      14    -82     21     84     87 170.2  14.3  34194  290.14 0854.57
2009/04/23 14:58:39.8      -3   -143     82    144    165 181.4  32.4  34200  290.26 0854.57
2009/04/23 14:58:39.9      42   -199    107    204    230 168.0  29.8  34208  290.40 0854.57
2009/04/23 14:58:40.0      19   -174     96    176    200 173.8  31.0  34208  290.40 0854.57
2009/04/23 14:58:40.1       2   -147     73    148    165 179.1  28.2  34212  290.47 0854.57
2009/04/23 14:58:40.2      62   -174     56    185    194 160.2  17.1  34208  290.38 0854.57
2009/04/23 14:58:40.3      49   -167     32    175    179 163.5  10.6  34210  290.43 0854.57
2009/04/23 14:58:40.4     -12   -133     63    134    148 185.3  27.1  34212  290.47 0854.57
2009/04/23 14:58:40.5      30   -127     96    131    162 166.7  39.9  34230  290.77 0854.57
2009/04/23 14:58:40.6      -1   -141     53    142    151 180.5  21.0  34220  290.58 0854.57
2009/04/23 14:58:40.7     -71   -160     82    176    194 203.8  27.1  34210  290.43 0854.57
2009/04/23 14:58:40.8     -86   -134    106    160    191 212.6  36.3  34216  290.53 0854.57
2009/04/23 14:58:40.9     -73    -73     47    104    114 225.0  26.2  34220  290.60 0854.57
2009/04/23 14:58:41.0     -93   -104     15    140    141 221.9   6.5  34292  291.83 0854.58
2009/04/23 14:58:41.1    -108    -42     -7    116    117 248.7  -3.7  34290  291.79 0854.58
2009/04/23 14:58:41.2    -112    -25    -28    115    119 257.2 -13.9  34298  291.93 0854.58
2009/04/23 14:58:41.3     -96    -54    -10    111    112 240.7  -5.6  34286  291.71 0854.58
2009/04/23 14:58:41.4     -46    -57      1     74     75 218.7   0.8  34280  291.62 0854.58
2009/04/23 14:58:41.5      -5    -79     36     80     87 183.6  25.7  34294  291.84 0854.58
2009/04/23 14:58:41.6     -15    -85     30     87     93 190.2  19.4  34276  291.54 0854.58
2009/04/23 14:58:41.7     -16   -120     -1    122    123 188.0  -0.7  34230  290.77 0854.58
2009/04/23 14:58:41.8       1   -112     22    113    116 179.1  11.1  34220  290.60 0854.58
2009/04/23 14:58:41.9      -8   -107     13    108    109 184.5   7.1  34222  290.62 0854.58
2009/04/23 14:58:42.0      -7    -82     10     83     84 184.9   7.5  34224  290.65 0854.58
2009/04/23 14:58:42.1     -17    -65     27     68     73 195.1  23.0  34230  290.75 0854.58
2009/04/23 14:58:42.2     -57    -58    -20     82     85 224.5 -13.9  34232  290.79 0854.58
2009/04/23 14:58:42.3     -60    -38     -9     72     73 237.6  -7.3  34232  290.81 0854.58
2009/04/23 14:58:42.4     -54    -70     -9     89     90 217.8  -6.2  34224  290.67 0854.58
2009/04/23 14:58:42.5     -36    -79     30     87     93 204.5  19.4  34224  290.67 0854.58
2009/04/23 14:58:42.6     -43    -65     17     79     81 213.8  12.6  34224  290.67 0854.58
2009/04/23 14:58:42.7     -59    -40    -15     72     74 235.8 -12.4  34230  290.77 0854.58
2009/04/23 14:58:42.8     -59    -54    -11     81     82 227.3  -8.2  34224  290.67 0854.58
2009/04/23 14:58:42.9     -90    -71     27    115    119 231.8  13.2  34232  290.81 0854.58
2009/04/23 14:58:43.0     -88    -73     41    115    122 230.5  20.4  34236  290.87 0854.58
2009/04/23 14:58:43.1    -104    -50     60    116    130 244.2  29.3  34224  290.67 0854.58
2009/04/23 14:58:43.2    -101    -16     57    103    117 260.8  31.4  34228  290.72 0854.58
2009/04/23 14:58:43.3     -95    -30     74    100    124 252.3  40.1  34230  290.75 0854.58
2009/04/23 14:58:43.4     -94   -113     80    148    168 219.6  30.8  34234  290.82 0854.58
2009/04/23 14:58:43.5     -73   -115    113    137    177 212.5  43.8  34222  290.64 0854.58
2009/04/23 14:58:43.6    -128   -137     80    188    204 223.2  24.6  34226  290.69 0854.58
2009/04/23 14:58:43.7    -136   -140     69    196    207 224.1  20.0  34232  290.81 0854.58
2009/04/23 14:58:43.8    -130   -113     18    173    174 229.1   6.1  34240  290.92 0854.58
2009/04/23 14:58:43.9     -96    -91     -7    133    134 226.4  -3.1  34238  290.91 0854.58
2009/04/23 14:58:44.1     -22    -84    -25     87     90 194.7 -20.7  34224  290.67 0854.58
2009/04/23 14:58:44.2     -44    -41    -17     61     63 226.9 -20.7  34214  290.48 0854.58
2009/04/23 14:58:44.3     -74    -20    -68     77    102 254.9 -50.8  34206  290.35 0854.58
2009/04/23 14:58:44.4      32    -59    -54     68     86 151.0 -47.1  34222  290.62 0854.58
2009/04/23 14:58:44.5      44    -80    -28     92     96 151.0 -22.8  34232  290.81 0854.58
2009/04/23 14:58:44.6      86    -70    -48    111    120 129.1 -29.5  34252  291.13 0854.58
2009/04/23 14:58:44.7      97   -146    -57    176    185 146.2 -23.6  34250  291.11 0854.58
2009/04/23 14:58:44.8      72   -167     32    183    186 156.6  10.1  34252  291.15 0854.58
2009/04/23 14:58:44.9      23   -156     73    158    174 171.5  26.6  34244  291.01 0854.58
2009/04/23 14:58:45.0      69   -190     91    203    222 160.0  25.7  34242  290.96 0854.58
2009/04/23 14:58:45.1     138   -217     71    258    268 147.5  15.6  34234  290.82 0854.59
2009/04/23 14:58:45.2     168   -200     39    262    265 140.1   8.5  34230  290.76 0854.59
2009/04/23 14:58:45.3     139   -131    107    192    219 133.3  31.4  34226  290.70 0854.59
2009/04/23 14:58:45.4      94   -139    131    168    213 145.9  41.7  34214  290.48 0854.59
2009/04/23 14:58:45.5     171   -104    213    201    292 121.3  52.1  34200  290.26 0854.59
2009/04/23 14:58:45.6      18    -54    119     58    132 161.3  72.8  34202  290.30 0854.59
2009/04/23 14:58:45.7      72     -5    118     73    138  94.3  65.1  34210  290.41 0854.59
2009/04/23 14:58:45.8      51   -115    183    127    222 155.9  62.1  34194  290.16 0854.59
2009/04/23 14:58:45.9     -63   -133    107    148    182 205.3  39.5  34186  290.02 0854.59
2009/04/23 14:58:46.0    -106   -226     73    250    261 205.2  16.4  34176  289.85 0854.59
2009/04/23 14:58:46.1     -72   -266    104    276    294 195.2  21.7  34188  290.03 0854.59
2009/04/23 14:58:46.2     -85   -280    106    293    311 197.0  20.4  34194  290.15 0854.59
2009/04/23 14:58:46.3    -128   -376    158    398    428 198.9  22.9  34202  290.29 0854.59
2009/04/23 14:58:46.4    -192   -359     83    408    417 208.1  11.6  34226  290.68 0854.59
2009/04/23 14:58:46.5    -205   -362     37    416    418 209.5   5.2  34216  290.53 0854.59
2009/04/23 14:58:46.6    -174   -328     13    372    373 208.0   2.1  34220  290.59 0854.59
2009/04/23 14:58:46.7    -210   -294      4    362    363 215.6   0.7  34218  290.54 0854.59
2009/04/23 14:58:46.8    -214   -194    -49    289    294 227.8  -9.6  34202  290.29 0854.59
2009/04/23 14:58:46.9    -136   -164    -74    214    227 219.6 -19.1  34198  290.21 0854.59
2009/04/23 14:58:47.0     -63   -264    -38    272    275 193.4  -8.0  34208  290.37 0854.59
2009/04/23 14:58:47.1     -57   -262    -17    269    270 192.3  -3.7  34208  290.37 0854.64
2009/04/23 14:58:47.2     -40   -261     -5    265    266 188.7  -1.3  34238  290.88 0854.64
2009/04/23 14:58:47.3     -71   -212    -12    224    225 198.7  -3.2  34208  290.40 0854.64
2009/04/23 14:58:47.4      -7   -173    -53    174    182 182.5 -17.0  34204  290.33 0854.64
2009/04/23 14:58:47.5      57   -165    -27    175    178 160.8  -8.8  34218  290.55 0854.64
2009/04/23 14:58:47.6      75    -91    -36    119    124 140.4 -21.8  34200  290.25 0854.64
2009/04/23 14:58:47.7      85    -70    -31    111    116 129.5 -15.5  34192  290.11 0854.64
2009/04/23 14:58:47.8     111      5    -59    112    126  87.0 -34.2  34200  290.25 0854.64
2009/04/23 14:58:47.9     121    -28    -83    125    150 103.3 -40.9  34190  290.08 0854.64
2009/04/23 14:58:48.0     119     -1    -66    120    136  90.8 -35.8  34190  290.09 0854.64
2009/04/23 14:58:48.1     -21   -153     68    155    169 188.0  25.3  34184  289.99 0854.64
2009/04/23 14:58:48.2      16   -178    153    179    235 174.7  44.9  34190  290.09 0854.64
2009/04/23 14:58:48.3     -14   -186    127    187    226 184.5  37.4  34188  290.04 0854.64
2009/04/23 14:58:48.4      -9   -222     86    223    239 182.5  22.0  34196  290.17 0854.64
2009/04/23 14:58:48.5     -68   -202     42    214    219 198.7  11.1  34192  290.11 0854.64
2009/04/23 14:58:48.6       0   -139     61    140    152 180.4  25.1  34194  290.16 0854.64
2009/04/23 14:58:48.7      31   -140     82    144    165 167.5  32.4  34188  290.06 0854.64
2009/04/23 14:58:48.8     -17   -201     77    202    216 185.1  22.0  34192  290.13 0854.64
2009/04/23 14:58:48.9      34    -62    126     72    145 151.0  67.7  34202  290.30 0854.64
2009/04/23 14:58:49.0      70    -38    186     80    202 118.9  75.3  34200  290.25 0854.64
2009/04/23 14:58:49.1     -17    -64    132     67    148 195.1  71.4  34202  290.28 0854.68
2009/04/23 14:58:49.2     -89   -223    173    241    296 201.8  39.5  34192  290.10 0854.68
2009/04/23 14:58:49.3      15     -2    147     16    147  97.9  90.0  34208  290.38 0854.68
2009/04/23 14:58:49.4     -29    -73    107     79    133 201.8  60.5  34202  290.30 0854.68
2009/04/23 14:58:49.5    -106   -158     14    191    192 213.8   4.2  34176  289.84 0854.68
2009/04/23 14:58:49.6      -3    -16     74     17     75 191.6  89.0  34178  289.87 0854.68
2009/04/23 14:58:49.7      48     33    129     59    141  54.9  73.5  34210  290.41 0854.68
2009/04/23 14:58:49.8      67      0    181     68    193  90.0  78.9  34214  290.50 0854.68
2009/04/23 14:58:49.9     121     32    204    126    239  75.0  65.6  34210  290.43 0854.68
2009/04/23 14:58:50.0      23      4    163     24    164  80.3  90.0  34234  290.84 0854.68
2009/04/23 14:58:50.1       4      3    115      6    115  50.5  90.0  34230  290.75 0854.68
2009/04/23 14:58:50.2     -16     40     57     44     72 338.2  57.5  34232  290.81 0854.68
2009/04/23 14:58:50.3      82    -21     80     85    116 104.6  48.5  34218  290.57 0854.68
2009/04/23 14:58:50.4     156     -3     75    157    173  91.3  27.3  34210  290.41 0854.68
2009/04/23 14:58:50.5     173     28    105    176    204  80.8  33.5  34210  290.41 0854.68
2009/04/23 14:58:50.6     145     31    112    149    186  77.6  40.9  34216  290.52 0854.68
2009/04/23 14:58:50.7      79      1     84     80    116  89.2  51.2  34220  290.58 0854.68
2009/04/23 14:58:50.8      -8      8     58     12     59 313.1  89.0  34224  290.65 0854.68
2009/04/23 14:58:50.9      -6    -63    115     64    131 186.2  68.8  34216  290.52 0854.68
2009/04/23 14:58:51.0      28    -43    103     52    115 146.6  71.9  34200  290.25 0854.67
2009/04/23 14:58:51.1       0     -7     97      8     97 182.7  90.0  34216  290.53 0854.67
2009/04/23 14:58:51.2      19     44     67     49     83  23.6  60.0  34226  290.70 0854.67
2009/04/23 14:58:51.3      11      0     46     12     47  89.2  84.9  34218  290.55 0854.67
2009/04/23 14:58:51.4      96     38    128    104    164  68.2  56.9  34214  290.50 0854.67
2009/04/23 14:58:51.5       8     21    125     23    127  21.8  90.0  34228  290.74 0854.67
2009/04/23 14:58:51.6     -17    118     47    120    128 351.5  22.5  34214  290.50 0854.67
2009/04/23 14:58:51.7       0     94     61     95    112 359.6  35.6  34210  290.43 0854.67
2009/04/23 14:58:51.8      -8    100     84    101    131 355.1  43.8  34202  290.30 0854.67
2009/04/23 14:58:51.9     110    -10    148    111    185  95.7  59.8  34206  290.36 0854.67
2009/04/23 14:58:52.0      93     17    151     95    178  79.4  64.7  34222  290.62 0854.67
2009/04/23 14:58:52.1      56     52     96     77    123  46.9  56.9  34228  290.72 0854.67
2009/04/23 14:58:52.2      43    107    151    116    190  21.9  58.7  34214  290.48 0854.67
2009/04/23 14:58:52.3      39     15     84     43     94  68.3  70.8  34202  290.28 0854.67
2009/04/23 14:58:52.4     -86   -103    135    135    190 219.6  50.1  34200  290.26 0854.67
2009/04/23 14:58:52.5    -122    -47    132    132    186 248.7  50.1  34198  290.21 0854.67
2009/04/23 14:58:52.6      -1     10     98     11     98 352.0  90.0  34190  290.09 0854.67
2009/04/23 14:58:52.7      -7     19     68     21     71 338.2  81.8  34188  290.04 0854.67
2009/04/23 14:58:52.8      21    -32     36     39     53 145.7  47.9  34192  290.11 0854.67
2009/04/23 14:58:52.9      21    -29     48     36     60 143.9  59.4  34188  290.06 0854.67
2009/04/23 14:58:53.0      33      0     50     34     60  90.0  62.6  34196  290.18 0854.72
2009/04/23 14:58:53.1      69     38     74     79    108  61.2  48.0  34204  290.33 0854.72
2009/04/23 14:58:53.2      21     -4     74     22     77 101.5  81.8  34208  290.38 0854.72
2009/04/23 14:58:53.3       0    -17     57     18     59 180.9  81.8  34204  290.31 0854.72
2009/04/23 14:58:53.4      73    -24     80     77    111 108.4  51.2  34204  290.33 0854.72
2009/04/23 14:58:53.5      36    -65     43     75     86 151.0  32.9  34202  290.28 0854.72
2009/04/23 14:58:53.6       2   -157      0    158    159 179.1  -0.3  34174  289.82 0854.72
2009/04/23 14:58:53.7     -77   -114     98    138    169 214.3  38.8  34174  289.80 0854.72
2009/04/23 14:58:53.8    -139   -170     91    220    238 219.4  23.8  34174  289.80 0854.72
2009/04/23 14:58:53.9     -66   -167    115    180    213 201.8  35.6  34174  289.82 0854.72
2009/04/23 14:58:54.0    -238   -132     13    273    274 240.9   2.8  34172  289.76 0854.72
2009/04/23 14:58:54.1    -249   -134     -5    283    284 241.6  -1.2  34174  289.81 0854.72
2009/04/23 14:58:54.2    -198   -121     73    233    245 238.5  17.4  34178  289.86 0854.72
2009/04/23 14:58:54.3    -193    -13     31    194    197 266.1   9.3  34172  289.79 0854.72
2009/04/23 14:58:54.4    -166    -95     81    192    208 240.2  24.1  34178  289.87 0854.72
2009/04/23 14:58:54.5    -141    -89     58    167    177 237.6  19.2  34182  289.94 0854.72
2009/04/23 14:58:54.6     -71    -87     59    113    127 219.2  29.3  34186  290.01 0854.72
2009/04/23 14:58:54.7     -32   -105     88    110    140 196.9  43.3  34184  289.99 0854.72
2009/04/23 14:58:54.8     -51   -107    107    119    160 205.4  46.6  34186  290.01 0854.72
2009/04/23 14:58:54.9      -5    -74    100     75    125 184.4  59.4  34188  290.06 0854.72
2009/04/23 14:58:55.0     -79   -123    123    147    191 212.6  44.1  34180  289.92 0854.74
2009/04/23 14:58:55.1     -91   -151     41    177    182 211.0  13.2  34168  289.72 0854.74
2009/04/23 14:58:55.2     -62   -101     31    119    124 211.6  14.7  34172  289.77 0854.74
2009/04/23 14:58:55.3     -14    -55     88     57    104 195.1  64.6  34192  290.11 0854.74
2009/04/23 14:58:55.4       2    -25     87     26     90 175.5  83.3  34216  290.52 0854.74
2009/04/23 14:58:55.5      24     -2     51     25     56  96.1  72.8  34208  290.40 0854.74
2009/04/23 14:58:55.6     -16    -83     95     85    127 191.1  53.7  34198  290.21 0854.74
2009/04/23 14:58:55.7      -7   -123    148    124    193 183.6  56.3  34192  290.11 0854.74
2009/04/23 14:58:55.8     -35   -162    170    166    237 192.3  50.7  34184  289.99 0854.74
2009/04/23 14:58:55.9    -107   -171    146    203    250 212.1  39.3  34176  289.85 0854.74
2009/04/23 14:58:56.0    -129   -136    113    188    219 223.4  33.7  34176  289.84 0854.75
2009/04/23 14:58:56.1     -58   -154     78    165    182 200.9  27.1  34178  289.89 0854.75
2009/04/23 14:58:56.2     -33   -184     83    187    204 190.2  25.3  34178  289.87 0854.75
2009/04/23 14:58:56.3     -35   -202     64    206    216 190.0  17.3  34180  289.91 0854.75
2009/04/23 14:58:56.4     -61   -229     53    238    244 195.1  12.6  34178  289.88 0854.75
2009/04/23 14:58:56.5     -48   -235     98    240    259 191.6  23.1  34188  290.05 0854.75
2009/04/23 14:58:56.6     -77   -257    156    269    310 196.7  32.9  34200  290.26 0854.75
2009/04/23 14:58:56.7    -112   -177     41    210    215 212.5  11.1  34194  290.16 0854.75
2009/04/23 14:58:56.8     -82   -129    140    153    207 212.5  47.5  34204  290.33 0854.75
2009/04/23 14:58:56.9    -117   -170     77    207    220 214.5  21.3  34204  290.31 0854.75
2009/04/23 14:58:57.0    -124   -189    -60    227    235 213.2 -15.0  34174  289.82 0854.75
2009/04/23 14:58:57.1    -115   -217    -74    246    257 207.9 -16.8  34180  289.92 0854.75
2009/04/23 14:58:57.2    -139   -166    -77    217    231 219.9 -19.7  34178  289.87 0854.75
2009/04/23 14:58:57.3      -4   -155    -46    156    163 181.6 -16.4  34168  289.70 0854.75
2009/04/23 14:58:57.4      47   -121    -26    131    134 158.6 -11.3  34180  289.91 0854.75
2009/04/23 14:58:57.5     -15    -44     62     47     77 199.2  59.4  34186  290.01 0854.75
2009/04/23 14:58:57.6     -28    -48     47     56     73 210.7  43.8  34186  290.02 0854.75
2009/04/23 14:58:57.7      -5    -75     -9     76     77 184.5  -7.2  34188  290.06 0854.75
2009/04/23 14:58:57.8       8    -26     75     28     80 161.7  79.2  34198  290.21 0854.75
2009/04/23 14:58:57.9     -44    -17    110     48    120 249.2  75.0  34210  290.43 0854.75
2009/04/23 14:58:58.0     -19   -137     69    139    155 188.0  28.2  34194  290.14 0854.75
2009/04/23 14:58:58.1       0    -91     82     92    123 180.4  46.9  34186  290.01 0854.75
2009/04/23 14:58:58.2       5   -126     85    127    152 177.3  36.5  34176  289.84 0854.75
2009/04/23 14:58:58.3      23   -202     83    204    220 173.5  23.1  34176  289.85 0854.75
2009/04/23 14:58:58.4     -65   -197     74    208    221 198.5  19.6  34176  289.84 0854.75
2009/04/23 14:58:58.5      39   -229      3    233    234 170.3   0.8  34168  289.71 0854.75
2009/04/23 14:58:58.6      11   -343     16    344    345 178.1   2.8  34166  289.69 0854.75
2009/04/23 14:58:58.7      51   -296    -24    301    302 170.2  -4.6  34168  289.70 0854.75
2009/04/23 14:58:58.8      42   -367    -46    370    373 173.4  -7.2  34162  289.60 0854.75
2009/04/23 14:58:58.9     -22   -348      6    349    350 183.6   1.0  34170  289.74 0854.75
2009/04/23 14:58:59.0     -40   -321    103    324    341 187.2  17.7  34168  289.72 0854.75
2009/04/23 14:58:59.1     -59   -289    134    296    324 191.6  26.2  34172  289.76 0854.75
2009/04/23 14:58:59.2       3   -248    187    249    311 179.1  40.7  34176  289.85 0854.75
2009/04/23 14:58:59.3      23   -245    152    247    290 174.6  34.8  34174  289.81 0854.75
2009/04/23 14:58:59.4      58   -245    115    252    277 166.6  26.2  34170  289.73 0854.75
2009/04/23 14:58:59.5      79   -197    103    213    236 158.1  27.8  34172  289.77 0854.75
2009/04/23 14:58:59.6     147   -152    129    212    248 135.9  34.4  34178  289.86 0854.75
2009/04/23 14:58:59.7      60   -110    126    126    178 151.1  50.1  34172  289.77 0854.75
2009/04/23 14:58:59.8     102   -176    145    204    250 149.9  38.8  34168  289.70 0854.75
2009/04/23 14:58:59.9     129   -153    106    201    227 139.9  30.1  34166  289.67 0854.75
2009/04/23 14:59:00.0      95   -150     91    178    199 147.5  29.2  34166  289.67 0854.73
2009/04/23 14:59:00.1     133   -188     77    231    244 144.8  18.4  34158  289.53 0854.73
2009/04/23 14:59:00.2     101   -208     88    232    248 154.1  21.7  34144  289.29 0854.73
2009/04/23 14:59:00.3      80   -199     84    215    230 158.1  22.5  34156  289.52 0854.73
2009/04/23 14:59:00.4     152   -199    131    251    283 142.6  29.8  34174  289.81 0854.73
2009/04/23 14:59:00.5     136   -156    140    208    250 139.0  37.0  34180  289.90 0854.73
2009/04/23 14:59:00.6     118   -127    103    174    202 137.0  33.5  34190  290.09 0854.73
2009/04/23 14:59:00.7     101   -149    112    181    212 145.7  35.2  34166  289.69 0854.73
2009/04/23 14:59:00.8      90   -182     87    204    221 153.7  24.3  34160  289.58 0854.73
2009/04/23 14:59:00.9      35   -166     61    170    180 168.0  20.2  34150  289.41 0854.73
2009/04/23 14:59:01.0      32   -176     65    179    190 169.5  20.4  34152  289.43 0854.73
2009/04/23 14:59:01.1      34   -181     67    185    196 169.1  21.0  34156  289.52 0854.73
2009/04/23 14:59:01.2       0   -199     81    200    215 180.0  23.1  34156  289.50 0854.73
2009/04/23 14:59:01.3     -17   -225    118    226    254 184.5  29.8  34152  289.42 0854.73
2009/04/23 14:59:01.4     -44   -234    119    239    266 190.7  28.2  34166  289.66 0854.73
2009/04/23 14:59:01.5     -26   -162    123    165    205 189.3  40.7  34170  289.74 0854.73
2009/04/23 14:59:01.6     -19   -138    126    140    188 188.0  46.9  34170  289.75 0854.73
2009/04/23 14:59:01.7      37   -155    107    160    192 166.6  36.5  34160  289.57 0854.73
2009/04/23 14:59:01.8       6   -158     55    159    169 177.8  19.2  34158  289.55 0854.73
2009/04/23 14:59:01.9     -15   -138    107    139    175 186.2  41.7  34158  289.53 0854.73
2009/04/23 14:59:02.0     -41   -114     89    122    151 200.0  39.7  34158  289.53 0854.72
2009/04/23 14:59:02.1     -66   -139    101    154    184 205.5  36.0  34162  289.60 0854.72
2009/04/23 14:59:02.2    -102   -133    113    168    202 217.6  37.0  34162  289.60 0854.72
2009/04/23 14:59:02.3     -47   -142    105    150    183 198.3  38.4  34160  289.57 0854.72
2009/04/23 14:59:02.4      -8   -206    149    207    255 182.2  39.5  34160  289.58 0854.72
2009/04/23 14:59:02.5      16   -210    172    211    272 175.6  43.7  34170  289.73 0854.72
2009/04/23 14:59:02.6     -18   -257     94    258    274 184.0  21.0  34164  289.64 0854.72
2009/04/23 14:59:02.7     -23   -266     13    268    269 185.1   2.9  34160  289.58 0854.72
2009/04/23 14:59:02.8     -23   -251     -9    253    254 185.3  -2.2  34160  289.56 0854.72
2009/04/23 14:59:02.9     -52   -239     38    245    249 192.3   9.0  34164  289.63 0854.72
2009/04/23 14:59:03.0     -66   -287     63    295    302 193.1  12.2  34168  289.70 0854.72
2009/04/23 14:59:03.1     -50   -213     95    219    238 193.4  25.1  34170  289.75 0854.72
2009/04/23 14:59:03.2     -67   -253     64    262    270 194.9  13.9  34168  289.70 0854.72
2009/04/23 14:59:03.3    -124   -263     62    291    298 205.3  12.1  34172  289.76 0854.72
2009/04/23 14:59:03.4     -94   -255     48    272    277 200.3  10.1  34202  290.27 0854.72
2009/04/23 14:59:03.5     -72   -243      3    254    255 196.5   0.7  34220  290.59 0854.72
2009/04/23 14:59:03.6     -26   -247     19    249    250 186.2   4.6  34194  290.15 0854.72
2009/04/23 14:59:03.7     -24   -316     81    318    329 184.5  14.3  34166  289.66 0854.72
2009/04/23 14:59:03.8     -64   -291     36    299    302 192.5   6.9  34206  290.34 0854.72
2009/04/23 14:59:03.9    -124   -268    -16    296    297 204.9  -3.1  34172  289.78 0854.72
2009/04/23 14:59:04.0     -86   -219     18    236    237 201.6   4.6  34182  289.93 0854.70
2009/04/23 14:59:04.1     -87   -199    -16    218    219 203.6  -4.4  34174  289.80 0854.70
2009/04/23 14:59:04.2    -164   -165    -29    233    235 224.9  -7.2  34184  289.97 0854.70
2009/04/23 14:59:04.3    -213   -145     -1    258    259 235.8  -0.3  34196  290.19 0854.70
2009/04/23 14:59:04.4    -190   -129      4    230    231 235.8   1.0  34190  290.08 0854.70
2009/04/23 14:59:04.5    -112   -179     41    212    217 212.1  11.1  34184  289.99 0854.70
2009/04/23 14:59:04.6     -58   -171     13    181    182 198.7   4.4  34164  289.65 0854.70
2009/04/23 14:59:04.7     -74    -61     14     96     98 230.5   8.5  34168  289.70 0854.70
2009/04/23 14:59:04.8    -142    -49     62    151    163 250.9  23.4  34196  290.18 0854.70
2009/04/23 14:59:04.9    -102    -75    127    127    179 233.6  50.1  34196  290.18 0854.70
2009/04/23 14:59:05.0     -27    -17    132     32    135 237.6  86.9  34212  290.45 0854.70
2009/04/23 14:59:05.1      29    -55    120     63    135 151.9  70.4  34190  290.09 0854.70
2009/04/23 14:59:05.2     -23   -106     70    109    129 192.5  35.6  34186  290.01 0854.70
2009/04/23 14:59:05.3      10   -114     32    115    120 174.7  15.8  34178  289.87 0854.70
2009/04/23 14:59:05.4     -41    -84     -3     94     95 206.3  -2.2  34186  290.01 0854.70
2009/04/23 14:59:05.5     -74    -83      5    112    113 221.9   2.9  34174  289.80 0854.70
2009/04/23 14:59:05.6     -89   -107     45    140    148 219.6  17.9  34166  289.67 0854.70
2009/04/23 14:59:05.7    -133    -73     32    152    156 241.2  12.2  34180  289.91 0854.70
2009/04/23 14:59:05.8    -144    -91     -7    171    172 237.6  -2.6  34194  290.14 0854.70
2009/04/23 14:59:05.9    -108   -128     -6    168    169 220.1  -2.2  34192  290.11 0854.70
2009/04/23 14:59:06.0     -73   -123     49    144    153 210.7  18.9  34174  289.82 0854.70
2009/04/23 14:59:06.1     -99   -195     44    219    224 207.1  11.6  34168  289.72 0854.70
2009/04/23 14:59:06.2    -134   -237    -35    273    276 209.4  -7.3  34176  289.83 0854.70
2009/04/23 14:59:06.3     -93   -283    -35    299    302 198.3  -6.7  34178  289.86 0854.70
2009/04/23 14:59:06.4    -154   -224     38    273    276 214.5   8.0  34184  289.98 0854.70
2009/04/23 14:59:06.5    -120   -224     79    255    268 208.3  17.3  34184  289.97 0854.70
2009/04/23 14:59:06.6    -138   -226     72    265    275 211.4  15.3  34184  289.98 0854.70
2009/04/23 14:59:06.7     -48   -232    101    238    258 191.8  24.2  34176  289.83 0854.70
2009/04/23 14:59:06.8       0   -238     90    239    255 180.0  21.7  34180  289.92 0854.70
2009/04/23 14:59:06.9     -42   -230    109    234    258 190.5  27.0  34170  289.75 0854.70
2009/04/23 14:59:07.0     -23   -231    112    233    258 185.8  27.3  34168  289.70 0854.70
2009/04/23 14:59:07.1     -12   -172    178    173    248 184.2  50.9  34176  289.85 0854.70
2009/04/23 14:59:07.2      10   -190    206    191    280 176.9  52.2  34186  290.02 0854.70
2009/04/23 14:59:07.3      99   -183     17    209    210 151.5   4.9  34176  289.85 0854.70
2009/04/23 14:59:07.4      62   -183     12    194    195 161.3   3.8  34170  289.75 0854.70
2009/04/23 14:59:07.5      43   -178     -7    184    185 166.4  -2.2  34174  289.80 0854.70
2009/04/23 14:59:07.6     -44   -162     -8    169    170 195.4  -2.8  34170  289.74 0854.70
2009/04/23 14:59:07.7    -116   -115    -24    164    166 225.3  -8.6  34170  289.75 0854.70
2009/04/23 14:59:07.8    -136   -128     10    187    188 226.7   3.1  34172  289.79 0854.70
2009/04/23 14:59:07.9    -128    -52    -70    139    155 247.8 -33.1  34178  289.87 0854.70
2009/04/23 14:59:08.0    -163   -128    -71    208    219 231.8 -23.6  34204  290.33 0854.69
2009/04/23 14:59:08.1    -207   -109    -69    235    244 242.2 -21.2  34196  290.17 0854.69
2009/04/23 14:59:08.2    -166    -37    -65    171    182 257.4 -26.1  34202  290.30 0854.69
2009/04/23 14:59:08.3     -57    -23     13     62     64 248.2  12.2  34192  290.13 0854.69
2009/04/23 14:59:08.4     -37    -86     39     94    101 203.2  23.1  34192  290.13 0854.69
2009/04/23 14:59:08.5     -21   -128     44    130    138 189.7  18.9  34182  289.96 0854.69
2009/04/23 14:59:08.6     -71   -144     -6    161    162 206.3  -2.2  34184  289.99 0854.69
2009/04/23 14:59:08.7     -45   -133    -12    141    142 198.7  -5.2  34186  290.01 0854.69
2009/04/23 14:59:08.8     -31   -154     -1    158    159 191.5  -0.7  34184  289.99 0854.69
2009/04/23 14:59:08.9     -41   -155     12    161    162 195.1   4.4  34186  290.02 0854.69
2009/04/23 14:59:09.0     -24   -275     10    277    278 185.1   2.1  34188  290.05 0854.69
2009/04/23 14:59:09.1     -37   -300     19    303    304 187.1   3.6  34180  289.92 0854.69
2009/04/23 14:59:09.2     -99   -282     19    300    301 199.4   3.8  34170  289.75 0854.69
2009/04/23 14:59:09.3     -70   -281      4    290    291 194.2   0.8  34174  289.80 0854.69
2009/04/23 14:59:09.4     -63   -323     25    330    331 191.1   4.4  34170  289.74 0854.69
2009/04/23 14:59:09.5     -36   -255     60    258    265 188.1  13.2  34170  289.75 0854.69
2009/04/23 14:59:09.6     -56   -210     67    218    229 195.1  17.1  34170  289.74 0854.69
2009/04/23 14:59:09.7    -103   -174     29    203    206 210.7   8.2  34172  289.79 0854.69
2009/04/23 14:59:09.8    -125   -150     16    196    197 219.7   4.9  34172  289.79 0854.69
2009/04/23 14:59:09.9     -96   -151     26    180    182 212.6   8.2  34168  289.72 0854.69
2009/04/23 14:59:10.0    -151   -222     28    269    271 214.3   6.1  34166  289.68 0854.68
2009/04/23 14:59:10.1    -164   -218    -19    274    275 217.0  -4.1  34170  289.73 0854.68
2009/04/23 14:59:10.2    -135   -219    -14    258    259 211.7  -3.1  34168  289.70 0854.68
2009/04/23 14:59:10.3     -68   -225    -16    236    237 196.9  -3.9  34168  289.71 0854.68
2009/04/23 14:59:10.4    -140   -281    -15    315    316 206.5  -2.8  34168  289.70 0854.68
2009/04/23 14:59:10.5    -151   -293    -64    330    337 207.4 -11.1  34166  289.69 0854.68
2009/04/23 14:59:10.6    -157   -290    -61    331    337 208.5 -10.5  34164  289.64 0854.68
2009/04/23 14:59:10.7    -153   -269    -72    310    319 209.6 -13.2  34166  289.66 0854.68
2009/04/23 14:59:10.8    -179   -247    -16    306    307 216.0  -3.1  34170  289.75 0854.68
2009/04/23 14:59:10.9    -158   -329    -29    366    368 205.7  -4.6  34178  289.87 0854.68
2009/04/23 14:59:11.0    -130   -286    -29    315    317 204.5  -5.4  34168  289.70 0854.68
2009/04/23 14:59:11.1    -124   -275    -19    302    303 204.3  -3.7  34166  289.68 0854.68
2009/04/23 14:59:11.2     -60   -253    -20    261    262 193.4  -4.6  34168  289.70 0854.68
2009/04/23 14:59:11.3     -32   -240    -37    243    246 187.8  -8.8  34168  289.70 0854.68
2009/04/23 14:59:11.4     -38   -246    -26    250    252 188.9  -6.0  34174  289.81 0854.68
2009/04/23 14:59:11.5    -111   -220    -78    247    260 206.7 -17.5  34172  289.76 0854.68
2009/04/23 14:59:11.6     -95   -226     -9    246    247 202.9  -2.2  34174  289.81 0854.68
2009/04/23 14:59:11.7     -83   -199     16    216    217 202.7   4.4  34174  289.80 0854.68
2009/04/23 14:59:11.9    -154   -210   -101    261    279 216.3 -26.5  34178  289.88 0854.68
2009/04/23 14:59:12.0    -142   -210    -96    254    271 214.2 -26.1  34192  290.10 0854.68
2009/04/23 14:59:12.1    -117   -341    -46    361    364 198.9  -7.3  34172  289.76 0854.66
2009/04/23 14:59:12.2    -190   -244    -96    310    325 217.9 -17.2  34200  290.24 0854.66
2009/04/23 14:59:12.3     -95   -314    -22    329    330 196.9  -3.9  34192  290.13 0854.66
2009/04/23 14:59:12.4     -94   -433    -30    444    445 192.3  -3.9  34206  290.34 0854.66
2009/04/23 14:59:12.5     -46   -426   -130    429    448 186.2 -21.7  34192  290.12 0854.66
2009/04/23 14:59:12.6     -38   -428     -9    430    431 185.2  -1.3  34182  289.94 0854.66
2009/04/23 14:59:12.7     -61   -493    -35    497    499 187.1  -4.1  34172  289.79 0854.66
2009/04/23 14:59:12.8     -26   -481    -21    482    483 183.1  -2.6  34172  289.76 0854.66
2009/04/23 14:59:12.9      90   -428    -31    438    440 168.1  -4.1  34168  289.70 0854.66
2009/04/23 14:59:13.0      72   -385    -34    392    394 169.3  -5.1  34174  289.81 0854.66
2009/04/23 14:59:13.1      73   -425     76    432    439 170.2  10.0  34176  289.83 0854.66
2009/04/23 14:59:13.2     111   -374    -42    391    394 163.5  -6.2  34172  289.79 0854.66
2009/04/23 14:59:13.3     147   -341   -109    372    388 156.7 -16.4  34166  289.69 0854.66
2009/04/23 14:59:13.4     147   -380    -19    408    409 158.8  -2.7  34162  289.60 0854.66
2009/04/23 14:59:13.5      24   -371    124    372    393 176.3  18.5  34162  289.60 0854.66
2009/04/23 14:59:13.6      58   -430    232    434    492 172.3  30.5  34168  289.71 0854.66
2009/04/23 14:59:13.7     163   -519     72    545    550 162.6   7.6  34172  289.77 0854.66
2009/04/23 14:59:13.8     175   -457     50    490    493 159.0   5.9  34172  289.78 0854.66
2009/04/23 14:59:13.9     128   -569    -96    584    592 167.3  -9.3  34176  289.83 0854.66
2009/04/23 14:59:14.0     139   -549    -37    567    569 165.7  -3.8  34174  289.80 0854.66
2009/04/23 14:59:14.1     222   -531   -147    576    595 157.3 -14.4  34176  289.85 0854.65
2009/04/23 14:59:14.2     220   -523   -219    568    608 157.2 -26.6  34170  289.75 0854.65
2009/04/23 14:59:14.3     180   -470   -156    504    527 159.0 -22.2  34172  289.77 0854.65
2009/04/23 14:59:14.4     241   -460   -124    520    535 152.3 -13.4  34174  289.80 0854.65
2009/04/23 14:59:14.5     231   -377   -145    443    466 148.5 -23.6  34172  289.77 0854.65
2009/04/23 14:59:14.6     190   -386    -92    431    441 153.7 -12.2  34172  289.77 0854.65
2009/04/23 14:59:14.7     168   -415    -68    448    454 157.9  -8.7  34168  289.72 0854.65
2009/04/23 14:59:14.8     123   -441    -79    458    465 164.4  -9.8  34170  289.75 0854.65
2009/04/23 14:59:14.9      90   -444    -87    454    463 168.4 -10.9  34176  289.85 0854.65
2009/04/23 14:59:15.0      62   -435   -104    440    453 171.9 -13.3  34180  289.92 0854.65
2009/04/23 14:59:15.1      48   -395    -98    398    410 173.0 -13.9  34182  289.95 0854.65
2009/04/23 14:59:15.2      56   -391    -95    396    408 171.8 -13.6  34188  290.05 0854.65
2009/04/23 14:59:15.3      35   -379   -135    381    405 174.7 -19.6  34198  290.23 0854.65
2009/04/23 14:59:15.4      31   -351   -119    353    373 174.8 -18.7  34208  290.37 0854.65
2009/04/23 14:59:15.5      78   -363   -120    372    391 167.9 -17.9  34204  290.32 0854.65
2009/04/23 14:59:15.6       0   -389   -124    390    410 180.1 -17.7  34200  290.24 0854.65
2009/04/23 14:59:15.7       0   -397    -97    398    410 179.9 -13.8  34182  289.94 0854.65
2009/04/23 14:59:15.8       8   -343    -81    344    354 178.6 -13.3  34188  290.03 0854.65
2009/04/23 14:59:15.9     -62   -353   -102    359    374 190.0 -15.9  34188  290.06 0854.65
2009/04/23 14:59:16.0    -115   -318    -98    339    352 200.0 -20.9  34182  289.96 0854.63
2009/04/23 14:59:16.1     -58   -308   -101    314    331 190.7 -17.9  34170  289.75 0854.63
2009/04/23 14:59:16.2     -30   -279   -119    281    305 186.2 -28.7  34188  290.05 0854.63
2009/04/23 14:59:16.3     -53   -198   -110    206    233 195.2 -35.0  34184  289.99 0854.63
2009/04/23 14:59:16.4     -33   -191    -60    195    204 190.0 -22.1  34184  289.97 0854.63
2009/04/23 14:59:16.5     -20   -211    -47    213    219 185.6 -12.6  34190  290.08 0854.63
2009/04/23 14:59:16.6    -143   -146    -21    205    207 224.5  -6.0  34208  290.38 0854.63
2009/04/23 14:59:16.7       6   -187      9    188    189 178.0   2.8  34194  290.14 0854.63
2009/04/23 14:59:16.8      26   -228    -12    230    231 173.3  -3.1  34182  289.96 0854.63
2009/04/23 14:59:16.9      59   -194    -34    203    206 163.1  -9.6  34178  289.89 0854.63
2009/04/23 14:59:17.0      53   -107    -27    120    124 153.3 -12.9  34180  289.92 0854.63
2009/04/23 14:59:17.1      44   -110    -33    119    124 158.1 -15.5  34184  289.99 0854.63
2009/04/23 14:59:17.2      32   -106    -36    111    117 163.1 -18.1  34192  290.13 0854.63
2009/04/23 14:59:17.3       0   -160     -6    161    162 180.0  -2.2  34200  290.25 0854.63
2009/04/23 14:59:17.4      21   -113      5    116    117 169.3   2.8  34202  290.28 0854.63
2009/04/23 14:59:17.5      31    -85     31     91     97 159.5  18.9  34202  290.30 0854.63
2009/04/23 14:59:17.6      66    -59     51     89    102 131.8  32.4  34198  290.23 0854.63
2009/04/23 14:59:17.7     105    -71     90    127    155 124.2  39.1  34200  290.26 0854.63
2009/04/23 14:59:17.8     107   -119    103    161    191 138.1  35.6  34202  290.28 0854.63
2009/04/23 14:59:17.9      31   -119    139    124    186 165.3  53.7  34202  290.30 0854.63
2009/04/23 14:59:18.0      15    -92    138     94    166 170.2  62.6  34218  290.57 0854.63
2009/04/23 14:59:18.1      43   -142    114    149    187 163.1  41.2  34200  290.25 0854.63
2009/04/23 14:59:18.2      53   -268    147    274    310 168.7  30.6  34180  289.92 0854.63
2009/04/23 14:59:18.3      17   -361    238    362    433 177.2  36.5  34168  289.72 0854.63
2009/04/23 14:59:18.4      23   -310    292    311    426 175.6  48.0  34164  289.65 0854.63
2009/04/23 14:59:18.5     139   -341    276    369    460 157.8  40.6  34170  289.75 0854.63
2009/04/23 14:59:18.6     101   -345    249    360    437 163.7  37.8  34172  289.78 0854.63
2009/04/23 14:59:18.7      64   -275    257    283    382 166.7  47.0  34178  289.87 0854.63
2009/04/23 14:59:18.8      63   -362    283    368    464 170.1  41.5  34164  289.65 0854.63
2009/04/23 14:59:18.9      39   -298    243    301    386 172.4  43.3  34178  289.89 0854.63
2009/04/23 14:59:19.0      57   -299    177    305    352 169.1  32.8  34186  290.01 0854.63
2009/04/23 14:59:19.1      31   -253    136    255    289 172.9  30.3  34186  290.02 0854.63
2009/04/23 14:59:19.2     -18   -236    108    237    260 184.5  26.2  34186  290.00 0854.63
2009/04/23 14:59:19.3     -20   -195     80    197    212 186.0  23.1  34192  290.11 0854.63
2009/04/23 14:59:19.4     -83   -152     76    174    189 208.7  25.3  34184  289.99 0854.63
2009/04/23 14:59:19.5    -292   -100     81    309    320 250.9  14.7  34172  289.78 0854.63
2009/04/23 14:59:19.6    -352    -74     28    360    362 258.1   4.5  34188  290.06 0854.63
2009/04/23 14:59:19.7    -281    -21     21    282    283 265.7   4.4  34196  290.17 0854.63
2009/04/23 14:59:19.8    -204    -89      3    223    224 246.3   0.8  34194  290.16 0854.63
2009/04/23 14:59:19.9    -207    -28    -62    209    218 262.1 -21.5  34192  290.11 0854.63
2009/04/23 14:59:20.0    -117     55   -116    130    174 295.2 -50.8  34198  290.21 0854.63
2009/04/23 14:59:20.1    -156    118      2    196    197 307.1   0.8  34198  290.21 0854.63
2009/04/23 14:59:20.2    -169    142      1    221    222 310.0   0.5  34200  290.25 0854.63
2009/04/23 14:59:20.3    -166    208    -73    267    277 321.5 -15.4  34202  290.27 0854.63
2009/04/23 14:59:20.4    -190    202   -111    278    299 316.7 -27.4  34218  290.56 0854.63
2009/04/23 14:59:20.5    -119    242    -76    270    280 333.7 -20.4  34210  290.41 0854.63
2009/04/23 14:59:20.6     -24    319    -94    320    333 355.6 -21.1  34220  290.60 0854.63
2009/04/23 14:59:20.7     -50    292    -55    297    303 350.2 -10.5  34206  290.34 0854.63
2009/04/23 14:59:20.8    -113    228    -16    255    256 333.5  -3.7  34202  290.29 0854.63
2009/04/23 14:59:20.9     -63    113    -15    130    131 330.6  -6.7  34206  290.36 0854.63
2009/04/23 14:59:21.0    -104    156     22    188    190 326.2   6.9  34198  290.21 0854.63
2009/04/23 14:59:21.1     -76    164     21    181    183 335.1   6.7  34198  290.21 0854.63
2009/04/23 14:59:21.2     -22    156     86    158    179 351.9  31.0  34194  290.14 0854.63
2009/04/23 14:59:21.3     -62    274     92    282    297 347.1  18.1  34198  290.22 0854.63
2009/04/23 14:59:21.4    -171    299    103    345    361 330.3  16.7  34204  290.32 0854.63
2009/04/23 14:59:21.5    -261    268      7    375    376 315.8   1.1  34208  290.37 0854.63
2009/04/23 14:59:21.6    -261    402     36    480    482 327.0   4.3  34210  290.42 0854.63
2009/04/23 14:59:21.7    -203    372     53    424    428 331.4   7.2  34198  290.21 0854.63
2009/04/23 14:59:21.8    -362    185    -58    407    412 297.1  -8.2  34200  290.26 0854.63
2009/04/23 14:59:21.9    -244    225   -102    332    348 312.7 -17.2  34190  290.08 0854.63
2009/04/23 14:59:22.0    -248    250   -122    353    373 315.2 -24.0  34198  290.23 0854.63
2009/04/23 14:59:22.1    -206    311   -126    374    395 326.4 -18.7  34202  290.30 0854.63
2009/04/23 14:59:22.2    -192    328    -74    381    389 329.6 -11.1  34210  290.42 0854.63
2009/04/23 14:59:22.3    -255    374    -58    453    457 325.7  -7.4  34222  290.61 0854.63
2009/04/23 14:59:22.4    -160    227    -98    279    295 324.8 -24.4  34210  290.42 0854.63
2009/04/23 14:59:22.5    -355    -13    124    356    378 267.9  19.2  34234  290.84 0854.63
2009/04/23 14:59:22.6    -407    -24    120    408    426 266.5  16.4  34238  290.89 0854.63
2009/04/23 14:59:22.7    -409    -40     -1    412    413 264.4  -0.3  34220  290.60 0854.63
2009/04/23 14:59:22.8    -417    -33     81    419    427 265.4  11.0  34238  290.90 0854.63
2009/04/23 14:59:22.9    -436    -74     62    443    448 260.3   8.0  34246  291.02 0854.63
2009/04/23 14:59:23.0    -282   -179     30    335    337 237.6   5.2  34240  290.94 0854.63
2009/04/23 14:59:23.1    -103   -203    114    228    254 207.0  28.5  34260  291.26 0854.63
2009/04/23 14:59:23.2     -84   -262    132    276    305 197.8  27.3  34274  291.51 0854.63
2009/04/23 14:59:23.3     153   -261    196    303    360 149.5  35.7  34240  290.93 0854.63
2009/04/23 14:59:23.4     106   -292     63    311    318 160.0  11.4  34236  290.87 0854.63
2009/04/23 14:59:23.5     146   -178     82    231    245 140.8  20.0  34246  291.02 0854.63
2009/04/23 14:59:23.6     224     13    -82    225    239  86.5 -25.3  34238  290.88 0854.63
2009/04/23 14:59:23.7     318      3    -68    319    327  89.4 -12.2  34238  290.88 0854.63
2009/04/23 14:59:23.8     181    -95   -157    205    258 117.8 -45.8  34238  290.90 0854.63
2009/04/23 14:59:23.9     137     43   -130    144    194  72.3 -51.5  34240  290.94 0854.63
2009/04/23 14:59:24.0     243    194   -153    312    347  51.4 -32.3  34238  290.89 0854.63
2009/04/23 14:59:24.1      89    294   -180    308    356  17.0 -37.4  34232  290.81 0854.63
2009/04/23 14:59:24.2     227    226    -76    321    330  45.1 -13.4  34234  290.83 0854.63
2009/04/23 14:59:24.3     120    108    -74    162    178  47.8 -30.6  34234  290.82 0854.63
2009/04/23 14:59:24.4      37    -19    -13     42     43 117.1 -22.8  34238  290.89 0854.63
2009/04/23 14:59:24.5     140     10    -93    141    168  85.6 -40.9  34236  290.86 0854.63
2009/04/23 14:59:24.6      63    -59    -90     87    125 133.6 -54.6  34208  290.40 0854.63
2009/04/23 14:59:24.7     129    -19     54    131    141  98.4  23.1  34228  290.72 0854.63
2009/04/23 14:59:24.8     144     -2    -18    145    147  90.9  -7.2  34236  290.86 0854.63
2009/04/23 14:59:24.9     170    -20    -14    172    173  97.0  -4.9  34238  290.89 0854.63
2009/04/23 14:59:25.0     201     -2    -36    202    206  90.8 -10.3  34230  290.77 0854.63
2009/04/23 14:59:25.1     225     63    -55    234    241  74.3 -13.4  34222  290.63 0854.63
2009/04/23 14:59:25.2     374    135    -79    398    406  70.1 -11.3  34192  290.11 0854.63
2009/04/23 14:59:25.3     187    218   -114    288    309  40.6 -27.4  34204  290.31 0854.63
2009/04/23 14:59:25.4     175    155    -48    235    240  48.4 -11.6  34200  290.24 0854.63
2009/04/23 14:59:25.5     257    107    -25    279    281  67.4  -5.2  34200  290.24 0854.63
2009/04/23 14:59:25.6     232     42     -9    236    237  79.6  -2.2  34202  290.27 0854.63
2009/04/23 14:59:25.7     231    -34     26    234    236  98.6   6.5  34202  290.27 0854.63
2009/04/23 14:59:25.8     228     -3    -30    229    231  90.9  -7.5  34200  290.26 0854.63
2009/04/23 14:59:25.9     227     58     37    235    238  75.6   9.0  34204  290.31 0854.63
2009/04/23 14:59:26.0     209     80     12    225    226  68.9   3.1  34206  290.35 0854.63
2009/04/23 14:59:26.1     159     73    115    176    210  65.2  36.0  34212  290.45 0854.63
2009/04/23 14:59:26.2     177     52     79    185    201  73.4  24.6  34216  290.53 0854.63
2009/04/23 14:59:26.3     240     20    133    241    275  85.0  31.3  34218  290.54 0854.63
2009/04/23 14:59:26.4     343    103     91    359    371  73.2  14.3  34178  289.89 0854.63
2009/04/23 14:59:26.5     291    188     99    347    362  57.1  16.0  34188  290.06 0854.63
2009/04/23 14:59:26.6     276    146     52    313    318  62.0   9.4  34182  289.95 0854.63
2009/04/23 14:59:26.7      88    227    135    244    278  21.2  31.4  34290  291.77 0854.63
2009/04/23 14:59:26.8     157    120     69    198    210  52.7  19.4  34222  290.64 0854.63
2009/04/23 14:59:26.9     175     69     88    189    208  68.3  27.1  34188  290.04 0854.63
2009/04/23 14:59:27.0     113    122     -6    167    168  43.0  -2.3  34208  290.40 0854.63
2009/04/23 14:59:27.1     148    149    -43    211    216  44.9 -11.5  34234  290.84 0854.63
2009/04/23 14:59:27.2     371    320     32    491    493  49.2   3.8  34292  291.80 0854.63
2009/04/23 14:59:27.3     329    286    256    437    506  49.0  33.1  34308  292.07 0854.63
2009/04/23 14:59:27.4     128    241    198    274    338  28.0  39.5  34252  291.12 0854.63
2009/04/23 14:59:27.5     175    186    169    256    306  43.3  36.5  34272  291.46 0854.63
2009/04/23 14:59:27.6     224    199    125    300    325  48.4  23.9  34212  290.46 0854.63
2009/04/23 14:59:27.7     207    200     99    289    306  46.0  18.9  34222  290.61 0854.63
2009/04/23 14:59:27.8     487    216     54    533    536  66.1   5.8  34220  290.58 0854.63
2009/04/23 14:59:27.9     512    275    143    582    600  61.8  13.8  34228  290.73 0854.63
2009/04/23 14:59:28.0     611    246    151    659    677  68.0  12.9  34276  291.53 0854.63
2009/04/23 14:59:28.1     558    214     94    598    606  69.0   9.0  34264  291.34 0854.63
2009/04/23 14:59:28.2     611    266    116    667    678  66.5   9.9  34244  291.00 0854.63
2009/04/23 14:59:28.3     445    280    123    526    541  57.8  13.2  34306  292.06 0854.63
2009/04/23 14:59:28.4     261    390    331    470    574  33.8  38.6  34336  292.57 0854.63
2009/04/23 14:59:28.5     372    343    239    507    560  47.4  27.1  34304  292.03 0854.63
2009/04/23 14:59:28.6     332    211    234    394    458  57.6  33.5  34302  291.99 0854.63
2009/04/23 14:59:28.7     268    164    204    315    375  58.5  35.9  34308  292.07 0854.63
2009/04/23 14:59:28.8     255    156    188    300    354  58.5  35.1  34288  291.74 0854.63
2009/04/23 14:59:28.9     484    185    218    519    562  69.1  24.2  34252  291.13 0854.63
2009/04/23 14:59:29.0     508     38     79    510    516  85.6   8.8  34272  291.47 0854.62
2009/04/23 14:59:29.1     556     69    161    561    584  82.9  16.0  34272  291.49 0854.62
2009/04/23 14:59:29.2     717    174    186    738    762  76.3  14.2  34280  291.62 0854.62
2009/04/23 14:59:29.3     630    283    134    691    704  65.8  11.0  34272  291.46 0854.62
2009/04/23 14:59:29.4     580      8    -27    581    582  89.2  -2.7  34260  291.27 0854.62
2009/04/23 14:59:29.5     521   -114     26    534    535 102.4   2.8  34252  291.14 0854.62
2009/04/23 14:59:29.6     463    -59    205    467    510  97.4  25.2  34256  291.20 0854.62
2009/04/23 14:59:29.7     588    110    136    599    615  79.4  12.8  34184  289.98 0854.62
2009/04/23 14:59:29.8     677    271    122    730    741  68.2   9.5  34192  290.11 0854.62
2009/04/23 14:59:29.9     639    203    188    671    697  72.3  15.7  34208  290.38 0854.62
2009/04/23 14:59:30.0     708    201     93    737    743  74.1   7.2  34226  290.68 0854.62
2009/04/23 14:59:30.1     661     90    172    668    690  82.2  14.5  34292  291.82 0854.62
2009/04/23 14:59:30.2     652    177    191    676    703  74.8  15.8  34270  291.43 0854.62
2009/04/23 14:59:30.3     622    203    180    655    680  71.9  15.4  34216  290.53 0854.62
2009/04/23 14:59:30.4     650    224    229    688    725  71.0  18.4  34226  290.69 0854.62
2009/04/23 14:59:30.5     681    210    167    713    733  72.8  13.2  34192  290.11 0854.62
2009/04/23 14:59:30.6     612    259     50    665    667  67.1   4.4  34196  290.17 0854.62
2009/04/23 14:59:30.7     713    249    -95    756    763  70.7  -7.2  34220  290.58 0854.62
2009/04/23 14:59:30.8     697     72    -21    701    702  84.0  -1.8  34242  290.98 0854.62
2009/04/23 14:59:30.9     512    -32     54    514    517  93.6   6.1  34226  290.69 0854.62
2009/04/23 14:59:31.0     477     70    -56    483    487  81.6  -6.7  34216  290.52 0854.61
2009/04/23 14:59:31.1     522    107     26    534    535  78.3   2.8  34202  290.30 0854.61
2009/04/23 14:59:31.2     444    216     97    495    505  64.0  11.1  34208  290.40 0854.61
2009/04/23 14:59:31.3     434     66    135    440    461  81.3  17.0  34226  290.68 0854.61
2009/04/23 14:59:31.4     481     82     50    488    491  80.3   5.9  34188  290.03 0854.61
2009/04/23 14:59:31.5     409     84     76    418    425  78.3  10.4  34208  290.38 0854.61
2009/04/23 14:59:31.6     491    179    102    523    534  70.0  11.1  34318  292.27 0854.61
2009/04/23 14:59:31.7     283    144     98    318    333  62.9  17.2  34302  291.97 0854.61
2009/04/23 14:59:31.8     297     74    108    307    326  75.9  19.5  34334  292.53 0854.61
2009/04/23 14:59:31.9     324    230    153    398    426  54.7  22.1  34312  292.16 0854.61
2009/04/23 14:59:32.0     502    219    268    549    610  66.4  27.9  34262  291.29 0854.61
2009/04/23 14:59:32.1     384    165    277    419    502  66.7  36.5  34248  291.07 0854.61
2009/04/23 14:59:32.2     311    -68    159    319    356 102.4  28.6  34226  290.69 0854.61
2009/04/23 14:59:32.3     238    -59    109    246    269 103.9  25.7  34234  290.83 0854.61
2009/04/23 14:59:32.4     279    -14    -15    280    281  93.0  -3.1  34236  290.85 0854.61
2009/04/23 14:59:32.5     196    142     16    243    244  54.1   3.8  34250  291.09 0854.61
2009/04/23 14:59:32.6     157    145     18    214    215  47.3   4.9  34280  291.62 0854.61
2009/04/23 14:59:32.7     297    113     41    318    321  69.1   7.4  34242  290.97 0854.61
2009/04/23 14:59:32.8     347     50     58    351    356  81.7   9.4  34250  291.10 0854.61
2009/04/23 14:59:32.9     284    -85     -6    297    298 106.8  -1.3  34246  291.04 0854.61
2009/04/23 14:59:33.0     303    -32   -103    305    323  96.1 -18.7  34250  291.10 0854.61
2009/04/23 14:59:33.1     347     48    -15    351    352  82.0  -2.5  34258  291.23 0854.61
2009/04/23 14:59:33.2     269     23    -77    271    282  85.0 -16.0  34262  291.31 0854.61
2009/04/23 14:59:33.3     228     58    -38    236    240  75.6  -9.3  34262  291.31 0854.61
2009/04/23 14:59:33.4     194     48    -44    200    205  76.1 -12.6  34262  291.30 0854.61
2009/04/23 14:59:33.5     214      0    117    215    244  90.0  30.8  34294  291.84 0854.61
2009/04/23 14:59:33.6     173     66    187    186    263  69.2  50.1  34294  291.85 0854.61
2009/04/23 14:59:33.7     245     53     80    251    264  77.7  17.7  34286  291.72 0854.61
2009/04/23 14:59:33.8     255     27     66    257    266  83.9  14.5  34292  291.80 0854.61
2009/04/23 14:59:33.9     345    133    178    370    410  68.9  27.4  34280  291.61 0854.61
2009/04/23 14:59:34.0     279     45    225    283    361  80.8  42.6  34292  291.81 0854.61
2009/04/23 14:59:34.1     420     62    159    425    453  81.5  21.5  34280  291.62 0854.61
2009/04/23 14:59:34.2     409    -12    149    410    436  91.7  20.9  34306  292.06 0854.61
2009/04/23 14:59:34.3     182   -123    143    220    262 124.1  35.7  34274  291.50 0854.61
2009/04/23 14:59:34.4     235   -158     72    284    294 124.0  14.3  34266  291.36 0854.61
2009/04/23 14:59:34.5      45   -195    201    201    284 166.9  50.1  34260  291.27 0854.61
2009/04/23 14:59:34.6     -28   -176    264    179    318 189.1  62.7  34272  291.48 0854.61
2009/04/23 14:59:34.7     -85   -212    164    229    281 201.9  39.1  34274  291.50 0854.61
2009/04/23 14:59:34.8      17   -124    151    126    196 172.0  56.1  34280  291.62 0854.61
2009/04/23 14:59:34.9     113   -114    110    161    194 135.3  37.3  34278  291.59 0854.61
2009/04/23 14:59:35.0     229     36    -46    232    237  81.0 -11.3  34252  291.12 0854.61
2009/04/23 14:59:35.1     -29    -24     15     38     40 230.5  22.0  34268  291.42 0854.61
2009/04/23 14:59:35.2      24    -75     86     79    116 161.7  52.2  34270  291.43 0854.61
2009/04/23 14:59:35.3     197      5     82    198    214  88.5  23.6  34282  291.66 0854.61
2009/04/23 14:59:35.4     342     76     98    351    365  77.4  15.6  34372  293.17 0854.61
2009/04/23 14:59:35.5     331    116    197    351    402  70.6  31.7  34322  292.34 0854.61
2009/04/23 14:59:35.6      80    -26    246     85    260 108.4  80.5  34348  292.76 0854.61
2009/04/23 14:59:35.7     115     70    297    135    326  58.5  74.0  34298  291.92 0854.61
2009/04/23 14:59:35.8     124    -32    261    129    291 104.6  71.9  34334  292.52 0854.61
2009/04/23 14:59:35.9     234    -28    281    236    366  97.0  56.0  34314  292.19 0854.61
2009/04/23 14:59:36.0     196    -12    263    197    328  93.7  59.4  34290  291.77 0854.61
2009/04/23 14:59:36.1     569    146    131    588    603  75.6  12.6  34218  290.56 0854.61
2009/04/23 14:59:36.2     529    144     14    549    550  74.7   1.5  34242  290.96 0854.61
2009/04/23 14:59:36.3     561    177    -76    589    594  72.4  -7.4  34210  290.42 0854.61
2009/04/23 14:59:36.4     412    223    -11    469    470  61.6  -1.4  34210  290.42 0854.61
2009/04/23 14:59:36.5     406    271      7    489    490  56.3   0.9  34178  289.88 0854.61
2009/04/23 14:59:36.6     483    227     16    534    535  64.8   1.8  34162  289.62 0854.61
2009/04/23 14:59:36.7     497    216     31    542    543  66.5   3.3  34166  289.67 0854.61
2009/04/23 14:59:36.8     460    216     95    509    518  64.8  10.6  34200  290.25 0854.61
2009/04/23 14:59:36.9     455    250    153    520    542  61.2  16.4  34208  290.40 0854.61
2009/04/23 14:59:37.0     501    190     45    537    540  69.2   4.9  34208  290.38 0854.60
2009/04/23 14:59:37.1     529    178    106    559    570  71.4  10.8  34186  290.02 0854.60
2009/04/23 14:59:37.2     443    233    149    501    523  62.2  16.6  34258  291.25 0854.60
2009/04/23 14:59:37.3     478    185    182    513    545  68.8  19.5  34296  291.89 0854.60
2009/04/23 14:59:37.4     499    117    171    513    541  76.8  18.5  34292  291.81 0854.60
2009/04/23 14:59:37.6     353     35    164    355    391  84.3  26.4  34256  291.20 0854.60
2009/04/23 14:59:37.6     261    229    233    348    418  48.8  36.9  34250  291.11 0854.60
2009/04/23 14:59:37.7     312    226     99    386    399  54.1  14.4  34232  290.79 0854.60
2009/04/23 14:59:37.8     258    250    126    360    381  45.9  20.0  34228  290.71 0854.60
2009/04/23 14:59:37.9     242    181    106    303    321  53.1  20.0  34234  290.83 0854.60
2009/04/23 14:59:38.0     280    165    112    325    344  59.5  19.1  34250  291.11 0854.60
2009/04/23 14:59:38.1     255    191    111    319    338  53.1  19.2  34238  290.89 0854.60
2009/04/23 14:59:38.2     315     94     34    329    331  73.4   6.0  34238  290.91 0854.60
2009/04/23 14:59:38.3     315    103     20    332    333  71.9   3.5  34222  290.62 0854.60
2009/04/23 14:59:38.4     264    120     99    291    308  65.6  18.9  34210  290.41 0854.60
2009/04/23 14:59:38.6     240     78     13    253    254  71.8   3.1  34202  290.29 0854.60
2009/04/23 14:59:38.7     267     84     44    280    284  72.5   9.0  34214  290.49 0854.60
2009/04/23 14:59:38.8     304     73     -9    313    314  76.5  -1.8  34224  290.65 0854.60
2009/04/23 14:59:38.9     294     63    -32    301    303  77.7  -6.2  34228  290.71 0854.60
2009/04/23 14:59:39.0     255     90    -82    271    283  70.5 -21.7  34230  290.75 0854.60
2009/04/23 14:59:39.1     249     52    -56    255    262  78.1 -12.4  34222  290.63 0854.60
2009/04/23 14:59:39.2     247    116     -1    274    275  64.8  -0.3  34236  290.85 0854.60
2009/04/23 14:59:39.3     271    103     -8    291    292  69.1  -1.6  34234  290.82 0854.60
2009/04/23 14:59:39.4     262    134     -5    295    296  62.9  -1.2  34226  290.70 0854.60
2009/04/23 14:59:39.5     269     86     73    283    293  72.3  14.5  34248  291.05 0854.60
2009/04/23 14:59:39.6     281     52    111    286    306  79.4  22.3  34270  291.43 0854.60
2009/04/23 14:59:39.7     277     84     98    290    307  73.1  18.8  34266  291.36 0854.60
2009/04/23 14:59:39.8     317     64    102    324    340  78.6  17.5  34282  291.64 0854.60
2009/04/23 14:59:39.9     272     32    172    274    323  83.2  35.2  34280  291.61 0854.60
2009/04/23 14:59:40.0     190    -14    135    191    233  94.4  38.8  34286  291.72 0854.60
2009/04/23 14:59:40.1     231     16     24    232    234  85.9   5.9  34292  291.80 0854.59
2009/04/23 14:59:40.2     323     21    119    324    345  86.3  21.0  34284  291.68 0854.59
2009/04/23 14:59:40.3     246    -23    155    248    292  95.5  35.5  34324  292.36 0854.59
2009/04/23 14:59:40.4     187    -16     70    188    200  95.0  21.0  34320  292.30 0854.59
2009/04/23 14:59:40.5     175   -180     46    252    257 135.9  10.3  34312  292.14 0854.59
2009/04/23 14:59:40.6     169   -131     40    214    218 127.8  10.8  34268  291.40 0854.59
2009/04/23 14:59:40.7     225    -98     99    246    265 113.7  23.1  34266  291.36 0854.59
2009/04/23 14:59:40.8     266     70    113    276    298  75.2  23.1  34278  291.56 0854.59
2009/04/23 14:59:40.9     245   -102    140    266    300 112.6  30.2  34256  291.19 0854.59
2009/04/23 14:59:41.0     191   -113    101    223    244 120.6  26.2  34266  291.36 0854.59
2009/04/23 14:59:41.1     134   -152    160    204    259 138.6  42.2  34314  292.19 0854.59
2009/04/23 14:59:41.2     228    -34    176    231    290  98.6  41.4  34230  290.76 0854.59
2009/04/23 14:59:41.3     254    -42    162    258    304  99.5  35.5  34216  290.53 0854.59
2009/04/23 14:59:41.4     241    -73    179    252    309 106.9  39.1  34222  290.63 0854.59
2009/04/23 14:59:41.5     332     22    100    333    348  86.2  16.8  34216  290.52 0854.59
2009/04/23 14:59:41.6     201     15    152    202    252  85.6  40.7  34190  290.09 0854.59
2009/04/23 14:59:41.7     116    -80    118    141    183 124.6  44.1  34216  290.52 0854.59
2009/04/23 14:59:41.8      74   -130    122    150    193 150.1  43.7  34234  290.84 0854.59
2009/04/23 14:59:41.9      85   -103    142    134    195 140.3  52.0  34228  290.72 0854.59
2009/04/23 14:59:42.0     134    -16     92    136    164  97.0  37.3  34224  290.65 0854.59
2009/04/23 14:59:42.1     100    -10     69    101    122  96.1  37.6  34228  290.72 0854.58
2009/04/23 14:59:42.2      23    -45     83     51     97 152.8  64.7  34246  291.04 0854.58
2009/04/23 14:59:42.3      23    -71     79     75    108 161.5  51.6  34232  290.79 0854.58
2009/04/23 14:59:42.4      11    -58    106     60    121 169.3  68.3  34250  291.11 0854.58
2009/04/23 14:59:42.5      28    -91    130     96    161 162.6  59.8  34260  291.26 0854.58
2009/04/23 14:59:42.6      24   -100    113    103    152 166.2  52.2  34248  291.08 0854.58
2009/04/23 14:59:42.7      68   -130     98    147    176 152.4  36.7  34250  291.11 0854.58
2009/04/23 14:59:42.8      37   -104     57    111    124 160.4  29.3  34258  291.23 0854.58
2009/04/23 14:59:42.9      43    -69     42     82     92 148.4  28.7  34258  291.25 0854.58
2009/04/23 14:59:43.0      21    -97     35    100    107 167.5  19.4  34252  291.15 0854.58
2009/04/23 14:59:43.1      38   -101     52    109    120 159.1  27.2  34242  290.98 0854.58
2009/04/23 14:59:43.2     -49   -145     72    154    170 198.7  27.1  34230  290.75 0854.58
2009/04/23 14:59:43.3     -64   -193     64    204    214 198.3  17.4  34226  290.70 0854.58
2009/04/23 14:59:43.4    -109   -196      3    225    226 209.0   0.8  34216  290.53 0854.58
2009/04/23 14:59:43.5     -62   -230     51    239    245 195.2  12.2  34206  290.36 0854.58
2009/04/23 14:59:43.6     -35   -186     67    190    202 190.7  19.4  34224  290.67 0854.58
2009/04/23 14:59:43.7     -49   -175     94    182    204 195.8  29.3  34216  290.53 0854.58
2009/04/23 14:59:43.8     -48   -175    147    182    233 195.6  43.5  34228  290.72 0854.58
2009/04/23 14:59:43.9     -34   -177    111    181    212 191.1  35.0  34236  290.86 0854.58
2009/04/23 14:59:44.0     -40   -112     83    120    145 200.0  37.6  34238  290.89 0854.59
2009/04/23 14:59:44.1     -34     30     70     46     83 312.2  64.1  34262  291.30 0854.59
2009/04/23 14:59:44.2     -39     51     63     65     90 322.2  49.4  34268  291.40 0854.59
2009/04/23 14:59:44.3     -75     75     39    107    113 315.0  20.0  34258  291.23 0854.59
2009/04/23 14:59:44.4     -58     79     44     99    108 323.5  25.7  34258  291.23 0854.59
2009/04/23 14:59:44.5     -85     80     10    118    119 313.2   4.9  34260  291.28 0854.59
2009/04/23 14:59:44.6    -113     53    -25    125    128 295.2 -11.3  34260  291.28 0854.59
2009/04/23 14:59:44.7    -121     -4     18    122    124 267.9   8.5  34246  291.03 0854.59
2009/04/23 14:59:44.8    -133    -29     10    137    138 257.6   4.4  34238  290.89 0854.59
2009/04/23 14:59:44.9    -133     22    -15    135    136 279.7  -6.7  34242  290.96 0854.59
2009/04/23 14:59:45.0    -120      9     -4    121    122 274.4  -2.2  34248  291.06 0854.59
2009/04/23 14:59:45.1     -78     31    -16     84     86 291.7 -10.9  34258  291.25 0854.59
2009/04/23 14:59:45.2     -37     -7    -21     38     43 258.6 -35.8  34250  291.11 0854.59
2009/04/23 14:59:45.3     -61    -73    -12     96     97 220.1  -7.3  34248  291.08 0854.59
2009/04/23 14:59:45.4    -124    -79    -42    148    154 237.6 -16.0  34278  291.57 0854.59
2009/04/23 14:59:45.5    -146    -48    -50    154    162 251.8 -18.1  34286  291.71 0854.59
2009/04/23 14:59:45.6    -135   -115     -1    178    179 229.6  -0.5  34246  291.04 0854.59
2009/04/23 14:59:45.7    -156   -166     11    229    230 223.2   2.8  34220  290.58 0854.59
2009/04/23 14:59:45.8    -137   -169    -16    218    219 219.0  -4.4  34226  290.69 0854.59
2009/04/23 14:59:45.9     -70   -172    -46    186    192 202.3 -13.9  34234  290.84 0854.59
2009/04/23 14:59:46.0     -13   -179    -57    180    188 184.4 -22.8  34230  290.75 0854.59
2009/04/23 14:59:46.1      -3   -205     -4    206    207 180.9  -1.2  34216  290.53 0854.59
2009/04/23 14:59:46.2       6   -183    -21    184    186 178.0  -6.7  34220  290.58 0854.59
2009/04/23 14:59:46.3     -54   -164     -4    173    174 198.3  -1.6  34218  290.57 0854.59
2009/04/23 14:59:46.4     -18   -132     -4    134    135 188.1  -1.8  34224  290.65 0854.59
2009/04/23 14:59:46.5      -8    -81    -67     82    105 186.2 -48.1  34232  290.79 0854.59
2009/04/23 14:59:46.6     -42    -91      7    101    102 204.9   4.4  34228  290.72 0854.59
2009/04/23 14:59:46.7     -93    -47     31    105    110 242.9  16.8  34228  290.72 0854.59
2009/04/23 14:59:46.8    -144    -11     42    145    152 265.6  16.3  34238  290.89 0854.59
2009/04/23 14:59:46.9    -208      0     16    209    210 270.0   4.4  34268  291.42 0854.59
2009/04/23 14:59:47.0    -200     10    -28    201    204 273.0  -8.0  34284  291.69 0854.59
2009/04/23 14:59:47.1    -211     12      4    212    213 273.3   1.2  34276  291.55 0854.59
2009/04/23 14:59:47.2    -244     -7    -31    245    248 268.3  -7.3  34256  291.21 0854.59
2009/04/23 14:59:47.3    -219     -8    -34    220    223 267.9  -9.0  34246  291.04 0854.59
2009/04/23 14:59:47.4    -212    -34    -10    215    216 260.8  -2.8  34254  291.18 0854.59
2009/04/23 14:59:47.5    -286      4    -30    287    289 271.0  -6.0  34256  291.19 0854.59
2009/04/23 14:59:47.6    -228    -17     43    229    234 265.7  10.8  34232  290.79 0854.59
2009/04/23 14:59:47.7    -178     13     11    179    180 274.4   3.8  34244  291.01 0854.59
2009/04/23 14:59:47.8    -166    -17    112    167    201 264.1  37.3  34216  290.53 0854.59
2009/04/23 14:59:47.9    -160    -80     97    180    204 243.4  30.8  34216  290.53 0854.59
2009/04/23 14:59:48.0    -151     50     56    160    170 288.6  19.4  34222  290.62 0854.60
2009/04/23 14:59:48.1    -157     47     19    165    167 286.8   6.9  34238  290.89 0854.60
2009/04/23 14:59:48.2     -70    131     82    149    170 331.9  31.0  34234  290.82 0854.60
2009/04/23 14:59:48.3     -40    100    100    108    147 338.2  47.9  34236  290.87 0854.60
2009/04/23 14:59:48.4     -16     80     75     82    111 348.4  47.5  34236  290.87 0854.60
2009/04/23 14:59:48.5     -17     82     88     84    121 348.0  51.2  34256  291.21 0854.60
2009/04/23 14:59:48.6      -3     47     50     48     69 355.5  50.1  34266  291.38 0854.60
2009/04/23 14:59:48.7      -6     -2     47      7     47 251.8  90.0  34276  291.54 0854.60
2009/04/23 14:59:48.8    -149    -25    -60    152    163 260.3 -26.9  34262  291.32 0854.60
2009/04/23 14:59:48.9     -79     40     51     89    102 297.1  32.4  34248  291.08 0854.60
2009/04/23 14:59:49.0      12    -20     57     24     61 147.5  77.0  34268  291.42 0854.60
2009/04/23 14:59:49.1      10    -49     94     51    106 168.4  68.9  34262  291.32 0854.60
2009/04/23 14:59:49.2     -24   -143    120    146    188 189.8  43.7  34240  290.94 0854.60
2009/04/23 14:59:49.3      38   -112    142    119    185 161.3  56.1  34254  291.18 0854.60
2009/04/23 14:59:49.4      76   -168    -18    185    186 155.5  -5.6  34232  290.81 0854.60
2009/04/23 14:59:49.5      97   -172      4    198    199 150.6   1.2  34208  290.38 0854.60
2009/04/23 14:59:49.6      15   -204     56    205    213 175.5  15.3  34208  290.38 0854.60
2009/04/23 14:59:49.7      18   -230     36    231    234 175.5   8.9  34208  290.37 0854.60
2009/04/23 14:59:49.8      49   -235     24    241    243 168.2   5.7  34206  290.34 0854.60
2009/04/23 14:59:49.9     -16   -216     59    217    226 184.5  15.3  34212  290.45 0854.60
2009/04/23 14:59:50.0      64   -227    107    236    259 164.2  26.2  34214  290.49 0854.60
2009/04/23 14:59:50.1      26   -209    128    211    246 172.7  34.2  34220  290.58 0854.60
2009/04/23 14:59:50.2      71   -226     60    238    246 162.4  14.3  34218  290.54 0854.60
2009/04/23 14:59:50.3      15   -163     98    164    191 174.4  34.0  34216  290.52 0854.60
2009/04/23 14:59:50.4      22   -142    111    144    181 171.1  41.7  34218  290.55 0854.60
2009/04/23 14:59:50.5      34   -105    110    111    156 161.7  50.0  34224  290.65 0854.60
2009/04/23 14:59:50.6      31   -101     82    106    134 162.6  41.7  34222  290.62 0854.60
2009/04/23 14:59:50.7      41    -87     11     97     98 154.6   6.9  34216  290.52 0854.60
2009/04/23 14:59:50.8      -2   -130     38    131    137 180.9  16.3  34222  290.62 0854.60
2009/04/23 14:59:50.9       6   -112     34    113    119 176.9  16.8  34218  290.57 0854.60
2009/04/23 14:59:51.0     -17    -98     64    100    118 190.2  35.6  34220  290.58 0854.60
2009/04/23 14:59:51.1       8    -99     65    100    119 175.1  36.0  34222  290.62 0854.60
2009/04/23 14:59:51.2     -14   -120     81    121    145 187.1  37.0  34222  290.64 0854.60
2009/04/23 14:59:51.3     -13    -60     46     62     77 192.5  39.7  34246  291.04 0854.60
2009/04/23 14:59:51.4      40    -33     55     52     75 129.5  52.1  34266  291.37 0854.60
2009/04/23 14:59:51.5      59     -4     85     60    104  94.3  61.5  34260  291.26 0854.60
2009/04/23 14:59:51.6      36     48    117     61    131  37.0  70.8  34252  291.15 0854.60
2009/04/23 14:59:51.7      25     11    159     28    161  66.5  90.0  34250  291.09 0854.60
2009/04/23 14:59:51.8      86      1    138     87    163  89.2  64.7  34244  290.99 0854.60
2009/04/23 14:59:51.9     102    -40    107    110    153 111.7  49.9  34228  290.72 0854.60
2009/04/23 14:59:52.0      78    -34    102     86    133 113.5  55.8  34228  290.72 0854.61
2009/04/23 14:59:52.1      82    -37     59     91    108 114.4  35.6  34226  290.69 0854.61
2009/04/23 14:59:52.2      76    -80     58    111    125 136.3  29.8  34224  290.65 0854.61
2009/04/23 14:59:52.3      80    -49     49     94    106 121.5  29.8  34224  290.67 0854.61
2009/04/23 14:59:52.4      77    -32     51     84     98 112.6  34.4  34224  290.67 0854.61
2009/04/23 14:59:52.5      79    -42     44     90    100 118.4  27.8  34230  290.75 0854.61
2009/04/23 14:59:52.6      89    -43     67     99    119 115.8  37.6  34236  290.86 0854.61
2009/04/23 14:59:52.7      99    -57     68    115    133 120.2  33.5  34228  290.72 0854.61
2009/04/23 14:59:52.8      89    -42    103     99    142 115.2  51.2  34238  290.91 0854.61
2009/04/23 14:59:52.9      26    -41     90     49    102 147.5  68.9  34264  291.35 0854.61
2009/04/23 14:59:53.0      30      0    106     31    110  90.0  83.3  34260  291.26 0854.61
2009/04/23 14:59:53.1     127    -37    101    133    167 106.4  41.4  34228  290.72 0854.61
2009/04/23 14:59:53.2     106    -49    127    117    172 114.8  52.5  34250  291.09 0854.61
2009/04/23 14:59:53.3     126    -29     98    130    162 103.3  40.7  34242  290.98 0854.61
2009/04/23 14:59:53.4      74    -35    103     83    132 115.4  56.4  34246  291.03 0854.61
2009/04/23 14:59:53.5     101    -29     81    106    133 106.4  41.6  34240  290.94 0854.61
2009/04/23 14:59:53.6       3     -3     83      5     83 136.6  90.0  34280  291.62 0854.61
2009/04/23 14:59:53.7     -10    -63    107     64    124 189.8  66.7  34270  291.45 0854.61
2009/04/23 14:59:53.8     -96     -7      8     97     98 265.7   4.9  34274  291.52 0854.61
2009/04/23 14:59:53.9     -76    -11     66     77    101 261.2  44.8  34270  291.43 0854.61
2009/04/23 14:59:54.0     -63     -8     60     64     87 262.1  49.0  34250  291.11 0854.61
2009/04/23 14:59:54.1     -77    -25     67     82    105 251.8  43.7  34232  290.81 0854.61
2009/04/23 14:59:54.2    -110    -89     30    142    146 230.9  12.2  34226  290.69 0854.61
2009/04/23 14:59:54.3    -148    -72     32    165    169 243.8  11.1  34228  290.74 0854.61
2009/04/23 14:59:54.4    -124    -41     -7    131    132 251.6  -3.1  34236  290.87 0854.61
2009/04/23 14:59:54.5    -117    -79     50    142    151 235.9  19.4  34220  290.60 0854.61
2009/04/23 14:59:54.6    -119    -35     62    125    139 253.6  28.2  34222  290.64 0854.61
2009/04/23 14:59:54.7     -88    -82     64    121    136 226.8  29.8  34228  290.72 0854.61
2009/04/23 14:59:54.8      17    -64     73     67     99 164.9  52.2  34236  290.86 0854.61
2009/04/23 14:59:54.9      70   -111    102    132    166 147.5  42.0  34222  290.64 0854.61
2009/04/23 14:59:55.0       3   -145     87    146    169 178.6  33.7  34220  290.60 0854.61
2009/04/23 14:59:55.1      -1   -115     75    116    138 180.9  35.6  34228  290.74 0854.61
2009/04/23 14:59:55.2     -25   -112    127    115    171 192.9  53.3  34228  290.74 0854.61
2009/04/23 14:59:55.3     -36   -125     76    131    151 196.0  32.9  34220  290.60 0854.61
2009/04/23 14:59:55.4     -35   -111    103    117    155 197.4  46.2  34224  290.65 0854.61
2009/04/23 14:59:55.5     -38    -87     92     96    132 203.6  49.4  34218  290.57 0854.61
2009/04/23 14:59:55.6     -42    -88     74     98    122 205.5  41.2  34216  290.53 0854.61
2009/04/23 14:59:55.7     -53    -84     70    100    122 212.6  38.6  34220  290.58 0854.61
2009/04/23 14:59:55.8     -46    -43     69     64     94 226.9  51.6  34226  290.70 0854.61
2009/04/23 14:59:55.9     -47    -33     62     58     84 234.9  51.6  34228  290.74 0854.61
2009/04/23 14:59:56.0     -72    -13     59     74     94 259.4  42.7  34230  290.75 0854.62
2009/04/23 14:59:56.1    -114    -16     74    116    137 261.6  35.6  34262  291.32 0854.62
2009/04/23 14:59:56.2    -138    -27     56    141    151 258.6  23.0  34256  291.21 0854.62
2009/04/23 14:59:56.3    -189    -58    -46    198    204 252.9 -13.2  34222  290.62 0854.62
2009/04/23 14:59:56.4    -144    -72     19    162    164 243.4   6.9  34206  290.35 0854.62
2009/04/23 14:59:56.5    -209    -96     86    231    246 245.2  21.3  34212  290.46 0854.62
2009/04/23 14:59:56.6    -302    -97     42    318    321 252.1   7.6  34206  290.34 0854.62
2009/04/23 14:59:56.7    -274      8    -25    275    277 271.7  -5.2  34230  290.76 0854.62
2009/04/23 14:59:56.8    -330     34    -31    332    334 276.0  -5.5  34226  290.69 0854.62
2009/04/23 14:59:56.9    -373     62    -35    379    381 279.5  -5.3  34210  290.42 0854.62
2009/04/23 14:59:57.0    -416     77    -61    424    429 280.6  -8.2  34210  290.43 0854.62
2009/04/23 14:59:57.1    -376     -3    -48    377    381 269.4  -7.3  34266  291.37 0854.62
2009/04/23 14:59:57.2    -374      0    -60    375    380 270.0  -9.1  34258  291.25 0854.62
2009/04/23 14:59:57.3    -405     93    -84    416    425 283.0 -11.5  34216  290.51 0854.62
2009/04/23 14:59:57.4    -360    134    -59    385    390 290.4  -8.8  34204  290.32 0854.62
2009/04/23 14:59:57.5    -289    133      8    319    320 294.8   1.6  34226  290.70 0854.62
2009/04/23 14:59:57.6    -283    133     56    313    319 295.2  10.2  34258  291.22 0854.62
2009/04/23 14:59:57.7    -261     81     55    274    280 287.3  11.4  34260  291.27 0854.62
2009/04/23 14:59:57.8    -215     43     99    220    241 281.5  25.9  34248  291.07 0854.62
2009/04/23 14:59:57.9    -191    104    216    218    306 298.6  50.0  34272  291.48 0854.62
2009/04/23 14:59:58.0    -215    102    153    238    282 295.4  35.6  34278  291.58 0854.62
2009/04/23 14:59:58.1    -217     67    137    228    265 287.3  34.0  34264  291.34 0854.62
2009/04/23 14:59:58.2    -172     59    129    183    223 289.1  38.8  34250  291.11 0854.62
2009/04/23 14:59:58.3    -182    -31     91    185    206 260.3  28.0  34244  291.01 0854.62
2009/04/23 14:59:58.4    -163    -77     60    181    191 244.8  18.4  34242  290.96 0854.62
2009/04/23 14:59:58.5    -169    -60     21    180    182 250.3   6.7  34258  291.23 0854.62
2009/04/23 14:59:58.6    -211    -49     47    217    223 256.7  12.4  34240  290.94 0854.62
2009/04/23 14:59:58.7    -255   -107     -1    277    278 247.2  -0.3  34214  290.49 0854.62
2009/04/23 14:59:58.8    -293    -31    -78    295    306 263.9 -14.8  34206  290.36 0854.62
2009/04/23 14:59:58.9    -366     -4   -118    367    385 269.3 -23.0  34202  290.27 0854.62
2009/04/23 14:59:59.0    -387    -97    -57    400    405 255.8  -8.1  34220  290.60 0854.62
2009/04/23 14:59:59.1    -340   -135    -72    366    374 248.3 -11.1  34240  290.94 0854.62
2009/04/23 14:59:59.2    -318    -41    -88    321    334 262.6 -15.4  34204  290.33 0854.62
2009/04/23 14:59:59.3    -304     13    -85    305    317 272.5 -15.7  34212  290.44 0854.62
2009/04/23 14:59:59.4    -272     59    -89    279    292 282.4 -22.8  34220  290.59 0854.62
2009/04/23 14:59:59.5    -234     86    -79    250    263 290.2 -17.6  34238  290.90 0854.62
2009/04/23 14:59:59.6    -139     62    -64    153    165 294.0 -28.2  34224  290.67 0854.62
2009/04/23 14:59:59.7    -221     50    -22    227    229 282.8  -5.6  34240  290.94 0854.62
2009/04/23 14:59:59.8    -392    -88   -136    402    425 257.2 -18.7  34210  290.41 0854.62
